<?xml version='1.0' encoding='UTF-8'?><gpx version="1.1" creator="JPX - https://github.com/jenetics/jpx" xmlns="http://www.topografix.com/GPX/1/1"><trk><trkseg><trkpt lat="45.0251285" lon="11.6406193"><ele>7.0</ele><time>2026-04-12T05:47:00.902Z</time></trkpt><trkpt lat="45.0250636" lon="11.6406312"><ele>7.0</ele><time>2026-04-12T05:47:09.555Z</time></trkpt><trkpt lat="45.0250838" lon="11.6405211"><ele>7.0</ele><time>2026-04-12T05:47:48.559Z</time></trkpt><trkpt lat="45.0251366" lon="11.6404657"><ele>7.0</ele><time>2026-04-12T05:47:51.521Z</time></trkpt><trkpt lat="45.0252002" lon="11.6404344"><ele>7.0</ele><time>2026-04-12T05:47:53.578Z</time></trkpt><trkpt lat="45.0252674" lon="11.6403877"><ele>7.0</ele><time>2026-04-12T05:47:55.568Z</time></trkpt><trkpt lat="45.0253275" lon="11.6403399"><ele>7.0</ele><time>2026-04-12T05:47:57.589Z</time></trkpt><trkpt lat="45.0254039" lon="11.6402981"><ele>7.000000000000001</ele><time>2026-04-12T05:47:59.551Z</time></trkpt><trkpt lat="45.0255317" lon="11.6402617"><ele>7.0</ele><time>2026-04-12T05:48:01.542Z</time></trkpt><trkpt lat="45.025605" lon="11.64024"><ele>7.0</ele><time>2026-04-12T05:48:03.558Z</time></trkpt><trkpt lat="45.02568" lon="11.6402267"><ele>7.0</ele><time>2026-04-12T05:48:05.563Z</time></trkpt><trkpt lat="45.02576" lon="11.6402267"><ele>7.000000000000001</ele><time>2026-04-12T05:48:07.552Z</time></trkpt><trkpt lat="45.0258417" lon="11.64023"><ele>7.0</ele><time>2026-04-12T05:48:09.553Z</time></trkpt><trkpt lat="45.025925" lon="11.6402383"><ele>7.199999999999999</ele><time>2026-04-12T05:48:11.574Z</time></trkpt><trkpt lat="45.02601" lon="11.64026"><ele>7.3999999999999995</ele><time>2026-04-12T05:48:13.561Z</time></trkpt><trkpt lat="45.026095" lon="11.64029"><ele>7.6000000000000005</ele><time>2026-04-12T05:48:15.567Z</time></trkpt><trkpt lat="45.026185" lon="11.6403283"><ele>7.800000000000001</ele><time>2026-04-12T05:48:17.565Z</time></trkpt><trkpt lat="45.0262683" lon="11.6403717"><ele>8.0</ele><time>2026-04-12T05:48:19.566Z</time></trkpt><trkpt lat="45.026355" lon="11.64042"><ele>8.0</ele><time>2026-04-12T05:48:21.568Z</time></trkpt><trkpt lat="45.0264383" lon="11.6404617"><ele>8.0</ele><time>2026-04-12T05:48:23.573Z</time></trkpt><trkpt lat="45.0265283" lon="11.6405133"><ele>8.0</ele><time>2026-04-12T05:48:25.57Z</time></trkpt><trkpt lat="45.0266233" lon="11.64057"><ele>8.0</ele><time>2026-04-12T05:48:27.557Z</time></trkpt><trkpt lat="45.0267217" lon="11.6406217"><ele>8.0</ele><time>2026-04-12T05:48:29.566Z</time></trkpt><trkpt lat="45.026815" lon="11.640705"><ele>8.0</ele><time>2026-04-12T05:48:31.564Z</time></trkpt><trkpt lat="45.0268983" lon="11.6407933"><ele>8.0</ele><time>2026-04-12T05:48:33.57Z</time></trkpt><trkpt lat="45.02698" lon="11.6408867"><ele>8.0</ele><time>2026-04-12T05:48:35.558Z</time></trkpt><trkpt lat="45.0270533" lon="11.6409817"><ele>8.0</ele><time>2026-04-12T05:48:37.561Z</time></trkpt><trkpt lat="45.0271033" lon="11.6410517"><ele>8.0</ele><time>2026-04-12T05:48:39.567Z</time></trkpt><trkpt lat="45.0271483" lon="11.6411383"><ele>7.833333333333333</ele><time>2026-04-12T05:49:51.573Z</time></trkpt><trkpt lat="45.0271983" lon="11.6412117"><ele>7.666666666666666</ele><time>2026-04-12T05:49:53.569Z</time></trkpt><trkpt lat="45.0272633" lon="11.6412883"><ele>7.5</ele><time>2026-04-12T05:49:55.558Z</time></trkpt><trkpt lat="45.0273467" lon="11.6413517"><ele>7.333333333333334</ele><time>2026-04-12T05:49:57.568Z</time></trkpt><trkpt lat="45.027415" lon="11.6414167"><ele>7.166666666666667</ele><time>2026-04-12T05:49:59.564Z</time></trkpt><trkpt lat="45.0274867" lon="11.6414833"><ele>7.0</ele><time>2026-04-12T05:50:01.56Z</time></trkpt><trkpt lat="45.02756" lon="11.6415517"><ele>7.3999999999999995</ele><time>2026-04-12T05:50:03.571Z</time></trkpt><trkpt lat="45.0276417" lon="11.64163"><ele>7.799999999999999</ele><time>2026-04-12T05:50:05.562Z</time></trkpt><trkpt lat="45.02773" lon="11.6416983"><ele>8.2</ele><time>2026-04-12T05:50:07.557Z</time></trkpt><trkpt lat="45.0278217" lon="11.64176"><ele>8.6</ele><time>2026-04-12T05:50:09.565Z</time></trkpt><trkpt lat="45.0279083" lon="11.6418033"><ele>9.0</ele><time>2026-04-12T05:50:11.568Z</time></trkpt><trkpt lat="45.02801" lon="11.641835"><ele>9.0</ele><time>2026-04-12T05:50:13.562Z</time></trkpt><trkpt lat="45.0281167" lon="11.6418583"><ele>9.0</ele><time>2026-04-12T05:50:15.566Z</time></trkpt><trkpt lat="45.0282233" lon="11.6418717"><ele>9.0</ele><time>2026-04-12T05:50:17.566Z</time></trkpt><trkpt lat="45.0283033" lon="11.6418983"><ele>9.0</ele><time>2026-04-12T05:50:19.533Z</time></trkpt><trkpt lat="45.028395" lon="11.6419183"><ele>9.0</ele><time>2026-04-12T05:50:21.566Z</time></trkpt><trkpt lat="45.0285067" lon="11.6419217"><ele>8.6</ele><time>2026-04-12T05:50:23.555Z</time></trkpt><trkpt lat="45.028605" lon="11.64194"><ele>8.2</ele><time>2026-04-12T05:50:25.573Z</time></trkpt><trkpt lat="45.0287017" lon="11.6419467"><ele>7.799999999999999</ele><time>2026-04-12T05:50:27.563Z</time></trkpt><trkpt lat="45.0287867" lon="11.6419467"><ele>7.3999999999999995</ele><time>2026-04-12T05:50:29.571Z</time></trkpt><trkpt lat="45.0288833" lon="11.6419433"><ele>7.0</ele><time>2026-04-12T05:50:31.568Z</time></trkpt><trkpt lat="45.02897" lon="11.6419567"><ele>7.0</ele><time>2026-04-12T05:50:33.529Z</time></trkpt><trkpt lat="45.0290567" lon="11.6419533"><ele>6.999999999999999</ele><time>2026-04-12T05:50:35.528Z</time></trkpt><trkpt lat="45.0291567" lon="11.641955"><ele>6.999999999999999</ele><time>2026-04-12T05:50:37.567Z</time></trkpt><trkpt lat="45.0292517" lon="11.6419567"><ele>7.0</ele><time>2026-04-12T05:50:39.537Z</time></trkpt><trkpt lat="45.02936" lon="11.6419383"><ele>7.0</ele><time>2026-04-12T05:50:41.565Z</time></trkpt><trkpt lat="45.0294633" lon="11.6418967"><ele>7.6</ele><time>2026-04-12T05:50:43.569Z</time></trkpt><trkpt lat="45.0295667" lon="11.6418567"><ele>8.2</ele><time>2026-04-12T05:50:45.536Z</time></trkpt><trkpt lat="45.0296717" lon="11.6418"><ele>8.8</ele><time>2026-04-12T05:50:47.632Z</time></trkpt><trkpt lat="45.02977" lon="11.6417367"><ele>9.4</ele><time>2026-04-12T05:50:49.555Z</time></trkpt><trkpt lat="45.0298583" lon="11.6416417"><ele>10.0</ele><time>2026-04-12T05:50:51.56Z</time></trkpt><trkpt lat="45.0299333" lon="11.64154"><ele>10.0</ele><time>2026-04-12T05:50:53.563Z</time></trkpt><trkpt lat="45.030015" lon="11.6414433"><ele>10.0</ele><time>2026-04-12T05:50:55.538Z</time></trkpt><trkpt lat="45.030105" lon="11.6413533"><ele>10.0</ele><time>2026-04-12T05:50:57.562Z</time></trkpt><trkpt lat="45.03021" lon="11.6413"><ele>10.0</ele><time>2026-04-12T05:50:59.571Z</time></trkpt><trkpt lat="45.0303267" lon="11.641265"><ele>10.0</ele><time>2026-04-12T05:51:01.569Z</time></trkpt><trkpt lat="45.030435" lon="11.641235"><ele>10.0</ele><time>2026-04-12T05:51:03.556Z</time></trkpt><trkpt lat="45.030545" lon="11.6412167"><ele>10.0</ele><time>2026-04-12T05:51:05.565Z</time></trkpt><trkpt lat="45.0306483" lon="11.6412"><ele>10.0</ele><time>2026-04-12T05:51:07.566Z</time></trkpt><trkpt lat="45.0307517" lon="11.6411917"><ele>10.0</ele><time>2026-04-12T05:51:09.567Z</time></trkpt><trkpt lat="45.0308533" lon="11.6412067"><ele>10.0</ele><time>2026-04-12T05:51:11.54Z</time></trkpt><trkpt lat="45.0309383" lon="11.6412267"><ele>10.0</ele><time>2026-04-12T05:51:13.567Z</time></trkpt><trkpt lat="45.0310417" lon="11.6412717"><ele>10.0</ele><time>2026-04-12T05:51:15.567Z</time></trkpt><trkpt lat="45.031145" lon="11.6413067"><ele>10.0</ele><time>2026-04-12T05:51:17.56Z</time></trkpt><trkpt lat="45.0312583" lon="11.64134"><ele>10.0</ele><time>2026-04-12T05:51:19.567Z</time></trkpt><trkpt lat="45.031385" lon="11.6413633"><ele>10.0</ele><time>2026-04-12T05:51:21.566Z</time></trkpt><trkpt lat="45.0314867" lon="11.64139"><ele>10.0</ele><time>2026-04-12T05:51:23.553Z</time></trkpt><trkpt lat="45.0315967" lon="11.641405"><ele>10.0</ele><time>2026-04-12T05:51:25.567Z</time></trkpt><trkpt lat="45.0316917" lon="11.64141"><ele>10.0</ele><time>2026-04-12T05:51:27.565Z</time></trkpt><trkpt lat="45.0317867" lon="11.64143"><ele>10.0</ele><time>2026-04-12T05:51:29.559Z</time></trkpt><trkpt lat="45.0319083" lon="11.6414433"><ele>10.0</ele><time>2026-04-12T05:51:31.541Z</time></trkpt><trkpt lat="45.032015" lon="11.6414717"><ele>10.0</ele><time>2026-04-12T05:51:33.565Z</time></trkpt><trkpt lat="45.032105" lon="11.6415"><ele>10.0</ele><time>2026-04-12T05:51:35.568Z</time></trkpt><trkpt lat="45.03222" lon="11.6415333"><ele>10.0</ele><time>2026-04-12T05:51:37.556Z</time></trkpt><trkpt lat="45.032325" lon="11.64155"><ele>10.0</ele><time>2026-04-12T05:51:39.555Z</time></trkpt><trkpt lat="45.03243" lon="11.6415767"><ele>9.8</ele><time>2026-04-12T05:51:41.564Z</time></trkpt><trkpt lat="45.032535" lon="11.6416033"><ele>9.6</ele><time>2026-04-12T05:51:43.569Z</time></trkpt><trkpt lat="45.032635" lon="11.6416233"><ele>9.4</ele><time>2026-04-12T05:51:45.567Z</time></trkpt><trkpt lat="45.0327283" lon="11.6416233"><ele>9.2</ele><time>2026-04-12T05:51:47.571Z</time></trkpt><trkpt lat="45.0328317" lon="11.6415983"><ele>9.0</ele><time>2026-04-12T05:51:49.564Z</time></trkpt><trkpt lat="45.032935" lon="11.64155"><ele>9.0</ele><time>2026-04-12T05:51:51.569Z</time></trkpt><trkpt lat="45.0330283" lon="11.6415183"><ele>9.0</ele><time>2026-04-12T05:51:53.552Z</time></trkpt><trkpt lat="45.03313" lon="11.641475"><ele>9.0</ele><time>2026-04-12T05:51:55.57Z</time></trkpt><trkpt lat="45.0332417" lon="11.6414483"><ele>9.0</ele><time>2026-04-12T05:51:57.561Z</time></trkpt><trkpt lat="45.0333633" lon="11.6414367"><ele>9.0</ele><time>2026-04-12T05:51:59.569Z</time></trkpt><trkpt lat="45.0334733" lon="11.6414333"><ele>8.8</ele><time>2026-04-12T05:52:01.567Z</time></trkpt><trkpt lat="45.033545" lon="11.6414383"><ele>8.600000000000001</ele><time>2026-04-12T05:52:02.558Z</time></trkpt><trkpt lat="45.0336483" lon="11.64143"><ele>8.4</ele><time>2026-04-12T05:52:04.558Z</time></trkpt><trkpt lat="45.0337317" lon="11.6414117"><ele>8.200000000000001</ele><time>2026-04-12T05:52:06.57Z</time></trkpt><trkpt lat="45.03384" lon="11.6414183"><ele>8.0</ele><time>2026-04-12T05:52:08.569Z</time></trkpt><trkpt lat="45.0339433" lon="11.6414317"><ele>8.0</ele><time>2026-04-12T05:52:10.559Z</time></trkpt><trkpt lat="45.034065" lon="11.6414483"><ele>8.0</ele><time>2026-04-12T05:52:12.568Z</time></trkpt><trkpt lat="45.0341283" lon="11.64146"><ele>8.0</ele><time>2026-04-12T05:52:13.573Z</time></trkpt><trkpt lat="45.0342417" lon="11.64147"><ele>8.0</ele><time>2026-04-12T05:52:15.561Z</time></trkpt><trkpt lat="45.034345" lon="11.6414833"><ele>8.0</ele><time>2026-04-12T05:52:17.636Z</time></trkpt><trkpt lat="45.034455" lon="11.6414933"><ele>8.0</ele><time>2026-04-12T05:52:19.568Z</time></trkpt><trkpt lat="45.0345633" lon="11.6414983"><ele>8.0</ele><time>2026-04-12T05:52:21.574Z</time></trkpt><trkpt lat="45.0346717" lon="11.6415183"><ele>8.0</ele><time>2026-04-12T05:52:23.634Z</time></trkpt><trkpt lat="45.034775" lon="11.6415383"><ele>8.0</ele><time>2026-04-12T05:52:25.573Z</time></trkpt><trkpt lat="45.034885" lon="11.64156"><ele>8.0</ele><time>2026-04-12T05:52:27.575Z</time></trkpt><trkpt lat="45.0349867" lon="11.6415767"><ele>8.200000000000001</ele><time>2026-04-12T05:52:29.566Z</time></trkpt><trkpt lat="45.0351017" lon="11.641595"><ele>8.4</ele><time>2026-04-12T05:52:31.558Z</time></trkpt><trkpt lat="45.03517" lon="11.641595"><ele>8.600000000000001</ele><time>2026-04-12T05:52:32.538Z</time></trkpt><trkpt lat="45.035235" lon="11.6416017"><ele>8.8</ele><time>2026-04-12T05:52:33.565Z</time></trkpt><trkpt lat="45.0353517" lon="11.6416133"><ele>9.0</ele><time>2026-04-12T05:52:35.545Z</time></trkpt><trkpt lat="45.035465" lon="11.641625"><ele>9.0</ele><time>2026-04-12T05:52:37.574Z</time></trkpt><trkpt lat="45.0355783" lon="11.64163"><ele>9.0</ele><time>2026-04-12T05:52:39.572Z</time></trkpt><trkpt lat="45.0356867" lon="11.6416417"><ele>9.0</ele><time>2026-04-12T05:52:41.569Z</time></trkpt><trkpt lat="45.035805" lon="11.6416433"><ele>9.0</ele><time>2026-04-12T05:52:43.569Z</time></trkpt><trkpt lat="45.0359133" lon="11.6416467"><ele>9.0</ele><time>2026-04-12T05:52:45.572Z</time></trkpt><trkpt lat="45.0360267" lon="11.6416667"><ele>9.25</ele><time>2026-04-12T05:52:47.568Z</time></trkpt><trkpt lat="45.0361367" lon="11.6416883"><ele>9.5</ele><time>2026-04-12T05:52:49.572Z</time></trkpt><trkpt lat="45.0362483" lon="11.641705"><ele>9.75</ele><time>2026-04-12T05:52:51.568Z</time></trkpt><trkpt lat="45.0363583" lon="11.6417117"><ele>10.0</ele><time>2026-04-12T05:52:53.568Z</time></trkpt><trkpt lat="45.0364783" lon="11.64172"><ele>10.0</ele><time>2026-04-12T05:52:55.571Z</time></trkpt><trkpt lat="45.0365817" lon="11.641735"><ele>10.0</ele><time>2026-04-12T05:52:57.568Z</time></trkpt><trkpt lat="45.03669" lon="11.641745"><ele>10.0</ele><time>2026-04-12T05:52:59.569Z</time></trkpt><trkpt lat="45.036795" lon="11.6417683"><ele>10.0</ele><time>2026-04-12T05:53:01.558Z</time></trkpt><trkpt lat="45.0369083" lon="11.6417833"><ele>10.0</ele><time>2026-04-12T05:53:03.567Z</time></trkpt><trkpt lat="45.0370117" lon="11.64179"><ele>9.8</ele><time>2026-04-12T05:53:05.543Z</time></trkpt><trkpt lat="45.03713" lon="11.6417983"><ele>9.6</ele><time>2026-04-12T05:53:07.55Z</time></trkpt><trkpt lat="45.0372433" lon="11.6417917"><ele>9.4</ele><time>2026-04-12T05:53:09.54Z</time></trkpt><trkpt lat="45.0373483" lon="11.6418117"><ele>9.2</ele><time>2026-04-12T05:53:11.546Z</time></trkpt><trkpt lat="45.0374383" lon="11.6418483"><ele>9.0</ele><time>2026-04-12T05:53:13.541Z</time></trkpt><trkpt lat="45.0375583" lon="11.6418867"><ele>8.8</ele><time>2026-04-12T05:53:15.558Z</time></trkpt><trkpt lat="45.0376167" lon="11.6419233"><ele>8.600000000000001</ele><time>2026-04-12T05:53:16.547Z</time></trkpt><trkpt lat="45.0376717" lon="11.6419667"><ele>8.4</ele><time>2026-04-12T05:53:17.547Z</time></trkpt><trkpt lat="45.037775" lon="11.6420517"><ele>8.200000000000001</ele><time>2026-04-12T05:53:19.555Z</time></trkpt><trkpt lat="45.0378667" lon="11.6421517"><ele>8.0</ele><time>2026-04-12T05:53:21.544Z</time></trkpt><trkpt lat="45.03795" lon="11.6422633"><ele>7.5</ele><time>2026-04-12T05:53:23.539Z</time></trkpt><trkpt lat="45.0380167" lon="11.6424"><ele>7.0</ele><time>2026-04-12T05:53:25.535Z</time></trkpt><trkpt lat="45.0380633" lon="11.642545"><ele>6.5</ele><time>2026-04-12T05:53:27.562Z</time></trkpt><trkpt lat="45.0380817" lon="11.642705"><ele>6.0</ele><time>2026-04-12T05:53:29.542Z</time></trkpt><trkpt lat="45.0380783" lon="11.6428783"><ele>6.0</ele><time>2026-04-12T05:53:31.566Z</time></trkpt><trkpt lat="45.0380617" lon="11.6430467"><ele>6.0</ele><time>2026-04-12T05:53:33.542Z</time></trkpt><trkpt lat="45.0380367" lon="11.6431983"><ele>6.0</ele><time>2026-04-12T05:53:35.557Z</time></trkpt><trkpt lat="45.038015" lon="11.6433517"><ele>6.0</ele><time>2026-04-12T05:53:37.566Z</time></trkpt><trkpt lat="45.0379883" lon="11.6435133"><ele>6.0</ele><time>2026-04-12T05:53:39.566Z</time></trkpt><trkpt lat="45.0379683" lon="11.6436717"><ele>6.0</ele><time>2026-04-12T05:53:41.565Z</time></trkpt><trkpt lat="45.0379517" lon="11.64383"><ele>6.0</ele><time>2026-04-12T05:53:43.567Z</time></trkpt><trkpt lat="45.0379333" lon="11.6439883"><ele>6.0</ele><time>2026-04-12T05:53:45.554Z</time></trkpt><trkpt lat="45.03793" lon="11.64415"><ele>6.0</ele><time>2026-04-12T05:53:47.561Z</time></trkpt><trkpt lat="45.0379467" lon="11.6443067"><ele>6.0</ele><time>2026-04-12T05:53:49.574Z</time></trkpt><trkpt lat="45.0379567" lon="11.6444567"><ele>6.0</ele><time>2026-04-12T05:53:51.55Z</time></trkpt><trkpt lat="45.03797" lon="11.6446033"><ele>6.0</ele><time>2026-04-12T05:53:53.558Z</time></trkpt><trkpt lat="45.037995" lon="11.644735"><ele>6.0</ele><time>2026-04-12T05:53:55.566Z</time></trkpt><trkpt lat="45.0380233" lon="11.6448783"><ele>5.8</ele><time>2026-04-12T05:53:57.57Z</time></trkpt><trkpt lat="45.0380567" lon="11.6450367"><ele>5.6</ele><time>2026-04-12T05:53:59.568Z</time></trkpt><trkpt lat="45.0380933" lon="11.6452067"><ele>5.4</ele><time>2026-04-12T05:54:01.565Z</time></trkpt><trkpt lat="45.038115" lon="11.6452917"><ele>5.2</ele><time>2026-04-12T05:54:02.566Z</time></trkpt><trkpt lat="45.03815" lon="11.6454483"><ele>5.0</ele><time>2026-04-12T05:54:04.568Z</time></trkpt><trkpt lat="45.03819" lon="11.6456133"><ele>5.25</ele><time>2026-04-12T05:54:06.567Z</time></trkpt><trkpt lat="45.0382433" lon="11.6457733"><ele>5.5</ele><time>2026-04-12T05:54:08.566Z</time></trkpt><trkpt lat="45.0383167" lon="11.64591"><ele>5.75</ele><time>2026-04-12T05:54:10.695Z</time></trkpt><trkpt lat="45.0384033" lon="11.6460317"><ele>6.0</ele><time>2026-04-12T05:54:12.566Z</time></trkpt><trkpt lat="45.0385067" lon="11.6461183"><ele>5.6</ele><time>2026-04-12T05:54:14.567Z</time></trkpt><trkpt lat="45.038625" lon="11.64618"><ele>5.199999999999999</ele><time>2026-04-12T05:54:16.568Z</time></trkpt><trkpt lat="45.0386867" lon="11.6462017"><ele>4.800000000000001</ele><time>2026-04-12T05:54:17.567Z</time></trkpt><trkpt lat="45.0388033" lon="11.646235"><ele>4.4</ele><time>2026-04-12T05:54:19.567Z</time></trkpt><trkpt lat="45.03892" lon="11.6462717"><ele>4.0</ele><time>2026-04-12T05:54:21.557Z</time></trkpt><trkpt lat="45.0389833" lon="11.646285"><ele>4.0</ele><time>2026-04-12T05:54:22.576Z</time></trkpt><trkpt lat="45.039105" lon="11.6463217"><ele>4.0</ele><time>2026-04-12T05:54:24.565Z</time></trkpt><trkpt lat="45.0391683" lon="11.6463433"><ele>4.0</ele><time>2026-04-12T05:54:25.563Z</time></trkpt><trkpt lat="45.03929" lon="11.6463783"><ele>4.0</ele><time>2026-04-12T05:54:27.567Z</time></trkpt><trkpt lat="45.0394067" lon="11.646415"><ele>4.0</ele><time>2026-04-12T05:54:29.569Z</time></trkpt><trkpt lat="45.039515" lon="11.6464367"><ele>4.2</ele><time>2026-04-12T05:54:31.573Z</time></trkpt><trkpt lat="45.0396167" lon="11.6464533"><ele>4.4</ele><time>2026-04-12T05:54:33.564Z</time></trkpt><trkpt lat="45.0397133" lon="11.6464783"><ele>4.6</ele><time>2026-04-12T05:54:35.562Z</time></trkpt><trkpt lat="45.03981" lon="11.6465067"><ele>4.8</ele><time>2026-04-12T05:54:37.544Z</time></trkpt><trkpt lat="45.0399183" lon="11.6465417"><ele>5.0</ele><time>2026-04-12T05:54:39.553Z</time></trkpt><trkpt lat="45.0399833" lon="11.6465533"><ele>5.142857142857142</ele><time>2026-04-12T05:54:40.554Z</time></trkpt><trkpt lat="45.0400517" lon="11.6465617"><ele>5.285714285714286</ele><time>2026-04-12T05:54:41.559Z</time></trkpt><trkpt lat="45.0401217" lon="11.6465733"><ele>5.428571428571429</ele><time>2026-04-12T05:54:42.562Z</time></trkpt><trkpt lat="45.0402067" lon="11.6465833"><ele>5.571428571428571</ele><time>2026-04-12T05:54:43.569Z</time></trkpt><trkpt lat="45.0402817" lon="11.6465867"><ele>5.714285714285714</ele><time>2026-04-12T05:54:44.566Z</time></trkpt><trkpt lat="45.0403517" lon="11.6465933"><ele>5.857142857142857</ele><time>2026-04-12T05:54:45.566Z</time></trkpt><trkpt lat="45.0404233" lon="11.6466017"><ele>6.0</ele><time>2026-04-12T05:54:46.568Z</time></trkpt><trkpt lat="45.0404883" lon="11.64661"><ele>6.0</ele><time>2026-04-12T05:54:47.567Z</time></trkpt><trkpt lat="45.0405517" lon="11.6466167"><ele>6.0</ele><time>2026-04-12T05:54:48.57Z</time></trkpt><trkpt lat="45.0406767" lon="11.64664"><ele>6.0</ele><time>2026-04-12T05:54:50.565Z</time></trkpt><trkpt lat="45.0407933" lon="11.6466833"><ele>6.0</ele><time>2026-04-12T05:54:52.569Z</time></trkpt><trkpt lat="45.040915" lon="11.64672"><ele>6.0</ele><time>2026-04-12T05:54:54.568Z</time></trkpt><trkpt lat="45.041025" lon="11.6467467"><ele>5.75</ele><time>2026-04-12T05:54:56.567Z</time></trkpt><trkpt lat="45.04114" lon="11.6467683"><ele>5.5</ele><time>2026-04-12T05:54:58.574Z</time></trkpt><trkpt lat="45.0412467" lon="11.646785"><ele>5.25</ele><time>2026-04-12T05:55:00.57Z</time></trkpt><trkpt lat="45.04136" lon="11.6468033"><ele>5.0</ele><time>2026-04-12T05:55:02.545Z</time></trkpt><trkpt lat="45.0414733" lon="11.6468217"><ele>5.0</ele><time>2026-04-12T05:55:04.566Z</time></trkpt><trkpt lat="45.0415933" lon="11.64683"><ele>5.0</ele><time>2026-04-12T05:55:06.567Z</time></trkpt><trkpt lat="45.0417067" lon="11.646835"><ele>5.0</ele><time>2026-04-12T05:55:08.568Z</time></trkpt><trkpt lat="45.0418233" lon="11.6468483"><ele>5.0</ele><time>2026-04-12T05:55:10.559Z</time></trkpt><trkpt lat="45.0419317" lon="11.6468533"><ele>5.2</ele><time>2026-04-12T05:55:12.57Z</time></trkpt><trkpt lat="45.0420433" lon="11.6468767"><ele>5.4</ele><time>2026-04-12T05:55:14.565Z</time></trkpt><trkpt lat="45.04216" lon="11.64689"><ele>5.6</ele><time>2026-04-12T05:55:16.566Z</time></trkpt><trkpt lat="45.0422733" lon="11.6469067"><ele>5.8</ele><time>2026-04-12T05:55:18.561Z</time></trkpt><trkpt lat="45.0423383" lon="11.646905"><ele>6.0</ele><time>2026-04-12T05:55:19.568Z</time></trkpt><trkpt lat="45.0424517" lon="11.6469283"><ele>6.0</ele><time>2026-04-12T05:55:21.558Z</time></trkpt><trkpt lat="45.04257" lon="11.646955"><ele>6.0</ele><time>2026-04-12T05:55:23.568Z</time></trkpt><trkpt lat="45.0426833" lon="11.64698"><ele>6.0</ele><time>2026-04-12T05:55:25.569Z</time></trkpt><trkpt lat="45.0428017" lon="11.6470117"><ele>6.0</ele><time>2026-04-12T05:55:27.568Z</time></trkpt><trkpt lat="45.0429117" lon="11.64705"><ele>5.5</ele><time>2026-04-12T05:55:29.562Z</time></trkpt><trkpt lat="45.04302" lon="11.6471183"><ele>5.0</ele><time>2026-04-12T05:55:31.571Z</time></trkpt><trkpt lat="45.0431133" lon="11.6472167"><ele>4.5</ele><time>2026-04-12T05:55:33.56Z</time></trkpt><trkpt lat="45.0432033" lon="11.64731"><ele>4.0</ele><time>2026-04-12T05:55:35.544Z</time></trkpt><trkpt lat="45.04329" lon="11.647415"><ele>4.0</ele><time>2026-04-12T05:55:37.571Z</time></trkpt><trkpt lat="45.0433767" lon="11.6475133"><ele>4.0</ele><time>2026-04-12T05:55:39.565Z</time></trkpt><trkpt lat="45.0434567" lon="11.6476083"><ele>4.0</ele><time>2026-04-12T05:55:41.556Z</time></trkpt><trkpt lat="45.043545" lon="11.647715"><ele>4.0</ele><time>2026-04-12T05:55:43.566Z</time></trkpt><trkpt lat="45.0436283" lon="11.6478283"><ele>4.0</ele><time>2026-04-12T05:55:45.565Z</time></trkpt><trkpt lat="45.0437167" lon="11.6479367"><ele>4.0</ele><time>2026-04-12T05:55:47.567Z</time></trkpt><trkpt lat="45.043795" lon="11.6480317"><ele>4.0</ele><time>2026-04-12T05:55:49.565Z</time></trkpt><trkpt lat="45.0438883" lon="11.6481267"><ele>4.0</ele><time>2026-04-12T05:55:51.68Z</time></trkpt><trkpt lat="45.0439833" lon="11.64822"><ele>4.0</ele><time>2026-04-12T05:55:53.57Z</time></trkpt><trkpt lat="45.044085" lon="11.6482917"><ele>4.0</ele><time>2026-04-12T05:55:55.571Z</time></trkpt><trkpt lat="45.0441933" lon="11.64835"><ele>4.25</ele><time>2026-04-12T05:55:57.564Z</time></trkpt><trkpt lat="45.044305" lon="11.6483833"><ele>4.5</ele><time>2026-04-12T05:55:59.57Z</time></trkpt><trkpt lat="45.04442" lon="11.6483933"><ele>4.75</ele><time>2026-04-12T05:56:01.566Z</time></trkpt><trkpt lat="45.0445383" lon="11.64837"><ele>5.0</ele><time>2026-04-12T05:56:03.557Z</time></trkpt><trkpt lat="45.0446517" lon="11.648335"><ele>5.0</ele><time>2026-04-12T05:56:05.567Z</time></trkpt><trkpt lat="45.0447633" lon="11.6482867"><ele>5.0</ele><time>2026-04-12T05:56:07.564Z</time></trkpt><trkpt lat="45.0448733" lon="11.6482167"><ele>5.0</ele><time>2026-04-12T05:56:09.568Z</time></trkpt><trkpt lat="45.0449367" lon="11.648175"><ele>5.0</ele><time>2026-04-12T05:56:10.564Z</time></trkpt><trkpt lat="45.0450433" lon="11.6481133"><ele>5.0</ele><time>2026-04-12T05:56:12.564Z</time></trkpt><trkpt lat="45.0451483" lon="11.6480417"><ele>4.8</ele><time>2026-04-12T05:56:14.536Z</time></trkpt><trkpt lat="45.0452067" lon="11.6480017"><ele>4.6</ele><time>2026-04-12T05:56:15.535Z</time></trkpt><trkpt lat="45.0453083" lon="11.6479283"><ele>4.4</ele><time>2026-04-12T05:56:17.573Z</time></trkpt><trkpt lat="45.045405" lon="11.6478567"><ele>4.2</ele><time>2026-04-12T05:56:19.565Z</time></trkpt><trkpt lat="45.0455017" lon="11.647785"><ele>4.0</ele><time>2026-04-12T05:56:21.565Z</time></trkpt><trkpt lat="45.0456017" lon="11.6477017"><ele>4.5</ele><time>2026-04-12T05:56:23.559Z</time></trkpt><trkpt lat="45.0457083" lon="11.647625"><ele>5.0</ele><time>2026-04-12T05:56:25.566Z</time></trkpt><trkpt lat="45.0458133" lon="11.6475533"><ele>5.5</ele><time>2026-04-12T05:56:27.566Z</time></trkpt><trkpt lat="45.0459183" lon="11.6474733"><ele>6.0</ele><time>2026-04-12T05:56:29.569Z</time></trkpt><trkpt lat="45.0460283" lon="11.6473933"><ele>6.0</ele><time>2026-04-12T05:56:31.566Z</time></trkpt><trkpt lat="45.0461317" lon="11.6473267"><ele>6.0</ele><time>2026-04-12T05:56:33.559Z</time></trkpt><trkpt lat="45.046235" lon="11.6472633"><ele>6.0</ele><time>2026-04-12T05:56:35.567Z</time></trkpt><trkpt lat="45.0463417" lon="11.64722"><ele>6.0</ele><time>2026-04-12T05:56:37.563Z</time></trkpt><trkpt lat="45.046455" lon="11.6472"><ele>6.0</ele><time>2026-04-12T05:56:39.56Z</time></trkpt><trkpt lat="45.0465567" lon="11.64719"><ele>6.0</ele><time>2026-04-12T05:56:41.561Z</time></trkpt><trkpt lat="45.0466517" lon="11.6471817"><ele>6.0</ele><time>2026-04-12T05:56:43.57Z</time></trkpt><trkpt lat="45.0467383" lon="11.6471933"><ele>6.0</ele><time>2026-04-12T05:56:45.57Z</time></trkpt><trkpt lat="45.046795" lon="11.6472433"><ele>6.0</ele><time>2026-04-12T05:56:47.564Z</time></trkpt><trkpt lat="45.046855" lon="11.647285"><ele>6.0</ele><time>2026-04-12T05:56:49.54Z</time></trkpt><trkpt lat="45.0469417" lon="11.6472983"><ele>5.8</ele><time>2026-04-12T05:56:51.57Z</time></trkpt><trkpt lat="45.0470317" lon="11.6472633"><ele>5.6</ele><time>2026-04-12T05:56:53.572Z</time></trkpt><trkpt lat="45.0471283" lon="11.647195"><ele>5.4</ele><time>2026-04-12T05:56:55.57Z</time></trkpt><trkpt lat="45.0472233" lon="11.64714"><ele>5.2</ele><time>2026-04-12T05:56:57.57Z</time></trkpt><trkpt lat="45.0473267" lon="11.6470717"><ele>5.0</ele><time>2026-04-12T05:56:59.561Z</time></trkpt><trkpt lat="45.0474183" lon="11.647005"><ele>5.4</ele><time>2026-04-12T05:57:01.567Z</time></trkpt><trkpt lat="45.0475117" lon="11.646945"><ele>5.8</ele><time>2026-04-12T05:57:03.563Z</time></trkpt><trkpt lat="45.047605" lon="11.646885"><ele>6.199999999999999</ele><time>2026-04-12T05:57:05.565Z</time></trkpt><trkpt lat="45.0477033" lon="11.646815"><ele>6.6</ele><time>2026-04-12T05:57:07.565Z</time></trkpt><trkpt lat="45.0478" lon="11.6467367"><ele>7.0</ele><time>2026-04-12T05:57:09.566Z</time></trkpt><trkpt lat="45.0478983" lon="11.646655"><ele>7.0</ele><time>2026-04-12T05:57:11.564Z</time></trkpt><trkpt lat="45.047995" lon="11.646575"><ele>6.999999999999999</ele><time>2026-04-12T05:57:13.555Z</time></trkpt><trkpt lat="45.0480733" lon="11.6464983"><ele>6.999999999999999</ele><time>2026-04-12T05:57:15.566Z</time></trkpt><trkpt lat="45.048175" lon="11.6464133"><ele>7.0</ele><time>2026-04-12T05:57:17.567Z</time></trkpt><trkpt lat="45.0482783" lon="11.6463167"><ele>7.0</ele><time>2026-04-12T05:57:19.559Z</time></trkpt><trkpt lat="45.0483317" lon="11.6462583"><ele>6.8</ele><time>2026-04-12T05:57:20.569Z</time></trkpt><trkpt lat="45.0484333" lon="11.6461467"><ele>6.6</ele><time>2026-04-12T05:57:22.568Z</time></trkpt><trkpt lat="45.0485333" lon="11.6460517"><ele>6.3999999999999995</ele><time>2026-04-12T05:57:24.567Z</time></trkpt><trkpt lat="45.0486333" lon="11.64596"><ele>6.199999999999999</ele><time>2026-04-12T05:57:26.57Z</time></trkpt><trkpt lat="45.0486867" lon="11.64591"><ele>6.0</ele><time>2026-04-12T05:57:27.568Z</time></trkpt><trkpt lat="45.0487883" lon="11.64583"><ele>5.75</ele><time>2026-04-12T05:57:29.564Z</time></trkpt><trkpt lat="45.0488917" lon="11.6457517"><ele>5.5</ele><time>2026-04-12T05:57:31.566Z</time></trkpt><trkpt lat="45.0489917" lon="11.6456733"><ele>5.25</ele><time>2026-04-12T05:57:33.555Z</time></trkpt><trkpt lat="45.0490933" lon="11.645605"><ele>5.0</ele><time>2026-04-12T05:57:35.563Z</time></trkpt><trkpt lat="45.0492" lon="11.6455433"><ele>5.0</ele><time>2026-04-12T05:57:37.567Z</time></trkpt><trkpt lat="45.0493083" lon="11.6454817"><ele>5.0</ele><time>2026-04-12T05:57:39.569Z</time></trkpt><trkpt lat="45.049415" lon="11.64542"><ele>5.0</ele><time>2026-04-12T05:57:41.573Z</time></trkpt><trkpt lat="45.0495217" lon="11.64536"><ele>5.0</ele><time>2026-04-12T05:57:43.573Z</time></trkpt><trkpt lat="45.0496267" lon="11.6453117"><ele>5.4</ele><time>2026-04-12T05:57:45.574Z</time></trkpt><trkpt lat="45.0497283" lon="11.64527"><ele>5.8</ele><time>2026-04-12T05:57:47.565Z</time></trkpt><trkpt lat="45.0498367" lon="11.64523"><ele>6.199999999999999</ele><time>2026-04-12T05:57:49.546Z</time></trkpt><trkpt lat="45.049945" lon="11.6451933"><ele>6.6</ele><time>2026-04-12T05:57:51.573Z</time></trkpt><trkpt lat="45.0500533" lon="11.6451667"><ele>7.0</ele><time>2026-04-12T05:57:53.565Z</time></trkpt><trkpt lat="45.0501617" lon="11.64514"><ele>7.0</ele><time>2026-04-12T05:57:55.569Z</time></trkpt><trkpt lat="45.05027" lon="11.6451167"><ele>7.0</ele><time>2026-04-12T05:57:57.559Z</time></trkpt><trkpt lat="45.0503833" lon="11.6450883"><ele>7.0</ele><time>2026-04-12T05:57:59.57Z</time></trkpt><trkpt lat="45.0504967" lon="11.6450417"><ele>7.0</ele><time>2026-04-12T05:58:01.568Z</time></trkpt><trkpt lat="45.0506167" lon="11.6450083"><ele>7.0</ele><time>2026-04-12T05:58:03.565Z</time></trkpt><trkpt lat="45.0507333" lon="11.6449817"><ele>6.999999999999999</ele><time>2026-04-12T05:58:05.573Z</time></trkpt><trkpt lat="45.050845" lon="11.6449517"><ele>6.999999999999999</ele><time>2026-04-12T05:58:07.56Z</time></trkpt><trkpt lat="45.0509517" lon="11.644925"><ele>7.0</ele><time>2026-04-12T05:58:09.563Z</time></trkpt><trkpt lat="45.0510533" lon="11.6448967"><ele>7.0</ele><time>2026-04-12T05:58:11.561Z</time></trkpt><trkpt lat="45.051145" lon="11.6448733"><ele>7.333333333333334</ele><time>2026-04-12T05:58:13.566Z</time></trkpt><trkpt lat="45.0512433" lon="11.6448817"><ele>7.666666666666667</ele><time>2026-04-12T05:58:15.566Z</time></trkpt><trkpt lat="45.0513417" lon="11.644895"><ele>8.0</ele><time>2026-04-12T05:58:17.566Z</time></trkpt><trkpt lat="45.0514133" lon="11.644905"><ele>8.333333333333334</ele><time>2026-04-12T05:58:19.568Z</time></trkpt><trkpt lat="45.0514667" lon="11.6449667"><ele>8.666666666666666</ele><time>2026-04-12T05:58:21.567Z</time></trkpt><trkpt lat="45.05147" lon="11.6450633"><ele>9.0</ele><time>2026-04-12T06:00:14.561Z</time></trkpt><trkpt lat="45.051475" lon="11.645175"><ele>9.000000000000002</ele><time>2026-04-12T06:00:17.56Z</time></trkpt><trkpt lat="45.0514933" lon="11.645265"><ele>9.0</ele><time>2026-04-12T06:00:19.568Z</time></trkpt><trkpt lat="45.051525" lon="11.6453433"><ele>9.0</ele><time>2026-04-12T06:00:21.566Z</time></trkpt><trkpt lat="45.051555" lon="11.645425"><ele>9.0</ele><time>2026-04-12T06:00:23.566Z</time></trkpt><trkpt lat="45.051585" lon="11.6455083"><ele>9.0</ele><time>2026-04-12T06:00:25.564Z</time></trkpt><trkpt lat="45.0516167" lon="11.6455867"><ele>9.000000000000002</ele><time>2026-04-12T06:00:27.563Z</time></trkpt><trkpt lat="45.051655" lon="11.645665"><ele>9.0</ele><time>2026-04-12T06:00:29.568Z</time></trkpt><trkpt lat="45.051695" lon="11.64575"><ele>9.0</ele><time>2026-04-12T06:00:31.569Z</time></trkpt><trkpt lat="45.051745" lon="11.6458433"><ele>9.0</ele><time>2026-04-12T06:00:33.564Z</time></trkpt><trkpt lat="45.0518083" lon="11.6459433"><ele>9.0</ele><time>2026-04-12T06:00:35.564Z</time></trkpt><trkpt lat="45.05187" lon="11.6460567"><ele>9.0</ele><time>2026-04-12T06:00:37.557Z</time></trkpt><trkpt lat="45.0519233" lon="11.6461567"><ele>9.0</ele><time>2026-04-12T06:00:39.573Z</time></trkpt><trkpt lat="45.0519767" lon="11.6462417"><ele>9.0</ele><time>2026-04-12T06:00:41.566Z</time></trkpt><trkpt lat="45.0520367" lon="11.64632"><ele>9.0</ele><time>2026-04-12T06:00:43.561Z</time></trkpt><trkpt lat="45.0520983" lon="11.6464083"><ele>9.0</ele><time>2026-04-12T06:00:45.554Z</time></trkpt><trkpt lat="45.0521733" lon="11.6465017"><ele>9.0</ele><time>2026-04-12T06:00:47.565Z</time></trkpt><trkpt lat="45.0522567" lon="11.64661"><ele>9.0</ele><time>2026-04-12T06:00:49.566Z</time></trkpt><trkpt lat="45.0523517" lon="11.6467383"><ele>9.0</ele><time>2026-04-12T06:00:51.666Z</time></trkpt><trkpt lat="45.05241" lon="11.6468117"><ele>9.000000000000002</ele><time>2026-04-12T06:00:52.567Z</time></trkpt><trkpt lat="45.0524583" lon="11.6468817"><ele>9.0</ele><time>2026-04-12T06:00:53.568Z</time></trkpt><trkpt lat="45.052505" lon="11.64695"><ele>9.0</ele><time>2026-04-12T06:00:54.575Z</time></trkpt><trkpt lat="45.0525517" lon="11.647015"><ele>9.0</ele><time>2026-04-12T06:00:55.568Z</time></trkpt><trkpt lat="45.0526" lon="11.6470767"><ele>9.0</ele><time>2026-04-12T06:00:56.57Z</time></trkpt><trkpt lat="45.0526517" lon="11.6471383"><ele>9.000000000000002</ele><time>2026-04-12T06:00:57.578Z</time></trkpt><trkpt lat="45.0527017" lon="11.6472"><ele>9.0</ele><time>2026-04-12T06:00:58.537Z</time></trkpt><trkpt lat="45.0527533" lon="11.6472633"><ele>8.75</ele><time>2026-04-12T06:00:59.567Z</time></trkpt><trkpt lat="45.0528467" lon="11.6473783"><ele>8.5</ele><time>2026-04-12T06:01:01.568Z</time></trkpt><trkpt lat="45.052935" lon="11.6474983"><ele>8.25</ele><time>2026-04-12T06:01:03.569Z</time></trkpt><trkpt lat="45.0530217" lon="11.6476167"><ele>8.0</ele><time>2026-04-12T06:01:05.572Z</time></trkpt><trkpt lat="45.0531133" lon="11.64773"><ele>8.0</ele><time>2026-04-12T06:01:07.575Z</time></trkpt><trkpt lat="45.05316" lon="11.6477917"><ele>7.999999999999999</ele><time>2026-04-12T06:01:08.575Z</time></trkpt><trkpt lat="45.053205" lon="11.647855"><ele>8.0</ele><time>2026-04-12T06:01:09.575Z</time></trkpt><trkpt lat="45.05325" lon="11.64792"><ele>8.0</ele><time>2026-04-12T06:01:10.568Z</time></trkpt><trkpt lat="45.0532967" lon="11.64799"><ele>7.999999999999999</ele><time>2026-04-12T06:01:11.569Z</time></trkpt><trkpt lat="45.0533417" lon="11.6480583"><ele>8.0</ele><time>2026-04-12T06:01:12.568Z</time></trkpt><trkpt lat="45.053385" lon="11.6481233"><ele>8.0</ele><time>2026-04-12T06:01:13.57Z</time></trkpt><trkpt lat="45.0534283" lon="11.64819"><ele>7.333333333333333</ele><time>2026-04-12T06:01:14.571Z</time></trkpt><trkpt lat="45.0535067" lon="11.648315"><ele>6.666666666666666</ele><time>2026-04-12T06:01:16.568Z</time></trkpt><trkpt lat="45.0535833" lon="11.6484483"><ele>6.0</ele><time>2026-04-12T06:01:18.569Z</time></trkpt><trkpt lat="45.0536233" lon="11.6485183"><ele>5.333333333333333</ele><time>2026-04-12T06:01:19.551Z</time></trkpt><trkpt lat="45.0536617" lon="11.6485917"><ele>4.666666666666666</ele><time>2026-04-12T06:01:20.557Z</time></trkpt><trkpt lat="45.0536967" lon="11.6486683"><ele>4.0</ele><time>2026-04-12T06:01:21.571Z</time></trkpt><trkpt lat="45.0537317" lon="11.6487467"><ele>4.0</ele><time>2026-04-12T06:01:22.569Z</time></trkpt><trkpt lat="45.053765" lon="11.6488233"><ele>4.0</ele><time>2026-04-12T06:01:23.573Z</time></trkpt><trkpt lat="45.0538" lon="11.6489"><ele>4.0</ele><time>2026-04-12T06:01:24.572Z</time></trkpt><trkpt lat="45.053865" lon="11.6490517"><ele>4.0</ele><time>2026-04-12T06:01:26.577Z</time></trkpt><trkpt lat="45.0539333" lon="11.6492"><ele>4.0</ele><time>2026-04-12T06:01:28.575Z</time></trkpt><trkpt lat="45.0539967" lon="11.649355"><ele>4.0</ele><time>2026-04-12T06:01:30.577Z</time></trkpt><trkpt lat="45.05403" lon="11.6494317"><ele>4.0</ele><time>2026-04-12T06:01:31.574Z</time></trkpt><trkpt lat="45.054065" lon="11.6495067"><ele>4.0</ele><time>2026-04-12T06:01:32.573Z</time></trkpt><trkpt lat="45.0541283" lon="11.64965"><ele>4.0</ele><time>2026-04-12T06:01:34.571Z</time></trkpt><trkpt lat="45.05419" lon="11.6497883"><ele>4.0</ele><time>2026-04-12T06:01:36.569Z</time></trkpt><trkpt lat="45.0542467" lon="11.6499133"><ele>3.6</ele><time>2026-04-12T06:01:38.573Z</time></trkpt><trkpt lat="45.0543" lon="11.6500367"><ele>3.2</ele><time>2026-04-12T06:01:40.571Z</time></trkpt><trkpt lat="45.0543517" lon="11.6501517"><ele>2.8000000000000003</ele><time>2026-04-12T06:01:42.558Z</time></trkpt><trkpt lat="45.0544" lon="11.6502617"><ele>2.4000000000000004</ele><time>2026-04-12T06:01:44.571Z</time></trkpt><trkpt lat="45.0544583" lon="11.6503783"><ele>2.0</ele><time>2026-04-12T06:01:46.559Z</time></trkpt><trkpt lat="45.0545283" lon="11.650515"><ele>2.0</ele><time>2026-04-12T06:01:48.566Z</time></trkpt><trkpt lat="45.0546033" lon="11.6506433"><ele>2.0</ele><time>2026-04-12T06:01:50.577Z</time></trkpt><trkpt lat="45.0546783" lon="11.6507583"><ele>2.0</ele><time>2026-04-12T06:01:52.639Z</time></trkpt><trkpt lat="45.0547483" lon="11.6508733"><ele>2.0</ele><time>2026-04-12T06:01:54.57Z</time></trkpt><trkpt lat="45.05482" lon="11.6509867"><ele>2.0</ele><time>2026-04-12T06:01:56.572Z</time></trkpt><trkpt lat="45.0548933" lon="11.651095"><ele>2.75</ele><time>2026-04-12T06:01:58.567Z</time></trkpt><trkpt lat="45.054975" lon="11.6511983"><ele>3.5</ele><time>2026-04-12T06:02:00.566Z</time></trkpt><trkpt lat="45.0550567" lon="11.6512967"><ele>4.25</ele><time>2026-04-12T06:02:02.561Z</time></trkpt><trkpt lat="45.0551467" lon="11.6514017"><ele>5.0</ele><time>2026-04-12T06:02:04.569Z</time></trkpt><trkpt lat="45.05525" lon="11.6515017"><ele>5.0</ele><time>2026-04-12T06:02:06.566Z</time></trkpt><trkpt lat="45.0553033" lon="11.65155"><ele>5.0</ele><time>2026-04-12T06:02:07.57Z</time></trkpt><trkpt lat="45.0553583" lon="11.6515983"><ele>5.0</ele><time>2026-04-12T06:02:08.566Z</time></trkpt><trkpt lat="45.0554133" lon="11.6516417"><ele>5.0</ele><time>2026-04-12T06:02:09.564Z</time></trkpt><trkpt lat="45.05547" lon="11.6516883"><ele>5.0</ele><time>2026-04-12T06:02:10.566Z</time></trkpt><trkpt lat="45.0555267" lon="11.6517333"><ele>5.0</ele><time>2026-04-12T06:02:11.54Z</time></trkpt><trkpt lat="45.055585" lon="11.651775"><ele>5.0</ele><time>2026-04-12T06:02:12.559Z</time></trkpt><trkpt lat="45.0556433" lon="11.6518167"><ele>5.0</ele><time>2026-04-12T06:02:13.567Z</time></trkpt><trkpt lat="45.055755" lon="11.6518883"><ele>5.0</ele><time>2026-04-12T06:02:15.567Z</time></trkpt><trkpt lat="45.0558583" lon="11.6519483"><ele>5.0</ele><time>2026-04-12T06:02:17.567Z</time></trkpt><trkpt lat="45.0559183" lon="11.6519817"><ele>5.0</ele><time>2026-04-12T06:02:18.56Z</time></trkpt><trkpt lat="45.0559817" lon="11.6520167"><ele>5.0</ele><time>2026-04-12T06:02:19.572Z</time></trkpt><trkpt lat="45.0560417" lon="11.652045"><ele>5.0</ele><time>2026-04-12T06:02:20.571Z</time></trkpt><trkpt lat="45.05616" lon="11.652095"><ele>5.0</ele><time>2026-04-12T06:02:22.577Z</time></trkpt><trkpt lat="45.0562217" lon="11.6521217"><ele>5.0</ele><time>2026-04-12T06:02:23.565Z</time></trkpt><trkpt lat="45.0562833" lon="11.65215"><ele>5.0</ele><time>2026-04-12T06:02:24.565Z</time></trkpt><trkpt lat="45.0563467" lon="11.6521717"><ele>5.0</ele><time>2026-04-12T06:02:25.57Z</time></trkpt><trkpt lat="45.0564617" lon="11.6522133"><ele>5.0</ele><time>2026-04-12T06:02:27.557Z</time></trkpt><trkpt lat="45.0565767" lon="11.652255"><ele>5.0</ele><time>2026-04-12T06:02:29.568Z</time></trkpt><trkpt lat="45.0566917" lon="11.6523017"><ele>4.5</ele><time>2026-04-12T06:02:31.559Z</time></trkpt><trkpt lat="45.0568067" lon="11.65235"><ele>4.0</ele><time>2026-04-12T06:02:33.562Z</time></trkpt><trkpt lat="45.0569233" lon="11.6524017"><ele>3.5</ele><time>2026-04-12T06:02:35.579Z</time></trkpt><trkpt lat="45.05704" lon="11.6524583"><ele>3.0</ele><time>2026-04-12T06:02:37.565Z</time></trkpt><trkpt lat="45.0571567" lon="11.652505"><ele>3.0</ele><time>2026-04-12T06:02:39.566Z</time></trkpt><trkpt lat="45.0572767" lon="11.6525567"><ele>3.0</ele><time>2026-04-12T06:02:41.568Z</time></trkpt><trkpt lat="45.0573933" lon="11.652605"><ele>3.0</ele><time>2026-04-12T06:02:43.567Z</time></trkpt><trkpt lat="45.05751" lon="11.65265"><ele>3.0</ele><time>2026-04-12T06:02:45.572Z</time></trkpt><trkpt lat="45.057625" lon="11.6526933"><ele>3.0</ele><time>2026-04-12T06:02:47.561Z</time></trkpt><trkpt lat="45.0577367" lon="11.6527383"><ele>3.0</ele><time>2026-04-12T06:02:49.569Z</time></trkpt><trkpt lat="45.0578483" lon="11.6527867"><ele>3.0</ele><time>2026-04-12T06:02:51.565Z</time></trkpt><trkpt lat="45.057965" lon="11.6528333"><ele>3.0</ele><time>2026-04-12T06:02:53.544Z</time></trkpt><trkpt lat="45.058075" lon="11.6528783"><ele>2.75</ele><time>2026-04-12T06:02:55.575Z</time></trkpt><trkpt lat="45.0581833" lon="11.6529233"><ele>2.5</ele><time>2026-04-12T06:02:57.575Z</time></trkpt><trkpt lat="45.0583" lon="11.6529817"><ele>2.25</ele><time>2026-04-12T06:02:59.566Z</time></trkpt><trkpt lat="45.0584167" lon="11.6530333"><ele>2.0</ele><time>2026-04-12T06:03:01.569Z</time></trkpt><trkpt lat="45.05853" lon="11.6530767"><ele>2.0</ele><time>2026-04-12T06:03:03.575Z</time></trkpt><trkpt lat="45.0586383" lon="11.6531217"><ele>2.0</ele><time>2026-04-12T06:03:05.569Z</time></trkpt><trkpt lat="45.05875" lon="11.6531683"><ele>2.0</ele><time>2026-04-12T06:03:07.571Z</time></trkpt><trkpt lat="45.0588617" lon="11.653215"><ele>2.0</ele><time>2026-04-12T06:03:09.567Z</time></trkpt><trkpt lat="45.058975" lon="11.6532667"><ele>2.0</ele><time>2026-04-12T06:03:11.568Z</time></trkpt><trkpt lat="45.05909" lon="11.65332"><ele>2.0</ele><time>2026-04-12T06:03:13.566Z</time></trkpt><trkpt lat="45.0592083" lon="11.6533717"><ele>2.0</ele><time>2026-04-12T06:03:15.576Z</time></trkpt><trkpt lat="45.05932" lon="11.6534267"><ele>2.0</ele><time>2026-04-12T06:03:17.576Z</time></trkpt><trkpt lat="45.05938" lon="11.6534567"><ele>2.0</ele><time>2026-04-12T06:03:18.569Z</time></trkpt><trkpt lat="45.059495" lon="11.6535183"><ele>2.0</ele><time>2026-04-12T06:03:20.568Z</time></trkpt><trkpt lat="45.059605" lon="11.653575"><ele>2.0</ele><time>2026-04-12T06:03:22.568Z</time></trkpt><trkpt lat="45.0597183" lon="11.6536417"><ele>2.0</ele><time>2026-04-12T06:03:24.574Z</time></trkpt><trkpt lat="45.0597767" lon="11.6536767"><ele>2.0</ele><time>2026-04-12T06:03:25.576Z</time></trkpt><trkpt lat="45.059885" lon="11.6537467"><ele>2.0</ele><time>2026-04-12T06:03:27.569Z</time></trkpt><trkpt lat="45.059995" lon="11.65382"><ele>1.75</ele><time>2026-04-12T06:03:29.569Z</time></trkpt><trkpt lat="45.0601067" lon="11.6538883"><ele>1.5</ele><time>2026-04-12T06:03:31.567Z</time></trkpt><trkpt lat="45.0602133" lon="11.6539567"><ele>1.25</ele><time>2026-04-12T06:03:33.568Z</time></trkpt><trkpt lat="45.0603167" lon="11.6540267"><ele>1.0</ele><time>2026-04-12T06:03:35.569Z</time></trkpt><trkpt lat="45.0604217" lon="11.6540933"><ele>1.0</ele><time>2026-04-12T06:03:37.571Z</time></trkpt><trkpt lat="45.0605317" lon="11.65416"><ele>1.0</ele><time>2026-04-12T06:03:39.545Z</time></trkpt><trkpt lat="45.0606367" lon="11.6542283"><ele>1.0</ele><time>2026-04-12T06:03:41.533Z</time></trkpt><trkpt lat="45.0607433" lon="11.6542917"><ele>1.0</ele><time>2026-04-12T06:03:43.558Z</time></trkpt><trkpt lat="45.0608567" lon="11.6543567"><ele>2.0</ele><time>2026-04-12T06:03:45.566Z</time></trkpt><trkpt lat="45.0609683" lon="11.654425"><ele>3.0</ele><time>2026-04-12T06:03:47.537Z</time></trkpt><trkpt lat="45.06108" lon="11.6544817"><ele>4.0</ele><time>2026-04-12T06:03:49.537Z</time></trkpt><trkpt lat="45.0611933" lon="11.6545367"><ele>5.0</ele><time>2026-04-12T06:03:51.537Z</time></trkpt><trkpt lat="45.0613083" lon="11.6545867"><ele>5.0</ele><time>2026-04-12T06:03:53.568Z</time></trkpt><trkpt lat="45.0614267" lon="11.65462"><ele>5.0</ele><time>2026-04-12T06:03:55.569Z</time></trkpt><trkpt lat="45.061545" lon="11.65465"><ele>5.0</ele><time>2026-04-12T06:03:57.56Z</time></trkpt><trkpt lat="45.06166" lon="11.6546733"><ele>5.0</ele><time>2026-04-12T06:03:59.573Z</time></trkpt><trkpt lat="45.06178" lon="11.6546917"><ele>4.5</ele><time>2026-04-12T06:04:01.57Z</time></trkpt><trkpt lat="45.061895" lon="11.6547067"><ele>4.0</ele><time>2026-04-12T06:04:03.564Z</time></trkpt><trkpt lat="45.0620033" lon="11.6547083"><ele>3.5</ele><time>2026-04-12T06:04:05.562Z</time></trkpt><trkpt lat="45.0621183" lon="11.6546983"><ele>3.0</ele><time>2026-04-12T06:04:07.536Z</time></trkpt><trkpt lat="45.0622317" lon="11.6546783"><ele>3.0</ele><time>2026-04-12T06:04:09.57Z</time></trkpt><trkpt lat="45.0623483" lon="11.654645"><ele>3.0</ele><time>2026-04-12T06:04:11.576Z</time></trkpt><trkpt lat="45.0624667" lon="11.65461"><ele>3.0</ele><time>2026-04-12T06:04:13.57Z</time></trkpt><trkpt lat="45.0625883" lon="11.6545717"><ele>3.0</ele><time>2026-04-12T06:04:15.57Z</time></trkpt><trkpt lat="45.0627067" lon="11.6545217"><ele>3.0</ele><time>2026-04-12T06:04:17.571Z</time></trkpt><trkpt lat="45.062825" lon="11.6544683"><ele>3.0</ele><time>2026-04-12T06:04:19.567Z</time></trkpt><trkpt lat="45.0629383" lon="11.6544167"><ele>3.0</ele><time>2026-04-12T06:04:21.558Z</time></trkpt><trkpt lat="45.06305" lon="11.6543567"><ele>3.0</ele><time>2026-04-12T06:04:23.567Z</time></trkpt><trkpt lat="45.0631617" lon="11.65429"><ele>3.0</ele><time>2026-04-12T06:04:25.569Z</time></trkpt><trkpt lat="45.0632717" lon="11.6542183"><ele>3.0</ele><time>2026-04-12T06:04:27.56Z</time></trkpt><trkpt lat="45.0633783" lon="11.6541367"><ele>3.0</ele><time>2026-04-12T06:04:29.567Z</time></trkpt><trkpt lat="45.0634783" lon="11.654045"><ele>3.0</ele><time>2026-04-12T06:04:31.575Z</time></trkpt><trkpt lat="45.063575" lon="11.6539533"><ele>3.0</ele><time>2026-04-12T06:04:33.552Z</time></trkpt><trkpt lat="45.0636717" lon="11.6538617"><ele>3.0</ele><time>2026-04-12T06:04:35.565Z</time></trkpt><trkpt lat="45.06377" lon="11.6537767"><ele>3.0</ele><time>2026-04-12T06:04:37.578Z</time></trkpt><trkpt lat="45.06387" lon="11.65369"><ele>3.0</ele><time>2026-04-12T06:04:39.568Z</time></trkpt><trkpt lat="45.0639717" lon="11.6536"><ele>2.75</ele><time>2026-04-12T06:04:41.564Z</time></trkpt><trkpt lat="45.0640767" lon="11.65352"><ele>2.5</ele><time>2026-04-12T06:04:43.562Z</time></trkpt><trkpt lat="45.064175" lon="11.65343"><ele>2.25</ele><time>2026-04-12T06:04:45.57Z</time></trkpt><trkpt lat="45.064275" lon="11.6533383"><ele>2.0</ele><time>2026-04-12T06:04:47.688Z</time></trkpt><trkpt lat="45.0643733" lon="11.6532467"><ele>2.0</ele><time>2026-04-12T06:04:49.571Z</time></trkpt><trkpt lat="45.0644733" lon="11.6531567"><ele>2.0</ele><time>2026-04-12T06:04:51.575Z</time></trkpt><trkpt lat="45.06457" lon="11.6530683"><ele>2.0</ele><time>2026-04-12T06:04:53.573Z</time></trkpt><trkpt lat="45.064665" lon="11.65298"><ele>2.0</ele><time>2026-04-12T06:04:55.56Z</time></trkpt><trkpt lat="45.0647633" lon="11.65289"><ele>2.0</ele><time>2026-04-12T06:04:57.573Z</time></trkpt><trkpt lat="45.064865" lon="11.6528117"><ele>2.0</ele><time>2026-04-12T06:04:59.56Z</time></trkpt><trkpt lat="45.064955" lon="11.6527267"><ele>2.0</ele><time>2026-04-12T06:05:01.568Z</time></trkpt><trkpt lat="45.0650483" lon="11.6526433"><ele>2.0</ele><time>2026-04-12T06:05:03.57Z</time></trkpt><trkpt lat="45.0651433" lon="11.6525567"><ele>2.0</ele><time>2026-04-12T06:05:05.567Z</time></trkpt><trkpt lat="45.0652417" lon="11.6524717"><ele>2.25</ele><time>2026-04-12T06:05:07.567Z</time></trkpt><trkpt lat="45.0653483" lon="11.652395"><ele>2.5</ele><time>2026-04-12T06:05:09.569Z</time></trkpt><trkpt lat="45.065455" lon="11.6523217"><ele>2.75</ele><time>2026-04-12T06:05:11.559Z</time></trkpt><trkpt lat="45.06556" lon="11.6522567"><ele>3.0</ele><time>2026-04-12T06:05:13.565Z</time></trkpt><trkpt lat="45.0656733" lon="11.6522"><ele>3.0</ele><time>2026-04-12T06:05:15.569Z</time></trkpt><trkpt lat="45.06579" lon="11.6521483"><ele>3.0</ele><time>2026-04-12T06:05:17.567Z</time></trkpt><trkpt lat="45.0659083" lon="11.6521033"><ele>3.0</ele><time>2026-04-12T06:05:19.571Z</time></trkpt><trkpt lat="45.0660283" lon="11.65206"><ele>3.0</ele><time>2026-04-12T06:05:21.557Z</time></trkpt><trkpt lat="45.06615" lon="11.6520233"><ele>3.0</ele><time>2026-04-12T06:05:23.57Z</time></trkpt><trkpt lat="45.0662717" lon="11.6519983"><ele>3.0</ele><time>2026-04-12T06:05:25.551Z</time></trkpt><trkpt lat="45.066335" lon="11.6519867"><ele>3.0</ele><time>2026-04-12T06:05:26.578Z</time></trkpt><trkpt lat="45.0664583" lon="11.6519833"><ele>3.0</ele><time>2026-04-12T06:05:28.567Z</time></trkpt><trkpt lat="45.06658" lon="11.6519817"><ele>3.0</ele><time>2026-04-12T06:05:30.561Z</time></trkpt><trkpt lat="45.0666983" lon="11.6519883"><ele>3.25</ele><time>2026-04-12T06:05:32.572Z</time></trkpt><trkpt lat="45.0668167" lon="11.652"><ele>3.5</ele><time>2026-04-12T06:05:34.57Z</time></trkpt><trkpt lat="45.066935" lon="11.65202"><ele>3.75</ele><time>2026-04-12T06:05:36.569Z</time></trkpt><trkpt lat="45.0670517" lon="11.6520517"><ele>4.0</ele><time>2026-04-12T06:05:38.57Z</time></trkpt><trkpt lat="45.0671683" lon="11.6520917"><ele>4.0</ele><time>2026-04-12T06:05:40.568Z</time></trkpt><trkpt lat="45.0672767" lon="11.6521267"><ele>4.0</ele><time>2026-04-12T06:05:42.548Z</time></trkpt><trkpt lat="45.0673883" lon="11.6521683"><ele>4.0</ele><time>2026-04-12T06:05:44.576Z</time></trkpt><trkpt lat="45.0674983" lon="11.65222"><ele>4.0</ele><time>2026-04-12T06:05:46.571Z</time></trkpt><trkpt lat="45.0676067" lon="11.6522683"><ele>4.0</ele><time>2026-04-12T06:05:48.571Z</time></trkpt><trkpt lat="45.067715" lon="11.65231"><ele>4.0</ele><time>2026-04-12T06:05:50.565Z</time></trkpt><trkpt lat="45.0678283" lon="11.6523567"><ele>4.0</ele><time>2026-04-12T06:05:52.565Z</time></trkpt><trkpt lat="45.067945" lon="11.652405"><ele>4.0</ele><time>2026-04-12T06:05:54.573Z</time></trkpt><trkpt lat="45.06806" lon="11.6524433"><ele>4.0</ele><time>2026-04-12T06:05:56.556Z</time></trkpt><trkpt lat="45.0681767" lon="11.6524833"><ele>4.0</ele><time>2026-04-12T06:05:58.568Z</time></trkpt><trkpt lat="45.0682867" lon="11.6525267"><ele>4.0</ele><time>2026-04-12T06:06:00.568Z</time></trkpt><trkpt lat="45.06839" lon="11.6525567"><ele>4.0</ele><time>2026-04-12T06:06:02.56Z</time></trkpt><trkpt lat="45.0684617" lon="11.6526183"><ele>4.0</ele><time>2026-04-12T06:06:04.576Z</time></trkpt><trkpt lat="45.0685333" lon="11.652695"><ele>4.0</ele><time>2026-04-12T06:06:06.57Z</time></trkpt><trkpt lat="45.068635" lon="11.65274"><ele>4.0</ele><time>2026-04-12T06:06:08.561Z</time></trkpt><trkpt lat="45.0687467" lon="11.652775"><ele>4.0</ele><time>2026-04-12T06:06:10.572Z</time></trkpt><trkpt lat="45.0688583" lon="11.6528117"><ele>4.0</ele><time>2026-04-12T06:06:12.565Z</time></trkpt><trkpt lat="45.0689717" lon="11.6528517"><ele>4.0</ele><time>2026-04-12T06:06:14.57Z</time></trkpt><trkpt lat="45.06908" lon="11.6529"><ele>4.0</ele><time>2026-04-12T06:06:16.554Z</time></trkpt><trkpt lat="45.0691867" lon="11.6529433"><ele>4.0</ele><time>2026-04-12T06:06:18.57Z</time></trkpt><trkpt lat="45.0692883" lon="11.6529967"><ele>4.0</ele><time>2026-04-12T06:06:20.567Z</time></trkpt><trkpt lat="45.0693917" lon="11.653065"><ele>4.0</ele><time>2026-04-12T06:06:22.572Z</time></trkpt><trkpt lat="45.0694933" lon="11.653135"><ele>3.8000000000000003</ele><time>2026-04-12T06:06:24.572Z</time></trkpt><trkpt lat="45.0695933" lon="11.653205"><ele>3.6000000000000005</ele><time>2026-04-12T06:06:26.571Z</time></trkpt><trkpt lat="45.0696917" lon="11.6532733"><ele>3.4</ele><time>2026-04-12T06:06:28.557Z</time></trkpt><trkpt lat="45.0697917" lon="11.653345"><ele>3.2</ele><time>2026-04-12T06:06:30.571Z</time></trkpt><trkpt lat="45.0698883" lon="11.6534183"><ele>3.0</ele><time>2026-04-12T06:06:32.568Z</time></trkpt><trkpt lat="45.0699867" lon="11.6535"><ele>3.5</ele><time>2026-04-12T06:06:34.577Z</time></trkpt><trkpt lat="45.0700783" lon="11.6535967"><ele>4.0</ele><time>2026-04-12T06:06:36.57Z</time></trkpt><trkpt lat="45.07017" lon="11.6536917"><ele>4.5</ele><time>2026-04-12T06:06:38.574Z</time></trkpt><trkpt lat="45.070265" lon="11.6537933"><ele>5.0</ele><time>2026-04-12T06:06:40.57Z</time></trkpt><trkpt lat="45.0703583" lon="11.6538917"><ele>5.0</ele><time>2026-04-12T06:06:42.568Z</time></trkpt><trkpt lat="45.0704567" lon="11.6539767"><ele>5.0</ele><time>2026-04-12T06:06:44.581Z</time></trkpt><trkpt lat="45.070575" lon="11.6540433"><ele>5.0</ele><time>2026-04-12T06:06:46.564Z</time></trkpt><trkpt lat="45.0706367" lon="11.65407"><ele>5.0</ele><time>2026-04-12T06:06:47.57Z</time></trkpt><trkpt lat="45.070755" lon="11.65412"><ele>5.0</ele><time>2026-04-12T06:06:49.57Z</time></trkpt><trkpt lat="45.0708767" lon="11.65417"><ele>4.5</ele><time>2026-04-12T06:06:51.563Z</time></trkpt><trkpt lat="45.070995" lon="11.6542167"><ele>4.0</ele><time>2026-04-12T06:06:53.576Z</time></trkpt><trkpt lat="45.0711083" lon="11.6542633"><ele>3.5</ele><time>2026-04-12T06:06:55.563Z</time></trkpt><trkpt lat="45.0712283" lon="11.6543017"><ele>3.0</ele><time>2026-04-12T06:06:57.568Z</time></trkpt><trkpt lat="45.07135" lon="11.6543467"><ele>3.0</ele><time>2026-04-12T06:06:59.564Z</time></trkpt><trkpt lat="45.0714667" lon="11.6543917"><ele>3.0</ele><time>2026-04-12T06:07:01.578Z</time></trkpt><trkpt lat="45.07158" lon="11.654435"><ele>3.0</ele><time>2026-04-12T06:07:03.565Z</time></trkpt><trkpt lat="45.0716967" lon="11.6544733"><ele>3.0</ele><time>2026-04-12T06:07:05.572Z</time></trkpt><trkpt lat="45.07181" lon="11.6545067"><ele>3.0</ele><time>2026-04-12T06:07:07.564Z</time></trkpt><trkpt lat="45.071925" lon="11.6545367"><ele>3.0</ele><time>2026-04-12T06:07:09.578Z</time></trkpt><trkpt lat="45.07204" lon="11.654555"><ele>3.0</ele><time>2026-04-12T06:07:11.567Z</time></trkpt><trkpt lat="45.0721567" lon="11.6545683"><ele>3.0</ele><time>2026-04-12T06:07:13.571Z</time></trkpt><trkpt lat="45.0722733" lon="11.6545817"><ele>3.0</ele><time>2026-04-12T06:07:15.551Z</time></trkpt><trkpt lat="45.07239" lon="11.6545967"><ele>3.0</ele><time>2026-04-12T06:07:17.564Z</time></trkpt><trkpt lat="45.0725033" lon="11.65461"><ele>3.0</ele><time>2026-04-12T06:07:19.566Z</time></trkpt><trkpt lat="45.072615" lon="11.6546317"><ele>3.0</ele><time>2026-04-12T06:07:21.569Z</time></trkpt><trkpt lat="45.072725" lon="11.6546517"><ele>2.5</ele><time>2026-04-12T06:07:23.568Z</time></trkpt><trkpt lat="45.0728383" lon="11.6546717"><ele>2.0</ele><time>2026-04-12T06:07:25.565Z</time></trkpt><trkpt lat="45.07295" lon="11.65469"><ele>1.5</ele><time>2026-04-12T06:07:27.568Z</time></trkpt><trkpt lat="45.0730667" lon="11.6547083"><ele>1.0</ele><time>2026-04-12T06:07:29.571Z</time></trkpt><trkpt lat="45.0731783" lon="11.65473"><ele>1.2000000000000002</ele><time>2026-04-12T06:07:31.569Z</time></trkpt><trkpt lat="45.0732833" lon="11.6547483"><ele>1.4000000000000001</ele><time>2026-04-12T06:07:33.569Z</time></trkpt><trkpt lat="45.07339" lon="11.65477"><ele>1.6</ele><time>2026-04-12T06:07:35.571Z</time></trkpt><trkpt lat="45.0735017" lon="11.65479"><ele>1.8</ele><time>2026-04-12T06:07:37.563Z</time></trkpt><trkpt lat="45.0736117" lon="11.6548083"><ele>2.0</ele><time>2026-04-12T06:07:39.578Z</time></trkpt><trkpt lat="45.0737217" lon="11.65483"><ele>2.0</ele><time>2026-04-12T06:07:41.578Z</time></trkpt><trkpt lat="45.073825" lon="11.6548467"><ele>2.0</ele><time>2026-04-12T06:07:43.572Z</time></trkpt><trkpt lat="45.0739317" lon="11.6548633"><ele>2.0</ele><time>2026-04-12T06:07:45.566Z</time></trkpt><trkpt lat="45.0740367" lon="11.654875"><ele>2.0</ele><time>2026-04-12T06:07:47.568Z</time></trkpt><trkpt lat="45.074145" lon="11.6548817"><ele>2.0</ele><time>2026-04-12T06:07:49.574Z</time></trkpt><trkpt lat="45.074255" lon="11.654895"><ele>2.2</ele><time>2026-04-12T06:07:51.57Z</time></trkpt><trkpt lat="45.0743667" lon="11.6549083"><ele>2.4000000000000004</ele><time>2026-04-12T06:07:53.555Z</time></trkpt><trkpt lat="45.074475" lon="11.654925"><ele>2.5999999999999996</ele><time>2026-04-12T06:07:55.558Z</time></trkpt><trkpt lat="45.0745767" lon="11.6549433"><ele>2.8</ele><time>2026-04-12T06:07:57.566Z</time></trkpt><trkpt lat="45.0746683" lon="11.6549717"><ele>3.0</ele><time>2026-04-12T06:07:59.566Z</time></trkpt><trkpt lat="45.0747517" lon="11.655015"><ele>3.0</ele><time>2026-04-12T06:08:01.55Z</time></trkpt><trkpt lat="45.0748417" lon="11.6550533"><ele>3.0</ele><time>2026-04-12T06:08:03.566Z</time></trkpt><trkpt lat="45.0749417" lon="11.6550783"><ele>3.0</ele><time>2026-04-12T06:08:05.562Z</time></trkpt><trkpt lat="45.0750417" lon="11.6550933"><ele>3.0</ele><time>2026-04-12T06:08:07.566Z</time></trkpt><trkpt lat="45.07514" lon="11.6551167"><ele>3.0</ele><time>2026-04-12T06:08:09.57Z</time></trkpt><trkpt lat="45.075235" lon="11.6551617"><ele>3.0</ele><time>2026-04-12T06:08:11.569Z</time></trkpt><trkpt lat="45.0753133" lon="11.65524"><ele>3.0</ele><time>2026-04-12T06:08:13.571Z</time></trkpt><trkpt lat="45.0753733" lon="11.6553167"><ele>3.0</ele><time>2026-04-12T06:08:15.572Z</time></trkpt><trkpt lat="45.0754167" lon="11.6553933"><ele>3.0</ele><time>2026-04-12T06:08:17.574Z</time></trkpt><trkpt lat="45.0754617" lon="11.6554567"><ele>3.0</ele><time>2026-04-12T06:08:19.575Z</time></trkpt><trkpt lat="45.075535" lon="11.6555033"><ele>3.0</ele><time>2026-04-12T06:08:22.561Z</time></trkpt><trkpt lat="45.0756133" lon="11.6554983"><ele>3.1428571428571423</ele><time>2026-04-12T06:08:27.569Z</time></trkpt><trkpt lat="45.075685" lon="11.655475"><ele>3.2857142857142856</ele><time>2026-04-12T06:08:30.576Z</time></trkpt><trkpt lat="45.0757183" lon="11.6553883"><ele>3.4285714285714284</ele><time>2026-04-12T06:08:32.569Z</time></trkpt><trkpt lat="45.0757483" lon="11.655305"><ele>3.571428571428571</ele><time>2026-04-12T06:08:34.574Z</time></trkpt><trkpt lat="45.07579" lon="11.6552367"><ele>3.714285714285714</ele><time>2026-04-12T06:08:36.572Z</time></trkpt><trkpt lat="45.07584" lon="11.6551767"><ele>3.8571428571428568</ele><time>2026-04-12T06:08:38.569Z</time></trkpt><trkpt lat="45.0759033" lon="11.6551467"><ele>4.0</ele><time>2026-04-12T06:08:40.562Z</time></trkpt><trkpt lat="45.0759717" lon="11.6551417"><ele>4.0</ele><time>2026-04-12T06:08:42.559Z</time></trkpt><trkpt lat="45.0760633" lon="11.6551567"><ele>4.0</ele><time>2026-04-12T06:08:45.57Z</time></trkpt><trkpt lat="45.0761383" lon="11.65516"><ele>4.0</ele><time>2026-04-12T06:08:47.547Z</time></trkpt><trkpt lat="45.0762317" lon="11.65515"><ele>4.0</ele><time>2026-04-12T06:08:49.543Z</time></trkpt><trkpt lat="45.0763283" lon="11.6551517"><ele>4.0</ele><time>2026-04-12T06:08:51.574Z</time></trkpt><trkpt lat="45.0764167" lon="11.655115"><ele>4.0</ele><time>2026-04-12T06:08:53.568Z</time></trkpt><trkpt lat="45.0764867" lon="11.6550217"><ele>4.0</ele><time>2026-04-12T06:08:55.561Z</time></trkpt><trkpt lat="45.0765617" lon="11.6549033"><ele>4.0</ele><time>2026-04-12T06:08:57.571Z</time></trkpt><trkpt lat="45.0766417" lon="11.654785"><ele>4.0</ele><time>2026-04-12T06:08:59.572Z</time></trkpt><trkpt lat="45.07672" lon="11.65467"><ele>4.0</ele><time>2026-04-12T06:09:01.564Z</time></trkpt><trkpt lat="45.076795" lon="11.654555"><ele>3.6</ele><time>2026-04-12T06:09:03.577Z</time></trkpt><trkpt lat="45.07687" lon="11.6544467"><ele>3.2</ele><time>2026-04-12T06:09:05.569Z</time></trkpt><trkpt lat="45.0769433" lon="11.65435"><ele>2.8000000000000003</ele><time>2026-04-12T06:09:07.57Z</time></trkpt><trkpt lat="45.07703" lon="11.6542617"><ele>2.4000000000000004</ele><time>2026-04-12T06:09:09.564Z</time></trkpt><trkpt lat="45.07713" lon="11.6541983"><ele>2.0</ele><time>2026-04-12T06:09:11.561Z</time></trkpt><trkpt lat="45.0772333" lon="11.6541483"><ele>2.0</ele><time>2026-04-12T06:09:13.571Z</time></trkpt><trkpt lat="45.0773367" lon="11.6541117"><ele>2.0</ele><time>2026-04-12T06:09:15.567Z</time></trkpt><trkpt lat="45.0774383" lon="11.654075"><ele>2.0</ele><time>2026-04-12T06:09:17.571Z</time></trkpt><trkpt lat="45.07754" lon="11.6540183"><ele>2.0</ele><time>2026-04-12T06:09:19.571Z</time></trkpt><trkpt lat="45.0776233" lon="11.6539333"><ele>2.0</ele><time>2026-04-12T06:09:21.573Z</time></trkpt><trkpt lat="45.0776933" lon="11.6538217"><ele>2.2</ele><time>2026-04-12T06:09:23.57Z</time></trkpt><trkpt lat="45.07776" lon="11.6537"><ele>2.4000000000000004</ele><time>2026-04-12T06:09:25.564Z</time></trkpt><trkpt lat="45.0778333" lon="11.6535833"><ele>2.5999999999999996</ele><time>2026-04-12T06:09:27.567Z</time></trkpt><trkpt lat="45.0779067" lon="11.65347"><ele>2.8</ele><time>2026-04-12T06:09:29.567Z</time></trkpt><trkpt lat="45.0779817" lon="11.6533567"><ele>3.0</ele><time>2026-04-12T06:09:31.568Z</time></trkpt><trkpt lat="45.078055" lon="11.653235"><ele>3.0</ele><time>2026-04-12T06:09:33.564Z</time></trkpt><trkpt lat="45.0781133" lon="11.6531017"><ele>3.0</ele><time>2026-04-12T06:09:35.574Z</time></trkpt><trkpt lat="45.0781633" lon="11.6529633"><ele>3.0</ele><time>2026-04-12T06:09:37.566Z</time></trkpt><trkpt lat="45.07821" lon="11.652825"><ele>3.0</ele><time>2026-04-12T06:09:39.566Z</time></trkpt><trkpt lat="45.07825" lon="11.6526767"><ele>3.0</ele><time>2026-04-12T06:09:41.557Z</time></trkpt><trkpt lat="45.0782933" lon="11.6525333"><ele>3.2</ele><time>2026-04-12T06:09:43.569Z</time></trkpt><trkpt lat="45.0783433" lon="11.6523967"><ele>3.4</ele><time>2026-04-12T06:09:45.572Z</time></trkpt><trkpt lat="45.0783917" lon="11.65226"><ele>3.6000000000000005</ele><time>2026-04-12T06:09:47.564Z</time></trkpt><trkpt lat="45.0784433" lon="11.6521183"><ele>3.8000000000000003</ele><time>2026-04-12T06:09:49.567Z</time></trkpt><trkpt lat="45.0785117" lon="11.652"><ele>4.0</ele><time>2026-04-12T06:09:51.572Z</time></trkpt><trkpt lat="45.0785867" lon="11.6518883"><ele>4.0</ele><time>2026-04-12T06:09:53.535Z</time></trkpt><trkpt lat="45.0786717" lon="11.6517683"><ele>4.0</ele><time>2026-04-12T06:09:55.575Z</time></trkpt><trkpt lat="45.0787567" lon="11.65165"><ele>4.0</ele><time>2026-04-12T06:09:57.565Z</time></trkpt><trkpt lat="45.0788383" lon="11.6515367"><ele>4.0</ele><time>2026-04-12T06:09:59.576Z</time></trkpt><trkpt lat="45.0789117" lon="11.6514067"><ele>4.0</ele><time>2026-04-12T06:10:01.565Z</time></trkpt><trkpt lat="45.0789733" lon="11.6512667"><ele>4.0</ele><time>2026-04-12T06:10:03.569Z</time></trkpt><trkpt lat="45.0790333" lon="11.651125"><ele>4.0</ele><time>2026-04-12T06:10:05.561Z</time></trkpt><trkpt lat="45.079095" lon="11.6509817"><ele>4.0</ele><time>2026-04-12T06:10:07.569Z</time></trkpt><trkpt lat="45.07915" lon="11.6508383"><ele>4.0</ele><time>2026-04-12T06:10:09.565Z</time></trkpt><trkpt lat="45.0792083" lon="11.6506933"><ele>4.0</ele><time>2026-04-12T06:10:11.568Z</time></trkpt><trkpt lat="45.079265" lon="11.650555"><ele>4.0</ele><time>2026-04-12T06:10:13.57Z</time></trkpt><trkpt lat="45.0793267" lon="11.6504067"><ele>4.0</ele><time>2026-04-12T06:10:15.569Z</time></trkpt><trkpt lat="45.0793833" lon="11.65026"><ele>3.8000000000000003</ele><time>2026-04-12T06:10:17.565Z</time></trkpt><trkpt lat="45.0794317" lon="11.6501033"><ele>3.6000000000000005</ele><time>2026-04-12T06:10:19.568Z</time></trkpt><trkpt lat="45.07947" lon="11.6499417"><ele>3.4</ele><time>2026-04-12T06:10:21.575Z</time></trkpt><trkpt lat="45.0794983" lon="11.64977"><ele>3.2</ele><time>2026-04-12T06:10:23.547Z</time></trkpt><trkpt lat="45.0795083" lon="11.6496817"><ele>3.0</ele><time>2026-04-12T06:10:24.565Z</time></trkpt><trkpt lat="45.0795183" lon="11.649505"><ele>3.0</ele><time>2026-04-12T06:10:26.557Z</time></trkpt><trkpt lat="45.0795183" lon="11.6493317"><ele>3.0</ele><time>2026-04-12T06:10:28.568Z</time></trkpt><trkpt lat="45.0795167" lon="11.6492417"><ele>3.0</ele><time>2026-04-12T06:10:29.568Z</time></trkpt><trkpt lat="45.079515" lon="11.6490667"><ele>3.0</ele><time>2026-04-12T06:10:31.57Z</time></trkpt><trkpt lat="45.0795167" lon="11.64889"><ele>3.0</ele><time>2026-04-12T06:10:33.566Z</time></trkpt><trkpt lat="45.0795183" lon="11.6487183"><ele>3.2</ele><time>2026-04-12T06:10:35.567Z</time></trkpt><trkpt lat="45.0795133" lon="11.648545"><ele>3.4</ele><time>2026-04-12T06:10:37.575Z</time></trkpt><trkpt lat="45.0795067" lon="11.6483683"><ele>3.6000000000000005</ele><time>2026-04-12T06:10:39.569Z</time></trkpt><trkpt lat="45.0794867" lon="11.6481933"><ele>3.8000000000000003</ele><time>2026-04-12T06:10:41.57Z</time></trkpt><trkpt lat="45.0794683" lon="11.6481067"><ele>4.0</ele><time>2026-04-12T06:10:42.571Z</time></trkpt><trkpt lat="45.0794483" lon="11.6480217"><ele>4.0</ele><time>2026-04-12T06:10:43.571Z</time></trkpt><trkpt lat="45.0794283" lon="11.6479367"><ele>4.0</ele><time>2026-04-12T06:10:44.547Z</time></trkpt><trkpt lat="45.0793933" lon="11.6477667"><ele>4.0</ele><time>2026-04-12T06:10:46.576Z</time></trkpt><trkpt lat="45.07937" lon="11.6476833"><ele>4.0</ele><time>2026-04-12T06:10:47.573Z</time></trkpt><trkpt lat="45.0793217" lon="11.6475217"><ele>4.0</ele><time>2026-04-12T06:10:49.563Z</time></trkpt><trkpt lat="45.079265" lon="11.647365"><ele>3.9999999999999996</ele><time>2026-04-12T06:10:51.568Z</time></trkpt><trkpt lat="45.0792383" lon="11.6472833"><ele>4.0</ele><time>2026-04-12T06:10:52.565Z</time></trkpt><trkpt lat="45.07921" lon="11.6472033"><ele>4.0</ele><time>2026-04-12T06:10:53.567Z</time></trkpt><trkpt lat="45.0791817" lon="11.6471233"><ele>4.0</ele><time>2026-04-12T06:10:54.555Z</time></trkpt><trkpt lat="45.0791517" lon="11.6470433"><ele>3.9999999999999996</ele><time>2026-04-12T06:10:55.557Z</time></trkpt><trkpt lat="45.0791017" lon="11.6468867"><ele>4.0</ele><time>2026-04-12T06:10:57.57Z</time></trkpt><trkpt lat="45.079055" lon="11.646725"><ele>4.0</ele><time>2026-04-12T06:10:59.564Z</time></trkpt><trkpt lat="45.0790183" lon="11.6465617"><ele>4.0</ele><time>2026-04-12T06:11:01.568Z</time></trkpt><trkpt lat="45.0789983" lon="11.6464133"><ele>4.0</ele><time>2026-04-12T06:11:03.569Z</time></trkpt><trkpt lat="45.0789817" lon="11.6462483"><ele>4.0</ele><time>2026-04-12T06:11:05.57Z</time></trkpt><trkpt lat="45.0789917" lon="11.6460733"><ele>3.9999999999999996</ele><time>2026-04-12T06:11:07.563Z</time></trkpt><trkpt lat="45.0790083" lon="11.645985"><ele>4.0</ele><time>2026-04-12T06:11:08.569Z</time></trkpt><trkpt lat="45.0790283" lon="11.6459"><ele>4.0</ele><time>2026-04-12T06:11:09.562Z</time></trkpt><trkpt lat="45.079085" lon="11.6457417"><ele>4.0</ele><time>2026-04-12T06:11:11.565Z</time></trkpt><trkpt lat="45.0791567" lon="11.6456017"><ele>3.9999999999999996</ele><time>2026-04-12T06:11:13.569Z</time></trkpt><trkpt lat="45.0792017" lon="11.6455383"><ele>4.0</ele><time>2026-04-12T06:11:14.578Z</time></trkpt><trkpt lat="45.079295" lon="11.645435"><ele>4.0</ele><time>2026-04-12T06:11:16.569Z</time></trkpt><trkpt lat="45.079395" lon="11.645355"><ele>4.0</ele><time>2026-04-12T06:11:18.568Z</time></trkpt><trkpt lat="45.0795" lon="11.64528"><ele>4.0</ele><time>2026-04-12T06:11:20.568Z</time></trkpt><trkpt lat="45.0796083" lon="11.6451983"><ele>4.0</ele><time>2026-04-12T06:11:22.569Z</time></trkpt><trkpt lat="45.07971" lon="11.64511"><ele>4.142857142857142</ele><time>2026-04-12T06:11:24.561Z</time></trkpt><trkpt lat="45.0798083" lon="11.6450083"><ele>4.285714285714286</ele><time>2026-04-12T06:11:26.568Z</time></trkpt><trkpt lat="45.0798567" lon="11.64495"><ele>4.428571428571429</ele><time>2026-04-12T06:11:27.566Z</time></trkpt><trkpt lat="45.079905" lon="11.6448883"><ele>4.571428571428571</ele><time>2026-04-12T06:11:28.567Z</time></trkpt><trkpt lat="45.07995" lon="11.644825"><ele>4.714285714285714</ele><time>2026-04-12T06:11:29.564Z</time></trkpt><trkpt lat="45.079995" lon="11.64476"><ele>4.857142857142857</ele><time>2026-04-12T06:11:30.57Z</time></trkpt><trkpt lat="45.08004" lon="11.6446933"><ele>5.0</ele><time>2026-04-12T06:11:31.568Z</time></trkpt><trkpt lat="45.080085" lon="11.6446233"><ele>4.6</ele><time>2026-04-12T06:11:32.567Z</time></trkpt><trkpt lat="45.08013" lon="11.6445567"><ele>4.2</ele><time>2026-04-12T06:11:33.562Z</time></trkpt><trkpt lat="45.0801717" lon="11.6444867"><ele>3.8</ele><time>2026-04-12T06:11:34.571Z</time></trkpt><trkpt lat="45.08025" lon="11.6443517"><ele>3.4</ele><time>2026-04-12T06:11:36.542Z</time></trkpt><trkpt lat="45.0803317" lon="11.6442217"><ele>3.0</ele><time>2026-04-12T06:11:38.577Z</time></trkpt><trkpt lat="45.0804167" lon="11.6440967"><ele>2.9999999999999996</ele><time>2026-04-12T06:11:40.574Z</time></trkpt><trkpt lat="45.0804667" lon="11.64404"><ele>3.0</ele><time>2026-04-12T06:11:41.576Z</time></trkpt><trkpt lat="45.0805183" lon="11.643985"><ele>3.0</ele><time>2026-04-12T06:11:42.572Z</time></trkpt><trkpt lat="45.080575" lon="11.6439383"><ele>3.0</ele><time>2026-04-12T06:11:43.574Z</time></trkpt><trkpt lat="45.080635" lon="11.6438933"><ele>3.0</ele><time>2026-04-12T06:11:44.58Z</time></trkpt><trkpt lat="45.0806967" lon="11.6438533"><ele>2.9999999999999996</ele><time>2026-04-12T06:11:45.569Z</time></trkpt><trkpt lat="45.08076" lon="11.6438233"><ele>3.0</ele><time>2026-04-12T06:11:46.576Z</time></trkpt><trkpt lat="45.0808233" lon="11.6438"><ele>2.9999999999999996</ele><time>2026-04-12T06:11:47.574Z</time></trkpt><trkpt lat="45.08089" lon="11.6437817"><ele>3.0</ele><time>2026-04-12T06:11:48.574Z</time></trkpt><trkpt lat="45.0809567" lon="11.6437683"><ele>3.0</ele><time>2026-04-12T06:11:49.565Z</time></trkpt><trkpt lat="45.081025" lon="11.64376"><ele>3.0</ele><time>2026-04-12T06:11:50.572Z</time></trkpt><trkpt lat="45.0810933" lon="11.6437567"><ele>3.0</ele><time>2026-04-12T06:11:51.568Z</time></trkpt><trkpt lat="45.08116" lon="11.64376"><ele>2.9999999999999996</ele><time>2026-04-12T06:11:52.626Z</time></trkpt><trkpt lat="45.0812283" lon="11.643765"><ele>3.0</ele><time>2026-04-12T06:11:53.568Z</time></trkpt><trkpt lat="45.0812967" lon="11.6437767"><ele>2.9999999999999996</ele><time>2026-04-12T06:11:54.569Z</time></trkpt><trkpt lat="45.081365" lon="11.64379"><ele>3.0</ele><time>2026-04-12T06:11:55.572Z</time></trkpt><trkpt lat="45.0814317" lon="11.643805"><ele>3.0</ele><time>2026-04-12T06:11:56.568Z</time></trkpt><trkpt lat="45.0814967" lon="11.6438167"><ele>3.0</ele><time>2026-04-12T06:11:57.534Z</time></trkpt><trkpt lat="45.08156" lon="11.6438267"><ele>3.0</ele><time>2026-04-12T06:11:58.567Z</time></trkpt><trkpt lat="45.081625" lon="11.64384"><ele>2.9999999999999996</ele><time>2026-04-12T06:11:59.573Z</time></trkpt><trkpt lat="45.08169" lon="11.6438567"><ele>3.0</ele><time>2026-04-12T06:12:00.565Z</time></trkpt><trkpt lat="45.081755" lon="11.6438717"><ele>3.1428571428571423</ele><time>2026-04-12T06:12:01.566Z</time></trkpt><trkpt lat="45.0818183" lon="11.6438867"><ele>3.2857142857142856</ele><time>2026-04-12T06:12:02.567Z</time></trkpt><trkpt lat="45.0818833" lon="11.6438967"><ele>3.4285714285714284</ele><time>2026-04-12T06:12:03.561Z</time></trkpt><trkpt lat="45.0819467" lon="11.6439067"><ele>3.571428571428571</ele><time>2026-04-12T06:12:04.569Z</time></trkpt><trkpt lat="45.08201" lon="11.6439167"><ele>3.714285714285714</ele><time>2026-04-12T06:12:05.568Z</time></trkpt><trkpt lat="45.0821317" lon="11.6439317"><ele>3.8571428571428568</ele><time>2026-04-12T06:12:07.558Z</time></trkpt><trkpt lat="45.0821967" lon="11.6439333"><ele>4.0</ele><time>2026-04-12T06:12:08.556Z</time></trkpt><trkpt lat="45.0822633" lon="11.64393"><ele>4.0</ele><time>2026-04-12T06:12:09.568Z</time></trkpt><trkpt lat="45.0823283" lon="11.6439217"><ele>3.9999999999999996</ele><time>2026-04-12T06:12:10.57Z</time></trkpt><trkpt lat="45.0823967" lon="11.6439083"><ele>4.0</ele><time>2026-04-12T06:12:11.568Z</time></trkpt><trkpt lat="45.082465" lon="11.64389"><ele>4.0</ele><time>2026-04-12T06:12:12.571Z</time></trkpt><trkpt lat="45.0825317" lon="11.6438667"><ele>3.9999999999999996</ele><time>2026-04-12T06:12:13.57Z</time></trkpt><trkpt lat="45.0825967" lon="11.6438417"><ele>4.0</ele><time>2026-04-12T06:12:14.569Z</time></trkpt><trkpt lat="45.0826617" lon="11.64382"><ele>4.0</ele><time>2026-04-12T06:12:15.573Z</time></trkpt><trkpt lat="45.0827267" lon="11.6437917"><ele>3.8571428571428568</ele><time>2026-04-12T06:12:16.57Z</time></trkpt><trkpt lat="45.08279" lon="11.643765"><ele>3.714285714285714</ele><time>2026-04-12T06:12:17.564Z</time></trkpt><trkpt lat="45.0828533" lon="11.6437367"><ele>3.571428571428571</ele><time>2026-04-12T06:12:18.541Z</time></trkpt><trkpt lat="45.0829183" lon="11.643705"><ele>3.4285714285714284</ele><time>2026-04-12T06:12:19.567Z</time></trkpt><trkpt lat="45.0829817" lon="11.643675"><ele>3.2857142857142856</ele><time>2026-04-12T06:12:20.547Z</time></trkpt><trkpt lat="45.0830467" lon="11.643645"><ele>3.1428571428571423</ele><time>2026-04-12T06:12:21.567Z</time></trkpt><trkpt lat="45.0831133" lon="11.6436167"><ele>3.0</ele><time>2026-04-12T06:12:22.564Z</time></trkpt><trkpt lat="45.0831817" lon="11.6435883"><ele>2.9999999999999996</ele><time>2026-04-12T06:12:23.565Z</time></trkpt><trkpt lat="45.08325" lon="11.64356"><ele>3.0</ele><time>2026-04-12T06:12:24.575Z</time></trkpt><trkpt lat="45.08332" lon="11.6435333"><ele>3.0</ele><time>2026-04-12T06:12:25.57Z</time></trkpt><trkpt lat="45.0833883" lon="11.6435083"><ele>3.0</ele><time>2026-04-12T06:12:26.568Z</time></trkpt><trkpt lat="45.0834567" lon="11.6434817"><ele>3.0</ele><time>2026-04-12T06:12:27.565Z</time></trkpt><trkpt lat="45.0835267" lon="11.6434617"><ele>2.9999999999999996</ele><time>2026-04-12T06:12:28.576Z</time></trkpt><trkpt lat="45.083595" lon="11.6434433"><ele>3.0</ele><time>2026-04-12T06:12:29.566Z</time></trkpt><trkpt lat="45.0836617" lon="11.6434233"><ele>2.9999999999999996</ele><time>2026-04-12T06:12:30.562Z</time></trkpt><trkpt lat="45.08373" lon="11.6434067"><ele>3.0</ele><time>2026-04-12T06:12:31.56Z</time></trkpt><trkpt lat="45.0838" lon="11.6433917"><ele>3.0</ele><time>2026-04-12T06:12:32.573Z</time></trkpt><trkpt lat="45.08387" lon="11.64338"><ele>3.0</ele><time>2026-04-12T06:12:33.567Z</time></trkpt><trkpt lat="45.08394" lon="11.6433667"><ele>3.0</ele><time>2026-04-12T06:12:34.57Z</time></trkpt><trkpt lat="45.08401" lon="11.643355"><ele>2.9999999999999996</ele><time>2026-04-12T06:12:35.572Z</time></trkpt><trkpt lat="45.08408" lon="11.64334"><ele>3.0</ele><time>2026-04-12T06:12:36.571Z</time></trkpt><trkpt lat="45.0841483" lon="11.6433283"><ele>2.9999999999999996</ele><time>2026-04-12T06:12:37.563Z</time></trkpt><trkpt lat="45.0842183" lon="11.643315"><ele>3.0</ele><time>2026-04-12T06:12:38.564Z</time></trkpt><trkpt lat="45.0842867" lon="11.6432983"><ele>3.0</ele><time>2026-04-12T06:12:39.575Z</time></trkpt><trkpt lat="45.0843567" lon="11.64328"><ele>3.0</ele><time>2026-04-12T06:12:40.569Z</time></trkpt><trkpt lat="45.0844267" lon="11.6432633"><ele>3.0</ele><time>2026-04-12T06:12:41.568Z</time></trkpt><trkpt lat="45.0844967" lon="11.6432483"><ele>2.9999999999999996</ele><time>2026-04-12T06:12:42.567Z</time></trkpt><trkpt lat="45.084565" lon="11.64323"><ele>3.0</ele><time>2026-04-12T06:12:43.57Z</time></trkpt><trkpt lat="45.0846317" lon="11.643215"><ele>2.9999999999999996</ele><time>2026-04-12T06:12:44.541Z</time></trkpt><trkpt lat="45.0846983" lon="11.6432017"><ele>3.0</ele><time>2026-04-12T06:12:45.568Z</time></trkpt><trkpt lat="45.0847667" lon="11.643185"><ele>3.0</ele><time>2026-04-12T06:12:46.568Z</time></trkpt><trkpt lat="45.084835" lon="11.6431667"><ele>3.0</ele><time>2026-04-12T06:12:47.564Z</time></trkpt><trkpt lat="45.0849033" lon="11.64315"><ele>3.0</ele><time>2026-04-12T06:12:48.566Z</time></trkpt><trkpt lat="45.0849717" lon="11.6431317"><ele>2.9999999999999996</ele><time>2026-04-12T06:12:49.569Z</time></trkpt><trkpt lat="45.0850383" lon="11.643115"><ele>3.0</ele><time>2026-04-12T06:12:50.566Z</time></trkpt><trkpt lat="45.0851067" lon="11.6430933"><ele>2.9999999999999996</ele><time>2026-04-12T06:12:51.567Z</time></trkpt><trkpt lat="45.0851733" lon="11.64307"><ele>3.0</ele><time>2026-04-12T06:12:52.566Z</time></trkpt><trkpt lat="45.08524" lon="11.643045"><ele>3.0</ele><time>2026-04-12T06:12:53.568Z</time></trkpt><trkpt lat="45.085305" lon="11.6430117"><ele>3.0</ele><time>2026-04-12T06:12:54.573Z</time></trkpt><trkpt lat="45.0853683" lon="11.6429667"><ele>3.0</ele><time>2026-04-12T06:12:55.57Z</time></trkpt><trkpt lat="45.0854283" lon="11.64291"><ele>2.9999999999999996</ele><time>2026-04-12T06:12:56.539Z</time></trkpt><trkpt lat="45.0854833" lon="11.6428467"><ele>3.0</ele><time>2026-04-12T06:12:57.56Z</time></trkpt><trkpt lat="45.0855367" lon="11.642775"><ele>2.9999999999999996</ele><time>2026-04-12T06:12:58.576Z</time></trkpt><trkpt lat="45.0855833" lon="11.6426967"><ele>3.0</ele><time>2026-04-12T06:12:59.558Z</time></trkpt><trkpt lat="45.085625" lon="11.6426133"><ele>3.0</ele><time>2026-04-12T06:13:00.57Z</time></trkpt><trkpt lat="45.0856633" lon="11.642525"><ele>3.0</ele><time>2026-04-12T06:13:01.569Z</time></trkpt><trkpt lat="45.085695" lon="11.6424317"><ele>3.0</ele><time>2026-04-12T06:13:02.571Z</time></trkpt><trkpt lat="45.0857217" lon="11.6423383"><ele>2.9999999999999996</ele><time>2026-04-12T06:13:03.569Z</time></trkpt><trkpt lat="45.0857433" lon="11.6422417"><ele>3.0</ele><time>2026-04-12T06:13:04.569Z</time></trkpt><trkpt lat="45.0857583" lon="11.6421417"><ele>2.9999999999999996</ele><time>2026-04-12T06:13:05.572Z</time></trkpt><trkpt lat="45.085765" lon="11.6420417"><ele>3.0</ele><time>2026-04-12T06:13:06.566Z</time></trkpt><trkpt lat="45.0857683" lon="11.6419383"><ele>3.0</ele><time>2026-04-12T06:13:07.562Z</time></trkpt><trkpt lat="45.0857683" lon="11.6418367"><ele>3.0</ele><time>2026-04-12T06:13:08.561Z</time></trkpt><trkpt lat="45.0857667" lon="11.641735"><ele>3.0</ele><time>2026-04-12T06:13:09.571Z</time></trkpt><trkpt lat="45.0857667" lon="11.6416333"><ele>2.9999999999999996</ele><time>2026-04-12T06:13:10.537Z</time></trkpt><trkpt lat="45.0857667" lon="11.6415333"><ele>3.0</ele><time>2026-04-12T06:13:11.558Z</time></trkpt><trkpt lat="45.0857667" lon="11.6414317"><ele>2.8571428571428568</ele><time>2026-04-12T06:13:12.566Z</time></trkpt><trkpt lat="45.0857617" lon="11.6413317"><ele>2.7142857142857144</ele><time>2026-04-12T06:13:13.57Z</time></trkpt><trkpt lat="45.0857533" lon="11.64123"><ele>2.571428571428571</ele><time>2026-04-12T06:13:14.573Z</time></trkpt><trkpt lat="45.0857483" lon="11.6411283"><ele>2.4285714285714284</ele><time>2026-04-12T06:13:15.571Z</time></trkpt><trkpt lat="45.08574" lon="11.6410283"><ele>2.2857142857142856</ele><time>2026-04-12T06:13:16.571Z</time></trkpt><trkpt lat="45.0857383" lon="11.640925"><ele>2.142857142857143</ele><time>2026-04-12T06:13:17.565Z</time></trkpt><trkpt lat="45.0857333" lon="11.6408233"><ele>2.0</ele><time>2026-04-12T06:13:18.568Z</time></trkpt><trkpt lat="45.0857283" lon="11.6407233"><ele>2.2857142857142856</ele><time>2026-04-12T06:13:19.568Z</time></trkpt><trkpt lat="45.0857217" lon="11.640625"><ele>2.571428571428571</ele><time>2026-04-12T06:13:20.569Z</time></trkpt><trkpt lat="45.0857183" lon="11.6405267"><ele>2.8571428571428568</ele><time>2026-04-12T06:13:21.567Z</time></trkpt><trkpt lat="45.08572" lon="11.640425"><ele>3.142857142857143</ele><time>2026-04-12T06:13:22.57Z</time></trkpt><trkpt lat="45.0857217" lon="11.640325"><ele>3.428571428571428</ele><time>2026-04-12T06:13:23.569Z</time></trkpt><trkpt lat="45.0857267" lon="11.6402217"><ele>3.714285714285714</ele><time>2026-04-12T06:13:24.572Z</time></trkpt><trkpt lat="45.0857317" lon="11.6401183"><ele>4.0</ele><time>2026-04-12T06:13:25.571Z</time></trkpt><trkpt lat="45.0857367" lon="11.6400183"><ele>3.9999999999999996</ele><time>2026-04-12T06:13:26.572Z</time></trkpt><trkpt lat="45.0857383" lon="11.6399117"><ele>4.0</ele><time>2026-04-12T06:13:27.571Z</time></trkpt><trkpt lat="45.0857383" lon="11.639805"><ele>4.0</ele><time>2026-04-12T06:13:28.566Z</time></trkpt><trkpt lat="45.0857383" lon="11.6396983"><ele>4.0</ele><time>2026-04-12T06:13:29.567Z</time></trkpt><trkpt lat="45.0857333" lon="11.6395917"><ele>3.9999999999999996</ele><time>2026-04-12T06:13:30.566Z</time></trkpt><trkpt lat="45.085725" lon="11.639485"><ele>4.0</ele><time>2026-04-12T06:13:31.535Z</time></trkpt><trkpt lat="45.085715" lon="11.6393783"><ele>3.833333333333333</ele><time>2026-04-12T06:13:32.56Z</time></trkpt><trkpt lat="45.085705" lon="11.6392733"><ele>3.6666666666666665</ele><time>2026-04-12T06:13:33.569Z</time></trkpt><trkpt lat="45.085695" lon="11.639165"><ele>3.5</ele><time>2026-04-12T06:13:34.565Z</time></trkpt><trkpt lat="45.0856833" lon="11.639055"><ele>3.333333333333333</ele><time>2026-04-12T06:13:35.571Z</time></trkpt><trkpt lat="45.08567" lon="11.6389467"><ele>3.1666666666666665</ele><time>2026-04-12T06:13:36.57Z</time></trkpt><trkpt lat="45.08566" lon="11.6388433"><ele>3.0</ele><time>2026-04-12T06:13:37.569Z</time></trkpt><trkpt lat="45.0856517" lon="11.638735"><ele>2.9999999999999996</ele><time>2026-04-12T06:13:38.573Z</time></trkpt><trkpt lat="45.0856467" lon="11.6386317"><ele>3.0</ele><time>2026-04-12T06:13:39.572Z</time></trkpt><trkpt lat="45.0856433" lon="11.6385267"><ele>3.0</ele><time>2026-04-12T06:13:40.568Z</time></trkpt><trkpt lat="45.0856483" lon="11.638425"><ele>3.0</ele><time>2026-04-12T06:13:41.577Z</time></trkpt><trkpt lat="45.085655" lon="11.6383233"><ele>3.0</ele><time>2026-04-12T06:13:42.57Z</time></trkpt><trkpt lat="45.085665" lon="11.6382217"><ele>2.9999999999999996</ele><time>2026-04-12T06:13:43.57Z</time></trkpt><trkpt lat="45.085675" lon="11.63812"><ele>3.0</ele><time>2026-04-12T06:13:44.572Z</time></trkpt><trkpt lat="45.08569" lon="11.6380217"><ele>2.9999999999999996</ele><time>2026-04-12T06:13:45.569Z</time></trkpt><trkpt lat="45.0857083" lon="11.6379217"><ele>3.0</ele><time>2026-04-12T06:13:46.573Z</time></trkpt><trkpt lat="45.08573" lon="11.637825"><ele>3.0</ele><time>2026-04-12T06:13:47.562Z</time></trkpt><trkpt lat="45.0857583" lon="11.63773"><ele>3.0</ele><time>2026-04-12T06:13:48.57Z</time></trkpt><trkpt lat="45.08579" lon="11.63764"><ele>3.0</ele><time>2026-04-12T06:13:49.571Z</time></trkpt><trkpt lat="45.08583" lon="11.6375533"><ele>2.9999999999999996</ele><time>2026-04-12T06:13:50.571Z</time></trkpt><trkpt lat="45.0858783" lon="11.6374733"><ele>3.0</ele><time>2026-04-12T06:13:51.571Z</time></trkpt><trkpt lat="45.0859283" lon="11.6374"><ele>2.8571428571428568</ele><time>2026-04-12T06:13:52.543Z</time></trkpt><trkpt lat="45.0859833" lon="11.6373317"><ele>2.7142857142857144</ele><time>2026-04-12T06:13:53.561Z</time></trkpt><trkpt lat="45.0860417" lon="11.63727"><ele>2.571428571428571</ele><time>2026-04-12T06:13:54.572Z</time></trkpt><trkpt lat="45.0861033" lon="11.6372083"><ele>2.4285714285714284</ele><time>2026-04-12T06:13:55.566Z</time></trkpt><trkpt lat="45.0861617" lon="11.6371483"><ele>2.2857142857142856</ele><time>2026-04-12T06:13:56.577Z</time></trkpt><trkpt lat="45.0862217" lon="11.6370883"><ele>2.142857142857143</ele><time>2026-04-12T06:13:57.564Z</time></trkpt><trkpt lat="45.0862817" lon="11.6370283"><ele>2.0</ele><time>2026-04-12T06:13:58.577Z</time></trkpt><trkpt lat="45.08634" lon="11.63697"><ele>2.0</ele><time>2026-04-12T06:13:59.571Z</time></trkpt><trkpt lat="45.0863983" lon="11.6369117"><ele>1.9999999999999998</ele><time>2026-04-12T06:14:00.569Z</time></trkpt><trkpt lat="45.0864567" lon="11.6368533"><ele>2.0</ele><time>2026-04-12T06:14:01.569Z</time></trkpt><trkpt lat="45.0865133" lon="11.6367967"><ele>2.0</ele><time>2026-04-12T06:14:02.574Z</time></trkpt><trkpt lat="45.0865733" lon="11.6367367"><ele>1.9999999999999998</ele><time>2026-04-12T06:14:03.574Z</time></trkpt><trkpt lat="45.0866333" lon="11.6366717"><ele>2.0</ele><time>2026-04-12T06:14:04.571Z</time></trkpt><trkpt lat="45.0866933" lon="11.6366067"><ele>2.0</ele><time>2026-04-12T06:14:05.572Z</time></trkpt><trkpt lat="45.0867517" lon="11.6365417"><ele>2.333333333333333</ele><time>2026-04-12T06:14:06.571Z</time></trkpt><trkpt lat="45.086805" lon="11.6364717"><ele>2.6666666666666665</ele><time>2026-04-12T06:14:07.574Z</time></trkpt><trkpt lat="45.0868567" lon="11.636395"><ele>3.0</ele><time>2026-04-12T06:14:08.569Z</time></trkpt><trkpt lat="45.086905" lon="11.6363133"><ele>3.333333333333333</ele><time>2026-04-12T06:14:09.57Z</time></trkpt><trkpt lat="45.08695" lon="11.6362283"><ele>3.6666666666666665</ele><time>2026-04-12T06:14:10.565Z</time></trkpt><trkpt lat="45.0869917" lon="11.6361367"><ele>4.0</ele><time>2026-04-12T06:14:11.568Z</time></trkpt><trkpt lat="45.0870333" lon="11.636045"><ele>3.9999999999999996</ele><time>2026-04-12T06:14:12.566Z</time></trkpt><trkpt lat="45.08707" lon="11.6359517"><ele>4.0</ele><time>2026-04-12T06:14:13.57Z</time></trkpt><trkpt lat="45.0871033" lon="11.6358583"><ele>4.0</ele><time>2026-04-12T06:14:14.572Z</time></trkpt><trkpt lat="45.0871367" lon="11.6357633"><ele>4.0</ele><time>2026-04-12T06:14:15.57Z</time></trkpt><trkpt lat="45.0871683" lon="11.6356683"><ele>3.9999999999999996</ele><time>2026-04-12T06:14:16.571Z</time></trkpt><trkpt lat="45.0872" lon="11.6355717"><ele>4.0</ele><time>2026-04-12T06:14:17.567Z</time></trkpt><trkpt lat="45.08723" lon="11.6354717"><ele>4.0</ele><time>2026-04-12T06:14:18.539Z</time></trkpt><trkpt lat="45.0872567" lon="11.6353767"><ele>3.9999999999999996</ele><time>2026-04-12T06:14:19.559Z</time></trkpt><trkpt lat="45.08728" lon="11.63528"><ele>4.0</ele><time>2026-04-12T06:14:20.569Z</time></trkpt><trkpt lat="45.087305" lon="11.63518"><ele>4.0</ele><time>2026-04-12T06:14:21.571Z</time></trkpt><trkpt lat="45.0873317" lon="11.6350817"><ele>3.9999999999999996</ele><time>2026-04-12T06:14:22.57Z</time></trkpt><trkpt lat="45.0873567" lon="11.63498"><ele>4.0</ele><time>2026-04-12T06:14:23.537Z</time></trkpt><trkpt lat="45.08738" lon="11.6348783"><ele>4.0</ele><time>2026-04-12T06:14:24.564Z</time></trkpt><trkpt lat="45.0873983" lon="11.6347783"><ele>4.0</ele><time>2026-04-12T06:14:25.575Z</time></trkpt><trkpt lat="45.0874167" lon="11.6346783"><ele>3.9999999999999996</ele><time>2026-04-12T06:14:26.575Z</time></trkpt><trkpt lat="45.0874333" lon="11.6345767"><ele>4.0</ele><time>2026-04-12T06:14:27.569Z</time></trkpt><trkpt lat="45.0874467" lon="11.634475"><ele>4.0</ele><time>2026-04-12T06:14:28.566Z</time></trkpt><trkpt lat="45.0874617" lon="11.6343767"><ele>3.9999999999999996</ele><time>2026-04-12T06:14:29.565Z</time></trkpt><trkpt lat="45.0874717" lon="11.6342833"><ele>4.0</ele><time>2026-04-12T06:14:30.567Z</time></trkpt><trkpt lat="45.0874767" lon="11.6341833"><ele>4.0</ele><time>2026-04-12T06:14:31.568Z</time></trkpt><trkpt lat="45.0874783" lon="11.6340833"><ele>4.142857142857142</ele><time>2026-04-12T06:14:32.565Z</time></trkpt><trkpt lat="45.0874817" lon="11.63398"><ele>4.285714285714286</ele><time>2026-04-12T06:14:33.568Z</time></trkpt><trkpt lat="45.087485" lon="11.633875"><ele>4.428571428571429</ele><time>2026-04-12T06:14:34.569Z</time></trkpt><trkpt lat="45.0874833" lon="11.63377"><ele>4.571428571428571</ele><time>2026-04-12T06:14:35.568Z</time></trkpt><trkpt lat="45.0874767" lon="11.633665"><ele>4.714285714285714</ele><time>2026-04-12T06:14:36.554Z</time></trkpt><trkpt lat="45.0874683" lon="11.63356"><ele>4.857142857142857</ele><time>2026-04-12T06:14:37.558Z</time></trkpt><trkpt lat="45.0874583" lon="11.6334533"><ele>5.0</ele><time>2026-04-12T06:14:38.57Z</time></trkpt><trkpt lat="45.0874467" lon="11.6333467"><ele>5.0</ele><time>2026-04-12T06:14:39.568Z</time></trkpt><trkpt lat="45.0874333" lon="11.63324"><ele>5.0</ele><time>2026-04-12T06:14:40.568Z</time></trkpt><trkpt lat="45.0874183" lon="11.6331383"><ele>5.0</ele><time>2026-04-12T06:14:41.565Z</time></trkpt><trkpt lat="45.087405" lon="11.6330333"><ele>5.0</ele><time>2026-04-12T06:14:42.568Z</time></trkpt><trkpt lat="45.0873883" lon="11.6329333"><ele>5.0</ele><time>2026-04-12T06:14:43.57Z</time></trkpt><trkpt lat="45.08737" lon="11.6328333"><ele>5.0</ele><time>2026-04-12T06:14:44.562Z</time></trkpt><trkpt lat="45.0873517" lon="11.6327333"><ele>5.0</ele><time>2026-04-12T06:14:45.562Z</time></trkpt><trkpt lat="45.087335" lon="11.632635"><ele>5.0</ele><time>2026-04-12T06:14:46.568Z</time></trkpt><trkpt lat="45.0873167" lon="11.6325383"><ele>5.0</ele><time>2026-04-12T06:14:47.568Z</time></trkpt><trkpt lat="45.0872983" lon="11.632445"><ele>5.0</ele><time>2026-04-12T06:14:48.571Z</time></trkpt><trkpt lat="45.08728" lon="11.6323483"><ele>5.0</ele><time>2026-04-12T06:14:49.556Z</time></trkpt><trkpt lat="45.0872617" lon="11.6322517"><ele>5.0</ele><time>2026-04-12T06:14:50.564Z</time></trkpt><trkpt lat="45.087245" lon="11.632155"><ele>5.0</ele><time>2026-04-12T06:14:51.569Z</time></trkpt><trkpt lat="45.08723" lon="11.6320567"><ele>5.0</ele><time>2026-04-12T06:14:52.568Z</time></trkpt><trkpt lat="45.0872183" lon="11.6319583"><ele>5.142857142857142</ele><time>2026-04-12T06:14:53.572Z</time></trkpt><trkpt lat="45.0872117" lon="11.6318583"><ele>5.285714285714286</ele><time>2026-04-12T06:14:54.57Z</time></trkpt><trkpt lat="45.0872083" lon="11.6317583"><ele>5.428571428571429</ele><time>2026-04-12T06:14:55.567Z</time></trkpt><trkpt lat="45.08721" lon="11.63166"><ele>5.571428571428571</ele><time>2026-04-12T06:14:56.568Z</time></trkpt><trkpt lat="45.087215" lon="11.6315633"><ele>5.714285714285714</ele><time>2026-04-12T06:14:57.568Z</time></trkpt><trkpt lat="45.0872283" lon="11.6314683"><ele>5.857142857142857</ele><time>2026-04-12T06:14:58.572Z</time></trkpt><trkpt lat="45.087245" lon="11.631375"><ele>6.0</ele><time>2026-04-12T06:14:59.566Z</time></trkpt><trkpt lat="45.087265" lon="11.6312767"><ele>5.999999999999999</ele><time>2026-04-12T06:15:00.567Z</time></trkpt><trkpt lat="45.087285" lon="11.63118"><ele>6.0</ele><time>2026-04-12T06:15:01.571Z</time></trkpt><trkpt lat="45.0873067" lon="11.6310833"><ele>6.0</ele><time>2026-04-12T06:15:02.564Z</time></trkpt><trkpt lat="45.0873333" lon="11.6309883"><ele>6.0</ele><time>2026-04-12T06:15:03.562Z</time></trkpt><trkpt lat="45.087365" lon="11.6308983"><ele>6.0</ele><time>2026-04-12T06:15:04.57Z</time></trkpt><trkpt lat="45.0874033" lon="11.6308167"><ele>5.999999999999999</ele><time>2026-04-12T06:15:05.553Z</time></trkpt><trkpt lat="45.0874483" lon="11.63074"><ele>6.0</ele><time>2026-04-12T06:15:06.567Z</time></trkpt><trkpt lat="45.087495" lon="11.6306683"><ele>5.8</ele><time>2026-04-12T06:15:07.572Z</time></trkpt><trkpt lat="45.087545" lon="11.6306033"><ele>5.6</ele><time>2026-04-12T06:15:08.56Z</time></trkpt><trkpt lat="45.0875967" lon="11.630545"><ele>5.4</ele><time>2026-04-12T06:15:09.57Z</time></trkpt><trkpt lat="45.0877033" lon="11.6304733"><ele>5.2</ele><time>2026-04-12T06:15:11.567Z</time></trkpt><trkpt lat="45.0878133" lon="11.6304467"><ele>5.0</ele><time>2026-04-12T06:15:13.561Z</time></trkpt><trkpt lat="45.0879183" lon="11.6304567"><ele>5.0</ele><time>2026-04-12T06:15:15.563Z</time></trkpt><trkpt lat="45.0880333" lon="11.630485"><ele>5.0</ele><time>2026-04-12T06:15:17.566Z</time></trkpt><trkpt lat="45.088095" lon="11.6305067"><ele>5.0</ele><time>2026-04-12T06:15:18.566Z</time></trkpt><trkpt lat="45.0882183" lon="11.6305217"><ele>5.0</ele><time>2026-04-12T06:15:20.566Z</time></trkpt><trkpt lat="45.0883417" lon="11.6305283"><ele>5.0</ele><time>2026-04-12T06:15:22.566Z</time></trkpt><trkpt lat="45.088405" lon="11.63053"><ele>5.0</ele><time>2026-04-12T06:15:23.569Z</time></trkpt><trkpt lat="45.0884683" lon="11.630535"><ele>5.0</ele><time>2026-04-12T06:15:24.567Z</time></trkpt><trkpt lat="45.0885333" lon="11.6305467"><ele>5.0</ele><time>2026-04-12T06:15:25.568Z</time></trkpt><trkpt lat="45.0886" lon="11.6305617"><ele>5.0</ele><time>2026-04-12T06:15:26.55Z</time></trkpt><trkpt lat="45.088665" lon="11.6305867"><ele>5.0</ele><time>2026-04-12T06:15:27.559Z</time></trkpt><trkpt lat="45.0887283" lon="11.6306233"><ele>5.0</ele><time>2026-04-12T06:15:28.568Z</time></trkpt><trkpt lat="45.08879" lon="11.6306617"><ele>5.0</ele><time>2026-04-12T06:15:29.56Z</time></trkpt><trkpt lat="45.08885" lon="11.6307"><ele>5.0</ele><time>2026-04-12T06:15:30.569Z</time></trkpt><trkpt lat="45.0889067" lon="11.63074"><ele>5.0</ele><time>2026-04-12T06:15:31.568Z</time></trkpt><trkpt lat="45.0890183" lon="11.6308233"><ele>5.0</ele><time>2026-04-12T06:15:33.568Z</time></trkpt><trkpt lat="45.0890767" lon="11.6308683"><ele>5.0</ele><time>2026-04-12T06:15:34.57Z</time></trkpt><trkpt lat="45.089135" lon="11.6309083"><ele>5.0</ele><time>2026-04-12T06:15:35.57Z</time></trkpt><trkpt lat="45.08925" lon="11.6309867"><ele>5.0</ele><time>2026-04-12T06:15:37.54Z</time></trkpt><trkpt lat="45.0893583" lon="11.6310733"><ele>5.0</ele><time>2026-04-12T06:15:39.533Z</time></trkpt><trkpt lat="45.0894617" lon="11.63116"><ele>5.0</ele><time>2026-04-12T06:15:41.551Z</time></trkpt><trkpt lat="45.08957" lon="11.6312467"><ele>5.0</ele><time>2026-04-12T06:15:43.538Z</time></trkpt><trkpt lat="45.0896617" lon="11.6313483"><ele>5.0</ele><time>2026-04-12T06:15:45.543Z</time></trkpt><trkpt lat="45.0897517" lon="11.6314583"><ele>5.0</ele><time>2026-04-12T06:15:47.533Z</time></trkpt><trkpt lat="45.08984" lon="11.6315967"><ele>5.0</ele><time>2026-04-12T06:15:49.53Z</time></trkpt><trkpt lat="45.0898867" lon="11.6316667"><ele>5.0</ele><time>2026-04-12T06:15:50.534Z</time></trkpt><trkpt lat="45.0899333" lon="11.631735"><ele>5.0</ele><time>2026-04-12T06:15:51.531Z</time></trkpt><trkpt lat="45.0900233" lon="11.63186"><ele>5.0</ele><time>2026-04-12T06:15:53.565Z</time></trkpt><trkpt lat="45.09007" lon="11.6319217"><ele>5.166666666666667</ele><time>2026-04-12T06:15:54.532Z</time></trkpt><trkpt lat="45.0901183" lon="11.6319817"><ele>5.333333333333334</ele><time>2026-04-12T06:15:55.564Z</time></trkpt><trkpt lat="45.0901683" lon="11.6320417"><ele>5.5</ele><time>2026-04-12T06:15:56.533Z</time></trkpt><trkpt lat="45.0902183" lon="11.632105"><ele>5.666666666666667</ele><time>2026-04-12T06:15:57.56Z</time></trkpt><trkpt lat="45.0902683" lon="11.6321667"><ele>5.833333333333333</ele><time>2026-04-12T06:15:58.545Z</time></trkpt><trkpt lat="45.09032" lon="11.632225"><ele>6.0</ele><time>2026-04-12T06:15:59.56Z</time></trkpt><trkpt lat="45.09043" lon="11.6323083"><ele>5.999999999999999</ele><time>2026-04-12T06:16:01.571Z</time></trkpt><trkpt lat="45.0904917" lon="11.6323433"><ele>6.0</ele><time>2026-04-12T06:16:02.564Z</time></trkpt><trkpt lat="45.0905533" lon="11.63237"><ele>6.0</ele><time>2026-04-12T06:16:03.555Z</time></trkpt><trkpt lat="45.0906183" lon="11.6323917"><ele>6.0</ele><time>2026-04-12T06:16:04.556Z</time></trkpt><trkpt lat="45.0906817" lon="11.6324083"><ele>6.0</ele><time>2026-04-12T06:16:05.567Z</time></trkpt><trkpt lat="45.0907467" lon="11.6324117"><ele>5.999999999999999</ele><time>2026-04-12T06:16:06.565Z</time></trkpt><trkpt lat="45.0908133" lon="11.63241"><ele>6.0</ele><time>2026-04-12T06:16:07.557Z</time></trkpt><trkpt lat="45.0908783" lon="11.6324067"><ele>5.999999999999999</ele><time>2026-04-12T06:16:08.557Z</time></trkpt><trkpt lat="45.0909467" lon="11.6324"><ele>6.0</ele><time>2026-04-12T06:16:09.557Z</time></trkpt><trkpt lat="45.0910133" lon="11.63239"><ele>6.0</ele><time>2026-04-12T06:16:10.573Z</time></trkpt><trkpt lat="45.09108" lon="11.632385"><ele>6.0</ele><time>2026-04-12T06:16:11.575Z</time></trkpt><trkpt lat="45.0911433" lon="11.6323783"><ele>6.0</ele><time>2026-04-12T06:16:12.562Z</time></trkpt><trkpt lat="45.0912067" lon="11.63236"><ele>5.999999999999999</ele><time>2026-04-12T06:16:13.572Z</time></trkpt><trkpt lat="45.09127" lon="11.6323267"><ele>6.0</ele><time>2026-04-12T06:16:14.566Z</time></trkpt><trkpt lat="45.0913333" lon="11.6322833"><ele>5.999999999999999</ele><time>2026-04-12T06:16:15.555Z</time></trkpt><trkpt lat="45.0913883" lon="11.63223"><ele>6.0</ele><time>2026-04-12T06:16:16.562Z</time></trkpt><trkpt lat="45.09148" lon="11.63211"><ele>6.0</ele><time>2026-04-12T06:16:18.53Z</time></trkpt><trkpt lat="45.0915233" lon="11.6320433"><ele>6.0</ele><time>2026-04-12T06:16:19.562Z</time></trkpt><trkpt lat="45.091565" lon="11.6319733"><ele>6.0</ele><time>2026-04-12T06:16:20.57Z</time></trkpt><trkpt lat="45.091605" lon="11.6319033"><ele>5.999999999999999</ele><time>2026-04-12T06:16:21.571Z</time></trkpt><trkpt lat="45.0916467" lon="11.6318333"><ele>6.0</ele><time>2026-04-12T06:16:22.569Z</time></trkpt><trkpt lat="45.091685" lon="11.6317617"><ele>5.8</ele><time>2026-04-12T06:16:23.562Z</time></trkpt><trkpt lat="45.09176" lon="11.6316233"><ele>5.6</ele><time>2026-04-12T06:16:25.563Z</time></trkpt><trkpt lat="45.0917967" lon="11.63155"><ele>5.4</ele><time>2026-04-12T06:16:26.574Z</time></trkpt><trkpt lat="45.0918517" lon="11.631385"><ele>5.2</ele><time>2026-04-12T06:16:28.564Z</time></trkpt><trkpt lat="45.091875" lon="11.631295"><ele>5.0</ele><time>2026-04-12T06:16:29.564Z</time></trkpt><trkpt lat="45.0918983" lon="11.6312017"><ele>4.857142857142857</ele><time>2026-04-12T06:16:30.564Z</time></trkpt><trkpt lat="45.09192" lon="11.6311033"><ele>4.714285714285714</ele><time>2026-04-12T06:16:31.565Z</time></trkpt><trkpt lat="45.091945" lon="11.631005"><ele>4.571428571428571</ele><time>2026-04-12T06:16:32.566Z</time></trkpt><trkpt lat="45.091965" lon="11.630905"><ele>4.428571428571429</ele><time>2026-04-12T06:16:33.565Z</time></trkpt><trkpt lat="45.0919867" lon="11.630805"><ele>4.285714285714286</ele><time>2026-04-12T06:16:34.564Z</time></trkpt><trkpt lat="45.0920033" lon="11.6307067"><ele>4.142857142857142</ele><time>2026-04-12T06:16:35.568Z</time></trkpt><trkpt lat="45.0920183" lon="11.6306133"><ele>4.0</ele><time>2026-04-12T06:16:36.565Z</time></trkpt><trkpt lat="45.09204" lon="11.63052"><ele>4.0</ele><time>2026-04-12T06:16:37.567Z</time></trkpt><trkpt lat="45.0920517" lon="11.6304283"><ele>3.9999999999999996</ele><time>2026-04-12T06:16:38.568Z</time></trkpt><trkpt lat="45.0920767" lon="11.6303333"><ele>4.0</ele><time>2026-04-12T06:16:39.54Z</time></trkpt><trkpt lat="45.0921033" lon="11.6302417"><ele>4.0</ele><time>2026-04-12T06:16:40.561Z</time></trkpt><trkpt lat="45.092125" lon="11.6301517"><ele>3.9999999999999996</ele><time>2026-04-12T06:16:41.553Z</time></trkpt><trkpt lat="45.092145" lon="11.630055"><ele>4.0</ele><time>2026-04-12T06:16:42.551Z</time></trkpt><trkpt lat="45.09217" lon="11.6299567"><ele>4.0</ele><time>2026-04-12T06:16:43.571Z</time></trkpt><trkpt lat="45.0921933" lon="11.6298583"><ele>4.0</ele><time>2026-04-12T06:16:44.559Z</time></trkpt><trkpt lat="45.0922133" lon="11.6297617"><ele>3.9999999999999996</ele><time>2026-04-12T06:16:45.561Z</time></trkpt><trkpt lat="45.0922383" lon="11.62967"><ele>4.0</ele><time>2026-04-12T06:16:46.554Z</time></trkpt><trkpt lat="45.0922617" lon="11.6295783"><ele>4.0</ele><time>2026-04-12T06:16:47.569Z</time></trkpt><trkpt lat="45.0922883" lon="11.6294817"><ele>3.9999999999999996</ele><time>2026-04-12T06:16:48.562Z</time></trkpt><trkpt lat="45.092315" lon="11.6293883"><ele>4.0</ele><time>2026-04-12T06:16:49.559Z</time></trkpt><trkpt lat="45.0923467" lon="11.6292983"><ele>4.0</ele><time>2026-04-12T06:16:50.688Z</time></trkpt><trkpt lat="45.09244" lon="11.6291367"><ele>4.0</ele><time>2026-04-12T06:16:52.558Z</time></trkpt><trkpt lat="45.092495" lon="11.6290717"><ele>3.9999999999999996</ele><time>2026-04-12T06:16:53.567Z</time></trkpt><trkpt lat="45.092555" lon="11.6290133"><ele>4.0</ele><time>2026-04-12T06:16:54.566Z</time></trkpt><trkpt lat="45.09262" lon="11.6289633"><ele>4.0</ele><time>2026-04-12T06:16:55.552Z</time></trkpt><trkpt lat="45.0926867" lon="11.6289217"><ele>3.9999999999999996</ele><time>2026-04-12T06:16:56.564Z</time></trkpt><trkpt lat="45.0927517" lon="11.628875"><ele>4.0</ele><time>2026-04-12T06:16:57.57Z</time></trkpt><trkpt lat="45.0928133" lon="11.6288283"><ele>4.0</ele><time>2026-04-12T06:16:58.549Z</time></trkpt><trkpt lat="45.0928733" lon="11.6287733"><ele>4.0</ele><time>2026-04-12T06:16:59.563Z</time></trkpt><trkpt lat="45.09293" lon="11.6287183"><ele>3.9999999999999996</ele><time>2026-04-12T06:17:00.537Z</time></trkpt><trkpt lat="45.0929817" lon="11.6286583"><ele>4.0</ele><time>2026-04-12T06:17:01.568Z</time></trkpt><trkpt lat="45.0930367" lon="11.6286"><ele>4.0</ele><time>2026-04-12T06:17:02.568Z</time></trkpt><trkpt lat="45.09309" lon="11.6285417"><ele>3.9999999999999996</ele><time>2026-04-12T06:17:03.568Z</time></trkpt><trkpt lat="45.0931417" lon="11.6284817"><ele>4.0</ele><time>2026-04-12T06:17:04.571Z</time></trkpt><trkpt lat="45.093195" lon="11.6284217"><ele>4.0</ele><time>2026-04-12T06:17:05.57Z</time></trkpt><trkpt lat="45.0932483" lon="11.628355"><ele>4.142857142857142</ele><time>2026-04-12T06:17:06.568Z</time></trkpt><trkpt lat="45.0933" lon="11.6282867"><ele>4.285714285714286</ele><time>2026-04-12T06:17:07.566Z</time></trkpt><trkpt lat="45.0933517" lon="11.628215"><ele>4.428571428571429</ele><time>2026-04-12T06:17:08.557Z</time></trkpt><trkpt lat="45.0934017" lon="11.62814"><ele>4.571428571428571</ele><time>2026-04-12T06:17:09.535Z</time></trkpt><trkpt lat="45.0934483" lon="11.6280667"><ele>4.714285714285714</ele><time>2026-04-12T06:17:10.566Z</time></trkpt><trkpt lat="45.093495" lon="11.6279867"><ele>4.857142857142857</ele><time>2026-04-12T06:17:11.568Z</time></trkpt><trkpt lat="45.093545" lon="11.6279067"><ele>5.0</ele><time>2026-04-12T06:17:12.568Z</time></trkpt><trkpt lat="45.0935883" lon="11.6278233"><ele>5.0</ele><time>2026-04-12T06:17:13.566Z</time></trkpt><trkpt lat="45.0936283" lon="11.627745"><ele>5.0</ele><time>2026-04-12T06:17:14.566Z</time></trkpt><trkpt lat="45.093675" lon="11.6276633"><ele>5.0</ele><time>2026-04-12T06:17:15.569Z</time></trkpt><trkpt lat="45.0937183" lon="11.6275817"><ele>5.0</ele><time>2026-04-12T06:17:16.568Z</time></trkpt><trkpt lat="45.0937617" lon="11.6275"><ele>5.0</ele><time>2026-04-12T06:17:17.563Z</time></trkpt><trkpt lat="45.0938083" lon="11.6274183"><ele>5.0</ele><time>2026-04-12T06:17:18.558Z</time></trkpt><trkpt lat="45.0938583" lon="11.6273383"><ele>5.0</ele><time>2026-04-12T06:17:19.559Z</time></trkpt><trkpt lat="45.093905" lon="11.627265"><ele>5.0</ele><time>2026-04-12T06:17:20.57Z</time></trkpt><trkpt lat="45.0939517" lon="11.62719"><ele>5.0</ele><time>2026-04-12T06:17:21.569Z</time></trkpt><trkpt lat="45.094" lon="11.6271167"><ele>5.0</ele><time>2026-04-12T06:17:22.574Z</time></trkpt><trkpt lat="45.0940433" lon="11.6270467"><ele>5.0</ele><time>2026-04-12T06:17:23.569Z</time></trkpt><trkpt lat="45.094125" lon="11.6269217"><ele>5.0</ele><time>2026-04-12T06:17:25.57Z</time></trkpt><trkpt lat="45.0941933" lon="11.6268283"><ele>5.0</ele><time>2026-04-12T06:17:27.559Z</time></trkpt><trkpt lat="45.0942583" lon="11.6267667"><ele>4.8</ele><time>2026-04-12T06:17:29.556Z</time></trkpt><trkpt lat="45.0943233" lon="11.6266617"><ele>4.6</ele><time>2026-04-12T06:17:31.57Z</time></trkpt><trkpt lat="45.0943533" lon="11.6265"><ele>4.4</ele><time>2026-04-12T06:17:33.567Z</time></trkpt><trkpt lat="45.094345" lon="11.6263217"><ele>4.2</ele><time>2026-04-12T06:17:35.557Z</time></trkpt><trkpt lat="45.094345" lon="11.6262283"><ele>4.0</ele><time>2026-04-12T06:17:36.574Z</time></trkpt><trkpt lat="45.0943433" lon="11.626135"><ele>4.0</ele><time>2026-04-12T06:17:37.553Z</time></trkpt><trkpt lat="45.0943433" lon="11.6260417"><ele>3.9999999999999996</ele><time>2026-04-12T06:17:38.565Z</time></trkpt><trkpt lat="45.0943433" lon="11.6259467"><ele>4.0</ele><time>2026-04-12T06:17:39.558Z</time></trkpt><trkpt lat="45.0943417" lon="11.6258517"><ele>4.0</ele><time>2026-04-12T06:17:40.566Z</time></trkpt><trkpt lat="45.094335" lon="11.6257567"><ele>3.9999999999999996</ele><time>2026-04-12T06:17:41.562Z</time></trkpt><trkpt lat="45.0943283" lon="11.6256617"><ele>4.0</ele><time>2026-04-12T06:17:42.565Z</time></trkpt><trkpt lat="45.0943233" lon="11.6255633"><ele>4.0</ele><time>2026-04-12T06:17:43.567Z</time></trkpt><trkpt lat="45.094315" lon="11.6254683"><ele>3.9999999999999996</ele><time>2026-04-12T06:17:44.571Z</time></trkpt><trkpt lat="45.094305" lon="11.625375"><ele>4.0</ele><time>2026-04-12T06:17:45.568Z</time></trkpt><trkpt lat="45.0942967" lon="11.625285"><ele>4.0</ele><time>2026-04-12T06:17:46.572Z</time></trkpt><trkpt lat="45.0942833" lon="11.6251967"><ele>4.0</ele><time>2026-04-12T06:17:47.564Z</time></trkpt><trkpt lat="45.094255" lon="11.62502"><ele>3.9999999999999996</ele><time>2026-04-12T06:17:49.568Z</time></trkpt><trkpt lat="45.09424" lon="11.6249317"><ele>4.0</ele><time>2026-04-12T06:17:50.573Z</time></trkpt><trkpt lat="45.09423" lon="11.6248417"><ele>4.0</ele><time>2026-04-12T06:17:51.577Z</time></trkpt><trkpt lat="45.0942133" lon="11.62475"><ele>3.9999999999999996</ele><time>2026-04-12T06:17:52.549Z</time></trkpt><trkpt lat="45.0942" lon="11.6246583"><ele>4.0</ele><time>2026-04-12T06:17:53.565Z</time></trkpt><trkpt lat="45.094185" lon="11.6245683"><ele>4.0</ele><time>2026-04-12T06:17:54.566Z</time></trkpt><trkpt lat="45.0941683" lon="11.6244783"><ele>3.9999999999999996</ele><time>2026-04-12T06:17:55.567Z</time></trkpt><trkpt lat="45.0941467" lon="11.6243883"><ele>4.0</ele><time>2026-04-12T06:17:56.567Z</time></trkpt><trkpt lat="45.0941283" lon="11.6242983"><ele>4.0</ele><time>2026-04-12T06:17:57.566Z</time></trkpt><trkpt lat="45.0941133" lon="11.6242083"><ele>4.0</ele><time>2026-04-12T06:17:58.57Z</time></trkpt><trkpt lat="45.094095" lon="11.6241183"><ele>3.9999999999999996</ele><time>2026-04-12T06:17:59.571Z</time></trkpt><trkpt lat="45.0940767" lon="11.6240267"><ele>4.0</ele><time>2026-04-12T06:18:00.562Z</time></trkpt><trkpt lat="45.0940583" lon="11.6239383"><ele>4.0</ele><time>2026-04-12T06:18:01.57Z</time></trkpt><trkpt lat="45.0940367" lon="11.6238483"><ele>3.9999999999999996</ele><time>2026-04-12T06:18:02.575Z</time></trkpt><trkpt lat="45.0940167" lon="11.6237567"><ele>4.0</ele><time>2026-04-12T06:18:03.574Z</time></trkpt><trkpt lat="45.094" lon="11.6236667"><ele>4.0</ele><time>2026-04-12T06:18:04.573Z</time></trkpt><trkpt lat="45.09398" lon="11.62358"><ele>4.0</ele><time>2026-04-12T06:18:05.558Z</time></trkpt><trkpt lat="45.0939617" lon="11.6234917"><ele>3.9999999999999996</ele><time>2026-04-12T06:18:06.567Z</time></trkpt><trkpt lat="45.0939467" lon="11.6233967"><ele>4.0</ele><time>2026-04-12T06:18:07.567Z</time></trkpt><trkpt lat="45.0939383" lon="11.6233017"><ele>4.0</ele><time>2026-04-12T06:18:08.605Z</time></trkpt><trkpt lat="45.0939317" lon="11.6232033"><ele>3.9999999999999996</ele><time>2026-04-12T06:18:09.572Z</time></trkpt><trkpt lat="45.0939317" lon="11.6231033"><ele>4.0</ele><time>2026-04-12T06:18:10.564Z</time></trkpt><trkpt lat="45.0939383" lon="11.6230067"><ele>4.0</ele><time>2026-04-12T06:18:11.574Z</time></trkpt><trkpt lat="45.093945" lon="11.6229117"><ele>4.0</ele><time>2026-04-12T06:18:12.578Z</time></trkpt><trkpt lat="45.0939567" lon="11.6228167"><ele>3.9999999999999996</ele><time>2026-04-12T06:18:13.543Z</time></trkpt><trkpt lat="45.0939683" lon="11.622725"><ele>4.0</ele><time>2026-04-12T06:18:14.579Z</time></trkpt><trkpt lat="45.09398" lon="11.6226333"><ele>4.0</ele><time>2026-04-12T06:18:15.567Z</time></trkpt><trkpt lat="45.09399" lon="11.6225383"><ele>3.9999999999999996</ele><time>2026-04-12T06:18:16.563Z</time></trkpt><trkpt lat="45.0939983" lon="11.62244"><ele>4.0</ele><time>2026-04-12T06:18:17.565Z</time></trkpt><trkpt lat="45.094005" lon="11.6223433"><ele>4.0</ele><time>2026-04-12T06:18:18.567Z</time></trkpt><trkpt lat="45.0940117" lon="11.622245"><ele>4.0</ele><time>2026-04-12T06:18:19.565Z</time></trkpt><trkpt lat="45.094015" lon="11.622145"><ele>3.9999999999999996</ele><time>2026-04-12T06:18:20.564Z</time></trkpt><trkpt lat="45.0940167" lon="11.6220467"><ele>4.0</ele><time>2026-04-12T06:18:21.563Z</time></trkpt><trkpt lat="45.09402" lon="11.6219467"><ele>4.0</ele><time>2026-04-12T06:18:22.567Z</time></trkpt><trkpt lat="45.0940183" lon="11.6218467"><ele>3.9999999999999996</ele><time>2026-04-12T06:18:23.567Z</time></trkpt><trkpt lat="45.0940183" lon="11.6217483"><ele>4.0</ele><time>2026-04-12T06:18:24.565Z</time></trkpt><trkpt lat="45.0940133" lon="11.62165"><ele>4.0</ele><time>2026-04-12T06:18:25.571Z</time></trkpt><trkpt lat="45.0940133" lon="11.6215583"><ele>3.9999999999999996</ele><time>2026-04-12T06:18:26.56Z</time></trkpt><trkpt lat="45.0940133" lon="11.6214667"><ele>4.0</ele><time>2026-04-12T06:18:27.572Z</time></trkpt><trkpt lat="45.094015" lon="11.62129"><ele>4.0</ele><time>2026-04-12T06:18:29.561Z</time></trkpt><trkpt lat="45.0940167" lon="11.6211983"><ele>4.0</ele><time>2026-04-12T06:18:30.571Z</time></trkpt><trkpt lat="45.0940167" lon="11.6211083"><ele>3.9999999999999996</ele><time>2026-04-12T06:18:31.567Z</time></trkpt><trkpt lat="45.094015" lon="11.621015"><ele>4.0</ele><time>2026-04-12T06:18:32.567Z</time></trkpt><trkpt lat="45.0940133" lon="11.62092"><ele>3.714285714285714</ele><time>2026-04-12T06:18:33.572Z</time></trkpt><trkpt lat="45.0940133" lon="11.620825"><ele>3.428571428571428</ele><time>2026-04-12T06:18:34.545Z</time></trkpt><trkpt lat="45.0940167" lon="11.6207317"><ele>3.142857142857143</ele><time>2026-04-12T06:18:35.572Z</time></trkpt><trkpt lat="45.0940183" lon="11.620635"><ele>2.8571428571428568</ele><time>2026-04-12T06:18:36.571Z</time></trkpt><trkpt lat="45.0940217" lon="11.62054"><ele>2.571428571428571</ele><time>2026-04-12T06:18:37.564Z</time></trkpt><trkpt lat="45.0940283" lon="11.620445"><ele>2.2857142857142856</ele><time>2026-04-12T06:18:38.568Z</time></trkpt><trkpt lat="45.094035" lon="11.6203467"><ele>2.0</ele><time>2026-04-12T06:18:39.568Z</time></trkpt><trkpt lat="45.09404" lon="11.6202483"><ele>2.0</ele><time>2026-04-12T06:18:40.574Z</time></trkpt><trkpt lat="45.0940433" lon="11.6201483"><ele>1.9999999999999998</ele><time>2026-04-12T06:18:41.567Z</time></trkpt><trkpt lat="45.09405" lon="11.62005"><ele>2.0</ele><time>2026-04-12T06:18:42.564Z</time></trkpt><trkpt lat="45.09406" lon="11.6199533"><ele>2.0</ele><time>2026-04-12T06:18:43.567Z</time></trkpt><trkpt lat="45.09407" lon="11.6198567"><ele>1.9999999999999998</ele><time>2026-04-12T06:18:44.57Z</time></trkpt><trkpt lat="45.09408" lon="11.6197583"><ele>2.0</ele><time>2026-04-12T06:18:45.57Z</time></trkpt><trkpt lat="45.0940867" lon="11.61966"><ele>2.0</ele><time>2026-04-12T06:18:46.568Z</time></trkpt><trkpt lat="45.094095" lon="11.6195633"><ele>2.142857142857143</ele><time>2026-04-12T06:18:47.562Z</time></trkpt><trkpt lat="45.0940983" lon="11.619465"><ele>2.2857142857142856</ele><time>2026-04-12T06:18:48.568Z</time></trkpt><trkpt lat="45.0941033" lon="11.6193633"><ele>2.4285714285714284</ele><time>2026-04-12T06:18:49.542Z</time></trkpt><trkpt lat="45.094105" lon="11.6192667"><ele>2.571428571428571</ele><time>2026-04-12T06:18:50.579Z</time></trkpt><trkpt lat="45.0941083" lon="11.61917"><ele>2.7142857142857144</ele><time>2026-04-12T06:18:51.563Z</time></trkpt><trkpt lat="45.09411" lon="11.619075"><ele>2.8571428571428568</ele><time>2026-04-12T06:18:52.563Z</time></trkpt><trkpt lat="45.09411" lon="11.61898"><ele>3.0</ele><time>2026-04-12T06:18:53.562Z</time></trkpt><trkpt lat="45.094115" lon="11.6188833"><ele>2.9999999999999996</ele><time>2026-04-12T06:18:54.559Z</time></trkpt><trkpt lat="45.09412" lon="11.6187867"><ele>3.0</ele><time>2026-04-12T06:18:55.562Z</time></trkpt><trkpt lat="45.0941217" lon="11.61869"><ele>3.0</ele><time>2026-04-12T06:18:56.565Z</time></trkpt><trkpt lat="45.0941233" lon="11.6185933"><ele>3.0</ele><time>2026-04-12T06:18:57.574Z</time></trkpt><trkpt lat="45.0941233" lon="11.6184983"><ele>3.0</ele><time>2026-04-12T06:18:58.574Z</time></trkpt><trkpt lat="45.0941283" lon="11.6184033"><ele>2.9999999999999996</ele><time>2026-04-12T06:18:59.563Z</time></trkpt><trkpt lat="45.0941283" lon="11.6183067"><ele>3.0</ele><time>2026-04-12T06:19:00.557Z</time></trkpt><trkpt lat="45.09413" lon="11.6182067"><ele>2.9999999999999996</ele><time>2026-04-12T06:19:01.565Z</time></trkpt><trkpt lat="45.0941283" lon="11.6181083"><ele>3.0</ele><time>2026-04-12T06:19:02.577Z</time></trkpt><trkpt lat="45.0941283" lon="11.6180117"><ele>3.0</ele><time>2026-04-12T06:19:03.564Z</time></trkpt><trkpt lat="45.0941283" lon="11.617915"><ele>3.0</ele><time>2026-04-12T06:19:04.568Z</time></trkpt><trkpt lat="45.0941267" lon="11.6178167"><ele>3.0</ele><time>2026-04-12T06:19:05.568Z</time></trkpt><trkpt lat="45.09413" lon="11.61772"><ele>2.9999999999999996</ele><time>2026-04-12T06:19:06.57Z</time></trkpt><trkpt lat="45.0941383" lon="11.6176217"><ele>3.0</ele><time>2026-04-12T06:19:07.569Z</time></trkpt><trkpt lat="45.09415" lon="11.6175233"><ele>2.9999999999999996</ele><time>2026-04-12T06:19:08.553Z</time></trkpt><trkpt lat="45.0941633" lon="11.6174267"><ele>3.0</ele><time>2026-04-12T06:19:09.56Z</time></trkpt><trkpt lat="45.0941783" lon="11.6173317"><ele>3.0</ele><time>2026-04-12T06:19:10.563Z</time></trkpt><trkpt lat="45.094195" lon="11.6172367"><ele>3.0</ele><time>2026-04-12T06:19:11.573Z</time></trkpt><trkpt lat="45.0942117" lon="11.61714"><ele>3.0</ele><time>2026-04-12T06:19:12.572Z</time></trkpt><trkpt lat="45.094225" lon="11.6170433"><ele>2.9999999999999996</ele><time>2026-04-12T06:19:13.564Z</time></trkpt><trkpt lat="45.0942367" lon="11.6169467"><ele>3.0</ele><time>2026-04-12T06:19:14.565Z</time></trkpt><trkpt lat="45.094245" lon="11.6168483"><ele>2.9999999999999996</ele><time>2026-04-12T06:19:15.57Z</time></trkpt><trkpt lat="45.0942533" lon="11.61675"><ele>3.0</ele><time>2026-04-12T06:19:16.567Z</time></trkpt><trkpt lat="45.0942633" lon="11.6166517"><ele>3.0</ele><time>2026-04-12T06:19:17.568Z</time></trkpt><trkpt lat="45.0942683" lon="11.6165567"><ele>3.0</ele><time>2026-04-12T06:19:18.567Z</time></trkpt><trkpt lat="45.0942733" lon="11.6164617"><ele>3.0</ele><time>2026-04-12T06:19:19.567Z</time></trkpt><trkpt lat="45.094275" lon="11.6163683"><ele>2.9999999999999996</ele><time>2026-04-12T06:19:20.568Z</time></trkpt><trkpt lat="45.0942767" lon="11.616275"><ele>3.0</ele><time>2026-04-12T06:19:21.551Z</time></trkpt><trkpt lat="45.0942767" lon="11.6161783"><ele>2.9999999999999996</ele><time>2026-04-12T06:19:22.552Z</time></trkpt><trkpt lat="45.094275" lon="11.6160817"><ele>3.0</ele><time>2026-04-12T06:19:23.536Z</time></trkpt><trkpt lat="45.0942767" lon="11.6159867"><ele>3.0</ele><time>2026-04-12T06:19:24.538Z</time></trkpt><trkpt lat="45.0942783" lon="11.6158883"><ele>3.0</ele><time>2026-04-12T06:19:25.552Z</time></trkpt><trkpt lat="45.0942767" lon="11.6157933"><ele>3.0</ele><time>2026-04-12T06:19:26.543Z</time></trkpt><trkpt lat="45.0942817" lon="11.6157017"><ele>2.9999999999999996</ele><time>2026-04-12T06:19:27.543Z</time></trkpt><trkpt lat="45.0942783" lon="11.61561"><ele>3.0</ele><time>2026-04-12T06:19:28.568Z</time></trkpt><trkpt lat="45.0942733" lon="11.6155183"><ele>2.9999999999999996</ele><time>2026-04-12T06:19:29.546Z</time></trkpt><trkpt lat="45.09427" lon="11.615425"><ele>3.0</ele><time>2026-04-12T06:19:30.559Z</time></trkpt><trkpt lat="45.09427" lon="11.6153283"><ele>3.0</ele><time>2026-04-12T06:19:31.547Z</time></trkpt><trkpt lat="45.0942667" lon="11.6152267"><ele>3.0</ele><time>2026-04-12T06:19:32.541Z</time></trkpt><trkpt lat="45.0942667" lon="11.6151267"><ele>3.0</ele><time>2026-04-12T06:19:33.542Z</time></trkpt><trkpt lat="45.0942633" lon="11.6150217"><ele>2.9999999999999996</ele><time>2026-04-12T06:19:34.541Z</time></trkpt><trkpt lat="45.09426" lon="11.6149233"><ele>3.0</ele><time>2026-04-12T06:19:35.535Z</time></trkpt><trkpt lat="45.0942567" lon="11.614825"><ele>2.9999999999999996</ele><time>2026-04-12T06:19:36.557Z</time></trkpt><trkpt lat="45.0942567" lon="11.61473"><ele>3.0</ele><time>2026-04-12T06:19:37.572Z</time></trkpt><trkpt lat="45.0942583" lon="11.6146333"><ele>3.0</ele><time>2026-04-12T06:19:38.55Z</time></trkpt><trkpt lat="45.0942667" lon="11.6145333"><ele>3.0</ele><time>2026-04-12T06:19:39.571Z</time></trkpt><trkpt lat="45.09428" lon="11.6144333"><ele>3.0</ele><time>2026-04-12T06:19:40.568Z</time></trkpt><trkpt lat="45.094295" lon="11.6143333"><ele>2.9999999999999996</ele><time>2026-04-12T06:19:41.557Z</time></trkpt><trkpt lat="45.094315" lon="11.6142383"><ele>3.0</ele><time>2026-04-12T06:19:42.554Z</time></trkpt><trkpt lat="45.0943383" lon="11.614145"><ele>2.9999999999999996</ele><time>2026-04-12T06:19:43.564Z</time></trkpt><trkpt lat="45.094365" lon="11.6140533"><ele>3.0</ele><time>2026-04-12T06:19:44.578Z</time></trkpt><trkpt lat="45.0943917" lon="11.61396"><ele>3.0</ele><time>2026-04-12T06:19:45.573Z</time></trkpt><trkpt lat="45.0944183" lon="11.61387"><ele>3.0</ele><time>2026-04-12T06:19:46.57Z</time></trkpt><trkpt lat="45.094445" lon="11.61378"><ele>3.0</ele><time>2026-04-12T06:19:47.566Z</time></trkpt><trkpt lat="45.094475" lon="11.6136933"><ele>2.9999999999999996</ele><time>2026-04-12T06:19:48.567Z</time></trkpt><trkpt lat="45.0945067" lon="11.6136067"><ele>3.0</ele><time>2026-04-12T06:19:49.568Z</time></trkpt><trkpt lat="45.0945383" lon="11.61352"><ele>3.1428571428571423</ele><time>2026-04-12T06:19:50.544Z</time></trkpt><trkpt lat="45.09457" lon="11.6134333"><ele>3.2857142857142856</ele><time>2026-04-12T06:19:51.56Z</time></trkpt><trkpt lat="45.0946033" lon="11.613345"><ele>3.4285714285714284</ele><time>2026-04-12T06:19:52.557Z</time></trkpt><trkpt lat="45.094635" lon="11.613255"><ele>3.571428571428571</ele><time>2026-04-12T06:19:53.554Z</time></trkpt><trkpt lat="45.0946633" lon="11.613165"><ele>3.714285714285714</ele><time>2026-04-12T06:19:54.564Z</time></trkpt><trkpt lat="45.0946867" lon="11.6130733"><ele>3.8571428571428568</ele><time>2026-04-12T06:19:55.564Z</time></trkpt><trkpt lat="45.0947083" lon="11.6129833"><ele>4.0</ele><time>2026-04-12T06:19:56.568Z</time></trkpt><trkpt lat="45.0947283" lon="11.61289"><ele>3.8571428571428568</ele><time>2026-04-12T06:19:57.565Z</time></trkpt><trkpt lat="45.0947467" lon="11.6127967"><ele>3.714285714285714</ele><time>2026-04-12T06:19:58.552Z</time></trkpt><trkpt lat="45.0947667" lon="11.6127"><ele>3.571428571428571</ele><time>2026-04-12T06:19:59.55Z</time></trkpt><trkpt lat="45.094785" lon="11.612605"><ele>3.4285714285714284</ele><time>2026-04-12T06:20:00.568Z</time></trkpt><trkpt lat="45.0948033" lon="11.61251"><ele>3.2857142857142856</ele><time>2026-04-12T06:20:01.569Z</time></trkpt><trkpt lat="45.0948217" lon="11.6124183"><ele>3.1428571428571423</ele><time>2026-04-12T06:20:02.565Z</time></trkpt><trkpt lat="45.0948367" lon="11.6123283"><ele>3.0</ele><time>2026-04-12T06:20:03.569Z</time></trkpt><trkpt lat="45.0948483" lon="11.6122367"><ele>3.0</ele><time>2026-04-12T06:20:04.558Z</time></trkpt><trkpt lat="45.09486" lon="11.6121433"><ele>3.0</ele><time>2026-04-12T06:20:05.564Z</time></trkpt><trkpt lat="45.0948717" lon="11.6120483"><ele>3.0</ele><time>2026-04-12T06:20:06.564Z</time></trkpt><trkpt lat="45.0948817" lon="11.6119583"><ele>3.0</ele><time>2026-04-12T06:20:07.555Z</time></trkpt><trkpt lat="45.0948967" lon="11.6117783"><ele>3.0</ele><time>2026-04-12T06:20:09.571Z</time></trkpt><trkpt lat="45.094905" lon="11.611685"><ele>3.0</ele><time>2026-04-12T06:20:10.567Z</time></trkpt><trkpt lat="45.0949133" lon="11.6115917"><ele>3.0</ele><time>2026-04-12T06:20:11.565Z</time></trkpt><trkpt lat="45.0949233" lon="11.6114933"><ele>3.0</ele><time>2026-04-12T06:20:12.567Z</time></trkpt><trkpt lat="45.094935" lon="11.611395"><ele>3.0</ele><time>2026-04-12T06:20:13.551Z</time></trkpt><trkpt lat="45.09495" lon="11.6112983"><ele>3.0</ele><time>2026-04-12T06:20:14.565Z</time></trkpt><trkpt lat="45.0949683" lon="11.61121"><ele>3.0</ele><time>2026-04-12T06:20:15.568Z</time></trkpt><trkpt lat="45.0950183" lon="11.6110383"><ele>3.0</ele><time>2026-04-12T06:20:17.571Z</time></trkpt><trkpt lat="45.0950483" lon="11.6109517"><ele>2.9999999999999996</ele><time>2026-04-12T06:20:18.567Z</time></trkpt><trkpt lat="45.0950733" lon="11.6108667"><ele>3.0</ele><time>2026-04-12T06:20:19.568Z</time></trkpt><trkpt lat="45.0950983" lon="11.6107783"><ele>3.0</ele><time>2026-04-12T06:20:20.555Z</time></trkpt><trkpt lat="45.095125" lon="11.61069"><ele>3.0</ele><time>2026-04-12T06:20:21.559Z</time></trkpt><trkpt lat="45.0951483" lon="11.6106"><ele>3.0</ele><time>2026-04-12T06:20:22.564Z</time></trkpt><trkpt lat="45.095165" lon="11.6105067"><ele>2.9999999999999996</ele><time>2026-04-12T06:20:23.568Z</time></trkpt><trkpt lat="45.09518" lon="11.6104133"><ele>3.0</ele><time>2026-04-12T06:20:24.567Z</time></trkpt><trkpt lat="45.0951867" lon="11.6103183"><ele>2.9999999999999996</ele><time>2026-04-12T06:20:25.567Z</time></trkpt><trkpt lat="45.0951917" lon="11.6102233"><ele>3.0</ele><time>2026-04-12T06:20:26.567Z</time></trkpt><trkpt lat="45.0951917" lon="11.6101283"><ele>3.0</ele><time>2026-04-12T06:20:27.547Z</time></trkpt><trkpt lat="45.0951883" lon="11.6100333"><ele>3.0</ele><time>2026-04-12T06:20:28.568Z</time></trkpt><trkpt lat="45.0951817" lon="11.6099367"><ele>3.0</ele><time>2026-04-12T06:20:29.572Z</time></trkpt><trkpt lat="45.095175" lon="11.60984"><ele>2.9999999999999996</ele><time>2026-04-12T06:20:30.557Z</time></trkpt><trkpt lat="45.095165" lon="11.609745"><ele>3.0</ele><time>2026-04-12T06:20:31.562Z</time></trkpt><trkpt lat="45.0951567" lon="11.6096533"><ele>2.9999999999999996</ele><time>2026-04-12T06:20:32.544Z</time></trkpt><trkpt lat="45.0951483" lon="11.60956"><ele>3.0</ele><time>2026-04-12T06:20:33.565Z</time></trkpt><trkpt lat="45.0951383" lon="11.6094683"><ele>3.0</ele><time>2026-04-12T06:20:34.574Z</time></trkpt><trkpt lat="45.09513" lon="11.6093767"><ele>3.0</ele><time>2026-04-12T06:20:35.569Z</time></trkpt><trkpt lat="45.0951233" lon="11.609285"><ele>3.0</ele><time>2026-04-12T06:20:36.576Z</time></trkpt><trkpt lat="45.0951133" lon="11.6091917"><ele>2.9999999999999996</ele><time>2026-04-12T06:20:37.576Z</time></trkpt><trkpt lat="45.0951083" lon="11.609095"><ele>3.0</ele><time>2026-04-12T06:20:38.553Z</time></trkpt><trkpt lat="45.0951033" lon="11.6089983"><ele>3.1428571428571423</ele><time>2026-04-12T06:20:39.563Z</time></trkpt><trkpt lat="45.0950967" lon="11.6089033"><ele>3.2857142857142856</ele><time>2026-04-12T06:20:40.563Z</time></trkpt><trkpt lat="45.095095" lon="11.6088083"><ele>3.4285714285714284</ele><time>2026-04-12T06:20:41.549Z</time></trkpt><trkpt lat="45.0950967" lon="11.6087183"><ele>3.571428571428571</ele><time>2026-04-12T06:20:42.567Z</time></trkpt><trkpt lat="45.0950967" lon="11.6086283"><ele>3.714285714285714</ele><time>2026-04-12T06:20:43.576Z</time></trkpt><trkpt lat="45.0950967" lon="11.608535"><ele>3.8571428571428568</ele><time>2026-04-12T06:20:44.568Z</time></trkpt><trkpt lat="45.0950967" lon="11.6084417"><ele>4.0</ele><time>2026-04-12T06:20:45.568Z</time></trkpt><trkpt lat="45.0951" lon="11.6083467"><ele>4.0</ele><time>2026-04-12T06:20:46.569Z</time></trkpt><trkpt lat="45.095105" lon="11.6082517"><ele>3.9999999999999996</ele><time>2026-04-12T06:20:47.57Z</time></trkpt><trkpt lat="45.0951133" lon="11.6081583"><ele>4.0</ele><time>2026-04-12T06:20:48.57Z</time></trkpt><trkpt lat="45.0951233" lon="11.608065"><ele>4.0</ele><time>2026-04-12T06:20:49.564Z</time></trkpt><trkpt lat="45.0951417" lon="11.6079733"><ele>3.9999999999999996</ele><time>2026-04-12T06:20:50.57Z</time></trkpt><trkpt lat="45.095165" lon="11.6078817"><ele>4.0</ele><time>2026-04-12T06:20:51.546Z</time></trkpt><trkpt lat="45.09519" lon="11.60779"><ele>4.0</ele><time>2026-04-12T06:20:52.561Z</time></trkpt><trkpt lat="45.0952183" lon="11.6077033"><ele>3.833333333333333</ele><time>2026-04-12T06:20:53.575Z</time></trkpt><trkpt lat="45.0952533" lon="11.6076283"><ele>3.6666666666666665</ele><time>2026-04-12T06:20:54.566Z</time></trkpt><trkpt lat="45.09529" lon="11.607555"><ele>3.5</ele><time>2026-04-12T06:20:55.565Z</time></trkpt><trkpt lat="45.095375" lon="11.6074183"><ele>3.333333333333333</ele><time>2026-04-12T06:20:57.565Z</time></trkpt><trkpt lat="45.095425" lon="11.6073567"><ele>3.1666666666666665</ele><time>2026-04-12T06:20:58.566Z</time></trkpt><trkpt lat="45.0954717" lon="11.607295"><ele>3.0</ele><time>2026-04-12T06:20:59.578Z</time></trkpt><trkpt lat="45.0955617" lon="11.6071817"><ele>3.0</ele><time>2026-04-12T06:21:01.565Z</time></trkpt><trkpt lat="45.0956117" lon="11.607125"><ele>3.0</ele><time>2026-04-12T06:21:02.564Z</time></trkpt><trkpt lat="45.0956617" lon="11.607065"><ele>3.0</ele><time>2026-04-12T06:21:03.564Z</time></trkpt><trkpt lat="45.09571" lon="11.6070067"><ele>3.0</ele><time>2026-04-12T06:21:04.57Z</time></trkpt><trkpt lat="45.09581" lon="11.606895"><ele>3.0</ele><time>2026-04-12T06:21:06.569Z</time></trkpt><trkpt lat="45.09586" lon="11.6068367"><ele>3.0</ele><time>2026-04-12T06:21:07.548Z</time></trkpt><trkpt lat="45.09591" lon="11.6067783"><ele>3.25</ele><time>2026-04-12T06:21:08.566Z</time></trkpt><trkpt lat="45.096005" lon="11.606665"><ele>3.5</ele><time>2026-04-12T06:21:10.57Z</time></trkpt><trkpt lat="45.0961033" lon="11.6065583"><ele>3.75</ele><time>2026-04-12T06:21:12.556Z</time></trkpt><trkpt lat="45.0961983" lon="11.6064633"><ele>4.0</ele><time>2026-04-12T06:21:14.558Z</time></trkpt><trkpt lat="45.0962867" lon="11.606375"><ele>4.0</ele><time>2026-04-12T06:21:16.568Z</time></trkpt><trkpt lat="45.0963767" lon="11.6062883"><ele>4.0</ele><time>2026-04-12T06:21:18.571Z</time></trkpt><trkpt lat="45.09646" lon="11.606195"><ele>4.0</ele><time>2026-04-12T06:21:20.567Z</time></trkpt><trkpt lat="45.0965433" lon="11.6060867"><ele>4.0</ele><time>2026-04-12T06:21:22.567Z</time></trkpt><trkpt lat="45.0966217" lon="11.6059767"><ele>4.0</ele><time>2026-04-12T06:21:24.571Z</time></trkpt><trkpt lat="45.09669" lon="11.605855"><ele>4.0</ele><time>2026-04-12T06:21:26.57Z</time></trkpt><trkpt lat="45.096745" lon="11.6057167"><ele>4.0</ele><time>2026-04-12T06:21:28.569Z</time></trkpt><trkpt lat="45.0967917" lon="11.60557"><ele>4.0</ele><time>2026-04-12T06:21:30.571Z</time></trkpt><trkpt lat="45.09683" lon="11.6054167"><ele>4.0</ele><time>2026-04-12T06:21:32.561Z</time></trkpt><trkpt lat="45.096865" lon="11.6052517"><ele>3.9999999999999996</ele><time>2026-04-12T06:21:34.567Z</time></trkpt><trkpt lat="45.096895" lon="11.6050817"><ele>4.0</ele><time>2026-04-12T06:21:36.574Z</time></trkpt><trkpt lat="45.0969283" lon="11.60491"><ele>4.0</ele><time>2026-04-12T06:21:38.57Z</time></trkpt><trkpt lat="45.0969433" lon="11.60482"><ele>4.0</ele><time>2026-04-12T06:21:39.569Z</time></trkpt><trkpt lat="45.0969583" lon="11.6047333"><ele>3.9999999999999996</ele><time>2026-04-12T06:21:40.571Z</time></trkpt><trkpt lat="45.096975" lon="11.6046467"><ele>4.0</ele><time>2026-04-12T06:21:41.559Z</time></trkpt><trkpt lat="45.097015" lon="11.60448"><ele>4.0</ele><time>2026-04-12T06:21:43.576Z</time></trkpt><trkpt lat="45.0970583" lon="11.6043233"><ele>4.0</ele><time>2026-04-12T06:21:45.574Z</time></trkpt><trkpt lat="45.0971" lon="11.6041717"><ele>4.0</ele><time>2026-04-12T06:21:47.574Z</time></trkpt><trkpt lat="45.0971433" lon="11.60403"><ele>4.0</ele><time>2026-04-12T06:21:49.573Z</time></trkpt><trkpt lat="45.0972117" lon="11.603905"><ele>4.0</ele><time>2026-04-12T06:21:51.57Z</time></trkpt><trkpt lat="45.0972967" lon="11.6037983"><ele>4.0</ele><time>2026-04-12T06:21:53.562Z</time></trkpt><trkpt lat="45.0973883" lon="11.603725"><ele>4.0</ele><time>2026-04-12T06:21:55.569Z</time></trkpt><trkpt lat="45.097475" lon="11.6036767"><ele>4.0</ele><time>2026-04-12T06:21:57.567Z</time></trkpt><trkpt lat="45.097575" lon="11.6036917"><ele>4.0</ele><time>2026-04-12T06:21:59.572Z</time></trkpt><trkpt lat="45.09769" lon="11.60373"><ele>4.0</ele><time>2026-04-12T06:22:01.563Z</time></trkpt><trkpt lat="45.0977517" lon="11.6037517"><ele>3.9999999999999996</ele><time>2026-04-12T06:22:02.568Z</time></trkpt><trkpt lat="45.097815" lon="11.6037767"><ele>4.0</ele><time>2026-04-12T06:22:03.572Z</time></trkpt><trkpt lat="45.09788" lon="11.6037983"><ele>4.0</ele><time>2026-04-12T06:22:04.568Z</time></trkpt><trkpt lat="45.0979483" lon="11.6038217"><ele>3.9999999999999996</ele><time>2026-04-12T06:22:05.563Z</time></trkpt><trkpt lat="45.0980183" lon="11.6038433"><ele>4.0</ele><time>2026-04-12T06:22:06.566Z</time></trkpt><trkpt lat="45.09809" lon="11.6038667"><ele>4.0</ele><time>2026-04-12T06:22:07.566Z</time></trkpt><trkpt lat="45.0981617" lon="11.60389"><ele>4.0</ele><time>2026-04-12T06:22:08.569Z</time></trkpt><trkpt lat="45.0982333" lon="11.6039133"><ele>3.9999999999999996</ele><time>2026-04-12T06:22:09.569Z</time></trkpt><trkpt lat="45.0983067" lon="11.6039367"><ele>4.0</ele><time>2026-04-12T06:22:10.568Z</time></trkpt><trkpt lat="45.09838" lon="11.6039617"><ele>4.0</ele><time>2026-04-12T06:22:11.567Z</time></trkpt><trkpt lat="45.0984533" lon="11.6039867"><ele>3.9999999999999996</ele><time>2026-04-12T06:22:12.57Z</time></trkpt><trkpt lat="45.0985267" lon="11.60401"><ele>4.0</ele><time>2026-04-12T06:22:13.563Z</time></trkpt><trkpt lat="45.0985983" lon="11.6040333"><ele>4.0</ele><time>2026-04-12T06:22:14.567Z</time></trkpt><trkpt lat="45.09867" lon="11.6040583"><ele>3.8571428571428568</ele><time>2026-04-12T06:22:15.546Z</time></trkpt><trkpt lat="45.09874" lon="11.6040817"><ele>3.714285714285714</ele><time>2026-04-12T06:22:16.565Z</time></trkpt><trkpt lat="45.09881" lon="11.604105"><ele>3.571428571428571</ele><time>2026-04-12T06:22:17.569Z</time></trkpt><trkpt lat="45.0988833" lon="11.604125"><ele>3.4285714285714284</ele><time>2026-04-12T06:22:18.559Z</time></trkpt><trkpt lat="45.098955" lon="11.604145"><ele>3.2857142857142856</ele><time>2026-04-12T06:22:19.563Z</time></trkpt><trkpt lat="45.0990267" lon="11.6041667"><ele>3.1428571428571423</ele><time>2026-04-12T06:22:20.55Z</time></trkpt><trkpt lat="45.0990983" lon="11.6041867"><ele>3.0</ele><time>2026-04-12T06:22:21.558Z</time></trkpt><trkpt lat="45.0991717" lon="11.6042083"><ele>3.0</ele><time>2026-04-12T06:22:22.563Z</time></trkpt><trkpt lat="45.0992467" lon="11.6042333"><ele>3.0</ele><time>2026-04-12T06:22:23.56Z</time></trkpt><trkpt lat="45.0993217" lon="11.6042567"><ele>3.0</ele><time>2026-04-12T06:22:24.557Z</time></trkpt><trkpt lat="45.0994017" lon="11.60428"><ele>3.0</ele><time>2026-04-12T06:22:25.566Z</time></trkpt><trkpt lat="45.0994817" lon="11.6043083"><ele>3.0</ele><time>2026-04-12T06:22:26.566Z</time></trkpt><trkpt lat="45.0995633" lon="11.6043417"><ele>3.0</ele><time>2026-04-12T06:22:27.568Z</time></trkpt><trkpt lat="45.09964" lon="11.60437"><ele>3.0</ele><time>2026-04-12T06:22:28.56Z</time></trkpt><trkpt lat="45.0997167" lon="11.6043983"><ele>3.0</ele><time>2026-04-12T06:22:29.569Z</time></trkpt><trkpt lat="45.0997933" lon="11.6044233"><ele>3.0</ele><time>2026-04-12T06:22:30.566Z</time></trkpt><trkpt lat="45.0998683" lon="11.604445"><ele>3.0</ele><time>2026-04-12T06:22:31.568Z</time></trkpt><trkpt lat="45.0999467" lon="11.6044683"><ele>3.0</ele><time>2026-04-12T06:22:32.57Z</time></trkpt><trkpt lat="45.100025" lon="11.6044917"><ele>3.0</ele><time>2026-04-12T06:22:33.565Z</time></trkpt><trkpt lat="45.1001017" lon="11.6045183"><ele>3.0</ele><time>2026-04-12T06:22:34.57Z</time></trkpt><trkpt lat="45.100175" lon="11.604545"><ele>3.0</ele><time>2026-04-12T06:22:35.569Z</time></trkpt><trkpt lat="45.1002517" lon="11.6045717"><ele>3.0</ele><time>2026-04-12T06:22:36.571Z</time></trkpt><trkpt lat="45.1003267" lon="11.6045933"><ele>3.0</ele><time>2026-04-12T06:22:37.571Z</time></trkpt><trkpt lat="45.1004017" lon="11.6046183"><ele>3.0</ele><time>2026-04-12T06:22:38.569Z</time></trkpt><trkpt lat="45.10048" lon="11.6046433"><ele>3.0</ele><time>2026-04-12T06:22:39.565Z</time></trkpt><trkpt lat="45.1005567" lon="11.6046733"><ele>3.0</ele><time>2026-04-12T06:22:40.569Z</time></trkpt><trkpt lat="45.1006333" lon="11.6046983"><ele>3.0</ele><time>2026-04-12T06:22:41.542Z</time></trkpt><trkpt lat="45.10071" lon="11.6047233"><ele>3.0</ele><time>2026-04-12T06:22:42.568Z</time></trkpt><trkpt lat="45.1007833" lon="11.6047483"><ele>3.0</ele><time>2026-04-12T06:22:43.561Z</time></trkpt><trkpt lat="45.1008567" lon="11.6047733"><ele>3.0</ele><time>2026-04-12T06:22:44.568Z</time></trkpt><trkpt lat="45.1009283" lon="11.6048"><ele>3.0</ele><time>2026-04-12T06:22:45.566Z</time></trkpt><trkpt lat="45.101005" lon="11.604825"><ele>3.0</ele><time>2026-04-12T06:22:46.574Z</time></trkpt><trkpt lat="45.1010783" lon="11.6048467"><ele>3.0</ele><time>2026-04-12T06:22:47.571Z</time></trkpt><trkpt lat="45.1011533" lon="11.60487"><ele>3.0</ele><time>2026-04-12T06:22:48.556Z</time></trkpt><trkpt lat="45.1012283" lon="11.6048933"><ele>3.0</ele><time>2026-04-12T06:22:49.556Z</time></trkpt><trkpt lat="45.101305" lon="11.6049183"><ele>3.0</ele><time>2026-04-12T06:22:50.572Z</time></trkpt><trkpt lat="45.10138" lon="11.60494"><ele>3.0</ele><time>2026-04-12T06:22:51.566Z</time></trkpt><trkpt lat="45.1014567" lon="11.6049617"><ele>3.2</ele><time>2026-04-12T06:22:52.655Z</time></trkpt><trkpt lat="45.1016117" lon="11.6050133"><ele>3.4</ele><time>2026-04-12T06:22:54.566Z</time></trkpt><trkpt lat="45.1016883" lon="11.6050417"><ele>3.6000000000000005</ele><time>2026-04-12T06:22:55.575Z</time></trkpt><trkpt lat="45.1017667" lon="11.6050733"><ele>3.8000000000000003</ele><time>2026-04-12T06:22:56.546Z</time></trkpt><trkpt lat="45.1018417" lon="11.6051133"><ele>4.0</ele><time>2026-04-12T06:22:57.573Z</time></trkpt><trkpt lat="45.101915" lon="11.6051583"><ele>3.9999999999999996</ele><time>2026-04-12T06:22:58.561Z</time></trkpt><trkpt lat="45.1019817" lon="11.60521"><ele>4.0</ele><time>2026-04-12T06:22:59.565Z</time></trkpt><trkpt lat="45.102045" lon="11.6052633"><ele>4.0</ele><time>2026-04-12T06:23:00.567Z</time></trkpt><trkpt lat="45.1021083" lon="11.6053233"><ele>4.0</ele><time>2026-04-12T06:23:01.57Z</time></trkpt><trkpt lat="45.10217" lon="11.605385"><ele>3.9999999999999996</ele><time>2026-04-12T06:23:02.568Z</time></trkpt><trkpt lat="45.1022333" lon="11.60545"><ele>4.0</ele><time>2026-04-12T06:23:03.562Z</time></trkpt><trkpt lat="45.1022933" lon="11.605515"><ele>4.0</ele><time>2026-04-12T06:23:04.569Z</time></trkpt><trkpt lat="45.102345" lon="11.6055867"><ele>3.9999999999999996</ele><time>2026-04-12T06:23:05.567Z</time></trkpt><trkpt lat="45.1023967" lon="11.6056583"><ele>4.0</ele><time>2026-04-12T06:23:06.567Z</time></trkpt><trkpt lat="45.1024433" lon="11.6057333"><ele>4.0</ele><time>2026-04-12T06:23:07.557Z</time></trkpt><trkpt lat="45.1024833" lon="11.6058083"><ele>3.9999999999999996</ele><time>2026-04-12T06:23:08.566Z</time></trkpt><trkpt lat="45.1025217" lon="11.605885"><ele>4.0</ele><time>2026-04-12T06:23:09.558Z</time></trkpt><trkpt lat="45.1025567" lon="11.6059683"><ele>4.0</ele><time>2026-04-12T06:23:10.574Z</time></trkpt><trkpt lat="45.10259" lon="11.6060567"><ele>4.0</ele><time>2026-04-12T06:23:11.565Z</time></trkpt><trkpt lat="45.1026233" lon="11.60615"><ele>3.9999999999999996</ele><time>2026-04-12T06:23:12.557Z</time></trkpt><trkpt lat="45.102655" lon="11.6062433"><ele>4.0</ele><time>2026-04-12T06:23:13.565Z</time></trkpt><trkpt lat="45.1026833" lon="11.6063367"><ele>4.0</ele><time>2026-04-12T06:23:14.569Z</time></trkpt><trkpt lat="45.10271" lon="11.6064317"><ele>3.9999999999999996</ele><time>2026-04-12T06:23:15.548Z</time></trkpt><trkpt lat="45.1027367" lon="11.6065267"><ele>4.0</ele><time>2026-04-12T06:23:16.556Z</time></trkpt><trkpt lat="45.102765" lon="11.60662"><ele>4.0</ele><time>2026-04-12T06:23:17.566Z</time></trkpt><trkpt lat="45.10279" lon="11.6067133"><ele>4.0</ele><time>2026-04-12T06:23:18.562Z</time></trkpt><trkpt lat="45.102815" lon="11.60681"><ele>3.9999999999999996</ele><time>2026-04-12T06:23:19.556Z</time></trkpt><trkpt lat="45.1028333" lon="11.6069017"><ele>4.0</ele><time>2026-04-12T06:23:20.565Z</time></trkpt><trkpt lat="45.1028583" lon="11.606995"><ele>4.0</ele><time>2026-04-12T06:23:21.562Z</time></trkpt><trkpt lat="45.1028783" lon="11.6070867"><ele>3.9999999999999996</ele><time>2026-04-12T06:23:22.571Z</time></trkpt><trkpt lat="45.1028983" lon="11.6071817"><ele>4.0</ele><time>2026-04-12T06:23:23.552Z</time></trkpt><trkpt lat="45.1029133" lon="11.6072817"><ele>4.0</ele><time>2026-04-12T06:23:24.556Z</time></trkpt><trkpt lat="45.1029333" lon="11.6073817"><ele>4.0</ele><time>2026-04-12T06:23:25.566Z</time></trkpt><trkpt lat="45.1029533" lon="11.6074783"><ele>3.9999999999999996</ele><time>2026-04-12T06:23:26.551Z</time></trkpt><trkpt lat="45.10298" lon="11.607575"><ele>4.0</ele><time>2026-04-12T06:23:27.565Z</time></trkpt><trkpt lat="45.103005" lon="11.60767"><ele>4.0</ele><time>2026-04-12T06:23:28.555Z</time></trkpt><trkpt lat="45.10303" lon="11.6077667"><ele>3.9999999999999996</ele><time>2026-04-12T06:23:29.559Z</time></trkpt><trkpt lat="45.1030517" lon="11.607855"><ele>4.0</ele><time>2026-04-12T06:23:30.565Z</time></trkpt><trkpt lat="45.103075" lon="11.6079483"><ele>4.0</ele><time>2026-04-12T06:23:31.565Z</time></trkpt><trkpt lat="45.1030967" lon="11.6080433"><ele>3.8571428571428568</ele><time>2026-04-12T06:23:32.567Z</time></trkpt><trkpt lat="45.1031167" lon="11.6081383"><ele>3.714285714285714</ele><time>2026-04-12T06:23:33.565Z</time></trkpt><trkpt lat="45.1031417" lon="11.6082333"><ele>3.571428571428571</ele><time>2026-04-12T06:23:34.57Z</time></trkpt><trkpt lat="45.103165" lon="11.6083283"><ele>3.4285714285714284</ele><time>2026-04-12T06:23:35.57Z</time></trkpt><trkpt lat="45.10319" lon="11.6084233"><ele>3.2857142857142856</ele><time>2026-04-12T06:23:36.57Z</time></trkpt><trkpt lat="45.1032133" lon="11.6085217"><ele>3.1428571428571423</ele><time>2026-04-12T06:23:37.568Z</time></trkpt><trkpt lat="45.1032383" lon="11.60862"><ele>3.0</ele><time>2026-04-12T06:23:38.562Z</time></trkpt><trkpt lat="45.1032617" lon="11.608715"><ele>2.8571428571428568</ele><time>2026-04-12T06:23:39.567Z</time></trkpt><trkpt lat="45.1032867" lon="11.6088117"><ele>2.7142857142857144</ele><time>2026-04-12T06:23:40.562Z</time></trkpt><trkpt lat="45.1033117" lon="11.6089083"><ele>2.571428571428571</ele><time>2026-04-12T06:23:41.566Z</time></trkpt><trkpt lat="45.1033367" lon="11.609005"><ele>2.4285714285714284</ele><time>2026-04-12T06:23:42.569Z</time></trkpt><trkpt lat="45.10336" lon="11.6091033"><ele>2.2857142857142856</ele><time>2026-04-12T06:23:43.57Z</time></trkpt><trkpt lat="45.1033833" lon="11.6092"><ele>2.142857142857143</ele><time>2026-04-12T06:23:44.571Z</time></trkpt><trkpt lat="45.1034067" lon="11.609295"><ele>2.0</ele><time>2026-04-12T06:23:45.573Z</time></trkpt><trkpt lat="45.1034283" lon="11.60939"><ele>2.0</ele><time>2026-04-12T06:23:46.572Z</time></trkpt><trkpt lat="45.1034517" lon="11.6094867"><ele>1.9999999999999998</ele><time>2026-04-12T06:23:47.565Z</time></trkpt><trkpt lat="45.103475" lon="11.6095833"><ele>2.0</ele><time>2026-04-12T06:23:48.565Z</time></trkpt><trkpt lat="45.1034983" lon="11.6096783"><ele>2.0</ele><time>2026-04-12T06:23:49.547Z</time></trkpt><trkpt lat="45.1035217" lon="11.6097717"><ele>1.9999999999999998</ele><time>2026-04-12T06:23:50.57Z</time></trkpt><trkpt lat="45.103545" lon="11.6098683"><ele>2.0</ele><time>2026-04-12T06:23:51.572Z</time></trkpt><trkpt lat="45.1035667" lon="11.6099617"><ele>2.0</ele><time>2026-04-12T06:23:52.559Z</time></trkpt><trkpt lat="45.1035917" lon="11.610055"><ele>2.142857142857143</ele><time>2026-04-12T06:23:53.567Z</time></trkpt><trkpt lat="45.1036133" lon="11.61015"><ele>2.2857142857142856</ele><time>2026-04-12T06:23:54.567Z</time></trkpt><trkpt lat="45.103635" lon="11.610245"><ele>2.4285714285714284</ele><time>2026-04-12T06:23:55.564Z</time></trkpt><trkpt lat="45.1036583" lon="11.61034"><ele>2.571428571428571</ele><time>2026-04-12T06:23:56.568Z</time></trkpt><trkpt lat="45.10368" lon="11.6104333"><ele>2.7142857142857144</ele><time>2026-04-12T06:23:57.568Z</time></trkpt><trkpt lat="45.1037" lon="11.6105283"><ele>2.8571428571428568</ele><time>2026-04-12T06:23:58.568Z</time></trkpt><trkpt lat="45.10372" lon="11.6106217"><ele>3.0</ele><time>2026-04-12T06:23:59.562Z</time></trkpt><trkpt lat="45.10374" lon="11.6107167"><ele>2.9999999999999996</ele><time>2026-04-12T06:24:00.568Z</time></trkpt><trkpt lat="45.1037617" lon="11.61081"><ele>3.0</ele><time>2026-04-12T06:24:01.569Z</time></trkpt><trkpt lat="45.1037817" lon="11.6109033"><ele>3.0</ele><time>2026-04-12T06:24:02.572Z</time></trkpt><trkpt lat="45.1038017" lon="11.6109983"><ele>3.0</ele><time>2026-04-12T06:24:03.571Z</time></trkpt><trkpt lat="45.1038233" lon="11.6110967"><ele>3.0</ele><time>2026-04-12T06:24:04.573Z</time></trkpt><trkpt lat="45.103845" lon="11.61119"><ele>2.9999999999999996</ele><time>2026-04-12T06:24:05.57Z</time></trkpt><trkpt lat="45.1038667" lon="11.6112817"><ele>3.0</ele><time>2026-04-12T06:24:06.568Z</time></trkpt><trkpt lat="45.10389" lon="11.611375"><ele>2.8571428571428568</ele><time>2026-04-12T06:24:07.565Z</time></trkpt><trkpt lat="45.103915" lon="11.6114683"><ele>2.7142857142857144</ele><time>2026-04-12T06:24:08.566Z</time></trkpt><trkpt lat="45.1039367" lon="11.61156"><ele>2.571428571428571</ele><time>2026-04-12T06:24:09.562Z</time></trkpt><trkpt lat="45.10396" lon="11.6116517"><ele>2.4285714285714284</ele><time>2026-04-12T06:24:10.557Z</time></trkpt><trkpt lat="45.103985" lon="11.6117433"><ele>2.2857142857142856</ele><time>2026-04-12T06:24:11.568Z</time></trkpt><trkpt lat="45.1040083" lon="11.6118367"><ele>2.142857142857143</ele><time>2026-04-12T06:24:12.565Z</time></trkpt><trkpt lat="45.1040333" lon="11.6119267"><ele>2.0</ele><time>2026-04-12T06:24:13.562Z</time></trkpt><trkpt lat="45.1040567" lon="11.612015"><ele>2.2857142857142856</ele><time>2026-04-12T06:24:14.572Z</time></trkpt><trkpt lat="45.1040767" lon="11.612105"><ele>2.571428571428571</ele><time>2026-04-12T06:24:15.545Z</time></trkpt><trkpt lat="45.1041" lon="11.6121933"><ele>2.8571428571428568</ele><time>2026-04-12T06:24:16.559Z</time></trkpt><trkpt lat="45.1041217" lon="11.6122867"><ele>3.142857142857143</ele><time>2026-04-12T06:24:17.569Z</time></trkpt><trkpt lat="45.1041467" lon="11.6123783"><ele>3.428571428571428</ele><time>2026-04-12T06:24:18.56Z</time></trkpt><trkpt lat="45.1041717" lon="11.6124733"><ele>3.714285714285714</ele><time>2026-04-12T06:24:19.559Z</time></trkpt><trkpt lat="45.1041933" lon="11.61257"><ele>4.0</ele><time>2026-04-12T06:24:20.564Z</time></trkpt><trkpt lat="45.1042167" lon="11.612665"><ele>4.0</ele><time>2026-04-12T06:24:21.567Z</time></trkpt><trkpt lat="45.1042383" lon="11.61276"><ele>3.9999999999999996</ele><time>2026-04-12T06:24:22.57Z</time></trkpt><trkpt lat="45.1042617" lon="11.612855"><ele>4.0</ele><time>2026-04-12T06:24:23.56Z</time></trkpt><trkpt lat="45.104285" lon="11.6129483"><ele>4.0</ele><time>2026-04-12T06:24:24.568Z</time></trkpt><trkpt lat="45.1043083" lon="11.6130417"><ele>3.9999999999999996</ele><time>2026-04-12T06:24:25.568Z</time></trkpt><trkpt lat="45.1043333" lon="11.6131317"><ele>4.0</ele><time>2026-04-12T06:24:26.648Z</time></trkpt><trkpt lat="45.1043583" lon="11.6132233"><ele>4.0</ele><time>2026-04-12T06:24:27.568Z</time></trkpt><trkpt lat="45.1043833" lon="11.61331"><ele>4.142857142857142</ele><time>2026-04-12T06:24:28.562Z</time></trkpt><trkpt lat="45.1044083" lon="11.6133967"><ele>4.285714285714286</ele><time>2026-04-12T06:24:29.559Z</time></trkpt><trkpt lat="45.104435" lon="11.6134867"><ele>4.428571428571429</ele><time>2026-04-12T06:24:30.562Z</time></trkpt><trkpt lat="45.1044617" lon="11.613575"><ele>4.571428571428571</ele><time>2026-04-12T06:24:31.57Z</time></trkpt><trkpt lat="45.1044933" lon="11.613665"><ele>4.714285714285714</ele><time>2026-04-12T06:24:32.565Z</time></trkpt><trkpt lat="45.1045283" lon="11.6137533"><ele>4.857142857142857</ele><time>2026-04-12T06:24:33.564Z</time></trkpt><trkpt lat="45.1045667" lon="11.6138383"><ele>5.0</ele><time>2026-04-12T06:24:34.568Z</time></trkpt><trkpt lat="45.1046083" lon="11.6139183"><ele>5.0</ele><time>2026-04-12T06:24:35.557Z</time></trkpt><trkpt lat="45.10465" lon="11.6139883"><ele>5.0</ele><time>2026-04-12T06:24:36.571Z</time></trkpt><trkpt lat="45.1046967" lon="11.6140617"><ele>5.0</ele><time>2026-04-12T06:24:37.56Z</time></trkpt><trkpt lat="45.104745" lon="11.6141317"><ele>5.0</ele><time>2026-04-12T06:24:38.554Z</time></trkpt><trkpt lat="45.1047933" lon="11.6142"><ele>5.0</ele><time>2026-04-12T06:24:39.568Z</time></trkpt><trkpt lat="45.1048433" lon="11.6142633"><ele>5.0</ele><time>2026-04-12T06:24:40.571Z</time></trkpt><trkpt lat="45.1048967" lon="11.6143217"><ele>5.0</ele><time>2026-04-12T06:24:41.561Z</time></trkpt><trkpt lat="45.104955" lon="11.61438"><ele>4.857142857142857</ele><time>2026-04-12T06:24:42.562Z</time></trkpt><trkpt lat="45.105015" lon="11.6144317"><ele>4.714285714285714</ele><time>2026-04-12T06:24:43.57Z</time></trkpt><trkpt lat="45.1050767" lon="11.6144783"><ele>4.571428571428571</ele><time>2026-04-12T06:24:44.572Z</time></trkpt><trkpt lat="45.1051417" lon="11.6145233"><ele>4.428571428571429</ele><time>2026-04-12T06:24:45.571Z</time></trkpt><trkpt lat="45.1052033" lon="11.6145683"><ele>4.285714285714286</ele><time>2026-04-12T06:24:46.555Z</time></trkpt><trkpt lat="45.1052667" lon="11.6146067"><ele>4.142857142857142</ele><time>2026-04-12T06:24:47.572Z</time></trkpt><trkpt lat="45.10533" lon="11.61464"><ele>4.0</ele><time>2026-04-12T06:24:48.553Z</time></trkpt><trkpt lat="45.1053917" lon="11.6146717"><ele>4.0</ele><time>2026-04-12T06:24:49.562Z</time></trkpt><trkpt lat="45.10546" lon="11.6147017"><ele>3.9999999999999996</ele><time>2026-04-12T06:24:50.566Z</time></trkpt><trkpt lat="45.1055267" lon="11.61473"><ele>4.0</ele><time>2026-04-12T06:24:51.559Z</time></trkpt><trkpt lat="45.1055933" lon="11.614755"><ele>4.0</ele><time>2026-04-12T06:24:52.565Z</time></trkpt><trkpt lat="45.1056583" lon="11.6147783"><ele>3.9999999999999996</ele><time>2026-04-12T06:24:53.557Z</time></trkpt><trkpt lat="45.105725" lon="11.6147967"><ele>4.0</ele><time>2026-04-12T06:24:54.559Z</time></trkpt><trkpt lat="45.105795" lon="11.6148167"><ele>4.0</ele><time>2026-04-12T06:24:55.568Z</time></trkpt><trkpt lat="45.1058667" lon="11.6148383"><ele>4.142857142857142</ele><time>2026-04-12T06:24:56.571Z</time></trkpt><trkpt lat="45.10594" lon="11.6148583"><ele>4.285714285714286</ele><time>2026-04-12T06:24:57.567Z</time></trkpt><trkpt lat="45.1060117" lon="11.6148783"><ele>4.428571428571429</ele><time>2026-04-12T06:24:58.555Z</time></trkpt><trkpt lat="45.10608" lon="11.6148983"><ele>4.571428571428571</ele><time>2026-04-12T06:24:59.57Z</time></trkpt><trkpt lat="45.1061467" lon="11.6149167"><ele>4.714285714285714</ele><time>2026-04-12T06:25:00.565Z</time></trkpt><trkpt lat="45.1062117" lon="11.6149383"><ele>4.857142857142857</ele><time>2026-04-12T06:25:01.566Z</time></trkpt><trkpt lat="45.1062767" lon="11.6149567"><ele>5.0</ele><time>2026-04-12T06:25:02.564Z</time></trkpt><trkpt lat="45.1063417" lon="11.6149767"><ele>5.0</ele><time>2026-04-12T06:25:03.56Z</time></trkpt><trkpt lat="45.1064067" lon="11.6149967"><ele>5.0</ele><time>2026-04-12T06:25:04.56Z</time></trkpt><trkpt lat="45.1064733" lon="11.6150167"><ele>5.0</ele><time>2026-04-12T06:25:05.566Z</time></trkpt><trkpt lat="45.10654" lon="11.6150383"><ele>5.0</ele><time>2026-04-12T06:25:06.568Z</time></trkpt><trkpt lat="45.1066067" lon="11.615055"><ele>5.0</ele><time>2026-04-12T06:25:07.566Z</time></trkpt><trkpt lat="45.1066733" lon="11.6150733"><ele>5.0</ele><time>2026-04-12T06:25:08.56Z</time></trkpt><trkpt lat="45.10674" lon="11.6150933"><ele>5.0</ele><time>2026-04-12T06:25:09.569Z</time></trkpt><trkpt lat="45.1068033" lon="11.6151083"><ele>5.0</ele><time>2026-04-12T06:25:10.568Z</time></trkpt><trkpt lat="45.106865" lon="11.6151267"><ele>5.0</ele><time>2026-04-12T06:25:11.563Z</time></trkpt><trkpt lat="45.1069833" lon="11.6151617"><ele>5.0</ele><time>2026-04-12T06:25:13.55Z</time></trkpt><trkpt lat="45.1071" lon="11.6151883"><ele>5.0</ele><time>2026-04-12T06:25:15.567Z</time></trkpt><trkpt lat="45.1072083" lon="11.61522"><ele>5.0</ele><time>2026-04-12T06:25:17.57Z</time></trkpt><trkpt lat="45.1073133" lon="11.6152517"><ele>4.8</ele><time>2026-04-12T06:25:19.557Z</time></trkpt><trkpt lat="45.1074167" lon="11.6152817"><ele>4.6</ele><time>2026-04-12T06:25:21.572Z</time></trkpt><trkpt lat="45.107525" lon="11.6153133"><ele>4.4</ele><time>2026-04-12T06:25:23.56Z</time></trkpt><trkpt lat="45.1076333" lon="11.615345"><ele>4.2</ele><time>2026-04-12T06:25:25.568Z</time></trkpt><trkpt lat="45.1077333" lon="11.6153767"><ele>4.0</ele><time>2026-04-12T06:25:27.565Z</time></trkpt><trkpt lat="45.1078333" lon="11.6154067"><ele>4.0</ele><time>2026-04-12T06:25:29.568Z</time></trkpt><trkpt lat="45.1079367" lon="11.6154533"><ele>4.0</ele><time>2026-04-12T06:25:31.573Z</time></trkpt><trkpt lat="45.108025" lon="11.6155333"><ele>4.0</ele><time>2026-04-12T06:25:33.574Z</time></trkpt><trkpt lat="45.108105" lon="11.61564"><ele>4.0</ele><time>2026-04-12T06:25:35.566Z</time></trkpt><trkpt lat="45.1081633" lon="11.615765"><ele>4.0</ele><time>2026-04-12T06:25:37.572Z</time></trkpt><trkpt lat="45.10819" lon="11.6158967"><ele>4.0</ele><time>2026-04-12T06:25:39.564Z</time></trkpt><trkpt lat="45.1082" lon="11.61604"><ele>4.0</ele><time>2026-04-12T06:25:41.536Z</time></trkpt><trkpt lat="45.1082133" lon="11.6161867"><ele>4.0</ele><time>2026-04-12T06:25:43.563Z</time></trkpt><trkpt lat="45.1082217" lon="11.61633"><ele>4.0</ele><time>2026-04-12T06:25:45.569Z</time></trkpt><trkpt lat="45.1082317" lon="11.616475"><ele>4.0</ele><time>2026-04-12T06:25:47.577Z</time></trkpt><trkpt lat="45.1082417" lon="11.6166183"><ele>5.4</ele><time>2026-04-12T06:25:49.543Z</time></trkpt><trkpt lat="45.108255" lon="11.6167533"><ele>6.800000000000001</ele><time>2026-04-12T06:25:51.56Z</time></trkpt><trkpt lat="45.108265" lon="11.6168933"><ele>8.200000000000001</ele><time>2026-04-12T06:25:53.565Z</time></trkpt><trkpt lat="45.1082733" lon="11.61703"><ele>9.600000000000001</ele><time>2026-04-12T06:25:55.561Z</time></trkpt><trkpt lat="45.1082833" lon="11.6171633"><ele>11.0</ele><time>2026-04-12T06:25:57.574Z</time></trkpt><trkpt lat="45.10829" lon="11.617295"><ele>10.833333333333332</ele><time>2026-04-12T06:25:59.56Z</time></trkpt><trkpt lat="45.1082983" lon="11.6174333"><ele>10.666666666666666</ele><time>2026-04-12T06:26:01.574Z</time></trkpt><trkpt lat="45.1083133" lon="11.617565"><ele>10.5</ele><time>2026-04-12T06:26:03.566Z</time></trkpt><trkpt lat="45.1083217" lon="11.61769"><ele>10.333333333333334</ele><time>2026-04-12T06:26:05.571Z</time></trkpt><trkpt lat="45.1083283" lon="11.6178067"><ele>10.166666666666668</ele><time>2026-04-12T06:26:07.553Z</time></trkpt><trkpt lat="45.1083367" lon="11.6179233"><ele>10.0</ele><time>2026-04-12T06:26:09.565Z</time></trkpt><trkpt lat="45.1083433" lon="11.618035"><ele>10.0</ele><time>2026-04-12T06:26:11.548Z</time></trkpt><trkpt lat="45.1083517" lon="11.61815"><ele>10.0</ele><time>2026-04-12T06:26:13.569Z</time></trkpt><trkpt lat="45.1083617" lon="11.6182533"><ele>10.0</ele><time>2026-04-12T06:26:15.545Z</time></trkpt><trkpt lat="45.1083717" lon="11.6183417"><ele>10.0</ele><time>2026-04-12T06:26:17.566Z</time></trkpt><trkpt lat="45.1083917" lon="11.61845"><ele>10.0</ele><time>2026-04-12T06:26:21.577Z</time></trkpt><trkpt lat="45.1084867" lon="11.6185117"><ele>10.0</ele><time>2026-04-12T06:28:16.558Z</time></trkpt><trkpt lat="45.1085617" lon="11.618525"><ele>10.0</ele><time>2026-04-12T06:28:19.568Z</time></trkpt><trkpt lat="45.10864" lon="11.618525"><ele>10.0</ele><time>2026-04-12T06:28:21.574Z</time></trkpt><trkpt lat="45.1087283" lon="11.6185233"><ele>10.0</ele><time>2026-04-12T06:28:23.547Z</time></trkpt><trkpt lat="45.1088233" lon="11.6185083"><ele>10.0</ele><time>2026-04-12T06:28:25.574Z</time></trkpt><trkpt lat="45.108925" lon="11.6184933"><ele>10.0</ele><time>2026-04-12T06:28:27.552Z</time></trkpt><trkpt lat="45.1090133" lon="11.6184867"><ele>9.2</ele><time>2026-04-12T06:28:29.571Z</time></trkpt><trkpt lat="45.1091117" lon="11.6184783"><ele>8.4</ele><time>2026-04-12T06:28:31.544Z</time></trkpt><trkpt lat="45.10921" lon="11.61847"><ele>7.6</ele><time>2026-04-12T06:28:33.547Z</time></trkpt><trkpt lat="45.1093017" lon="11.61846"><ele>6.8</ele><time>2026-04-12T06:28:35.562Z</time></trkpt><trkpt lat="45.1094" lon="11.6184517"><ele>6.0</ele><time>2026-04-12T06:28:37.564Z</time></trkpt><trkpt lat="45.109495" lon="11.6184433"><ele>6.0</ele><time>2026-04-12T06:28:39.566Z</time></trkpt><trkpt lat="45.1095817" lon="11.6184333"><ele>6.0</ele><time>2026-04-12T06:28:41.564Z</time></trkpt><trkpt lat="45.10966" lon="11.6184233"><ele>6.0</ele><time>2026-04-12T06:28:43.571Z</time></trkpt><trkpt lat="45.1097317" lon="11.6184067"><ele>6.0</ele><time>2026-04-12T06:28:45.568Z</time></trkpt><trkpt lat="45.1097967" lon="11.61834"><ele>6.0</ele><time>2026-04-12T06:28:47.57Z</time></trkpt><trkpt lat="45.1098267" lon="11.61821"><ele>6.0</ele><time>2026-04-12T06:28:49.562Z</time></trkpt><trkpt lat="45.1098283" lon="11.6180533"><ele>6.0</ele><time>2026-04-12T06:28:51.562Z</time></trkpt><trkpt lat="45.1098217" lon="11.6178967"><ele>6.0</ele><time>2026-04-12T06:28:53.568Z</time></trkpt><trkpt lat="45.109815" lon="11.6177367"><ele>6.0</ele><time>2026-04-12T06:28:55.573Z</time></trkpt><trkpt lat="45.1098117" lon="11.6175733"><ele>6.0</ele><time>2026-04-12T06:28:57.535Z</time></trkpt><trkpt lat="45.109805" lon="11.617405"><ele>6.5</ele><time>2026-04-12T06:28:59.569Z</time></trkpt><trkpt lat="45.1098" lon="11.6172283"><ele>7.0</ele><time>2026-04-12T06:29:01.57Z</time></trkpt><trkpt lat="45.1097883" lon="11.61705"><ele>7.5</ele><time>2026-04-12T06:29:03.557Z</time></trkpt><trkpt lat="45.10978" lon="11.61696"><ele>8.0</ele><time>2026-04-12T06:29:04.568Z</time></trkpt><trkpt lat="45.1097767" lon="11.6168683"><ele>8.5</ele><time>2026-04-12T06:29:05.562Z</time></trkpt><trkpt lat="45.1097783" lon="11.6167783"><ele>9.0</ele><time>2026-04-12T06:29:06.574Z</time></trkpt><trkpt lat="45.109795" lon="11.61669"><ele>9.0</ele><time>2026-04-12T06:29:07.572Z</time></trkpt><trkpt lat="45.10983" lon="11.616615"><ele>9.0</ele><time>2026-04-12T06:29:08.557Z</time></trkpt><trkpt lat="45.1099417" lon="11.6165583"><ele>9.0</ele><time>2026-04-12T06:29:10.575Z</time></trkpt><trkpt lat="45.1100083" lon="11.61658"><ele>9.0</ele><time>2026-04-12T06:29:11.659Z</time></trkpt><trkpt lat="45.110075" lon="11.6166317"><ele>9.0</ele><time>2026-04-12T06:29:12.568Z</time></trkpt><trkpt lat="45.110135" lon="11.6166917"><ele>9.0</ele><time>2026-04-12T06:29:13.577Z</time></trkpt><trkpt lat="45.1101917" lon="11.616745"><ele>8.857142857142858</ele><time>2026-04-12T06:29:14.572Z</time></trkpt><trkpt lat="45.1102517" lon="11.6167967"><ele>8.714285714285715</ele><time>2026-04-12T06:29:15.565Z</time></trkpt><trkpt lat="45.11031" lon="11.6168483"><ele>8.571428571428571</ele><time>2026-04-12T06:29:16.567Z</time></trkpt><trkpt lat="45.11037" lon="11.6169033"><ele>8.428571428571429</ele><time>2026-04-12T06:29:17.567Z</time></trkpt><trkpt lat="45.1104283" lon="11.61696"><ele>8.285714285714285</ele><time>2026-04-12T06:29:18.55Z</time></trkpt><trkpt lat="45.1104867" lon="11.6170167"><ele>8.142857142857142</ele><time>2026-04-12T06:29:19.554Z</time></trkpt><trkpt lat="45.1105467" lon="11.6170733"><ele>8.0</ele><time>2026-04-12T06:29:20.559Z</time></trkpt><trkpt lat="45.110605" lon="11.6171267"><ele>7.857142857142857</ele><time>2026-04-12T06:29:21.567Z</time></trkpt><trkpt lat="45.1106683" lon="11.617185"><ele>7.7142857142857135</ele><time>2026-04-12T06:29:22.568Z</time></trkpt><trkpt lat="45.1107317" lon="11.6172433"><ele>7.571428571428571</ele><time>2026-04-12T06:29:23.55Z</time></trkpt><trkpt lat="45.110795" lon="11.6173"><ele>7.428571428571429</ele><time>2026-04-12T06:29:24.565Z</time></trkpt><trkpt lat="45.1108583" lon="11.617355"><ele>7.285714285714286</ele><time>2026-04-12T06:29:25.562Z</time></trkpt><trkpt lat="45.11092" lon="11.6174083"><ele>7.142857142857142</ele><time>2026-04-12T06:29:26.569Z</time></trkpt><trkpt lat="45.1109817" lon="11.6174667"><ele>7.0</ele><time>2026-04-12T06:29:27.56Z</time></trkpt><trkpt lat="45.1110433" lon="11.6175217"><ele>7.0</ele><time>2026-04-12T06:29:28.565Z</time></trkpt><trkpt lat="45.1111033" lon="11.617575"><ele>7.0</ele><time>2026-04-12T06:29:29.572Z</time></trkpt><trkpt lat="45.1111633" lon="11.6176283"><ele>7.0</ele><time>2026-04-12T06:29:30.566Z</time></trkpt><trkpt lat="45.1112233" lon="11.61768"><ele>7.0</ele><time>2026-04-12T06:29:31.538Z</time></trkpt><trkpt lat="45.1112817" lon="11.6177333"><ele>7.0</ele><time>2026-04-12T06:29:32.536Z</time></trkpt><trkpt lat="45.1113433" lon="11.6177917"><ele>7.0</ele><time>2026-04-12T06:29:33.55Z</time></trkpt><trkpt lat="45.111405" lon="11.6178517"><ele>7.0</ele><time>2026-04-12T06:29:34.565Z</time></trkpt><trkpt lat="45.1114683" lon="11.6179133"><ele>7.142857142857142</ele><time>2026-04-12T06:29:35.572Z</time></trkpt><trkpt lat="45.1115283" lon="11.61797"><ele>7.285714285714286</ele><time>2026-04-12T06:29:36.533Z</time></trkpt><trkpt lat="45.1115867" lon="11.6180233"><ele>7.428571428571429</ele><time>2026-04-12T06:29:37.564Z</time></trkpt><trkpt lat="45.1116417" lon="11.618075"><ele>7.571428571428571</ele><time>2026-04-12T06:29:38.562Z</time></trkpt><trkpt lat="45.1116983" lon="11.6181317"><ele>7.7142857142857135</ele><time>2026-04-12T06:29:39.564Z</time></trkpt><trkpt lat="45.111755" lon="11.6181933"><ele>7.857142857142857</ele><time>2026-04-12T06:29:40.568Z</time></trkpt><trkpt lat="45.1118133" lon="11.6182517"><ele>8.0</ele><time>2026-04-12T06:29:41.556Z</time></trkpt><trkpt lat="45.11187" lon="11.6183083"><ele>8.0</ele><time>2026-04-12T06:29:42.566Z</time></trkpt><trkpt lat="45.1119267" lon="11.6183667"><ele>7.999999999999999</ele><time>2026-04-12T06:29:43.575Z</time></trkpt><trkpt lat="45.1119817" lon="11.618425"><ele>8.0</ele><time>2026-04-12T06:29:44.543Z</time></trkpt><trkpt lat="45.1120383" lon="11.6184867"><ele>8.0</ele><time>2026-04-12T06:29:45.559Z</time></trkpt><trkpt lat="45.112095" lon="11.6185433"><ele>7.999999999999999</ele><time>2026-04-12T06:29:46.57Z</time></trkpt><trkpt lat="45.1121533" lon="11.6185983"><ele>8.0</ele><time>2026-04-12T06:29:47.568Z</time></trkpt><trkpt lat="45.1122133" lon="11.6186533"><ele>8.0</ele><time>2026-04-12T06:29:48.563Z</time></trkpt><trkpt lat="45.1122717" lon="11.6187117"><ele>8.0</ele><time>2026-04-12T06:29:49.569Z</time></trkpt><trkpt lat="45.1123267" lon="11.6187717"><ele>7.999999999999999</ele><time>2026-04-12T06:29:50.569Z</time></trkpt><trkpt lat="45.1123817" lon="11.6188317"><ele>8.0</ele><time>2026-04-12T06:29:51.569Z</time></trkpt><trkpt lat="45.1124383" lon="11.6188933"><ele>8.0</ele><time>2026-04-12T06:29:52.565Z</time></trkpt><trkpt lat="45.1124933" lon="11.6189533"><ele>7.999999999999999</ele><time>2026-04-12T06:29:53.569Z</time></trkpt><trkpt lat="45.1125483" lon="11.6190167"><ele>8.0</ele><time>2026-04-12T06:29:54.567Z</time></trkpt><trkpt lat="45.1126067" lon="11.6190767"><ele>8.0</ele><time>2026-04-12T06:29:55.572Z</time></trkpt><trkpt lat="45.112665" lon="11.6191333"><ele>8.0</ele><time>2026-04-12T06:29:56.567Z</time></trkpt><trkpt lat="45.1127267" lon="11.6191867"><ele>7.999999999999999</ele><time>2026-04-12T06:29:57.569Z</time></trkpt><trkpt lat="45.112785" lon="11.6192433"><ele>8.0</ele><time>2026-04-12T06:29:58.539Z</time></trkpt><trkpt lat="45.11284" lon="11.6193017"><ele>8.0</ele><time>2026-04-12T06:29:59.567Z</time></trkpt><trkpt lat="45.112895" lon="11.6193617"><ele>7.999999999999999</ele><time>2026-04-12T06:30:00.569Z</time></trkpt><trkpt lat="45.1129533" lon="11.6194183"><ele>8.0</ele><time>2026-04-12T06:30:01.566Z</time></trkpt><trkpt lat="45.11301" lon="11.619475"><ele>8.0</ele><time>2026-04-12T06:30:02.565Z</time></trkpt><trkpt lat="45.1130683" lon="11.6195333"><ele>8.0</ele><time>2026-04-12T06:30:03.566Z</time></trkpt><trkpt lat="45.1131283" lon="11.6195917"><ele>7.999999999999999</ele><time>2026-04-12T06:30:04.565Z</time></trkpt><trkpt lat="45.1131883" lon="11.6196517"><ele>8.0</ele><time>2026-04-12T06:30:05.539Z</time></trkpt><trkpt lat="45.1132467" lon="11.6197083"><ele>8.0</ele><time>2026-04-12T06:30:06.552Z</time></trkpt><trkpt lat="45.113305" lon="11.6197683"><ele>7.999999999999999</ele><time>2026-04-12T06:30:07.568Z</time></trkpt><trkpt lat="45.1133633" lon="11.619825"><ele>8.0</ele><time>2026-04-12T06:30:08.567Z</time></trkpt><trkpt lat="45.1134233" lon="11.619885"><ele>8.0</ele><time>2026-04-12T06:30:09.567Z</time></trkpt><trkpt lat="45.113485" lon="11.6199433"><ele>8.0</ele><time>2026-04-12T06:30:10.571Z</time></trkpt><trkpt lat="45.1135433" lon="11.6200033"><ele>7.999999999999999</ele><time>2026-04-12T06:30:11.568Z</time></trkpt><trkpt lat="45.1136067" lon="11.6200633"><ele>8.0</ele><time>2026-04-12T06:30:12.567Z</time></trkpt><trkpt lat="45.1136683" lon="11.6201233"><ele>8.0</ele><time>2026-04-12T06:30:13.564Z</time></trkpt><trkpt lat="45.1137283" lon="11.6201817"><ele>7.999999999999999</ele><time>2026-04-12T06:30:14.566Z</time></trkpt><trkpt lat="45.1137883" lon="11.6202417"><ele>8.0</ele><time>2026-04-12T06:30:15.558Z</time></trkpt><trkpt lat="45.1138483" lon="11.6203017"><ele>8.0</ele><time>2026-04-12T06:30:16.568Z</time></trkpt><trkpt lat="45.11391" lon="11.62036"><ele>8.0</ele><time>2026-04-12T06:30:17.566Z</time></trkpt><trkpt lat="45.1139733" lon="11.62042"><ele>7.999999999999999</ele><time>2026-04-12T06:30:18.572Z</time></trkpt><trkpt lat="45.114035" lon="11.6204717"><ele>8.0</ele><time>2026-04-12T06:30:19.569Z</time></trkpt><trkpt lat="45.1141" lon="11.6205217"><ele>8.0</ele><time>2026-04-12T06:30:20.569Z</time></trkpt><trkpt lat="45.1141683" lon="11.6205667"><ele>7.999999999999999</ele><time>2026-04-12T06:30:21.568Z</time></trkpt><trkpt lat="45.1142333" lon="11.6206067"><ele>8.0</ele><time>2026-04-12T06:30:22.568Z</time></trkpt><trkpt lat="45.1143033" lon="11.6206417"><ele>8.0</ele><time>2026-04-12T06:30:23.571Z</time></trkpt><trkpt lat="45.1143733" lon="11.6206767"><ele>7.833333333333333</ele><time>2026-04-12T06:30:24.532Z</time></trkpt><trkpt lat="45.1144467" lon="11.6207117"><ele>7.666666666666666</ele><time>2026-04-12T06:30:25.558Z</time></trkpt><trkpt lat="45.11452" lon="11.620745"><ele>7.5</ele><time>2026-04-12T06:30:26.571Z</time></trkpt><trkpt lat="45.1145933" lon="11.6207733"><ele>7.333333333333334</ele><time>2026-04-12T06:30:27.564Z</time></trkpt><trkpt lat="45.114665" lon="11.620805"><ele>7.166666666666667</ele><time>2026-04-12T06:30:28.563Z</time></trkpt><trkpt lat="45.1147367" lon="11.6208383"><ele>7.0</ele><time>2026-04-12T06:30:29.573Z</time></trkpt><trkpt lat="45.1148083" lon="11.6208683"><ele>7.0</ele><time>2026-04-12T06:30:30.571Z</time></trkpt><trkpt lat="45.1148783" lon="11.620895"><ele>7.0</ele><time>2026-04-12T06:30:31.564Z</time></trkpt><trkpt lat="45.1149467" lon="11.6209217"><ele>7.0</ele><time>2026-04-12T06:30:32.571Z</time></trkpt><trkpt lat="45.1150167" lon="11.62095"><ele>7.0</ele><time>2026-04-12T06:30:33.568Z</time></trkpt><trkpt lat="45.1150917" lon="11.6209767"><ele>7.0</ele><time>2026-04-12T06:30:34.566Z</time></trkpt><trkpt lat="45.1151617" lon="11.6210067"><ele>7.0</ele><time>2026-04-12T06:30:35.567Z</time></trkpt><trkpt lat="45.1152333" lon="11.621035"><ele>7.0</ele><time>2026-04-12T06:30:36.551Z</time></trkpt><trkpt lat="45.115305" lon="11.6210617"><ele>7.0</ele><time>2026-04-12T06:30:37.561Z</time></trkpt><trkpt lat="45.115375" lon="11.62109"><ele>7.0</ele><time>2026-04-12T06:30:38.573Z</time></trkpt><trkpt lat="45.1154467" lon="11.6211167"><ele>7.0</ele><time>2026-04-12T06:30:39.565Z</time></trkpt><trkpt lat="45.1155167" lon="11.6211433"><ele>7.0</ele><time>2026-04-12T06:30:40.566Z</time></trkpt><trkpt lat="45.1155917" lon="11.62117"><ele>7.0</ele><time>2026-04-12T06:30:41.567Z</time></trkpt><trkpt lat="45.1156617" lon="11.6211933"><ele>7.0</ele><time>2026-04-12T06:30:42.563Z</time></trkpt><trkpt lat="45.1157333" lon="11.6212167"><ele>7.0</ele><time>2026-04-12T06:30:43.559Z</time></trkpt><trkpt lat="45.1158067" lon="11.6212433"><ele>6.666666666666667</ele><time>2026-04-12T06:30:44.57Z</time></trkpt><trkpt lat="45.1158783" lon="11.62127"><ele>6.333333333333334</ele><time>2026-04-12T06:30:45.555Z</time></trkpt><trkpt lat="45.1159517" lon="11.6212967"><ele>6.0</ele><time>2026-04-12T06:30:46.568Z</time></trkpt><trkpt lat="45.1160267" lon="11.621325"><ele>5.666666666666667</ele><time>2026-04-12T06:30:47.57Z</time></trkpt><trkpt lat="45.1160983" lon="11.6213517"><ele>5.333333333333334</ele><time>2026-04-12T06:30:48.561Z</time></trkpt><trkpt lat="45.1161733" lon="11.62138"><ele>5.0</ele><time>2026-04-12T06:30:49.563Z</time></trkpt><trkpt lat="45.116245" lon="11.62141"><ele>5.0</ele><time>2026-04-12T06:30:50.568Z</time></trkpt><trkpt lat="45.1163183" lon="11.6214367"><ele>5.0</ele><time>2026-04-12T06:30:51.568Z</time></trkpt><trkpt lat="45.1163917" lon="11.6214617"><ele>5.0</ele><time>2026-04-12T06:30:52.569Z</time></trkpt><trkpt lat="45.1164667" lon="11.621485"><ele>5.0</ele><time>2026-04-12T06:30:53.569Z</time></trkpt><trkpt lat="45.11654" lon="11.62151"><ele>5.0</ele><time>2026-04-12T06:30:54.567Z</time></trkpt><trkpt lat="45.1166133" lon="11.6215383"><ele>5.0</ele><time>2026-04-12T06:30:55.57Z</time></trkpt><trkpt lat="45.116685" lon="11.6215633"><ele>5.0</ele><time>2026-04-12T06:30:56.556Z</time></trkpt><trkpt lat="45.1167583" lon="11.6215933"><ele>5.0</ele><time>2026-04-12T06:30:57.55Z</time></trkpt><trkpt lat="45.1168317" lon="11.6216217"><ele>5.0</ele><time>2026-04-12T06:30:58.565Z</time></trkpt><trkpt lat="45.116905" lon="11.6216483"><ele>5.0</ele><time>2026-04-12T06:30:59.549Z</time></trkpt><trkpt lat="45.1169783" lon="11.6216767"><ele>5.0</ele><time>2026-04-12T06:31:00.564Z</time></trkpt><trkpt lat="45.1170533" lon="11.6217083"><ele>5.0</ele><time>2026-04-12T06:31:01.565Z</time></trkpt><trkpt lat="45.1171283" lon="11.62174"><ele>5.0</ele><time>2026-04-12T06:31:02.564Z</time></trkpt><trkpt lat="45.1172033" lon="11.6217683"><ele>5.0</ele><time>2026-04-12T06:31:03.566Z</time></trkpt><trkpt lat="45.1172783" lon="11.6217917"><ele>5.0</ele><time>2026-04-12T06:31:04.566Z</time></trkpt><trkpt lat="45.1173533" lon="11.62182"><ele>5.0</ele><time>2026-04-12T06:31:05.566Z</time></trkpt><trkpt lat="45.1174267" lon="11.6218483"><ele>5.0</ele><time>2026-04-12T06:31:06.573Z</time></trkpt><trkpt lat="45.1174983" lon="11.6218783"><ele>5.0</ele><time>2026-04-12T06:31:07.564Z</time></trkpt><trkpt lat="45.11757" lon="11.6219067"><ele>5.0</ele><time>2026-04-12T06:31:08.548Z</time></trkpt><trkpt lat="45.11764" lon="11.6219333"><ele>5.0</ele><time>2026-04-12T06:31:09.562Z</time></trkpt><trkpt lat="45.1177117" lon="11.62196"><ele>5.0</ele><time>2026-04-12T06:31:10.569Z</time></trkpt><trkpt lat="45.1177833" lon="11.6219867"><ele>5.0</ele><time>2026-04-12T06:31:11.567Z</time></trkpt><trkpt lat="45.117855" lon="11.6220133"><ele>5.0</ele><time>2026-04-12T06:31:12.563Z</time></trkpt><trkpt lat="45.1179267" lon="11.62204"><ele>5.0</ele><time>2026-04-12T06:31:13.564Z</time></trkpt><trkpt lat="45.1179967" lon="11.622065"><ele>5.0</ele><time>2026-04-12T06:31:14.571Z</time></trkpt><trkpt lat="45.1180683" lon="11.62209"><ele>4.857142857142857</ele><time>2026-04-12T06:31:15.572Z</time></trkpt><trkpt lat="45.11814" lon="11.62212"><ele>4.714285714285714</ele><time>2026-04-12T06:31:16.569Z</time></trkpt><trkpt lat="45.1182117" lon="11.62215"><ele>4.571428571428571</ele><time>2026-04-12T06:31:17.57Z</time></trkpt><trkpt lat="45.118285" lon="11.6221767"><ele>4.428571428571429</ele><time>2026-04-12T06:31:18.565Z</time></trkpt><trkpt lat="45.1183567" lon="11.6222017"><ele>4.285714285714286</ele><time>2026-04-12T06:31:19.571Z</time></trkpt><trkpt lat="45.1184267" lon="11.6222333"><ele>4.142857142857142</ele><time>2026-04-12T06:31:20.57Z</time></trkpt><trkpt lat="45.1184983" lon="11.6222683"><ele>4.0</ele><time>2026-04-12T06:31:21.571Z</time></trkpt><trkpt lat="45.1185683" lon="11.6223017"><ele>4.0</ele><time>2026-04-12T06:31:22.561Z</time></trkpt><trkpt lat="45.11864" lon="11.62233"><ele>3.9999999999999996</ele><time>2026-04-12T06:31:23.573Z</time></trkpt><trkpt lat="45.1187117" lon="11.6223617"><ele>4.0</ele><time>2026-04-12T06:31:24.57Z</time></trkpt><trkpt lat="45.1187817" lon="11.622395"><ele>4.0</ele><time>2026-04-12T06:31:25.572Z</time></trkpt><trkpt lat="45.1188517" lon="11.62243"><ele>3.9999999999999996</ele><time>2026-04-12T06:31:26.57Z</time></trkpt><trkpt lat="45.11892" lon="11.6224617"><ele>4.0</ele><time>2026-04-12T06:31:27.571Z</time></trkpt><trkpt lat="45.118985" lon="11.6224983"><ele>4.0</ele><time>2026-04-12T06:31:28.548Z</time></trkpt><trkpt lat="45.1190533" lon="11.6225383"><ele>4.142857142857142</ele><time>2026-04-12T06:31:29.566Z</time></trkpt><trkpt lat="45.1191167" lon="11.62258"><ele>4.285714285714286</ele><time>2026-04-12T06:31:30.569Z</time></trkpt><trkpt lat="45.1191833" lon="11.6226233"><ele>4.428571428571429</ele><time>2026-04-12T06:31:31.571Z</time></trkpt><trkpt lat="45.1192467" lon="11.6226667"><ele>4.571428571428571</ele><time>2026-04-12T06:31:32.57Z</time></trkpt><trkpt lat="45.119315" lon="11.6227117"><ele>4.714285714285714</ele><time>2026-04-12T06:31:33.564Z</time></trkpt><trkpt lat="45.1193833" lon="11.622755"><ele>4.857142857142857</ele><time>2026-04-12T06:31:34.568Z</time></trkpt><trkpt lat="45.1194517" lon="11.6227983"><ele>5.0</ele><time>2026-04-12T06:31:35.568Z</time></trkpt><trkpt lat="45.1195183" lon="11.6228417"><ele>5.0</ele><time>2026-04-12T06:31:36.566Z</time></trkpt><trkpt lat="45.1195833" lon="11.6228867"><ele>5.0</ele><time>2026-04-12T06:31:37.573Z</time></trkpt><trkpt lat="45.1196483" lon="11.6229333"><ele>5.0</ele><time>2026-04-12T06:31:38.569Z</time></trkpt><trkpt lat="45.11971" lon="11.6229783"><ele>5.0</ele><time>2026-04-12T06:31:39.564Z</time></trkpt><trkpt lat="45.119775" lon="11.623025"><ele>5.0</ele><time>2026-04-12T06:31:40.57Z</time></trkpt><trkpt lat="45.11984" lon="11.62307"><ele>5.0</ele><time>2026-04-12T06:31:41.572Z</time></trkpt><trkpt lat="45.119905" lon="11.6231133"><ele>5.0</ele><time>2026-04-12T06:31:42.57Z</time></trkpt><trkpt lat="45.11997" lon="11.6231567"><ele>5.142857142857142</ele><time>2026-04-12T06:31:43.567Z</time></trkpt><trkpt lat="45.120035" lon="11.6231983"><ele>5.285714285714286</ele><time>2026-04-12T06:31:44.569Z</time></trkpt><trkpt lat="45.1200967" lon="11.6232383"><ele>5.428571428571429</ele><time>2026-04-12T06:31:45.568Z</time></trkpt><trkpt lat="45.12016" lon="11.6232783"><ele>5.571428571428571</ele><time>2026-04-12T06:31:46.569Z</time></trkpt><trkpt lat="45.120225" lon="11.6233183"><ele>5.714285714285714</ele><time>2026-04-12T06:31:47.549Z</time></trkpt><trkpt lat="45.1202917" lon="11.6233583"><ele>5.857142857142857</ele><time>2026-04-12T06:31:48.57Z</time></trkpt><trkpt lat="45.1203633" lon="11.623395"><ele>6.0</ele><time>2026-04-12T06:31:49.545Z</time></trkpt><trkpt lat="45.1204333" lon="11.62343"><ele>6.0</ele><time>2026-04-12T06:31:50.566Z</time></trkpt><trkpt lat="45.120505" lon="11.6234567"><ele>6.0</ele><time>2026-04-12T06:31:51.56Z</time></trkpt><trkpt lat="45.12058" lon="11.6234783"><ele>6.0</ele><time>2026-04-12T06:31:52.644Z</time></trkpt><trkpt lat="45.1206567" lon="11.6234983"><ele>6.0</ele><time>2026-04-12T06:31:53.558Z</time></trkpt><trkpt lat="45.1207333" lon="11.6235183"><ele>6.0</ele><time>2026-04-12T06:31:54.568Z</time></trkpt><trkpt lat="45.12081" lon="11.6235417"><ele>6.0</ele><time>2026-04-12T06:31:55.564Z</time></trkpt><trkpt lat="45.120885" lon="11.623565"><ele>5.999999999999999</ele><time>2026-04-12T06:31:56.57Z</time></trkpt><trkpt lat="45.12096" lon="11.623585"><ele>6.0</ele><time>2026-04-12T06:31:57.569Z</time></trkpt><trkpt lat="45.121035" lon="11.6236017"><ele>6.0</ele><time>2026-04-12T06:31:58.568Z</time></trkpt><trkpt lat="45.1211083" lon="11.62362"><ele>6.0</ele><time>2026-04-12T06:31:59.548Z</time></trkpt><trkpt lat="45.1211767" lon="11.62364"><ele>6.0</ele><time>2026-04-12T06:32:00.562Z</time></trkpt><trkpt lat="45.1212483" lon="11.6236583"><ele>5.999999999999999</ele><time>2026-04-12T06:32:01.571Z</time></trkpt><trkpt lat="45.12132" lon="11.6236783"><ele>6.0</ele><time>2026-04-12T06:32:02.571Z</time></trkpt><trkpt lat="45.12139" lon="11.6236967"><ele>5.999999999999999</ele><time>2026-04-12T06:32:03.569Z</time></trkpt><trkpt lat="45.1214617" lon="11.6237183"><ele>6.0</ele><time>2026-04-12T06:32:04.571Z</time></trkpt><trkpt lat="45.1215333" lon="11.6237383"><ele>6.0</ele><time>2026-04-12T06:32:05.565Z</time></trkpt><trkpt lat="45.1216083" lon="11.62376"><ele>6.0</ele><time>2026-04-12T06:32:06.567Z</time></trkpt><trkpt lat="45.1216817" lon="11.623775"><ele>6.0</ele><time>2026-04-12T06:32:07.569Z</time></trkpt><trkpt lat="45.121755" lon="11.6237933"><ele>5.999999999999999</ele><time>2026-04-12T06:32:08.567Z</time></trkpt><trkpt lat="45.1218233" lon="11.623815"><ele>6.0</ele><time>2026-04-12T06:32:09.57Z</time></trkpt><trkpt lat="45.1218967" lon="11.6238333"><ele>6.0</ele><time>2026-04-12T06:32:10.551Z</time></trkpt><trkpt lat="45.12197" lon="11.623855"><ele>6.0</ele><time>2026-04-12T06:32:11.564Z</time></trkpt><trkpt lat="45.1220483" lon="11.6238733"><ele>6.0</ele><time>2026-04-12T06:32:12.563Z</time></trkpt><trkpt lat="45.122125" lon="11.6238917"><ele>6.0</ele><time>2026-04-12T06:32:13.576Z</time></trkpt><trkpt lat="45.1222017" lon="11.6239117"><ele>6.0</ele><time>2026-04-12T06:32:14.575Z</time></trkpt><trkpt lat="45.122275" lon="11.6239367"><ele>6.0</ele><time>2026-04-12T06:32:15.563Z</time></trkpt><trkpt lat="45.122345" lon="11.6239567"><ele>5.857142857142857</ele><time>2026-04-12T06:32:16.549Z</time></trkpt><trkpt lat="45.122415" lon="11.6239767"><ele>5.714285714285714</ele><time>2026-04-12T06:32:17.568Z</time></trkpt><trkpt lat="45.1224867" lon="11.623995"><ele>5.571428571428571</ele><time>2026-04-12T06:32:18.571Z</time></trkpt><trkpt lat="45.1225617" lon="11.6240133"><ele>5.428571428571429</ele><time>2026-04-12T06:32:19.568Z</time></trkpt><trkpt lat="45.122635" lon="11.6240317"><ele>5.285714285714286</ele><time>2026-04-12T06:32:20.57Z</time></trkpt><trkpt lat="45.12271" lon="11.62405"><ele>5.142857142857142</ele><time>2026-04-12T06:32:21.569Z</time></trkpt><trkpt lat="45.122785" lon="11.6240683"><ele>5.0</ele><time>2026-04-12T06:32:22.569Z</time></trkpt><trkpt lat="45.1228583" lon="11.6240867"><ele>5.0</ele><time>2026-04-12T06:32:23.569Z</time></trkpt><trkpt lat="45.1229317" lon="11.624105"><ele>5.0</ele><time>2026-04-12T06:32:24.571Z</time></trkpt><trkpt lat="45.1230067" lon="11.6241233"><ele>5.0</ele><time>2026-04-12T06:32:25.567Z</time></trkpt><trkpt lat="45.1230783" lon="11.6241433"><ele>5.0</ele><time>2026-04-12T06:32:26.569Z</time></trkpt><trkpt lat="45.1231483" lon="11.6241633"><ele>5.0</ele><time>2026-04-12T06:32:27.552Z</time></trkpt><trkpt lat="45.12322" lon="11.6241833"><ele>5.0</ele><time>2026-04-12T06:32:28.561Z</time></trkpt><trkpt lat="45.1232917" lon="11.6242017"><ele>5.0</ele><time>2026-04-12T06:32:29.559Z</time></trkpt><trkpt lat="45.1233633" lon="11.62422"><ele>4.714285714285714</ele><time>2026-04-12T06:32:30.567Z</time></trkpt><trkpt lat="45.123435" lon="11.6242367"><ele>4.428571428571429</ele><time>2026-04-12T06:32:31.556Z</time></trkpt><trkpt lat="45.123505" lon="11.624255"><ele>4.142857142857142</ele><time>2026-04-12T06:32:32.568Z</time></trkpt><trkpt lat="45.123575" lon="11.6242717"><ele>3.8571428571428568</ele><time>2026-04-12T06:32:33.567Z</time></trkpt><trkpt lat="45.123645" lon="11.6242883"><ele>3.571428571428571</ele><time>2026-04-12T06:32:34.576Z</time></trkpt><trkpt lat="45.123715" lon="11.6243067"><ele>3.2857142857142856</ele><time>2026-04-12T06:32:35.575Z</time></trkpt><trkpt lat="45.123785" lon="11.624325"><ele>3.0</ele><time>2026-04-12T06:32:36.571Z</time></trkpt><trkpt lat="45.123855" lon="11.6243433"><ele>2.9999999999999996</ele><time>2026-04-12T06:32:37.566Z</time></trkpt><trkpt lat="45.1239267" lon="11.6243633"><ele>3.0</ele><time>2026-04-12T06:32:38.562Z</time></trkpt><trkpt lat="45.1239983" lon="11.6243817"><ele>3.0</ele><time>2026-04-12T06:32:39.564Z</time></trkpt><trkpt lat="45.1240683" lon="11.6244033"><ele>3.0</ele><time>2026-04-12T06:32:40.564Z</time></trkpt><trkpt lat="45.12414" lon="11.6244183"><ele>3.0</ele><time>2026-04-12T06:32:41.569Z</time></trkpt><trkpt lat="45.12421" lon="11.6244383"><ele>2.9999999999999996</ele><time>2026-04-12T06:32:42.567Z</time></trkpt><trkpt lat="45.1242817" lon="11.6244583"><ele>3.0</ele><time>2026-04-12T06:32:43.566Z</time></trkpt><trkpt lat="45.124355" lon="11.62448"><ele>3.1428571428571423</ele><time>2026-04-12T06:32:44.549Z</time></trkpt><trkpt lat="45.1244283" lon="11.6244967"><ele>3.2857142857142856</ele><time>2026-04-12T06:32:45.575Z</time></trkpt><trkpt lat="45.1245017" lon="11.624515"><ele>3.4285714285714284</ele><time>2026-04-12T06:32:46.569Z</time></trkpt><trkpt lat="45.1245733" lon="11.6245333"><ele>3.571428571428571</ele><time>2026-04-12T06:32:47.567Z</time></trkpt><trkpt lat="45.1246467" lon="11.6245533"><ele>3.714285714285714</ele><time>2026-04-12T06:32:48.568Z</time></trkpt><trkpt lat="45.1247167" lon="11.6245717"><ele>3.8571428571428568</ele><time>2026-04-12T06:32:49.567Z</time></trkpt><trkpt lat="45.1247883" lon="11.62459"><ele>4.0</ele><time>2026-04-12T06:32:50.569Z</time></trkpt><trkpt lat="45.12486" lon="11.6246083"><ele>4.0</ele><time>2026-04-12T06:32:51.569Z</time></trkpt><trkpt lat="45.1249317" lon="11.624625"><ele>3.9999999999999996</ele><time>2026-04-12T06:32:52.558Z</time></trkpt><trkpt lat="45.125" lon="11.6246417"><ele>4.0</ele><time>2026-04-12T06:32:53.548Z</time></trkpt><trkpt lat="45.1250683" lon="11.6246617"><ele>4.0</ele><time>2026-04-12T06:32:54.558Z</time></trkpt><trkpt lat="45.1251367" lon="11.6246783"><ele>3.9999999999999996</ele><time>2026-04-12T06:32:55.571Z</time></trkpt><trkpt lat="45.125205" lon="11.6246983"><ele>4.0</ele><time>2026-04-12T06:32:56.571Z</time></trkpt><trkpt lat="45.125275" lon="11.6247183"><ele>4.0</ele><time>2026-04-12T06:32:57.569Z</time></trkpt><trkpt lat="45.1253433" lon="11.6247367"><ele>4.0</ele><time>2026-04-12T06:32:58.565Z</time></trkpt><trkpt lat="45.125415" lon="11.624755"><ele>3.9999999999999996</ele><time>2026-04-12T06:32:59.56Z</time></trkpt><trkpt lat="45.1254867" lon="11.6247717"><ele>4.0</ele><time>2026-04-12T06:33:00.548Z</time></trkpt><trkpt lat="45.1255583" lon="11.624785"><ele>4.0</ele><time>2026-04-12T06:33:01.567Z</time></trkpt><trkpt lat="45.1256283" lon="11.6248017"><ele>3.9999999999999996</ele><time>2026-04-12T06:33:02.578Z</time></trkpt><trkpt lat="45.1256983" lon="11.62482"><ele>4.0</ele><time>2026-04-12T06:33:03.576Z</time></trkpt><trkpt lat="45.1257667" lon="11.6248367"><ele>4.0</ele><time>2026-04-12T06:33:04.549Z</time></trkpt><trkpt lat="45.1258367" lon="11.6248533"><ele>4.0</ele><time>2026-04-12T06:33:05.561Z</time></trkpt><trkpt lat="45.1259067" lon="11.62487"><ele>3.9999999999999996</ele><time>2026-04-12T06:33:06.572Z</time></trkpt><trkpt lat="45.1259783" lon="11.62489"><ele>4.0</ele><time>2026-04-12T06:33:07.567Z</time></trkpt><trkpt lat="45.1260517" lon="11.6249133"><ele>4.0</ele><time>2026-04-12T06:33:08.563Z</time></trkpt><trkpt lat="45.126125" lon="11.6249333"><ele>3.9999999999999996</ele><time>2026-04-12T06:33:09.536Z</time></trkpt><trkpt lat="45.1261983" lon="11.6249517"><ele>4.0</ele><time>2026-04-12T06:33:10.537Z</time></trkpt><trkpt lat="45.1262683" lon="11.62497"><ele>4.0</ele><time>2026-04-12T06:33:11.56Z</time></trkpt><trkpt lat="45.1263367" lon="11.6249883"><ele>4.0</ele><time>2026-04-12T06:33:12.54Z</time></trkpt><trkpt lat="45.1264083" lon="11.6250083"><ele>3.9999999999999996</ele><time>2026-04-12T06:33:13.534Z</time></trkpt><trkpt lat="45.12648" lon="11.6250233"><ele>4.0</ele><time>2026-04-12T06:33:14.552Z</time></trkpt><trkpt lat="45.1265517" lon="11.62504"><ele>4.0</ele><time>2026-04-12T06:33:15.548Z</time></trkpt><trkpt lat="45.126625" lon="11.6250533"><ele>3.9999999999999996</ele><time>2026-04-12T06:33:16.544Z</time></trkpt><trkpt lat="45.1266967" lon="11.6250717"><ele>4.0</ele><time>2026-04-12T06:33:17.541Z</time></trkpt><trkpt lat="45.1267683" lon="11.6250867"><ele>4.0</ele><time>2026-04-12T06:33:18.536Z</time></trkpt><trkpt lat="45.12684" lon="11.625105"><ele>3.571428571428571</ele><time>2026-04-12T06:33:19.538Z</time></trkpt><trkpt lat="45.1269117" lon="11.6251233"><ele>3.1428571428571423</ele><time>2026-04-12T06:33:20.538Z</time></trkpt><trkpt lat="45.126985" lon="11.62514"><ele>2.714285714285714</ele><time>2026-04-12T06:33:21.537Z</time></trkpt><trkpt lat="45.127055" lon="11.62516"><ele>2.2857142857142856</ele><time>2026-04-12T06:33:22.542Z</time></trkpt><trkpt lat="45.1271233" lon="11.6251783"><ele>1.857142857142857</ele><time>2026-04-12T06:33:23.55Z</time></trkpt><trkpt lat="45.12719" lon="11.6251983"><ele>1.4285714285714284</ele><time>2026-04-12T06:33:24.539Z</time></trkpt><trkpt lat="45.1272567" lon="11.62522"><ele>1.0</ele><time>2026-04-12T06:33:25.562Z</time></trkpt><trkpt lat="45.1273283" lon="11.62524"><ele>1.1428571428571428</ele><time>2026-04-12T06:33:26.554Z</time></trkpt><trkpt lat="45.1273967" lon="11.6252617"><ele>1.2857142857142856</ele><time>2026-04-12T06:33:27.578Z</time></trkpt><trkpt lat="45.12747" lon="11.6252783"><ele>1.4285714285714284</ele><time>2026-04-12T06:33:28.564Z</time></trkpt><trkpt lat="45.1275383" lon="11.6252983"><ele>1.5714285714285714</ele><time>2026-04-12T06:33:29.559Z</time></trkpt><trkpt lat="45.1276083" lon="11.625315"><ele>1.714285714285714</ele><time>2026-04-12T06:33:30.567Z</time></trkpt><trkpt lat="45.12768" lon="11.6253333"><ele>1.857142857142857</ele><time>2026-04-12T06:33:31.564Z</time></trkpt><trkpt lat="45.1277533" lon="11.6253517"><ele>2.0</ele><time>2026-04-12T06:33:32.555Z</time></trkpt><trkpt lat="45.127825" lon="11.6253667"><ele>2.142857142857143</ele><time>2026-04-12T06:33:33.558Z</time></trkpt><trkpt lat="45.1278983" lon="11.625385"><ele>2.2857142857142856</ele><time>2026-04-12T06:33:34.577Z</time></trkpt><trkpt lat="45.1279733" lon="11.625405"><ele>2.4285714285714284</ele><time>2026-04-12T06:33:35.576Z</time></trkpt><trkpt lat="45.1280467" lon="11.6254217"><ele>2.571428571428571</ele><time>2026-04-12T06:33:36.575Z</time></trkpt><trkpt lat="45.1281183" lon="11.6254383"><ele>2.7142857142857144</ele><time>2026-04-12T06:33:37.577Z</time></trkpt><trkpt lat="45.1281933" lon="11.6254583"><ele>2.8571428571428568</ele><time>2026-04-12T06:33:38.576Z</time></trkpt><trkpt lat="45.1282667" lon="11.6254767"><ele>3.0</ele><time>2026-04-12T06:33:39.569Z</time></trkpt><trkpt lat="45.12834" lon="11.625495"><ele>3.2857142857142856</ele><time>2026-04-12T06:33:40.571Z</time></trkpt><trkpt lat="45.1284117" lon="11.625515"><ele>3.571428571428571</ele><time>2026-04-12T06:33:41.555Z</time></trkpt><trkpt lat="45.1284817" lon="11.6255333"><ele>3.8571428571428568</ele><time>2026-04-12T06:33:42.568Z</time></trkpt><trkpt lat="45.1285533" lon="11.625555"><ele>4.142857142857142</ele><time>2026-04-12T06:33:43.577Z</time></trkpt><trkpt lat="45.128625" lon="11.6255733"><ele>4.428571428571429</ele><time>2026-04-12T06:33:44.538Z</time></trkpt><trkpt lat="45.1286967" lon="11.6255867"><ele>4.714285714285714</ele><time>2026-04-12T06:33:45.569Z</time></trkpt><trkpt lat="45.1287683" lon="11.6256"><ele>5.0</ele><time>2026-04-12T06:33:46.577Z</time></trkpt><trkpt lat="45.12884" lon="11.625615"><ele>5.0</ele><time>2026-04-12T06:33:47.565Z</time></trkpt><trkpt lat="45.12891" lon="11.62563"><ele>5.0</ele><time>2026-04-12T06:33:48.552Z</time></trkpt><trkpt lat="45.12898" lon="11.62565"><ele>5.0</ele><time>2026-04-12T06:33:49.567Z</time></trkpt><trkpt lat="45.12905" lon="11.62568"><ele>5.0</ele><time>2026-04-12T06:33:50.566Z</time></trkpt><trkpt lat="45.1291183" lon="11.6257167"><ele>5.0</ele><time>2026-04-12T06:33:51.567Z</time></trkpt><trkpt lat="45.129185" lon="11.6257633"><ele>5.0</ele><time>2026-04-12T06:33:52.569Z</time></trkpt><trkpt lat="45.1292517" lon="11.6258133"><ele>5.0</ele><time>2026-04-12T06:33:53.564Z</time></trkpt><trkpt lat="45.12932" lon="11.62585"><ele>4.857142857142857</ele><time>2026-04-12T06:33:54.575Z</time></trkpt><trkpt lat="45.12939" lon="11.6258583"><ele>4.714285714285714</ele><time>2026-04-12T06:33:55.572Z</time></trkpt><trkpt lat="45.129465" lon="11.6258467"><ele>4.571428571428571</ele><time>2026-04-12T06:33:56.571Z</time></trkpt><trkpt lat="45.1295383" lon="11.62583"><ele>4.428571428571429</ele><time>2026-04-12T06:33:57.552Z</time></trkpt><trkpt lat="45.1296133" lon="11.6258283"><ele>4.285714285714286</ele><time>2026-04-12T06:33:58.56Z</time></trkpt><trkpt lat="45.1296883" lon="11.625845"><ele>4.142857142857142</ele><time>2026-04-12T06:33:59.558Z</time></trkpt><trkpt lat="45.1297617" lon="11.6258683"><ele>4.0</ele><time>2026-04-12T06:34:00.568Z</time></trkpt><trkpt lat="45.1298317" lon="11.625895"><ele>3.8571428571428568</ele><time>2026-04-12T06:34:01.531Z</time></trkpt><trkpt lat="45.1299017" lon="11.62592"><ele>3.714285714285714</ele><time>2026-04-12T06:34:02.568Z</time></trkpt><trkpt lat="45.1299717" lon="11.6259417"><ele>3.571428571428571</ele><time>2026-04-12T06:34:03.566Z</time></trkpt><trkpt lat="45.1300433" lon="11.6259633"><ele>3.4285714285714284</ele><time>2026-04-12T06:34:04.574Z</time></trkpt><trkpt lat="45.130115" lon="11.6259817"><ele>3.2857142857142856</ele><time>2026-04-12T06:34:05.561Z</time></trkpt><trkpt lat="45.1301883" lon="11.6260017"><ele>3.1428571428571423</ele><time>2026-04-12T06:34:06.566Z</time></trkpt><trkpt lat="45.13026" lon="11.6260183"><ele>3.0</ele><time>2026-04-12T06:34:07.572Z</time></trkpt><trkpt lat="45.1303283" lon="11.6260367"><ele>2.9999999999999996</ele><time>2026-04-12T06:34:08.562Z</time></trkpt><trkpt lat="45.1303983" lon="11.6260533"><ele>3.0</ele><time>2026-04-12T06:34:09.575Z</time></trkpt><trkpt lat="45.13047" lon="11.6260733"><ele>3.0</ele><time>2026-04-12T06:34:10.541Z</time></trkpt><trkpt lat="45.1305417" lon="11.6260933"><ele>3.0</ele><time>2026-04-12T06:34:11.561Z</time></trkpt><trkpt lat="45.1306133" lon="11.626115"><ele>3.0</ele><time>2026-04-12T06:34:12.552Z</time></trkpt><trkpt lat="45.1306833" lon="11.6261333"><ele>2.9999999999999996</ele><time>2026-04-12T06:34:13.569Z</time></trkpt><trkpt lat="45.1307533" lon="11.62615"><ele>3.0</ele><time>2026-04-12T06:34:14.576Z</time></trkpt><trkpt lat="45.1308233" lon="11.6261667"><ele>2.8571428571428568</ele><time>2026-04-12T06:34:15.558Z</time></trkpt><trkpt lat="45.130895" lon="11.6261833"><ele>2.7142857142857144</ele><time>2026-04-12T06:34:16.558Z</time></trkpt><trkpt lat="45.1309683" lon="11.6262"><ele>2.571428571428571</ele><time>2026-04-12T06:34:17.53Z</time></trkpt><trkpt lat="45.13104" lon="11.6262183"><ele>2.4285714285714284</ele><time>2026-04-12T06:34:18.536Z</time></trkpt><trkpt lat="45.1311117" lon="11.6262383"><ele>2.2857142857142856</ele><time>2026-04-12T06:34:19.534Z</time></trkpt><trkpt lat="45.131185" lon="11.6262583"><ele>2.142857142857143</ele><time>2026-04-12T06:34:20.534Z</time></trkpt><trkpt lat="45.1312583" lon="11.6262733"><ele>2.0</ele><time>2026-04-12T06:34:21.533Z</time></trkpt><trkpt lat="45.13133" lon="11.62629"><ele>2.0</ele><time>2026-04-12T06:34:22.558Z</time></trkpt><trkpt lat="45.1314033" lon="11.6263"><ele>1.9999999999999998</ele><time>2026-04-12T06:34:23.573Z</time></trkpt><trkpt lat="45.131475" lon="11.626315"><ele>2.0</ele><time>2026-04-12T06:34:24.572Z</time></trkpt><trkpt lat="45.13155" lon="11.626335"><ele>2.0</ele><time>2026-04-12T06:34:25.551Z</time></trkpt><trkpt lat="45.131625" lon="11.6263467"><ele>1.9999999999999998</ele><time>2026-04-12T06:34:26.572Z</time></trkpt><trkpt lat="45.1316983" lon="11.626365"><ele>2.0</ele><time>2026-04-12T06:34:27.559Z</time></trkpt><trkpt lat="45.13177" lon="11.626385"><ele>2.0</ele><time>2026-04-12T06:34:28.555Z</time></trkpt><trkpt lat="45.1318433" lon="11.6264033"><ele>2.142857142857143</ele><time>2026-04-12T06:34:29.563Z</time></trkpt><trkpt lat="45.1319167" lon="11.6264183"><ele>2.2857142857142856</ele><time>2026-04-12T06:34:30.564Z</time></trkpt><trkpt lat="45.13199" lon="11.626435"><ele>2.4285714285714284</ele><time>2026-04-12T06:34:31.569Z</time></trkpt><trkpt lat="45.1320617" lon="11.6264533"><ele>2.571428571428571</ele><time>2026-04-12T06:34:32.572Z</time></trkpt><trkpt lat="45.1321333" lon="11.6264733"><ele>2.7142857142857144</ele><time>2026-04-12T06:34:33.571Z</time></trkpt><trkpt lat="45.132205" lon="11.6264917"><ele>2.8571428571428568</ele><time>2026-04-12T06:34:34.571Z</time></trkpt><trkpt lat="45.1322767" lon="11.6265117"><ele>3.0</ele><time>2026-04-12T06:34:35.569Z</time></trkpt><trkpt lat="45.1323483" lon="11.62653"><ele>3.1428571428571423</ele><time>2026-04-12T06:34:36.549Z</time></trkpt><trkpt lat="45.1324183" lon="11.6265467"><ele>3.2857142857142856</ele><time>2026-04-12T06:34:37.567Z</time></trkpt><trkpt lat="45.13249" lon="11.6265617"><ele>3.4285714285714284</ele><time>2026-04-12T06:34:38.569Z</time></trkpt><trkpt lat="45.1325617" lon="11.62658"><ele>3.571428571428571</ele><time>2026-04-12T06:34:39.569Z</time></trkpt><trkpt lat="45.1326333" lon="11.6266017"><ele>3.714285714285714</ele><time>2026-04-12T06:34:40.576Z</time></trkpt><trkpt lat="45.132705" lon="11.62662"><ele>3.8571428571428568</ele><time>2026-04-12T06:34:41.565Z</time></trkpt><trkpt lat="45.1327783" lon="11.6266367"><ele>4.0</ele><time>2026-04-12T06:34:42.563Z</time></trkpt><trkpt lat="45.1328517" lon="11.6266567"><ele>4.0</ele><time>2026-04-12T06:34:43.574Z</time></trkpt><trkpt lat="45.13292" lon="11.6266767"><ele>3.9999999999999996</ele><time>2026-04-12T06:34:44.565Z</time></trkpt><trkpt lat="45.1329867" lon="11.6266933"><ele>4.0</ele><time>2026-04-12T06:34:45.577Z</time></trkpt><trkpt lat="45.1330533" lon="11.6267117"><ele>4.0</ele><time>2026-04-12T06:34:46.575Z</time></trkpt><trkpt lat="45.133125" lon="11.62673"><ele>3.9999999999999996</ele><time>2026-04-12T06:34:47.562Z</time></trkpt><trkpt lat="45.1331967" lon="11.6267483"><ele>4.0</ele><time>2026-04-12T06:34:48.556Z</time></trkpt><trkpt lat="45.1332683" lon="11.626765"><ele>4.0</ele><time>2026-04-12T06:34:49.563Z</time></trkpt><trkpt lat="45.1333417" lon="11.6267833"><ele>4.166666666666666</ele><time>2026-04-12T06:34:50.566Z</time></trkpt><trkpt lat="45.133415" lon="11.626805"><ele>4.333333333333333</ele><time>2026-04-12T06:34:51.557Z</time></trkpt><trkpt lat="45.1334917" lon="11.62683"><ele>4.5</ele><time>2026-04-12T06:34:52.565Z</time></trkpt><trkpt lat="45.1335683" lon="11.62685"><ele>4.666666666666667</ele><time>2026-04-12T06:34:53.557Z</time></trkpt><trkpt lat="45.133645" lon="11.62687"><ele>4.833333333333334</ele><time>2026-04-12T06:34:54.542Z</time></trkpt><trkpt lat="45.13372" lon="11.6268867"><ele>5.0</ele><time>2026-04-12T06:34:55.558Z</time></trkpt><trkpt lat="45.1337933" lon="11.626905"><ele>5.0</ele><time>2026-04-12T06:34:56.565Z</time></trkpt><trkpt lat="45.1338667" lon="11.62692"><ele>5.0</ele><time>2026-04-12T06:34:57.556Z</time></trkpt><trkpt lat="45.133935" lon="11.6269367"><ele>5.0</ele><time>2026-04-12T06:34:58.567Z</time></trkpt><trkpt lat="45.1340067" lon="11.626955"><ele>5.0</ele><time>2026-04-12T06:34:59.576Z</time></trkpt><trkpt lat="45.1340783" lon="11.6269733"><ele>5.0</ele><time>2026-04-12T06:35:00.571Z</time></trkpt><trkpt lat="45.13415" lon="11.6269933"><ele>5.0</ele><time>2026-04-12T06:35:01.557Z</time></trkpt><trkpt lat="45.13422" lon="11.6270117"><ele>5.0</ele><time>2026-04-12T06:35:02.546Z</time></trkpt><trkpt lat="45.13429" lon="11.6270317"><ele>4.857142857142857</ele><time>2026-04-12T06:35:03.57Z</time></trkpt><trkpt lat="45.1343633" lon="11.6270483"><ele>4.714285714285714</ele><time>2026-04-12T06:35:04.566Z</time></trkpt><trkpt lat="45.1344333" lon="11.627065"><ele>4.571428571428571</ele><time>2026-04-12T06:35:05.558Z</time></trkpt><trkpt lat="45.1345033" lon="11.6270817"><ele>4.428571428571429</ele><time>2026-04-12T06:35:06.541Z</time></trkpt><trkpt lat="45.134575" lon="11.6270983"><ele>4.285714285714286</ele><time>2026-04-12T06:35:07.552Z</time></trkpt><trkpt lat="45.1346483" lon="11.6271133"><ele>4.142857142857142</ele><time>2026-04-12T06:35:08.567Z</time></trkpt><trkpt lat="45.13472" lon="11.6271317"><ele>4.0</ele><time>2026-04-12T06:35:09.57Z</time></trkpt><trkpt lat="45.1347917" lon="11.6271517"><ele>4.0</ele><time>2026-04-12T06:35:10.57Z</time></trkpt><trkpt lat="45.1348633" lon="11.62717"><ele>3.9999999999999996</ele><time>2026-04-12T06:35:11.55Z</time></trkpt><trkpt lat="45.1349367" lon="11.6271867"><ele>4.0</ele><time>2026-04-12T06:35:12.551Z</time></trkpt><trkpt lat="45.1350083" lon="11.627205"><ele>4.0</ele><time>2026-04-12T06:35:13.544Z</time></trkpt><trkpt lat="45.13508" lon="11.6272233"><ele>3.9999999999999996</ele><time>2026-04-12T06:35:14.549Z</time></trkpt><trkpt lat="45.13515" lon="11.627245"><ele>4.0</ele><time>2026-04-12T06:35:15.563Z</time></trkpt><trkpt lat="45.1352233" lon="11.627265"><ele>4.0</ele><time>2026-04-12T06:35:16.564Z</time></trkpt><trkpt lat="45.1352933" lon="11.62728"><ele>3.8571428571428568</ele><time>2026-04-12T06:35:17.569Z</time></trkpt><trkpt lat="45.135365" lon="11.6273"><ele>3.714285714285714</ele><time>2026-04-12T06:35:18.541Z</time></trkpt><trkpt lat="45.1354367" lon="11.6273167"><ele>3.571428571428571</ele><time>2026-04-12T06:35:19.549Z</time></trkpt><trkpt lat="45.1355083" lon="11.627335"><ele>3.4285714285714284</ele><time>2026-04-12T06:35:20.541Z</time></trkpt><trkpt lat="45.13558" lon="11.6273533"><ele>3.2857142857142856</ele><time>2026-04-12T06:35:21.552Z</time></trkpt><trkpt lat="45.1356517" lon="11.6273717"><ele>3.1428571428571423</ele><time>2026-04-12T06:35:22.545Z</time></trkpt><trkpt lat="45.1357233" lon="11.62739"><ele>3.0</ele><time>2026-04-12T06:35:23.548Z</time></trkpt><trkpt lat="45.1357967" lon="11.6274067"><ele>2.9999999999999996</ele><time>2026-04-12T06:35:24.552Z</time></trkpt><trkpt lat="45.13587" lon="11.6274217"><ele>3.0</ele><time>2026-04-12T06:35:25.54Z</time></trkpt><trkpt lat="45.1359433" lon="11.62744"><ele>3.0</ele><time>2026-04-12T06:35:26.545Z</time></trkpt><trkpt lat="45.1360167" lon="11.627455"><ele>3.0</ele><time>2026-04-12T06:35:27.536Z</time></trkpt><trkpt lat="45.13609" lon="11.62747"><ele>3.0</ele><time>2026-04-12T06:35:28.545Z</time></trkpt><trkpt lat="45.1361633" lon="11.62748"><ele>2.9999999999999996</ele><time>2026-04-12T06:35:29.564Z</time></trkpt><trkpt lat="45.1362383" lon="11.627495"><ele>3.0</ele><time>2026-04-12T06:35:30.541Z</time></trkpt><trkpt lat="45.1363117" lon="11.6275133"><ele>2.9999999999999996</ele><time>2026-04-12T06:35:31.526Z</time></trkpt><trkpt lat="45.136385" lon="11.627535"><ele>3.0</ele><time>2026-04-12T06:35:32.539Z</time></trkpt><trkpt lat="45.1364583" lon="11.6275533"><ele>3.0</ele><time>2026-04-12T06:35:33.538Z</time></trkpt><trkpt lat="45.1365317" lon="11.627575"><ele>3.0</ele><time>2026-04-12T06:35:34.531Z</time></trkpt><trkpt lat="45.1366033" lon="11.6275933"><ele>3.0</ele><time>2026-04-12T06:35:35.541Z</time></trkpt><trkpt lat="45.136675" lon="11.6276133"><ele>2.9999999999999996</ele><time>2026-04-12T06:35:36.532Z</time></trkpt><trkpt lat="45.1367467" lon="11.6276333"><ele>3.0</ele><time>2026-04-12T06:35:37.539Z</time></trkpt><trkpt lat="45.1368167" lon="11.62765"><ele>3.1428571428571423</ele><time>2026-04-12T06:35:38.548Z</time></trkpt><trkpt lat="45.136885" lon="11.627665"><ele>3.2857142857142856</ele><time>2026-04-12T06:35:39.537Z</time></trkpt><trkpt lat="45.136955" lon="11.6276817"><ele>3.4285714285714284</ele><time>2026-04-12T06:35:40.533Z</time></trkpt><trkpt lat="45.1370267" lon="11.6276983"><ele>3.571428571428571</ele><time>2026-04-12T06:35:41.536Z</time></trkpt><trkpt lat="45.1371" lon="11.6277167"><ele>3.714285714285714</ele><time>2026-04-12T06:35:42.541Z</time></trkpt><trkpt lat="45.1371733" lon="11.6277333"><ele>3.8571428571428568</ele><time>2026-04-12T06:35:43.538Z</time></trkpt><trkpt lat="45.1372433" lon="11.6277517"><ele>4.0</ele><time>2026-04-12T06:35:44.541Z</time></trkpt><trkpt lat="45.1373133" lon="11.62777"><ele>4.0</ele><time>2026-04-12T06:35:45.535Z</time></trkpt><trkpt lat="45.137385" lon="11.6277867"><ele>3.9999999999999996</ele><time>2026-04-12T06:35:46.539Z</time></trkpt><trkpt lat="45.1374567" lon="11.6278067"><ele>4.0</ele><time>2026-04-12T06:35:47.534Z</time></trkpt><trkpt lat="45.13753" lon="11.6278283"><ele>4.0</ele><time>2026-04-12T06:35:48.556Z</time></trkpt><trkpt lat="45.1376017" lon="11.6278517"><ele>3.9999999999999996</ele><time>2026-04-12T06:35:49.567Z</time></trkpt><trkpt lat="45.1376733" lon="11.6278783"><ele>4.0</ele><time>2026-04-12T06:35:50.565Z</time></trkpt><trkpt lat="45.137745" lon="11.6279067"><ele>4.0</ele><time>2026-04-12T06:35:51.545Z</time></trkpt><trkpt lat="45.1378133" lon="11.62794"><ele>4.0</ele><time>2026-04-12T06:35:52.554Z</time></trkpt><trkpt lat="45.1378817" lon="11.6279783"><ele>3.9999999999999996</ele><time>2026-04-12T06:35:53.556Z</time></trkpt><trkpt lat="45.1379483" lon="11.6280217"><ele>4.0</ele><time>2026-04-12T06:35:54.571Z</time></trkpt><trkpt lat="45.138015" lon="11.62807"><ele>4.0</ele><time>2026-04-12T06:35:55.566Z</time></trkpt><trkpt lat="45.1380783" lon="11.6281267"><ele>3.9999999999999996</ele><time>2026-04-12T06:35:56.566Z</time></trkpt><trkpt lat="45.1381383" lon="11.6281883"><ele>4.0</ele><time>2026-04-12T06:35:57.598Z</time></trkpt><trkpt lat="45.138195" lon="11.6282583"><ele>4.0</ele><time>2026-04-12T06:35:58.568Z</time></trkpt><trkpt lat="45.13825" lon="11.62833"><ele>3.9999999999999996</ele><time>2026-04-12T06:35:59.55Z</time></trkpt><trkpt lat="45.1383017" lon="11.6284067"><ele>4.0</ele><time>2026-04-12T06:36:00.565Z</time></trkpt><trkpt lat="45.1383483" lon="11.6284883"><ele>4.0</ele><time>2026-04-12T06:36:01.569Z</time></trkpt><trkpt lat="45.1383967" lon="11.6285717"><ele>4.0</ele><time>2026-04-12T06:36:02.569Z</time></trkpt><trkpt lat="45.1384417" lon="11.62866"><ele>3.9999999999999996</ele><time>2026-04-12T06:36:03.559Z</time></trkpt><trkpt lat="45.1384817" lon="11.6287517"><ele>4.0</ele><time>2026-04-12T06:36:04.563Z</time></trkpt><trkpt lat="45.13852" lon="11.6288417"><ele>4.0</ele><time>2026-04-12T06:36:05.57Z</time></trkpt><trkpt lat="45.1385567" lon="11.6289333"><ele>3.9999999999999996</ele><time>2026-04-12T06:36:06.57Z</time></trkpt><trkpt lat="45.1385867" lon="11.6290233"><ele>4.0</ele><time>2026-04-12T06:36:07.561Z</time></trkpt><trkpt lat="45.1386133" lon="11.6291167"><ele>4.0</ele><time>2026-04-12T06:36:08.574Z</time></trkpt><trkpt lat="45.1386367" lon="11.6292117"><ele>3.9999999999999996</ele><time>2026-04-12T06:36:09.57Z</time></trkpt><trkpt lat="45.1386583" lon="11.6293083"><ele>4.0</ele><time>2026-04-12T06:36:10.571Z</time></trkpt><trkpt lat="45.1386767" lon="11.6294017"><ele>4.0</ele><time>2026-04-12T06:36:11.57Z</time></trkpt><trkpt lat="45.1386967" lon="11.629495"><ele>4.0</ele><time>2026-04-12T06:36:12.536Z</time></trkpt><trkpt lat="45.1387133" lon="11.62959"><ele>3.9999999999999996</ele><time>2026-04-12T06:36:13.563Z</time></trkpt><trkpt lat="45.1387383" lon="11.62969"><ele>4.0</ele><time>2026-04-12T06:36:14.563Z</time></trkpt><trkpt lat="45.1387633" lon="11.62979"><ele>4.0</ele><time>2026-04-12T06:36:15.562Z</time></trkpt><trkpt lat="45.138785" lon="11.6298883"><ele>3.9999999999999996</ele><time>2026-04-12T06:36:16.553Z</time></trkpt><trkpt lat="45.1388033" lon="11.6299867"><ele>4.0</ele><time>2026-04-12T06:36:17.569Z</time></trkpt><trkpt lat="45.1388233" lon="11.6300833"><ele>4.0</ele><time>2026-04-12T06:36:18.566Z</time></trkpt><trkpt lat="45.138845" lon="11.63018"><ele>4.0</ele><time>2026-04-12T06:36:19.565Z</time></trkpt><trkpt lat="45.1388683" lon="11.630275"><ele>3.9999999999999996</ele><time>2026-04-12T06:36:20.568Z</time></trkpt><trkpt lat="45.1388917" lon="11.6303683"><ele>4.0</ele><time>2026-04-12T06:36:21.569Z</time></trkpt><trkpt lat="45.13892" lon="11.6304633"><ele>4.0</ele><time>2026-04-12T06:36:22.559Z</time></trkpt><trkpt lat="45.13895" lon="11.6305583"><ele>3.9999999999999996</ele><time>2026-04-12T06:36:23.559Z</time></trkpt><trkpt lat="45.1389817" lon="11.63065"><ele>4.0</ele><time>2026-04-12T06:36:24.572Z</time></trkpt><trkpt lat="45.139015" lon="11.6307383"><ele>4.0</ele><time>2026-04-12T06:36:25.57Z</time></trkpt><trkpt lat="45.1390533" lon="11.630825"><ele>4.142857142857142</ele><time>2026-04-12T06:36:26.558Z</time></trkpt><trkpt lat="45.13909" lon="11.6309117"><ele>4.285714285714286</ele><time>2026-04-12T06:36:27.562Z</time></trkpt><trkpt lat="45.1391267" lon="11.6309967"><ele>4.428571428571429</ele><time>2026-04-12T06:36:28.559Z</time></trkpt><trkpt lat="45.13917" lon="11.6310783"><ele>4.571428571428571</ele><time>2026-04-12T06:36:29.565Z</time></trkpt><trkpt lat="45.139215" lon="11.6311617"><ele>4.714285714285714</ele><time>2026-04-12T06:36:30.563Z</time></trkpt><trkpt lat="45.1392633" lon="11.6312433"><ele>4.857142857142857</ele><time>2026-04-12T06:36:31.565Z</time></trkpt><trkpt lat="45.1393133" lon="11.6313233"><ele>5.0</ele><time>2026-04-12T06:36:32.573Z</time></trkpt><trkpt lat="45.139365" lon="11.631405"><ele>5.0</ele><time>2026-04-12T06:36:33.548Z</time></trkpt><trkpt lat="45.1394133" lon="11.631485"><ele>5.0</ele><time>2026-04-12T06:36:34.565Z</time></trkpt><trkpt lat="45.1394617" lon="11.63156"><ele>5.0</ele><time>2026-04-12T06:36:35.572Z</time></trkpt><trkpt lat="45.1395117" lon="11.6316383"><ele>5.0</ele><time>2026-04-12T06:36:36.548Z</time></trkpt><trkpt lat="45.13956" lon="11.6317167"><ele>5.0</ele><time>2026-04-12T06:36:37.565Z</time></trkpt><trkpt lat="45.139605" lon="11.631795"><ele>5.0</ele><time>2026-04-12T06:36:38.563Z</time></trkpt><trkpt lat="45.1396483" lon="11.6318717"><ele>5.0</ele><time>2026-04-12T06:36:39.572Z</time></trkpt><trkpt lat="45.1396917" lon="11.63195"><ele>5.0</ele><time>2026-04-12T06:36:40.56Z</time></trkpt><trkpt lat="45.1397383" lon="11.6320267"><ele>5.0</ele><time>2026-04-12T06:36:41.566Z</time></trkpt><trkpt lat="45.139785" lon="11.6321"><ele>5.0</ele><time>2026-04-12T06:36:42.563Z</time></trkpt><trkpt lat="45.1398333" lon="11.6321733"><ele>5.0</ele><time>2026-04-12T06:36:43.566Z</time></trkpt><trkpt lat="45.1398817" lon="11.63224"><ele>5.0</ele><time>2026-04-12T06:36:44.568Z</time></trkpt><trkpt lat="45.13993" lon="11.6323017"><ele>5.0</ele><time>2026-04-12T06:36:45.566Z</time></trkpt><trkpt lat="45.1399817" lon="11.632355"><ele>5.0</ele><time>2026-04-12T06:36:46.57Z</time></trkpt><trkpt lat="45.1400883" lon="11.632445"><ele>5.0</ele><time>2026-04-12T06:36:48.564Z</time></trkpt><trkpt lat="45.1401467" lon="11.6324817"><ele>5.0</ele><time>2026-04-12T06:36:49.559Z</time></trkpt><trkpt lat="45.14021" lon="11.6325167"><ele>5.0</ele><time>2026-04-12T06:36:50.57Z</time></trkpt><trkpt lat="45.1402733" lon="11.6325467"><ele>5.0</ele><time>2026-04-12T06:36:51.563Z</time></trkpt><trkpt lat="45.1403367" lon="11.6325767"><ele>5.0</ele><time>2026-04-12T06:36:52.566Z</time></trkpt><trkpt lat="45.1404017" lon="11.6326067"><ele>5.0</ele><time>2026-04-12T06:36:53.558Z</time></trkpt><trkpt lat="45.1404667" lon="11.632625"><ele>5.0</ele><time>2026-04-12T06:36:54.552Z</time></trkpt><trkpt lat="45.1405317" lon="11.6326233"><ele>5.0</ele><time>2026-04-12T06:36:55.561Z</time></trkpt><trkpt lat="45.140595" lon="11.6326033"><ele>5.0</ele><time>2026-04-12T06:36:56.57Z</time></trkpt><trkpt lat="45.14066" lon="11.632575"><ele>5.0</ele><time>2026-04-12T06:36:57.575Z</time></trkpt><trkpt lat="45.1407317" lon="11.6325617"><ele>5.0</ele><time>2026-04-12T06:36:58.645Z</time></trkpt><trkpt lat="45.1408033" lon="11.6325667"><ele>5.0</ele><time>2026-04-12T06:36:59.564Z</time></trkpt><trkpt lat="45.1408717" lon="11.6325783"><ele>5.0</ele><time>2026-04-12T06:37:00.558Z</time></trkpt><trkpt lat="45.1409367" lon="11.632595"><ele>5.0</ele><time>2026-04-12T06:37:01.568Z</time></trkpt><trkpt lat="45.1410017" lon="11.6326117"><ele>4.75</ele><time>2026-04-12T06:37:02.566Z</time></trkpt><trkpt lat="45.14112" lon="11.6326433"><ele>4.5</ele><time>2026-04-12T06:37:04.567Z</time></trkpt><trkpt lat="45.141235" lon="11.6326883"><ele>4.25</ele><time>2026-04-12T06:37:06.568Z</time></trkpt><trkpt lat="45.1413383" lon="11.6327617"><ele>4.0</ele><time>2026-04-12T06:37:08.57Z</time></trkpt><trkpt lat="45.1414233" lon="11.63287"><ele>4.0</ele><time>2026-04-12T06:37:10.572Z</time></trkpt><trkpt lat="45.1415167" lon="11.63295"><ele>4.0</ele><time>2026-04-12T06:37:12.561Z</time></trkpt><trkpt lat="45.1416217" lon="11.6329183"><ele>4.0</ele><time>2026-04-12T06:37:14.538Z</time></trkpt><trkpt lat="45.1416983" lon="11.6327883"><ele>4.0</ele><time>2026-04-12T06:37:16.57Z</time></trkpt><trkpt lat="45.1417683" lon="11.632655"><ele>4.2</ele><time>2026-04-12T06:37:18.565Z</time></trkpt><trkpt lat="45.1418417" lon="11.6325233"><ele>4.4</ele><time>2026-04-12T06:37:20.549Z</time></trkpt><trkpt lat="45.14191" lon="11.6324167"><ele>4.6</ele><time>2026-04-12T06:37:22.559Z</time></trkpt><trkpt lat="45.1419783" lon="11.632335"><ele>4.8</ele><time>2026-04-12T06:37:24.552Z</time></trkpt><trkpt lat="45.1420417" lon="11.632255"><ele>5.0</ele><time>2026-04-12T06:37:26.573Z</time></trkpt><trkpt lat="45.1421017" lon="11.632145"><ele>5.0</ele><time>2026-04-12T06:37:28.567Z</time></trkpt><trkpt lat="45.1421667" lon="11.632015"><ele>5.0</ele><time>2026-04-12T06:37:30.559Z</time></trkpt><trkpt lat="45.1422333" lon="11.6318783"><ele>5.0</ele><time>2026-04-12T06:37:32.569Z</time></trkpt><trkpt lat="45.1423" lon="11.6317433"><ele>5.0</ele><time>2026-04-12T06:37:34.556Z</time></trkpt><trkpt lat="45.1423633" lon="11.6315983"><ele>5.0</ele><time>2026-04-12T06:37:36.565Z</time></trkpt><trkpt lat="45.1424" lon="11.63152"><ele>5.0</ele><time>2026-04-12T06:37:37.567Z</time></trkpt><trkpt lat="45.1424367" lon="11.6314383"><ele>5.0</ele><time>2026-04-12T06:37:38.568Z</time></trkpt><trkpt lat="45.142475" lon="11.6313583"><ele>5.0</ele><time>2026-04-12T06:37:39.57Z</time></trkpt><trkpt lat="45.142515" lon="11.6312783"><ele>5.0</ele><time>2026-04-12T06:37:40.576Z</time></trkpt><trkpt lat="45.142555" lon="11.6311967"><ele>5.0</ele><time>2026-04-12T06:37:41.571Z</time></trkpt><trkpt lat="45.142595" lon="11.631115"><ele>5.0</ele><time>2026-04-12T06:37:42.567Z</time></trkpt><trkpt lat="45.1426317" lon="11.63104"><ele>4.857142857142857</ele><time>2026-04-12T06:37:43.571Z</time></trkpt><trkpt lat="45.14267" lon="11.630965"><ele>4.714285714285714</ele><time>2026-04-12T06:37:44.57Z</time></trkpt><trkpt lat="45.1427067" lon="11.6308883"><ele>4.571428571428571</ele><time>2026-04-12T06:37:45.568Z</time></trkpt><trkpt lat="45.1427467" lon="11.6308133"><ele>4.428571428571429</ele><time>2026-04-12T06:37:46.542Z</time></trkpt><trkpt lat="45.1427883" lon="11.6307367"><ele>4.285714285714286</ele><time>2026-04-12T06:37:47.574Z</time></trkpt><trkpt lat="45.1428283" lon="11.63066"><ele>4.142857142857142</ele><time>2026-04-12T06:37:48.572Z</time></trkpt><trkpt lat="45.14287" lon="11.630585"><ele>4.0</ele><time>2026-04-12T06:37:49.577Z</time></trkpt><trkpt lat="45.1429133" lon="11.6305133"><ele>4.0</ele><time>2026-04-12T06:37:50.569Z</time></trkpt><trkpt lat="45.142955" lon="11.6304417"><ele>3.9999999999999996</ele><time>2026-04-12T06:37:51.568Z</time></trkpt><trkpt lat="45.143" lon="11.6303633"><ele>4.0</ele><time>2026-04-12T06:37:52.569Z</time></trkpt><trkpt lat="45.1430433" lon="11.6302833"><ele>4.0</ele><time>2026-04-12T06:37:53.564Z</time></trkpt><trkpt lat="45.14309" lon="11.6302033"><ele>3.9999999999999996</ele><time>2026-04-12T06:37:54.569Z</time></trkpt><trkpt lat="45.143135" lon="11.6301233"><ele>4.0</ele><time>2026-04-12T06:37:55.571Z</time></trkpt><trkpt lat="45.14318" lon="11.6300433"><ele>4.0</ele><time>2026-04-12T06:37:56.573Z</time></trkpt><trkpt lat="45.1432267" lon="11.6299633"><ele>4.285714285714286</ele><time>2026-04-12T06:37:57.567Z</time></trkpt><trkpt lat="45.1432733" lon="11.6298817"><ele>4.571428571428571</ele><time>2026-04-12T06:37:58.568Z</time></trkpt><trkpt lat="45.1433167" lon="11.629805"><ele>4.857142857142857</ele><time>2026-04-12T06:37:59.569Z</time></trkpt><trkpt lat="45.1433567" lon="11.629725"><ele>5.142857142857142</ele><time>2026-04-12T06:38:00.566Z</time></trkpt><trkpt lat="45.1433967" lon="11.629645"><ele>5.428571428571429</ele><time>2026-04-12T06:38:01.562Z</time></trkpt><trkpt lat="45.1434367" lon="11.6295617"><ele>5.7142857142857135</ele><time>2026-04-12T06:38:02.569Z</time></trkpt><trkpt lat="45.1434767" lon="11.6294733"><ele>6.0</ele><time>2026-04-12T06:38:03.568Z</time></trkpt><trkpt lat="45.1435117" lon="11.629385"><ele>5.999999999999999</ele><time>2026-04-12T06:38:04.548Z</time></trkpt><trkpt lat="45.14354" lon="11.6292933"><ele>6.0</ele><time>2026-04-12T06:38:05.566Z</time></trkpt><trkpt lat="45.1435633" lon="11.6292"><ele>6.0</ele><time>2026-04-12T06:38:06.575Z</time></trkpt><trkpt lat="45.1435767" lon="11.6291"><ele>6.0</ele><time>2026-04-12T06:38:07.545Z</time></trkpt><trkpt lat="45.1435817" lon="11.6289983"><ele>6.0</ele><time>2026-04-12T06:38:08.563Z</time></trkpt><trkpt lat="45.143585" lon="11.628895"><ele>5.999999999999999</ele><time>2026-04-12T06:38:09.574Z</time></trkpt><trkpt lat="45.1435817" lon="11.6287883"><ele>6.0</ele><time>2026-04-12T06:38:10.568Z</time></trkpt><trkpt lat="45.1435733" lon="11.6286867"><ele>5.999999999999999</ele><time>2026-04-12T06:38:11.57Z</time></trkpt><trkpt lat="45.1435567" lon="11.6285833"><ele>6.0</ele><time>2026-04-12T06:38:12.557Z</time></trkpt><trkpt lat="45.1435317" lon="11.628485"><ele>6.0</ele><time>2026-04-12T06:38:13.558Z</time></trkpt><trkpt lat="45.143505" lon="11.6283933"><ele>6.0</ele><time>2026-04-12T06:38:14.572Z</time></trkpt><trkpt lat="45.1434767" lon="11.6283017"><ele>6.0</ele><time>2026-04-12T06:38:15.569Z</time></trkpt><trkpt lat="45.1434467" lon="11.6282067"><ele>5.999999999999999</ele><time>2026-04-12T06:38:16.554Z</time></trkpt><trkpt lat="45.1434217" lon="11.6281067"><ele>6.0</ele><time>2026-04-12T06:38:17.569Z</time></trkpt><trkpt lat="45.1434017" lon="11.6280067"><ele>5.999999999999999</ele><time>2026-04-12T06:38:18.568Z</time></trkpt><trkpt lat="45.1433867" lon="11.6279017"><ele>6.0</ele><time>2026-04-12T06:38:19.571Z</time></trkpt><trkpt lat="45.143375" lon="11.6277967"><ele>6.0</ele><time>2026-04-12T06:38:20.564Z</time></trkpt><trkpt lat="45.1433733" lon="11.6276917"><ele>6.0</ele><time>2026-04-12T06:38:21.572Z</time></trkpt><trkpt lat="45.143375" lon="11.6275883"><ele>6.0</ele><time>2026-04-12T06:38:22.577Z</time></trkpt><trkpt lat="45.143375" lon="11.6274867"><ele>5.999999999999999</ele><time>2026-04-12T06:38:23.573Z</time></trkpt><trkpt lat="45.14338" lon="11.62738"><ele>6.0</ele><time>2026-04-12T06:38:24.573Z</time></trkpt><trkpt lat="45.1433867" lon="11.6272733"><ele>5.999999999999999</ele><time>2026-04-12T06:38:25.574Z</time></trkpt><trkpt lat="45.1433883" lon="11.62717"><ele>6.0</ele><time>2026-04-12T06:38:26.568Z</time></trkpt><trkpt lat="45.14338" lon="11.6270633"><ele>6.0</ele><time>2026-04-12T06:38:27.575Z</time></trkpt><trkpt lat="45.14336" lon="11.6269617"><ele>6.0</ele><time>2026-04-12T06:38:28.538Z</time></trkpt><trkpt lat="45.143335" lon="11.62686"><ele>6.0</ele><time>2026-04-12T06:38:29.561Z</time></trkpt><trkpt lat="45.1433083" lon="11.6267633"><ele>5.999999999999999</ele><time>2026-04-12T06:38:30.562Z</time></trkpt><trkpt lat="45.14328" lon="11.6266683"><ele>6.0</ele><time>2026-04-12T06:38:31.57Z</time></trkpt><trkpt lat="45.1432483" lon="11.6265767"><ele>6.166666666666667</ele><time>2026-04-12T06:38:32.564Z</time></trkpt><trkpt lat="45.14322" lon="11.62648"><ele>6.333333333333334</ele><time>2026-04-12T06:38:33.56Z</time></trkpt><trkpt lat="45.14319" lon="11.6263817"><ele>6.5</ele><time>2026-04-12T06:38:34.567Z</time></trkpt><trkpt lat="45.1431567" lon="11.6262817"><ele>6.666666666666667</ele><time>2026-04-12T06:38:35.568Z</time></trkpt><trkpt lat="45.143125" lon="11.6261833"><ele>6.833333333333334</ele><time>2026-04-12T06:38:36.569Z</time></trkpt><trkpt lat="45.1430933" lon="11.62609"><ele>7.0</ele><time>2026-04-12T06:38:37.564Z</time></trkpt><trkpt lat="45.1430617" lon="11.625995"><ele>6.666666666666667</ele><time>2026-04-12T06:38:38.568Z</time></trkpt><trkpt lat="45.1430267" lon="11.6259"><ele>6.333333333333334</ele><time>2026-04-12T06:38:39.566Z</time></trkpt><trkpt lat="45.1429933" lon="11.6258033"><ele>6.0</ele><time>2026-04-12T06:38:40.565Z</time></trkpt><trkpt lat="45.1429617" lon="11.62571"><ele>5.666666666666667</ele><time>2026-04-12T06:38:41.57Z</time></trkpt><trkpt lat="45.1429283" lon="11.625615"><ele>5.333333333333334</ele><time>2026-04-12T06:38:42.569Z</time></trkpt><trkpt lat="45.1429" lon="11.6255183"><ele>5.0</ele><time>2026-04-12T06:38:43.568Z</time></trkpt><trkpt lat="45.1428733" lon="11.6254167"><ele>5.166666666666667</ele><time>2026-04-12T06:38:44.569Z</time></trkpt><trkpt lat="45.1428533" lon="11.6253117"><ele>5.333333333333334</ele><time>2026-04-12T06:38:45.562Z</time></trkpt><trkpt lat="45.1428367" lon="11.6252067"><ele>5.5</ele><time>2026-04-12T06:38:46.566Z</time></trkpt><trkpt lat="45.1428217" lon="11.6250967"><ele>5.666666666666667</ele><time>2026-04-12T06:38:47.566Z</time></trkpt><trkpt lat="45.1428167" lon="11.6249883"><ele>5.833333333333333</ele><time>2026-04-12T06:38:48.567Z</time></trkpt><trkpt lat="45.1428167" lon="11.6248833"><ele>6.0</ele><time>2026-04-12T06:38:49.569Z</time></trkpt><trkpt lat="45.1428217" lon="11.624775"><ele>6.0</ele><time>2026-04-12T06:38:50.57Z</time></trkpt><trkpt lat="45.1428317" lon="11.6246683"><ele>6.0</ele><time>2026-04-12T06:38:51.566Z</time></trkpt><trkpt lat="45.142845" lon="11.6245633"><ele>6.0</ele><time>2026-04-12T06:38:52.569Z</time></trkpt><trkpt lat="45.14286" lon="11.6244583"><ele>6.0</ele><time>2026-04-12T06:38:53.571Z</time></trkpt><trkpt lat="45.142875" lon="11.624355"><ele>6.0</ele><time>2026-04-12T06:38:54.545Z</time></trkpt><trkpt lat="45.14289" lon="11.6242517"><ele>6.0</ele><time>2026-04-12T06:38:55.572Z</time></trkpt><trkpt lat="45.1429067" lon="11.6241483"><ele>6.0</ele><time>2026-04-12T06:38:56.565Z</time></trkpt><trkpt lat="45.14292" lon="11.6240433"><ele>6.0</ele><time>2026-04-12T06:38:57.57Z</time></trkpt><trkpt lat="45.1429317" lon="11.6239367"><ele>6.0</ele><time>2026-04-12T06:38:58.577Z</time></trkpt><trkpt lat="45.1429433" lon="11.6238317"><ele>6.0</ele><time>2026-04-12T06:38:59.572Z</time></trkpt><trkpt lat="45.142955" lon="11.623725"><ele>6.0</ele><time>2026-04-12T06:39:00.567Z</time></trkpt><trkpt lat="45.14296" lon="11.6236167"><ele>6.0</ele><time>2026-04-12T06:39:01.566Z</time></trkpt><trkpt lat="45.142965" lon="11.6235083"><ele>5.857142857142857</ele><time>2026-04-12T06:39:02.571Z</time></trkpt><trkpt lat="45.142965" lon="11.6234"><ele>5.714285714285714</ele><time>2026-04-12T06:39:03.57Z</time></trkpt><trkpt lat="45.1429633" lon="11.6232933"><ele>5.571428571428571</ele><time>2026-04-12T06:39:04.567Z</time></trkpt><trkpt lat="45.1429617" lon="11.6231883"><ele>5.428571428571429</ele><time>2026-04-12T06:39:05.569Z</time></trkpt><trkpt lat="45.1429617" lon="11.6230833"><ele>5.285714285714286</ele><time>2026-04-12T06:39:06.567Z</time></trkpt><trkpt lat="45.1429567" lon="11.6229783"><ele>5.142857142857142</ele><time>2026-04-12T06:39:07.566Z</time></trkpt><trkpt lat="45.1429517" lon="11.622875"><ele>5.0</ele><time>2026-04-12T06:39:08.564Z</time></trkpt><trkpt lat="45.1429483" lon="11.6227717"><ele>5.0</ele><time>2026-04-12T06:39:09.539Z</time></trkpt><trkpt lat="45.1429467" lon="11.6226633"><ele>5.0</ele><time>2026-04-12T06:39:10.538Z</time></trkpt><trkpt lat="45.142945" lon="11.622555"><ele>5.0</ele><time>2026-04-12T06:39:11.563Z</time></trkpt><trkpt lat="45.14294" lon="11.62245"><ele>5.0</ele><time>2026-04-12T06:39:12.57Z</time></trkpt><trkpt lat="45.142935" lon="11.6223467"><ele>5.0</ele><time>2026-04-12T06:39:13.565Z</time></trkpt><trkpt lat="45.14293" lon="11.62224"><ele>5.0</ele><time>2026-04-12T06:39:14.564Z</time></trkpt><trkpt lat="45.1429217" lon="11.6221383"><ele>5.0</ele><time>2026-04-12T06:39:15.567Z</time></trkpt><trkpt lat="45.1429167" lon="11.6220367"><ele>5.0</ele><time>2026-04-12T06:39:16.551Z</time></trkpt><trkpt lat="45.142915" lon="11.6219367"><ele>5.0</ele><time>2026-04-12T06:39:17.56Z</time></trkpt><trkpt lat="45.1429133" lon="11.621835"><ele>5.0</ele><time>2026-04-12T06:39:18.566Z</time></trkpt><trkpt lat="45.142915" lon="11.6217317"><ele>5.0</ele><time>2026-04-12T06:39:19.555Z</time></trkpt><trkpt lat="45.14292" lon="11.62163"><ele>5.0</ele><time>2026-04-12T06:39:20.534Z</time></trkpt><trkpt lat="45.1429283" lon="11.6215267"><ele>5.0</ele><time>2026-04-12T06:39:21.562Z</time></trkpt><trkpt lat="45.1429417" lon="11.6214233"><ele>5.0</ele><time>2026-04-12T06:39:22.561Z</time></trkpt><trkpt lat="45.1429533" lon="11.62132"><ele>5.0</ele><time>2026-04-12T06:39:23.563Z</time></trkpt><trkpt lat="45.1429633" lon="11.6212167"><ele>5.0</ele><time>2026-04-12T06:39:24.565Z</time></trkpt><trkpt lat="45.1429733" lon="11.621115"><ele>5.0</ele><time>2026-04-12T06:39:25.56Z</time></trkpt><trkpt lat="45.1429883" lon="11.6210133"><ele>5.0</ele><time>2026-04-12T06:39:26.571Z</time></trkpt><trkpt lat="45.143005" lon="11.6209133"><ele>5.0</ele><time>2026-04-12T06:39:27.565Z</time></trkpt><trkpt lat="45.1430233" lon="11.6208117"><ele>5.0</ele><time>2026-04-12T06:39:28.574Z</time></trkpt><trkpt lat="45.14304" lon="11.620715"><ele>5.0</ele><time>2026-04-12T06:39:29.557Z</time></trkpt><trkpt lat="45.143055" lon="11.6206167"><ele>5.0</ele><time>2026-04-12T06:39:30.565Z</time></trkpt><trkpt lat="45.1430717" lon="11.620515"><ele>5.0</ele><time>2026-04-12T06:39:31.567Z</time></trkpt><trkpt lat="45.1430917" lon="11.6204183"><ele>5.0</ele><time>2026-04-12T06:39:32.565Z</time></trkpt><trkpt lat="45.14311" lon="11.62032"><ele>5.0</ele><time>2026-04-12T06:39:33.566Z</time></trkpt><trkpt lat="45.1431333" lon="11.6202233"><ele>5.0</ele><time>2026-04-12T06:39:34.555Z</time></trkpt><trkpt lat="45.1431533" lon="11.6201283"><ele>5.0</ele><time>2026-04-12T06:39:35.564Z</time></trkpt><trkpt lat="45.143175" lon="11.6200333"><ele>5.0</ele><time>2026-04-12T06:39:36.574Z</time></trkpt><trkpt lat="45.1432033" lon="11.6199433"><ele>5.0</ele><time>2026-04-12T06:39:37.568Z</time></trkpt><trkpt lat="45.1432367" lon="11.6198567"><ele>5.0</ele><time>2026-04-12T06:39:38.568Z</time></trkpt><trkpt lat="45.1432767" lon="11.6197733"><ele>5.0</ele><time>2026-04-12T06:39:39.562Z</time></trkpt><trkpt lat="45.14332" lon="11.6196967"><ele>5.0</ele><time>2026-04-12T06:39:40.561Z</time></trkpt><trkpt lat="45.1433683" lon="11.6196233"><ele>5.0</ele><time>2026-04-12T06:39:41.545Z</time></trkpt><trkpt lat="45.1434167" lon="11.6195517"><ele>5.0</ele><time>2026-04-12T06:39:42.561Z</time></trkpt><trkpt lat="45.1434667" lon="11.6194833"><ele>5.0</ele><time>2026-04-12T06:39:43.569Z</time></trkpt><trkpt lat="45.1435183" lon="11.6194183"><ele>5.0</ele><time>2026-04-12T06:39:44.568Z</time></trkpt><trkpt lat="45.14357" lon="11.6193517"><ele>5.0</ele><time>2026-04-12T06:39:45.57Z</time></trkpt><trkpt lat="45.1436217" lon="11.6192867"><ele>5.0</ele><time>2026-04-12T06:39:46.571Z</time></trkpt><trkpt lat="45.143675" lon="11.6192233"><ele>5.0</ele><time>2026-04-12T06:39:47.564Z</time></trkpt><trkpt lat="45.14373" lon="11.6191567"><ele>5.0</ele><time>2026-04-12T06:39:48.568Z</time></trkpt><trkpt lat="45.143785" lon="11.6190917"><ele>5.0</ele><time>2026-04-12T06:39:49.574Z</time></trkpt><trkpt lat="45.1438383" lon="11.6190267"><ele>5.0</ele><time>2026-04-12T06:39:50.568Z</time></trkpt><trkpt lat="45.1438917" lon="11.6189583"><ele>5.0</ele><time>2026-04-12T06:39:51.566Z</time></trkpt><trkpt lat="45.143945" lon="11.61889"><ele>5.0</ele><time>2026-04-12T06:39:52.557Z</time></trkpt><trkpt lat="45.1440017" lon="11.618825"><ele>5.0</ele><time>2026-04-12T06:39:53.563Z</time></trkpt><trkpt lat="45.1440567" lon="11.61876"><ele>5.0</ele><time>2026-04-12T06:39:54.56Z</time></trkpt><trkpt lat="45.14411" lon="11.6186933"><ele>5.0</ele><time>2026-04-12T06:39:55.562Z</time></trkpt><trkpt lat="45.1441633" lon="11.618625"><ele>5.0</ele><time>2026-04-12T06:39:56.567Z</time></trkpt><trkpt lat="45.1442183" lon="11.6185567"><ele>5.0</ele><time>2026-04-12T06:39:57.565Z</time></trkpt><trkpt lat="45.1442733" lon="11.6184867"><ele>5.333333333333334</ele><time>2026-04-12T06:39:58.566Z</time></trkpt><trkpt lat="45.1443267" lon="11.6184117"><ele>5.666666666666667</ele><time>2026-04-12T06:39:59.564Z</time></trkpt><trkpt lat="45.1443833" lon="11.6183367"><ele>6.0</ele><time>2026-04-12T06:40:00.552Z</time></trkpt><trkpt lat="45.14444" lon="11.61826"><ele>6.333333333333334</ele><time>2026-04-12T06:40:01.565Z</time></trkpt><trkpt lat="45.1444967" lon="11.6181783"><ele>6.666666666666667</ele><time>2026-04-12T06:40:02.554Z</time></trkpt><trkpt lat="45.14455" lon="11.6180983"><ele>7.0</ele><time>2026-04-12T06:40:03.569Z</time></trkpt><trkpt lat="45.1445917" lon="11.618015"><ele>7.0</ele><time>2026-04-12T06:40:04.577Z</time></trkpt><trkpt lat="45.1446317" lon="11.6179267"><ele>7.0</ele><time>2026-04-12T06:40:05.544Z</time></trkpt><trkpt lat="45.144665" lon="11.617835"><ele>7.0</ele><time>2026-04-12T06:40:06.566Z</time></trkpt><trkpt lat="45.144695" lon="11.6177383"><ele>7.0</ele><time>2026-04-12T06:40:07.559Z</time></trkpt><trkpt lat="45.14472" lon="11.6176367"><ele>7.0</ele><time>2026-04-12T06:40:08.572Z</time></trkpt><trkpt lat="45.1447383" lon="11.6175317"><ele>7.0</ele><time>2026-04-12T06:40:09.567Z</time></trkpt><trkpt lat="45.1447467" lon="11.6174283"><ele>7.0</ele><time>2026-04-12T06:40:10.55Z</time></trkpt><trkpt lat="45.14475" lon="11.6173233"><ele>6.857142857142857</ele><time>2026-04-12T06:40:11.561Z</time></trkpt><trkpt lat="45.14475" lon="11.6172167"><ele>6.714285714285714</ele><time>2026-04-12T06:40:12.562Z</time></trkpt><trkpt lat="45.1447433" lon="11.6171117"><ele>6.571428571428571</ele><time>2026-04-12T06:40:13.565Z</time></trkpt><trkpt lat="45.1447283" lon="11.6170067"><ele>6.428571428571429</ele><time>2026-04-12T06:40:14.573Z</time></trkpt><trkpt lat="45.1447083" lon="11.616905"><ele>6.285714285714286</ele><time>2026-04-12T06:40:15.575Z</time></trkpt><trkpt lat="45.144685" lon="11.6168067"><ele>6.142857142857142</ele><time>2026-04-12T06:40:16.565Z</time></trkpt><trkpt lat="45.14466" lon="11.61671"><ele>6.0</ele><time>2026-04-12T06:40:17.572Z</time></trkpt><trkpt lat="45.1446283" lon="11.6166167"><ele>5.999999999999999</ele><time>2026-04-12T06:40:18.565Z</time></trkpt><trkpt lat="45.1445967" lon="11.6165267"><ele>6.0</ele><time>2026-04-12T06:40:19.566Z</time></trkpt><trkpt lat="45.1445633" lon="11.61644"><ele>6.0</ele><time>2026-04-12T06:40:20.565Z</time></trkpt><trkpt lat="45.14453" lon="11.6163567"><ele>6.0</ele><time>2026-04-12T06:40:21.569Z</time></trkpt><trkpt lat="45.144495" lon="11.6162717"><ele>6.0</ele><time>2026-04-12T06:40:22.568Z</time></trkpt><trkpt lat="45.1444633" lon="11.6161867"><ele>5.999999999999999</ele><time>2026-04-12T06:40:23.562Z</time></trkpt><trkpt lat="45.1444283" lon="11.6161017"><ele>6.0</ele><time>2026-04-12T06:40:24.562Z</time></trkpt><trkpt lat="45.1443967" lon="11.6160117"><ele>6.285714285714285</ele><time>2026-04-12T06:40:25.549Z</time></trkpt><trkpt lat="45.1443617" lon="11.6159233"><ele>6.571428571428571</ele><time>2026-04-12T06:40:26.558Z</time></trkpt><trkpt lat="45.14433" lon="11.61583"><ele>6.857142857142857</ele><time>2026-04-12T06:40:27.559Z</time></trkpt><trkpt lat="45.1442983" lon="11.6157333"><ele>7.142857142857142</ele><time>2026-04-12T06:40:28.534Z</time></trkpt><trkpt lat="45.1442717" lon="11.615635"><ele>7.428571428571428</ele><time>2026-04-12T06:40:29.565Z</time></trkpt><trkpt lat="45.1442517" lon="11.6155317"><ele>7.7142857142857135</ele><time>2026-04-12T06:40:30.572Z</time></trkpt><trkpt lat="45.144235" lon="11.6154283"><ele>8.0</ele><time>2026-04-12T06:40:31.565Z</time></trkpt><trkpt lat="45.1442267" lon="11.6153233"><ele>8.0</ele><time>2026-04-12T06:40:32.562Z</time></trkpt><trkpt lat="45.1442283" lon="11.6152183"><ele>7.999999999999999</ele><time>2026-04-12T06:40:33.566Z</time></trkpt><trkpt lat="45.1442383" lon="11.61511"><ele>8.0</ele><time>2026-04-12T06:40:34.534Z</time></trkpt><trkpt lat="45.14426" lon="11.61501"><ele>8.0</ele><time>2026-04-12T06:40:35.565Z</time></trkpt><trkpt lat="45.1442883" lon="11.614915"><ele>7.999999999999999</ele><time>2026-04-12T06:40:36.571Z</time></trkpt><trkpt lat="45.144325" lon="11.6148267"><ele>8.0</ele><time>2026-04-12T06:40:37.564Z</time></trkpt><trkpt lat="45.1443667" lon="11.6147383"><ele>8.0</ele><time>2026-04-12T06:40:38.564Z</time></trkpt><trkpt lat="45.14441" lon="11.614655"><ele>8.0</ele><time>2026-04-12T06:40:39.57Z</time></trkpt><trkpt lat="45.1444567" lon="11.6145783"><ele>7.999999999999999</ele><time>2026-04-12T06:40:40.57Z</time></trkpt><trkpt lat="45.1445083" lon="11.6145083"><ele>8.0</ele><time>2026-04-12T06:40:41.57Z</time></trkpt><trkpt lat="45.1445617" lon="11.6144467"><ele>8.0</ele><time>2026-04-12T06:40:42.562Z</time></trkpt><trkpt lat="45.14462" lon="11.6143933"><ele>7.999999999999999</ele><time>2026-04-12T06:40:43.567Z</time></trkpt><trkpt lat="45.1446817" lon="11.6143483"><ele>8.0</ele><time>2026-04-12T06:40:44.573Z</time></trkpt><trkpt lat="45.1447483" lon="11.6143067"><ele>8.0</ele><time>2026-04-12T06:40:45.57Z</time></trkpt><trkpt lat="45.1448167" lon="11.6142683"><ele>8.0</ele><time>2026-04-12T06:40:46.559Z</time></trkpt><trkpt lat="45.1448833" lon="11.614235"><ele>7.999999999999999</ele><time>2026-04-12T06:40:47.56Z</time></trkpt><trkpt lat="45.1449517" lon="11.61421"><ele>8.0</ele><time>2026-04-12T06:40:48.57Z</time></trkpt><trkpt lat="45.1450233" lon="11.61419"><ele>8.0</ele><time>2026-04-12T06:40:49.573Z</time></trkpt><trkpt lat="45.145095" lon="11.6141817"><ele>7.999999999999999</ele><time>2026-04-12T06:40:50.574Z</time></trkpt><trkpt lat="45.145165" lon="11.61418"><ele>8.0</ele><time>2026-04-12T06:40:51.566Z</time></trkpt><trkpt lat="45.145235" lon="11.6141833"><ele>8.0</ele><time>2026-04-12T06:40:52.566Z</time></trkpt><trkpt lat="45.1453067" lon="11.6141833"><ele>8.0</ele><time>2026-04-12T06:40:53.566Z</time></trkpt><trkpt lat="45.1453783" lon="11.6141833"><ele>7.999999999999999</ele><time>2026-04-12T06:40:54.545Z</time></trkpt><trkpt lat="45.1454483" lon="11.6141833"><ele>8.0</ele><time>2026-04-12T06:40:55.567Z</time></trkpt><trkpt lat="45.14552" lon="11.6141767"><ele>8.0</ele><time>2026-04-12T06:40:56.572Z</time></trkpt><trkpt lat="45.1455917" lon="11.6141667"><ele>7.999999999999999</ele><time>2026-04-12T06:40:57.568Z</time></trkpt><trkpt lat="45.1456667" lon="11.61415"><ele>8.0</ele><time>2026-04-12T06:40:58.553Z</time></trkpt><trkpt lat="45.14574" lon="11.6141283"><ele>8.0</ele><time>2026-04-12T06:40:59.56Z</time></trkpt><trkpt lat="45.1458117" lon="11.6140967"><ele>7.857142857142857</ele><time>2026-04-12T06:41:00.566Z</time></trkpt><trkpt lat="45.1458817" lon="11.6140517"><ele>7.7142857142857135</ele><time>2026-04-12T06:41:01.57Z</time></trkpt><trkpt lat="45.1459467" lon="11.6139967"><ele>7.571428571428571</ele><time>2026-04-12T06:41:02.571Z</time></trkpt><trkpt lat="45.14601" lon="11.6139367"><ele>7.428571428571429</ele><time>2026-04-12T06:41:03.581Z</time></trkpt><trkpt lat="45.1460667" lon="11.6138733"><ele>7.285714285714286</ele><time>2026-04-12T06:41:04.572Z</time></trkpt><trkpt lat="45.1461183" lon="11.6138067"><ele>7.142857142857142</ele><time>2026-04-12T06:41:05.571Z</time></trkpt><trkpt lat="45.1461667" lon="11.6137333"><ele>7.0</ele><time>2026-04-12T06:41:06.571Z</time></trkpt><trkpt lat="45.1462167" lon="11.6136567"><ele>7.000000000000001</ele><time>2026-04-12T06:41:07.572Z</time></trkpt><trkpt lat="45.1462683" lon="11.6135767"><ele>7.0</ele><time>2026-04-12T06:41:08.57Z</time></trkpt><trkpt lat="45.14632" lon="11.6135"><ele>7.0</ele><time>2026-04-12T06:41:09.564Z</time></trkpt><trkpt lat="45.1463733" lon="11.6134217"><ele>7.0</ele><time>2026-04-12T06:41:10.574Z</time></trkpt><trkpt lat="45.1464283" lon="11.6133433"><ele>7.000000000000001</ele><time>2026-04-12T06:41:11.563Z</time></trkpt><trkpt lat="45.1464833" lon="11.6132717"><ele>7.0</ele><time>2026-04-12T06:41:12.573Z</time></trkpt><trkpt lat="45.1465433" lon="11.6132067"><ele>6.833333333333334</ele><time>2026-04-12T06:41:13.558Z</time></trkpt><trkpt lat="45.146605" lon="11.6131467"><ele>6.666666666666667</ele><time>2026-04-12T06:41:14.566Z</time></trkpt><trkpt lat="45.14667" lon="11.613095"><ele>6.5</ele><time>2026-04-12T06:41:15.547Z</time></trkpt><trkpt lat="45.1467383" lon="11.6130533"><ele>6.333333333333334</ele><time>2026-04-12T06:41:16.559Z</time></trkpt><trkpt lat="45.14681" lon="11.61302"><ele>6.166666666666667</ele><time>2026-04-12T06:41:17.55Z</time></trkpt><trkpt lat="45.146885" lon="11.61299"><ele>6.0</ele><time>2026-04-12T06:41:18.568Z</time></trkpt><trkpt lat="45.1469567" lon="11.6129617"><ele>5.999999999999999</ele><time>2026-04-12T06:41:19.556Z</time></trkpt><trkpt lat="45.1470283" lon="11.61293"><ele>6.0</ele><time>2026-04-12T06:41:20.569Z</time></trkpt><trkpt lat="45.1470983" lon="11.6129017"><ele>6.0</ele><time>2026-04-12T06:41:21.573Z</time></trkpt><trkpt lat="45.1471683" lon="11.6128717"><ele>6.0</ele><time>2026-04-12T06:41:22.574Z</time></trkpt><trkpt lat="45.1472383" lon="11.6128383"><ele>6.0</ele><time>2026-04-12T06:41:23.563Z</time></trkpt><trkpt lat="45.147305" lon="11.6127967"><ele>5.999999999999999</ele><time>2026-04-12T06:41:24.571Z</time></trkpt><trkpt lat="45.1473683" lon="11.6127483"><ele>6.0</ele><time>2026-04-12T06:41:25.568Z</time></trkpt><trkpt lat="45.1474317" lon="11.6126917"><ele>5.999999999999999</ele><time>2026-04-12T06:41:26.569Z</time></trkpt><trkpt lat="45.1474917" lon="11.61263"><ele>6.0</ele><time>2026-04-12T06:41:27.569Z</time></trkpt><trkpt lat="45.1475483" lon="11.612565"><ele>6.0</ele><time>2026-04-12T06:41:28.566Z</time></trkpt><trkpt lat="45.1476033" lon="11.6125017"><ele>6.0</ele><time>2026-04-12T06:41:29.569Z</time></trkpt><trkpt lat="45.1476567" lon="11.6124367"><ele>6.0</ele><time>2026-04-12T06:41:30.57Z</time></trkpt><trkpt lat="45.1477083" lon="11.6123717"><ele>5.999999999999999</ele><time>2026-04-12T06:41:31.57Z</time></trkpt><trkpt lat="45.1477633" lon="11.61231"><ele>6.0</ele><time>2026-04-12T06:41:32.571Z</time></trkpt><trkpt lat="45.1478183" lon="11.6122483"><ele>5.999999999999999</ele><time>2026-04-12T06:41:33.57Z</time></trkpt><trkpt lat="45.1478767" lon="11.61219"><ele>6.0</ele><time>2026-04-12T06:41:34.568Z</time></trkpt><trkpt lat="45.1479333" lon="11.6121317"><ele>6.0</ele><time>2026-04-12T06:41:35.57Z</time></trkpt><trkpt lat="45.14799" lon="11.612075"><ele>6.0</ele><time>2026-04-12T06:41:36.547Z</time></trkpt><trkpt lat="45.1480533" lon="11.6120217"><ele>6.0</ele><time>2026-04-12T06:41:37.561Z</time></trkpt><trkpt lat="45.1481183" lon="11.6119717"><ele>5.999999999999999</ele><time>2026-04-12T06:41:38.577Z</time></trkpt><trkpt lat="45.1481867" lon="11.6119267"><ele>6.0</ele><time>2026-04-12T06:41:39.565Z</time></trkpt><trkpt lat="45.14826" lon="11.61189"><ele>6.0</ele><time>2026-04-12T06:41:40.57Z</time></trkpt><trkpt lat="45.1483317" lon="11.6118583"><ele>6.0</ele><time>2026-04-12T06:41:41.567Z</time></trkpt><trkpt lat="45.148405" lon="11.611825"><ele>6.0</ele><time>2026-04-12T06:41:42.557Z</time></trkpt><trkpt lat="45.1484783" lon="11.611795"><ele>6.0</ele><time>2026-04-12T06:41:43.567Z</time></trkpt><trkpt lat="45.1485517" lon="11.6117667"><ele>6.0</ele><time>2026-04-12T06:41:44.568Z</time></trkpt><trkpt lat="45.1486233" lon="11.61174"><ele>6.0</ele><time>2026-04-12T06:41:45.568Z</time></trkpt><trkpt lat="45.1486917" lon="11.6117117"><ele>5.999999999999999</ele><time>2026-04-12T06:41:46.565Z</time></trkpt><trkpt lat="45.1487583" lon="11.6116817"><ele>6.0</ele><time>2026-04-12T06:41:47.571Z</time></trkpt><trkpt lat="45.1488233" lon="11.611655"><ele>6.0</ele><time>2026-04-12T06:41:48.565Z</time></trkpt><trkpt lat="45.1488883" lon="11.6116267"><ele>6.0</ele><time>2026-04-12T06:41:49.563Z</time></trkpt><trkpt lat="45.1489517" lon="11.6115917"><ele>6.0</ele><time>2026-04-12T06:41:50.566Z</time></trkpt><trkpt lat="45.1490133" lon="11.61155"><ele>5.999999999999999</ele><time>2026-04-12T06:41:51.568Z</time></trkpt><trkpt lat="45.1490733" lon="11.6115017"><ele>6.0</ele><time>2026-04-12T06:41:52.561Z</time></trkpt><trkpt lat="45.14913" lon="11.6114483"><ele>5.999999999999999</ele><time>2026-04-12T06:41:53.56Z</time></trkpt><trkpt lat="45.149185" lon="11.61139"><ele>6.0</ele><time>2026-04-12T06:41:54.568Z</time></trkpt><trkpt lat="45.1492367" lon="11.6113267"><ele>6.0</ele><time>2026-04-12T06:41:55.568Z</time></trkpt><trkpt lat="45.1492883" lon="11.6112617"><ele>6.0</ele><time>2026-04-12T06:41:56.568Z</time></trkpt><trkpt lat="45.1493417" lon="11.6111967"><ele>6.0</ele><time>2026-04-12T06:41:57.572Z</time></trkpt><trkpt lat="45.1493967" lon="11.6111317"><ele>5.999999999999999</ele><time>2026-04-12T06:41:58.566Z</time></trkpt><trkpt lat="45.149455" lon="11.6110683"><ele>6.0</ele><time>2026-04-12T06:41:59.567Z</time></trkpt><trkpt lat="45.1495117" lon="11.6110117"><ele>5.999999999999999</ele><time>2026-04-12T06:42:00.572Z</time></trkpt><trkpt lat="45.1495733" lon="11.61096"><ele>6.0</ele><time>2026-04-12T06:42:01.564Z</time></trkpt><trkpt lat="45.1496367" lon="11.6109167"><ele>6.0</ele><time>2026-04-12T06:42:02.543Z</time></trkpt><trkpt lat="45.149705" lon="11.610885"><ele>6.0</ele><time>2026-04-12T06:42:03.564Z</time></trkpt><trkpt lat="45.1497767" lon="11.6108667"><ele>6.0</ele><time>2026-04-12T06:42:04.573Z</time></trkpt><trkpt lat="45.1498483" lon="11.6108617"><ele>5.999999999999999</ele><time>2026-04-12T06:42:05.564Z</time></trkpt><trkpt lat="45.14992" lon="11.6108717"><ele>6.0</ele><time>2026-04-12T06:42:06.568Z</time></trkpt><trkpt lat="45.1499883" lon="11.6109033"><ele>6.142857142857142</ele><time>2026-04-12T06:42:07.571Z</time></trkpt><trkpt lat="45.1500517" lon="11.6109483"><ele>6.285714285714286</ele><time>2026-04-12T06:42:08.567Z</time></trkpt><trkpt lat="45.1501133" lon="11.6109983"><ele>6.428571428571429</ele><time>2026-04-12T06:42:09.57Z</time></trkpt><trkpt lat="45.1501717" lon="11.6110533"><ele>6.571428571428571</ele><time>2026-04-12T06:42:10.572Z</time></trkpt><trkpt lat="45.1502267" lon="11.6111083"><ele>6.714285714285714</ele><time>2026-04-12T06:42:11.568Z</time></trkpt><trkpt lat="45.1502817" lon="11.6111683"><ele>6.857142857142857</ele><time>2026-04-12T06:42:12.571Z</time></trkpt><trkpt lat="45.150335" lon="11.61123"><ele>7.0</ele><time>2026-04-12T06:42:13.569Z</time></trkpt><trkpt lat="45.1503867" lon="11.6112883"><ele>7.0</ele><time>2026-04-12T06:42:14.568Z</time></trkpt><trkpt lat="45.15044" lon="11.6113483"><ele>7.0</ele><time>2026-04-12T06:42:15.569Z</time></trkpt><trkpt lat="45.1504917" lon="11.61141"><ele>7.0</ele><time>2026-04-12T06:42:16.57Z</time></trkpt><trkpt lat="45.1505433" lon="11.6114733"><ele>7.0</ele><time>2026-04-12T06:42:17.568Z</time></trkpt><trkpt lat="45.1505967" lon="11.6115367"><ele>7.0</ele><time>2026-04-12T06:42:18.566Z</time></trkpt><trkpt lat="45.1506483" lon="11.6115983"><ele>7.0</ele><time>2026-04-12T06:42:19.553Z</time></trkpt><trkpt lat="45.1507" lon="11.6116567"><ele>7.0</ele><time>2026-04-12T06:42:20.577Z</time></trkpt><trkpt lat="45.15075" lon="11.6117133"><ele>7.0</ele><time>2026-04-12T06:42:21.585Z</time></trkpt><trkpt lat="45.1508533" lon="11.6118217"><ele>6.999999999999999</ele><time>2026-04-12T06:42:23.606Z</time></trkpt><trkpt lat="45.15091" lon="11.6118733"><ele>6.999999999999999</ele><time>2026-04-12T06:42:24.531Z</time></trkpt><trkpt lat="45.1510317" lon="11.6119567"><ele>7.0</ele><time>2026-04-12T06:42:26.551Z</time></trkpt><trkpt lat="45.1511033" lon="11.61199"><ele>7.0</ele><time>2026-04-12T06:42:27.554Z</time></trkpt><trkpt lat="45.1511733" lon="11.6120117"><ele>7.000000000000001</ele><time>2026-04-12T06:42:28.543Z</time></trkpt><trkpt lat="45.1512467" lon="11.6120267"><ele>7.0</ele><time>2026-04-12T06:42:29.528Z</time></trkpt><trkpt lat="45.151325" lon="11.6120317"><ele>7.0</ele><time>2026-04-12T06:42:30.557Z</time></trkpt><trkpt lat="45.1514" lon="11.6120317"><ele>7.0</ele><time>2026-04-12T06:42:31.537Z</time></trkpt><trkpt lat="45.1514867" lon="11.6120217"><ele>7.000000000000001</ele><time>2026-04-12T06:42:32.564Z</time></trkpt><trkpt lat="45.15158" lon="11.61202"><ele>7.0</ele><time>2026-04-12T06:42:33.566Z</time></trkpt><trkpt lat="45.151655" lon="11.6120183"><ele>6.833333333333334</ele><time>2026-04-12T06:42:34.563Z</time></trkpt><trkpt lat="45.1517267" lon="11.6120117"><ele>6.666666666666667</ele><time>2026-04-12T06:42:35.576Z</time></trkpt><trkpt lat="45.1518033" lon="11.61201"><ele>6.5</ele><time>2026-04-12T06:42:36.568Z</time></trkpt><trkpt lat="45.15188" lon="11.61201"><ele>6.333333333333334</ele><time>2026-04-12T06:42:37.568Z</time></trkpt><trkpt lat="45.1519567" lon="11.6120133"><ele>6.166666666666667</ele><time>2026-04-12T06:42:38.567Z</time></trkpt><trkpt lat="45.152035" lon="11.6120167"><ele>6.0</ele><time>2026-04-12T06:42:39.568Z</time></trkpt><trkpt lat="45.1521117" lon="11.6120183"><ele>5.999999999999999</ele><time>2026-04-12T06:42:40.632Z</time></trkpt><trkpt lat="45.1521817" lon="11.6120083"><ele>6.0</ele><time>2026-04-12T06:42:41.59Z</time></trkpt><trkpt lat="45.1522483" lon="11.6120117"><ele>6.0</ele><time>2026-04-12T06:42:42.57Z</time></trkpt><trkpt lat="45.15232" lon="11.6120383"><ele>6.0</ele><time>2026-04-12T06:42:43.599Z</time></trkpt><trkpt lat="45.152385" lon="11.612075"><ele>6.0</ele><time>2026-04-12T06:42:44.523Z</time></trkpt><trkpt lat="45.1524517" lon="11.61208"><ele>5.999999999999999</ele><time>2026-04-12T06:42:45.531Z</time></trkpt><trkpt lat="45.1525267" lon="11.612135"><ele>6.0</ele><time>2026-04-12T06:42:46.534Z</time></trkpt><trkpt lat="45.152595" lon="11.6121683"><ele>6.142857142857142</ele><time>2026-04-12T06:42:47.551Z</time></trkpt><trkpt lat="45.15266" lon="11.6122067"><ele>6.285714285714286</ele><time>2026-04-12T06:42:48.549Z</time></trkpt><trkpt lat="45.1527233" lon="11.6122433"><ele>6.428571428571429</ele><time>2026-04-12T06:42:49.547Z</time></trkpt><trkpt lat="45.152785" lon="11.612285"><ele>6.571428571428571</ele><time>2026-04-12T06:42:50.553Z</time></trkpt><trkpt lat="45.1528517" lon="11.612335"><ele>6.714285714285714</ele><time>2026-04-12T06:42:51.557Z</time></trkpt><trkpt lat="45.1529183" lon="11.6123867"><ele>6.857142857142857</ele><time>2026-04-12T06:42:52.547Z</time></trkpt><trkpt lat="45.152985" lon="11.6124317"><ele>7.0</ele><time>2026-04-12T06:42:53.548Z</time></trkpt><trkpt lat="45.1530517" lon="11.6124733"><ele>7.0</ele><time>2026-04-12T06:42:54.551Z</time></trkpt><trkpt lat="45.1531183" lon="11.612525"><ele>7.0</ele><time>2026-04-12T06:42:55.576Z</time></trkpt><trkpt lat="45.15318" lon="11.61258"><ele>7.0</ele><time>2026-04-12T06:42:56.576Z</time></trkpt><trkpt lat="45.153245" lon="11.6126333"><ele>7.0</ele><time>2026-04-12T06:42:57.579Z</time></trkpt><trkpt lat="45.1533083" lon="11.61268"><ele>7.0</ele><time>2026-04-12T06:42:58.578Z</time></trkpt><trkpt lat="45.1533717" lon="11.6127233"><ele>7.0</ele><time>2026-04-12T06:42:59.556Z</time></trkpt><trkpt lat="45.1534367" lon="11.6127717"><ele>7.0</ele><time>2026-04-12T06:43:00.57Z</time></trkpt><trkpt lat="45.1535" lon="11.6128283"><ele>6.857142857142857</ele><time>2026-04-12T06:43:01.555Z</time></trkpt><trkpt lat="45.153565" lon="11.61289"><ele>6.714285714285714</ele><time>2026-04-12T06:43:02.597Z</time></trkpt><trkpt lat="45.1536217" lon="11.6129533"><ele>6.571428571428571</ele><time>2026-04-12T06:43:03.533Z</time></trkpt><trkpt lat="45.153675" lon="11.61302"><ele>6.428571428571429</ele><time>2026-04-12T06:43:04.551Z</time></trkpt><trkpt lat="45.1537283" lon="11.613085"><ele>6.285714285714286</ele><time>2026-04-12T06:43:05.553Z</time></trkpt><trkpt lat="45.1537883" lon="11.6131417"><ele>6.142857142857142</ele><time>2026-04-12T06:43:06.546Z</time></trkpt><trkpt lat="45.1538517" lon="11.6132033"><ele>6.0</ele><time>2026-04-12T06:43:07.55Z</time></trkpt><trkpt lat="45.15392" lon="11.6132667"><ele>6.0</ele><time>2026-04-12T06:43:08.544Z</time></trkpt><trkpt lat="45.1539867" lon="11.6133167"><ele>6.0</ele><time>2026-04-12T06:43:09.566Z</time></trkpt><trkpt lat="45.1540633" lon="11.6133483"><ele>6.0</ele><time>2026-04-12T06:43:10.571Z</time></trkpt><trkpt lat="45.154135" lon="11.6133883"><ele>6.0</ele><time>2026-04-12T06:43:11.554Z</time></trkpt><trkpt lat="45.1542033" lon="11.6134333"><ele>6.0</ele><time>2026-04-12T06:43:12.561Z</time></trkpt><trkpt lat="45.1542733" lon="11.6134733"><ele>6.0</ele><time>2026-04-12T06:43:13.576Z</time></trkpt><trkpt lat="45.154345" lon="11.6135"><ele>6.5</ele><time>2026-04-12T06:43:14.568Z</time></trkpt><trkpt lat="45.1544217" lon="11.6135267"><ele>7.0</ele><time>2026-04-12T06:43:15.57Z</time></trkpt><trkpt lat="45.1544967" lon="11.6135483"><ele>7.5</ele><time>2026-04-12T06:43:16.573Z</time></trkpt><trkpt lat="45.1545733" lon="11.6135667"><ele>8.0</ele><time>2026-04-12T06:43:17.575Z</time></trkpt><trkpt lat="45.1546467" lon="11.613585"><ele>8.5</ele><time>2026-04-12T06:43:18.578Z</time></trkpt><trkpt lat="45.1547183" lon="11.6136033"><ele>9.0</ele><time>2026-04-12T06:43:19.563Z</time></trkpt><trkpt lat="45.1547883" lon="11.613625"><ele>9.0</ele><time>2026-04-12T06:43:20.547Z</time></trkpt><trkpt lat="45.15486" lon="11.6136517"><ele>9.0</ele><time>2026-04-12T06:43:21.551Z</time></trkpt><trkpt lat="45.15493" lon="11.6136867"><ele>9.0</ele><time>2026-04-12T06:43:22.537Z</time></trkpt><trkpt lat="45.1550017" lon="11.61373"><ele>9.0</ele><time>2026-04-12T06:43:23.556Z</time></trkpt><trkpt lat="45.1550683" lon="11.61378"><ele>9.0</ele><time>2026-04-12T06:43:24.576Z</time></trkpt><trkpt lat="45.155135" lon="11.6138333"><ele>9.0</ele><time>2026-04-12T06:43:25.576Z</time></trkpt><trkpt lat="45.1552" lon="11.61389"><ele>8.714285714285715</ele><time>2026-04-12T06:43:26.568Z</time></trkpt><trkpt lat="45.155265" lon="11.6139433"><ele>8.428571428571429</ele><time>2026-04-12T06:43:27.567Z</time></trkpt><trkpt lat="45.1553267" lon="11.6139967"><ele>8.142857142857142</ele><time>2026-04-12T06:43:28.571Z</time></trkpt><trkpt lat="45.1553867" lon="11.6140483"><ele>7.857142857142858</ele><time>2026-04-12T06:43:29.558Z</time></trkpt><trkpt lat="45.1554517" lon="11.6140983"><ele>7.571428571428571</ele><time>2026-04-12T06:43:30.575Z</time></trkpt><trkpt lat="45.155515" lon="11.614145"><ele>7.285714285714286</ele><time>2026-04-12T06:43:31.573Z</time></trkpt><trkpt lat="45.1555783" lon="11.6141933"><ele>7.0</ele><time>2026-04-12T06:43:32.582Z</time></trkpt><trkpt lat="45.1556433" lon="11.6142417"><ele>6.833333333333334</ele><time>2026-04-12T06:43:33.548Z</time></trkpt><trkpt lat="45.1557117" lon="11.614285"><ele>6.666666666666667</ele><time>2026-04-12T06:43:34.569Z</time></trkpt><trkpt lat="45.1557833" lon="11.6143217"><ele>6.5</ele><time>2026-04-12T06:43:35.578Z</time></trkpt><trkpt lat="45.1558583" lon="11.6143533"><ele>6.333333333333334</ele><time>2026-04-12T06:43:36.542Z</time></trkpt><trkpt lat="45.155935" lon="11.6143867"><ele>6.166666666666667</ele><time>2026-04-12T06:43:37.564Z</time></trkpt><trkpt lat="45.1560117" lon="11.6144133"><ele>6.0</ele><time>2026-04-12T06:43:38.537Z</time></trkpt><trkpt lat="45.1560883" lon="11.6144317"><ele>6.0</ele><time>2026-04-12T06:43:39.574Z</time></trkpt><trkpt lat="45.156165" lon="11.6144433"><ele>6.0</ele><time>2026-04-12T06:43:40.575Z</time></trkpt><trkpt lat="45.156245" lon="11.6144483"><ele>6.0</ele><time>2026-04-12T06:43:41.548Z</time></trkpt><trkpt lat="45.1563267" lon="11.6144533"><ele>6.0</ele><time>2026-04-12T06:43:42.577Z</time></trkpt><trkpt lat="45.1564067" lon="11.61446"><ele>6.0</ele><time>2026-04-12T06:43:43.561Z</time></trkpt><trkpt lat="45.156485" lon="11.61447"><ele>6.0</ele><time>2026-04-12T06:43:44.569Z</time></trkpt><trkpt lat="45.1565617" lon="11.61448"><ele>6.333333333333333</ele><time>2026-04-12T06:43:45.572Z</time></trkpt><trkpt lat="45.1566367" lon="11.6144983"><ele>6.666666666666666</ele><time>2026-04-12T06:43:46.551Z</time></trkpt><trkpt lat="45.1567117" lon="11.6145267"><ele>7.0</ele><time>2026-04-12T06:43:47.535Z</time></trkpt><trkpt lat="45.1567833" lon="11.6145683"><ele>7.333333333333333</ele><time>2026-04-12T06:43:48.566Z</time></trkpt><trkpt lat="45.1568483" lon="11.614625"><ele>7.666666666666666</ele><time>2026-04-12T06:43:49.565Z</time></trkpt><trkpt lat="45.1569067" lon="11.614695"><ele>8.0</ele><time>2026-04-12T06:43:50.579Z</time></trkpt><trkpt lat="45.1569617" lon="11.614775"><ele>7.999999999999999</ele><time>2026-04-12T06:43:51.567Z</time></trkpt><trkpt lat="45.1570083" lon="11.6148633"><ele>8.0</ele><time>2026-04-12T06:43:52.568Z</time></trkpt><trkpt lat="45.1570533" lon="11.61496"><ele>8.0</ele><time>2026-04-12T06:43:53.567Z</time></trkpt><trkpt lat="45.157095" lon="11.6150567"><ele>8.0</ele><time>2026-04-12T06:43:54.573Z</time></trkpt><trkpt lat="45.1571317" lon="11.6151533"><ele>7.999999999999999</ele><time>2026-04-12T06:43:55.569Z</time></trkpt><trkpt lat="45.1571683" lon="11.6152467"><ele>8.0</ele><time>2026-04-12T06:43:56.571Z</time></trkpt><trkpt lat="45.1572017" lon="11.6153417"><ele>7.857142857142857</ele><time>2026-04-12T06:43:57.566Z</time></trkpt><trkpt lat="45.1572333" lon="11.6154383"><ele>7.7142857142857135</ele><time>2026-04-12T06:43:58.561Z</time></trkpt><trkpt lat="45.1572633" lon="11.6155333"><ele>7.571428571428571</ele><time>2026-04-12T06:43:59.559Z</time></trkpt><trkpt lat="45.1572933" lon="11.61563"><ele>7.428571428571429</ele><time>2026-04-12T06:44:00.566Z</time></trkpt><trkpt lat="45.15732" lon="11.615725"><ele>7.285714285714286</ele><time>2026-04-12T06:44:01.55Z</time></trkpt><trkpt lat="45.1573483" lon="11.615815"><ele>7.142857142857142</ele><time>2026-04-12T06:44:02.558Z</time></trkpt><trkpt lat="45.1573783" lon="11.615905"><ele>7.0</ele><time>2026-04-12T06:44:03.567Z</time></trkpt><trkpt lat="45.1574133" lon="11.6159917"><ele>7.000000000000001</ele><time>2026-04-12T06:44:04.57Z</time></trkpt><trkpt lat="45.1574517" lon="11.6160817"><ele>7.0</ele><time>2026-04-12T06:44:05.57Z</time></trkpt><trkpt lat="45.1574917" lon="11.616175"><ele>7.0</ele><time>2026-04-12T06:44:06.569Z</time></trkpt><trkpt lat="45.157535" lon="11.61627"><ele>7.0</ele><time>2026-04-12T06:44:07.544Z</time></trkpt><trkpt lat="45.1575783" lon="11.6163633"><ele>7.000000000000001</ele><time>2026-04-12T06:44:08.569Z</time></trkpt><trkpt lat="45.1576267" lon="11.6164617"><ele>7.0</ele><time>2026-04-12T06:44:09.572Z</time></trkpt><trkpt lat="45.1576783" lon="11.6165567"><ele>7.000000000000001</ele><time>2026-04-12T06:44:10.577Z</time></trkpt><trkpt lat="45.1577317" lon="11.6166533"><ele>7.0</ele><time>2026-04-12T06:44:11.532Z</time></trkpt><trkpt lat="45.1577817" lon="11.6167517"><ele>7.0</ele><time>2026-04-12T06:44:12.567Z</time></trkpt><trkpt lat="45.1578317" lon="11.6168517"><ele>7.0</ele><time>2026-04-12T06:44:13.57Z</time></trkpt><trkpt lat="45.1578833" lon="11.6169533"><ele>7.000000000000001</ele><time>2026-04-12T06:44:14.555Z</time></trkpt><trkpt lat="45.157935" lon="11.6170533"><ele>7.0</ele><time>2026-04-12T06:44:15.577Z</time></trkpt><trkpt lat="45.1579883" lon="11.6171533"><ele>7.0</ele><time>2026-04-12T06:44:16.567Z</time></trkpt><trkpt lat="45.158045" lon="11.6172567"><ele>6.999999999999999</ele><time>2026-04-12T06:44:17.576Z</time></trkpt><trkpt lat="45.158105" lon="11.6173583"><ele>6.999999999999999</ele><time>2026-04-12T06:44:18.568Z</time></trkpt><trkpt lat="45.1581633" lon="11.6174617"><ele>7.0</ele><time>2026-04-12T06:44:19.573Z</time></trkpt><trkpt lat="45.1582217" lon="11.61756"><ele>7.0</ele><time>2026-04-12T06:44:20.578Z</time></trkpt><trkpt lat="45.1582817" lon="11.6176583"><ele>7.000000000000001</ele><time>2026-04-12T06:44:21.559Z</time></trkpt><trkpt lat="45.15834" lon="11.6177533"><ele>7.0</ele><time>2026-04-12T06:44:22.545Z</time></trkpt><trkpt lat="45.158395" lon="11.6178483"><ele>7.0</ele><time>2026-04-12T06:44:23.557Z</time></trkpt><trkpt lat="45.15845" lon="11.6179383"><ele>7.0</ele><time>2026-04-12T06:44:24.561Z</time></trkpt><trkpt lat="45.1585033" lon="11.6180233"><ele>7.000000000000001</ele><time>2026-04-12T06:44:25.568Z</time></trkpt><trkpt lat="45.15856" lon="11.6181017"><ele>7.0</ele><time>2026-04-12T06:44:26.568Z</time></trkpt><trkpt lat="45.1586167" lon="11.618175"><ele>7.000000000000001</ele><time>2026-04-12T06:44:27.54Z</time></trkpt><trkpt lat="45.1586733" lon="11.6182483"><ele>7.0</ele><time>2026-04-12T06:44:28.557Z</time></trkpt><trkpt lat="45.158735" lon="11.6183217"><ele>7.0</ele><time>2026-04-12T06:44:29.564Z</time></trkpt><trkpt lat="45.158795" lon="11.618395"><ele>7.0</ele><time>2026-04-12T06:44:30.575Z</time></trkpt><trkpt lat="45.158855" lon="11.6184667"><ele>7.000000000000001</ele><time>2026-04-12T06:44:31.57Z</time></trkpt><trkpt lat="45.158915" lon="11.6185367"><ele>7.0</ele><time>2026-04-12T06:44:32.54Z</time></trkpt><trkpt lat="45.1589717" lon="11.6186083"><ele>7.000000000000001</ele><time>2026-04-12T06:44:33.535Z</time></trkpt><trkpt lat="45.1590283" lon="11.6186767"><ele>7.0</ele><time>2026-04-12T06:44:34.569Z</time></trkpt><trkpt lat="45.1590867" lon="11.6187433"><ele>7.0</ele><time>2026-04-12T06:44:35.574Z</time></trkpt><trkpt lat="45.1591467" lon="11.6188117"><ele>7.0</ele><time>2026-04-12T06:44:36.573Z</time></trkpt><trkpt lat="45.159205" lon="11.6188817"><ele>7.000000000000001</ele><time>2026-04-12T06:44:37.574Z</time></trkpt><trkpt lat="45.1592617" lon="11.6189483"><ele>7.0</ele><time>2026-04-12T06:44:38.571Z</time></trkpt><trkpt lat="45.15932" lon="11.6190133"><ele>7.000000000000001</ele><time>2026-04-12T06:44:39.562Z</time></trkpt><trkpt lat="45.1593833" lon="11.619075"><ele>7.0</ele><time>2026-04-12T06:44:40.56Z</time></trkpt><trkpt lat="45.159445" lon="11.6191367"><ele>7.0</ele><time>2026-04-12T06:44:41.562Z</time></trkpt><trkpt lat="45.159505" lon="11.6191967"><ele>7.0</ele><time>2026-04-12T06:44:42.57Z</time></trkpt><trkpt lat="45.1595717" lon="11.6192517"><ele>7.000000000000001</ele><time>2026-04-12T06:44:43.55Z</time></trkpt><trkpt lat="45.15964" lon="11.6193017"><ele>7.0</ele><time>2026-04-12T06:44:44.566Z</time></trkpt><trkpt lat="45.1597133" lon="11.6193367"><ele>7.0</ele><time>2026-04-12T06:44:45.575Z</time></trkpt><trkpt lat="45.1597883" lon="11.619355"><ele>7.0</ele><time>2026-04-12T06:44:46.574Z</time></trkpt><trkpt lat="45.159865" lon="11.6193667"><ele>7.0</ele><time>2026-04-12T06:44:47.576Z</time></trkpt><trkpt lat="45.1599367" lon="11.6193767"><ele>7.0</ele><time>2026-04-12T06:44:48.573Z</time></trkpt><trkpt lat="45.1600083" lon="11.6193883"><ele>7.0</ele><time>2026-04-12T06:44:49.57Z</time></trkpt><trkpt lat="45.1600817" lon="11.6193983"><ele>7.0</ele><time>2026-04-12T06:44:50.574Z</time></trkpt><trkpt lat="45.160155" lon="11.6194067"><ele>7.0</ele><time>2026-04-12T06:44:51.551Z</time></trkpt><trkpt lat="45.1602283" lon="11.619415"><ele>6.857142857142857</ele><time>2026-04-12T06:44:52.566Z</time></trkpt><trkpt lat="45.1603033" lon="11.6194233"><ele>6.714285714285714</ele><time>2026-04-12T06:44:53.546Z</time></trkpt><trkpt lat="45.1603767" lon="11.6194333"><ele>6.571428571428571</ele><time>2026-04-12T06:44:54.542Z</time></trkpt><trkpt lat="45.1604483" lon="11.61944"><ele>6.428571428571429</ele><time>2026-04-12T06:44:55.562Z</time></trkpt><trkpt lat="45.1605217" lon="11.6194467"><ele>6.285714285714286</ele><time>2026-04-12T06:44:56.573Z</time></trkpt><trkpt lat="45.160595" lon="11.6194533"><ele>6.142857142857142</ele><time>2026-04-12T06:44:57.553Z</time></trkpt><trkpt lat="45.16067" lon="11.61946"><ele>6.0</ele><time>2026-04-12T06:44:58.558Z</time></trkpt><trkpt lat="45.160745" lon="11.61947"><ele>5.833333333333333</ele><time>2026-04-12T06:44:59.565Z</time></trkpt><trkpt lat="45.1608183" lon="11.6194817"><ele>5.666666666666667</ele><time>2026-04-12T06:45:00.579Z</time></trkpt><trkpt lat="45.1608933" lon="11.6194917"><ele>5.5</ele><time>2026-04-12T06:45:01.566Z</time></trkpt><trkpt lat="45.160965" lon="11.6195"><ele>5.333333333333334</ele><time>2026-04-12T06:45:02.574Z</time></trkpt><trkpt lat="45.16104" lon="11.619505"><ele>5.166666666666667</ele><time>2026-04-12T06:45:03.57Z</time></trkpt><trkpt lat="45.1611167" lon="11.61951"><ele>5.0</ele><time>2026-04-12T06:45:04.574Z</time></trkpt><trkpt lat="45.1611933" lon="11.6195133"><ele>4.833333333333334</ele><time>2026-04-12T06:45:05.563Z</time></trkpt><trkpt lat="45.1612717" lon="11.6195183"><ele>4.666666666666667</ele><time>2026-04-12T06:45:06.575Z</time></trkpt><trkpt lat="45.1613483" lon="11.6195233"><ele>4.5</ele><time>2026-04-12T06:45:07.57Z</time></trkpt><trkpt lat="45.1614267" lon="11.6195317"><ele>4.333333333333333</ele><time>2026-04-12T06:45:08.549Z</time></trkpt><trkpt lat="45.161505" lon="11.61954"><ele>4.166666666666666</ele><time>2026-04-12T06:45:09.568Z</time></trkpt><trkpt lat="45.1615817" lon="11.6195483"><ele>4.0</ele><time>2026-04-12T06:45:10.568Z</time></trkpt><trkpt lat="45.16166" lon="11.6195517"><ele>3.9999999999999996</ele><time>2026-04-12T06:45:11.571Z</time></trkpt><trkpt lat="45.1617367" lon="11.619555"><ele>4.0</ele><time>2026-04-12T06:45:12.575Z</time></trkpt><trkpt lat="45.161815" lon="11.61956"><ele>4.0</ele><time>2026-04-12T06:45:13.566Z</time></trkpt><trkpt lat="45.1618933" lon="11.6195667"><ele>4.0</ele><time>2026-04-12T06:45:14.574Z</time></trkpt><trkpt lat="45.1619733" lon="11.6195733"><ele>3.9999999999999996</ele><time>2026-04-12T06:45:15.547Z</time></trkpt><trkpt lat="45.1620517" lon="11.6195783"><ele>4.0</ele><time>2026-04-12T06:45:16.558Z</time></trkpt><trkpt lat="45.1621317" lon="11.6195883"><ele>3.9999999999999996</ele><time>2026-04-12T06:45:17.567Z</time></trkpt><trkpt lat="45.1622083" lon="11.6195983"><ele>4.0</ele><time>2026-04-12T06:45:18.567Z</time></trkpt><trkpt lat="45.162285" lon="11.61961"><ele>4.0</ele><time>2026-04-12T06:45:19.569Z</time></trkpt><trkpt lat="45.16236" lon="11.61962"><ele>4.0</ele><time>2026-04-12T06:45:20.57Z</time></trkpt><trkpt lat="45.1624367" lon="11.6196283"><ele>3.9999999999999996</ele><time>2026-04-12T06:45:21.565Z</time></trkpt><trkpt lat="45.1625117" lon="11.6196333"><ele>4.0</ele><time>2026-04-12T06:45:22.551Z</time></trkpt><trkpt lat="45.1625867" lon="11.619635"><ele>3.8571428571428568</ele><time>2026-04-12T06:45:23.56Z</time></trkpt><trkpt lat="45.16266" lon="11.6196383"><ele>3.714285714285714</ele><time>2026-04-12T06:45:24.555Z</time></trkpt><trkpt lat="45.1627333" lon="11.619645"><ele>3.571428571428571</ele><time>2026-04-12T06:45:25.566Z</time></trkpt><trkpt lat="45.1628067" lon="11.6196517"><ele>3.4285714285714284</ele><time>2026-04-12T06:45:26.578Z</time></trkpt><trkpt lat="45.1628783" lon="11.6196583"><ele>3.2857142857142856</ele><time>2026-04-12T06:45:27.56Z</time></trkpt><trkpt lat="45.162955" lon="11.619665"><ele>3.1428571428571423</ele><time>2026-04-12T06:45:28.539Z</time></trkpt><trkpt lat="45.1630317" lon="11.6196717"><ele>3.0</ele><time>2026-04-12T06:45:29.57Z</time></trkpt><trkpt lat="45.16311" lon="11.6196783"><ele>3.0</ele><time>2026-04-12T06:45:30.572Z</time></trkpt><trkpt lat="45.1631883" lon="11.619685"><ele>3.0</ele><time>2026-04-12T06:45:31.569Z</time></trkpt><trkpt lat="45.1632633" lon="11.61969"><ele>3.0</ele><time>2026-04-12T06:45:32.561Z</time></trkpt><trkpt lat="45.16334" lon="11.6196967"><ele>3.0</ele><time>2026-04-12T06:45:33.566Z</time></trkpt><trkpt lat="45.16342" lon="11.6197033"><ele>3.0</ele><time>2026-04-12T06:45:34.565Z</time></trkpt><trkpt lat="45.1634967" lon="11.6197117"><ele>3.0</ele><time>2026-04-12T06:45:35.568Z</time></trkpt><trkpt lat="45.1635733" lon="11.6197167"><ele>3.1666666666666665</ele><time>2026-04-12T06:45:36.563Z</time></trkpt><trkpt lat="45.16365" lon="11.619725"><ele>3.333333333333333</ele><time>2026-04-12T06:45:37.567Z</time></trkpt><trkpt lat="45.1637267" lon="11.6197333"><ele>3.5</ele><time>2026-04-12T06:45:38.557Z</time></trkpt><trkpt lat="45.1638033" lon="11.6197433"><ele>3.6666666666666665</ele><time>2026-04-12T06:45:39.558Z</time></trkpt><trkpt lat="45.1638817" lon="11.619755"><ele>3.833333333333333</ele><time>2026-04-12T06:45:40.566Z</time></trkpt><trkpt lat="45.16396" lon="11.6197633"><ele>4.0</ele><time>2026-04-12T06:45:41.557Z</time></trkpt><trkpt lat="45.1640367" lon="11.6197717"><ele>4.166666666666666</ele><time>2026-04-12T06:45:42.539Z</time></trkpt><trkpt lat="45.164115" lon="11.6197783"><ele>4.333333333333333</ele><time>2026-04-12T06:45:43.563Z</time></trkpt><trkpt lat="45.1641933" lon="11.61979"><ele>4.5</ele><time>2026-04-12T06:45:44.575Z</time></trkpt><trkpt lat="45.1642733" lon="11.6198"><ele>4.666666666666667</ele><time>2026-04-12T06:45:45.57Z</time></trkpt><trkpt lat="45.16435" lon="11.6198033"><ele>4.833333333333334</ele><time>2026-04-12T06:45:46.565Z</time></trkpt><trkpt lat="45.164425" lon="11.619805"><ele>5.0</ele><time>2026-04-12T06:45:47.564Z</time></trkpt><trkpt lat="45.1644983" lon="11.61981"><ele>5.0</ele><time>2026-04-12T06:45:48.568Z</time></trkpt><trkpt lat="45.1645733" lon="11.6198183"><ele>5.0</ele><time>2026-04-12T06:45:49.565Z</time></trkpt><trkpt lat="45.16465" lon="11.619825"><ele>5.0</ele><time>2026-04-12T06:45:50.566Z</time></trkpt><trkpt lat="45.1647233" lon="11.6198333"><ele>5.0</ele><time>2026-04-12T06:45:51.567Z</time></trkpt><trkpt lat="45.1647983" lon="11.6198383"><ele>5.0</ele><time>2026-04-12T06:45:52.548Z</time></trkpt><trkpt lat="45.1648733" lon="11.6198433"><ele>5.0</ele><time>2026-04-12T06:45:53.563Z</time></trkpt><trkpt lat="45.16495" lon="11.6198483"><ele>5.166666666666667</ele><time>2026-04-12T06:45:54.574Z</time></trkpt><trkpt lat="45.16503" lon="11.6198417"><ele>5.333333333333334</ele><time>2026-04-12T06:45:55.636Z</time></trkpt><trkpt lat="45.1651083" lon="11.61985"><ele>5.5</ele><time>2026-04-12T06:45:56.592Z</time></trkpt><trkpt lat="45.1651983" lon="11.6198683"><ele>5.666666666666667</ele><time>2026-04-12T06:45:57.587Z</time></trkpt><trkpt lat="45.1652817" lon="11.6198733"><ele>5.833333333333333</ele><time>2026-04-12T06:45:58.531Z</time></trkpt><trkpt lat="45.16539" lon="11.61992"><ele>6.0</ele><time>2026-04-12T06:46:00.541Z</time></trkpt><trkpt lat="45.1654617" lon="11.6199283"><ele>6.0</ele><time>2026-04-12T06:46:01.552Z</time></trkpt><trkpt lat="45.16553" lon="11.6199117"><ele>6.0</ele><time>2026-04-12T06:46:02.536Z</time></trkpt><trkpt lat="45.1656083" lon="11.6199"><ele>6.0</ele><time>2026-04-12T06:46:03.542Z</time></trkpt><trkpt lat="45.1656817" lon="11.6199083"><ele>6.0</ele><time>2026-04-12T06:46:04.56Z</time></trkpt><trkpt lat="45.1657817" lon="11.6199133"><ele>6.0</ele><time>2026-04-12T06:46:05.56Z</time></trkpt><trkpt lat="45.165855" lon="11.6199117"><ele>6.0</ele><time>2026-04-12T06:46:06.565Z</time></trkpt><trkpt lat="45.1659333" lon="11.61991"><ele>5.833333333333333</ele><time>2026-04-12T06:46:07.558Z</time></trkpt><trkpt lat="45.1660117" lon="11.61991"><ele>5.666666666666667</ele><time>2026-04-12T06:46:08.57Z</time></trkpt><trkpt lat="45.1660867" lon="11.6199033"><ele>5.5</ele><time>2026-04-12T06:46:09.541Z</time></trkpt><trkpt lat="45.1661617" lon="11.6198917"><ele>5.333333333333334</ele><time>2026-04-12T06:46:10.564Z</time></trkpt><trkpt lat="45.16624" lon="11.61988"><ele>5.166666666666667</ele><time>2026-04-12T06:46:11.571Z</time></trkpt><trkpt lat="45.1663167" lon="11.6198633"><ele>5.0</ele><time>2026-04-12T06:46:12.567Z</time></trkpt><trkpt lat="45.16639" lon="11.619845"><ele>5.0</ele><time>2026-04-12T06:46:13.55Z</time></trkpt><trkpt lat="45.166465" lon="11.61982"><ele>5.0</ele><time>2026-04-12T06:46:14.562Z</time></trkpt><trkpt lat="45.16654" lon="11.6197983"><ele>5.0</ele><time>2026-04-12T06:46:15.557Z</time></trkpt><trkpt lat="45.1666133" lon="11.619775"><ele>5.0</ele><time>2026-04-12T06:46:16.573Z</time></trkpt><trkpt lat="45.1666867" lon="11.6197517"><ele>5.0</ele><time>2026-04-12T06:46:17.565Z</time></trkpt><trkpt lat="45.1667617" lon="11.61973"><ele>5.0</ele><time>2026-04-12T06:46:18.531Z</time></trkpt><trkpt lat="45.1668367" lon="11.6197067"><ele>5.0</ele><time>2026-04-12T06:46:19.56Z</time></trkpt><trkpt lat="45.16691" lon="11.6196867"><ele>5.0</ele><time>2026-04-12T06:46:20.586Z</time></trkpt><trkpt lat="45.166985" lon="11.6196567"><ele>5.0</ele><time>2026-04-12T06:46:21.584Z</time></trkpt><trkpt lat="45.1670667" lon="11.6196283"><ele>5.0</ele><time>2026-04-12T06:46:22.628Z</time></trkpt><trkpt lat="45.1671433" lon="11.61961"><ele>5.0</ele><time>2026-04-12T06:46:23.597Z</time></trkpt><trkpt lat="45.16722" lon="11.6195917"><ele>5.0</ele><time>2026-04-12T06:46:24.53Z</time></trkpt><trkpt lat="45.1672967" lon="11.6195733"><ele>4.833333333333334</ele><time>2026-04-12T06:46:25.551Z</time></trkpt><trkpt lat="45.16738" lon="11.6195833"><ele>4.666666666666667</ele><time>2026-04-12T06:46:26.534Z</time></trkpt><trkpt lat="45.167455" lon="11.6195867"><ele>4.5</ele><time>2026-04-12T06:46:27.529Z</time></trkpt><trkpt lat="45.1675317" lon="11.6195867"><ele>4.333333333333333</ele><time>2026-04-12T06:46:28.543Z</time></trkpt><trkpt lat="45.1676033" lon="11.6195733"><ele>4.166666666666666</ele><time>2026-04-12T06:46:29.549Z</time></trkpt><trkpt lat="45.167675" lon="11.619565"><ele>4.0</ele><time>2026-04-12T06:46:30.561Z</time></trkpt><trkpt lat="45.1677483" lon="11.61956"><ele>3.9999999999999996</ele><time>2026-04-12T06:46:31.546Z</time></trkpt><trkpt lat="45.1678267" lon="11.6195583"><ele>4.0</ele><time>2026-04-12T06:46:32.548Z</time></trkpt><trkpt lat="45.167905" lon="11.6195517"><ele>4.0</ele><time>2026-04-12T06:46:33.538Z</time></trkpt><trkpt lat="45.1679817" lon="11.6195433"><ele>4.0</ele><time>2026-04-12T06:46:34.568Z</time></trkpt><trkpt lat="45.1680617" lon="11.619545"><ele>3.9999999999999996</ele><time>2026-04-12T06:46:35.565Z</time></trkpt><trkpt lat="45.16814" lon="11.6195517"><ele>4.0</ele><time>2026-04-12T06:46:36.539Z</time></trkpt><trkpt lat="45.168215" lon="11.6195467"><ele>3.6666666666666665</ele><time>2026-04-12T06:46:37.597Z</time></trkpt><trkpt lat="45.1682933" lon="11.6195267"><ele>3.333333333333333</ele><time>2026-04-12T06:46:38.599Z</time></trkpt><trkpt lat="45.1683717" lon="11.6195283"><ele>3.0</ele><time>2026-04-12T06:46:39.616Z</time></trkpt><trkpt lat="45.16845" lon="11.6195283"><ele>2.6666666666666665</ele><time>2026-04-12T06:46:40.532Z</time></trkpt><trkpt lat="45.16853" lon="11.6195217"><ele>2.333333333333333</ele><time>2026-04-12T06:46:41.533Z</time></trkpt><trkpt lat="45.1686133" lon="11.61951"><ele>2.0</ele><time>2026-04-12T06:46:42.539Z</time></trkpt><trkpt lat="45.1686817" lon="11.6195133"><ele>2.0</ele><time>2026-04-12T06:46:43.541Z</time></trkpt><trkpt lat="45.16875" lon="11.6195217"><ele>1.9999999999999998</ele><time>2026-04-12T06:46:44.545Z</time></trkpt><trkpt lat="45.16882" lon="11.61952"><ele>2.0</ele><time>2026-04-12T06:46:45.53Z</time></trkpt><trkpt lat="45.1688967" lon="11.6195133"><ele>2.0</ele><time>2026-04-12T06:46:46.552Z</time></trkpt><trkpt lat="45.1689717" lon="11.6195133"><ele>1.9999999999999998</ele><time>2026-04-12T06:46:47.528Z</time></trkpt><trkpt lat="45.1690483" lon="11.61951"><ele>2.0</ele><time>2026-04-12T06:46:48.544Z</time></trkpt><trkpt lat="45.1691233" lon="11.6195067"><ele>2.0</ele><time>2026-04-12T06:46:49.527Z</time></trkpt><trkpt lat="45.1692" lon="11.6195033"><ele>2.5</ele><time>2026-04-12T06:46:50.539Z</time></trkpt><trkpt lat="45.1692733" lon="11.619505"><ele>3.0</ele><time>2026-04-12T06:46:51.528Z</time></trkpt><trkpt lat="45.16935" lon="11.619505"><ele>3.5</ele><time>2026-04-12T06:46:52.526Z</time></trkpt><trkpt lat="45.169425" lon="11.6195033"><ele>4.0</ele><time>2026-04-12T06:46:53.528Z</time></trkpt><trkpt lat="45.1695017" lon="11.6195033"><ele>4.5</ele><time>2026-04-12T06:46:54.541Z</time></trkpt><trkpt lat="45.16958" lon="11.6195067"><ele>5.0</ele><time>2026-04-12T06:46:55.532Z</time></trkpt><trkpt lat="45.1696567" lon="11.6195067"><ele>5.0</ele><time>2026-04-12T06:46:56.553Z</time></trkpt><trkpt lat="45.1697333" lon="11.6195067"><ele>5.0</ele><time>2026-04-12T06:46:57.551Z</time></trkpt><trkpt lat="45.16981" lon="11.619505"><ele>5.0</ele><time>2026-04-12T06:46:58.554Z</time></trkpt><trkpt lat="45.16989" lon="11.6195033"><ele>5.0</ele><time>2026-04-12T06:46:59.542Z</time></trkpt><trkpt lat="45.1699717" lon="11.6195033"><ele>5.0</ele><time>2026-04-12T06:47:00.538Z</time></trkpt><trkpt lat="45.17005" lon="11.6195017"><ele>5.0</ele><time>2026-04-12T06:47:01.545Z</time></trkpt><trkpt lat="45.1701267" lon="11.6194983"><ele>5.0</ele><time>2026-04-12T06:47:02.545Z</time></trkpt><trkpt lat="45.1701983" lon="11.619505"><ele>5.0</ele><time>2026-04-12T06:47:03.619Z</time></trkpt><trkpt lat="45.1702717" lon="11.6194983"><ele>5.0</ele><time>2026-04-12T06:47:04.648Z</time></trkpt><trkpt lat="45.1703467" lon="11.619485"><ele>5.0</ele><time>2026-04-12T06:47:05.598Z</time></trkpt><trkpt lat="45.17042" lon="11.619485"><ele>5.0</ele><time>2026-04-12T06:47:06.622Z</time></trkpt><trkpt lat="45.1704983" lon="11.6195"><ele>5.0</ele><time>2026-04-12T06:47:07.53Z</time></trkpt><trkpt lat="45.1705767" lon="11.6194867"><ele>4.833333333333334</ele><time>2026-04-12T06:47:08.543Z</time></trkpt><trkpt lat="45.1706567" lon="11.61947"><ele>4.666666666666667</ele><time>2026-04-12T06:47:09.532Z</time></trkpt><trkpt lat="45.1707283" lon="11.6194683"><ele>4.5</ele><time>2026-04-12T06:47:10.538Z</time></trkpt><trkpt lat="45.1708183" lon="11.6194683"><ele>4.333333333333333</ele><time>2026-04-12T06:47:11.55Z</time></trkpt><trkpt lat="45.1708983" lon="11.6194717"><ele>4.166666666666666</ele><time>2026-04-12T06:47:12.562Z</time></trkpt><trkpt lat="45.1709783" lon="11.61947"><ele>4.0</ele><time>2026-04-12T06:47:13.55Z</time></trkpt><trkpt lat="45.17106" lon="11.6194667"><ele>3.9999999999999996</ele><time>2026-04-12T06:47:14.551Z</time></trkpt><trkpt lat="45.1711383" lon="11.6194617"><ele>4.0</ele><time>2026-04-12T06:47:15.547Z</time></trkpt><trkpt lat="45.1712167" lon="11.61946"><ele>4.0</ele><time>2026-04-12T06:47:16.602Z</time></trkpt><trkpt lat="45.171295" lon="11.6194583"><ele>4.0</ele><time>2026-04-12T06:47:17.544Z</time></trkpt><trkpt lat="45.1713733" lon="11.6194467"><ele>3.9999999999999996</ele><time>2026-04-12T06:47:18.555Z</time></trkpt><trkpt lat="45.1714483" lon="11.619425"><ele>4.0</ele><time>2026-04-12T06:47:19.562Z</time></trkpt><trkpt lat="45.171525" lon="11.619425"><ele>3.9999999999999996</ele><time>2026-04-12T06:47:20.565Z</time></trkpt><trkpt lat="45.171605" lon="11.6194283"><ele>4.0</ele><time>2026-04-12T06:47:21.576Z</time></trkpt><trkpt lat="45.1716817" lon="11.6194267"><ele>4.0</ele><time>2026-04-12T06:47:22.577Z</time></trkpt><trkpt lat="45.1717567" lon="11.6194233"><ele>4.0</ele><time>2026-04-12T06:47:23.626Z</time></trkpt><trkpt lat="45.1718367" lon="11.6194333"><ele>3.9999999999999996</ele><time>2026-04-12T06:47:24.588Z</time></trkpt><trkpt lat="45.171915" lon="11.6194333"><ele>4.0</ele><time>2026-04-12T06:47:25.561Z</time></trkpt><trkpt lat="45.171995" lon="11.619425"><ele>3.9999999999999996</ele><time>2026-04-12T06:47:26.529Z</time></trkpt><trkpt lat="45.1720817" lon="11.6194183"><ele>4.0</ele><time>2026-04-12T06:47:27.538Z</time></trkpt><trkpt lat="45.172165" lon="11.6194267"><ele>4.0</ele><time>2026-04-12T06:47:28.55Z</time></trkpt><trkpt lat="45.1722517" lon="11.6194283"><ele>4.0</ele><time>2026-04-12T06:47:29.537Z</time></trkpt><trkpt lat="45.17233" lon="11.6194233"><ele>3.9999999999999996</ele><time>2026-04-12T06:47:30.535Z</time></trkpt><trkpt lat="45.1724133" lon="11.6194167"><ele>4.0</ele><time>2026-04-12T06:47:31.548Z</time></trkpt><trkpt lat="45.172495" lon="11.619405"><ele>4.166666666666666</ele><time>2026-04-12T06:47:32.551Z</time></trkpt><trkpt lat="45.1725733" lon="11.6194"><ele>4.333333333333333</ele><time>2026-04-12T06:47:33.544Z</time></trkpt><trkpt lat="45.172655" lon="11.6194"><ele>4.5</ele><time>2026-04-12T06:47:34.55Z</time></trkpt><trkpt lat="45.1727333" lon="11.6193983"><ele>4.666666666666667</ele><time>2026-04-12T06:47:35.55Z</time></trkpt><trkpt lat="45.1728133" lon="11.6193983"><ele>4.833333333333334</ele><time>2026-04-12T06:47:36.553Z</time></trkpt><trkpt lat="45.1728883" lon="11.6193933"><ele>5.0</ele><time>2026-04-12T06:47:37.543Z</time></trkpt><trkpt lat="45.172965" lon="11.61939"><ele>5.0</ele><time>2026-04-12T06:47:38.551Z</time></trkpt><trkpt lat="45.1730433" lon="11.61939"><ele>5.0</ele><time>2026-04-12T06:47:39.551Z</time></trkpt><trkpt lat="45.1731233" lon="11.6193917"><ele>5.0</ele><time>2026-04-12T06:47:40.536Z</time></trkpt><trkpt lat="45.1731983" lon="11.6193917"><ele>5.0</ele><time>2026-04-12T06:47:41.541Z</time></trkpt><trkpt lat="45.1732717" lon="11.6193917"><ele>5.0</ele><time>2026-04-12T06:47:42.533Z</time></trkpt><trkpt lat="45.1733483" lon="11.6193933"><ele>5.0</ele><time>2026-04-12T06:47:43.537Z</time></trkpt><trkpt lat="45.173425" lon="11.6193933"><ele>5.0</ele><time>2026-04-12T06:47:44.551Z</time></trkpt><trkpt lat="45.1735017" lon="11.6193883"><ele>5.0</ele><time>2026-04-12T06:47:45.554Z</time></trkpt><trkpt lat="45.17358" lon="11.6193833"><ele>5.0</ele><time>2026-04-12T06:47:46.547Z</time></trkpt><trkpt lat="45.1736567" lon="11.6193783"><ele>5.0</ele><time>2026-04-12T06:47:47.548Z</time></trkpt><trkpt lat="45.173735" lon="11.6193767"><ele>5.0</ele><time>2026-04-12T06:47:48.531Z</time></trkpt><trkpt lat="45.1738133" lon="11.6193717"><ele>5.0</ele><time>2026-04-12T06:47:49.53Z</time></trkpt><trkpt lat="45.1738933" lon="11.6193667"><ele>5.0</ele><time>2026-04-12T06:47:50.548Z</time></trkpt><trkpt lat="45.173975" lon="11.6193667"><ele>5.0</ele><time>2026-04-12T06:47:51.548Z</time></trkpt><trkpt lat="45.1740533" lon="11.6193633"><ele>5.0</ele><time>2026-04-12T06:47:52.552Z</time></trkpt><trkpt lat="45.1741317" lon="11.6193583"><ele>5.0</ele><time>2026-04-12T06:47:53.551Z</time></trkpt><trkpt lat="45.1742067" lon="11.619355"><ele>5.0</ele><time>2026-04-12T06:47:54.548Z</time></trkpt><trkpt lat="45.17428" lon="11.6193567"><ele>5.0</ele><time>2026-04-12T06:47:55.54Z</time></trkpt><trkpt lat="45.1743533" lon="11.61936"><ele>5.0</ele><time>2026-04-12T06:47:56.565Z</time></trkpt><trkpt lat="45.1744317" lon="11.6193683"><ele>5.0</ele><time>2026-04-12T06:47:57.577Z</time></trkpt><trkpt lat="45.1744983" lon="11.61937"><ele>5.0</ele><time>2026-04-12T06:47:58.566Z</time></trkpt><trkpt lat="45.1745667" lon="11.6193633"><ele>5.0</ele><time>2026-04-12T06:47:59.554Z</time></trkpt><trkpt lat="45.17464" lon="11.6193533"><ele>5.0</ele><time>2026-04-12T06:48:00.583Z</time></trkpt><trkpt lat="45.17471" lon="11.6193267"><ele>5.0</ele><time>2026-04-12T06:48:01.601Z</time></trkpt><trkpt lat="45.1747933" lon="11.6193167"><ele>5.0</ele><time>2026-04-12T06:48:02.637Z</time></trkpt><trkpt lat="45.17487" lon="11.61932"><ele>5.142857142857142</ele><time>2026-04-12T06:48:03.576Z</time></trkpt><trkpt lat="45.1749433" lon="11.6193133"><ele>5.285714285714286</ele><time>2026-04-12T06:48:04.535Z</time></trkpt><trkpt lat="45.175015" lon="11.61931"><ele>5.428571428571429</ele><time>2026-04-12T06:48:05.553Z</time></trkpt><trkpt lat="45.1750883" lon="11.6193167"><ele>5.571428571428571</ele><time>2026-04-12T06:48:06.53Z</time></trkpt><trkpt lat="45.1751633" lon="11.6193217"><ele>5.714285714285714</ele><time>2026-04-12T06:48:07.538Z</time></trkpt><trkpt lat="45.175235" lon="11.61932"><ele>5.857142857142857</ele><time>2026-04-12T06:48:08.536Z</time></trkpt><trkpt lat="45.1753117" lon="11.6193117"><ele>6.0</ele><time>2026-04-12T06:48:09.547Z</time></trkpt><trkpt lat="45.175375" lon="11.619315"><ele>6.0</ele><time>2026-04-12T06:48:10.548Z</time></trkpt><trkpt lat="45.17545" lon="11.61941"><ele>6.0</ele><time>2026-04-12T06:48:12.526Z</time></trkpt><trkpt lat="45.1754667" lon="11.6195083"><ele>6.0</ele><time>2026-04-12T06:48:13.532Z</time></trkpt><trkpt lat="45.17548" lon="11.619625"><ele>6.0</ele><time>2026-04-12T06:48:14.529Z</time></trkpt><trkpt lat="45.17549" lon="11.6197333"><ele>6.0</ele><time>2026-04-12T06:48:15.549Z</time></trkpt><trkpt lat="45.1754933" lon="11.61985"><ele>6.0</ele><time>2026-04-12T06:48:16.527Z</time></trkpt><trkpt lat="45.1754983" lon="11.61996"><ele>5.999999999999999</ele><time>2026-04-12T06:48:17.546Z</time></trkpt><trkpt lat="45.1755067" lon="11.620065"><ele>6.0</ele><time>2026-04-12T06:48:18.538Z</time></trkpt><trkpt lat="45.1755217" lon="11.620165"><ele>6.0</ele><time>2026-04-12T06:48:19.539Z</time></trkpt><trkpt lat="45.1755367" lon="11.620265"><ele>6.0</ele><time>2026-04-12T06:48:20.533Z</time></trkpt><trkpt lat="45.1755517" lon="11.6203633"><ele>6.0</ele><time>2026-04-12T06:48:21.53Z</time></trkpt><trkpt lat="45.1755717" lon="11.6204617"><ele>5.999999999999999</ele><time>2026-04-12T06:48:22.528Z</time></trkpt><trkpt lat="45.1755917" lon="11.6205567"><ele>6.0</ele><time>2026-04-12T06:48:23.541Z</time></trkpt><trkpt lat="45.1756133" lon="11.6206517"><ele>5.999999999999999</ele><time>2026-04-12T06:48:24.54Z</time></trkpt><trkpt lat="45.1756367" lon="11.620745"><ele>6.0</ele><time>2026-04-12T06:48:25.539Z</time></trkpt><trkpt lat="45.1756567" lon="11.6208417"><ele>6.0</ele><time>2026-04-12T06:48:26.541Z</time></trkpt><trkpt lat="45.1756767" lon="11.6209367"><ele>6.0</ele><time>2026-04-12T06:48:27.532Z</time></trkpt><trkpt lat="45.1757" lon="11.6210317"><ele>6.0</ele><time>2026-04-12T06:48:28.548Z</time></trkpt><trkpt lat="45.1757233" lon="11.6211333"><ele>5.999999999999999</ele><time>2026-04-12T06:48:29.532Z</time></trkpt><trkpt lat="45.1757467" lon="11.621235"><ele>6.0</ele><time>2026-04-12T06:48:30.536Z</time></trkpt><trkpt lat="45.1757717" lon="11.6213383"><ele>5.666666666666667</ele><time>2026-04-12T06:48:31.546Z</time></trkpt><trkpt lat="45.17579" lon="11.62144"><ele>5.333333333333333</ele><time>2026-04-12T06:48:32.531Z</time></trkpt><trkpt lat="45.17581" lon="11.621545"><ele>5.0</ele><time>2026-04-12T06:48:33.545Z</time></trkpt><trkpt lat="45.1758367" lon="11.6216467"><ele>4.666666666666666</ele><time>2026-04-12T06:48:34.582Z</time></trkpt><trkpt lat="45.1758667" lon="11.6217483"><ele>4.333333333333333</ele><time>2026-04-12T06:48:35.533Z</time></trkpt><trkpt lat="45.1758917" lon="11.6218483"><ele>4.0</ele><time>2026-04-12T06:48:36.531Z</time></trkpt><trkpt lat="45.17592" lon="11.62195"><ele>4.333333333333333</ele><time>2026-04-12T06:48:37.549Z</time></trkpt><trkpt lat="45.1759483" lon="11.622055"><ele>4.666666666666666</ele><time>2026-04-12T06:48:38.526Z</time></trkpt><trkpt lat="45.1759733" lon="11.62216"><ele>5.0</ele><time>2026-04-12T06:48:39.533Z</time></trkpt><trkpt lat="45.1759967" lon="11.6222683"><ele>5.333333333333333</ele><time>2026-04-12T06:48:40.528Z</time></trkpt><trkpt lat="45.1760233" lon="11.622375"><ele>5.666666666666667</ele><time>2026-04-12T06:48:41.534Z</time></trkpt><trkpt lat="45.1760467" lon="11.622485"><ele>6.0</ele><time>2026-04-12T06:48:42.524Z</time></trkpt><trkpt lat="45.1760683" lon="11.6225933"><ele>5.999999999999999</ele><time>2026-04-12T06:48:43.539Z</time></trkpt><trkpt lat="45.17609" lon="11.6227"><ele>6.0</ele><time>2026-04-12T06:48:44.535Z</time></trkpt><trkpt lat="45.17611" lon="11.6228017"><ele>6.0</ele><time>2026-04-12T06:48:45.548Z</time></trkpt><trkpt lat="45.17613" lon="11.6229017"><ele>6.0</ele><time>2026-04-12T06:48:46.545Z</time></trkpt><trkpt lat="45.1761467" lon="11.6230017"><ele>6.0</ele><time>2026-04-12T06:48:47.548Z</time></trkpt><trkpt lat="45.17616" lon="11.6231033"><ele>5.999999999999999</ele><time>2026-04-12T06:48:48.536Z</time></trkpt><trkpt lat="45.176175" lon="11.623205"><ele>6.0</ele><time>2026-04-12T06:48:49.542Z</time></trkpt><trkpt lat="45.176195" lon="11.623305"><ele>6.285714285714285</ele><time>2026-04-12T06:48:50.547Z</time></trkpt><trkpt lat="45.1762133" lon="11.6234067"><ele>6.571428571428571</ele><time>2026-04-12T06:48:51.546Z</time></trkpt><trkpt lat="45.1762317" lon="11.6235067"><ele>6.857142857142857</ele><time>2026-04-12T06:48:52.535Z</time></trkpt><trkpt lat="45.1762483" lon="11.6236083"><ele>7.142857142857142</ele><time>2026-04-12T06:48:53.541Z</time></trkpt><trkpt lat="45.1762633" lon="11.6237133"><ele>7.428571428571428</ele><time>2026-04-12T06:48:54.565Z</time></trkpt><trkpt lat="45.17628" lon="11.623815"><ele>7.7142857142857135</ele><time>2026-04-12T06:48:55.536Z</time></trkpt><trkpt lat="45.1762967" lon="11.6239167"><ele>8.0</ele><time>2026-04-12T06:48:56.538Z</time></trkpt><trkpt lat="45.1763167" lon="11.6240133"><ele>8.0</ele><time>2026-04-12T06:48:57.558Z</time></trkpt><trkpt lat="45.17634" lon="11.6241117"><ele>7.999999999999999</ele><time>2026-04-12T06:48:58.538Z</time></trkpt><trkpt lat="45.1763633" lon="11.62421"><ele>8.0</ele><time>2026-04-12T06:48:59.529Z</time></trkpt><trkpt lat="45.1763883" lon="11.6243033"><ele>8.0</ele><time>2026-04-12T06:49:00.548Z</time></trkpt><trkpt lat="45.17641" lon="11.624395"><ele>7.999999999999999</ele><time>2026-04-12T06:49:01.545Z</time></trkpt><trkpt lat="45.1764333" lon="11.624485"><ele>8.0</ele><time>2026-04-12T06:49:02.547Z</time></trkpt><trkpt lat="45.176455" lon="11.6245817"><ele>8.0</ele><time>2026-04-12T06:49:03.533Z</time></trkpt><trkpt lat="45.1764833" lon="11.6246767"><ele>7.999999999999999</ele><time>2026-04-12T06:49:04.529Z</time></trkpt><trkpt lat="45.1765083" lon="11.6247733"><ele>8.0</ele><time>2026-04-12T06:49:05.567Z</time></trkpt><trkpt lat="45.1765333" lon="11.6248717"><ele>8.0</ele><time>2026-04-12T06:49:06.544Z</time></trkpt><trkpt lat="45.1765583" lon="11.6249767"><ele>8.0</ele><time>2026-04-12T06:49:07.534Z</time></trkpt><trkpt lat="45.1765883" lon="11.62508"><ele>7.999999999999999</ele><time>2026-04-12T06:49:08.541Z</time></trkpt><trkpt lat="45.1766283" lon="11.6251833"><ele>8.0</ele><time>2026-04-12T06:49:09.544Z</time></trkpt><trkpt lat="45.17667" lon="11.6252667"><ele>8.166666666666666</ele><time>2026-04-12T06:49:10.528Z</time></trkpt><trkpt lat="45.1767117" lon="11.62535"><ele>8.333333333333332</ele><time>2026-04-12T06:49:11.53Z</time></trkpt><trkpt lat="45.17675" lon="11.625435"><ele>8.5</ele><time>2026-04-12T06:49:12.553Z</time></trkpt><trkpt lat="45.1767867" lon="11.62552"><ele>8.666666666666666</ele><time>2026-04-12T06:49:13.547Z</time></trkpt><trkpt lat="45.1768183" lon="11.6256017"><ele>8.833333333333334</ele><time>2026-04-12T06:49:14.531Z</time></trkpt><trkpt lat="45.176865" lon="11.6257467"><ele>9.0</ele><time>2026-04-12T06:49:16.55Z</time></trkpt><trkpt lat="45.17695" lon="11.6258417"><ele>9.0</ele><time>2026-04-12T06:49:18.536Z</time></trkpt><trkpt lat="45.1770667" lon="11.6258933"><ele>9.0</ele><time>2026-04-12T06:49:20.55Z</time></trkpt><trkpt lat="45.1771333" lon="11.6259133"><ele>9.0</ele><time>2026-04-12T06:49:21.524Z</time></trkpt><trkpt lat="45.1772017" lon="11.6259383"><ele>9.0</ele><time>2026-04-12T06:49:22.546Z</time></trkpt><trkpt lat="45.1772683" lon="11.6259633"><ele>9.0</ele><time>2026-04-12T06:49:23.537Z</time></trkpt><trkpt lat="45.1773367" lon="11.626"><ele>9.0</ele><time>2026-04-12T06:49:24.547Z</time></trkpt><trkpt lat="45.177405" lon="11.6260433"><ele>8.833333333333334</ele><time>2026-04-12T06:49:25.534Z</time></trkpt><trkpt lat="45.1774683" lon="11.6261033"><ele>8.666666666666666</ele><time>2026-04-12T06:49:26.526Z</time></trkpt><trkpt lat="45.177535" lon="11.626175"><ele>8.5</ele><time>2026-04-12T06:49:27.526Z</time></trkpt><trkpt lat="45.1776033" lon="11.6262467"><ele>8.333333333333332</ele><time>2026-04-12T06:49:28.542Z</time></trkpt><trkpt lat="45.1776733" lon="11.6263133"><ele>8.166666666666666</ele><time>2026-04-12T06:49:29.546Z</time></trkpt><trkpt lat="45.17774" lon="11.6263733"><ele>8.0</ele><time>2026-04-12T06:49:30.551Z</time></trkpt><trkpt lat="45.1778017" lon="11.6264317"><ele>7.666666666666666</ele><time>2026-04-12T06:49:31.548Z</time></trkpt><trkpt lat="45.1778617" lon="11.6264867"><ele>7.333333333333333</ele><time>2026-04-12T06:49:32.552Z</time></trkpt><trkpt lat="45.1779217" lon="11.6265417"><ele>7.0</ele><time>2026-04-12T06:49:33.536Z</time></trkpt><trkpt lat="45.1779883" lon="11.626595"><ele>6.666666666666666</ele><time>2026-04-12T06:49:34.568Z</time></trkpt><trkpt lat="45.1780583" lon="11.6266467"><ele>6.333333333333333</ele><time>2026-04-12T06:49:35.533Z</time></trkpt><trkpt lat="45.1781283" lon="11.6266933"><ele>6.0</ele><time>2026-04-12T06:49:36.53Z</time></trkpt><trkpt lat="45.1782033" lon="11.626725"><ele>6.0</ele><time>2026-04-12T06:49:37.548Z</time></trkpt><trkpt lat="45.178275" lon="11.6267583"><ele>6.0</ele><time>2026-04-12T06:49:38.547Z</time></trkpt><trkpt lat="45.1783483" lon="11.62679"><ele>6.0</ele><time>2026-04-12T06:49:39.541Z</time></trkpt><trkpt lat="45.1784217" lon="11.6268217"><ele>6.0</ele><time>2026-04-12T06:49:40.534Z</time></trkpt><trkpt lat="45.178495" lon="11.62685"><ele>6.0</ele><time>2026-04-12T06:49:41.543Z</time></trkpt><trkpt lat="45.17857" lon="11.6268783"><ele>6.0</ele><time>2026-04-12T06:49:42.542Z</time></trkpt><trkpt lat="45.178645" lon="11.62691"><ele>6.0</ele><time>2026-04-12T06:49:43.535Z</time></trkpt><trkpt lat="45.1787167" lon="11.6269417"><ele>6.0</ele><time>2026-04-12T06:49:44.551Z</time></trkpt><trkpt lat="45.17879" lon="11.62697"><ele>6.0</ele><time>2026-04-12T06:49:45.551Z</time></trkpt><trkpt lat="45.1788633" lon="11.6270033"><ele>6.0</ele><time>2026-04-12T06:49:46.543Z</time></trkpt><trkpt lat="45.1789367" lon="11.6270367"><ele>6.0</ele><time>2026-04-12T06:49:47.55Z</time></trkpt><trkpt lat="45.17901" lon="11.6270667"><ele>6.0</ele><time>2026-04-12T06:49:48.55Z</time></trkpt><trkpt lat="45.1790833" lon="11.627095"><ele>6.166666666666667</ele><time>2026-04-12T06:49:49.535Z</time></trkpt><trkpt lat="45.1791517" lon="11.6271283"><ele>6.333333333333334</ele><time>2026-04-12T06:49:50.543Z</time></trkpt><trkpt lat="45.17922" lon="11.6271617"><ele>6.5</ele><time>2026-04-12T06:49:51.536Z</time></trkpt><trkpt lat="45.1792883" lon="11.6272"><ele>6.666666666666667</ele><time>2026-04-12T06:49:52.537Z</time></trkpt><trkpt lat="45.17936" lon="11.6272417"><ele>6.833333333333334</ele><time>2026-04-12T06:49:53.53Z</time></trkpt><trkpt lat="45.17943" lon="11.62729"><ele>7.0</ele><time>2026-04-12T06:49:54.551Z</time></trkpt><trkpt lat="45.1795" lon="11.627335"><ele>7.0</ele><time>2026-04-12T06:49:55.552Z</time></trkpt><trkpt lat="45.1795683" lon="11.627375"><ele>7.0</ele><time>2026-04-12T06:49:56.545Z</time></trkpt><trkpt lat="45.1796383" lon="11.62741"><ele>7.0</ele><time>2026-04-12T06:49:57.54Z</time></trkpt><trkpt lat="45.1797067" lon="11.62745"><ele>7.0</ele><time>2026-04-12T06:49:58.536Z</time></trkpt><trkpt lat="45.1797733" lon="11.62749"><ele>7.0</ele><time>2026-04-12T06:49:59.538Z</time></trkpt><trkpt lat="45.1798417" lon="11.6275333"><ele>7.0</ele><time>2026-04-12T06:50:00.539Z</time></trkpt><trkpt lat="45.1799083" lon="11.62757"><ele>7.0</ele><time>2026-04-12T06:50:01.546Z</time></trkpt><trkpt lat="45.1799783" lon="11.6276033"><ele>6.857142857142857</ele><time>2026-04-12T06:50:02.551Z</time></trkpt><trkpt lat="45.1800467" lon="11.6276417"><ele>6.714285714285714</ele><time>2026-04-12T06:50:03.549Z</time></trkpt><trkpt lat="45.1801167" lon="11.6276767"><ele>6.571428571428571</ele><time>2026-04-12T06:50:04.541Z</time></trkpt><trkpt lat="45.180185" lon="11.6277117"><ele>6.428571428571429</ele><time>2026-04-12T06:50:05.539Z</time></trkpt><trkpt lat="45.1802567" lon="11.62775"><ele>6.285714285714286</ele><time>2026-04-12T06:50:06.538Z</time></trkpt><trkpt lat="45.1803283" lon="11.6277883"><ele>6.142857142857142</ele><time>2026-04-12T06:50:07.538Z</time></trkpt><trkpt lat="45.1803983" lon="11.627825"><ele>6.0</ele><time>2026-04-12T06:50:08.532Z</time></trkpt><trkpt lat="45.1804683" lon="11.6278633"><ele>6.0</ele><time>2026-04-12T06:50:09.543Z</time></trkpt><trkpt lat="45.18054" lon="11.6279"><ele>6.0</ele><time>2026-04-12T06:50:10.536Z</time></trkpt><trkpt lat="45.18061" lon="11.6279283"><ele>6.0</ele><time>2026-04-12T06:50:11.534Z</time></trkpt><trkpt lat="45.18068" lon="11.6279617"><ele>6.0</ele><time>2026-04-12T06:50:12.549Z</time></trkpt><trkpt lat="45.1807533" lon="11.6279933"><ele>6.0</ele><time>2026-04-12T06:50:13.536Z</time></trkpt><trkpt lat="45.1808267" lon="11.62803"><ele>6.0</ele><time>2026-04-12T06:50:14.526Z</time></trkpt><trkpt lat="45.1808983" lon="11.6280633"><ele>6.142857142857142</ele><time>2026-04-12T06:50:15.532Z</time></trkpt><trkpt lat="45.1809683" lon="11.6280983"><ele>6.285714285714286</ele><time>2026-04-12T06:50:16.533Z</time></trkpt><trkpt lat="45.1810383" lon="11.6281333"><ele>6.428571428571429</ele><time>2026-04-12T06:50:17.557Z</time></trkpt><trkpt lat="45.1811083" lon="11.628165"><ele>6.571428571428571</ele><time>2026-04-12T06:50:18.562Z</time></trkpt><trkpt lat="45.18118" lon="11.6282"><ele>6.714285714285714</ele><time>2026-04-12T06:50:19.534Z</time></trkpt><trkpt lat="45.1812483" lon="11.6282317"><ele>6.857142857142857</ele><time>2026-04-12T06:50:20.538Z</time></trkpt><trkpt lat="45.1813183" lon="11.6282617"><ele>7.0</ele><time>2026-04-12T06:50:21.541Z</time></trkpt><trkpt lat="45.18138" lon="11.6283"><ele>7.0</ele><time>2026-04-12T06:50:22.549Z</time></trkpt><trkpt lat="45.1814367" lon="11.6283483"><ele>7.0</ele><time>2026-04-12T06:50:23.542Z</time></trkpt><trkpt lat="45.18149" lon="11.6284033"><ele>7.0</ele><time>2026-04-12T06:50:24.537Z</time></trkpt><trkpt lat="45.1815467" lon="11.62846"><ele>7.0</ele><time>2026-04-12T06:50:25.549Z</time></trkpt><trkpt lat="45.1816067" lon="11.6285117"><ele>7.0</ele><time>2026-04-12T06:50:26.553Z</time></trkpt><trkpt lat="45.1816783" lon="11.6285417"><ele>7.0</ele><time>2026-04-12T06:50:27.548Z</time></trkpt><trkpt lat="45.181755" lon="11.6285533"><ele>7.0</ele><time>2026-04-12T06:50:28.55Z</time></trkpt><trkpt lat="45.1818333" lon="11.6285667"><ele>7.000000000000001</ele><time>2026-04-12T06:50:29.541Z</time></trkpt><trkpt lat="45.1819067" lon="11.6285933"><ele>7.0</ele><time>2026-04-12T06:50:30.531Z</time></trkpt><trkpt lat="45.1819767" lon="11.6286317"><ele>7.0</ele><time>2026-04-12T06:50:31.532Z</time></trkpt><trkpt lat="45.1820483" lon="11.6286767"><ele>7.0</ele><time>2026-04-12T06:50:32.533Z</time></trkpt><trkpt lat="45.1821233" lon="11.6287183"><ele>7.000000000000001</ele><time>2026-04-12T06:50:33.537Z</time></trkpt><trkpt lat="45.1821983" lon="11.6287567"><ele>7.0</ele><time>2026-04-12T06:50:34.538Z</time></trkpt><trkpt lat="45.1822717" lon="11.6287983"><ele>7.000000000000001</ele><time>2026-04-12T06:50:35.545Z</time></trkpt><trkpt lat="45.1823467" lon="11.6288333"><ele>7.0</ele><time>2026-04-12T06:50:36.533Z</time></trkpt><trkpt lat="45.1824183" lon="11.628875"><ele>7.0</ele><time>2026-04-12T06:50:37.53Z</time></trkpt><trkpt lat="45.1824883" lon="11.6289133"><ele>7.0</ele><time>2026-04-12T06:50:38.548Z</time></trkpt><trkpt lat="45.1825617" lon="11.6289517"><ele>7.000000000000001</ele><time>2026-04-12T06:50:39.538Z</time></trkpt><trkpt lat="45.1826367" lon="11.6289917"><ele>7.0</ele><time>2026-04-12T06:50:40.533Z</time></trkpt><trkpt lat="45.1827083" lon="11.6290283"><ele>7.166666666666667</ele><time>2026-04-12T06:50:41.543Z</time></trkpt><trkpt lat="45.18278" lon="11.6290633"><ele>7.333333333333334</ele><time>2026-04-12T06:50:42.542Z</time></trkpt><trkpt lat="45.18285" lon="11.6291"><ele>7.5</ele><time>2026-04-12T06:50:43.536Z</time></trkpt><trkpt lat="45.1829233" lon="11.6291333"><ele>7.666666666666666</ele><time>2026-04-12T06:50:44.534Z</time></trkpt><trkpt lat="45.182995" lon="11.6291667"><ele>7.833333333333333</ele><time>2026-04-12T06:50:45.542Z</time></trkpt><trkpt lat="45.1830667" lon="11.6291983"><ele>8.0</ele><time>2026-04-12T06:50:46.535Z</time></trkpt><trkpt lat="45.1831383" lon="11.62923"><ele>7.666666666666666</ele><time>2026-04-12T06:50:47.54Z</time></trkpt><trkpt lat="45.1832083" lon="11.6292583"><ele>7.333333333333333</ele><time>2026-04-12T06:50:48.535Z</time></trkpt><trkpt lat="45.1832817" lon="11.6292867"><ele>7.0</ele><time>2026-04-12T06:50:49.546Z</time></trkpt><trkpt lat="45.1833567" lon="11.6293133"><ele>6.666666666666666</ele><time>2026-04-12T06:50:50.533Z</time></trkpt><trkpt lat="45.18343" lon="11.6293383"><ele>6.333333333333333</ele><time>2026-04-12T06:50:51.538Z</time></trkpt><trkpt lat="45.1835017" lon="11.6293633"><ele>6.0</ele><time>2026-04-12T06:50:52.534Z</time></trkpt><trkpt lat="45.183575" lon="11.6293867"><ele>6.0</ele><time>2026-04-12T06:50:53.531Z</time></trkpt><trkpt lat="45.1836533" lon="11.6294117"><ele>6.0</ele><time>2026-04-12T06:50:54.547Z</time></trkpt><trkpt lat="45.1837283" lon="11.629435"><ele>6.0</ele><time>2026-04-12T06:50:55.553Z</time></trkpt><trkpt lat="45.1838033" lon="11.6294583"><ele>6.0</ele><time>2026-04-12T06:50:56.551Z</time></trkpt><trkpt lat="45.183875" lon="11.62948"><ele>6.0</ele><time>2026-04-12T06:50:57.529Z</time></trkpt><trkpt lat="45.18395" lon="11.629515"><ele>6.0</ele><time>2026-04-12T06:50:58.56Z</time></trkpt><trkpt lat="45.1840283" lon="11.629555"><ele>6.142857142857142</ele><time>2026-04-12T06:50:59.529Z</time></trkpt><trkpt lat="45.184105" lon="11.6295967"><ele>6.285714285714286</ele><time>2026-04-12T06:51:00.539Z</time></trkpt><trkpt lat="45.1841767" lon="11.6296183"><ele>6.428571428571429</ele><time>2026-04-12T06:51:01.618Z</time></trkpt><trkpt lat="45.1842467" lon="11.6296383"><ele>6.571428571428571</ele><time>2026-04-12T06:51:02.615Z</time></trkpt><trkpt lat="45.1843183" lon="11.629655"><ele>6.714285714285714</ele><time>2026-04-12T06:51:03.548Z</time></trkpt><trkpt lat="45.18439" lon="11.6296767"><ele>6.857142857142857</ele><time>2026-04-12T06:51:04.572Z</time></trkpt><trkpt lat="45.184465" lon="11.6296967"><ele>7.0</ele><time>2026-04-12T06:51:05.665Z</time></trkpt><trkpt lat="45.18454" lon="11.629715"><ele>7.0</ele><time>2026-04-12T06:51:06.684Z</time></trkpt><trkpt lat="45.1846867" lon="11.6297533"><ele>7.0</ele><time>2026-04-12T06:51:08.571Z</time></trkpt><trkpt lat="45.1848367" lon="11.62979"><ele>7.0</ele><time>2026-04-12T06:51:10.623Z</time></trkpt><trkpt lat="45.18491" lon="11.6298083"><ele>7.0</ele><time>2026-04-12T06:51:11.611Z</time></trkpt><trkpt lat="45.18513" lon="11.629855"><ele>7.333333333333334</ele><time>2026-04-12T06:51:14.584Z</time></trkpt><trkpt lat="45.1852033" lon="11.6298683"><ele>7.666666666666667</ele><time>2026-04-12T06:51:15.604Z</time></trkpt><trkpt lat="45.185275" lon="11.62988"><ele>8.0</ele><time>2026-04-12T06:51:16.583Z</time></trkpt><trkpt lat="45.1853483" lon="11.6298917"><ele>8.333333333333334</ele><time>2026-04-12T06:51:17.637Z</time></trkpt><trkpt lat="45.18542" lon="11.6299017"><ele>8.666666666666666</ele><time>2026-04-12T06:51:18.648Z</time></trkpt><trkpt lat="45.18557" lon="11.629925"><ele>9.0</ele><time>2026-04-12T06:51:20.721Z</time></trkpt><trkpt lat="45.1857967" lon="11.6299733"><ele>9.0</ele><time>2026-04-12T06:51:23.795Z</time></trkpt><trkpt lat="45.18602" lon="11.6300117"><ele>9.0</ele><time>2026-04-12T06:51:26.732Z</time></trkpt><trkpt lat="45.18617" lon="11.6300367"><ele>9.0</ele><time>2026-04-12T06:51:28.55Z</time></trkpt><trkpt lat="45.1862467" lon="11.6300533"><ele>9.0</ele><time>2026-04-12T06:51:29.689Z</time></trkpt><trkpt lat="45.1863233" lon="11.6300617"><ele>9.0</ele><time>2026-04-12T06:51:30.608Z</time></trkpt><trkpt lat="45.18647" lon="11.63009"><ele>9.0</ele><time>2026-04-12T06:51:32.549Z</time></trkpt><trkpt lat="45.1865433" lon="11.6301083"><ele>9.0</ele><time>2026-04-12T06:51:33.571Z</time></trkpt><trkpt lat="45.1866167" lon="11.6301217"><ele>9.0</ele><time>2026-04-12T06:51:34.648Z</time></trkpt><trkpt lat="45.1866917" lon="11.630135"><ele>9.0</ele><time>2026-04-12T06:51:35.597Z</time></trkpt><trkpt lat="45.18698" lon="11.6301667"><ele>8.75</ele><time>2026-04-12T06:51:39.607Z</time></trkpt><trkpt lat="45.1871167" lon="11.63016"><ele>8.5</ele><time>2026-04-12T06:51:41.571Z</time></trkpt><trkpt lat="45.18718" lon="11.63017"><ele>8.25</ele><time>2026-04-12T06:51:42.68Z</time></trkpt><trkpt lat="45.187325" lon="11.6302267"><ele>8.0</ele><time>2026-04-12T06:51:44.595Z</time></trkpt><trkpt lat="45.1874667" lon="11.6303067"><ele>8.0</ele><time>2026-04-12T06:51:46.663Z</time></trkpt><trkpt lat="45.1875417" lon="11.6303533"><ele>8.0</ele><time>2026-04-12T06:51:47.794Z</time></trkpt><trkpt lat="45.1876917" lon="11.6304617"><ele>8.0</ele><time>2026-04-12T06:51:49.545Z</time></trkpt><trkpt lat="45.18776" lon="11.6305217"><ele>8.0</ele><time>2026-04-12T06:51:50.572Z</time></trkpt><trkpt lat="45.18783" lon="11.63058"><ele>8.0</ele><time>2026-04-12T06:51:51.832Z</time></trkpt><trkpt lat="45.1879717" lon="11.6306983"><ele>8.0</ele><time>2026-04-12T06:51:53.6Z</time></trkpt><trkpt lat="45.18804" lon="11.6307567"><ele>8.0</ele><time>2026-04-12T06:51:54.608Z</time></trkpt><trkpt lat="45.1881067" lon="11.6308133"><ele>8.0</ele><time>2026-04-12T06:51:55.845Z</time></trkpt><trkpt lat="45.188235" lon="11.63092"><ele>8.0</ele><time>2026-04-12T06:51:57.565Z</time></trkpt><trkpt lat="45.1882983" lon="11.6309733"><ele>8.0</ele><time>2026-04-12T06:51:58.602Z</time></trkpt><trkpt lat="45.1883633" lon="11.6310283"><ele>7.800000000000001</ele><time>2026-04-12T06:51:59.694Z</time></trkpt><trkpt lat="45.1884967" lon="11.6311383"><ele>7.6000000000000005</ele><time>2026-04-12T06:52:01.55Z</time></trkpt><trkpt lat="45.1885633" lon="11.6311917"><ele>7.3999999999999995</ele><time>2026-04-12T06:52:02.619Z</time></trkpt><trkpt lat="45.18863" lon="11.631245"><ele>7.199999999999999</ele><time>2026-04-12T06:52:03.68Z</time></trkpt><trkpt lat="45.1886983" lon="11.6313017"><ele>7.0</ele><time>2026-04-12T06:52:04.568Z</time></trkpt><trkpt lat="45.188765" lon="11.6313567"><ele>6.833333333333334</ele><time>2026-04-12T06:52:05.561Z</time></trkpt><trkpt lat="45.1888317" lon="11.6314117"><ele>6.666666666666667</ele><time>2026-04-12T06:52:06.549Z</time></trkpt><trkpt lat="45.188895" lon="11.63147"><ele>6.5</ele><time>2026-04-12T06:52:07.535Z</time></trkpt><trkpt lat="45.18896" lon="11.63153"><ele>6.333333333333334</ele><time>2026-04-12T06:52:08.559Z</time></trkpt><trkpt lat="45.189025" lon="11.631585"><ele>6.166666666666667</ele><time>2026-04-12T06:52:09.641Z</time></trkpt><trkpt lat="45.18909" lon="11.63164"><ele>6.0</ele><time>2026-04-12T06:52:10.544Z</time></trkpt><trkpt lat="45.1892217" lon="11.63175"><ele>6.4</ele><time>2026-04-12T06:52:12.559Z</time></trkpt><trkpt lat="45.1892883" lon="11.631805"><ele>6.8</ele><time>2026-04-12T06:52:13.642Z</time></trkpt><trkpt lat="45.1894267" lon="11.6319133"><ele>7.200000000000001</ele><time>2026-04-12T06:52:15.597Z</time></trkpt><trkpt lat="45.1894933" lon="11.6319667"><ele>7.6000000000000005</ele><time>2026-04-12T06:52:16.622Z</time></trkpt><trkpt lat="45.1895583" lon="11.6320183"><ele>8.0</ele><time>2026-04-12T06:52:17.572Z</time></trkpt><trkpt lat="45.1896233" lon="11.6320733"><ele>8.0</ele><time>2026-04-12T06:52:18.614Z</time></trkpt><trkpt lat="45.1898217" lon="11.6322367"><ele>8.0</ele><time>2026-04-12T06:52:21.56Z</time></trkpt><trkpt lat="45.18989" lon="11.6322917"><ele>8.0</ele><time>2026-04-12T06:52:22.551Z</time></trkpt><trkpt lat="45.18996" lon="11.632345"><ele>8.0</ele><time>2026-04-12T06:52:23.539Z</time></trkpt><trkpt lat="45.1900283" lon="11.6323967"><ele>8.166666666666666</ele><time>2026-04-12T06:52:24.553Z</time></trkpt><trkpt lat="45.190095" lon="11.6324517"><ele>8.333333333333332</ele><time>2026-04-12T06:52:25.573Z</time></trkpt><trkpt lat="45.19016" lon="11.6325017"><ele>8.5</ele><time>2026-04-12T06:52:26.58Z</time></trkpt><trkpt lat="45.1902233" lon="11.6325533"><ele>8.666666666666666</ele><time>2026-04-12T06:52:27.59Z</time></trkpt><trkpt lat="45.19029" lon="11.632605"><ele>8.833333333333334</ele><time>2026-04-12T06:52:28.526Z</time></trkpt><trkpt lat="45.190355" lon="11.63266"><ele>9.0</ele><time>2026-04-12T06:52:29.541Z</time></trkpt><trkpt lat="45.1904217" lon="11.632715"><ele>9.0</ele><time>2026-04-12T06:52:30.53Z</time></trkpt><trkpt lat="45.19049" lon="11.6327683"><ele>9.0</ele><time>2026-04-12T06:52:31.535Z</time></trkpt><trkpt lat="45.1905583" lon="11.6328183"><ele>9.0</ele><time>2026-04-12T06:52:32.554Z</time></trkpt><trkpt lat="45.1906217" lon="11.6328767"><ele>9.0</ele><time>2026-04-12T06:52:33.527Z</time></trkpt><trkpt lat="45.1906883" lon="11.63293"><ele>9.0</ele><time>2026-04-12T06:52:34.556Z</time></trkpt><trkpt lat="45.190755" lon="11.6329833"><ele>9.0</ele><time>2026-04-12T06:52:35.545Z</time></trkpt><trkpt lat="45.19082" lon="11.6330417"><ele>8.333333333333334</ele><time>2026-04-12T06:52:36.528Z</time></trkpt><trkpt lat="45.190885" lon="11.633105"><ele>7.666666666666667</ele><time>2026-04-12T06:52:37.55Z</time></trkpt><trkpt lat="45.1909517" lon="11.6331617"><ele>7.0</ele><time>2026-04-12T06:52:38.541Z</time></trkpt><trkpt lat="45.1910167" lon="11.6332217"><ele>6.333333333333334</ele><time>2026-04-12T06:52:39.53Z</time></trkpt><trkpt lat="45.19108" lon="11.6332783"><ele>5.666666666666667</ele><time>2026-04-12T06:52:40.537Z</time></trkpt><trkpt lat="45.191145" lon="11.6333333"><ele>5.0</ele><time>2026-04-12T06:52:41.531Z</time></trkpt><trkpt lat="45.1912067" lon="11.63339"><ele>5.0</ele><time>2026-04-12T06:52:42.542Z</time></trkpt><trkpt lat="45.19127" lon="11.6334467"><ele>5.0</ele><time>2026-04-12T06:52:43.532Z</time></trkpt><trkpt lat="45.1913333" lon="11.6335"><ele>5.0</ele><time>2026-04-12T06:52:44.529Z</time></trkpt><trkpt lat="45.1914" lon="11.63356"><ele>5.0</ele><time>2026-04-12T06:52:45.536Z</time></trkpt><trkpt lat="45.191465" lon="11.63362"><ele>5.0</ele><time>2026-04-12T06:52:46.534Z</time></trkpt><trkpt lat="45.191535" lon="11.6336767"><ele>5.0</ele><time>2026-04-12T06:52:47.545Z</time></trkpt><trkpt lat="45.1916033" lon="11.63373"><ele>5.166666666666667</ele><time>2026-04-12T06:52:48.527Z</time></trkpt><trkpt lat="45.1916717" lon="11.633785"><ele>5.333333333333334</ele><time>2026-04-12T06:52:49.56Z</time></trkpt><trkpt lat="45.1917383" lon="11.6338417"><ele>5.5</ele><time>2026-04-12T06:52:50.538Z</time></trkpt><trkpt lat="45.1918067" lon="11.6338967"><ele>5.666666666666667</ele><time>2026-04-12T06:52:51.531Z</time></trkpt><trkpt lat="45.191875" lon="11.6339517"><ele>5.833333333333333</ele><time>2026-04-12T06:52:52.548Z</time></trkpt><trkpt lat="45.191945" lon="11.6340067"><ele>6.0</ele><time>2026-04-12T06:52:53.525Z</time></trkpt><trkpt lat="45.1920133" lon="11.6340617"><ele>6.0</ele><time>2026-04-12T06:52:54.535Z</time></trkpt><trkpt lat="45.1920817" lon="11.6341167"><ele>6.0</ele><time>2026-04-12T06:52:55.536Z</time></trkpt><trkpt lat="45.19215" lon="11.6341733"><ele>6.0</ele><time>2026-04-12T06:52:56.539Z</time></trkpt><trkpt lat="45.1922167" lon="11.6342283"><ele>6.0</ele><time>2026-04-12T06:52:57.528Z</time></trkpt><trkpt lat="45.192285" lon="11.6342817"><ele>6.0</ele><time>2026-04-12T06:52:58.527Z</time></trkpt><trkpt lat="45.1923517" lon="11.6343383"><ele>6.0</ele><time>2026-04-12T06:52:59.539Z</time></trkpt><trkpt lat="45.19242" lon="11.6343967"><ele>6.0</ele><time>2026-04-12T06:53:00.541Z</time></trkpt><trkpt lat="45.19249" lon="11.6344517"><ele>6.0</ele><time>2026-04-12T06:53:01.54Z</time></trkpt><trkpt lat="45.1925583" lon="11.6345083"><ele>6.0</ele><time>2026-04-12T06:53:02.537Z</time></trkpt><trkpt lat="45.1926267" lon="11.6345633"><ele>6.0</ele><time>2026-04-12T06:53:03.535Z</time></trkpt><trkpt lat="45.192695" lon="11.6346183"><ele>6.0</ele><time>2026-04-12T06:53:04.546Z</time></trkpt><trkpt lat="45.192765" lon="11.6346733"><ele>6.0</ele><time>2026-04-12T06:53:05.555Z</time></trkpt><trkpt lat="45.192835" lon="11.6347283"><ele>6.0</ele><time>2026-04-12T06:53:06.536Z</time></trkpt><trkpt lat="45.1929017" lon="11.634785"><ele>6.0</ele><time>2026-04-12T06:53:07.532Z</time></trkpt><trkpt lat="45.19297" lon="11.6348383"><ele>6.0</ele><time>2026-04-12T06:53:08.554Z</time></trkpt><trkpt lat="45.1930367" lon="11.6348917"><ele>6.0</ele><time>2026-04-12T06:53:09.529Z</time></trkpt><trkpt lat="45.1931017" lon="11.6349483"><ele>6.0</ele><time>2026-04-12T06:53:10.542Z</time></trkpt><trkpt lat="45.1931683" lon="11.6350117"><ele>6.0</ele><time>2026-04-12T06:53:11.537Z</time></trkpt><trkpt lat="45.193235" lon="11.635065"><ele>6.0</ele><time>2026-04-12T06:53:12.534Z</time></trkpt><trkpt lat="45.1933017" lon="11.6351217"><ele>6.0</ele><time>2026-04-12T06:53:13.551Z</time></trkpt><trkpt lat="45.1933683" lon="11.6351783"><ele>6.0</ele><time>2026-04-12T06:53:14.537Z</time></trkpt><trkpt lat="45.1934333" lon="11.6352367"><ele>6.0</ele><time>2026-04-12T06:53:15.537Z</time></trkpt><trkpt lat="45.1935" lon="11.6352933"><ele>6.0</ele><time>2026-04-12T06:53:16.533Z</time></trkpt><trkpt lat="45.1935667" lon="11.6353517"><ele>6.0</ele><time>2026-04-12T06:53:17.525Z</time></trkpt><trkpt lat="45.193635" lon="11.6354083"><ele>6.0</ele><time>2026-04-12T06:53:18.549Z</time></trkpt><trkpt lat="45.193705" lon="11.6354667"><ele>6.0</ele><time>2026-04-12T06:53:19.53Z</time></trkpt><trkpt lat="45.193775" lon="11.635525"><ele>6.0</ele><time>2026-04-12T06:53:20.548Z</time></trkpt><trkpt lat="45.193845" lon="11.6355783"><ele>6.0</ele><time>2026-04-12T06:53:21.541Z</time></trkpt><trkpt lat="45.1939167" lon="11.63563"><ele>6.0</ele><time>2026-04-12T06:53:22.547Z</time></trkpt><trkpt lat="45.1939883" lon="11.6356867"><ele>6.0</ele><time>2026-04-12T06:53:23.531Z</time></trkpt><trkpt lat="45.194055" lon="11.6357417"><ele>6.0</ele><time>2026-04-12T06:53:24.543Z</time></trkpt><trkpt lat="45.1941217" lon="11.6358"><ele>6.0</ele><time>2026-04-12T06:53:25.54Z</time></trkpt><trkpt lat="45.19419" lon="11.6358517"><ele>6.0</ele><time>2026-04-12T06:53:26.529Z</time></trkpt><trkpt lat="45.1942567" lon="11.635905"><ele>6.0</ele><time>2026-04-12T06:53:27.547Z</time></trkpt><trkpt lat="45.1943217" lon="11.6359567"><ele>6.0</ele><time>2026-04-12T06:53:28.534Z</time></trkpt><trkpt lat="45.1943867" lon="11.63601"><ele>6.0</ele><time>2026-04-12T06:53:29.548Z</time></trkpt><trkpt lat="45.1944483" lon="11.63606"><ele>5.999999999999999</ele><time>2026-04-12T06:53:30.551Z</time></trkpt><trkpt lat="45.1945133" lon="11.63611"><ele>6.0</ele><time>2026-04-12T06:53:31.539Z</time></trkpt><trkpt lat="45.1945783" lon="11.6361617"><ele>6.0</ele><time>2026-04-12T06:53:32.532Z</time></trkpt><trkpt lat="45.1946433" lon="11.6362133"><ele>6.0</ele><time>2026-04-12T06:53:33.533Z</time></trkpt><trkpt lat="45.1947083" lon="11.6362667"><ele>6.0</ele><time>2026-04-12T06:53:34.532Z</time></trkpt><trkpt lat="45.1947733" lon="11.6363183"><ele>5.999999999999999</ele><time>2026-04-12T06:53:35.531Z</time></trkpt><trkpt lat="45.19484" lon="11.63637"><ele>6.0</ele><time>2026-04-12T06:53:36.555Z</time></trkpt><trkpt lat="45.1949067" lon="11.636425"><ele>5.999999999999999</ele><time>2026-04-12T06:53:37.547Z</time></trkpt><trkpt lat="45.19497" lon="11.6364833"><ele>6.0</ele><time>2026-04-12T06:53:38.54Z</time></trkpt><trkpt lat="45.1950317" lon="11.63654"><ele>6.0</ele><time>2026-04-12T06:53:39.563Z</time></trkpt><trkpt lat="45.1950933" lon="11.6365917"><ele>6.0</ele><time>2026-04-12T06:53:40.572Z</time></trkpt><trkpt lat="45.195155" lon="11.63664"><ele>6.0</ele><time>2026-04-12T06:53:41.537Z</time></trkpt><trkpt lat="45.1952183" lon="11.6366917"><ele>5.999999999999999</ele><time>2026-04-12T06:53:42.551Z</time></trkpt><trkpt lat="45.1952833" lon="11.636745"><ele>6.0</ele><time>2026-04-12T06:53:43.534Z</time></trkpt><trkpt lat="45.1953483" lon="11.6368"><ele>6.0</ele><time>2026-04-12T06:53:44.539Z</time></trkpt><trkpt lat="45.1954133" lon="11.6368517"><ele>6.0</ele><time>2026-04-12T06:53:45.538Z</time></trkpt><trkpt lat="45.1954817" lon="11.6369017"><ele>6.0</ele><time>2026-04-12T06:53:46.548Z</time></trkpt><trkpt lat="45.1955517" lon="11.6369533"><ele>6.0</ele><time>2026-04-12T06:53:47.531Z</time></trkpt><trkpt lat="45.1956217" lon="11.6370033"><ele>6.0</ele><time>2026-04-12T06:53:48.545Z</time></trkpt><trkpt lat="45.19569" lon="11.63706"><ele>6.0</ele><time>2026-04-12T06:53:49.54Z</time></trkpt><trkpt lat="45.1957583" lon="11.6371183"><ele>6.0</ele><time>2026-04-12T06:53:50.558Z</time></trkpt><trkpt lat="45.1958283" lon="11.6371767"><ele>6.0</ele><time>2026-04-12T06:53:51.53Z</time></trkpt><trkpt lat="45.1958983" lon="11.637235"><ele>6.0</ele><time>2026-04-12T06:53:52.547Z</time></trkpt><trkpt lat="45.195965" lon="11.6372917"><ele>6.0</ele><time>2026-04-12T06:53:53.54Z</time></trkpt><trkpt lat="45.1960317" lon="11.63735"><ele>6.0</ele><time>2026-04-12T06:53:54.536Z</time></trkpt><trkpt lat="45.1960983" lon="11.6374117"><ele>6.0</ele><time>2026-04-12T06:53:55.536Z</time></trkpt><trkpt lat="45.196165" lon="11.63747"><ele>6.0</ele><time>2026-04-12T06:53:56.546Z</time></trkpt><trkpt lat="45.1962317" lon="11.6375267"><ele>6.0</ele><time>2026-04-12T06:53:57.553Z</time></trkpt><trkpt lat="45.1963" lon="11.6375817"><ele>6.0</ele><time>2026-04-12T06:53:58.536Z</time></trkpt><trkpt lat="45.1963683" lon="11.63764"><ele>6.0</ele><time>2026-04-12T06:53:59.552Z</time></trkpt><trkpt lat="45.1964367" lon="11.6377"><ele>6.0</ele><time>2026-04-12T06:54:00.537Z</time></trkpt><trkpt lat="45.1965" lon="11.63776"><ele>6.0</ele><time>2026-04-12T06:54:01.541Z</time></trkpt><trkpt lat="45.1965667" lon="11.637815"><ele>6.166666666666667</ele><time>2026-04-12T06:54:02.548Z</time></trkpt><trkpt lat="45.1966317" lon="11.63787"><ele>6.333333333333334</ele><time>2026-04-12T06:54:03.533Z</time></trkpt><trkpt lat="45.1966983" lon="11.6379267"><ele>6.5</ele><time>2026-04-12T06:54:04.542Z</time></trkpt><trkpt lat="45.1967633" lon="11.6379817"><ele>6.666666666666667</ele><time>2026-04-12T06:54:05.542Z</time></trkpt><trkpt lat="45.19683" lon="11.6380367"><ele>6.833333333333334</ele><time>2026-04-12T06:54:06.546Z</time></trkpt><trkpt lat="45.1968983" lon="11.6380933"><ele>7.0</ele><time>2026-04-12T06:54:07.53Z</time></trkpt><trkpt lat="45.196965" lon="11.6381483"><ele>7.000000000000001</ele><time>2026-04-12T06:54:08.533Z</time></trkpt><trkpt lat="45.1970317" lon="11.6382067"><ele>7.0</ele><time>2026-04-12T06:54:09.535Z</time></trkpt><trkpt lat="45.1971" lon="11.6382633"><ele>7.0</ele><time>2026-04-12T06:54:10.539Z</time></trkpt><trkpt lat="45.197165" lon="11.63832"><ele>7.0</ele><time>2026-04-12T06:54:11.534Z</time></trkpt><trkpt lat="45.1972333" lon="11.6383717"><ele>7.000000000000001</ele><time>2026-04-12T06:54:12.532Z</time></trkpt><trkpt lat="45.1973033" lon="11.6384233"><ele>7.0</ele><time>2026-04-12T06:54:13.533Z</time></trkpt><trkpt lat="45.19737" lon="11.638475"><ele>7.0</ele><time>2026-04-12T06:54:14.547Z</time></trkpt><trkpt lat="45.1974383" lon="11.638525"><ele>7.0</ele><time>2026-04-12T06:54:15.539Z</time></trkpt><trkpt lat="45.1975067" lon="11.6385683"><ele>7.0</ele><time>2026-04-12T06:54:16.541Z</time></trkpt><trkpt lat="45.197575" lon="11.6386117"><ele>7.0</ele><time>2026-04-12T06:54:17.531Z</time></trkpt><trkpt lat="45.19764" lon="11.63865"><ele>7.0</ele><time>2026-04-12T06:54:18.534Z</time></trkpt><trkpt lat="45.197705" lon="11.6386983"><ele>7.0</ele><time>2026-04-12T06:54:19.547Z</time></trkpt><trkpt lat="45.19777" lon="11.63875"><ele>7.0</ele><time>2026-04-12T06:54:20.533Z</time></trkpt><trkpt lat="45.197835" lon="11.6388033"><ele>7.0</ele><time>2026-04-12T06:54:21.539Z</time></trkpt><trkpt lat="45.1978967" lon="11.638855"><ele>7.0</ele><time>2026-04-12T06:54:22.541Z</time></trkpt><trkpt lat="45.1979583" lon="11.63891"><ele>7.0</ele><time>2026-04-12T06:54:23.541Z</time></trkpt><trkpt lat="45.1980167" lon="11.6389633"><ele>7.0</ele><time>2026-04-12T06:54:24.552Z</time></trkpt><trkpt lat="45.19808" lon="11.6390133"><ele>7.0</ele><time>2026-04-12T06:54:25.531Z</time></trkpt><trkpt lat="45.1981433" lon="11.6390633"><ele>7.0</ele><time>2026-04-12T06:54:26.536Z</time></trkpt><trkpt lat="45.1982067" lon="11.6391133"><ele>7.0</ele><time>2026-04-12T06:54:27.554Z</time></trkpt><trkpt lat="45.1982717" lon="11.6391617"><ele>6.857142857142857</ele><time>2026-04-12T06:54:28.542Z</time></trkpt><trkpt lat="45.1983333" lon="11.6392083"><ele>6.714285714285714</ele><time>2026-04-12T06:54:29.541Z</time></trkpt><trkpt lat="45.1983933" lon="11.6392583"><ele>6.571428571428571</ele><time>2026-04-12T06:54:30.543Z</time></trkpt><trkpt lat="45.198455" lon="11.6393067"><ele>6.428571428571429</ele><time>2026-04-12T06:54:31.535Z</time></trkpt><trkpt lat="45.1985183" lon="11.6393617"><ele>6.285714285714286</ele><time>2026-04-12T06:54:32.544Z</time></trkpt><trkpt lat="45.19858" lon="11.6394133"><ele>6.142857142857142</ele><time>2026-04-12T06:54:33.537Z</time></trkpt><trkpt lat="45.19864" lon="11.6394683"><ele>6.0</ele><time>2026-04-12T06:54:34.537Z</time></trkpt><trkpt lat="45.1987033" lon="11.6395217"><ele>6.0</ele><time>2026-04-12T06:54:35.548Z</time></trkpt><trkpt lat="45.1987667" lon="11.6395717"><ele>6.0</ele><time>2026-04-12T06:54:36.534Z</time></trkpt><trkpt lat="45.198835" lon="11.6396267"><ele>6.0</ele><time>2026-04-12T06:54:37.551Z</time></trkpt><trkpt lat="45.198905" lon="11.639685"><ele>6.0</ele><time>2026-04-12T06:54:38.552Z</time></trkpt><trkpt lat="45.198975" lon="11.6397417"><ele>6.0</ele><time>2026-04-12T06:54:39.55Z</time></trkpt><trkpt lat="45.199045" lon="11.6398017"><ele>6.0</ele><time>2026-04-12T06:54:40.532Z</time></trkpt><trkpt lat="45.19912" lon="11.6398667"><ele>6.0</ele><time>2026-04-12T06:54:41.549Z</time></trkpt><trkpt lat="45.1991933" lon="11.63993"><ele>6.0</ele><time>2026-04-12T06:54:42.539Z</time></trkpt><trkpt lat="45.199265" lon="11.6399933"><ele>6.0</ele><time>2026-04-12T06:54:43.539Z</time></trkpt><trkpt lat="45.1993333" lon="11.6400517"><ele>6.0</ele><time>2026-04-12T06:54:44.533Z</time></trkpt><trkpt lat="45.1994017" lon="11.6401067"><ele>6.0</ele><time>2026-04-12T06:54:45.534Z</time></trkpt><trkpt lat="45.19947" lon="11.6401667"><ele>6.0</ele><time>2026-04-12T06:54:46.538Z</time></trkpt><trkpt lat="45.1995383" lon="11.6402233"><ele>6.0</ele><time>2026-04-12T06:54:47.549Z</time></trkpt><trkpt lat="45.199605" lon="11.6402783"><ele>6.0</ele><time>2026-04-12T06:54:48.544Z</time></trkpt><trkpt lat="45.199675" lon="11.6403367"><ele>6.0</ele><time>2026-04-12T06:54:49.533Z</time></trkpt><trkpt lat="45.199745" lon="11.6403933"><ele>6.0</ele><time>2026-04-12T06:54:50.544Z</time></trkpt><trkpt lat="45.199815" lon="11.64045"><ele>6.0</ele><time>2026-04-12T06:54:51.548Z</time></trkpt><trkpt lat="45.1998833" lon="11.64051"><ele>6.0</ele><time>2026-04-12T06:54:52.532Z</time></trkpt><trkpt lat="45.1999517" lon="11.6405667"><ele>6.333333333333333</ele><time>2026-04-12T06:54:53.533Z</time></trkpt><trkpt lat="45.2000233" lon="11.640625"><ele>6.666666666666666</ele><time>2026-04-12T06:54:54.549Z</time></trkpt><trkpt lat="45.2000983" lon="11.64068"><ele>7.0</ele><time>2026-04-12T06:54:55.548Z</time></trkpt><trkpt lat="45.2001783" lon="11.6407333"><ele>7.333333333333333</ele><time>2026-04-12T06:54:56.539Z</time></trkpt><trkpt lat="45.2002583" lon="11.6407817"><ele>7.666666666666666</ele><time>2026-04-12T06:54:57.548Z</time></trkpt><trkpt lat="45.2003417" lon="11.6408317"><ele>8.0</ele><time>2026-04-12T06:54:58.549Z</time></trkpt><trkpt lat="45.200425" lon="11.6408833"><ele>7.999999999999999</ele><time>2026-04-12T06:54:59.536Z</time></trkpt><trkpt lat="45.200505" lon="11.64093"><ele>8.0</ele><time>2026-04-12T06:55:00.539Z</time></trkpt><trkpt lat="45.2005833" lon="11.640975"><ele>8.0</ele><time>2026-04-12T06:55:01.541Z</time></trkpt><trkpt lat="45.20066" lon="11.6410183"><ele>8.0</ele><time>2026-04-12T06:55:02.539Z</time></trkpt><trkpt lat="45.200735" lon="11.6410667"><ele>7.999999999999999</ele><time>2026-04-12T06:55:03.548Z</time></trkpt><trkpt lat="45.2008067" lon="11.6411233"><ele>8.0</ele><time>2026-04-12T06:55:04.548Z</time></trkpt><trkpt lat="45.2008783" lon="11.6411717"><ele>7.857142857142857</ele><time>2026-04-12T06:55:05.553Z</time></trkpt><trkpt lat="45.2009467" lon="11.6412183"><ele>7.7142857142857135</ele><time>2026-04-12T06:55:06.553Z</time></trkpt><trkpt lat="45.201015" lon="11.641265"><ele>7.571428571428571</ele><time>2026-04-12T06:55:07.533Z</time></trkpt><trkpt lat="45.201085" lon="11.64131"><ele>7.428571428571429</ele><time>2026-04-12T06:55:08.54Z</time></trkpt><trkpt lat="45.2011517" lon="11.6413567"><ele>7.285714285714286</ele><time>2026-04-12T06:55:09.551Z</time></trkpt><trkpt lat="45.2012167" lon="11.6413983"><ele>7.142857142857142</ele><time>2026-04-12T06:55:10.551Z</time></trkpt><trkpt lat="45.2012783" lon="11.6414367"><ele>7.0</ele><time>2026-04-12T06:55:11.552Z</time></trkpt><trkpt lat="45.20134" lon="11.6414733"><ele>7.000000000000001</ele><time>2026-04-12T06:55:12.553Z</time></trkpt><trkpt lat="45.2014" lon="11.64151"><ele>7.0</ele><time>2026-04-12T06:55:13.551Z</time></trkpt><trkpt lat="45.2014617" lon="11.6415483"><ele>7.0</ele><time>2026-04-12T06:55:14.546Z</time></trkpt><trkpt lat="45.20152" lon="11.641585"><ele>7.0</ele><time>2026-04-12T06:55:15.535Z</time></trkpt><trkpt lat="45.2015783" lon="11.64162"><ele>7.000000000000001</ele><time>2026-04-12T06:55:16.542Z</time></trkpt><trkpt lat="45.20169" lon="11.64169"><ele>7.0</ele><time>2026-04-12T06:55:18.534Z</time></trkpt><trkpt lat="45.2017733" lon="11.6418233"><ele>7.000000000000001</ele><time>2026-04-12T06:55:20.534Z</time></trkpt><trkpt lat="45.201795" lon="11.6419217"><ele>7.0</ele><time>2026-04-12T06:55:21.546Z</time></trkpt><trkpt lat="45.2018083" lon="11.6420267"><ele>7.0</ele><time>2026-04-12T06:55:22.547Z</time></trkpt><trkpt lat="45.2018183" lon="11.6421333"><ele>7.0</ele><time>2026-04-12T06:55:23.542Z</time></trkpt><trkpt lat="45.2018317" lon="11.64224"><ele>7.000000000000001</ele><time>2026-04-12T06:55:24.529Z</time></trkpt><trkpt lat="45.2018483" lon="11.64235"><ele>7.0</ele><time>2026-04-12T06:55:25.541Z</time></trkpt><trkpt lat="45.2018683" lon="11.6424567"><ele>7.0</ele><time>2026-04-12T06:55:26.536Z</time></trkpt><trkpt lat="45.2018933" lon="11.64256"><ele>7.0</ele><time>2026-04-12T06:55:27.539Z</time></trkpt><trkpt lat="45.201925" lon="11.6426567"><ele>7.0</ele><time>2026-04-12T06:55:28.533Z</time></trkpt><trkpt lat="45.201955" lon="11.6427533"><ele>7.0</ele><time>2026-04-12T06:55:29.55Z</time></trkpt><trkpt lat="45.20199" lon="11.6428467"><ele>7.0</ele><time>2026-04-12T06:55:30.55Z</time></trkpt><trkpt lat="45.202025" lon="11.6429367"><ele>7.0</ele><time>2026-04-12T06:55:31.535Z</time></trkpt><trkpt lat="45.2020633" lon="11.6430267"><ele>7.0</ele><time>2026-04-12T06:55:32.539Z</time></trkpt><trkpt lat="45.202105" lon="11.6431133"><ele>7.0</ele><time>2026-04-12T06:55:33.532Z</time></trkpt><trkpt lat="45.202145" lon="11.643195"><ele>7.0</ele><time>2026-04-12T06:55:34.539Z</time></trkpt><trkpt lat="45.2021883" lon="11.6432733"><ele>7.0</ele><time>2026-04-12T06:55:35.542Z</time></trkpt><trkpt lat="45.2022283" lon="11.6433567"><ele>7.0</ele><time>2026-04-12T06:55:36.535Z</time></trkpt><trkpt lat="45.2022683" lon="11.64344"><ele>7.0</ele><time>2026-04-12T06:55:37.537Z</time></trkpt><trkpt lat="45.2023017" lon="11.6435333"><ele>7.0</ele><time>2026-04-12T06:55:38.533Z</time></trkpt><trkpt lat="45.2023333" lon="11.6436283"><ele>7.0</ele><time>2026-04-12T06:55:39.535Z</time></trkpt><trkpt lat="45.20236" lon="11.6437267"><ele>6.833333333333334</ele><time>2026-04-12T06:55:40.539Z</time></trkpt><trkpt lat="45.2023833" lon="11.6438283"><ele>6.666666666666667</ele><time>2026-04-12T06:55:41.525Z</time></trkpt><trkpt lat="45.2024017" lon="11.6439333"><ele>6.5</ele><time>2026-04-12T06:55:42.534Z</time></trkpt><trkpt lat="45.2024133" lon="11.64404"><ele>6.333333333333334</ele><time>2026-04-12T06:55:43.537Z</time></trkpt><trkpt lat="45.202425" lon="11.6441467"><ele>6.166666666666667</ele><time>2026-04-12T06:55:44.532Z</time></trkpt><trkpt lat="45.2024367" lon="11.6442567"><ele>6.0</ele><time>2026-04-12T06:55:45.531Z</time></trkpt><trkpt lat="45.2024483" lon="11.64437"><ele>6.285714285714285</ele><time>2026-04-12T06:55:46.53Z</time></trkpt><trkpt lat="45.2024583" lon="11.64448"><ele>6.571428571428571</ele><time>2026-04-12T06:55:47.549Z</time></trkpt><trkpt lat="45.2024717" lon="11.644585"><ele>6.857142857142857</ele><time>2026-04-12T06:55:48.534Z</time></trkpt><trkpt lat="45.2024883" lon="11.6446867"><ele>7.142857142857142</ele><time>2026-04-12T06:55:49.529Z</time></trkpt><trkpt lat="45.2025017" lon="11.64479"><ele>7.428571428571428</ele><time>2026-04-12T06:55:50.548Z</time></trkpt><trkpt lat="45.2025133" lon="11.64489"><ele>7.7142857142857135</ele><time>2026-04-12T06:55:51.537Z</time></trkpt><trkpt lat="45.202525" lon="11.644985"><ele>8.0</ele><time>2026-04-12T06:55:52.55Z</time></trkpt><trkpt lat="45.2025317" lon="11.6450783"><ele>8.0</ele><time>2026-04-12T06:55:53.553Z</time></trkpt><trkpt lat="45.202535" lon="11.64517"><ele>7.999999999999999</ele><time>2026-04-12T06:55:54.551Z</time></trkpt><trkpt lat="45.2025367" lon="11.645265"><ele>8.0</ele><time>2026-04-12T06:55:55.557Z</time></trkpt><trkpt lat="45.2025367" lon="11.645365"><ele>8.0</ele><time>2026-04-12T06:55:56.543Z</time></trkpt><trkpt lat="45.2025367" lon="11.6454567"><ele>7.999999999999999</ele><time>2026-04-12T06:55:57.537Z</time></trkpt><trkpt lat="45.202535" lon="11.64555"><ele>8.0</ele><time>2026-04-12T06:55:58.534Z</time></trkpt><trkpt lat="45.2025383" lon="11.6456467"><ele>8.0</ele><time>2026-04-12T06:55:59.562Z</time></trkpt><trkpt lat="45.202535" lon="11.6457367"><ele>7.833333333333333</ele><time>2026-04-12T06:56:00.563Z</time></trkpt><trkpt lat="45.2025317" lon="11.6458333"><ele>7.666666666666666</ele><time>2026-04-12T06:56:01.571Z</time></trkpt><trkpt lat="45.2025233" lon="11.6459283"><ele>7.5</ele><time>2026-04-12T06:56:02.615Z</time></trkpt><trkpt lat="45.2025283" lon="11.6460217"><ele>7.333333333333334</ele><time>2026-04-12T06:56:03.635Z</time></trkpt><trkpt lat="45.2025367" lon="11.6462133"><ele>7.166666666666667</ele><time>2026-04-12T06:56:05.562Z</time></trkpt><trkpt lat="45.2025383" lon="11.64632"><ele>7.0</ele><time>2026-04-12T06:56:06.539Z</time></trkpt><trkpt lat="45.2025667" lon="11.64642"><ele>7.333333333333334</ele><time>2026-04-12T06:56:07.541Z</time></trkpt><trkpt lat="45.2026" lon="11.6465133"><ele>7.666666666666667</ele><time>2026-04-12T06:56:08.548Z</time></trkpt><trkpt lat="45.2026267" lon="11.6466067"><ele>8.0</ele><time>2026-04-12T06:56:09.537Z</time></trkpt><trkpt lat="45.2026567" lon="11.646695"><ele>8.333333333333334</ele><time>2026-04-12T06:56:10.53Z</time></trkpt><trkpt lat="45.2026917" lon="11.6467717"><ele>8.666666666666666</ele><time>2026-04-12T06:56:11.548Z</time></trkpt><trkpt lat="45.2027467" lon="11.646925"><ele>9.0</ele><time>2026-04-12T06:56:13.563Z</time></trkpt><trkpt lat="45.2028183" lon="11.6470717"><ele>9.0</ele><time>2026-04-12T06:56:15.531Z</time></trkpt><trkpt lat="45.2028783" lon="11.64722"><ele>9.0</ele><time>2026-04-12T06:56:17.538Z</time></trkpt><trkpt lat="45.202925" lon="11.6473733"><ele>9.0</ele><time>2026-04-12T06:56:19.541Z</time></trkpt><trkpt lat="45.2029483" lon="11.6474567"><ele>9.0</ele><time>2026-04-12T06:56:20.547Z</time></trkpt><trkpt lat="45.2030117" lon="11.647605"><ele>9.0</ele><time>2026-04-12T06:56:22.544Z</time></trkpt><trkpt lat="45.20309" lon="11.6477417"><ele>9.0</ele><time>2026-04-12T06:56:24.548Z</time></trkpt><trkpt lat="45.203135" lon="11.6478083"><ele>9.0</ele><time>2026-04-12T06:56:25.54Z</time></trkpt><trkpt lat="45.2031867" lon="11.64788"><ele>9.0</ele><time>2026-04-12T06:56:26.535Z</time></trkpt><trkpt lat="45.2032433" lon="11.6479433"><ele>9.0</ele><time>2026-04-12T06:56:27.532Z</time></trkpt><trkpt lat="45.20331" lon="11.6480017"><ele>9.0</ele><time>2026-04-12T06:56:28.53Z</time></trkpt><trkpt lat="45.203385" lon="11.64805"><ele>9.0</ele><time>2026-04-12T06:56:29.544Z</time></trkpt><trkpt lat="45.203465" lon="11.6480833"><ele>9.0</ele><time>2026-04-12T06:56:30.543Z</time></trkpt><trkpt lat="45.2035467" lon="11.6481033"><ele>9.0</ele><time>2026-04-12T06:56:31.551Z</time></trkpt><trkpt lat="45.2036267" lon="11.6481183"><ele>9.0</ele><time>2026-04-12T06:56:32.542Z</time></trkpt><trkpt lat="45.2037017" lon="11.6481317"><ele>9.0</ele><time>2026-04-12T06:56:33.525Z</time></trkpt><trkpt lat="45.2037767" lon="11.648145"><ele>9.0</ele><time>2026-04-12T06:56:34.541Z</time></trkpt><trkpt lat="45.2038433" lon="11.6481567"><ele>9.0</ele><time>2026-04-12T06:56:35.532Z</time></trkpt><trkpt lat="45.2039117" lon="11.6481733"><ele>9.0</ele><time>2026-04-12T06:56:36.546Z</time></trkpt><trkpt lat="45.204025" lon="11.64821"><ele>9.0</ele><time>2026-04-12T06:56:38.534Z</time></trkpt><trkpt lat="45.2041317" lon="11.64825"><ele>9.0</ele><time>2026-04-12T06:56:40.538Z</time></trkpt><trkpt lat="45.2042167" lon="11.6482917"><ele>9.0</ele><time>2026-04-12T06:56:42.551Z</time></trkpt><trkpt lat="45.20429" lon="11.6483417"><ele>9.0</ele><time>2026-04-12T06:56:44.551Z</time></trkpt><trkpt lat="45.20437" lon="11.6483883"><ele>9.0</ele><time>2026-04-12T06:56:46.547Z</time></trkpt><trkpt lat="45.20446" lon="11.6484033"><ele>9.0</ele><time>2026-04-12T06:56:48.537Z</time></trkpt><trkpt lat="45.2045633" lon="11.64844"><ele>9.0</ele><time>2026-04-12T06:56:50.558Z</time></trkpt><trkpt lat="45.204675" lon="11.6484317"><ele>9.0</ele><time>2026-04-12T06:56:52.571Z</time></trkpt><trkpt lat="45.2047783" lon="11.6484183"><ele>9.0</ele><time>2026-04-12T06:56:54.604Z</time></trkpt><trkpt lat="45.2048817" lon="11.648415"><ele>8.8</ele><time>2026-04-12T06:56:56.636Z</time></trkpt><trkpt lat="45.204975" lon="11.648405"><ele>8.600000000000001</ele><time>2026-04-12T06:56:58.538Z</time></trkpt><trkpt lat="45.2050767" lon="11.64839"><ele>8.4</ele><time>2026-04-12T06:57:00.544Z</time></trkpt><trkpt lat="45.205185" lon="11.6483817"><ele>8.200000000000001</ele><time>2026-04-12T06:57:02.535Z</time></trkpt><trkpt lat="45.2052833" lon="11.648375"><ele>8.0</ele><time>2026-04-12T06:57:04.538Z</time></trkpt><trkpt lat="45.2053817" lon="11.6483633"><ele>7.999999999999999</ele><time>2026-04-12T06:57:06.531Z</time></trkpt><trkpt lat="45.2054833" lon="11.648355"><ele>8.0</ele><time>2026-04-12T06:57:08.553Z</time></trkpt><trkpt lat="45.2055767" lon="11.64835"><ele>8.0</ele><time>2026-04-12T06:57:10.533Z</time></trkpt><trkpt lat="45.2056633" lon="11.648345"><ele>8.0</ele><time>2026-04-12T06:57:12.55Z</time></trkpt><trkpt lat="45.2057417" lon="11.6483417"><ele>7.999999999999999</ele><time>2026-04-12T06:57:14.553Z</time></trkpt><trkpt lat="45.2058117" lon="11.64835"><ele>8.0</ele><time>2026-04-12T06:57:16.55Z</time></trkpt><trkpt lat="45.2058883" lon="11.6484217"><ele>8.142857142857142</ele><time>2026-04-12T06:57:19.551Z</time></trkpt><trkpt lat="45.2059033" lon="11.6485267"><ele>8.285714285714285</ele><time>2026-04-12T06:57:21.55Z</time></trkpt><trkpt lat="45.2059033" lon="11.64863"><ele>8.428571428571429</ele><time>2026-04-12T06:57:23.538Z</time></trkpt><trkpt lat="45.2059083" lon="11.6487217"><ele>8.571428571428571</ele><time>2026-04-12T06:57:25.548Z</time></trkpt><trkpt lat="45.2059083" lon="11.6488217"><ele>8.714285714285715</ele><time>2026-04-12T06:57:27.534Z</time></trkpt><trkpt lat="45.2059167" lon="11.6489333"><ele>8.857142857142858</ele><time>2026-04-12T06:57:29.537Z</time></trkpt><trkpt lat="45.2059733" lon="11.649015"><ele>9.0</ele><time>2026-04-12T06:57:31.538Z</time></trkpt><trkpt lat="45.20606" lon="11.64905"><ele>9.0</ele><time>2026-04-12T06:57:33.54Z</time></trkpt><trkpt lat="45.2061533" lon="11.64906"><ele>9.0</ele><time>2026-04-12T06:57:35.539Z</time></trkpt><trkpt lat="45.2062567" lon="11.649055"><ele>9.0</ele><time>2026-04-12T06:57:37.551Z</time></trkpt><trkpt lat="45.20637" lon="11.64904"><ele>9.0</ele><time>2026-04-12T06:57:39.535Z</time></trkpt><trkpt lat="45.2064883" lon="11.6490183"><ele>9.0</ele><time>2026-04-12T06:57:41.549Z</time></trkpt><trkpt lat="45.2066067" lon="11.6490067"><ele>8.833333333333334</ele><time>2026-04-12T06:57:43.545Z</time></trkpt><trkpt lat="45.20667" lon="11.6489967"><ele>8.666666666666666</ele><time>2026-04-12T06:57:44.55Z</time></trkpt><trkpt lat="45.2067967" lon="11.6489683"><ele>8.5</ele><time>2026-04-12T06:57:46.535Z</time></trkpt><trkpt lat="45.2068617" lon="11.6489517"><ele>8.333333333333332</ele><time>2026-04-12T06:57:47.541Z</time></trkpt><trkpt lat="45.2069267" lon="11.6489383"><ele>8.166666666666666</ele><time>2026-04-12T06:57:48.524Z</time></trkpt><trkpt lat="45.2069933" lon="11.6489267"><ele>8.0</ele><time>2026-04-12T06:57:49.525Z</time></trkpt><trkpt lat="45.20706" lon="11.6489117"><ele>8.0</ele><time>2026-04-12T06:57:50.533Z</time></trkpt><trkpt lat="45.207125" lon="11.648895"><ele>7.999999999999999</ele><time>2026-04-12T06:57:51.53Z</time></trkpt><trkpt lat="45.20719" lon="11.6488717"><ele>8.0</ele><time>2026-04-12T06:57:52.544Z</time></trkpt><trkpt lat="45.2072533" lon="11.6488467"><ele>8.0</ele><time>2026-04-12T06:57:53.549Z</time></trkpt><trkpt lat="45.20732" lon="11.648825"><ele>7.999999999999999</ele><time>2026-04-12T06:57:54.532Z</time></trkpt><trkpt lat="45.2073883" lon="11.6488117"><ele>8.0</ele><time>2026-04-12T06:57:55.536Z</time></trkpt><trkpt lat="45.207455" lon="11.6488117"><ele>8.0</ele><time>2026-04-12T06:57:56.542Z</time></trkpt><trkpt lat="45.2075183" lon="11.6488383"><ele>8.0</ele><time>2026-04-12T06:57:57.544Z</time></trkpt><trkpt lat="45.2075817" lon="11.6488767"><ele>7.999999999999999</ele><time>2026-04-12T06:57:58.533Z</time></trkpt><trkpt lat="45.207635" lon="11.6489433"><ele>8.0</ele><time>2026-04-12T06:57:59.545Z</time></trkpt><trkpt lat="45.20767" lon="11.6490317"><ele>8.0</ele><time>2026-04-12T06:58:00.539Z</time></trkpt><trkpt lat="45.2076967" lon="11.6491267"><ele>7.999999999999999</ele><time>2026-04-12T06:58:01.531Z</time></trkpt><trkpt lat="45.20772" lon="11.64922"><ele>8.0</ele><time>2026-04-12T06:58:02.528Z</time></trkpt><trkpt lat="45.2077483" lon="11.6493"><ele>8.0</ele><time>2026-04-12T06:58:03.534Z</time></trkpt><trkpt lat="45.2078233" lon="11.64939"><ele>7.999999999999999</ele><time>2026-04-12T06:58:05.532Z</time></trkpt><trkpt lat="45.2079433" lon="11.6493733"><ele>8.0</ele><time>2026-04-12T06:58:07.548Z</time></trkpt><trkpt lat="45.2080067" lon="11.6493333"><ele>8.0</ele><time>2026-04-12T06:58:08.555Z</time></trkpt><trkpt lat="45.2080667" lon="11.649285"><ele>8.0</ele><time>2026-04-12T06:58:09.526Z</time></trkpt><trkpt lat="45.2081317" lon="11.649245"><ele>7.999999999999999</ele><time>2026-04-12T06:58:10.547Z</time></trkpt><trkpt lat="45.2081967" lon="11.6492267"><ele>8.0</ele><time>2026-04-12T06:58:11.551Z</time></trkpt><trkpt lat="45.2082617" lon="11.6492383"><ele>8.0</ele><time>2026-04-12T06:58:12.561Z</time></trkpt><trkpt lat="45.20837" lon="11.6493333"><ele>8.0</ele><time>2026-04-12T06:58:14.546Z</time></trkpt><trkpt lat="45.2084083" lon="11.649405"><ele>8.0</ele><time>2026-04-12T06:58:15.531Z</time></trkpt><trkpt lat="45.2084317" lon="11.64956"><ele>8.0</ele><time>2026-04-12T06:58:17.548Z</time></trkpt><trkpt lat="45.20834" lon="11.6497033"><ele>8.0</ele><time>2026-04-12T06:58:19.545Z</time></trkpt><trkpt lat="45.2082883" lon="11.6497783"><ele>7.999999999999999</ele><time>2026-04-12T06:58:20.525Z</time></trkpt><trkpt lat="45.2082367" lon="11.6498517"><ele>8.0</ele><time>2026-04-12T06:58:21.546Z</time></trkpt><trkpt lat="45.2081883" lon="11.649925"><ele>8.0</ele><time>2026-04-12T06:58:22.546Z</time></trkpt><trkpt lat="45.2081333" lon="11.6500517"><ele>8.0</ele><time>2026-04-12T06:58:24.534Z</time></trkpt><trkpt lat="45.2081583" lon="11.6501717"><ele>7.999999999999999</ele><time>2026-04-12T06:58:26.536Z</time></trkpt><trkpt lat="45.208225" lon="11.6502867"><ele>8.0</ele><time>2026-04-12T06:58:28.529Z</time></trkpt><trkpt lat="45.2083267" lon="11.6503817"><ele>7.999999999999999</ele><time>2026-04-12T06:58:30.534Z</time></trkpt><trkpt lat="45.2083783" lon="11.6504367"><ele>8.0</ele><time>2026-04-12T06:58:31.53Z</time></trkpt><trkpt lat="45.208435" lon="11.6505733"><ele>8.0</ele><time>2026-04-12T06:58:33.548Z</time></trkpt><trkpt lat="45.2084283" lon="11.650665"><ele>8.0</ele><time>2026-04-12T06:58:34.542Z</time></trkpt><trkpt lat="45.208425" lon="11.6507633"><ele>7.999999999999999</ele><time>2026-04-12T06:58:35.545Z</time></trkpt><trkpt lat="45.2084817" lon="11.6509283"><ele>8.0</ele><time>2026-04-12T06:58:37.534Z</time></trkpt><trkpt lat="45.2085383" lon="11.6509967"><ele>7.999999999999999</ele><time>2026-04-12T06:58:38.552Z</time></trkpt><trkpt lat="45.2086067" lon="11.651035"><ele>8.0</ele><time>2026-04-12T06:58:39.554Z</time></trkpt><trkpt lat="45.208685" lon="11.6510633"><ele>8.0</ele><time>2026-04-12T06:58:40.533Z</time></trkpt><trkpt lat="45.208765" lon="11.65108"><ele>8.0</ele><time>2026-04-12T06:58:41.536Z</time></trkpt><trkpt lat="45.208845" lon="11.6511"><ele>7.999999999999999</ele><time>2026-04-12T06:58:42.539Z</time></trkpt><trkpt lat="45.20892" lon="11.651115"><ele>8.0</ele><time>2026-04-12T06:58:43.536Z</time></trkpt><trkpt lat="45.2089933" lon="11.65113"><ele>7.999999999999999</ele><time>2026-04-12T06:58:44.532Z</time></trkpt><trkpt lat="45.20907" lon="11.6511517"><ele>8.0</ele><time>2026-04-12T06:58:45.536Z</time></trkpt><trkpt lat="45.20915" lon="11.65117"><ele>8.0</ele><time>2026-04-12T06:58:46.536Z</time></trkpt><trkpt lat="45.2092367" lon="11.6511717"><ele>8.0</ele><time>2026-04-12T06:58:47.544Z</time></trkpt><trkpt lat="45.2093217" lon="11.651165"><ele>7.999999999999999</ele><time>2026-04-12T06:58:48.526Z</time></trkpt><trkpt lat="45.2094033" lon="11.6511433"><ele>8.0</ele><time>2026-04-12T06:58:49.531Z</time></trkpt><trkpt lat="45.2094817" lon="11.6511"><ele>7.999999999999999</ele><time>2026-04-12T06:58:50.535Z</time></trkpt><trkpt lat="45.2095567" lon="11.651045"><ele>8.0</ele><time>2026-04-12T06:58:51.547Z</time></trkpt><trkpt lat="45.20963" lon="11.6509817"><ele>8.0</ele><time>2026-04-12T06:58:52.527Z</time></trkpt><trkpt lat="45.2097" lon="11.6509183"><ele>8.0</ele><time>2026-04-12T06:58:53.529Z</time></trkpt><trkpt lat="45.209765" lon="11.6508517"><ele>7.999999999999999</ele><time>2026-04-12T06:58:54.54Z</time></trkpt><trkpt lat="45.2098333" lon="11.6507867"><ele>8.0</ele><time>2026-04-12T06:58:55.545Z</time></trkpt><trkpt lat="45.2098967" lon="11.650725"><ele>7.857142857142857</ele><time>2026-04-12T06:58:56.544Z</time></trkpt><trkpt lat="45.20996" lon="11.6506617"><ele>7.7142857142857135</ele><time>2026-04-12T06:58:57.548Z</time></trkpt><trkpt lat="45.2100233" lon="11.6505983"><ele>7.571428571428571</ele><time>2026-04-12T06:58:58.531Z</time></trkpt><trkpt lat="45.2100883" lon="11.65054"><ele>7.428571428571429</ele><time>2026-04-12T06:58:59.527Z</time></trkpt><trkpt lat="45.210155" lon="11.65049"><ele>7.285714285714286</ele><time>2026-04-12T06:59:00.573Z</time></trkpt><trkpt lat="45.2102217" lon="11.65045"><ele>7.142857142857142</ele><time>2026-04-12T06:59:01.531Z</time></trkpt><trkpt lat="45.2102867" lon="11.65042"><ele>7.0</ele><time>2026-04-12T06:59:02.53Z</time></trkpt><trkpt lat="45.210355" lon="11.65044"><ele>7.000000000000001</ele><time>2026-04-12T06:59:03.536Z</time></trkpt><trkpt lat="45.2104217" lon="11.6505"><ele>7.0</ele><time>2026-04-12T06:59:04.545Z</time></trkpt><trkpt lat="45.2104833" lon="11.6505867"><ele>7.0</ele><time>2026-04-12T06:59:05.556Z</time></trkpt><trkpt lat="45.2105333" lon="11.6506817"><ele>7.0</ele><time>2026-04-12T06:59:06.533Z</time></trkpt><trkpt lat="45.2105833" lon="11.65078"><ele>7.000000000000001</ele><time>2026-04-12T06:59:07.542Z</time></trkpt><trkpt lat="45.2106317" lon="11.6508667"><ele>7.0</ele><time>2026-04-12T06:59:08.533Z</time></trkpt><trkpt lat="45.210685" lon="11.6509483"><ele>7.0</ele><time>2026-04-12T06:59:09.535Z</time></trkpt><trkpt lat="45.210735" lon="11.65103"><ele>7.0</ele><time>2026-04-12T06:59:10.532Z</time></trkpt><trkpt lat="45.2107867" lon="11.6511067"><ele>7.0</ele><time>2026-04-12T06:59:11.537Z</time></trkpt><trkpt lat="45.2108333" lon="11.6511833"><ele>7.0</ele><time>2026-04-12T06:59:12.536Z</time></trkpt><trkpt lat="45.2108833" lon="11.6512583"><ele>7.0</ele><time>2026-04-12T06:59:13.531Z</time></trkpt><trkpt lat="45.2109333" lon="11.6513317"><ele>7.0</ele><time>2026-04-12T06:59:14.539Z</time></trkpt><trkpt lat="45.2109833" lon="11.6514067"><ele>7.0</ele><time>2026-04-12T06:59:15.534Z</time></trkpt><trkpt lat="45.211035" lon="11.6514817"><ele>7.0</ele><time>2026-04-12T06:59:16.537Z</time></trkpt><trkpt lat="45.211085" lon="11.6515567"><ele>7.0</ele><time>2026-04-12T06:59:17.546Z</time></trkpt><trkpt lat="45.2111333" lon="11.6516283"><ele>7.0</ele><time>2026-04-12T06:59:18.548Z</time></trkpt><trkpt lat="45.2111817" lon="11.6516983"><ele>7.0</ele><time>2026-04-12T06:59:19.526Z</time></trkpt><trkpt lat="45.2112283" lon="11.6517683"><ele>7.0</ele><time>2026-04-12T06:59:20.531Z</time></trkpt><trkpt lat="45.21128" lon="11.6518417"><ele>7.0</ele><time>2026-04-12T06:59:21.537Z</time></trkpt><trkpt lat="45.2113283" lon="11.6519133"><ele>7.0</ele><time>2026-04-12T06:59:22.531Z</time></trkpt><trkpt lat="45.2113783" lon="11.6519867"><ele>7.0</ele><time>2026-04-12T06:59:23.526Z</time></trkpt><trkpt lat="45.21143" lon="11.65206"><ele>7.0</ele><time>2026-04-12T06:59:24.544Z</time></trkpt><trkpt lat="45.2114817" lon="11.6521317"><ele>7.0</ele><time>2026-04-12T06:59:25.548Z</time></trkpt><trkpt lat="45.2115317" lon="11.6522033"><ele>7.0</ele><time>2026-04-12T06:59:26.535Z</time></trkpt><trkpt lat="45.2115817" lon="11.652275"><ele>7.0</ele><time>2026-04-12T06:59:27.54Z</time></trkpt><trkpt lat="45.21163" lon="11.652345"><ele>7.0</ele><time>2026-04-12T06:59:28.533Z</time></trkpt><trkpt lat="45.2116783" lon="11.6524183"><ele>7.0</ele><time>2026-04-12T06:59:29.537Z</time></trkpt><trkpt lat="45.2117267" lon="11.6524933"><ele>7.166666666666667</ele><time>2026-04-12T06:59:30.539Z</time></trkpt><trkpt lat="45.211775" lon="11.6525717"><ele>7.333333333333334</ele><time>2026-04-12T06:59:31.529Z</time></trkpt><trkpt lat="45.2118283" lon="11.6526433"><ele>7.5</ele><time>2026-04-12T06:59:32.539Z</time></trkpt><trkpt lat="45.2118817" lon="11.6527183"><ele>7.666666666666666</ele><time>2026-04-12T06:59:33.537Z</time></trkpt><trkpt lat="45.21193" lon="11.6527983"><ele>7.833333333333333</ele><time>2026-04-12T06:59:34.547Z</time></trkpt><trkpt lat="45.2119817" lon="11.6528783"><ele>8.0</ele><time>2026-04-12T06:59:35.552Z</time></trkpt><trkpt lat="45.2120383" lon="11.652955"><ele>8.0</ele><time>2026-04-12T06:59:36.542Z</time></trkpt><trkpt lat="45.2120917" lon="11.65303"><ele>7.999999999999999</ele><time>2026-04-12T06:59:37.524Z</time></trkpt><trkpt lat="45.212145" lon="11.6531067"><ele>8.0</ele><time>2026-04-12T06:59:38.545Z</time></trkpt><trkpt lat="45.2122" lon="11.6531817"><ele>8.0</ele><time>2026-04-12T06:59:39.527Z</time></trkpt><trkpt lat="45.2122517" lon="11.6532567"><ele>7.999999999999999</ele><time>2026-04-12T06:59:40.545Z</time></trkpt><trkpt lat="45.2123" lon="11.65333"><ele>8.0</ele><time>2026-04-12T06:59:41.527Z</time></trkpt><trkpt lat="45.2123483" lon="11.653405"><ele>8.0</ele><time>2026-04-12T06:59:42.533Z</time></trkpt><trkpt lat="45.2124017" lon="11.6534833"><ele>8.0</ele><time>2026-04-12T06:59:43.531Z</time></trkpt><trkpt lat="45.212455" lon="11.6535633"><ele>7.999999999999999</ele><time>2026-04-12T06:59:44.552Z</time></trkpt><trkpt lat="45.2125067" lon="11.65364"><ele>8.0</ele><time>2026-04-12T06:59:45.545Z</time></trkpt><trkpt lat="45.212555" lon="11.65371"><ele>8.0</ele><time>2026-04-12T06:59:46.534Z</time></trkpt><trkpt lat="45.212605" lon="11.6537833"><ele>7.999999999999999</ele><time>2026-04-12T06:59:47.534Z</time></trkpt><trkpt lat="45.2126517" lon="11.6538567"><ele>8.0</ele><time>2026-04-12T06:59:48.541Z</time></trkpt><trkpt lat="45.2127" lon="11.6539283"><ele>8.0</ele><time>2026-04-12T06:59:49.529Z</time></trkpt><trkpt lat="45.21275" lon="11.654"><ele>7.7142857142857135</ele><time>2026-04-12T06:59:50.526Z</time></trkpt><trkpt lat="45.2128017" lon="11.6540733"><ele>7.428571428571428</ele><time>2026-04-12T06:59:51.526Z</time></trkpt><trkpt lat="45.21285" lon="11.6541483"><ele>7.142857142857142</ele><time>2026-04-12T06:59:52.542Z</time></trkpt><trkpt lat="45.2129033" lon="11.6542217"><ele>6.857142857142857</ele><time>2026-04-12T06:59:53.55Z</time></trkpt><trkpt lat="45.2129567" lon="11.654295"><ele>6.571428571428571</ele><time>2026-04-12T06:59:54.536Z</time></trkpt><trkpt lat="45.2130117" lon="11.6543717"><ele>6.285714285714285</ele><time>2026-04-12T06:59:55.531Z</time></trkpt><trkpt lat="45.2130667" lon="11.6544467"><ele>6.0</ele><time>2026-04-12T06:59:56.533Z</time></trkpt><trkpt lat="45.21312" lon="11.6545183"><ele>6.142857142857142</ele><time>2026-04-12T06:59:57.535Z</time></trkpt><trkpt lat="45.21317" lon="11.6545883"><ele>6.285714285714286</ele><time>2026-04-12T06:59:58.528Z</time></trkpt><trkpt lat="45.2132167" lon="11.65466"><ele>6.428571428571429</ele><time>2026-04-12T06:59:59.524Z</time></trkpt><trkpt lat="45.213265" lon="11.6547317"><ele>6.571428571428571</ele><time>2026-04-12T07:00:00.531Z</time></trkpt><trkpt lat="45.2133167" lon="11.6547983"><ele>6.714285714285714</ele><time>2026-04-12T07:00:01.532Z</time></trkpt><trkpt lat="45.2133717" lon="11.6548617"><ele>6.857142857142857</ele><time>2026-04-12T07:00:02.54Z</time></trkpt><trkpt lat="45.21343" lon="11.654915"><ele>7.0</ele><time>2026-04-12T07:00:03.527Z</time></trkpt><trkpt lat="45.2134933" lon="11.6549633"><ele>7.0</ele><time>2026-04-12T07:00:04.534Z</time></trkpt><trkpt lat="45.2135583" lon="11.655005"><ele>7.0</ele><time>2026-04-12T07:00:05.528Z</time></trkpt><trkpt lat="45.213625" lon="11.6550383"><ele>7.0</ele><time>2026-04-12T07:00:06.531Z</time></trkpt><trkpt lat="45.2136933" lon="11.6550667"><ele>7.0</ele><time>2026-04-12T07:00:07.531Z</time></trkpt><trkpt lat="45.2137633" lon="11.65509"><ele>7.0</ele><time>2026-04-12T07:00:08.533Z</time></trkpt><trkpt lat="45.2138333" lon="11.6551067"><ele>7.0</ele><time>2026-04-12T07:00:09.54Z</time></trkpt><trkpt lat="45.2139017" lon="11.6551217"><ele>7.0</ele><time>2026-04-12T07:00:10.526Z</time></trkpt><trkpt lat="45.2139683" lon="11.655135"><ele>7.0</ele><time>2026-04-12T07:00:11.546Z</time></trkpt><trkpt lat="45.2140367" lon="11.6551433"><ele>7.0</ele><time>2026-04-12T07:00:12.565Z</time></trkpt><trkpt lat="45.2141083" lon="11.6551533"><ele>7.0</ele><time>2026-04-12T07:00:13.538Z</time></trkpt><trkpt lat="45.2141767" lon="11.6551567"><ele>7.0</ele><time>2026-04-12T07:00:14.552Z</time></trkpt><trkpt lat="45.214245" lon="11.6551533"><ele>7.0</ele><time>2026-04-12T07:00:15.531Z</time></trkpt><trkpt lat="45.214315" lon="11.6551417"><ele>7.0</ele><time>2026-04-12T07:00:16.534Z</time></trkpt><trkpt lat="45.214385" lon="11.6551183"><ele>7.0</ele><time>2026-04-12T07:00:17.535Z</time></trkpt><trkpt lat="45.2144517" lon="11.6550833"><ele>7.0</ele><time>2026-04-12T07:00:18.529Z</time></trkpt><trkpt lat="45.2145183" lon="11.65504"><ele>7.0</ele><time>2026-04-12T07:00:19.532Z</time></trkpt><trkpt lat="45.2145833" lon="11.6549917"><ele>7.0</ele><time>2026-04-12T07:00:20.533Z</time></trkpt><trkpt lat="45.214645" lon="11.6549383"><ele>7.0</ele><time>2026-04-12T07:00:21.532Z</time></trkpt><trkpt lat="45.2147017" lon="11.6548783"><ele>7.0</ele><time>2026-04-12T07:00:22.529Z</time></trkpt><trkpt lat="45.21476" lon="11.6548167"><ele>7.0</ele><time>2026-04-12T07:00:23.528Z</time></trkpt><trkpt lat="45.2148167" lon="11.6547517"><ele>7.0</ele><time>2026-04-12T07:00:24.534Z</time></trkpt><trkpt lat="45.2148767" lon="11.65469"><ele>6.857142857142857</ele><time>2026-04-12T07:00:25.534Z</time></trkpt><trkpt lat="45.2149383" lon="11.6546267"><ele>6.714285714285714</ele><time>2026-04-12T07:00:26.528Z</time></trkpt><trkpt lat="45.215" lon="11.65457"><ele>6.571428571428571</ele><time>2026-04-12T07:00:27.542Z</time></trkpt><trkpt lat="45.21506" lon="11.654515"><ele>6.428571428571429</ele><time>2026-04-12T07:00:28.553Z</time></trkpt><trkpt lat="45.215125" lon="11.6544633"><ele>6.285714285714286</ele><time>2026-04-12T07:00:29.535Z</time></trkpt><trkpt lat="45.2151917" lon="11.6544167"><ele>6.142857142857142</ele><time>2026-04-12T07:00:30.532Z</time></trkpt><trkpt lat="45.21526" lon="11.6543767"><ele>6.0</ele><time>2026-04-12T07:00:31.534Z</time></trkpt><trkpt lat="45.21533" lon="11.6543417"><ele>6.285714285714285</ele><time>2026-04-12T07:00:32.534Z</time></trkpt><trkpt lat="45.2154017" lon="11.6543217"><ele>6.571428571428571</ele><time>2026-04-12T07:00:33.54Z</time></trkpt><trkpt lat="45.2154733" lon="11.6543117"><ele>6.857142857142857</ele><time>2026-04-12T07:00:34.532Z</time></trkpt><trkpt lat="45.215545" lon="11.6543083"><ele>7.142857142857142</ele><time>2026-04-12T07:00:35.535Z</time></trkpt><trkpt lat="45.2156133" lon="11.65431"><ele>7.428571428571428</ele><time>2026-04-12T07:00:36.528Z</time></trkpt><trkpt lat="45.2156833" lon="11.65432"><ele>7.7142857142857135</ele><time>2026-04-12T07:00:37.542Z</time></trkpt><trkpt lat="45.2157533" lon="11.65434"><ele>8.0</ele><time>2026-04-12T07:00:38.529Z</time></trkpt><trkpt lat="45.21582" lon="11.6543667"><ele>8.0</ele><time>2026-04-12T07:00:39.528Z</time></trkpt><trkpt lat="45.2158867" lon="11.6544017"><ele>7.999999999999999</ele><time>2026-04-12T07:00:40.527Z</time></trkpt><trkpt lat="45.21595" lon="11.654445"><ele>8.0</ele><time>2026-04-12T07:00:41.53Z</time></trkpt><trkpt lat="45.2160117" lon="11.6544933"><ele>8.0</ele><time>2026-04-12T07:00:42.54Z</time></trkpt><trkpt lat="45.2160767" lon="11.65454"><ele>7.999999999999999</ele><time>2026-04-12T07:00:43.538Z</time></trkpt><trkpt lat="45.2161433" lon="11.65459"><ele>8.0</ele><time>2026-04-12T07:00:44.546Z</time></trkpt><trkpt lat="45.2162083" lon="11.654635"><ele>8.0</ele><time>2026-04-12T07:00:45.533Z</time></trkpt><trkpt lat="45.2162733" lon="11.654685"><ele>8.142857142857142</ele><time>2026-04-12T07:00:46.531Z</time></trkpt><trkpt lat="45.216335" lon="11.6547333"><ele>8.285714285714285</ele><time>2026-04-12T07:00:47.533Z</time></trkpt><trkpt lat="45.2163983" lon="11.654785"><ele>8.428571428571429</ele><time>2026-04-12T07:00:48.529Z</time></trkpt><trkpt lat="45.2164617" lon="11.6548317"><ele>8.571428571428571</ele><time>2026-04-12T07:00:49.529Z</time></trkpt><trkpt lat="45.216525" lon="11.6548783"><ele>8.714285714285715</ele><time>2026-04-12T07:00:50.548Z</time></trkpt><trkpt lat="45.2165883" lon="11.6549233"><ele>8.857142857142858</ele><time>2026-04-12T07:00:51.528Z</time></trkpt><trkpt lat="45.2166467" lon="11.6549683"><ele>9.0</ele><time>2026-04-12T07:00:52.527Z</time></trkpt><trkpt lat="45.2167083" lon="11.6550167"><ele>9.000000000000002</ele><time>2026-04-12T07:00:53.532Z</time></trkpt><trkpt lat="45.21677" lon="11.655065"><ele>9.0</ele><time>2026-04-12T07:00:54.531Z</time></trkpt><trkpt lat="45.2168317" lon="11.655115"><ele>9.0</ele><time>2026-04-12T07:00:55.534Z</time></trkpt><trkpt lat="45.216895" lon="11.6551667"><ele>9.0</ele><time>2026-04-12T07:00:56.533Z</time></trkpt><trkpt lat="45.2169583" lon="11.6552133"><ele>9.0</ele><time>2026-04-12T07:00:57.526Z</time></trkpt><trkpt lat="45.2170217" lon="11.65526"><ele>9.000000000000002</ele><time>2026-04-12T07:00:58.536Z</time></trkpt><trkpt lat="45.2170833" lon="11.655305"><ele>9.0</ele><time>2026-04-12T07:00:59.529Z</time></trkpt><trkpt lat="45.21715" lon="11.6553483"><ele>9.000000000000002</ele><time>2026-04-12T07:01:00.527Z</time></trkpt><trkpt lat="45.2172133" lon="11.65539"><ele>9.0</ele><time>2026-04-12T07:01:01.527Z</time></trkpt><trkpt lat="45.2172767" lon="11.6554333"><ele>9.0</ele><time>2026-04-12T07:01:02.535Z</time></trkpt><trkpt lat="45.2173383" lon="11.6554783"><ele>9.0</ele><time>2026-04-12T07:01:03.536Z</time></trkpt><trkpt lat="45.2173983" lon="11.6555217"><ele>9.0</ele><time>2026-04-12T07:01:04.538Z</time></trkpt><trkpt lat="45.21746" lon="11.6555617"><ele>9.000000000000002</ele><time>2026-04-12T07:01:05.546Z</time></trkpt><trkpt lat="45.21752" lon="11.655605"><ele>9.0</ele><time>2026-04-12T07:01:06.532Z</time></trkpt><trkpt lat="45.2175817" lon="11.6556517"><ele>9.000000000000002</ele><time>2026-04-12T07:01:07.544Z</time></trkpt><trkpt lat="45.2176417" lon="11.6557"><ele>9.0</ele><time>2026-04-12T07:01:08.536Z</time></trkpt><trkpt lat="45.2177017" lon="11.6557467"><ele>9.0</ele><time>2026-04-12T07:01:09.534Z</time></trkpt><trkpt lat="45.2177617" lon="11.65579"><ele>9.0</ele><time>2026-04-12T07:01:10.533Z</time></trkpt><trkpt lat="45.2178217" lon="11.655835"><ele>9.0</ele><time>2026-04-12T07:01:11.534Z</time></trkpt><trkpt lat="45.21788" lon="11.6558833"><ele>9.000000000000002</ele><time>2026-04-12T07:01:12.536Z</time></trkpt><trkpt lat="45.2179367" lon="11.6559317"><ele>9.0</ele><time>2026-04-12T07:01:13.531Z</time></trkpt><trkpt lat="45.2179967" lon="11.65598"><ele>9.000000000000002</ele><time>2026-04-12T07:01:14.549Z</time></trkpt><trkpt lat="45.2180567" lon="11.656025"><ele>9.0</ele><time>2026-04-12T07:01:15.542Z</time></trkpt><trkpt lat="45.2181167" lon="11.6560717"><ele>9.0</ele><time>2026-04-12T07:01:16.533Z</time></trkpt><trkpt lat="45.218175" lon="11.6561167"><ele>9.0</ele><time>2026-04-12T07:01:17.536Z</time></trkpt><trkpt lat="45.2182333" lon="11.6561633"><ele>9.0</ele><time>2026-04-12T07:01:18.543Z</time></trkpt><trkpt lat="45.2182933" lon="11.65621"><ele>9.000000000000002</ele><time>2026-04-12T07:01:19.535Z</time></trkpt><trkpt lat="45.218355" lon="11.656255"><ele>9.0</ele><time>2026-04-12T07:01:20.535Z</time></trkpt><trkpt lat="45.2184167" lon="11.656305"><ele>9.285714285714286</ele><time>2026-04-12T07:01:21.529Z</time></trkpt><trkpt lat="45.21848" lon="11.656355"><ele>9.571428571428571</ele><time>2026-04-12T07:01:22.537Z</time></trkpt><trkpt lat="45.2185417" lon="11.656405"><ele>9.857142857142858</ele><time>2026-04-12T07:01:23.535Z</time></trkpt><trkpt lat="45.218605" lon="11.656455"><ele>10.142857142857142</ele><time>2026-04-12T07:01:24.537Z</time></trkpt><trkpt lat="45.2186683" lon="11.656505"><ele>10.428571428571429</ele><time>2026-04-12T07:01:25.536Z</time></trkpt><trkpt lat="45.218735" lon="11.6565533"><ele>10.714285714285715</ele><time>2026-04-12T07:01:26.525Z</time></trkpt><trkpt lat="45.2187983" lon="11.656605"><ele>11.0</ele><time>2026-04-12T07:01:27.532Z</time></trkpt><trkpt lat="45.21886" lon="11.656655"><ele>11.0</ele><time>2026-04-12T07:01:28.537Z</time></trkpt><trkpt lat="45.2189233" lon="11.6567017"><ele>11.0</ele><time>2026-04-12T07:01:29.537Z</time></trkpt><trkpt lat="45.2189867" lon="11.6567517"><ele>11.0</ele><time>2026-04-12T07:01:30.537Z</time></trkpt><trkpt lat="45.21905" lon="11.6568"><ele>11.0</ele><time>2026-04-12T07:01:31.539Z</time></trkpt><trkpt lat="45.21911" lon="11.6568433"><ele>11.0</ele><time>2026-04-12T07:01:32.543Z</time></trkpt><trkpt lat="45.21917" lon="11.65689"><ele>11.0</ele><time>2026-04-12T07:01:33.531Z</time></trkpt><trkpt lat="45.2192283" lon="11.6569383"><ele>11.0</ele><time>2026-04-12T07:01:34.533Z</time></trkpt><trkpt lat="45.2192883" lon="11.65699"><ele>10.857142857142858</ele><time>2026-04-12T07:01:35.526Z</time></trkpt><trkpt lat="45.2193517" lon="11.6570467"><ele>10.714285714285714</ele><time>2026-04-12T07:01:36.536Z</time></trkpt><trkpt lat="45.21942" lon="11.6571017"><ele>10.571428571428571</ele><time>2026-04-12T07:01:37.542Z</time></trkpt><trkpt lat="45.21949" lon="11.65715"><ele>10.428571428571429</ele><time>2026-04-12T07:01:38.549Z</time></trkpt><trkpt lat="45.219555" lon="11.6571933"><ele>10.285714285714286</ele><time>2026-04-12T07:01:39.533Z</time></trkpt><trkpt lat="45.219615" lon="11.65724"><ele>10.142857142857142</ele><time>2026-04-12T07:01:40.531Z</time></trkpt><trkpt lat="45.21968" lon="11.6572883"><ele>10.0</ele><time>2026-04-12T07:01:41.566Z</time></trkpt><trkpt lat="45.2197433" lon="11.65734"><ele>10.0</ele><time>2026-04-12T07:01:42.533Z</time></trkpt><trkpt lat="45.21981" lon="11.65739"><ele>10.0</ele><time>2026-04-12T07:01:43.526Z</time></trkpt><trkpt lat="45.2198733" lon="11.6574367"><ele>10.0</ele><time>2026-04-12T07:01:44.537Z</time></trkpt><trkpt lat="45.2199367" lon="11.6574817"><ele>10.0</ele><time>2026-04-12T07:01:45.527Z</time></trkpt><trkpt lat="45.2199983" lon="11.6575283"><ele>10.0</ele><time>2026-04-12T07:01:46.528Z</time></trkpt><trkpt lat="45.2200633" lon="11.6575733"><ele>10.0</ele><time>2026-04-12T07:01:47.535Z</time></trkpt><trkpt lat="45.2201217" lon="11.6576167"><ele>10.0</ele><time>2026-04-12T07:01:48.533Z</time></trkpt><trkpt lat="45.2201883" lon="11.6576617"><ele>10.0</ele><time>2026-04-12T07:01:49.543Z</time></trkpt><trkpt lat="45.2202533" lon="11.6577033"><ele>10.0</ele><time>2026-04-12T07:01:50.534Z</time></trkpt><trkpt lat="45.2203233" lon="11.6577483"><ele>10.0</ele><time>2026-04-12T07:01:51.544Z</time></trkpt><trkpt lat="45.220385" lon="11.657795"><ele>10.0</ele><time>2026-04-12T07:01:52.53Z</time></trkpt><trkpt lat="45.220445" lon="11.65784"><ele>10.0</ele><time>2026-04-12T07:01:53.553Z</time></trkpt><trkpt lat="45.220505" lon="11.657885"><ele>10.0</ele><time>2026-04-12T07:01:54.532Z</time></trkpt><trkpt lat="45.2205717" lon="11.6579333"><ele>10.0</ele><time>2026-04-12T07:01:55.543Z</time></trkpt><trkpt lat="45.2206367" lon="11.6579783"><ele>10.142857142857142</ele><time>2026-04-12T07:01:56.539Z</time></trkpt><trkpt lat="45.2206983" lon="11.6580217"><ele>10.285714285714286</ele><time>2026-04-12T07:01:57.536Z</time></trkpt><trkpt lat="45.2207617" lon="11.65807"><ele>10.428571428571429</ele><time>2026-04-12T07:01:58.527Z</time></trkpt><trkpt lat="45.220825" lon="11.65812"><ele>10.571428571428571</ele><time>2026-04-12T07:01:59.58Z</time></trkpt><trkpt lat="45.2208867" lon="11.65817"><ele>10.714285714285714</ele><time>2026-04-12T07:02:00.557Z</time></trkpt><trkpt lat="45.2209433" lon="11.6582233"><ele>10.857142857142858</ele><time>2026-04-12T07:02:01.531Z</time></trkpt><trkpt lat="45.2210033" lon="11.6582683"><ele>11.0</ele><time>2026-04-12T07:02:02.536Z</time></trkpt><trkpt lat="45.22106" lon="11.6583133"><ele>11.0</ele><time>2026-04-12T07:02:03.533Z</time></trkpt><trkpt lat="45.221145" lon="11.658375"><ele>11.0</ele><time>2026-04-12T07:02:05.553Z</time></trkpt><trkpt lat="45.2212283" lon="11.6584533"><ele>11.0</ele><time>2026-04-12T07:02:07.526Z</time></trkpt><trkpt lat="45.22133" lon="11.6585333"><ele>11.0</ele><time>2026-04-12T07:02:09.552Z</time></trkpt><trkpt lat="45.2213883" lon="11.6585717"><ele>11.0</ele><time>2026-04-12T07:02:10.532Z</time></trkpt><trkpt lat="45.221455" lon="11.6586117"><ele>11.0</ele><time>2026-04-12T07:02:11.533Z</time></trkpt><trkpt lat="45.221525" lon="11.658645"><ele>11.142857142857142</ele><time>2026-04-12T07:02:12.544Z</time></trkpt><trkpt lat="45.22159" lon="11.6586867"><ele>11.285714285714285</ele><time>2026-04-12T07:02:13.524Z</time></trkpt><trkpt lat="45.2216533" lon="11.6587383"><ele>11.428571428571427</ele><time>2026-04-12T07:02:14.533Z</time></trkpt><trkpt lat="45.221715" lon="11.6587933"><ele>11.571428571428571</ele><time>2026-04-12T07:02:15.528Z</time></trkpt><trkpt lat="45.22178" lon="11.6588417"><ele>11.714285714285714</ele><time>2026-04-12T07:02:16.546Z</time></trkpt><trkpt lat="45.2218383" lon="11.6588983"><ele>11.857142857142856</ele><time>2026-04-12T07:02:17.543Z</time></trkpt><trkpt lat="45.2218983" lon="11.6589567"><ele>12.0</ele><time>2026-04-12T07:02:18.549Z</time></trkpt><trkpt lat="45.2219583" lon="11.65901"><ele>12.0</ele><time>2026-04-12T07:02:19.56Z</time></trkpt><trkpt lat="45.22202" lon="11.6590633"><ele>12.0</ele><time>2026-04-12T07:02:20.529Z</time></trkpt><trkpt lat="45.2220767" lon="11.6591183"><ele>12.0</ele><time>2026-04-12T07:02:21.55Z</time></trkpt><trkpt lat="45.2221317" lon="11.6591733"><ele>12.0</ele><time>2026-04-12T07:02:22.549Z</time></trkpt><trkpt lat="45.2221867" lon="11.6592267"><ele>12.0</ele><time>2026-04-12T07:02:23.549Z</time></trkpt><trkpt lat="45.22228" lon="11.659325"><ele>12.0</ele><time>2026-04-12T07:02:25.549Z</time></trkpt><trkpt lat="45.2223733" lon="11.6594317"><ele>12.0</ele><time>2026-04-12T07:02:27.548Z</time></trkpt><trkpt lat="45.222475" lon="11.659505"><ele>12.0</ele><time>2026-04-12T07:02:29.581Z</time></trkpt><trkpt lat="45.2225967" lon="11.6595683"><ele>12.0</ele><time>2026-04-12T07:02:31.598Z</time></trkpt><trkpt lat="45.2226967" lon="11.6595733"><ele>12.0</ele><time>2026-04-12T07:02:33.538Z</time></trkpt><trkpt lat="45.2228083" lon="11.6596267"><ele>11.999999999999998</ele><time>2026-04-12T07:02:35.545Z</time></trkpt><trkpt lat="45.2228633" lon="11.6596917"><ele>12.0</ele><time>2026-04-12T07:02:36.542Z</time></trkpt><trkpt lat="45.2229083" lon="11.65976"><ele>12.0</ele><time>2026-04-12T07:02:37.533Z</time></trkpt><trkpt lat="45.2229517" lon="11.6598417"><ele>12.0</ele><time>2026-04-12T07:02:38.542Z</time></trkpt><trkpt lat="45.2229883" lon="11.659925"><ele>12.0</ele><time>2026-04-12T07:02:39.543Z</time></trkpt><trkpt lat="45.223025" lon="11.6600067"><ele>11.999999999999998</ele><time>2026-04-12T07:02:40.528Z</time></trkpt><trkpt lat="45.2230633" lon="11.660085"><ele>12.0</ele><time>2026-04-12T07:02:41.557Z</time></trkpt><trkpt lat="45.2231" lon="11.6601583"><ele>11.999999999999998</ele><time>2026-04-12T07:02:42.543Z</time></trkpt><trkpt lat="45.22314" lon="11.6602383"><ele>12.0</ele><time>2026-04-12T07:02:43.541Z</time></trkpt><trkpt lat="45.2231783" lon="11.66032"><ele>12.0</ele><time>2026-04-12T07:02:44.537Z</time></trkpt><trkpt lat="45.22322" lon="11.6603983"><ele>12.0</ele><time>2026-04-12T07:02:45.532Z</time></trkpt><trkpt lat="45.2232617" lon="11.6604783"><ele>12.0</ele><time>2026-04-12T07:02:46.532Z</time></trkpt><trkpt lat="45.2232983" lon="11.6605583"><ele>11.999999999999998</ele><time>2026-04-12T07:02:47.545Z</time></trkpt><trkpt lat="45.2233367" lon="11.660635"><ele>12.0</ele><time>2026-04-12T07:02:48.532Z</time></trkpt><trkpt lat="45.2233767" lon="11.6607117"><ele>12.0</ele><time>2026-04-12T07:02:49.537Z</time></trkpt><trkpt lat="45.22345" lon="11.6608567"><ele>12.0</ele><time>2026-04-12T07:02:51.527Z</time></trkpt><trkpt lat="45.2235183" lon="11.6610033"><ele>12.0</ele><time>2026-04-12T07:02:53.529Z</time></trkpt><trkpt lat="45.223585" lon="11.661155"><ele>12.0</ele><time>2026-04-12T07:02:55.533Z</time></trkpt><trkpt lat="45.2236183" lon="11.6612317"><ele>12.0</ele><time>2026-04-12T07:02:56.542Z</time></trkpt><trkpt lat="45.22368" lon="11.6613767"><ele>12.0</ele><time>2026-04-12T07:02:58.551Z</time></trkpt><trkpt lat="45.2237467" lon="11.66151"><ele>12.0</ele><time>2026-04-12T07:03:00.533Z</time></trkpt><trkpt lat="45.2238133" lon="11.661645"><ele>12.0</ele><time>2026-04-12T07:03:02.536Z</time></trkpt><trkpt lat="45.2238583" lon="11.6617667"><ele>12.0</ele><time>2026-04-12T07:03:04.538Z</time></trkpt><trkpt lat="45.2238933" lon="11.6618433"><ele>12.0</ele><time>2026-04-12T07:03:06.546Z</time></trkpt><trkpt lat="45.223945" lon="11.6619117"><ele>11.833333333333334</ele><time>2026-04-12T07:03:08.538Z</time></trkpt><trkpt lat="45.2240283" lon="11.661945"><ele>11.666666666666666</ele><time>2026-04-12T07:03:10.531Z</time></trkpt><trkpt lat="45.22413" lon="11.6619133"><ele>11.5</ele><time>2026-04-12T07:03:12.538Z</time></trkpt><trkpt lat="45.2241933" lon="11.6618817"><ele>11.333333333333332</ele><time>2026-04-12T07:03:13.544Z</time></trkpt><trkpt lat="45.224255" lon="11.66185"><ele>11.166666666666666</ele><time>2026-04-12T07:03:14.532Z</time></trkpt><trkpt lat="45.2243183" lon="11.6618183"><ele>11.0</ele><time>2026-04-12T07:03:15.528Z</time></trkpt><trkpt lat="45.2243783" lon="11.6617883"><ele>11.0</ele><time>2026-04-12T07:03:16.528Z</time></trkpt><trkpt lat="45.224485" lon="11.66173"><ele>11.0</ele><time>2026-04-12T07:03:18.528Z</time></trkpt><trkpt lat="45.22459" lon="11.6616383"><ele>11.0</ele><time>2026-04-12T07:03:20.541Z</time></trkpt><trkpt lat="45.2246433" lon="11.66159"><ele>11.0</ele><time>2026-04-12T07:03:21.531Z</time></trkpt><trkpt lat="45.2246967" lon="11.6615367"><ele>11.0</ele><time>2026-04-12T07:03:22.535Z</time></trkpt><trkpt lat="45.2247583" lon="11.6614767"><ele>11.0</ele><time>2026-04-12T07:03:23.534Z</time></trkpt><trkpt lat="45.2248167" lon="11.6614217"><ele>11.0</ele><time>2026-04-12T07:03:24.531Z</time></trkpt><trkpt lat="45.2248717" lon="11.66137"><ele>11.0</ele><time>2026-04-12T07:03:25.528Z</time></trkpt><trkpt lat="45.2249617" lon="11.6612817"><ele>11.0</ele><time>2026-04-12T07:03:27.546Z</time></trkpt><trkpt lat="45.2250483" lon="11.6612133"><ele>11.0</ele><time>2026-04-12T07:03:29.525Z</time></trkpt><trkpt lat="45.225155" lon="11.661155"><ele>11.0</ele><time>2026-04-12T07:03:31.53Z</time></trkpt><trkpt lat="45.2252567" lon="11.661075"><ele>11.0</ele><time>2026-04-12T07:03:33.529Z</time></trkpt><trkpt lat="45.2253533" lon="11.660975"><ele>11.0</ele><time>2026-04-12T07:03:35.537Z</time></trkpt><trkpt lat="45.2254467" lon="11.66088"><ele>11.0</ele><time>2026-04-12T07:03:37.539Z</time></trkpt><trkpt lat="45.2255333" lon="11.660765"><ele>11.0</ele><time>2026-04-12T07:03:39.531Z</time></trkpt><trkpt lat="45.2256067" lon="11.6606483"><ele>11.600000000000001</ele><time>2026-04-12T07:03:41.54Z</time></trkpt><trkpt lat="45.2256883" lon="11.66053"><ele>12.2</ele><time>2026-04-12T07:03:43.532Z</time></trkpt><trkpt lat="45.2257633" lon="11.6604433"><ele>12.799999999999999</ele><time>2026-04-12T07:03:45.538Z</time></trkpt><trkpt lat="45.2258217" lon="11.6603733"><ele>13.399999999999999</ele><time>2026-04-12T07:03:47.535Z</time></trkpt><trkpt lat="45.2258867" lon="11.6603067"><ele>14.0</ele><time>2026-04-12T07:03:49.532Z</time></trkpt><trkpt lat="45.225965" lon="11.66028"><ele>14.0</ele><time>2026-04-12T07:03:51.533Z</time></trkpt><trkpt lat="45.2260483" lon="11.6603333"><ele>13.999999999999998</ele><time>2026-04-12T07:03:53.534Z</time></trkpt><trkpt lat="45.2261233" lon="11.66044"><ele>13.999999999999998</ele><time>2026-04-12T07:03:55.533Z</time></trkpt><trkpt lat="45.2262183" lon="11.660535"><ele>14.0</ele><time>2026-04-12T07:03:57.543Z</time></trkpt><trkpt lat="45.2263267" lon="11.6605967"><ele>14.0</ele><time>2026-04-12T07:03:59.533Z</time></trkpt><trkpt lat="45.2264433" lon="11.660635"><ele>13.666666666666668</ele><time>2026-04-12T07:04:01.533Z</time></trkpt><trkpt lat="45.2265067" lon="11.6606567"><ele>13.333333333333334</ele><time>2026-04-12T07:04:02.537Z</time></trkpt><trkpt lat="45.226625" lon="11.6607033"><ele>13.0</ele><time>2026-04-12T07:04:04.544Z</time></trkpt><trkpt lat="45.2266867" lon="11.6607283"><ele>12.666666666666668</ele><time>2026-04-12T07:04:05.547Z</time></trkpt><trkpt lat="45.2267483" lon="11.660755"><ele>12.333333333333334</ele><time>2026-04-12T07:04:06.546Z</time></trkpt><trkpt lat="45.2268683" lon="11.660785"><ele>12.0</ele><time>2026-04-12T07:04:08.529Z</time></trkpt><trkpt lat="45.22698" lon="11.6607317"><ele>12.0</ele><time>2026-04-12T07:04:10.529Z</time></trkpt><trkpt lat="45.22707" lon="11.6606183"><ele>12.0</ele><time>2026-04-12T07:04:12.544Z</time></trkpt><trkpt lat="45.2271517" lon="11.6604967"><ele>12.0</ele><time>2026-04-12T07:04:14.535Z</time></trkpt><trkpt lat="45.2272333" lon="11.6603633"><ele>12.0</ele><time>2026-04-12T07:04:16.546Z</time></trkpt><trkpt lat="45.22731" lon="11.660225"><ele>11.6</ele><time>2026-04-12T07:04:18.541Z</time></trkpt><trkpt lat="45.227385" lon="11.6600867"><ele>11.2</ele><time>2026-04-12T07:04:20.537Z</time></trkpt><trkpt lat="45.2274667" lon="11.65995"><ele>10.8</ele><time>2026-04-12T07:04:22.528Z</time></trkpt><trkpt lat="45.22751" lon="11.65988"><ele>10.4</ele><time>2026-04-12T07:04:23.539Z</time></trkpt><trkpt lat="45.2275883" lon="11.6597367"><ele>10.0</ele><time>2026-04-12T07:04:25.531Z</time></trkpt><trkpt lat="45.22763" lon="11.6596683"><ele>10.0</ele><time>2026-04-12T07:04:26.535Z</time></trkpt><trkpt lat="45.227675" lon="11.6596033"><ele>10.0</ele><time>2026-04-12T07:04:27.527Z</time></trkpt><trkpt lat="45.2277533" lon="11.6594667"><ele>10.0</ele><time>2026-04-12T07:04:29.524Z</time></trkpt><trkpt lat="45.2277933" lon="11.659395"><ele>10.0</ele><time>2026-04-12T07:04:30.544Z</time></trkpt><trkpt lat="45.2278317" lon="11.6593183"><ele>10.0</ele><time>2026-04-12T07:04:31.526Z</time></trkpt><trkpt lat="45.227875" lon="11.6592383"><ele>10.0</ele><time>2026-04-12T07:04:32.535Z</time></trkpt><trkpt lat="45.2279217" lon="11.659155"><ele>10.142857142857142</ele><time>2026-04-12T07:04:33.53Z</time></trkpt><trkpt lat="45.2279617" lon="11.6590733"><ele>10.285714285714286</ele><time>2026-04-12T07:04:34.526Z</time></trkpt><trkpt lat="45.228005" lon="11.658985"><ele>10.428571428571429</ele><time>2026-04-12T07:04:35.531Z</time></trkpt><trkpt lat="45.2280383" lon="11.658905"><ele>10.571428571428571</ele><time>2026-04-12T07:04:36.529Z</time></trkpt><trkpt lat="45.2280733" lon="11.6588233"><ele>10.714285714285714</ele><time>2026-04-12T07:04:37.529Z</time></trkpt><trkpt lat="45.2281383" lon="11.65875"><ele>10.857142857142858</ele><time>2026-04-12T07:04:38.533Z</time></trkpt><trkpt lat="45.2281717" lon="11.6586717"><ele>11.0</ele><time>2026-04-12T07:04:39.548Z</time></trkpt><trkpt lat="45.2282117" lon="11.6586"><ele>11.600000000000001</ele><time>2026-04-12T07:04:40.527Z</time></trkpt><trkpt lat="45.2282667" lon="11.65846"><ele>12.2</ele><time>2026-04-12T07:04:42.543Z</time></trkpt><trkpt lat="45.228315" lon="11.6583283"><ele>12.799999999999999</ele><time>2026-04-12T07:04:44.528Z</time></trkpt><trkpt lat="45.228355" lon="11.6582233"><ele>13.399999999999999</ele><time>2026-04-12T07:04:46.542Z</time></trkpt><trkpt lat="45.2283867" lon="11.6581117"><ele>14.0</ele><time>2026-04-12T07:04:48.542Z</time></trkpt><trkpt lat="45.2284617" lon="11.6581417"><ele>14.0</ele><time>2026-04-12T07:04:52.524Z</time></trkpt><trkpt lat="45.2285133" lon="11.6582817"><ele>14.0</ele><time>2026-04-12T07:04:54.532Z</time></trkpt><trkpt lat="45.2285717" lon="11.658425"><ele>14.0</ele><time>2026-04-12T07:04:56.534Z</time></trkpt><trkpt lat="45.2286483" lon="11.6585683"><ele>14.0</ele><time>2026-04-12T07:04:58.564Z</time></trkpt><trkpt lat="45.2287133" lon="11.6587017"><ele>14.0</ele><time>2026-04-12T07:05:00.527Z</time></trkpt><trkpt lat="45.2287817" lon="11.6588367"><ele>13.999999999999998</ele><time>2026-04-12T07:05:02.533Z</time></trkpt><trkpt lat="45.228825" lon="11.6589083"><ele>13.999999999999998</ele><time>2026-04-12T07:05:03.527Z</time></trkpt><trkpt lat="45.2289133" lon="11.6590367"><ele>14.0</ele><time>2026-04-12T07:05:05.536Z</time></trkpt><trkpt lat="45.2289967" lon="11.6591717"><ele>14.0</ele><time>2026-04-12T07:05:07.532Z</time></trkpt><trkpt lat="45.2290367" lon="11.659245"><ele>14.0</ele><time>2026-04-12T07:05:08.535Z</time></trkpt><trkpt lat="45.2290783" lon="11.65932"><ele>14.0</ele><time>2026-04-12T07:05:09.538Z</time></trkpt><trkpt lat="45.2291517" lon="11.6594633"><ele>14.0</ele><time>2026-04-12T07:05:11.526Z</time></trkpt><trkpt lat="45.2291883" lon="11.6595417"><ele>14.0</ele><time>2026-04-12T07:05:12.531Z</time></trkpt><trkpt lat="45.22923" lon="11.65961"><ele>14.0</ele><time>2026-04-12T07:05:13.543Z</time></trkpt><trkpt lat="45.2292667" lon="11.6596833"><ele>14.0</ele><time>2026-04-12T07:05:14.535Z</time></trkpt><trkpt lat="45.2293017" lon="11.6597583"><ele>14.0</ele><time>2026-04-12T07:05:15.541Z</time></trkpt><trkpt lat="45.2293633" lon="11.6599033"><ele>13.799999999999999</ele><time>2026-04-12T07:05:17.533Z</time></trkpt><trkpt lat="45.2294167" lon="11.660045"><ele>13.599999999999998</ele><time>2026-04-12T07:05:19.531Z</time></trkpt><trkpt lat="45.22947" lon="11.660195"><ele>13.4</ele><time>2026-04-12T07:05:21.545Z</time></trkpt><trkpt lat="45.22954" lon="11.6602883"><ele>13.2</ele><time>2026-04-12T07:05:23.531Z</time></trkpt><trkpt lat="45.22962" lon="11.6602783"><ele>13.0</ele><time>2026-04-12T07:05:25.537Z</time></trkpt><trkpt lat="45.2297167" lon="11.6602183"><ele>13.75</ele><time>2026-04-12T07:05:27.526Z</time></trkpt><trkpt lat="45.2298117" lon="11.660175"><ele>14.5</ele><time>2026-04-12T07:05:29.53Z</time></trkpt><trkpt lat="45.2299233" lon="11.6601567"><ele>15.25</ele><time>2026-04-12T07:05:31.537Z</time></trkpt><trkpt lat="45.2300417" lon="11.66016"><ele>16.0</ele><time>2026-04-12T07:05:33.548Z</time></trkpt><trkpt lat="45.2301633" lon="11.6602017"><ele>16.0</ele><time>2026-04-12T07:05:35.532Z</time></trkpt><trkpt lat="45.2302717" lon="11.6602683"><ele>16.0</ele><time>2026-04-12T07:05:37.532Z</time></trkpt><trkpt lat="45.2303733" lon="11.6603583"><ele>16.0</ele><time>2026-04-12T07:05:39.55Z</time></trkpt><trkpt lat="45.2304633" lon="11.6604683"><ele>16.0</ele><time>2026-04-12T07:05:41.526Z</time></trkpt><trkpt lat="45.2305233" lon="11.66061"><ele>15.666666666666666</ele><time>2026-04-12T07:05:43.53Z</time></trkpt><trkpt lat="45.230565" lon="11.6607733"><ele>15.333333333333332</ele><time>2026-04-12T07:05:45.552Z</time></trkpt><trkpt lat="45.2305833" lon="11.66086"><ele>15.0</ele><time>2026-04-12T07:05:46.541Z</time></trkpt><trkpt lat="45.2306133" lon="11.6610333"><ele>14.666666666666668</ele><time>2026-04-12T07:05:48.537Z</time></trkpt><trkpt lat="45.2306267" lon="11.661125"><ele>14.333333333333334</ele><time>2026-04-12T07:05:49.54Z</time></trkpt><trkpt lat="45.230655" lon="11.661215"><ele>14.0</ele><time>2026-04-12T07:05:50.543Z</time></trkpt><trkpt lat="45.2306767" lon="11.6613"><ele>14.000000000000002</ele><time>2026-04-12T07:05:51.524Z</time></trkpt><trkpt lat="45.2306933" lon="11.6613867"><ele>14.0</ele><time>2026-04-12T07:05:52.531Z</time></trkpt><trkpt lat="45.23072" lon="11.6615533"><ele>14.0</ele><time>2026-04-12T07:05:54.544Z</time></trkpt><trkpt lat="45.2307367" lon="11.6616417"><ele>14.0</ele><time>2026-04-12T07:05:55.555Z</time></trkpt><trkpt lat="45.2307583" lon="11.66173"><ele>14.000000000000002</ele><time>2026-04-12T07:05:56.541Z</time></trkpt><trkpt lat="45.2307817" lon="11.6618217"><ele>14.0</ele><time>2026-04-12T07:05:57.545Z</time></trkpt><trkpt lat="45.2308067" lon="11.661915"><ele>13.833333333333334</ele><time>2026-04-12T07:05:58.557Z</time></trkpt><trkpt lat="45.2308267" lon="11.6620083"><ele>13.666666666666668</ele><time>2026-04-12T07:05:59.528Z</time></trkpt><trkpt lat="45.2308533" lon="11.6621"><ele>13.5</ele><time>2026-04-12T07:06:00.531Z</time></trkpt><trkpt lat="45.230905" lon="11.6622633"><ele>13.333333333333332</ele><time>2026-04-12T07:06:02.527Z</time></trkpt><trkpt lat="45.23093" lon="11.6623467"><ele>13.166666666666666</ele><time>2026-04-12T07:06:03.547Z</time></trkpt><trkpt lat="45.23096" lon="11.6624267"><ele>13.0</ele><time>2026-04-12T07:06:04.526Z</time></trkpt><trkpt lat="45.2309983" lon="11.662505"><ele>13.0</ele><time>2026-04-12T07:06:05.548Z</time></trkpt><trkpt lat="45.2310283" lon="11.662585"><ele>13.0</ele><time>2026-04-12T07:06:06.545Z</time></trkpt><trkpt lat="45.2310567" lon="11.66267"><ele>13.0</ele><time>2026-04-12T07:06:07.529Z</time></trkpt><trkpt lat="45.231085" lon="11.6627583"><ele>13.0</ele><time>2026-04-12T07:06:08.528Z</time></trkpt><trkpt lat="45.2311167" lon="11.6628483"><ele>13.0</ele><time>2026-04-12T07:06:09.528Z</time></trkpt><trkpt lat="45.2311467" lon="11.662935"><ele>13.0</ele><time>2026-04-12T07:06:10.536Z</time></trkpt><trkpt lat="45.2311783" lon="11.663025"><ele>13.0</ele><time>2026-04-12T07:06:11.53Z</time></trkpt><trkpt lat="45.231205" lon="11.663115"><ele>12.999999999999998</ele><time>2026-04-12T07:06:12.53Z</time></trkpt><trkpt lat="45.2312367" lon="11.6631983"><ele>13.0</ele><time>2026-04-12T07:06:13.539Z</time></trkpt><trkpt lat="45.2312683" lon="11.6632867"><ele>13.0</ele><time>2026-04-12T07:06:14.527Z</time></trkpt><trkpt lat="45.2312933" lon="11.6633767"><ele>13.0</ele><time>2026-04-12T07:06:15.535Z</time></trkpt><trkpt lat="45.23132" lon="11.6634617"><ele>12.999999999999998</ele><time>2026-04-12T07:06:16.532Z</time></trkpt><trkpt lat="45.2313467" lon="11.6635433"><ele>13.0</ele><time>2026-04-12T07:06:17.539Z</time></trkpt><trkpt lat="45.23139" lon="11.6637133"><ele>12.999999999999998</ele><time>2026-04-12T07:06:19.537Z</time></trkpt><trkpt lat="45.2314083" lon="11.6638017"><ele>13.0</ele><time>2026-04-12T07:06:20.546Z</time></trkpt><trkpt lat="45.2314283" lon="11.6638867"><ele>13.0</ele><time>2026-04-12T07:06:21.563Z</time></trkpt><trkpt lat="45.2314533" lon="11.6639717"><ele>13.0</ele><time>2026-04-12T07:06:22.532Z</time></trkpt><trkpt lat="45.2315033" lon="11.66414"><ele>12.999999999999998</ele><time>2026-04-12T07:06:24.533Z</time></trkpt><trkpt lat="45.2315267" lon="11.6642267"><ele>13.0</ele><time>2026-04-12T07:06:25.527Z</time></trkpt><trkpt lat="45.231555" lon="11.66431"><ele>13.600000000000001</ele><time>2026-04-12T07:06:26.54Z</time></trkpt><trkpt lat="45.2315867" lon="11.6643917"><ele>14.200000000000001</ele><time>2026-04-12T07:06:27.547Z</time></trkpt><trkpt lat="45.23164" lon="11.6645433"><ele>14.8</ele><time>2026-04-12T07:06:29.544Z</time></trkpt><trkpt lat="45.23167" lon="11.6646233"><ele>15.4</ele><time>2026-04-12T07:06:30.531Z</time></trkpt><trkpt lat="45.2317267" lon="11.6647667"><ele>16.0</ele><time>2026-04-12T07:06:32.532Z</time></trkpt><trkpt lat="45.2317867" lon="11.6649233"><ele>16.0</ele><time>2026-04-12T07:06:34.542Z</time></trkpt><trkpt lat="45.2318167" lon="11.6650033"><ele>15.999999999999998</ele><time>2026-04-12T07:06:35.534Z</time></trkpt><trkpt lat="45.2318483" lon="11.6650817"><ele>16.0</ele><time>2026-04-12T07:06:36.542Z</time></trkpt><trkpt lat="45.2318817" lon="11.6651617"><ele>16.0</ele><time>2026-04-12T07:06:37.539Z</time></trkpt><trkpt lat="45.2319183" lon="11.6652433"><ele>15.999999999999998</ele><time>2026-04-12T07:06:38.528Z</time></trkpt><trkpt lat="45.231955" lon="11.6653233"><ele>16.0</ele><time>2026-04-12T07:06:39.537Z</time></trkpt><trkpt lat="45.2319917" lon="11.6654"><ele>16.0</ele><time>2026-04-12T07:06:40.541Z</time></trkpt><trkpt lat="45.2320283" lon="11.665475"><ele>15.428571428571427</ele><time>2026-04-12T07:06:41.548Z</time></trkpt><trkpt lat="45.2320683" lon="11.6655467"><ele>14.857142857142856</ele><time>2026-04-12T07:06:42.53Z</time></trkpt><trkpt lat="45.23211" lon="11.6656183"><ele>14.285714285714285</ele><time>2026-04-12T07:06:43.543Z</time></trkpt><trkpt lat="45.2321483" lon="11.6656917"><ele>13.714285714285714</ele><time>2026-04-12T07:06:44.549Z</time></trkpt><trkpt lat="45.232185" lon="11.6657667"><ele>13.142857142857142</ele><time>2026-04-12T07:06:45.548Z</time></trkpt><trkpt lat="45.2322217" lon="11.6658433"><ele>12.57142857142857</ele><time>2026-04-12T07:06:46.528Z</time></trkpt><trkpt lat="45.2322567" lon="11.6659233"><ele>12.0</ele><time>2026-04-12T07:06:47.545Z</time></trkpt><trkpt lat="45.2322917" lon="11.6660067"><ele>12.285714285714285</ele><time>2026-04-12T07:06:48.552Z</time></trkpt><trkpt lat="45.232325" lon="11.666085"><ele>12.571428571428571</ele><time>2026-04-12T07:06:49.53Z</time></trkpt><trkpt lat="45.2323567" lon="11.6661633"><ele>12.857142857142858</ele><time>2026-04-12T07:06:50.546Z</time></trkpt><trkpt lat="45.2323917" lon="11.6662433"><ele>13.142857142857142</ele><time>2026-04-12T07:06:51.531Z</time></trkpt><trkpt lat="45.2324267" lon="11.666325"><ele>13.428571428571429</ele><time>2026-04-12T07:06:52.549Z</time></trkpt><trkpt lat="45.2324633" lon="11.6664033"><ele>13.714285714285714</ele><time>2026-04-12T07:06:53.529Z</time></trkpt><trkpt lat="45.2324983" lon="11.666485"><ele>14.0</ele><time>2026-04-12T07:06:54.534Z</time></trkpt><trkpt lat="45.23253" lon="11.6665667"><ele>14.0</ele><time>2026-04-12T07:06:55.531Z</time></trkpt><trkpt lat="45.2325683" lon="11.66665"><ele>14.0</ele><time>2026-04-12T07:06:56.543Z</time></trkpt><trkpt lat="45.2326083" lon="11.6667283"><ele>14.0</ele><time>2026-04-12T07:06:57.547Z</time></trkpt><trkpt lat="45.23265" lon="11.6668"><ele>14.0</ele><time>2026-04-12T07:06:58.524Z</time></trkpt><trkpt lat="45.2326883" lon="11.6668733"><ele>14.0</ele><time>2026-04-12T07:06:59.528Z</time></trkpt><trkpt lat="45.23273" lon="11.6669483"><ele>14.0</ele><time>2026-04-12T07:07:00.543Z</time></trkpt><trkpt lat="45.2327733" lon="11.6670233"><ele>14.0</ele><time>2026-04-12T07:07:01.53Z</time></trkpt><trkpt lat="45.232815" lon="11.667095"><ele>13.857142857142858</ele><time>2026-04-12T07:07:02.537Z</time></trkpt><trkpt lat="45.2328583" lon="11.6671667"><ele>13.714285714285715</ele><time>2026-04-12T07:07:03.529Z</time></trkpt><trkpt lat="45.2328983" lon="11.6672383"><ele>13.571428571428571</ele><time>2026-04-12T07:07:04.569Z</time></trkpt><trkpt lat="45.23294" lon="11.66731"><ele>13.428571428571429</ele><time>2026-04-12T07:07:05.525Z</time></trkpt><trkpt lat="45.2329833" lon="11.6673867"><ele>13.285714285714286</ele><time>2026-04-12T07:07:06.531Z</time></trkpt><trkpt lat="45.2330233" lon="11.6674617"><ele>13.142857142857142</ele><time>2026-04-12T07:07:07.524Z</time></trkpt><trkpt lat="45.2330633" lon="11.6675317"><ele>13.0</ele><time>2026-04-12T07:07:08.531Z</time></trkpt><trkpt lat="45.2331317" lon="11.6676733"><ele>13.25</ele><time>2026-04-12T07:07:10.545Z</time></trkpt><trkpt lat="45.2332017" lon="11.6678167"><ele>13.5</ele><time>2026-04-12T07:07:12.527Z</time></trkpt><trkpt lat="45.2332717" lon="11.66795"><ele>13.75</ele><time>2026-04-12T07:07:14.545Z</time></trkpt><trkpt lat="45.2333483" lon="11.6680817"><ele>14.0</ele><time>2026-04-12T07:07:16.542Z</time></trkpt><trkpt lat="45.2334083" lon="11.668225"><ele>14.0</ele><time>2026-04-12T07:07:18.528Z</time></trkpt><trkpt lat="45.233475" lon="11.6683733"><ele>13.999999999999998</ele><time>2026-04-12T07:07:20.532Z</time></trkpt><trkpt lat="45.2335433" lon="11.668525"><ele>13.999999999999998</ele><time>2026-04-12T07:07:22.546Z</time></trkpt><trkpt lat="45.2335767" lon="11.6686067"><ele>14.0</ele><time>2026-04-12T07:07:23.545Z</time></trkpt><trkpt lat="45.23361" lon="11.6686917"><ele>14.0</ele><time>2026-04-12T07:07:24.541Z</time></trkpt><trkpt lat="45.2336467" lon="11.6687767"><ele>13.857142857142858</ele><time>2026-04-12T07:07:25.528Z</time></trkpt><trkpt lat="45.23368" lon="11.66886"><ele>13.714285714285715</ele><time>2026-04-12T07:07:26.546Z</time></trkpt><trkpt lat="45.2337133" lon="11.6689433"><ele>13.571428571428571</ele><time>2026-04-12T07:07:27.537Z</time></trkpt><trkpt lat="45.23375" lon="11.6690267"><ele>13.428571428571429</ele><time>2026-04-12T07:07:28.531Z</time></trkpt><trkpt lat="45.2337867" lon="11.6691117"><ele>13.285714285714286</ele><time>2026-04-12T07:07:29.537Z</time></trkpt><trkpt lat="45.2338233" lon="11.6691967"><ele>13.142857142857142</ele><time>2026-04-12T07:07:30.54Z</time></trkpt><trkpt lat="45.2338617" lon="11.66928"><ele>13.0</ele><time>2026-04-12T07:07:31.548Z</time></trkpt><trkpt lat="45.2339017" lon="11.6693667"><ele>12.857142857142856</ele><time>2026-04-12T07:07:32.525Z</time></trkpt><trkpt lat="45.2339433" lon="11.6694517"><ele>12.714285714285715</ele><time>2026-04-12T07:07:33.54Z</time></trkpt><trkpt lat="45.2339833" lon="11.6695383"><ele>12.571428571428571</ele><time>2026-04-12T07:07:34.534Z</time></trkpt><trkpt lat="45.2340233" lon="11.6696233"><ele>12.428571428571427</ele><time>2026-04-12T07:07:35.532Z</time></trkpt><trkpt lat="45.2340667" lon="11.6697117"><ele>12.285714285714285</ele><time>2026-04-12T07:07:36.523Z</time></trkpt><trkpt lat="45.2341083" lon="11.669805"><ele>12.142857142857142</ele><time>2026-04-12T07:07:37.545Z</time></trkpt><trkpt lat="45.2341467" lon="11.669895"><ele>12.0</ele><time>2026-04-12T07:07:38.551Z</time></trkpt><trkpt lat="45.2341817" lon="11.6699833"><ele>12.166666666666666</ele><time>2026-04-12T07:07:39.531Z</time></trkpt><trkpt lat="45.23422" lon="11.67007"><ele>12.333333333333332</ele><time>2026-04-12T07:07:40.551Z</time></trkpt><trkpt lat="45.2342567" lon="11.67016"><ele>12.5</ele><time>2026-04-12T07:07:41.584Z</time></trkpt><trkpt lat="45.2342883" lon="11.67025"><ele>12.666666666666666</ele><time>2026-04-12T07:07:42.544Z</time></trkpt><trkpt lat="45.2343233" lon="11.6703517"><ele>12.833333333333332</ele><time>2026-04-12T07:07:43.534Z</time></trkpt><trkpt lat="45.2343633" lon="11.6704483"><ele>13.0</ele><time>2026-04-12T07:07:44.573Z</time></trkpt><trkpt lat="45.2344033" lon="11.67054"><ele>13.0</ele><time>2026-04-12T07:07:45.591Z</time></trkpt><trkpt lat="45.23444" lon="11.6706283"><ele>13.0</ele><time>2026-04-12T07:07:46.558Z</time></trkpt><trkpt lat="45.2344783" lon="11.67072"><ele>13.0</ele><time>2026-04-12T07:07:47.573Z</time></trkpt><trkpt lat="45.2345167" lon="11.6708117"><ele>13.0</ele><time>2026-04-12T07:07:48.595Z</time></trkpt><trkpt lat="45.234555" lon="11.6709"><ele>13.0</ele><time>2026-04-12T07:07:49.654Z</time></trkpt><trkpt lat="45.2345967" lon="11.67099"><ele>13.0</ele><time>2026-04-12T07:07:50.622Z</time></trkpt><trkpt lat="45.2346367" lon="11.67108"><ele>13.0</ele><time>2026-04-12T07:07:51.596Z</time></trkpt><trkpt lat="45.2347917" lon="11.6714283"><ele>13.0</ele><time>2026-04-12T07:07:55.609Z</time></trkpt><trkpt lat="45.2348317" lon="11.67151"><ele>13.0</ele><time>2026-04-12T07:07:56.564Z</time></trkpt><trkpt lat="45.2348717" lon="11.6715917"><ele>13.0</ele><time>2026-04-12T07:07:57.565Z</time></trkpt><trkpt lat="45.2349133" lon="11.6716717"><ele>13.0</ele><time>2026-04-12T07:07:58.575Z</time></trkpt><trkpt lat="45.2349617" lon="11.67175"><ele>13.0</ele><time>2026-04-12T07:07:59.571Z</time></trkpt><trkpt lat="45.2350117" lon="11.6718267"><ele>13.0</ele><time>2026-04-12T07:08:00.56Z</time></trkpt><trkpt lat="45.23506" lon="11.6718983"><ele>13.0</ele><time>2026-04-12T07:08:01.679Z</time></trkpt><trkpt lat="45.2351033" lon="11.6719717"><ele>12.999999999999998</ele><time>2026-04-12T07:08:02.592Z</time></trkpt><trkpt lat="45.2351467" lon="11.672045"><ele>13.0</ele><time>2026-04-12T07:08:03.569Z</time></trkpt><trkpt lat="45.23519" lon="11.6721133"><ele>13.0</ele><time>2026-04-12T07:08:04.565Z</time></trkpt><trkpt lat="45.2352333" lon="11.67218"><ele>13.0</ele><time>2026-04-12T07:08:05.562Z</time></trkpt><trkpt lat="45.235305" lon="11.672325"><ele>12.999999999999998</ele><time>2026-04-12T07:08:07.569Z</time></trkpt><trkpt lat="45.23536" lon="11.672475"><ele>13.0</ele><time>2026-04-12T07:08:09.572Z</time></trkpt><trkpt lat="45.2354217" lon="11.67261"><ele>13.0</ele><time>2026-04-12T07:08:11.574Z</time></trkpt><trkpt lat="45.2354783" lon="11.67275"><ele>13.0</ele><time>2026-04-12T07:08:13.541Z</time></trkpt><trkpt lat="45.2355383" lon="11.6728817"><ele>13.0</ele><time>2026-04-12T07:08:15.618Z</time></trkpt><trkpt lat="45.2355983" lon="11.67301"><ele>13.0</ele><time>2026-04-12T07:08:17.587Z</time></trkpt><trkpt lat="45.235655" lon="11.67315"><ele>13.0</ele><time>2026-04-12T07:08:19.553Z</time></trkpt><trkpt lat="45.2357233" lon="11.6732967"><ele>13.0</ele><time>2026-04-12T07:08:21.564Z</time></trkpt><trkpt lat="45.23576" lon="11.6733767"><ele>13.0</ele><time>2026-04-12T07:08:22.583Z</time></trkpt><trkpt lat="45.2358" lon="11.673455"><ele>13.0</ele><time>2026-04-12T07:08:23.603Z</time></trkpt><trkpt lat="45.2358383" lon="11.6735317"><ele>13.0</ele><time>2026-04-12T07:08:24.62Z</time></trkpt><trkpt lat="45.2358783" lon="11.6736117"><ele>13.0</ele><time>2026-04-12T07:08:25.562Z</time></trkpt><trkpt lat="45.2359183" lon="11.673695"><ele>13.0</ele><time>2026-04-12T07:08:26.563Z</time></trkpt><trkpt lat="45.235965" lon="11.6737767"><ele>13.0</ele><time>2026-04-12T07:08:27.572Z</time></trkpt><trkpt lat="45.23601" lon="11.6738583"><ele>13.0</ele><time>2026-04-12T07:08:28.549Z</time></trkpt><trkpt lat="45.2360533" lon="11.6739383"><ele>13.0</ele><time>2026-04-12T07:08:29.562Z</time></trkpt><trkpt lat="45.2361033" lon="11.6740167"><ele>13.0</ele><time>2026-04-12T07:08:30.556Z</time></trkpt><trkpt lat="45.2361533" lon="11.6740967"><ele>13.0</ele><time>2026-04-12T07:08:31.551Z</time></trkpt><trkpt lat="45.2362033" lon="11.6741767"><ele>13.0</ele><time>2026-04-12T07:08:32.593Z</time></trkpt><trkpt lat="45.23625" lon="11.6742583"><ele>13.0</ele><time>2026-04-12T07:08:33.535Z</time></trkpt><trkpt lat="45.2362967" lon="11.6743367"><ele>13.0</ele><time>2026-04-12T07:08:34.54Z</time></trkpt><trkpt lat="45.2363417" lon="11.6744167"><ele>13.428571428571427</ele><time>2026-04-12T07:08:35.562Z</time></trkpt><trkpt lat="45.2363883" lon="11.6744933"><ele>13.857142857142858</ele><time>2026-04-12T07:08:36.541Z</time></trkpt><trkpt lat="45.2364317" lon="11.6745767"><ele>14.285714285714285</ele><time>2026-04-12T07:08:37.561Z</time></trkpt><trkpt lat="45.2364767" lon="11.674655"><ele>14.714285714285714</ele><time>2026-04-12T07:08:38.534Z</time></trkpt><trkpt lat="45.2365133" lon="11.6747367"><ele>15.142857142857142</ele><time>2026-04-12T07:08:39.539Z</time></trkpt><trkpt lat="45.2365533" lon="11.6748167"><ele>15.571428571428571</ele><time>2026-04-12T07:08:40.551Z</time></trkpt><trkpt lat="45.2365917" lon="11.6748933"><ele>16.0</ele><time>2026-04-12T07:08:41.539Z</time></trkpt><trkpt lat="45.23663" lon="11.6749667"><ele>15.999999999999998</ele><time>2026-04-12T07:08:42.528Z</time></trkpt><trkpt lat="45.2366717" lon="11.6750433"><ele>16.0</ele><time>2026-04-12T07:08:43.526Z</time></trkpt><trkpt lat="45.23671" lon="11.6751167"><ele>16.0</ele><time>2026-04-12T07:08:44.538Z</time></trkpt><trkpt lat="45.236785" lon="11.67526"><ele>16.0</ele><time>2026-04-12T07:08:46.553Z</time></trkpt><trkpt lat="45.2368217" lon="11.6753383"><ele>15.999999999999998</ele><time>2026-04-12T07:08:47.528Z</time></trkpt><trkpt lat="45.236855" lon="11.6754183"><ele>16.0</ele><time>2026-04-12T07:08:48.536Z</time></trkpt><trkpt lat="45.2368917" lon="11.6754983"><ele>15.428571428571427</ele><time>2026-04-12T07:08:49.53Z</time></trkpt><trkpt lat="45.2369283" lon="11.6755767"><ele>14.857142857142856</ele><time>2026-04-12T07:08:50.538Z</time></trkpt><trkpt lat="45.2369667" lon="11.6756567"><ele>14.285714285714285</ele><time>2026-04-12T07:08:51.536Z</time></trkpt><trkpt lat="45.237005" lon="11.6757333"><ele>13.714285714285714</ele><time>2026-04-12T07:08:52.541Z</time></trkpt><trkpt lat="45.2370433" lon="11.67581"><ele>13.142857142857142</ele><time>2026-04-12T07:08:53.531Z</time></trkpt><trkpt lat="45.2370783" lon="11.6758867"><ele>12.57142857142857</ele><time>2026-04-12T07:08:54.538Z</time></trkpt><trkpt lat="45.2371133" lon="11.67597"><ele>12.0</ele><time>2026-04-12T07:08:55.536Z</time></trkpt><trkpt lat="45.2371467" lon="11.6760533"><ele>11.833333333333334</ele><time>2026-04-12T07:08:56.553Z</time></trkpt><trkpt lat="45.23718" lon="11.6761317"><ele>11.666666666666666</ele><time>2026-04-12T07:08:57.538Z</time></trkpt><trkpt lat="45.23721" lon="11.6762133"><ele>11.5</ele><time>2026-04-12T07:08:58.528Z</time></trkpt><trkpt lat="45.2372417" lon="11.6762917"><ele>11.333333333333332</ele><time>2026-04-12T07:08:59.539Z</time></trkpt><trkpt lat="45.2373017" lon="11.67643"><ele>11.166666666666666</ele><time>2026-04-12T07:09:01.535Z</time></trkpt><trkpt lat="45.237365" lon="11.6765717"><ele>11.0</ele><time>2026-04-12T07:09:03.547Z</time></trkpt><trkpt lat="45.2374267" lon="11.6767167"><ele>11.5</ele><time>2026-04-12T07:09:05.531Z</time></trkpt><trkpt lat="45.2374867" lon="11.676855"><ele>12.0</ele><time>2026-04-12T07:09:07.529Z</time></trkpt><trkpt lat="45.2375483" lon="11.677005"><ele>12.5</ele><time>2026-04-12T07:09:09.537Z</time></trkpt><trkpt lat="45.23758" lon="11.6770867"><ele>13.0</ele><time>2026-04-12T07:09:10.524Z</time></trkpt><trkpt lat="45.2376117" lon="11.6771667"><ele>13.500000000000002</ele><time>2026-04-12T07:09:11.544Z</time></trkpt><trkpt lat="45.237645" lon="11.677245"><ele>14.0</ele><time>2026-04-12T07:09:12.548Z</time></trkpt><trkpt lat="45.2376783" lon="11.677325"><ele>14.0</ele><time>2026-04-12T07:09:13.567Z</time></trkpt><trkpt lat="45.2377383" lon="11.6774783"><ele>14.0</ele><time>2026-04-12T07:09:15.543Z</time></trkpt><trkpt lat="45.2377967" lon="11.6776367"><ele>14.0</ele><time>2026-04-12T07:09:17.544Z</time></trkpt><trkpt lat="45.2378533" lon="11.6777933"><ele>14.0</ele><time>2026-04-12T07:09:19.531Z</time></trkpt><trkpt lat="45.2379133" lon="11.677945"><ele>13.25</ele><time>2026-04-12T07:09:21.528Z</time></trkpt><trkpt lat="45.237965" lon="11.678085"><ele>12.5</ele><time>2026-04-12T07:09:23.533Z</time></trkpt><trkpt lat="45.2380183" lon="11.6782333"><ele>11.75</ele><time>2026-04-12T07:09:25.529Z</time></trkpt><trkpt lat="45.2380767" lon="11.6783833"><ele>11.0</ele><time>2026-04-12T07:09:27.549Z</time></trkpt><trkpt lat="45.238135" lon="11.6785417"><ele>11.571428571428571</ele><time>2026-04-12T07:09:29.528Z</time></trkpt><trkpt lat="45.2381717" lon="11.678625"><ele>12.142857142857142</ele><time>2026-04-12T07:09:30.545Z</time></trkpt><trkpt lat="45.2382083" lon="11.6787133"><ele>12.714285714285715</ele><time>2026-04-12T07:09:31.532Z</time></trkpt><trkpt lat="45.238245" lon="11.6788033"><ele>13.285714285714285</ele><time>2026-04-12T07:09:32.53Z</time></trkpt><trkpt lat="45.23828" lon="11.6788917"><ele>13.857142857142856</ele><time>2026-04-12T07:09:33.527Z</time></trkpt><trkpt lat="45.2383133" lon="11.6789817"><ele>14.428571428571429</ele><time>2026-04-12T07:09:34.528Z</time></trkpt><trkpt lat="45.238345" lon="11.67907"><ele>15.0</ele><time>2026-04-12T07:09:35.537Z</time></trkpt><trkpt lat="45.2383783" lon="11.6791567"><ele>15.0</ele><time>2026-04-12T07:09:36.544Z</time></trkpt><trkpt lat="45.23841" lon="11.6792417"><ele>15.0</ele><time>2026-04-12T07:09:37.534Z</time></trkpt><trkpt lat="45.2384417" lon="11.6793233"><ele>15.0</ele><time>2026-04-12T07:09:38.533Z</time></trkpt><trkpt lat="45.2384717" lon="11.6794067"><ele>15.0</ele><time>2026-04-12T07:09:39.531Z</time></trkpt><trkpt lat="45.2385" lon="11.6794917"><ele>15.0</ele><time>2026-04-12T07:09:40.527Z</time></trkpt><trkpt lat="45.2385283" lon="11.67958"><ele>15.0</ele><time>2026-04-12T07:09:41.542Z</time></trkpt><trkpt lat="45.2385617" lon="11.6796633"><ele>15.0</ele><time>2026-04-12T07:09:42.55Z</time></trkpt><trkpt lat="45.2385933" lon="11.679745"><ele>14.5</ele><time>2026-04-12T07:09:43.535Z</time></trkpt><trkpt lat="45.238625" lon="11.6798233"><ele>14.0</ele><time>2026-04-12T07:09:44.527Z</time></trkpt><trkpt lat="45.238655" lon="11.6799033"><ele>13.5</ele><time>2026-04-12T07:09:45.548Z</time></trkpt><trkpt lat="45.2386867" lon="11.6799817"><ele>13.0</ele><time>2026-04-12T07:09:46.535Z</time></trkpt><trkpt lat="45.238755" lon="11.6801367"><ele>12.5</ele><time>2026-04-12T07:09:48.548Z</time></trkpt><trkpt lat="45.2387967" lon="11.6802083"><ele>12.0</ele><time>2026-04-12T07:09:49.545Z</time></trkpt><trkpt lat="45.2388867" lon="11.6803333"><ele>11.857142857142856</ele><time>2026-04-12T07:09:51.533Z</time></trkpt><trkpt lat="45.238935" lon="11.6804"><ele>11.714285714285714</ele><time>2026-04-12T07:09:52.54Z</time></trkpt><trkpt lat="45.238985" lon="11.6804667"><ele>11.571428571428571</ele><time>2026-04-12T07:09:53.537Z</time></trkpt><trkpt lat="45.239035" lon="11.6805267"><ele>11.428571428571427</ele><time>2026-04-12T07:09:54.532Z</time></trkpt><trkpt lat="45.2390833" lon="11.6805867"><ele>11.285714285714285</ele><time>2026-04-12T07:09:55.536Z</time></trkpt><trkpt lat="45.2391367" lon="11.680645"><ele>11.142857142857142</ele><time>2026-04-12T07:09:56.525Z</time></trkpt><trkpt lat="45.23919" lon="11.680705"><ele>11.0</ele><time>2026-04-12T07:09:57.536Z</time></trkpt><trkpt lat="45.23924" lon="11.680765"><ele>11.0</ele><time>2026-04-12T07:09:58.541Z</time></trkpt><trkpt lat="45.23929" lon="11.6808217"><ele>11.0</ele><time>2026-04-12T07:09:59.541Z</time></trkpt><trkpt lat="45.2393433" lon="11.6808767"><ele>11.0</ele><time>2026-04-12T07:10:00.539Z</time></trkpt><trkpt lat="45.2393933" lon="11.6809333"><ele>11.0</ele><time>2026-04-12T07:10:01.541Z</time></trkpt><trkpt lat="45.23949" lon="11.68105"><ele>11.0</ele><time>2026-04-12T07:10:03.546Z</time></trkpt><trkpt lat="45.23954" lon="11.6811083"><ele>11.0</ele><time>2026-04-12T07:10:04.535Z</time></trkpt><trkpt lat="45.2396433" lon="11.6812167"><ele>11.0</ele><time>2026-04-12T07:10:06.53Z</time></trkpt><trkpt lat="45.2396933" lon="11.6812733"><ele>11.0</ele><time>2026-04-12T07:10:07.545Z</time></trkpt><trkpt lat="45.2397417" lon="11.6813333"><ele>11.0</ele><time>2026-04-12T07:10:08.533Z</time></trkpt><trkpt lat="45.23979" lon="11.6813917"><ele>11.0</ele><time>2026-04-12T07:10:09.528Z</time></trkpt><trkpt lat="45.2398417" lon="11.6814483"><ele>11.0</ele><time>2026-04-12T07:10:10.534Z</time></trkpt><trkpt lat="45.239895" lon="11.6815067"><ele>11.0</ele><time>2026-04-12T07:10:11.529Z</time></trkpt><trkpt lat="45.23995" lon="11.6815683"><ele>11.0</ele><time>2026-04-12T07:10:12.538Z</time></trkpt><trkpt lat="45.240005" lon="11.68163"><ele>11.0</ele><time>2026-04-12T07:10:13.539Z</time></trkpt><trkpt lat="45.2400583" lon="11.6816933"><ele>11.0</ele><time>2026-04-12T07:10:14.55Z</time></trkpt><trkpt lat="45.2401117" lon="11.681755"><ele>11.0</ele><time>2026-04-12T07:10:15.531Z</time></trkpt><trkpt lat="45.2401633" lon="11.6818133"><ele>11.0</ele><time>2026-04-12T07:10:16.528Z</time></trkpt><trkpt lat="45.24022" lon="11.6818667"><ele>11.0</ele><time>2026-04-12T07:10:17.535Z</time></trkpt><trkpt lat="45.240275" lon="11.6819183"><ele>11.0</ele><time>2026-04-12T07:10:18.544Z</time></trkpt><trkpt lat="45.240335" lon="11.6819733"><ele>11.0</ele><time>2026-04-12T07:10:19.547Z</time></trkpt><trkpt lat="45.2404" lon="11.6820233"><ele>11.0</ele><time>2026-04-12T07:10:20.548Z</time></trkpt><trkpt lat="45.24046" lon="11.6820717"><ele>11.0</ele><time>2026-04-12T07:10:21.544Z</time></trkpt><trkpt lat="45.2405167" lon="11.6821117"><ele>11.0</ele><time>2026-04-12T07:10:22.547Z</time></trkpt><trkpt lat="45.2405767" lon="11.68215"><ele>11.0</ele><time>2026-04-12T07:10:23.556Z</time></trkpt><trkpt lat="45.2406367" lon="11.682185"><ele>11.0</ele><time>2026-04-12T07:10:24.551Z</time></trkpt><trkpt lat="45.2407433" lon="11.6822417"><ele>11.0</ele><time>2026-04-12T07:10:26.557Z</time></trkpt><trkpt lat="45.2408033" lon="11.68227"><ele>11.0</ele><time>2026-04-12T07:10:27.629Z</time></trkpt><trkpt lat="45.240865" lon="11.682305"><ele>11.4</ele><time>2026-04-12T07:10:28.562Z</time></trkpt><trkpt lat="45.24093" lon="11.6823467"><ele>11.8</ele><time>2026-04-12T07:10:29.633Z</time></trkpt><trkpt lat="45.24105" lon="11.6824283"><ele>12.200000000000001</ele><time>2026-04-12T07:10:31.542Z</time></trkpt><trkpt lat="45.2411167" lon="11.682485"><ele>12.600000000000001</ele><time>2026-04-12T07:10:32.534Z</time></trkpt><trkpt lat="45.2412033" lon="11.6825717"><ele>13.0</ele><time>2026-04-12T07:10:34.535Z</time></trkpt><trkpt lat="45.241295" lon="11.6826867"><ele>13.2</ele><time>2026-04-12T07:10:36.535Z</time></trkpt><trkpt lat="45.2413267" lon="11.6827717"><ele>13.4</ele><time>2026-04-12T07:10:37.542Z</time></trkpt><trkpt lat="45.2413567" lon="11.6828517"><ele>13.599999999999998</ele><time>2026-04-12T07:10:38.543Z</time></trkpt><trkpt lat="45.2414133" lon="11.6830017"><ele>13.799999999999999</ele><time>2026-04-12T07:10:40.536Z</time></trkpt><trkpt lat="45.2414717" lon="11.68315"><ele>14.0</ele><time>2026-04-12T07:10:42.529Z</time></trkpt><trkpt lat="45.2415383" lon="11.6832983"><ele>14.0</ele><time>2026-04-12T07:10:44.534Z</time></trkpt><trkpt lat="45.241575" lon="11.6833733"><ele>13.999999999999998</ele><time>2026-04-12T07:10:45.533Z</time></trkpt><trkpt lat="45.241635" lon="11.68352"><ele>13.999999999999998</ele><time>2026-04-12T07:10:47.527Z</time></trkpt><trkpt lat="45.2416967" lon="11.68367"><ele>14.0</ele><time>2026-04-12T07:10:49.523Z</time></trkpt><trkpt lat="45.2417617" lon="11.68382"><ele>14.0</ele><time>2026-04-12T07:10:51.539Z</time></trkpt><trkpt lat="45.2418283" lon="11.683965"><ele>13.5</ele><time>2026-04-12T07:10:53.543Z</time></trkpt><trkpt lat="45.2418883" lon="11.68411"><ele>13.0</ele><time>2026-04-12T07:10:55.549Z</time></trkpt><trkpt lat="45.2419517" lon="11.6842533"><ele>12.5</ele><time>2026-04-12T07:10:57.536Z</time></trkpt><trkpt lat="45.2420133" lon="11.68439"><ele>12.0</ele><time>2026-04-12T07:10:59.536Z</time></trkpt><trkpt lat="45.2420783" lon="11.68452"><ele>12.0</ele><time>2026-04-12T07:11:01.528Z</time></trkpt><trkpt lat="45.2421517" lon="11.6846533"><ele>12.0</ele><time>2026-04-12T07:11:03.534Z</time></trkpt><trkpt lat="45.24223" lon="11.6847717"><ele>12.0</ele><time>2026-04-12T07:11:05.526Z</time></trkpt><trkpt lat="45.2423083" lon="11.684885"><ele>12.0</ele><time>2026-04-12T07:11:07.532Z</time></trkpt><trkpt lat="45.242395" lon="11.684995"><ele>12.0</ele><time>2026-04-12T07:11:09.547Z</time></trkpt><trkpt lat="45.2424767" lon="11.685105"><ele>12.0</ele><time>2026-04-12T07:11:11.534Z</time></trkpt><trkpt lat="45.2425633" lon="11.6852217"><ele>12.0</ele><time>2026-04-12T07:11:13.533Z</time></trkpt><trkpt lat="45.2426417" lon="11.68534"><ele>12.0</ele><time>2026-04-12T07:11:15.541Z</time></trkpt><trkpt lat="45.2426867" lon="11.6854033"><ele>12.0</ele><time>2026-04-12T07:11:16.526Z</time></trkpt><trkpt lat="45.2427317" lon="11.6854667"><ele>12.0</ele><time>2026-04-12T07:11:17.535Z</time></trkpt><trkpt lat="45.2428183" lon="11.6855967"><ele>12.0</ele><time>2026-04-12T07:11:19.531Z</time></trkpt><trkpt lat="45.242895" lon="11.6857317"><ele>12.0</ele><time>2026-04-12T07:11:21.53Z</time></trkpt><trkpt lat="45.2429717" lon="11.68586"><ele>12.0</ele><time>2026-04-12T07:11:23.529Z</time></trkpt><trkpt lat="45.2430517" lon="11.685995"><ele>12.0</ele><time>2026-04-12T07:11:25.53Z</time></trkpt><trkpt lat="45.2430983" lon="11.686065"><ele>12.0</ele><time>2026-04-12T07:11:26.533Z</time></trkpt><trkpt lat="45.2431383" lon="11.6861367"><ele>12.0</ele><time>2026-04-12T07:11:27.546Z</time></trkpt><trkpt lat="45.24321" lon="11.6862667"><ele>12.0</ele><time>2026-04-12T07:11:29.529Z</time></trkpt><trkpt lat="45.24325" lon="11.6863367"><ele>12.0</ele><time>2026-04-12T07:11:30.546Z</time></trkpt><trkpt lat="45.2433033" lon="11.6864967"><ele>12.0</ele><time>2026-04-12T07:11:32.536Z</time></trkpt><trkpt lat="45.2433533" lon="11.6866383"><ele>12.2</ele><time>2026-04-12T07:11:34.537Z</time></trkpt><trkpt lat="45.2433867" lon="11.68679"><ele>12.399999999999999</ele><time>2026-04-12T07:11:36.525Z</time></trkpt><trkpt lat="45.2434267" lon="11.686955"><ele>12.600000000000001</ele><time>2026-04-12T07:11:38.526Z</time></trkpt><trkpt lat="45.2434433" lon="11.6870417"><ele>12.8</ele><time>2026-04-12T07:11:39.532Z</time></trkpt><trkpt lat="45.2434683" lon="11.6872133"><ele>13.0</ele><time>2026-04-12T07:11:41.53Z</time></trkpt><trkpt lat="45.2434833" lon="11.6873767"><ele>13.25</ele><time>2026-04-12T07:11:43.529Z</time></trkpt><trkpt lat="45.243495" lon="11.6875383"><ele>13.5</ele><time>2026-04-12T07:11:45.534Z</time></trkpt><trkpt lat="45.243505" lon="11.6877067"><ele>13.75</ele><time>2026-04-12T07:11:47.526Z</time></trkpt><trkpt lat="45.2435083" lon="11.68788"><ele>14.0</ele><time>2026-04-12T07:11:49.536Z</time></trkpt><trkpt lat="45.2435167" lon="11.6880467"><ele>14.0</ele><time>2026-04-12T07:11:51.528Z</time></trkpt><trkpt lat="45.243555" lon="11.688205"><ele>14.0</ele><time>2026-04-12T07:11:53.545Z</time></trkpt><trkpt lat="45.2435667" lon="11.688365"><ele>14.0</ele><time>2026-04-12T07:11:55.538Z</time></trkpt><trkpt lat="45.2435667" lon="11.688525"><ele>14.0</ele><time>2026-04-12T07:11:57.542Z</time></trkpt><trkpt lat="45.2435417" lon="11.6886783"><ele>14.0</ele><time>2026-04-12T07:11:59.527Z</time></trkpt><trkpt lat="45.2435067" lon="11.688825"><ele>14.0</ele><time>2026-04-12T07:12:01.528Z</time></trkpt><trkpt lat="45.243455" lon="11.68897"><ele>14.0</ele><time>2026-04-12T07:12:03.542Z</time></trkpt><trkpt lat="45.2434" lon="11.689115"><ele>14.0</ele><time>2026-04-12T07:12:05.547Z</time></trkpt><trkpt lat="45.24334" lon="11.68926"><ele>14.0</ele><time>2026-04-12T07:12:07.548Z</time></trkpt><trkpt lat="45.2432867" lon="11.6894067"><ele>14.0</ele><time>2026-04-12T07:12:09.528Z</time></trkpt><trkpt lat="45.2432417" lon="11.6895567"><ele>14.0</ele><time>2026-04-12T07:12:11.543Z</time></trkpt><trkpt lat="45.2431817" lon="11.6897017"><ele>14.0</ele><time>2026-04-12T07:12:13.545Z</time></trkpt><trkpt lat="45.243125" lon="11.6898467"><ele>14.0</ele><time>2026-04-12T07:12:15.547Z</time></trkpt><trkpt lat="45.2430783" lon="11.6899967"><ele>14.0</ele><time>2026-04-12T07:12:17.526Z</time></trkpt><trkpt lat="45.2430317" lon="11.6901517"><ele>14.0</ele><time>2026-04-12T07:12:19.53Z</time></trkpt><trkpt lat="45.2429633" lon="11.6902833"><ele>14.0</ele><time>2026-04-12T07:12:21.53Z</time></trkpt><trkpt lat="45.2428733" lon="11.6903683"><ele>15.2</ele><time>2026-04-12T07:12:23.529Z</time></trkpt><trkpt lat="45.242775" lon="11.6904183"><ele>16.4</ele><time>2026-04-12T07:12:25.543Z</time></trkpt><trkpt lat="45.24268" lon="11.6904567"><ele>17.6</ele><time>2026-04-12T07:12:27.527Z</time></trkpt><trkpt lat="45.2425767" lon="11.6904833"><ele>18.8</ele><time>2026-04-12T07:12:29.548Z</time></trkpt><trkpt lat="45.24247" lon="11.690505"><ele>20.0</ele><time>2026-04-12T07:12:31.55Z</time></trkpt><trkpt lat="45.2423617" lon="11.690525"><ele>19.6</ele><time>2026-04-12T07:12:33.528Z</time></trkpt><trkpt lat="45.2422567" lon="11.6905417"><ele>19.2</ele><time>2026-04-12T07:12:35.532Z</time></trkpt><trkpt lat="45.2421567" lon="11.69055"><ele>18.8</ele><time>2026-04-12T07:12:37.531Z</time></trkpt><trkpt lat="45.2420617" lon="11.6905633"><ele>18.4</ele><time>2026-04-12T07:12:39.541Z</time></trkpt><trkpt lat="45.2419617" lon="11.6905967"><ele>18.0</ele><time>2026-04-12T07:12:41.537Z</time></trkpt><trkpt lat="45.2418567" lon="11.6906383"><ele>18.0</ele><time>2026-04-12T07:12:43.526Z</time></trkpt><trkpt lat="45.24176" lon="11.6907083"><ele>18.0</ele><time>2026-04-12T07:12:45.534Z</time></trkpt><trkpt lat="45.2416817" lon="11.6908117"><ele>18.0</ele><time>2026-04-12T07:12:47.535Z</time></trkpt><trkpt lat="45.2416067" lon="11.69091"><ele>18.0</ele><time>2026-04-12T07:12:49.536Z</time></trkpt><trkpt lat="45.2415267" lon="11.6910067"><ele>18.0</ele><time>2026-04-12T07:12:51.523Z</time></trkpt><trkpt lat="45.24145" lon="11.6911067"><ele>18.2</ele><time>2026-04-12T07:12:53.533Z</time></trkpt><trkpt lat="45.2413667" lon="11.6912033"><ele>18.4</ele><time>2026-04-12T07:12:55.548Z</time></trkpt><trkpt lat="45.2412767" lon="11.6912967"><ele>18.599999999999998</ele><time>2026-04-12T07:12:57.529Z</time></trkpt><trkpt lat="45.241195" lon="11.6914067"><ele>18.8</ele><time>2026-04-12T07:12:59.523Z</time></trkpt><trkpt lat="45.2411417" lon="11.6914633"><ele>19.0</ele><time>2026-04-12T07:13:00.547Z</time></trkpt><trkpt lat="45.2410883" lon="11.6915183"><ele>19.0</ele><time>2026-04-12T07:13:01.528Z</time></trkpt><trkpt lat="45.24103" lon="11.69157"><ele>19.0</ele><time>2026-04-12T07:13:02.544Z</time></trkpt><trkpt lat="45.2409683" lon="11.691615"><ele>19.0</ele><time>2026-04-12T07:13:03.565Z</time></trkpt><trkpt lat="45.2409" lon="11.69165"><ele>19.0</ele><time>2026-04-12T07:13:04.539Z</time></trkpt><trkpt lat="45.2408367" lon="11.6916783"><ele>19.0</ele><time>2026-04-12T07:13:05.527Z</time></trkpt><trkpt lat="45.2407667" lon="11.69171"><ele>19.0</ele><time>2026-04-12T07:13:06.528Z</time></trkpt><trkpt lat="45.2406933" lon="11.6917383"><ele>19.0</ele><time>2026-04-12T07:13:07.549Z</time></trkpt><trkpt lat="45.2406233" lon="11.6917633"><ele>18.428571428571427</ele><time>2026-04-12T07:13:08.556Z</time></trkpt><trkpt lat="45.2405567" lon="11.6917867"><ele>17.857142857142858</ele><time>2026-04-12T07:13:09.536Z</time></trkpt><trkpt lat="45.2404883" lon="11.69181"><ele>17.285714285714285</ele><time>2026-04-12T07:13:10.539Z</time></trkpt><trkpt lat="45.24042" lon="11.6918283"><ele>16.714285714285715</ele><time>2026-04-12T07:13:11.537Z</time></trkpt><trkpt lat="45.2403533" lon="11.691845"><ele>16.142857142857142</ele><time>2026-04-12T07:13:12.536Z</time></trkpt><trkpt lat="45.24029" lon="11.69186"><ele>15.571428571428573</ele><time>2026-04-12T07:13:13.545Z</time></trkpt><trkpt lat="45.2402267" lon="11.6918817"><ele>15.0</ele><time>2026-04-12T07:13:14.537Z</time></trkpt><trkpt lat="45.2401617" lon="11.6919033"><ele>15.714285714285715</ele><time>2026-04-12T07:13:15.532Z</time></trkpt><trkpt lat="45.240095" lon="11.69193"><ele>16.428571428571427</ele><time>2026-04-12T07:13:16.543Z</time></trkpt><trkpt lat="45.2400283" lon="11.6919617"><ele>17.142857142857142</ele><time>2026-04-12T07:13:17.537Z</time></trkpt><trkpt lat="45.239965" lon="11.6920033"><ele>17.857142857142858</ele><time>2026-04-12T07:13:18.533Z</time></trkpt><trkpt lat="45.2399083" lon="11.692055"><ele>18.571428571428573</ele><time>2026-04-12T07:13:19.534Z</time></trkpt><trkpt lat="45.2398533" lon="11.6921083"><ele>19.285714285714285</ele><time>2026-04-12T07:13:20.538Z</time></trkpt><trkpt lat="45.2397983" lon="11.6921633"><ele>20.0</ele><time>2026-04-12T07:13:21.54Z</time></trkpt><trkpt lat="45.2397433" lon="11.6922233"><ele>20.0</ele><time>2026-04-12T07:13:22.543Z</time></trkpt><trkpt lat="45.23969" lon="11.6922783"><ele>20.0</ele><time>2026-04-12T07:13:23.534Z</time></trkpt><trkpt lat="45.239635" lon="11.6923367"><ele>20.0</ele><time>2026-04-12T07:13:24.54Z</time></trkpt><trkpt lat="45.2395783" lon="11.692395"><ele>20.0</ele><time>2026-04-12T07:13:25.535Z</time></trkpt><trkpt lat="45.2395233" lon="11.6924483"><ele>20.0</ele><time>2026-04-12T07:13:26.528Z</time></trkpt><trkpt lat="45.2394133" lon="11.69254"><ele>20.0</ele><time>2026-04-12T07:13:28.533Z</time></trkpt><trkpt lat="45.2393533" lon="11.6925783"><ele>20.0</ele><time>2026-04-12T07:13:29.533Z</time></trkpt><trkpt lat="45.2392933" lon="11.6926117"><ele>20.0</ele><time>2026-04-12T07:13:30.527Z</time></trkpt><trkpt lat="45.23918" lon="11.69268"><ele>20.0</ele><time>2026-04-12T07:13:32.541Z</time></trkpt><trkpt lat="45.2390717" lon="11.6927467"><ele>20.0</ele><time>2026-04-12T07:13:34.531Z</time></trkpt><trkpt lat="45.2389533" lon="11.6928017"><ele>20.0</ele><time>2026-04-12T07:13:36.526Z</time></trkpt><trkpt lat="45.2388917" lon="11.69283"><ele>21.75</ele><time>2026-04-12T07:13:37.542Z</time></trkpt><trkpt lat="45.238775" lon="11.692885"><ele>23.5</ele><time>2026-04-12T07:13:39.536Z</time></trkpt><trkpt lat="45.238665" lon="11.692945"><ele>25.25</ele><time>2026-04-12T07:13:41.537Z</time></trkpt><trkpt lat="45.238555" lon="11.6930183"><ele>27.0</ele><time>2026-04-12T07:13:43.525Z</time></trkpt><trkpt lat="45.238455" lon="11.6931117"><ele>27.0</ele><time>2026-04-12T07:13:45.544Z</time></trkpt><trkpt lat="45.2383633" lon="11.6932117"><ele>27.000000000000004</ele><time>2026-04-12T07:13:47.527Z</time></trkpt><trkpt lat="45.2382833" lon="11.6933083"><ele>27.000000000000004</ele><time>2026-04-12T07:13:49.533Z</time></trkpt><trkpt lat="45.2382033" lon="11.6933983"><ele>27.0</ele><time>2026-04-12T07:13:51.523Z</time></trkpt><trkpt lat="45.2381217" lon="11.6934833"><ele>27.0</ele><time>2026-04-12T07:13:53.536Z</time></trkpt><trkpt lat="45.238035" lon="11.69357"><ele>27.400000000000002</ele><time>2026-04-12T07:13:55.531Z</time></trkpt><trkpt lat="45.2379383" lon="11.6936567"><ele>27.800000000000004</ele><time>2026-04-12T07:13:57.529Z</time></trkpt><trkpt lat="45.23785" lon="11.6937383"><ele>28.2</ele><time>2026-04-12T07:13:59.532Z</time></trkpt><trkpt lat="45.2377567" lon="11.69382"><ele>28.6</ele><time>2026-04-12T07:14:01.545Z</time></trkpt><trkpt lat="45.2376567" lon="11.6939033"><ele>29.0</ele><time>2026-04-12T07:14:03.541Z</time></trkpt><trkpt lat="45.2375483" lon="11.6939833"><ele>28.999999999999996</ele><time>2026-04-12T07:14:05.54Z</time></trkpt><trkpt lat="45.2374367" lon="11.6940617"><ele>29.0</ele><time>2026-04-12T07:14:07.549Z</time></trkpt><trkpt lat="45.2373767" lon="11.6941"><ele>29.0</ele><time>2026-04-12T07:14:08.537Z</time></trkpt><trkpt lat="45.237315" lon="11.6941333"><ele>29.0</ele><time>2026-04-12T07:14:09.534Z</time></trkpt><trkpt lat="45.2372483" lon="11.6941583"><ele>28.999999999999996</ele><time>2026-04-12T07:14:10.545Z</time></trkpt><trkpt lat="45.2371767" lon="11.694175"><ele>29.0</ele><time>2026-04-12T07:14:11.532Z</time></trkpt><trkpt lat="45.2371" lon="11.6941667"><ele>27.999999999999996</ele><time>2026-04-12T07:14:12.535Z</time></trkpt><trkpt lat="45.2370233" lon="11.694135"><ele>27.0</ele><time>2026-04-12T07:14:13.538Z</time></trkpt><trkpt lat="45.2369483" lon="11.6940867"><ele>26.0</ele><time>2026-04-12T07:14:14.525Z</time></trkpt><trkpt lat="45.236875" lon="11.6940267"><ele>25.0</ele><time>2026-04-12T07:14:15.544Z</time></trkpt><trkpt lat="45.2368" lon="11.69397"><ele>24.0</ele><time>2026-04-12T07:14:16.531Z</time></trkpt><trkpt lat="45.2367217" lon="11.6939283"><ele>23.0</ele><time>2026-04-12T07:14:17.55Z</time></trkpt><trkpt lat="45.2366367" lon="11.6939117"><ele>23.0</ele><time>2026-04-12T07:14:18.544Z</time></trkpt><trkpt lat="45.236555" lon="11.6939267"><ele>23.0</ele><time>2026-04-12T07:14:19.545Z</time></trkpt><trkpt lat="45.2364717" lon="11.6939633"><ele>23.0</ele><time>2026-04-12T07:14:20.544Z</time></trkpt><trkpt lat="45.2363833" lon="11.694005"><ele>23.0</ele><time>2026-04-12T07:14:21.554Z</time></trkpt><trkpt lat="45.2363133" lon="11.694065"><ele>23.0</ele><time>2026-04-12T07:14:22.562Z</time></trkpt><trkpt lat="45.2362517" lon="11.6941433"><ele>23.0</ele><time>2026-04-12T07:14:23.546Z</time></trkpt><trkpt lat="45.236225" lon="11.694255"><ele>22.166666666666668</ele><time>2026-04-12T07:14:24.567Z</time></trkpt><trkpt lat="45.2362067" lon="11.6943733"><ele>21.333333333333336</ele><time>2026-04-12T07:14:25.528Z</time></trkpt><trkpt lat="45.236195" lon="11.6944933"><ele>20.5</ele><time>2026-04-12T07:14:26.527Z</time></trkpt><trkpt lat="45.2361983" lon="11.6946083"><ele>19.666666666666668</ele><time>2026-04-12T07:14:27.525Z</time></trkpt><trkpt lat="45.2361983" lon="11.694725"><ele>18.833333333333332</ele><time>2026-04-12T07:14:28.582Z</time></trkpt><trkpt lat="45.2362033" lon="11.6948417"><ele>18.0</ele><time>2026-04-12T07:14:29.595Z</time></trkpt><trkpt lat="45.236215" lon="11.69496"><ele>18.000000000000004</ele><time>2026-04-12T07:14:30.544Z</time></trkpt><trkpt lat="45.2362367" lon="11.695045"><ele>18.0</ele><time>2026-04-12T07:14:31.529Z</time></trkpt><trkpt lat="45.2362617" lon="11.6951283"><ele>18.0</ele><time>2026-04-12T07:14:32.547Z</time></trkpt><trkpt lat="45.23628" lon="11.69525"><ele>18.0</ele><time>2026-04-12T07:14:33.545Z</time></trkpt><trkpt lat="45.236285" lon="11.6953583"><ele>18.0</ele><time>2026-04-12T07:14:34.549Z</time></trkpt><trkpt lat="45.23628" lon="11.6954583"><ele>18.000000000000004</ele><time>2026-04-12T07:14:35.535Z</time></trkpt><trkpt lat="45.2362717" lon="11.6955583"><ele>18.0</ele><time>2026-04-12T07:14:36.544Z</time></trkpt><trkpt lat="45.236255" lon="11.6956533"><ele>18.0</ele><time>2026-04-12T07:14:37.554Z</time></trkpt><trkpt lat="45.23624" lon="11.6957417"><ele>18.0</ele><time>2026-04-12T07:14:38.532Z</time></trkpt><trkpt lat="45.2362217" lon="11.69583"><ele>18.0</ele><time>2026-04-12T07:14:39.541Z</time></trkpt><trkpt lat="45.2362067" lon="11.6959967"><ele>18.0</ele><time>2026-04-12T07:14:41.532Z</time></trkpt><trkpt lat="45.23621" lon="11.6961583"><ele>18.0</ele><time>2026-04-12T07:14:43.531Z</time></trkpt><trkpt lat="45.236235" lon="11.6963167"><ele>17.666666666666668</ele><time>2026-04-12T07:14:45.539Z</time></trkpt><trkpt lat="45.2362617" lon="11.6964017"><ele>17.333333333333332</ele><time>2026-04-12T07:14:46.537Z</time></trkpt><trkpt lat="45.2362917" lon="11.6964917"><ele>17.0</ele><time>2026-04-12T07:14:47.734Z</time></trkpt><trkpt lat="45.2363483" lon="11.696665"><ele>16.666666666666664</ele><time>2026-04-12T07:14:49.524Z</time></trkpt><trkpt lat="45.23639" lon="11.6967517"><ele>16.333333333333332</ele><time>2026-04-12T07:14:50.525Z</time></trkpt><trkpt lat="45.236435" lon="11.69684"><ele>16.0</ele><time>2026-04-12T07:14:51.528Z</time></trkpt><trkpt lat="45.2364783" lon="11.6969283"><ele>16.714285714285715</ele><time>2026-04-12T07:14:52.539Z</time></trkpt><trkpt lat="45.2365183" lon="11.6970083"><ele>17.428571428571427</ele><time>2026-04-12T07:14:53.543Z</time></trkpt><trkpt lat="45.2365583" lon="11.6971033"><ele>18.142857142857142</ele><time>2026-04-12T07:14:54.527Z</time></trkpt><trkpt lat="45.2366033" lon="11.6971933"><ele>18.857142857142858</ele><time>2026-04-12T07:14:55.532Z</time></trkpt><trkpt lat="45.23664" lon="11.6972733"><ele>19.57142857142857</ele><time>2026-04-12T07:14:56.601Z</time></trkpt><trkpt lat="45.236675" lon="11.6973567"><ele>20.285714285714285</ele><time>2026-04-12T07:14:57.703Z</time></trkpt><trkpt lat="45.236715" lon="11.6974333"><ele>21.0</ele><time>2026-04-12T07:14:58.77Z</time></trkpt><trkpt lat="45.2367917" lon="11.6975933"><ele>21.0</ele><time>2026-04-12T07:15:00.586Z</time></trkpt><trkpt lat="45.23686" lon="11.697725"><ele>21.0</ele><time>2026-04-12T07:15:02.537Z</time></trkpt><trkpt lat="45.236895" lon="11.6978033"><ele>21.0</ele><time>2026-04-12T07:15:03.573Z</time></trkpt><trkpt lat="45.23693" lon="11.6978933"><ele>21.0</ele><time>2026-04-12T07:15:04.532Z</time></trkpt><trkpt lat="45.236965" lon="11.6979817"><ele>21.0</ele><time>2026-04-12T07:15:05.531Z</time></trkpt><trkpt lat="45.2370067" lon="11.6980717"><ele>21.0</ele><time>2026-04-12T07:15:06.54Z</time></trkpt><trkpt lat="45.2370433" lon="11.6981567"><ele>20.142857142857142</ele><time>2026-04-12T07:15:07.528Z</time></trkpt><trkpt lat="45.2370817" lon="11.6982433"><ele>19.285714285714285</ele><time>2026-04-12T07:15:08.532Z</time></trkpt><trkpt lat="45.2371167" lon="11.69833"><ele>18.42857142857143</ele><time>2026-04-12T07:15:09.534Z</time></trkpt><trkpt lat="45.2371533" lon="11.69841"><ele>17.57142857142857</ele><time>2026-04-12T07:15:10.547Z</time></trkpt><trkpt lat="45.23719" lon="11.6984933"><ele>16.714285714285715</ele><time>2026-04-12T07:15:11.53Z</time></trkpt><trkpt lat="45.237225" lon="11.6985817"><ele>15.857142857142858</ele><time>2026-04-12T07:15:12.537Z</time></trkpt><trkpt lat="45.23726" lon="11.6986683"><ele>15.0</ele><time>2026-04-12T07:15:13.534Z</time></trkpt><trkpt lat="45.237295" lon="11.698755"><ele>15.571428571428573</ele><time>2026-04-12T07:15:14.544Z</time></trkpt><trkpt lat="45.23733" lon="11.69884"><ele>16.142857142857142</ele><time>2026-04-12T07:15:15.544Z</time></trkpt><trkpt lat="45.2373633" lon="11.698925"><ele>16.714285714285715</ele><time>2026-04-12T07:15:16.525Z</time></trkpt><trkpt lat="45.2373983" lon="11.6990117"><ele>17.285714285714285</ele><time>2026-04-12T07:15:17.538Z</time></trkpt><trkpt lat="45.237435" lon="11.6991017"><ele>17.857142857142858</ele><time>2026-04-12T07:15:18.539Z</time></trkpt><trkpt lat="45.2374683" lon="11.6991883"><ele>18.428571428571427</ele><time>2026-04-12T07:15:19.526Z</time></trkpt><trkpt lat="45.237505" lon="11.699275"><ele>19.0</ele><time>2026-04-12T07:15:20.531Z</time></trkpt><trkpt lat="45.237545" lon="11.6993567"><ele>18.333333333333332</ele><time>2026-04-12T07:15:21.525Z</time></trkpt><trkpt lat="45.2375833" lon="11.69944"><ele>17.666666666666664</ele><time>2026-04-12T07:15:22.538Z</time></trkpt><trkpt lat="45.237625" lon="11.6995217"><ele>17.0</ele><time>2026-04-12T07:15:23.527Z</time></trkpt><trkpt lat="45.2376667" lon="11.6996033"><ele>16.333333333333332</ele><time>2026-04-12T07:15:24.526Z</time></trkpt><trkpt lat="45.237705" lon="11.6996817"><ele>15.666666666666666</ele><time>2026-04-12T07:15:25.527Z</time></trkpt><trkpt lat="45.2377467" lon="11.6997583"><ele>15.0</ele><time>2026-04-12T07:15:26.526Z</time></trkpt><trkpt lat="45.2378167" lon="11.6999017"><ele>15.0</ele><time>2026-04-12T07:15:28.53Z</time></trkpt><trkpt lat="45.23789" lon="11.7000367"><ele>15.0</ele><time>2026-04-12T07:15:30.548Z</time></trkpt><trkpt lat="45.2379533" lon="11.70018"><ele>15.0</ele><time>2026-04-12T07:15:32.527Z</time></trkpt><trkpt lat="45.2379817" lon="11.7003383"><ele>15.0</ele><time>2026-04-12T07:15:34.529Z</time></trkpt><trkpt lat="45.2379683" lon="11.7005167"><ele>14.428571428571429</ele><time>2026-04-12T07:15:36.523Z</time></trkpt><trkpt lat="45.237955" lon="11.70061"><ele>13.857142857142856</ele><time>2026-04-12T07:15:37.545Z</time></trkpt><trkpt lat="45.2379417" lon="11.700705"><ele>13.285714285714285</ele><time>2026-04-12T07:15:38.531Z</time></trkpt><trkpt lat="45.2379333" lon="11.700805"><ele>12.714285714285715</ele><time>2026-04-12T07:15:39.539Z</time></trkpt><trkpt lat="45.237925" lon="11.700905"><ele>12.142857142857142</ele><time>2026-04-12T07:15:40.536Z</time></trkpt><trkpt lat="45.23792" lon="11.7010083"><ele>11.571428571428571</ele><time>2026-04-12T07:15:41.533Z</time></trkpt><trkpt lat="45.23791" lon="11.7011133"><ele>11.0</ele><time>2026-04-12T07:15:42.541Z</time></trkpt><trkpt lat="45.2379" lon="11.7012167"><ele>10.857142857142858</ele><time>2026-04-12T07:15:43.529Z</time></trkpt><trkpt lat="45.2378917" lon="11.7013233"><ele>10.714285714285714</ele><time>2026-04-12T07:15:44.547Z</time></trkpt><trkpt lat="45.237885" lon="11.701425"><ele>10.571428571428571</ele><time>2026-04-12T07:15:45.548Z</time></trkpt><trkpt lat="45.2378733" lon="11.701525"><ele>10.428571428571429</ele><time>2026-04-12T07:15:46.533Z</time></trkpt><trkpt lat="45.23786" lon="11.7016217"><ele>10.285714285714286</ele><time>2026-04-12T07:15:47.531Z</time></trkpt><trkpt lat="45.237845" lon="11.701715"><ele>10.142857142857142</ele><time>2026-04-12T07:15:48.529Z</time></trkpt><trkpt lat="45.237825" lon="11.7018083"><ele>10.0</ele><time>2026-04-12T07:15:49.529Z</time></trkpt><trkpt lat="45.2378067" lon="11.7018967"><ele>10.285714285714285</ele><time>2026-04-12T07:15:50.53Z</time></trkpt><trkpt lat="45.2377883" lon="11.7019833"><ele>10.571428571428571</ele><time>2026-04-12T07:15:51.534Z</time></trkpt><trkpt lat="45.2377683" lon="11.7020683"><ele>10.857142857142858</ele><time>2026-04-12T07:15:52.531Z</time></trkpt><trkpt lat="45.2377433" lon="11.702155"><ele>11.142857142857142</ele><time>2026-04-12T07:15:53.535Z</time></trkpt><trkpt lat="45.2377167" lon="11.7022383"><ele>11.428571428571429</ele><time>2026-04-12T07:15:54.555Z</time></trkpt><trkpt lat="45.2376883" lon="11.7023233"><ele>11.714285714285714</ele><time>2026-04-12T07:15:55.532Z</time></trkpt><trkpt lat="45.2376533" lon="11.7024033"><ele>12.0</ele><time>2026-04-12T07:15:56.559Z</time></trkpt><trkpt lat="45.2376167" lon="11.70248"><ele>11.999999999999998</ele><time>2026-04-12T07:15:57.541Z</time></trkpt><trkpt lat="45.2375817" lon="11.70256"><ele>12.0</ele><time>2026-04-12T07:15:58.539Z</time></trkpt><trkpt lat="45.2375483" lon="11.70264"><ele>12.0</ele><time>2026-04-12T07:15:59.547Z</time></trkpt><trkpt lat="45.2375133" lon="11.7027233"><ele>12.0</ele><time>2026-04-12T07:16:00.545Z</time></trkpt><trkpt lat="45.23748" lon="11.702805"><ele>12.0</ele><time>2026-04-12T07:16:01.549Z</time></trkpt><trkpt lat="45.2374467" lon="11.70289"><ele>11.999999999999998</ele><time>2026-04-12T07:16:02.542Z</time></trkpt><trkpt lat="45.237415" lon="11.702975"><ele>12.0</ele><time>2026-04-12T07:16:03.548Z</time></trkpt><trkpt lat="45.2373833" lon="11.7030567"><ele>11.999999999999998</ele><time>2026-04-12T07:16:04.533Z</time></trkpt><trkpt lat="45.2373517" lon="11.7031417"><ele>12.0</ele><time>2026-04-12T07:16:05.525Z</time></trkpt><trkpt lat="45.2373167" lon="11.703225"><ele>12.0</ele><time>2026-04-12T07:16:06.534Z</time></trkpt><trkpt lat="45.2372833" lon="11.7033083"><ele>12.0</ele><time>2026-04-12T07:16:07.537Z</time></trkpt><trkpt lat="45.23725" lon="11.7033933"><ele>12.0</ele><time>2026-04-12T07:16:08.53Z</time></trkpt><trkpt lat="45.23722" lon="11.7034767"><ele>11.999999999999998</ele><time>2026-04-12T07:16:09.539Z</time></trkpt><trkpt lat="45.23719" lon="11.7035567"><ele>12.0</ele><time>2026-04-12T07:16:10.54Z</time></trkpt><trkpt lat="45.2371317" lon="11.7037033"><ele>11.8</ele><time>2026-04-12T07:16:12.553Z</time></trkpt><trkpt lat="45.2370833" lon="11.7038433"><ele>11.6</ele><time>2026-04-12T07:16:14.549Z</time></trkpt><trkpt lat="45.2370417" lon="11.703975"><ele>11.4</ele><time>2026-04-12T07:16:16.553Z</time></trkpt><trkpt lat="45.2370067" lon="11.7041083"><ele>11.200000000000001</ele><time>2026-04-12T07:16:18.549Z</time></trkpt><trkpt lat="45.2369633" lon="11.704195"><ele>11.0</ele><time>2026-04-12T07:16:21.585Z</time></trkpt><trkpt lat="45.2368783" lon="11.70417"><ele>11.0</ele><time>2026-04-12T07:16:23.547Z</time></trkpt><trkpt lat="45.2367767" lon="11.704115"><ele>11.0</ele><time>2026-04-12T07:16:25.526Z</time></trkpt><trkpt lat="45.2366633" lon="11.7040733"><ele>11.0</ele><time>2026-04-12T07:16:27.525Z</time></trkpt><trkpt lat="45.23655" lon="11.7040367"><ele>11.0</ele><time>2026-04-12T07:16:29.531Z</time></trkpt><trkpt lat="45.236445" lon="11.7039967"><ele>10.4</ele><time>2026-04-12T07:16:31.542Z</time></trkpt><trkpt lat="45.236365" lon="11.7039567"><ele>9.8</ele><time>2026-04-12T07:16:33.553Z</time></trkpt><trkpt lat="45.23629" lon="11.7039233"><ele>9.200000000000001</ele><time>2026-04-12T07:16:35.534Z</time></trkpt><trkpt lat="45.2361883" lon="11.7039017"><ele>8.600000000000001</ele><time>2026-04-12T07:16:37.542Z</time></trkpt><trkpt lat="45.2360683" lon="11.7038683"><ele>8.0</ele><time>2026-04-12T07:16:39.529Z</time></trkpt><trkpt lat="45.2360067" lon="11.7038383"><ele>7.999999999999999</ele><time>2026-04-12T07:16:40.531Z</time></trkpt><trkpt lat="45.2359417" lon="11.7038133"><ele>8.0</ele><time>2026-04-12T07:16:41.581Z</time></trkpt><trkpt lat="45.2358767" lon="11.703785"><ele>8.0</ele><time>2026-04-12T07:16:42.548Z</time></trkpt><trkpt lat="45.2358067" lon="11.7037683"><ele>8.0</ele><time>2026-04-12T07:16:43.568Z</time></trkpt><trkpt lat="45.2357333" lon="11.7037433"><ele>7.999999999999999</ele><time>2026-04-12T07:16:44.664Z</time></trkpt><trkpt lat="45.2355933" lon="11.7037467"><ele>8.0</ele><time>2026-04-12T07:16:46.526Z</time></trkpt><trkpt lat="45.2355267" lon="11.70374"><ele>7.7142857142857135</ele><time>2026-04-12T07:16:47.528Z</time></trkpt><trkpt lat="45.2354633" lon="11.7037417"><ele>7.428571428571428</ele><time>2026-04-12T07:16:48.533Z</time></trkpt><trkpt lat="45.2354" lon="11.7037433"><ele>7.142857142857142</ele><time>2026-04-12T07:16:49.53Z</time></trkpt><trkpt lat="45.2353367" lon="11.7037467"><ele>6.857142857142857</ele><time>2026-04-12T07:16:50.542Z</time></trkpt><trkpt lat="45.2352733" lon="11.7037467"><ele>6.571428571428571</ele><time>2026-04-12T07:16:51.544Z</time></trkpt><trkpt lat="45.2351467" lon="11.703755"><ele>6.285714285714285</ele><time>2026-04-12T07:16:53.545Z</time></trkpt><trkpt lat="45.23508" lon="11.7037583"><ele>6.0</ele><time>2026-04-12T07:16:54.539Z</time></trkpt><trkpt lat="45.2350167" lon="11.7037633"><ele>6.0</ele><time>2026-04-12T07:16:55.526Z</time></trkpt><trkpt lat="45.234895" lon="11.7037633"><ele>6.0</ele><time>2026-04-12T07:16:57.538Z</time></trkpt><trkpt lat="45.2347767" lon="11.7037583"><ele>6.0</ele><time>2026-04-12T07:16:59.544Z</time></trkpt><trkpt lat="45.234655" lon="11.703735"><ele>6.0</ele><time>2026-04-12T07:17:01.533Z</time></trkpt><trkpt lat="45.2345317" lon="11.703705"><ele>6.0</ele><time>2026-04-12T07:17:03.539Z</time></trkpt><trkpt lat="45.2344683" lon="11.7036917"><ele>6.0</ele><time>2026-04-12T07:17:04.539Z</time></trkpt><trkpt lat="45.234405" lon="11.7036783"><ele>6.0</ele><time>2026-04-12T07:17:05.542Z</time></trkpt><trkpt lat="45.2342817" lon="11.7036533"><ele>6.0</ele><time>2026-04-12T07:17:07.542Z</time></trkpt><trkpt lat="45.2341617" lon="11.7036233"><ele>6.0</ele><time>2026-04-12T07:17:09.548Z</time></trkpt><trkpt lat="45.2340383" lon="11.703595"><ele>5.75</ele><time>2026-04-12T07:17:11.539Z</time></trkpt><trkpt lat="45.23392" lon="11.703565"><ele>5.5</ele><time>2026-04-12T07:17:13.544Z</time></trkpt><trkpt lat="45.2338067" lon="11.703525"><ele>5.25</ele><time>2026-04-12T07:17:15.555Z</time></trkpt><trkpt lat="45.2337017" lon="11.70347"><ele>5.0</ele><time>2026-04-12T07:17:17.531Z</time></trkpt><trkpt lat="45.2336" lon="11.7033867"><ele>5.0</ele><time>2026-04-12T07:17:19.535Z</time></trkpt><trkpt lat="45.2335467" lon="11.703335"><ele>5.0</ele><time>2026-04-12T07:17:20.54Z</time></trkpt><trkpt lat="45.2334433" lon="11.703235"><ele>5.0</ele><time>2026-04-12T07:17:22.538Z</time></trkpt><trkpt lat="45.2333883" lon="11.7031883"><ele>5.0</ele><time>2026-04-12T07:17:23.532Z</time></trkpt><trkpt lat="45.233275" lon="11.7031133"><ele>5.0</ele><time>2026-04-12T07:17:25.531Z</time></trkpt><trkpt lat="45.2332167" lon="11.7030767"><ele>5.0</ele><time>2026-04-12T07:17:26.537Z</time></trkpt><trkpt lat="45.233105" lon="11.7030117"><ele>5.0</ele><time>2026-04-12T07:17:28.528Z</time></trkpt><trkpt lat="45.2329883" lon="11.702955"><ele>5.0</ele><time>2026-04-12T07:17:30.532Z</time></trkpt><trkpt lat="45.2328783" lon="11.7028983"><ele>5.0</ele><time>2026-04-12T07:17:32.545Z</time></trkpt><trkpt lat="45.2327583" lon="11.7028567"><ele>5.0</ele><time>2026-04-12T07:17:34.537Z</time></trkpt><trkpt lat="45.2326967" lon="11.702835"><ele>5.0</ele><time>2026-04-12T07:17:35.547Z</time></trkpt><trkpt lat="45.2325733" lon="11.7028033"><ele>5.0</ele><time>2026-04-12T07:17:37.533Z</time></trkpt><trkpt lat="45.2324483" lon="11.7027767"><ele>5.0</ele><time>2026-04-12T07:17:39.544Z</time></trkpt><trkpt lat="45.2323833" lon="11.7027667"><ele>5.0</ele><time>2026-04-12T07:17:40.528Z</time></trkpt><trkpt lat="45.2323183" lon="11.70276"><ele>5.0</ele><time>2026-04-12T07:17:41.549Z</time></trkpt><trkpt lat="45.2322517" lon="11.7027517"><ele>5.0</ele><time>2026-04-12T07:17:42.531Z</time></trkpt><trkpt lat="45.2321883" lon="11.7027433"><ele>5.0</ele><time>2026-04-12T07:17:43.527Z</time></trkpt><trkpt lat="45.232065" lon="11.702725"><ele>5.2</ele><time>2026-04-12T07:17:45.533Z</time></trkpt><trkpt lat="45.2320017" lon="11.7027167"><ele>5.4</ele><time>2026-04-12T07:17:46.546Z</time></trkpt><trkpt lat="45.2319383" lon="11.7027067"><ele>5.6</ele><time>2026-04-12T07:17:47.537Z</time></trkpt><trkpt lat="45.2318133" lon="11.702685"><ele>5.8</ele><time>2026-04-12T07:17:49.532Z</time></trkpt><trkpt lat="45.2316917" lon="11.7026633"><ele>6.0</ele><time>2026-04-12T07:17:51.534Z</time></trkpt><trkpt lat="45.2315717" lon="11.7026583"><ele>7.166666666666666</ele><time>2026-04-12T07:17:53.531Z</time></trkpt><trkpt lat="45.2314683" lon="11.702685"><ele>8.333333333333332</ele><time>2026-04-12T07:17:55.545Z</time></trkpt><trkpt lat="45.2313933" lon="11.7027633"><ele>9.5</ele><time>2026-04-12T07:17:57.533Z</time></trkpt><trkpt lat="45.2313617" lon="11.702875"><ele>10.666666666666666</ele><time>2026-04-12T07:18:00.55Z</time></trkpt><trkpt lat="45.231345" lon="11.7029883"><ele>11.833333333333332</ele><time>2026-04-12T07:18:03.532Z</time></trkpt><trkpt lat="45.2313267" lon="11.7031033"><ele>13.0</ele><time>2026-04-12T07:18:06.548Z</time></trkpt><trkpt lat="45.2313067" lon="11.7032267"><ele>12.833333333333332</ele><time>2026-04-12T07:18:09.542Z</time></trkpt><trkpt lat="45.2312967" lon="11.703335"><ele>12.666666666666666</ele><time>2026-04-12T07:18:12.548Z</time></trkpt><trkpt lat="45.2312817" lon="11.70343"><ele>12.5</ele><time>2026-04-12T07:18:15.543Z</time></trkpt><trkpt lat="45.231235" lon="11.7035267"><ele>12.333333333333332</ele><time>2026-04-12T07:18:18.534Z</time></trkpt><trkpt lat="45.2311467" lon="11.70358"><ele>12.166666666666666</ele><time>2026-04-12T07:18:21.54Z</time></trkpt><trkpt lat="45.2310833" lon="11.7035983"><ele>12.0</ele><time>2026-04-12T07:18:23.538Z</time></trkpt><trkpt lat="45.23102" lon="11.7035967"><ele>12.0</ele><time>2026-04-12T07:18:25.545Z</time></trkpt><trkpt lat="45.2309483" lon="11.7035783"><ele>12.0</ele><time>2026-04-12T07:18:27.549Z</time></trkpt><trkpt lat="45.2308633" lon="11.7035583"><ele>12.0</ele><time>2026-04-12T07:18:29.535Z</time></trkpt><trkpt lat="45.2307667" lon="11.7035383"><ele>12.0</ele><time>2026-04-12T07:18:31.542Z</time></trkpt><trkpt lat="45.2306733" lon="11.7035083"><ele>12.0</ele><time>2026-04-12T07:18:33.548Z</time></trkpt><trkpt lat="45.230575" lon="11.703485"><ele>12.0</ele><time>2026-04-12T07:18:35.568Z</time></trkpt><trkpt lat="45.2304517" lon="11.703445"><ele>12.0</ele><time>2026-04-12T07:18:37.561Z</time></trkpt><trkpt lat="45.2303817" lon="11.703425"><ele>12.0</ele><time>2026-04-12T07:18:38.57Z</time></trkpt><trkpt lat="45.2303067" lon="11.7034067"><ele>12.0</ele><time>2026-04-12T07:18:39.548Z</time></trkpt><trkpt lat="45.2302333" lon="11.70339"><ele>12.0</ele><time>2026-04-12T07:18:40.553Z</time></trkpt><trkpt lat="45.230155" lon="11.703375"><ele>12.0</ele><time>2026-04-12T07:18:41.542Z</time></trkpt><trkpt lat="45.230075" lon="11.7033633"><ele>12.0</ele><time>2026-04-12T07:18:42.571Z</time></trkpt><trkpt lat="45.2299983" lon="11.7033633"><ele>12.0</ele><time>2026-04-12T07:18:43.558Z</time></trkpt><trkpt lat="45.22992" lon="11.7033667"><ele>12.0</ele><time>2026-04-12T07:18:44.562Z</time></trkpt><trkpt lat="45.22984" lon="11.703375"><ele>12.0</ele><time>2026-04-12T07:18:45.564Z</time></trkpt><trkpt lat="45.229755" lon="11.703385"><ele>12.0</ele><time>2026-04-12T07:18:46.604Z</time></trkpt><trkpt lat="45.2296667" lon="11.7034"><ele>12.0</ele><time>2026-04-12T07:18:47.595Z</time></trkpt><trkpt lat="45.2295817" lon="11.7034183"><ele>11.166666666666666</ele><time>2026-04-12T07:18:48.569Z</time></trkpt><trkpt lat="45.2294917" lon="11.7034367"><ele>10.333333333333334</ele><time>2026-04-12T07:18:49.524Z</time></trkpt><trkpt lat="45.229405" lon="11.703455"><ele>9.5</ele><time>2026-04-12T07:18:50.534Z</time></trkpt><trkpt lat="45.2293233" lon="11.7034733"><ele>8.666666666666668</ele><time>2026-04-12T07:18:51.527Z</time></trkpt><trkpt lat="45.229245" lon="11.7034933"><ele>7.833333333333334</ele><time>2026-04-12T07:18:52.53Z</time></trkpt><trkpt lat="45.229165" lon="11.703515"><ele>7.0</ele><time>2026-04-12T07:18:53.543Z</time></trkpt><trkpt lat="45.2290883" lon="11.7035417"><ele>7.0</ele><time>2026-04-12T07:18:54.528Z</time></trkpt><trkpt lat="45.229015" lon="11.7035733"><ele>7.0</ele><time>2026-04-12T07:18:55.534Z</time></trkpt><trkpt lat="45.228945" lon="11.7036083"><ele>7.0</ele><time>2026-04-12T07:18:56.542Z</time></trkpt><trkpt lat="45.2288783" lon="11.7036517"><ele>7.0</ele><time>2026-04-12T07:18:57.528Z</time></trkpt><trkpt lat="45.2288117" lon="11.703695"><ele>7.0</ele><time>2026-04-12T07:18:58.53Z</time></trkpt><trkpt lat="45.2287467" lon="11.7037383"><ele>7.0</ele><time>2026-04-12T07:18:59.533Z</time></trkpt><trkpt lat="45.2286817" lon="11.7037783"><ele>7.0</ele><time>2026-04-12T07:19:00.537Z</time></trkpt><trkpt lat="45.2286133" lon="11.7038133"><ele>6.857142857142857</ele><time>2026-04-12T07:19:01.534Z</time></trkpt><trkpt lat="45.2285467" lon="11.7038317"><ele>6.714285714285714</ele><time>2026-04-12T07:19:02.533Z</time></trkpt><trkpt lat="45.2284833" lon="11.703845"><ele>6.571428571428571</ele><time>2026-04-12T07:19:03.524Z</time></trkpt><trkpt lat="45.2284167" lon="11.7038633"><ele>6.428571428571429</ele><time>2026-04-12T07:19:04.53Z</time></trkpt><trkpt lat="45.2283533" lon="11.7038967"><ele>6.285714285714286</ele><time>2026-04-12T07:19:05.532Z</time></trkpt><trkpt lat="45.2283" lon="11.703945"><ele>6.142857142857142</ele><time>2026-04-12T07:19:06.535Z</time></trkpt><trkpt lat="45.2282583" lon="11.7040133"><ele>6.0</ele><time>2026-04-12T07:19:07.524Z</time></trkpt><trkpt lat="45.2282" lon="11.704175"><ele>6.0</ele><time>2026-04-12T07:19:09.53Z</time></trkpt><trkpt lat="45.2281667" lon="11.7042533"><ele>6.0</ele><time>2026-04-12T07:19:10.528Z</time></trkpt><trkpt lat="45.2280967" lon="11.7044067"><ele>6.0</ele><time>2026-04-12T07:19:12.534Z</time></trkpt><trkpt lat="45.2280533" lon="11.7044817"><ele>6.0</ele><time>2026-04-12T07:19:13.546Z</time></trkpt><trkpt lat="45.2280083" lon="11.7045517"><ele>6.0</ele><time>2026-04-12T07:19:14.534Z</time></trkpt><trkpt lat="45.2279583" lon="11.70462"><ele>6.0</ele><time>2026-04-12T07:19:15.533Z</time></trkpt><trkpt lat="45.2279067" lon="11.7046767"><ele>6.142857142857142</ele><time>2026-04-12T07:19:16.528Z</time></trkpt><trkpt lat="45.2278517" lon="11.70473"><ele>6.285714285714286</ele><time>2026-04-12T07:19:17.546Z</time></trkpt><trkpt lat="45.2277933" lon="11.7047817"><ele>6.428571428571429</ele><time>2026-04-12T07:19:18.53Z</time></trkpt><trkpt lat="45.2277367" lon="11.7048283"><ele>6.571428571428571</ele><time>2026-04-12T07:19:19.526Z</time></trkpt><trkpt lat="45.2276783" lon="11.704875"><ele>6.714285714285714</ele><time>2026-04-12T07:19:20.54Z</time></trkpt><trkpt lat="45.2276217" lon="11.7049217"><ele>6.857142857142857</ele><time>2026-04-12T07:19:21.537Z</time></trkpt><trkpt lat="45.227565" lon="11.7049667"><ele>7.0</ele><time>2026-04-12T07:19:22.544Z</time></trkpt><trkpt lat="45.227505" lon="11.7050167"><ele>7.0</ele><time>2026-04-12T07:19:23.524Z</time></trkpt><trkpt lat="45.2274467" lon="11.7050683"><ele>7.0</ele><time>2026-04-12T07:19:24.536Z</time></trkpt><trkpt lat="45.2273917" lon="11.7051183"><ele>7.0</ele><time>2026-04-12T07:19:25.536Z</time></trkpt><trkpt lat="45.227335" lon="11.70517"><ele>7.0</ele><time>2026-04-12T07:19:26.538Z</time></trkpt><trkpt lat="45.2272817" lon="11.7052233"><ele>7.0</ele><time>2026-04-12T07:19:27.546Z</time></trkpt><trkpt lat="45.2272283" lon="11.705275"><ele>7.0</ele><time>2026-04-12T07:19:28.527Z</time></trkpt><trkpt lat="45.2271733" lon="11.7053217"><ele>7.0</ele><time>2026-04-12T07:19:29.547Z</time></trkpt><trkpt lat="45.227065" lon="11.7054133"><ele>7.199999999999999</ele><time>2026-04-12T07:19:31.546Z</time></trkpt><trkpt lat="45.2270083" lon="11.7054567"><ele>7.3999999999999995</ele><time>2026-04-12T07:19:32.54Z</time></trkpt><trkpt lat="45.2269517" lon="11.7054967"><ele>7.6000000000000005</ele><time>2026-04-12T07:19:33.544Z</time></trkpt><trkpt lat="45.22684" lon="11.705545"><ele>7.800000000000001</ele><time>2026-04-12T07:19:35.546Z</time></trkpt><trkpt lat="45.226725" lon="11.7055617"><ele>8.0</ele><time>2026-04-12T07:19:37.533Z</time></trkpt><trkpt lat="45.2266067" lon="11.7055717"><ele>8.0</ele><time>2026-04-12T07:19:39.552Z</time></trkpt><trkpt lat="45.2264933" lon="11.7055633"><ele>8.0</ele><time>2026-04-12T07:19:41.526Z</time></trkpt><trkpt lat="45.2263767" lon="11.7055467"><ele>8.0</ele><time>2026-04-12T07:19:43.532Z</time></trkpt><trkpt lat="45.22626" lon="11.7055217"><ele>8.0</ele><time>2026-04-12T07:19:45.535Z</time></trkpt><trkpt lat="45.22614" lon="11.7054833"><ele>7.75</ele><time>2026-04-12T07:19:47.53Z</time></trkpt><trkpt lat="45.226025" lon="11.7054383"><ele>7.5</ele><time>2026-04-12T07:19:49.529Z</time></trkpt><trkpt lat="45.2259117" lon="11.705385"><ele>7.25</ele><time>2026-04-12T07:19:51.531Z</time></trkpt><trkpt lat="45.22581" lon="11.7053333"><ele>7.0</ele><time>2026-04-12T07:19:53.53Z</time></trkpt><trkpt lat="45.2257117" lon="11.7052817"><ele>8.0</ele><time>2026-04-12T07:19:55.53Z</time></trkpt><trkpt lat="45.225625" lon="11.7052117"><ele>9.0</ele><time>2026-04-12T07:19:57.546Z</time></trkpt><trkpt lat="45.2255317" lon="11.70513"><ele>10.0</ele><time>2026-04-12T07:19:59.536Z</time></trkpt><trkpt lat="45.2254367" lon="11.705025"><ele>11.0</ele><time>2026-04-12T07:20:01.575Z</time></trkpt><trkpt lat="45.2253867" lon="11.7049667"><ele>12.0</ele><time>2026-04-12T07:20:02.531Z</time></trkpt><trkpt lat="45.225335" lon="11.7049067"><ele>11.999999999999998</ele><time>2026-04-12T07:20:03.552Z</time></trkpt><trkpt lat="45.22528" lon="11.70485"><ele>12.0</ele><time>2026-04-12T07:20:04.54Z</time></trkpt><trkpt lat="45.225225" lon="11.7047983"><ele>12.0</ele><time>2026-04-12T07:20:05.529Z</time></trkpt><trkpt lat="45.2251633" lon="11.7047533"><ele>12.0</ele><time>2026-04-12T07:20:06.541Z</time></trkpt><trkpt lat="45.2250967" lon="11.7047133"><ele>12.0</ele><time>2026-04-12T07:20:07.536Z</time></trkpt><trkpt lat="45.2250317" lon="11.704685"><ele>11.999999999999998</ele><time>2026-04-12T07:20:08.546Z</time></trkpt><trkpt lat="45.2249633" lon="11.7046667"><ele>12.0</ele><time>2026-04-12T07:20:09.528Z</time></trkpt><trkpt lat="45.2248967" lon="11.7046483"><ele>11.999999999999998</ele><time>2026-04-12T07:20:10.525Z</time></trkpt><trkpt lat="45.2248267" lon="11.70463"><ele>12.0</ele><time>2026-04-12T07:20:11.523Z</time></trkpt><trkpt lat="45.22476" lon="11.7046117"><ele>12.0</ele><time>2026-04-12T07:20:12.551Z</time></trkpt><trkpt lat="45.2246933" lon="11.7045917"><ele>12.0</ele><time>2026-04-12T07:20:13.532Z</time></trkpt><trkpt lat="45.2246267" lon="11.70456"><ele>12.0</ele><time>2026-04-12T07:20:14.539Z</time></trkpt><trkpt lat="45.2245633" lon="11.70452"><ele>11.999999999999998</ele><time>2026-04-12T07:20:15.538Z</time></trkpt><trkpt lat="45.2245033" lon="11.7044767"><ele>12.0</ele><time>2026-04-12T07:20:16.542Z</time></trkpt><trkpt lat="45.2244467" lon="11.70443"><ele>12.428571428571427</ele><time>2026-04-12T07:20:17.533Z</time></trkpt><trkpt lat="45.224395" lon="11.7043783"><ele>12.857142857142858</ele><time>2026-04-12T07:20:18.525Z</time></trkpt><trkpt lat="45.2243417" lon="11.7043217"><ele>13.285714285714285</ele><time>2026-04-12T07:20:19.539Z</time></trkpt><trkpt lat="45.2242883" lon="11.7042617"><ele>13.714285714285714</ele><time>2026-04-12T07:20:20.535Z</time></trkpt><trkpt lat="45.2242367" lon="11.7042033"><ele>14.142857142857142</ele><time>2026-04-12T07:20:21.544Z</time></trkpt><trkpt lat="45.224185" lon="11.7041467"><ele>14.571428571428571</ele><time>2026-04-12T07:20:22.546Z</time></trkpt><trkpt lat="45.2241333" lon="11.7040917"><ele>15.0</ele><time>2026-04-12T07:20:23.539Z</time></trkpt><trkpt lat="45.2240833" lon="11.7040367"><ele>15.0</ele><time>2026-04-12T07:20:24.546Z</time></trkpt><trkpt lat="45.2240267" lon="11.703985"><ele>15.0</ele><time>2026-04-12T07:20:25.542Z</time></trkpt><trkpt lat="45.2239167" lon="11.7039033"><ele>15.0</ele><time>2026-04-12T07:20:27.528Z</time></trkpt><trkpt lat="45.2238533" lon="11.70387"><ele>15.0</ele><time>2026-04-12T07:20:28.529Z</time></trkpt><trkpt lat="45.2237867" lon="11.7038383"><ele>15.0</ele><time>2026-04-12T07:20:29.528Z</time></trkpt><trkpt lat="45.2237217" lon="11.7038083"><ele>15.0</ele><time>2026-04-12T07:20:30.529Z</time></trkpt><trkpt lat="45.223655" lon="11.7037833"><ele>14.285714285714286</ele><time>2026-04-12T07:20:31.528Z</time></trkpt><trkpt lat="45.2235867" lon="11.703755"><ele>13.571428571428571</ele><time>2026-04-12T07:20:32.532Z</time></trkpt><trkpt lat="45.2235233" lon="11.703725"><ele>12.857142857142858</ele><time>2026-04-12T07:20:33.529Z</time></trkpt><trkpt lat="45.2234567" lon="11.7036867"><ele>12.142857142857142</ele><time>2026-04-12T07:20:34.544Z</time></trkpt><trkpt lat="45.2233917" lon="11.7036467"><ele>11.428571428571429</ele><time>2026-04-12T07:20:35.535Z</time></trkpt><trkpt lat="45.2233283" lon="11.703615"><ele>10.714285714285714</ele><time>2026-04-12T07:20:36.541Z</time></trkpt><trkpt lat="45.223265" lon="11.7035833"><ele>10.0</ele><time>2026-04-12T07:20:37.536Z</time></trkpt><trkpt lat="45.2232017" lon="11.70355"><ele>9.833333333333334</ele><time>2026-04-12T07:20:38.536Z</time></trkpt><trkpt lat="45.2231417" lon="11.7035183"><ele>9.666666666666668</ele><time>2026-04-12T07:20:39.531Z</time></trkpt><trkpt lat="45.2230833" lon="11.70348"><ele>9.5</ele><time>2026-04-12T07:20:40.547Z</time></trkpt><trkpt lat="45.2230217" lon="11.7034383"><ele>9.333333333333334</ele><time>2026-04-12T07:20:41.539Z</time></trkpt><trkpt lat="45.2229083" lon="11.7033683"><ele>9.166666666666666</ele><time>2026-04-12T07:20:43.526Z</time></trkpt><trkpt lat="45.2228467" lon="11.703335"><ele>9.0</ele><time>2026-04-12T07:20:44.547Z</time></trkpt><trkpt lat="45.222785" lon="11.7033017"><ele>9.0</ele><time>2026-04-12T07:20:45.548Z</time></trkpt><trkpt lat="45.222725" lon="11.7032717"><ele>9.0</ele><time>2026-04-12T07:20:46.536Z</time></trkpt><trkpt lat="45.2226633" lon="11.70324"><ele>9.0</ele><time>2026-04-12T07:20:47.537Z</time></trkpt><trkpt lat="45.2226017" lon="11.70321"><ele>9.0</ele><time>2026-04-12T07:20:48.537Z</time></trkpt><trkpt lat="45.22254" lon="11.70318"><ele>9.0</ele><time>2026-04-12T07:20:49.542Z</time></trkpt><trkpt lat="45.222425" lon="11.703115"><ele>9.0</ele><time>2026-04-12T07:20:51.537Z</time></trkpt><trkpt lat="45.2223217" lon="11.7030683"><ele>8.5</ele><time>2026-04-12T07:20:53.541Z</time></trkpt><trkpt lat="45.222215" lon="11.7031"><ele>8.0</ele><time>2026-04-12T07:20:55.53Z</time></trkpt><trkpt lat="45.2221217" lon="11.7032117"><ele>7.5</ele><time>2026-04-12T07:20:57.554Z</time></trkpt><trkpt lat="45.22208" lon="11.7032833"><ele>7.0</ele><time>2026-04-12T07:20:58.54Z</time></trkpt><trkpt lat="45.22204" lon="11.703355"><ele>6.5</ele><time>2026-04-12T07:20:59.536Z</time></trkpt><trkpt lat="45.2220033" lon="11.7034283"><ele>6.0</ele><time>2026-04-12T07:21:00.547Z</time></trkpt><trkpt lat="45.2219667" lon="11.7035017"><ele>6.166666666666667</ele><time>2026-04-12T07:21:01.546Z</time></trkpt><trkpt lat="45.22189" lon="11.703635"><ele>6.333333333333334</ele><time>2026-04-12T07:21:03.526Z</time></trkpt><trkpt lat="45.22185" lon="11.703705"><ele>6.5</ele><time>2026-04-12T07:21:04.539Z</time></trkpt><trkpt lat="45.2218067" lon="11.7037733"><ele>6.666666666666667</ele><time>2026-04-12T07:21:05.536Z</time></trkpt><trkpt lat="45.2217633" lon="11.7038433"><ele>6.833333333333334</ele><time>2026-04-12T07:21:06.541Z</time></trkpt><trkpt lat="45.2217217" lon="11.70392"><ele>7.0</ele><time>2026-04-12T07:21:07.532Z</time></trkpt><trkpt lat="45.22168" lon="11.7039967"><ele>7.0</ele><time>2026-04-12T07:21:08.541Z</time></trkpt><trkpt lat="45.2216317" lon="11.7040733"><ele>7.0</ele><time>2026-04-12T07:21:09.547Z</time></trkpt><trkpt lat="45.2215817" lon="11.7041533"><ele>7.0</ele><time>2026-04-12T07:21:10.532Z</time></trkpt><trkpt lat="45.2215333" lon="11.70423"><ele>7.0</ele><time>2026-04-12T07:21:11.527Z</time></trkpt><trkpt lat="45.2214817" lon="11.7043083"><ele>7.0</ele><time>2026-04-12T07:21:12.545Z</time></trkpt><trkpt lat="45.2214333" lon="11.7043867"><ele>7.0</ele><time>2026-04-12T07:21:13.531Z</time></trkpt><trkpt lat="45.221385" lon="11.70446"><ele>7.0</ele><time>2026-04-12T07:21:14.537Z</time></trkpt><trkpt lat="45.221335" lon="11.7045317"><ele>7.166666666666667</ele><time>2026-04-12T07:21:15.533Z</time></trkpt><trkpt lat="45.22129" lon="11.7046033"><ele>7.333333333333334</ele><time>2026-04-12T07:21:16.534Z</time></trkpt><trkpt lat="45.221245" lon="11.704675"><ele>7.5</ele><time>2026-04-12T07:21:17.546Z</time></trkpt><trkpt lat="45.221195" lon="11.7047517"><ele>7.666666666666666</ele><time>2026-04-12T07:21:18.532Z</time></trkpt><trkpt lat="45.22115" lon="11.7048233"><ele>7.833333333333333</ele><time>2026-04-12T07:21:19.549Z</time></trkpt><trkpt lat="45.2211083" lon="11.704895"><ele>8.0</ele><time>2026-04-12T07:21:20.55Z</time></trkpt><trkpt lat="45.22103" lon="11.7050317"><ele>8.0</ele><time>2026-04-12T07:21:22.547Z</time></trkpt><trkpt lat="45.220955" lon="11.7051717"><ele>8.0</ele><time>2026-04-12T07:21:24.542Z</time></trkpt><trkpt lat="45.2208833" lon="11.705305"><ele>8.0</ele><time>2026-04-12T07:21:26.544Z</time></trkpt><trkpt lat="45.2208117" lon="11.7054233"><ele>8.0</ele><time>2026-04-12T07:21:28.547Z</time></trkpt><trkpt lat="45.2207567" lon="11.7055367"><ele>8.0</ele><time>2026-04-12T07:21:30.548Z</time></trkpt><trkpt lat="45.2207167" lon="11.70563"><ele>7.999999999999999</ele><time>2026-04-12T07:21:32.532Z</time></trkpt><trkpt lat="45.2206683" lon="11.70573"><ele>8.0</ele><time>2026-04-12T07:21:34.542Z</time></trkpt><trkpt lat="45.2206167" lon="11.7058217"><ele>8.0</ele><time>2026-04-12T07:21:36.53Z</time></trkpt><trkpt lat="45.2205683" lon="11.7059133"><ele>8.0</ele><time>2026-04-12T07:21:38.53Z</time></trkpt><trkpt lat="45.2205233" lon="11.7060083"><ele>7.999999999999999</ele><time>2026-04-12T07:21:40.524Z</time></trkpt><trkpt lat="45.22047" lon="11.7061017"><ele>8.0</ele><time>2026-04-12T07:21:42.532Z</time></trkpt><trkpt lat="45.2204117" lon="11.7061883"><ele>7.999999999999999</ele><time>2026-04-12T07:21:44.533Z</time></trkpt><trkpt lat="45.2203617" lon="11.706275"><ele>8.0</ele><time>2026-04-12T07:21:46.551Z</time></trkpt><trkpt lat="45.2203217" lon="11.7063783"><ele>8.0</ele><time>2026-04-12T07:21:49.528Z</time></trkpt><trkpt lat="45.2203" lon="11.7064633"><ele>8.0</ele><time>2026-04-12T07:21:53.527Z</time></trkpt><trkpt lat="45.2202733" lon="11.706575"><ele>7.999999999999999</ele><time>2026-04-12T07:21:57.53Z</time></trkpt><trkpt lat="45.2203033" lon="11.706675"><ele>8.0</ele><time>2026-04-12T07:21:59.534Z</time></trkpt><trkpt lat="45.220345" lon="11.7067933"><ele>8.0</ele><time>2026-04-12T07:22:01.527Z</time></trkpt><trkpt lat="45.2203933" lon="11.70692"><ele>8.0</ele><time>2026-04-12T07:22:03.527Z</time></trkpt><trkpt lat="45.2204467" lon="11.707045"><ele>8.0</ele><time>2026-04-12T07:22:05.561Z</time></trkpt><trkpt lat="45.2204983" lon="11.7071733"><ele>8.0</ele><time>2026-04-12T07:22:07.565Z</time></trkpt><trkpt lat="45.2205383" lon="11.7072933"><ele>8.0</ele><time>2026-04-12T07:22:09.565Z</time></trkpt><trkpt lat="45.2205117" lon="11.7074067"><ele>8.0</ele><time>2026-04-12T07:22:11.559Z</time></trkpt><trkpt lat="45.2204367" lon="11.707515"><ele>8.0</ele><time>2026-04-12T07:22:13.59Z</time></trkpt><trkpt lat="45.220335" lon="11.7075883"><ele>8.0</ele><time>2026-04-12T07:22:15.54Z</time></trkpt><trkpt lat="45.220225" lon="11.707635"><ele>8.0</ele><time>2026-04-12T07:22:17.524Z</time></trkpt><trkpt lat="45.220135" lon="11.70771"><ele>8.0</ele><time>2026-04-12T07:22:19.534Z</time></trkpt><trkpt lat="45.2200483" lon="11.7078017"><ele>7.800000000000001</ele><time>2026-04-12T07:22:21.533Z</time></trkpt><trkpt lat="45.2199733" lon="11.7079017"><ele>7.6000000000000005</ele><time>2026-04-12T07:22:23.533Z</time></trkpt><trkpt lat="45.2198917" lon="11.708"><ele>7.3999999999999995</ele><time>2026-04-12T07:22:25.551Z</time></trkpt><trkpt lat="45.2198017" lon="11.708095"><ele>7.199999999999999</ele><time>2026-04-12T07:22:27.531Z</time></trkpt><trkpt lat="45.2197" lon="11.7081867"><ele>7.0</ele><time>2026-04-12T07:22:29.529Z</time></trkpt><trkpt lat="45.2195933" lon="11.70827"><ele>7.000000000000001</ele><time>2026-04-12T07:22:31.54Z</time></trkpt><trkpt lat="45.2195" lon="11.70834"><ele>7.0</ele><time>2026-04-12T07:22:33.528Z</time></trkpt><trkpt lat="45.2194233" lon="11.7084033"><ele>7.0</ele><time>2026-04-12T07:22:35.535Z</time></trkpt><trkpt lat="45.2193583" lon="11.7084483"><ele>7.0</ele><time>2026-04-12T07:22:37.53Z</time></trkpt><trkpt lat="45.2192883" lon="11.7084917"><ele>7.000000000000001</ele><time>2026-04-12T07:22:40.552Z</time></trkpt><trkpt lat="45.2192533" lon="11.7083933"><ele>7.0</ele><time>2026-04-12T07:22:43.537Z</time></trkpt><trkpt lat="45.219235" lon="11.7083017"><ele>7.000000000000001</ele><time>2026-04-12T07:22:45.533Z</time></trkpt><trkpt lat="45.21921" lon="11.708205"><ele>7.0</ele><time>2026-04-12T07:22:47.528Z</time></trkpt><trkpt lat="45.2191817" lon="11.708095"><ele>7.0</ele><time>2026-04-12T07:22:49.533Z</time></trkpt><trkpt lat="45.21915" lon="11.7079783"><ele>7.0</ele><time>2026-04-12T07:22:51.521Z</time></trkpt><trkpt lat="45.2191217" lon="11.7078567"><ele>7.000000000000001</ele><time>2026-04-12T07:22:53.536Z</time></trkpt><trkpt lat="45.219085" lon="11.7077217"><ele>7.0</ele><time>2026-04-12T07:22:55.524Z</time></trkpt><trkpt lat="45.2190467" lon="11.707575"><ele>6.8</ele><time>2026-04-12T07:22:57.551Z</time></trkpt><trkpt lat="45.2189983" lon="11.7074383"><ele>6.6</ele><time>2026-04-12T07:22:59.527Z</time></trkpt><trkpt lat="45.2189283" lon="11.70732"><ele>6.3999999999999995</ele><time>2026-04-12T07:23:01.548Z</time></trkpt><trkpt lat="45.2188467" lon="11.70721"><ele>6.199999999999999</ele><time>2026-04-12T07:23:03.528Z</time></trkpt><trkpt lat="45.21875" lon="11.7071083"><ele>6.0</ele><time>2026-04-12T07:23:05.546Z</time></trkpt><trkpt lat="45.218695" lon="11.70706"><ele>6.0</ele><time>2026-04-12T07:23:06.554Z</time></trkpt><trkpt lat="45.2185883" lon="11.7069733"><ele>6.0</ele><time>2026-04-12T07:23:08.531Z</time></trkpt><trkpt lat="45.2184767" lon="11.7068933"><ele>6.0</ele><time>2026-04-12T07:23:10.533Z</time></trkpt><trkpt lat="45.21837" lon="11.706805"><ele>6.0</ele><time>2026-04-12T07:23:12.551Z</time></trkpt><trkpt lat="45.2182783" lon="11.7067"><ele>6.199999999999999</ele><time>2026-04-12T07:23:14.547Z</time></trkpt><trkpt lat="45.2181933" lon="11.7065917"><ele>6.3999999999999995</ele><time>2026-04-12T07:23:16.544Z</time></trkpt><trkpt lat="45.2180867" lon="11.70651"><ele>6.6</ele><time>2026-04-12T07:23:18.549Z</time></trkpt><trkpt lat="45.2179717" lon="11.7065067"><ele>6.8</ele><time>2026-04-12T07:23:20.536Z</time></trkpt><trkpt lat="45.21791" lon="11.70653"><ele>7.0</ele><time>2026-04-12T07:23:21.53Z</time></trkpt><trkpt lat="45.2178467" lon="11.7065633"><ele>7.0</ele><time>2026-04-12T07:23:22.525Z</time></trkpt><trkpt lat="45.217785" lon="11.7066"><ele>7.0</ele><time>2026-04-12T07:23:23.536Z</time></trkpt><trkpt lat="45.217725" lon="11.7066367"><ele>7.0</ele><time>2026-04-12T07:23:24.533Z</time></trkpt><trkpt lat="45.2176667" lon="11.7066733"><ele>7.0</ele><time>2026-04-12T07:23:25.53Z</time></trkpt><trkpt lat="45.2176083" lon="11.7067083"><ele>7.0</ele><time>2026-04-12T07:23:26.54Z</time></trkpt><trkpt lat="45.21755" lon="11.7067467"><ele>7.0</ele><time>2026-04-12T07:23:27.532Z</time></trkpt><trkpt lat="45.2174917" lon="11.7067817"><ele>7.0</ele><time>2026-04-12T07:23:28.536Z</time></trkpt><trkpt lat="45.2173783" lon="11.7068533"><ele>6.6</ele><time>2026-04-12T07:23:30.552Z</time></trkpt><trkpt lat="45.2172733" lon="11.7069283"><ele>6.199999999999999</ele><time>2026-04-12T07:23:32.53Z</time></trkpt><trkpt lat="45.2171633" lon="11.70701"><ele>5.8</ele><time>2026-04-12T07:23:34.529Z</time></trkpt><trkpt lat="45.2170567" lon="11.7071017"><ele>5.4</ele><time>2026-04-12T07:23:36.535Z</time></trkpt><trkpt lat="45.2170033" lon="11.70715"><ele>5.0</ele><time>2026-04-12T07:23:37.54Z</time></trkpt><trkpt lat="45.2169483" lon="11.7071967"><ele>5.0</ele><time>2026-04-12T07:23:38.537Z</time></trkpt><trkpt lat="45.2168367" lon="11.7072733"><ele>5.0</ele><time>2026-04-12T07:23:40.531Z</time></trkpt><trkpt lat="45.216725" lon="11.7072883"><ele>5.0</ele><time>2026-04-12T07:23:42.547Z</time></trkpt><trkpt lat="45.216615" lon="11.7072367"><ele>5.0</ele><time>2026-04-12T07:23:44.533Z</time></trkpt><trkpt lat="45.2164983" lon="11.7071633"><ele>5.166666666666667</ele><time>2026-04-12T07:23:46.548Z</time></trkpt><trkpt lat="45.216435" lon="11.707135"><ele>5.333333333333334</ele><time>2026-04-12T07:23:47.55Z</time></trkpt><trkpt lat="45.2163733" lon="11.707115"><ele>5.5</ele><time>2026-04-12T07:23:48.552Z</time></trkpt><trkpt lat="45.2162533" lon="11.7070667"><ele>5.666666666666667</ele><time>2026-04-12T07:23:50.525Z</time></trkpt><trkpt lat="45.2161417" lon="11.70699"><ele>5.833333333333333</ele><time>2026-04-12T07:23:52.548Z</time></trkpt><trkpt lat="45.2160883" lon="11.7069417"><ele>6.0</ele><time>2026-04-12T07:23:53.528Z</time></trkpt><trkpt lat="45.215985" lon="11.7068417"><ele>6.0</ele><time>2026-04-12T07:23:55.54Z</time></trkpt><trkpt lat="45.21588" lon="11.7067433"><ele>6.0</ele><time>2026-04-12T07:23:57.53Z</time></trkpt><trkpt lat="45.2158267" lon="11.7066933"><ele>6.0</ele><time>2026-04-12T07:23:58.529Z</time></trkpt><trkpt lat="45.2157717" lon="11.7066417"><ele>6.0</ele><time>2026-04-12T07:23:59.549Z</time></trkpt><trkpt lat="45.21572" lon="11.70659"><ele>6.0</ele><time>2026-04-12T07:24:00.542Z</time></trkpt><trkpt lat="45.2156167" lon="11.706495"><ele>6.0</ele><time>2026-04-12T07:24:02.538Z</time></trkpt><trkpt lat="45.21556" lon="11.7064467"><ele>6.142857142857142</ele><time>2026-04-12T07:24:03.534Z</time></trkpt><trkpt lat="45.2155017" lon="11.7064"><ele>6.285714285714286</ele><time>2026-04-12T07:24:04.527Z</time></trkpt><trkpt lat="45.215445" lon="11.70635"><ele>6.428571428571429</ele><time>2026-04-12T07:24:05.533Z</time></trkpt><trkpt lat="45.2153883" lon="11.7063"><ele>6.571428571428571</ele><time>2026-04-12T07:24:06.538Z</time></trkpt><trkpt lat="45.2153333" lon="11.70625"><ele>6.714285714285714</ele><time>2026-04-12T07:24:07.539Z</time></trkpt><trkpt lat="45.2152767" lon="11.7062017"><ele>6.857142857142857</ele><time>2026-04-12T07:24:08.552Z</time></trkpt><trkpt lat="45.2152217" lon="11.706155"><ele>7.0</ele><time>2026-04-12T07:24:09.559Z</time></trkpt><trkpt lat="45.2151633" lon="11.7061067"><ele>7.000000000000001</ele><time>2026-04-12T07:24:10.546Z</time></trkpt><trkpt lat="45.21511" lon="11.7060567"><ele>7.0</ele><time>2026-04-12T07:24:11.552Z</time></trkpt><trkpt lat="45.2150567" lon="11.7060067"><ele>7.0</ele><time>2026-04-12T07:24:12.533Z</time></trkpt><trkpt lat="45.2150017" lon="11.7059583"><ele>7.0</ele><time>2026-04-12T07:24:13.549Z</time></trkpt><trkpt lat="45.2149483" lon="11.7059083"><ele>7.000000000000001</ele><time>2026-04-12T07:24:14.623Z</time></trkpt><trkpt lat="45.2148433" lon="11.7058283"><ele>7.0</ele><time>2026-04-12T07:24:16.573Z</time></trkpt><trkpt lat="45.2147567" lon="11.70574"><ele>7.0</ele><time>2026-04-12T07:24:18.587Z</time></trkpt><trkpt lat="45.21475" lon="11.7055667"><ele>7.0</ele><time>2026-04-12T07:24:21.61Z</time></trkpt><trkpt lat="45.214845" lon="11.7054583"><ele>7.0</ele><time>2026-04-12T07:24:23.667Z</time></trkpt><trkpt lat="45.2149167" lon="11.7053467"><ele>7.0</ele><time>2026-04-12T07:24:25.636Z</time></trkpt><trkpt lat="45.2149867" lon="11.705235"><ele>7.25</ele><time>2026-04-12T07:24:27.608Z</time></trkpt><trkpt lat="45.215065" lon="11.7051333"><ele>7.5</ele><time>2026-04-12T07:24:29.664Z</time></trkpt><trkpt lat="45.2151467" lon="11.7050467"><ele>7.75</ele><time>2026-04-12T07:24:31.651Z</time></trkpt><trkpt lat="45.2152867" lon="11.70488"><ele>8.0</ele><time>2026-04-12T07:24:34.587Z</time></trkpt><trkpt lat="45.21539" lon="11.7045617"><ele>7.833333333333333</ele><time>2026-04-12T07:24:38.554Z</time></trkpt><trkpt lat="45.2154117" lon="11.7043917"><ele>7.666666666666666</ele><time>2026-04-12T07:24:40.549Z</time></trkpt><trkpt lat="45.2154367" lon="11.7042267"><ele>7.5</ele><time>2026-04-12T07:24:42.609Z</time></trkpt><trkpt lat="45.2154583" lon="11.7041417"><ele>7.333333333333334</ele><time>2026-04-12T07:24:43.535Z</time></trkpt><trkpt lat="45.2154917" lon="11.7040533"><ele>7.166666666666667</ele><time>2026-04-12T07:24:44.585Z</time></trkpt><trkpt lat="45.21553" lon="11.7039717"><ele>7.0</ele><time>2026-04-12T07:24:45.67Z</time></trkpt><trkpt lat="45.21562" lon="11.7038333"><ele>7.000000000000001</ele><time>2026-04-12T07:24:47.624Z</time></trkpt><trkpt lat="45.2157133" lon="11.7037117"><ele>7.0</ele><time>2026-04-12T07:24:49.599Z</time></trkpt><trkpt lat="45.2158033" lon="11.7035867"><ele>7.0</ele><time>2026-04-12T07:24:51.561Z</time></trkpt><trkpt lat="45.21585" lon="11.7035217"><ele>7.0</ele><time>2026-04-12T07:24:52.583Z</time></trkpt><trkpt lat="45.215895" lon="11.7034567"><ele>7.000000000000001</ele><time>2026-04-12T07:24:53.572Z</time></trkpt><trkpt lat="45.2159383" lon="11.7033917"><ele>7.0</ele><time>2026-04-12T07:24:54.623Z</time></trkpt><trkpt lat="45.2159783" lon="11.703315"><ele>7.142857142857142</ele><time>2026-04-12T07:24:55.556Z</time></trkpt><trkpt lat="45.21601" lon="11.7032367"><ele>7.285714285714286</ele><time>2026-04-12T07:24:56.558Z</time></trkpt><trkpt lat="45.216035" lon="11.7031533"><ele>7.428571428571429</ele><time>2026-04-12T07:24:57.625Z</time></trkpt><trkpt lat="45.2160633" lon="11.7030667"><ele>7.571428571428571</ele><time>2026-04-12T07:24:58.583Z</time></trkpt><trkpt lat="45.21609" lon="11.7029833"><ele>7.7142857142857135</ele><time>2026-04-12T07:24:59.599Z</time></trkpt><trkpt lat="45.216115" lon="11.7029"><ele>7.857142857142857</ele><time>2026-04-12T07:25:00.562Z</time></trkpt><trkpt lat="45.21616" lon="11.7027367"><ele>8.0</ele><time>2026-04-12T07:25:02.568Z</time></trkpt><trkpt lat="45.2162033" lon="11.7025667"><ele>8.0</ele><time>2026-04-12T07:25:04.536Z</time></trkpt><trkpt lat="45.2162283" lon="11.7024833"><ele>8.0</ele><time>2026-04-12T07:25:05.584Z</time></trkpt><trkpt lat="45.216255" lon="11.7024"><ele>8.0</ele><time>2026-04-12T07:25:06.573Z</time></trkpt><trkpt lat="45.2162833" lon="11.702315"><ele>8.0</ele><time>2026-04-12T07:25:07.768Z</time></trkpt><trkpt lat="45.2163317" lon="11.70214"><ele>8.0</ele><time>2026-04-12T07:25:09.582Z</time></trkpt><trkpt lat="45.2163767" lon="11.7019633"><ele>8.0</ele><time>2026-04-12T07:25:11.643Z</time></trkpt><trkpt lat="45.2164467" lon="11.7017117"><ele>8.0</ele><time>2026-04-12T07:25:14.606Z</time></trkpt><trkpt lat="45.2165083" lon="11.70145"><ele>8.0</ele><time>2026-04-12T07:25:17.594Z</time></trkpt><trkpt lat="45.2165283" lon="11.7013617"><ele>8.0</ele><time>2026-04-12T07:25:18.631Z</time></trkpt><trkpt lat="45.2165483" lon="11.701275"><ele>8.0</ele><time>2026-04-12T07:25:19.551Z</time></trkpt><trkpt lat="45.21657" lon="11.7011883"><ele>8.0</ele><time>2026-04-12T07:25:20.53Z</time></trkpt><trkpt lat="45.2166117" lon="11.701025"><ele>8.0</ele><time>2026-04-12T07:25:22.55Z</time></trkpt><trkpt lat="45.216655" lon="11.7008617"><ele>8.0</ele><time>2026-04-12T07:25:24.713Z</time></trkpt><trkpt lat="45.216695" lon="11.7006983"><ele>7.833333333333333</ele><time>2026-04-12T07:25:26.567Z</time></trkpt><trkpt lat="45.2167267" lon="11.70053"><ele>7.666666666666666</ele><time>2026-04-12T07:25:28.561Z</time></trkpt><trkpt lat="45.216745" lon="11.7003533"><ele>7.5</ele><time>2026-04-12T07:25:30.555Z</time></trkpt><trkpt lat="45.2167517" lon="11.7002633"><ele>7.333333333333334</ele><time>2026-04-12T07:25:31.539Z</time></trkpt><trkpt lat="45.216755" lon="11.7001733"><ele>7.166666666666667</ele><time>2026-04-12T07:25:32.537Z</time></trkpt><trkpt lat="45.2167567" lon="11.7000833"><ele>7.0</ele><time>2026-04-12T07:25:33.545Z</time></trkpt><trkpt lat="45.2167533" lon="11.6999933"><ele>7.000000000000001</ele><time>2026-04-12T07:25:34.548Z</time></trkpt><trkpt lat="45.2167467" lon="11.6999017"><ele>7.0</ele><time>2026-04-12T07:25:35.525Z</time></trkpt><trkpt lat="45.21672" lon="11.69973"><ele>7.0</ele><time>2026-04-12T07:25:37.549Z</time></trkpt><trkpt lat="45.2166883" lon="11.6995567"><ele>7.0</ele><time>2026-04-12T07:25:39.535Z</time></trkpt><trkpt lat="45.21667" lon="11.6994683"><ele>7.000000000000001</ele><time>2026-04-12T07:25:40.529Z</time></trkpt><trkpt lat="45.2166517" lon="11.6993783"><ele>7.0</ele><time>2026-04-12T07:25:41.537Z</time></trkpt><trkpt lat="45.2166367" lon="11.6992883"><ele>7.166666666666667</ele><time>2026-04-12T07:25:42.541Z</time></trkpt><trkpt lat="45.2166183" lon="11.699195"><ele>7.333333333333334</ele><time>2026-04-12T07:25:43.541Z</time></trkpt><trkpt lat="45.2166033" lon="11.6991"><ele>7.5</ele><time>2026-04-12T07:25:44.53Z</time></trkpt><trkpt lat="45.2165883" lon="11.6990117"><ele>7.666666666666666</ele><time>2026-04-12T07:25:45.533Z</time></trkpt><trkpt lat="45.216575" lon="11.6989233"><ele>7.833333333333333</ele><time>2026-04-12T07:25:46.541Z</time></trkpt><trkpt lat="45.21656" lon="11.698835"><ele>8.0</ele><time>2026-04-12T07:25:47.537Z</time></trkpt><trkpt lat="45.216535" lon="11.6986617"><ele>8.0</ele><time>2026-04-12T07:25:49.528Z</time></trkpt><trkpt lat="45.2165133" lon="11.6984917"><ele>8.0</ele><time>2026-04-12T07:25:51.533Z</time></trkpt><trkpt lat="45.2164867" lon="11.6983283"><ele>8.0</ele><time>2026-04-12T07:25:53.535Z</time></trkpt><trkpt lat="45.2164683" lon="11.698165"><ele>8.0</ele><time>2026-04-12T07:25:55.533Z</time></trkpt><trkpt lat="45.2164567" lon="11.6979983"><ele>8.25</ele><time>2026-04-12T07:25:57.525Z</time></trkpt><trkpt lat="45.2164483" lon="11.69783"><ele>8.5</ele><time>2026-04-12T07:25:59.539Z</time></trkpt><trkpt lat="45.2164317" lon="11.6976617"><ele>8.75</ele><time>2026-04-12T07:26:01.549Z</time></trkpt><trkpt lat="45.2164183" lon="11.6974983"><ele>9.0</ele><time>2026-04-12T07:26:03.536Z</time></trkpt><trkpt lat="45.216405" lon="11.6973283"><ele>8.5</ele><time>2026-04-12T07:26:05.534Z</time></trkpt><trkpt lat="45.2163983" lon="11.6971567"><ele>8.0</ele><time>2026-04-12T07:26:07.545Z</time></trkpt><trkpt lat="45.2163917" lon="11.6969817"><ele>7.5</ele><time>2026-04-12T07:26:09.531Z</time></trkpt><trkpt lat="45.2163817" lon="11.6968083"><ele>7.0</ele><time>2026-04-12T07:26:11.535Z</time></trkpt><trkpt lat="45.216375" lon="11.6966417"><ele>7.0</ele><time>2026-04-12T07:26:13.525Z</time></trkpt><trkpt lat="45.21636" lon="11.69648"><ele>7.0</ele><time>2026-04-12T07:26:15.543Z</time></trkpt><trkpt lat="45.216335" lon="11.696315"><ele>7.0</ele><time>2026-04-12T07:26:17.549Z</time></trkpt><trkpt lat="45.2163117" lon="11.6961383"><ele>7.0</ele><time>2026-04-12T07:26:19.549Z</time></trkpt><trkpt lat="45.216295" lon="11.6959683"><ele>7.333333333333334</ele><time>2026-04-12T07:26:21.547Z</time></trkpt><trkpt lat="45.2162533" lon="11.6958183"><ele>7.666666666666667</ele><time>2026-04-12T07:26:23.535Z</time></trkpt><trkpt lat="45.21616" lon="11.695705"><ele>8.0</ele><time>2026-04-12T07:26:25.534Z</time></trkpt><trkpt lat="45.2160983" lon="11.6956633"><ele>8.333333333333334</ele><time>2026-04-12T07:26:26.54Z</time></trkpt><trkpt lat="45.216035" lon="11.6956267"><ele>8.666666666666666</ele><time>2026-04-12T07:26:27.551Z</time></trkpt><trkpt lat="45.2159717" lon="11.6955917"><ele>9.0</ele><time>2026-04-12T07:26:28.552Z</time></trkpt><trkpt lat="45.21591" lon="11.6955633"><ele>9.000000000000002</ele><time>2026-04-12T07:26:29.533Z</time></trkpt><trkpt lat="45.21585" lon="11.6955333"><ele>9.0</ele><time>2026-04-12T07:26:30.548Z</time></trkpt><trkpt lat="45.2157883" lon="11.6954983"><ele>9.0</ele><time>2026-04-12T07:26:31.535Z</time></trkpt><trkpt lat="45.21572" lon="11.6954633"><ele>9.0</ele><time>2026-04-12T07:26:32.536Z</time></trkpt><trkpt lat="45.2156567" lon="11.6954317"><ele>9.0</ele><time>2026-04-12T07:26:33.53Z</time></trkpt><trkpt lat="45.215595" lon="11.6953917"><ele>9.000000000000002</ele><time>2026-04-12T07:26:34.546Z</time></trkpt><trkpt lat="45.2155317" lon="11.6953583"><ele>9.0</ele><time>2026-04-12T07:26:35.547Z</time></trkpt><trkpt lat="45.2154683" lon="11.6953233"><ele>9.000000000000002</ele><time>2026-04-12T07:26:36.53Z</time></trkpt><trkpt lat="45.2154033" lon="11.6952933"><ele>9.0</ele><time>2026-04-12T07:26:37.53Z</time></trkpt><trkpt lat="45.2153383" lon="11.6952617"><ele>9.0</ele><time>2026-04-12T07:26:38.541Z</time></trkpt><trkpt lat="45.2152717" lon="11.6952317"><ele>9.0</ele><time>2026-04-12T07:26:39.551Z</time></trkpt><trkpt lat="45.2152083" lon="11.6952"><ele>9.0</ele><time>2026-04-12T07:26:40.533Z</time></trkpt><trkpt lat="45.2151433" lon="11.6951717"><ele>9.000000000000002</ele><time>2026-04-12T07:26:41.535Z</time></trkpt><trkpt lat="45.2150817" lon="11.6951433"><ele>9.0</ele><time>2026-04-12T07:26:42.525Z</time></trkpt><trkpt lat="45.21502" lon="11.6951117"><ele>9.166666666666666</ele><time>2026-04-12T07:26:43.532Z</time></trkpt><trkpt lat="45.2149617" lon="11.695075"><ele>9.333333333333334</ele><time>2026-04-12T07:26:44.536Z</time></trkpt><trkpt lat="45.2148433" lon="11.6950083"><ele>9.5</ele><time>2026-04-12T07:26:46.549Z</time></trkpt><trkpt lat="45.2147817" lon="11.6949683"><ele>9.666666666666668</ele><time>2026-04-12T07:26:47.547Z</time></trkpt><trkpt lat="45.2147233" lon="11.69493"><ele>9.833333333333334</ele><time>2026-04-12T07:26:48.528Z</time></trkpt><trkpt lat="45.2146617" lon="11.6948933"><ele>10.0</ele><time>2026-04-12T07:26:49.526Z</time></trkpt><trkpt lat="45.2145967" lon="11.6948483"><ele>9.571428571428571</ele><time>2026-04-12T07:26:50.538Z</time></trkpt><trkpt lat="45.214535" lon="11.6948017"><ele>9.142857142857142</ele><time>2026-04-12T07:26:51.532Z</time></trkpt><trkpt lat="45.2144717" lon="11.6947517"><ele>8.714285714285715</ele><time>2026-04-12T07:26:52.535Z</time></trkpt><trkpt lat="45.21441" lon="11.6947017"><ele>8.285714285714285</ele><time>2026-04-12T07:26:53.54Z</time></trkpt><trkpt lat="45.2143517" lon="11.694655"><ele>7.857142857142858</ele><time>2026-04-12T07:26:54.532Z</time></trkpt><trkpt lat="45.2142933" lon="11.694605"><ele>7.428571428571429</ele><time>2026-04-12T07:26:55.542Z</time></trkpt><trkpt lat="45.2142383" lon="11.6945533"><ele>7.0</ele><time>2026-04-12T07:26:56.551Z</time></trkpt><trkpt lat="45.2141817" lon="11.6945017"><ele>7.0</ele><time>2026-04-12T07:26:57.552Z</time></trkpt><trkpt lat="45.2141267" lon="11.6944567"><ele>7.0</ele><time>2026-04-12T07:26:58.539Z</time></trkpt><trkpt lat="45.2140717" lon="11.6944067"><ele>7.0</ele><time>2026-04-12T07:26:59.531Z</time></trkpt><trkpt lat="45.2140133" lon="11.694355"><ele>7.0</ele><time>2026-04-12T07:27:00.541Z</time></trkpt><trkpt lat="45.2139583" lon="11.6943033"><ele>7.0</ele><time>2026-04-12T07:27:01.537Z</time></trkpt><trkpt lat="45.2139" lon="11.694255"><ele>7.0</ele><time>2026-04-12T07:27:02.534Z</time></trkpt><trkpt lat="45.2138433" lon="11.694205"><ele>7.0</ele><time>2026-04-12T07:27:03.545Z</time></trkpt><trkpt lat="45.2137867" lon="11.6941567"><ele>7.142857142857142</ele><time>2026-04-12T07:27:04.547Z</time></trkpt><trkpt lat="45.21373" lon="11.6941117"><ele>7.285714285714286</ele><time>2026-04-12T07:27:05.527Z</time></trkpt><trkpt lat="45.213675" lon="11.694065"><ele>7.428571428571429</ele><time>2026-04-12T07:27:06.534Z</time></trkpt><trkpt lat="45.21362" lon="11.6940117"><ele>7.571428571428571</ele><time>2026-04-12T07:27:07.547Z</time></trkpt><trkpt lat="45.213565" lon="11.6939583"><ele>7.7142857142857135</ele><time>2026-04-12T07:27:08.555Z</time></trkpt><trkpt lat="45.21351" lon="11.6939033"><ele>7.857142857142857</ele><time>2026-04-12T07:27:09.554Z</time></trkpt><trkpt lat="45.2134533" lon="11.69385"><ele>8.0</ele><time>2026-04-12T07:27:10.547Z</time></trkpt><trkpt lat="45.2133983" lon="11.693795"><ele>8.0</ele><time>2026-04-12T07:27:11.545Z</time></trkpt><trkpt lat="45.2133433" lon="11.6937383"><ele>7.999999999999999</ele><time>2026-04-12T07:27:12.529Z</time></trkpt><trkpt lat="45.21329" lon="11.6936817"><ele>8.0</ele><time>2026-04-12T07:27:13.538Z</time></trkpt><trkpt lat="45.213235" lon="11.6936267"><ele>8.0</ele><time>2026-04-12T07:27:14.536Z</time></trkpt><trkpt lat="45.2131783" lon="11.6935717"><ele>7.999999999999999</ele><time>2026-04-12T07:27:15.545Z</time></trkpt><trkpt lat="45.2131217" lon="11.6935183"><ele>8.0</ele><time>2026-04-12T07:27:16.529Z</time></trkpt><trkpt lat="45.2130617" lon="11.6934667"><ele>8.0</ele><time>2026-04-12T07:27:17.549Z</time></trkpt><trkpt lat="45.213005" lon="11.693415"><ele>7.7142857142857135</ele><time>2026-04-12T07:27:18.545Z</time></trkpt><trkpt lat="45.2129483" lon="11.6933667"><ele>7.428571428571428</ele><time>2026-04-12T07:27:19.533Z</time></trkpt><trkpt lat="45.2128917" lon="11.693315"><ele>7.142857142857142</ele><time>2026-04-12T07:27:20.538Z</time></trkpt><trkpt lat="45.212835" lon="11.69327"><ele>6.857142857142857</ele><time>2026-04-12T07:27:21.53Z</time></trkpt><trkpt lat="45.21278" lon="11.693225"><ele>6.571428571428571</ele><time>2026-04-12T07:27:22.525Z</time></trkpt><trkpt lat="45.2127217" lon="11.69318"><ele>6.285714285714285</ele><time>2026-04-12T07:27:23.553Z</time></trkpt><trkpt lat="45.2126633" lon="11.6931333"><ele>6.0</ele><time>2026-04-12T07:27:24.532Z</time></trkpt><trkpt lat="45.212605" lon="11.693085"><ele>5.999999999999999</ele><time>2026-04-12T07:27:25.542Z</time></trkpt><trkpt lat="45.2125467" lon="11.6930367"><ele>6.0</ele><time>2026-04-12T07:27:26.534Z</time></trkpt><trkpt lat="45.2124883" lon="11.6929883"><ele>6.0</ele><time>2026-04-12T07:27:27.53Z</time></trkpt><trkpt lat="45.212435" lon="11.6929383"><ele>6.0</ele><time>2026-04-12T07:27:28.531Z</time></trkpt><trkpt lat="45.2123783" lon="11.6928883"><ele>6.0</ele><time>2026-04-12T07:27:29.529Z</time></trkpt><trkpt lat="45.21232" lon="11.6928383"><ele>5.999999999999999</ele><time>2026-04-12T07:27:30.529Z</time></trkpt><trkpt lat="45.2122617" lon="11.6927867"><ele>6.0</ele><time>2026-04-12T07:27:31.533Z</time></trkpt><trkpt lat="45.2122033" lon="11.6927383"><ele>6.166666666666667</ele><time>2026-04-12T07:27:32.541Z</time></trkpt><trkpt lat="45.2121467" lon="11.69269"><ele>6.333333333333334</ele><time>2026-04-12T07:27:33.541Z</time></trkpt><trkpt lat="45.2120917" lon="11.6926383"><ele>6.5</ele><time>2026-04-12T07:27:34.546Z</time></trkpt><trkpt lat="45.2119867" lon="11.69254"><ele>6.666666666666667</ele><time>2026-04-12T07:27:36.538Z</time></trkpt><trkpt lat="45.2119317" lon="11.6924867"><ele>6.833333333333334</ele><time>2026-04-12T07:27:37.554Z</time></trkpt><trkpt lat="45.211875" lon="11.692435"><ele>7.0</ele><time>2026-04-12T07:27:38.533Z</time></trkpt><trkpt lat="45.2118167" lon="11.6923833"><ele>7.0</ele><time>2026-04-12T07:27:39.537Z</time></trkpt><trkpt lat="45.2117633" lon="11.6923317"><ele>7.0</ele><time>2026-04-12T07:27:40.543Z</time></trkpt><trkpt lat="45.2117083" lon="11.69228"><ele>7.0</ele><time>2026-04-12T07:27:41.541Z</time></trkpt><trkpt lat="45.2116533" lon="11.6922283"><ele>7.0</ele><time>2026-04-12T07:27:42.549Z</time></trkpt><trkpt lat="45.2115983" lon="11.69218"><ele>7.0</ele><time>2026-04-12T07:27:43.534Z</time></trkpt><trkpt lat="45.2115417" lon="11.69213"><ele>7.0</ele><time>2026-04-12T07:27:44.54Z</time></trkpt><trkpt lat="45.211485" lon="11.6920767"><ele>7.0</ele><time>2026-04-12T07:27:45.537Z</time></trkpt><trkpt lat="45.2114317" lon="11.6920233"><ele>7.333333333333334</ele><time>2026-04-12T07:27:46.529Z</time></trkpt><trkpt lat="45.2113283" lon="11.6919183"><ele>7.666666666666667</ele><time>2026-04-12T07:27:48.524Z</time></trkpt><trkpt lat="45.2112217" lon="11.6918167"><ele>8.0</ele><time>2026-04-12T07:27:50.534Z</time></trkpt><trkpt lat="45.2111667" lon="11.6917683"><ele>8.333333333333334</ele><time>2026-04-12T07:27:51.548Z</time></trkpt><trkpt lat="45.2111117" lon="11.6917217"><ele>8.666666666666666</ele><time>2026-04-12T07:27:52.541Z</time></trkpt><trkpt lat="45.2110567" lon="11.6916767"><ele>9.0</ele><time>2026-04-12T07:27:53.537Z</time></trkpt><trkpt lat="45.2110017" lon="11.6916317"><ele>9.0</ele><time>2026-04-12T07:27:54.535Z</time></trkpt><trkpt lat="45.2108933" lon="11.6915483"><ele>9.0</ele><time>2026-04-12T07:27:56.569Z</time></trkpt><trkpt lat="45.2107983" lon="11.69146"><ele>9.0</ele><time>2026-04-12T07:27:58.534Z</time></trkpt><trkpt lat="45.2106967" lon="11.6913567"><ele>9.0</ele><time>2026-04-12T07:28:00.547Z</time></trkpt><trkpt lat="45.21064" lon="11.69131"><ele>9.0</ele><time>2026-04-12T07:28:01.548Z</time></trkpt><trkpt lat="45.210585" lon="11.691265"><ele>8.857142857142858</ele><time>2026-04-12T07:28:02.549Z</time></trkpt><trkpt lat="45.21053" lon="11.6912167"><ele>8.714285714285715</ele><time>2026-04-12T07:28:03.543Z</time></trkpt><trkpt lat="45.2104817" lon="11.6911583"><ele>8.571428571428571</ele><time>2026-04-12T07:28:04.532Z</time></trkpt><trkpt lat="45.21043" lon="11.691095"><ele>8.428571428571429</ele><time>2026-04-12T07:28:05.532Z</time></trkpt><trkpt lat="45.210375" lon="11.6910317"><ele>8.285714285714285</ele><time>2026-04-12T07:28:06.535Z</time></trkpt><trkpt lat="45.21032" lon="11.6909733"><ele>8.142857142857142</ele><time>2026-04-12T07:28:07.54Z</time></trkpt><trkpt lat="45.210265" lon="11.6909183"><ele>8.0</ele><time>2026-04-12T07:28:08.537Z</time></trkpt><trkpt lat="45.2102067" lon="11.6908633"><ele>8.0</ele><time>2026-04-12T07:28:09.546Z</time></trkpt><trkpt lat="45.2101467" lon="11.6908083"><ele>7.999999999999999</ele><time>2026-04-12T07:28:10.537Z</time></trkpt><trkpt lat="45.210085" lon="11.6907617"><ele>8.0</ele><time>2026-04-12T07:28:11.534Z</time></trkpt><trkpt lat="45.2100217" lon="11.6907217"><ele>8.0</ele><time>2026-04-12T07:28:12.532Z</time></trkpt><trkpt lat="45.2099583" lon="11.690685"><ele>7.999999999999999</ele><time>2026-04-12T07:28:13.542Z</time></trkpt><trkpt lat="45.209895" lon="11.6906567"><ele>8.0</ele><time>2026-04-12T07:28:14.55Z</time></trkpt><trkpt lat="45.2098283" lon="11.6906333"><ele>8.0</ele><time>2026-04-12T07:28:15.537Z</time></trkpt><trkpt lat="45.2097617" lon="11.6906167"><ele>8.0</ele><time>2026-04-12T07:28:16.546Z</time></trkpt><trkpt lat="45.2096933" lon="11.6906083"><ele>7.999999999999999</ele><time>2026-04-12T07:28:17.546Z</time></trkpt><trkpt lat="45.209625" lon="11.6906033"><ele>8.0</ele><time>2026-04-12T07:28:18.543Z</time></trkpt><trkpt lat="45.2095583" lon="11.6906017"><ele>8.0</ele><time>2026-04-12T07:28:19.547Z</time></trkpt><trkpt lat="45.2094917" lon="11.6906083"><ele>7.999999999999999</ele><time>2026-04-12T07:28:20.55Z</time></trkpt><trkpt lat="45.2094267" lon="11.6906167"><ele>8.0</ele><time>2026-04-12T07:28:21.53Z</time></trkpt><trkpt lat="45.20936" lon="11.6906233"><ele>8.0</ele><time>2026-04-12T07:28:22.528Z</time></trkpt><trkpt lat="45.2092933" lon="11.6906283"><ele>8.0</ele><time>2026-04-12T07:28:23.529Z</time></trkpt><trkpt lat="45.209225" lon="11.690635"><ele>7.999999999999999</ele><time>2026-04-12T07:28:24.53Z</time></trkpt><trkpt lat="45.2091567" lon="11.690645"><ele>8.0</ele><time>2026-04-12T07:28:25.532Z</time></trkpt><trkpt lat="45.2090883" lon="11.69065"><ele>8.0</ele><time>2026-04-12T07:28:26.533Z</time></trkpt><trkpt lat="45.2090217" lon="11.69065"><ele>7.999999999999999</ele><time>2026-04-12T07:28:27.547Z</time></trkpt><trkpt lat="45.208955" lon="11.6906483"><ele>8.0</ele><time>2026-04-12T07:28:28.551Z</time></trkpt><trkpt lat="45.2088867" lon="11.6906417"><ele>8.0</ele><time>2026-04-12T07:28:29.548Z</time></trkpt><trkpt lat="45.20882" lon="11.6906317"><ele>7.857142857142857</ele><time>2026-04-12T07:28:30.548Z</time></trkpt><trkpt lat="45.208755" lon="11.690615"><ele>7.7142857142857135</ele><time>2026-04-12T07:28:31.549Z</time></trkpt><trkpt lat="45.20869" lon="11.6905933"><ele>7.571428571428571</ele><time>2026-04-12T07:28:32.547Z</time></trkpt><trkpt lat="45.2086267" lon="11.6905683"><ele>7.428571428571429</ele><time>2026-04-12T07:28:33.537Z</time></trkpt><trkpt lat="45.208565" lon="11.69054"><ele>7.285714285714286</ele><time>2026-04-12T07:28:34.53Z</time></trkpt><trkpt lat="45.2085033" lon="11.6905083"><ele>7.142857142857142</ele><time>2026-04-12T07:28:35.529Z</time></trkpt><trkpt lat="45.2084417" lon="11.6904717"><ele>7.0</ele><time>2026-04-12T07:28:36.537Z</time></trkpt><trkpt lat="45.2083817" lon="11.6904317"><ele>7.0</ele><time>2026-04-12T07:28:37.533Z</time></trkpt><trkpt lat="45.208325" lon="11.6903833"><ele>7.0</ele><time>2026-04-12T07:28:38.53Z</time></trkpt><trkpt lat="45.2082683" lon="11.6903333"><ele>7.0</ele><time>2026-04-12T07:28:39.546Z</time></trkpt><trkpt lat="45.2082133" lon="11.69028"><ele>7.0</ele><time>2026-04-12T07:28:40.547Z</time></trkpt><trkpt lat="45.20816" lon="11.6902267"><ele>7.0</ele><time>2026-04-12T07:28:41.545Z</time></trkpt><trkpt lat="45.2081067" lon="11.6901683"><ele>7.0</ele><time>2026-04-12T07:28:42.539Z</time></trkpt><trkpt lat="45.208055" lon="11.6901083"><ele>7.0</ele><time>2026-04-12T07:28:43.538Z</time></trkpt><trkpt lat="45.208005" lon="11.690045"><ele>6.857142857142857</ele><time>2026-04-12T07:28:44.544Z</time></trkpt><trkpt lat="45.207955" lon="11.6899867"><ele>6.714285714285714</ele><time>2026-04-12T07:28:45.539Z</time></trkpt><trkpt lat="45.20791" lon="11.68992"><ele>6.571428571428571</ele><time>2026-04-12T07:28:46.557Z</time></trkpt><trkpt lat="45.207865" lon="11.6898517"><ele>6.428571428571429</ele><time>2026-04-12T07:28:47.545Z</time></trkpt><trkpt lat="45.2078217" lon="11.6897783"><ele>6.285714285714286</ele><time>2026-04-12T07:28:48.527Z</time></trkpt><trkpt lat="45.2077817" lon="11.6897017"><ele>6.142857142857142</ele><time>2026-04-12T07:28:49.534Z</time></trkpt><trkpt lat="45.2077433" lon="11.68963"><ele>6.0</ele><time>2026-04-12T07:28:50.54Z</time></trkpt><trkpt lat="45.2076717" lon="11.68949"><ele>6.142857142857142</ele><time>2026-04-12T07:28:52.548Z</time></trkpt><trkpt lat="45.207635" lon="11.6894167"><ele>6.285714285714286</ele><time>2026-04-12T07:28:53.555Z</time></trkpt><trkpt lat="45.2076033" lon="11.6893383"><ele>6.428571428571429</ele><time>2026-04-12T07:28:54.536Z</time></trkpt><trkpt lat="45.2075733" lon="11.689255"><ele>6.571428571428571</ele><time>2026-04-12T07:28:55.528Z</time></trkpt><trkpt lat="45.2075467" lon="11.6891717"><ele>6.714285714285714</ele><time>2026-04-12T07:28:56.543Z</time></trkpt><trkpt lat="45.20752" lon="11.68909"><ele>6.857142857142857</ele><time>2026-04-12T07:28:57.541Z</time></trkpt><trkpt lat="45.207475" lon="11.68894"><ele>7.0</ele><time>2026-04-12T07:28:59.546Z</time></trkpt><trkpt lat="45.2074267" lon="11.6888033"><ele>7.0</ele><time>2026-04-12T07:29:01.534Z</time></trkpt><trkpt lat="45.2073783" lon="11.6886617"><ele>7.0</ele><time>2026-04-12T07:29:03.546Z</time></trkpt><trkpt lat="45.20732" lon="11.6885233"><ele>7.0</ele><time>2026-04-12T07:29:05.53Z</time></trkpt><trkpt lat="45.2072317" lon="11.6884233"><ele>7.0</ele><time>2026-04-12T07:29:07.588Z</time></trkpt><trkpt lat="45.2071333" lon="11.68833"><ele>7.199999999999999</ele><time>2026-04-12T07:29:09.533Z</time></trkpt><trkpt lat="45.2070517" lon="11.6882167"><ele>7.3999999999999995</ele><time>2026-04-12T07:29:11.538Z</time></trkpt><trkpt lat="45.2069583" lon="11.6881367"><ele>7.6000000000000005</ele><time>2026-04-12T07:29:13.544Z</time></trkpt><trkpt lat="45.2068517" lon="11.6881067"><ele>7.800000000000001</ele><time>2026-04-12T07:29:15.539Z</time></trkpt><trkpt lat="45.2067867" lon="11.688105"><ele>8.0</ele><time>2026-04-12T07:29:16.554Z</time></trkpt><trkpt lat="45.2066717" lon="11.6881867"><ele>7.999999999999999</ele><time>2026-04-12T07:29:18.533Z</time></trkpt><trkpt lat="45.206615" lon="11.6882367"><ele>8.0</ele><time>2026-04-12T07:29:19.547Z</time></trkpt><trkpt lat="45.2065633" lon="11.6882967"><ele>8.0</ele><time>2026-04-12T07:29:20.536Z</time></trkpt><trkpt lat="45.206465" lon="11.688415"><ele>8.0</ele><time>2026-04-12T07:29:22.528Z</time></trkpt><trkpt lat="45.20641" lon="11.6884767"><ele>7.999999999999999</ele><time>2026-04-12T07:29:23.529Z</time></trkpt><trkpt lat="45.2063633" lon="11.6885367"><ele>8.0</ele><time>2026-04-12T07:29:24.54Z</time></trkpt><trkpt lat="45.2063117" lon="11.6886"><ele>8.0</ele><time>2026-04-12T07:29:25.538Z</time></trkpt><trkpt lat="45.2062617" lon="11.6886633"><ele>7.999999999999999</ele><time>2026-04-12T07:29:26.536Z</time></trkpt><trkpt lat="45.2062183" lon="11.6887333"><ele>8.0</ele><time>2026-04-12T07:29:27.544Z</time></trkpt><trkpt lat="45.2061683" lon="11.6887983"><ele>8.0</ele><time>2026-04-12T07:29:28.568Z</time></trkpt><trkpt lat="45.2061183" lon="11.6888617"><ele>7.999999999999999</ele><time>2026-04-12T07:29:29.545Z</time></trkpt><trkpt lat="45.20607" lon="11.6889217"><ele>8.0</ele><time>2026-04-12T07:29:30.546Z</time></trkpt><trkpt lat="45.2060233" lon="11.6889867"><ele>8.0</ele><time>2026-04-12T07:29:31.55Z</time></trkpt><trkpt lat="45.205975" lon="11.68905"><ele>7.999999999999999</ele><time>2026-04-12T07:29:32.533Z</time></trkpt><trkpt lat="45.2058817" lon="11.6891717"><ele>8.0</ele><time>2026-04-12T07:29:34.543Z</time></trkpt><trkpt lat="45.2058317" lon="11.6892317"><ele>8.0</ele><time>2026-04-12T07:29:35.546Z</time></trkpt><trkpt lat="45.2057817" lon="11.6892917"><ele>8.0</ele><time>2026-04-12T07:29:36.55Z</time></trkpt><trkpt lat="45.2057267" lon="11.6893467"><ele>7.999999999999999</ele><time>2026-04-12T07:29:37.533Z</time></trkpt><trkpt lat="45.2056667" lon="11.689395"><ele>8.0</ele><time>2026-04-12T07:29:38.529Z</time></trkpt><trkpt lat="45.2056033" lon="11.689435"><ele>8.0</ele><time>2026-04-12T07:29:39.543Z</time></trkpt><trkpt lat="45.2055333" lon="11.6894683"><ele>7.999999999999999</ele><time>2026-04-12T07:29:40.539Z</time></trkpt><trkpt lat="45.2054667" lon="11.6894967"><ele>8.0</ele><time>2026-04-12T07:29:41.537Z</time></trkpt><trkpt lat="45.2053983" lon="11.6895217"><ele>8.0</ele><time>2026-04-12T07:29:42.527Z</time></trkpt><trkpt lat="45.2053317" lon="11.6895367"><ele>7.999999999999999</ele><time>2026-04-12T07:29:43.533Z</time></trkpt><trkpt lat="45.205265" lon="11.6895483"><ele>8.0</ele><time>2026-04-12T07:29:44.526Z</time></trkpt><trkpt lat="45.2052" lon="11.6895567"><ele>8.0</ele><time>2026-04-12T07:29:45.547Z</time></trkpt><trkpt lat="45.2050733" lon="11.6895683"><ele>8.0</ele><time>2026-04-12T07:29:47.534Z</time></trkpt><trkpt lat="45.2050083" lon="11.6895733"><ele>7.999999999999999</ele><time>2026-04-12T07:29:48.546Z</time></trkpt><trkpt lat="45.204945" lon="11.6895783"><ele>8.0</ele><time>2026-04-12T07:29:49.525Z</time></trkpt><trkpt lat="45.20488" lon="11.6895867"><ele>8.0</ele><time>2026-04-12T07:29:50.54Z</time></trkpt><trkpt lat="45.204815" lon="11.6895917"><ele>7.999999999999999</ele><time>2026-04-12T07:29:51.551Z</time></trkpt><trkpt lat="45.20475" lon="11.6895917"><ele>8.0</ele><time>2026-04-12T07:29:52.533Z</time></trkpt><trkpt lat="45.2046833" lon="11.6895933"><ele>8.0</ele><time>2026-04-12T07:29:53.538Z</time></trkpt><trkpt lat="45.2046167" lon="11.6895917"><ele>8.0</ele><time>2026-04-12T07:29:54.549Z</time></trkpt><trkpt lat="45.2045533" lon="11.6895933"><ele>7.999999999999999</ele><time>2026-04-12T07:29:55.533Z</time></trkpt><trkpt lat="45.20449" lon="11.68959"><ele>8.0</ele><time>2026-04-12T07:29:56.554Z</time></trkpt><trkpt lat="45.2044267" lon="11.6895733"><ele>8.0</ele><time>2026-04-12T07:29:57.522Z</time></trkpt><trkpt lat="45.20436" lon="11.68956"><ele>7.999999999999999</ele><time>2026-04-12T07:29:58.525Z</time></trkpt><trkpt lat="45.2042967" lon="11.6895467"><ele>8.0</ele><time>2026-04-12T07:29:59.539Z</time></trkpt><trkpt lat="45.20423" lon="11.68953"><ele>8.0</ele><time>2026-04-12T07:30:00.539Z</time></trkpt><trkpt lat="45.2041667" lon="11.6895083"><ele>7.999999999999999</ele><time>2026-04-12T07:30:01.543Z</time></trkpt><trkpt lat="45.2041" lon="11.6894883"><ele>8.0</ele><time>2026-04-12T07:30:02.534Z</time></trkpt><trkpt lat="45.20398" lon="11.68946"><ele>8.0</ele><time>2026-04-12T07:30:04.545Z</time></trkpt><trkpt lat="45.2039183" lon="11.6894417"><ele>8.0</ele><time>2026-04-12T07:30:05.547Z</time></trkpt><trkpt lat="45.203855" lon="11.6894233"><ele>7.999999999999999</ele><time>2026-04-12T07:30:06.538Z</time></trkpt><trkpt lat="45.2037917" lon="11.6894017"><ele>8.0</ele><time>2026-04-12T07:30:07.534Z</time></trkpt><trkpt lat="45.2037267" lon="11.689375"><ele>8.166666666666666</ele><time>2026-04-12T07:30:08.546Z</time></trkpt><trkpt lat="45.2036633" lon="11.6893467"><ele>8.333333333333332</ele><time>2026-04-12T07:30:09.536Z</time></trkpt><trkpt lat="45.2036017" lon="11.68932"><ele>8.5</ele><time>2026-04-12T07:30:10.539Z</time></trkpt><trkpt lat="45.20348" lon="11.68927"><ele>8.666666666666666</ele><time>2026-04-12T07:30:12.537Z</time></trkpt><trkpt lat="45.2034183" lon="11.689245"><ele>8.833333333333334</ele><time>2026-04-12T07:30:13.532Z</time></trkpt><trkpt lat="45.2033583" lon="11.6892167"><ele>9.0</ele><time>2026-04-12T07:30:14.547Z</time></trkpt><trkpt lat="45.203295" lon="11.689185"><ele>9.000000000000002</ele><time>2026-04-12T07:30:15.534Z</time></trkpt><trkpt lat="45.20323" lon="11.6891533"><ele>9.0</ele><time>2026-04-12T07:30:16.534Z</time></trkpt><trkpt lat="45.203165" lon="11.6891233"><ele>9.0</ele><time>2026-04-12T07:30:17.535Z</time></trkpt><trkpt lat="45.2031" lon="11.689095"><ele>9.0</ele><time>2026-04-12T07:30:18.53Z</time></trkpt><trkpt lat="45.20304" lon="11.6890633"><ele>9.0</ele><time>2026-04-12T07:30:19.544Z</time></trkpt><trkpt lat="45.2029767" lon="11.6890317"><ele>9.000000000000002</ele><time>2026-04-12T07:30:20.534Z</time></trkpt><trkpt lat="45.202915" lon="11.6889983"><ele>9.0</ele><time>2026-04-12T07:30:21.548Z</time></trkpt><trkpt lat="45.202855" lon="11.688965"><ele>9.25</ele><time>2026-04-12T07:30:22.555Z</time></trkpt><trkpt lat="45.2027433" lon="11.688895"><ele>9.5</ele><time>2026-04-12T07:30:24.533Z</time></trkpt><trkpt lat="45.2026233" lon="11.68884"><ele>9.75</ele><time>2026-04-12T07:30:26.541Z</time></trkpt><trkpt lat="45.2025033" lon="11.6887833"><ele>10.0</ele><time>2026-04-12T07:30:28.562Z</time></trkpt><trkpt lat="45.2024033" lon="11.6887233"><ele>10.0</ele><time>2026-04-12T07:30:30.525Z</time></trkpt><trkpt lat="45.2023417" lon="11.6886917"><ele>10.0</ele><time>2026-04-12T07:30:31.545Z</time></trkpt><trkpt lat="45.2022717" lon="11.6886633"><ele>10.0</ele><time>2026-04-12T07:30:32.528Z</time></trkpt><trkpt lat="45.202205" lon="11.6886217"><ele>10.0</ele><time>2026-04-12T07:30:33.542Z</time></trkpt><trkpt lat="45.2021233" lon="11.68858"><ele>10.0</ele><time>2026-04-12T07:30:34.538Z</time></trkpt><trkpt lat="45.2020433" lon="11.6885583"><ele>10.0</ele><time>2026-04-12T07:30:35.535Z</time></trkpt><trkpt lat="45.2019817" lon="11.6885333"><ele>10.0</ele><time>2026-04-12T07:30:36.526Z</time></trkpt><trkpt lat="45.201915" lon="11.6885017"><ele>9.857142857142858</ele><time>2026-04-12T07:30:37.536Z</time></trkpt><trkpt lat="45.2018517" lon="11.68847"><ele>9.714285714285715</ele><time>2026-04-12T07:30:38.536Z</time></trkpt><trkpt lat="45.2017883" lon="11.6884383"><ele>9.571428571428573</ele><time>2026-04-12T07:30:39.526Z</time></trkpt><trkpt lat="45.2017283" lon="11.688395"><ele>9.428571428571429</ele><time>2026-04-12T07:30:40.53Z</time></trkpt><trkpt lat="45.20167" lon="11.6883433"><ele>9.285714285714286</ele><time>2026-04-12T07:30:41.527Z</time></trkpt><trkpt lat="45.2016083" lon="11.6882983"><ele>9.142857142857144</ele><time>2026-04-12T07:30:42.607Z</time></trkpt><trkpt lat="45.20154" lon="11.6882483"><ele>9.0</ele><time>2026-04-12T07:30:43.562Z</time></trkpt><trkpt lat="45.201485" lon="11.6881833"><ele>8.833333333333334</ele><time>2026-04-12T07:30:44.638Z</time></trkpt><trkpt lat="45.2014333" lon="11.68812"><ele>8.666666666666666</ele><time>2026-04-12T07:30:45.578Z</time></trkpt><trkpt lat="45.2013283" lon="11.68802"><ele>8.5</ele><time>2026-04-12T07:30:47.527Z</time></trkpt><trkpt lat="45.201245" lon="11.68791"><ele>8.333333333333332</ele><time>2026-04-12T07:30:49.535Z</time></trkpt><trkpt lat="45.2011967" lon="11.687845"><ele>8.166666666666666</ele><time>2026-04-12T07:30:50.525Z</time></trkpt><trkpt lat="45.2011417" lon="11.68778"><ele>8.0</ele><time>2026-04-12T07:30:51.524Z</time></trkpt><trkpt lat="45.201085" lon="11.6877067"><ele>8.428571428571429</ele><time>2026-04-12T07:30:52.544Z</time></trkpt><trkpt lat="45.2010333" lon="11.68764"><ele>8.857142857142856</ele><time>2026-04-12T07:30:53.55Z</time></trkpt><trkpt lat="45.2009933" lon="11.6875567"><ele>9.285714285714285</ele><time>2026-04-12T07:30:54.537Z</time></trkpt><trkpt lat="45.2009583" lon="11.687475"><ele>9.714285714285714</ele><time>2026-04-12T07:30:55.546Z</time></trkpt><trkpt lat="45.2009233" lon="11.68739"><ele>10.142857142857142</ele><time>2026-04-12T07:30:56.552Z</time></trkpt><trkpt lat="45.2008867" lon="11.687305"><ele>10.571428571428571</ele><time>2026-04-12T07:30:57.531Z</time></trkpt><trkpt lat="45.2008583" lon="11.6872167"><ele>11.0</ele><time>2026-04-12T07:30:58.543Z</time></trkpt><trkpt lat="45.2008267" lon="11.6871283"><ele>11.0</ele><time>2026-04-12T07:30:59.527Z</time></trkpt><trkpt lat="45.2007967" lon="11.687045"><ele>11.0</ele><time>2026-04-12T07:31:00.544Z</time></trkpt><trkpt lat="45.2007667" lon="11.6869633"><ele>11.0</ele><time>2026-04-12T07:31:01.531Z</time></trkpt><trkpt lat="45.2007317" lon="11.68688"><ele>11.0</ele><time>2026-04-12T07:31:02.541Z</time></trkpt><trkpt lat="45.2006967" lon="11.6867983"><ele>11.0</ele><time>2026-04-12T07:31:03.524Z</time></trkpt><trkpt lat="45.2006683" lon="11.6867083"><ele>11.0</ele><time>2026-04-12T07:31:04.54Z</time></trkpt><trkpt lat="45.2006367" lon="11.6866267"><ele>11.0</ele><time>2026-04-12T07:31:05.566Z</time></trkpt><trkpt lat="45.2005867" lon="11.6864683"><ele>11.0</ele><time>2026-04-12T07:31:07.533Z</time></trkpt><trkpt lat="45.2005583" lon="11.686385"><ele>11.0</ele><time>2026-04-12T07:31:08.555Z</time></trkpt><trkpt lat="45.20053" lon="11.6862983"><ele>11.0</ele><time>2026-04-12T07:31:09.538Z</time></trkpt><trkpt lat="45.2005067" lon="11.6862133"><ele>11.0</ele><time>2026-04-12T07:31:10.538Z</time></trkpt><trkpt lat="45.20048" lon="11.686125"><ele>11.0</ele><time>2026-04-12T07:31:11.535Z</time></trkpt><trkpt lat="45.200455" lon="11.6860417"><ele>11.0</ele><time>2026-04-12T07:31:12.536Z</time></trkpt><trkpt lat="45.2004283" lon="11.685955"><ele>11.0</ele><time>2026-04-12T07:31:13.553Z</time></trkpt><trkpt lat="45.2004017" lon="11.6858683"><ele>10.833333333333332</ele><time>2026-04-12T07:31:14.549Z</time></trkpt><trkpt lat="45.2003733" lon="11.685785"><ele>10.666666666666666</ele><time>2026-04-12T07:31:15.536Z</time></trkpt><trkpt lat="45.2003467" lon="11.6857"><ele>10.5</ele><time>2026-04-12T07:31:16.537Z</time></trkpt><trkpt lat="45.2003017" lon="11.68554"><ele>10.333333333333334</ele><time>2026-04-12T07:31:18.533Z</time></trkpt><trkpt lat="45.200245" lon="11.68538"><ele>10.166666666666668</ele><time>2026-04-12T07:31:20.567Z</time></trkpt><trkpt lat="45.2002117" lon="11.6853"><ele>10.0</ele><time>2026-04-12T07:31:21.539Z</time></trkpt><trkpt lat="45.2001783" lon="11.68522"><ele>9.833333333333334</ele><time>2026-04-12T07:31:22.536Z</time></trkpt><trkpt lat="45.2001433" lon="11.6851417"><ele>9.666666666666668</ele><time>2026-04-12T07:31:23.532Z</time></trkpt><trkpt lat="45.2001083" lon="11.6850633"><ele>9.5</ele><time>2026-04-12T07:31:24.533Z</time></trkpt><trkpt lat="45.2000667" lon="11.68499"><ele>9.333333333333334</ele><time>2026-04-12T07:31:25.541Z</time></trkpt><trkpt lat="45.2000233" lon="11.6849233"><ele>9.166666666666666</ele><time>2026-04-12T07:31:26.534Z</time></trkpt><trkpt lat="45.199925" lon="11.684805"><ele>9.0</ele><time>2026-04-12T07:31:28.536Z</time></trkpt><trkpt lat="45.19987" lon="11.6847483"><ele>9.142857142857144</ele><time>2026-04-12T07:31:29.531Z</time></trkpt><trkpt lat="45.1998133" lon="11.6846867"><ele>9.285714285714286</ele><time>2026-04-12T07:31:30.533Z</time></trkpt><trkpt lat="45.1997517" lon="11.68463"><ele>9.428571428571429</ele><time>2026-04-12T07:31:31.549Z</time></trkpt><trkpt lat="45.1996917" lon="11.6845733"><ele>9.571428571428573</ele><time>2026-04-12T07:31:32.534Z</time></trkpt><trkpt lat="45.1996317" lon="11.6845133"><ele>9.714285714285715</ele><time>2026-04-12T07:31:33.545Z</time></trkpt><trkpt lat="45.19957" lon="11.68446"><ele>9.857142857142858</ele><time>2026-04-12T07:31:34.537Z</time></trkpt><trkpt lat="45.199505" lon="11.6844117"><ele>10.0</ele><time>2026-04-12T07:31:35.546Z</time></trkpt><trkpt lat="45.1994483" lon="11.6843583"><ele>10.0</ele><time>2026-04-12T07:31:36.536Z</time></trkpt><trkpt lat="45.19939" lon="11.68431"><ele>10.0</ele><time>2026-04-12T07:31:37.546Z</time></trkpt><trkpt lat="45.19933" lon="11.6842617"><ele>10.0</ele><time>2026-04-12T07:31:38.527Z</time></trkpt><trkpt lat="45.1992667" lon="11.684215"><ele>10.0</ele><time>2026-04-12T07:31:39.544Z</time></trkpt><trkpt lat="45.1992" lon="11.684175"><ele>10.0</ele><time>2026-04-12T07:31:40.537Z</time></trkpt><trkpt lat="45.1991317" lon="11.6841333"><ele>10.0</ele><time>2026-04-12T07:31:41.535Z</time></trkpt><trkpt lat="45.1990633" lon="11.684095"><ele>10.0</ele><time>2026-04-12T07:31:42.544Z</time></trkpt><trkpt lat="45.1989967" lon="11.6840567"><ele>10.0</ele><time>2026-04-12T07:31:43.541Z</time></trkpt><trkpt lat="45.1989283" lon="11.6840283"><ele>10.0</ele><time>2026-04-12T07:31:44.54Z</time></trkpt><trkpt lat="45.1988633" lon="11.6840033"><ele>10.0</ele><time>2026-04-12T07:31:45.543Z</time></trkpt><trkpt lat="45.1988" lon="11.6839817"><ele>10.0</ele><time>2026-04-12T07:31:46.534Z</time></trkpt><trkpt lat="45.198735" lon="11.68397"><ele>10.0</ele><time>2026-04-12T07:31:47.533Z</time></trkpt><trkpt lat="45.19867" lon="11.6839617"><ele>10.0</ele><time>2026-04-12T07:31:48.537Z</time></trkpt><trkpt lat="45.1986033" lon="11.683955"><ele>10.0</ele><time>2026-04-12T07:31:49.531Z</time></trkpt><trkpt lat="45.198535" lon="11.6839517"><ele>10.0</ele><time>2026-04-12T07:31:50.53Z</time></trkpt><trkpt lat="45.1984667" lon="11.683955"><ele>10.0</ele><time>2026-04-12T07:31:51.547Z</time></trkpt><trkpt lat="45.1984" lon="11.6839617"><ele>10.0</ele><time>2026-04-12T07:31:52.532Z</time></trkpt><trkpt lat="45.1983317" lon="11.68397"><ele>10.0</ele><time>2026-04-12T07:31:53.546Z</time></trkpt><trkpt lat="45.198265" lon="11.6839783"><ele>10.0</ele><time>2026-04-12T07:31:54.538Z</time></trkpt><trkpt lat="45.1981983" lon="11.6839883"><ele>10.0</ele><time>2026-04-12T07:31:55.526Z</time></trkpt><trkpt lat="45.1981333" lon="11.684"><ele>10.0</ele><time>2026-04-12T07:31:56.53Z</time></trkpt><trkpt lat="45.1980683" lon="11.6840133"><ele>9.714285714285714</ele><time>2026-04-12T07:31:57.534Z</time></trkpt><trkpt lat="45.1980017" lon="11.68403"><ele>9.428571428571429</ele><time>2026-04-12T07:31:58.535Z</time></trkpt><trkpt lat="45.1979367" lon="11.6840483"><ele>9.142857142857142</ele><time>2026-04-12T07:31:59.538Z</time></trkpt><trkpt lat="45.1978717" lon="11.6840683"><ele>8.857142857142858</ele><time>2026-04-12T07:32:00.545Z</time></trkpt><trkpt lat="45.1978083" lon="11.6840883"><ele>8.571428571428571</ele><time>2026-04-12T07:32:01.557Z</time></trkpt><trkpt lat="45.1977433" lon="11.6841083"><ele>8.285714285714285</ele><time>2026-04-12T07:32:02.534Z</time></trkpt><trkpt lat="45.1976767" lon="11.684125"><ele>8.0</ele><time>2026-04-12T07:32:03.533Z</time></trkpt><trkpt lat="45.1976133" lon="11.6841467"><ele>8.0</ele><time>2026-04-12T07:32:04.535Z</time></trkpt><trkpt lat="45.1975483" lon="11.6841683"><ele>7.999999999999999</ele><time>2026-04-12T07:32:05.55Z</time></trkpt><trkpt lat="45.1974833" lon="11.6841883"><ele>8.0</ele><time>2026-04-12T07:32:06.536Z</time></trkpt><trkpt lat="45.1974167" lon="11.6842133"><ele>8.0</ele><time>2026-04-12T07:32:07.538Z</time></trkpt><trkpt lat="45.19735" lon="11.684235"><ele>7.999999999999999</ele><time>2026-04-12T07:32:08.536Z</time></trkpt><trkpt lat="45.197285" lon="11.6842583"><ele>8.0</ele><time>2026-04-12T07:32:09.534Z</time></trkpt><trkpt lat="45.1972217" lon="11.6842783"><ele>8.0</ele><time>2026-04-12T07:32:10.527Z</time></trkpt><trkpt lat="45.1971583" lon="11.6842983"><ele>8.0</ele><time>2026-04-12T07:32:11.548Z</time></trkpt><trkpt lat="45.197095" lon="11.6843233"><ele>7.999999999999999</ele><time>2026-04-12T07:32:12.548Z</time></trkpt><trkpt lat="45.19703" lon="11.6843483"><ele>8.0</ele><time>2026-04-12T07:32:13.535Z</time></trkpt><trkpt lat="45.1969633" lon="11.68437"><ele>8.0</ele><time>2026-04-12T07:32:14.549Z</time></trkpt><trkpt lat="45.1968983" lon="11.6843967"><ele>7.999999999999999</ele><time>2026-04-12T07:32:15.532Z</time></trkpt><trkpt lat="45.196835" lon="11.6844233"><ele>8.0</ele><time>2026-04-12T07:32:16.545Z</time></trkpt><trkpt lat="45.1967733" lon="11.6844483"><ele>8.0</ele><time>2026-04-12T07:32:17.545Z</time></trkpt><trkpt lat="45.19671" lon="11.6844717"><ele>8.142857142857142</ele><time>2026-04-12T07:32:18.536Z</time></trkpt><trkpt lat="45.1966467" lon="11.684495"><ele>8.285714285714285</ele><time>2026-04-12T07:32:19.531Z</time></trkpt><trkpt lat="45.1965833" lon="11.6845167"><ele>8.428571428571429</ele><time>2026-04-12T07:32:20.541Z</time></trkpt><trkpt lat="45.19652" lon="11.6845383"><ele>8.571428571428571</ele><time>2026-04-12T07:32:21.551Z</time></trkpt><trkpt lat="45.1963983" lon="11.68457"><ele>8.714285714285715</ele><time>2026-04-12T07:32:23.532Z</time></trkpt><trkpt lat="45.196335" lon="11.6845717"><ele>8.857142857142858</ele><time>2026-04-12T07:32:24.539Z</time></trkpt><trkpt lat="45.1962717" lon="11.6845683"><ele>9.0</ele><time>2026-04-12T07:32:25.559Z</time></trkpt><trkpt lat="45.196205" lon="11.6845617"><ele>9.000000000000002</ele><time>2026-04-12T07:32:26.542Z</time></trkpt><trkpt lat="45.19614" lon="11.68455"><ele>9.0</ele><time>2026-04-12T07:32:27.532Z</time></trkpt><trkpt lat="45.196075" lon="11.6845367"><ele>9.0</ele><time>2026-04-12T07:32:28.534Z</time></trkpt><trkpt lat="45.1960117" lon="11.68452"><ele>9.0</ele><time>2026-04-12T07:32:29.533Z</time></trkpt><trkpt lat="45.1959467" lon="11.6845017"><ele>9.0</ele><time>2026-04-12T07:32:30.533Z</time></trkpt><trkpt lat="45.1958833" lon="11.6844833"><ele>9.000000000000002</ele><time>2026-04-12T07:32:31.538Z</time></trkpt><trkpt lat="45.1957617" lon="11.68446"><ele>9.0</ele><time>2026-04-12T07:32:33.54Z</time></trkpt><trkpt lat="45.1956983" lon="11.6844467"><ele>9.0</ele><time>2026-04-12T07:32:34.542Z</time></trkpt><trkpt lat="45.1956333" lon="11.6844317"><ele>9.0</ele><time>2026-04-12T07:32:35.547Z</time></trkpt><trkpt lat="45.19557" lon="11.68441"><ele>9.0</ele><time>2026-04-12T07:32:36.547Z</time></trkpt><trkpt lat="45.1955067" lon="11.6843833"><ele>9.0</ele><time>2026-04-12T07:32:37.53Z</time></trkpt><trkpt lat="45.195445" lon="11.684355"><ele>9.0</ele><time>2026-04-12T07:32:38.546Z</time></trkpt><trkpt lat="45.1953833" lon="11.6843333"><ele>9.0</ele><time>2026-04-12T07:32:39.544Z</time></trkpt><trkpt lat="45.1952617" lon="11.6842833"><ele>9.000000000000002</ele><time>2026-04-12T07:32:41.528Z</time></trkpt><trkpt lat="45.1951967" lon="11.6842517"><ele>9.0</ele><time>2026-04-12T07:32:42.531Z</time></trkpt><trkpt lat="45.19513" lon="11.6842283"><ele>9.0</ele><time>2026-04-12T07:32:43.526Z</time></trkpt><trkpt lat="45.1950633" lon="11.6841983"><ele>9.0</ele><time>2026-04-12T07:32:44.537Z</time></trkpt><trkpt lat="45.1949967" lon="11.6841733"><ele>9.0</ele><time>2026-04-12T07:32:45.531Z</time></trkpt><trkpt lat="45.1949267" lon="11.68415"><ele>9.000000000000002</ele><time>2026-04-12T07:32:46.538Z</time></trkpt><trkpt lat="45.1948567" lon="11.6841267"><ele>9.0</ele><time>2026-04-12T07:32:47.527Z</time></trkpt><trkpt lat="45.1947867" lon="11.6841033"><ele>9.000000000000002</ele><time>2026-04-12T07:32:48.534Z</time></trkpt><trkpt lat="45.194715" lon="11.6840783"><ele>9.0</ele><time>2026-04-12T07:32:49.53Z</time></trkpt><trkpt lat="45.194645" lon="11.684055"><ele>9.0</ele><time>2026-04-12T07:32:50.535Z</time></trkpt><trkpt lat="45.1945767" lon="11.684035"><ele>9.0</ele><time>2026-04-12T07:32:51.531Z</time></trkpt><trkpt lat="45.1945067" lon="11.684015"><ele>9.0</ele><time>2026-04-12T07:32:52.537Z</time></trkpt><trkpt lat="45.194435" lon="11.6839917"><ele>9.000000000000002</ele><time>2026-04-12T07:32:53.534Z</time></trkpt><trkpt lat="45.194365" lon="11.68397"><ele>9.0</ele><time>2026-04-12T07:32:54.535Z</time></trkpt><trkpt lat="45.1942983" lon="11.6839467"><ele>9.000000000000002</ele><time>2026-04-12T07:32:55.55Z</time></trkpt><trkpt lat="45.194235" lon="11.6839167"><ele>9.0</ele><time>2026-04-12T07:32:56.549Z</time></trkpt><trkpt lat="45.1941683" lon="11.6839"><ele>9.0</ele><time>2026-04-12T07:32:57.537Z</time></trkpt><trkpt lat="45.194105" lon="11.6838767"><ele>9.0</ele><time>2026-04-12T07:32:58.545Z</time></trkpt><trkpt lat="45.19404" lon="11.6838533"><ele>9.0</ele><time>2026-04-12T07:32:59.535Z</time></trkpt><trkpt lat="45.1939733" lon="11.6838267"><ele>9.000000000000002</ele><time>2026-04-12T07:33:00.53Z</time></trkpt><trkpt lat="45.1939067" lon="11.6838033"><ele>9.0</ele><time>2026-04-12T07:33:01.545Z</time></trkpt><trkpt lat="45.1938417" lon="11.68378"><ele>8.857142857142858</ele><time>2026-04-12T07:33:02.551Z</time></trkpt><trkpt lat="45.1937733" lon="11.6837583"><ele>8.714285714285715</ele><time>2026-04-12T07:33:03.532Z</time></trkpt><trkpt lat="45.1937083" lon="11.6837383"><ele>8.571428571428571</ele><time>2026-04-12T07:33:04.534Z</time></trkpt><trkpt lat="45.1936433" lon="11.6837167"><ele>8.428571428571429</ele><time>2026-04-12T07:33:05.538Z</time></trkpt><trkpt lat="45.1935767" lon="11.6836933"><ele>8.285714285714285</ele><time>2026-04-12T07:33:06.55Z</time></trkpt><trkpt lat="45.1935117" lon="11.6836733"><ele>8.142857142857142</ele><time>2026-04-12T07:33:07.536Z</time></trkpt><trkpt lat="45.1934483" lon="11.6836533"><ele>8.0</ele><time>2026-04-12T07:33:08.538Z</time></trkpt><trkpt lat="45.1933833" lon="11.683635"><ele>7.999999999999999</ele><time>2026-04-12T07:33:09.533Z</time></trkpt><trkpt lat="45.19332" lon="11.683615"><ele>8.0</ele><time>2026-04-12T07:33:10.536Z</time></trkpt><trkpt lat="45.1931967" lon="11.6835867"><ele>8.0</ele><time>2026-04-12T07:33:12.533Z</time></trkpt><trkpt lat="45.1931283" lon="11.6835683"><ele>8.0</ele><time>2026-04-12T07:33:13.535Z</time></trkpt><trkpt lat="45.1930567" lon="11.6835483"><ele>7.999999999999999</ele><time>2026-04-12T07:33:14.537Z</time></trkpt><trkpt lat="45.19299" lon="11.68353"><ele>8.0</ele><time>2026-04-12T07:33:15.541Z</time></trkpt><trkpt lat="45.1929217" lon="11.6835133"><ele>8.0</ele><time>2026-04-12T07:33:16.536Z</time></trkpt><trkpt lat="45.1928533" lon="11.6834933"><ele>7.999999999999999</ele><time>2026-04-12T07:33:17.535Z</time></trkpt><trkpt lat="45.1927867" lon="11.6834783"><ele>8.0</ele><time>2026-04-12T07:33:18.532Z</time></trkpt><trkpt lat="45.1927183" lon="11.68346"><ele>8.0</ele><time>2026-04-12T07:33:19.531Z</time></trkpt><trkpt lat="45.1926483" lon="11.68344"><ele>7.999999999999999</ele><time>2026-04-12T07:33:20.527Z</time></trkpt><trkpt lat="45.19258" lon="11.6834233"><ele>8.0</ele><time>2026-04-12T07:33:21.537Z</time></trkpt><trkpt lat="45.1925117" lon="11.6834167"><ele>8.0</ele><time>2026-04-12T07:33:22.544Z</time></trkpt><trkpt lat="45.1924483" lon="11.68341"><ele>8.0</ele><time>2026-04-12T07:33:23.542Z</time></trkpt><trkpt lat="45.1923233" lon="11.6833933"><ele>8.0</ele><time>2026-04-12T07:33:25.542Z</time></trkpt><trkpt lat="45.1922583" lon="11.683375"><ele>8.0</ele><time>2026-04-12T07:33:26.529Z</time></trkpt><trkpt lat="45.1921333" lon="11.6833467"><ele>8.0</ele><time>2026-04-12T07:33:28.528Z</time></trkpt><trkpt lat="45.19201" lon="11.6833167"><ele>8.0</ele><time>2026-04-12T07:33:30.536Z</time></trkpt><trkpt lat="45.1919433" lon="11.68329"><ele>8.0</ele><time>2026-04-12T07:33:31.536Z</time></trkpt><trkpt lat="45.1918783" lon="11.6832717"><ele>7.999999999999999</ele><time>2026-04-12T07:33:32.546Z</time></trkpt><trkpt lat="45.1918117" lon="11.6832517"><ele>8.0</ele><time>2026-04-12T07:33:33.536Z</time></trkpt><trkpt lat="45.1917467" lon="11.6832367"><ele>8.0</ele><time>2026-04-12T07:33:34.541Z</time></trkpt><trkpt lat="45.1916833" lon="11.68322"><ele>7.999999999999999</ele><time>2026-04-12T07:33:35.535Z</time></trkpt><trkpt lat="45.1916183" lon="11.6832017"><ele>8.0</ele><time>2026-04-12T07:33:36.535Z</time></trkpt><trkpt lat="45.1915533" lon="11.6831833"><ele>8.0</ele><time>2026-04-12T07:33:37.551Z</time></trkpt><trkpt lat="45.1914883" lon="11.6831633"><ele>8.0</ele><time>2026-04-12T07:33:38.552Z</time></trkpt><trkpt lat="45.1914233" lon="11.6831433"><ele>7.999999999999999</ele><time>2026-04-12T07:33:39.537Z</time></trkpt><trkpt lat="45.1913583" lon="11.6831283"><ele>8.0</ele><time>2026-04-12T07:33:40.553Z</time></trkpt><trkpt lat="45.191295" lon="11.6831117"><ele>8.0</ele><time>2026-04-12T07:33:41.552Z</time></trkpt><trkpt lat="45.19123" lon="11.6830933"><ele>7.999999999999999</ele><time>2026-04-12T07:33:42.533Z</time></trkpt><trkpt lat="45.1911667" lon="11.6830767"><ele>8.0</ele><time>2026-04-12T07:33:43.539Z</time></trkpt><trkpt lat="45.1911" lon="11.68306"><ele>8.0</ele><time>2026-04-12T07:33:44.549Z</time></trkpt><trkpt lat="45.1910367" lon="11.6830433"><ele>8.0</ele><time>2026-04-12T07:33:45.548Z</time></trkpt><trkpt lat="45.1909717" lon="11.6830267"><ele>7.999999999999999</ele><time>2026-04-12T07:33:46.551Z</time></trkpt><trkpt lat="45.1909067" lon="11.6830117"><ele>8.0</ele><time>2026-04-12T07:33:47.55Z</time></trkpt><trkpt lat="45.19084" lon="11.6829967"><ele>8.0</ele><time>2026-04-12T07:33:48.546Z</time></trkpt><trkpt lat="45.190775" lon="11.6829817"><ele>7.999999999999999</ele><time>2026-04-12T07:33:49.551Z</time></trkpt><trkpt lat="45.19071" lon="11.682965"><ele>8.0</ele><time>2026-04-12T07:33:50.536Z</time></trkpt><trkpt lat="45.1906467" lon="11.6829433"><ele>8.0</ele><time>2026-04-12T07:33:51.534Z</time></trkpt><trkpt lat="45.19058" lon="11.6829233"><ele>8.0</ele><time>2026-04-12T07:33:52.552Z</time></trkpt><trkpt lat="45.190515" lon="11.682905"><ele>7.999999999999999</ele><time>2026-04-12T07:33:53.554Z</time></trkpt><trkpt lat="45.1904467" lon="11.6828783"><ele>8.0</ele><time>2026-04-12T07:33:54.564Z</time></trkpt><trkpt lat="45.1903767" lon="11.6828517"><ele>8.0</ele><time>2026-04-12T07:33:55.564Z</time></trkpt><trkpt lat="45.19031" lon="11.682815"><ele>7.999999999999999</ele><time>2026-04-12T07:33:56.568Z</time></trkpt><trkpt lat="45.1902433" lon="11.6827767"><ele>8.0</ele><time>2026-04-12T07:33:57.566Z</time></trkpt><trkpt lat="45.1901783" lon="11.68274"><ele>8.0</ele><time>2026-04-12T07:33:58.57Z</time></trkpt><trkpt lat="45.1901133" lon="11.6826983"><ele>8.0</ele><time>2026-04-12T07:33:59.539Z</time></trkpt><trkpt lat="45.19005" lon="11.6826567"><ele>7.999999999999999</ele><time>2026-04-12T07:34:00.528Z</time></trkpt><trkpt lat="45.1899883" lon="11.6826067"><ele>8.0</ele><time>2026-04-12T07:34:01.527Z</time></trkpt><trkpt lat="45.1899283" lon="11.6825583"><ele>8.0</ele><time>2026-04-12T07:34:02.527Z</time></trkpt><trkpt lat="45.1898683" lon="11.6825067"><ele>7.999999999999999</ele><time>2026-04-12T07:34:03.528Z</time></trkpt><trkpt lat="45.1898133" lon="11.6824517"><ele>8.0</ele><time>2026-04-12T07:34:04.526Z</time></trkpt><trkpt lat="45.18976" lon="11.6823967"><ele>8.0</ele><time>2026-04-12T07:34:05.604Z</time></trkpt><trkpt lat="45.1896633" lon="11.6822867"><ele>7.857142857142857</ele><time>2026-04-12T07:34:07.527Z</time></trkpt><trkpt lat="45.1896133" lon="11.682225"><ele>7.7142857142857135</ele><time>2026-04-12T07:34:08.529Z</time></trkpt><trkpt lat="45.189555" lon="11.682175"><ele>7.571428571428571</ele><time>2026-04-12T07:34:09.534Z</time></trkpt><trkpt lat="45.1895" lon="11.6821083"><ele>7.428571428571429</ele><time>2026-04-12T07:34:10.545Z</time></trkpt><trkpt lat="45.1894417" lon="11.6820467"><ele>7.285714285714286</ele><time>2026-04-12T07:34:11.537Z</time></trkpt><trkpt lat="45.1893833" lon="11.6819917"><ele>7.142857142857142</ele><time>2026-04-12T07:34:12.537Z</time></trkpt><trkpt lat="45.18933" lon="11.6819283"><ele>7.0</ele><time>2026-04-12T07:34:13.533Z</time></trkpt><trkpt lat="45.1892767" lon="11.681865"><ele>7.0</ele><time>2026-04-12T07:34:14.539Z</time></trkpt><trkpt lat="45.18922" lon="11.681805"><ele>7.0</ele><time>2026-04-12T07:34:15.533Z</time></trkpt><trkpt lat="45.1891617" lon="11.6817433"><ele>7.0</ele><time>2026-04-12T07:34:16.537Z</time></trkpt><trkpt lat="45.1891067" lon="11.681685"><ele>7.0</ele><time>2026-04-12T07:34:17.527Z</time></trkpt><trkpt lat="45.1890517" lon="11.6816233"><ele>7.0</ele><time>2026-04-12T07:34:18.53Z</time></trkpt><trkpt lat="45.1890017" lon="11.6815617"><ele>7.0</ele><time>2026-04-12T07:34:19.539Z</time></trkpt><trkpt lat="45.1889533" lon="11.6815033"><ele>7.0</ele><time>2026-04-12T07:34:20.529Z</time></trkpt><trkpt lat="45.1889033" lon="11.6814417"><ele>7.0</ele><time>2026-04-12T07:34:21.529Z</time></trkpt><trkpt lat="45.1888567" lon="11.6813783"><ele>7.0</ele><time>2026-04-12T07:34:22.528Z</time></trkpt><trkpt lat="45.1888083" lon="11.6813183"><ele>7.0</ele><time>2026-04-12T07:34:23.531Z</time></trkpt><trkpt lat="45.1887583" lon="11.681255"><ele>7.0</ele><time>2026-04-12T07:34:24.535Z</time></trkpt><trkpt lat="45.1887083" lon="11.6811883"><ele>7.0</ele><time>2026-04-12T07:34:25.531Z</time></trkpt><trkpt lat="45.1886533" lon="11.68112"><ele>7.0</ele><time>2026-04-12T07:34:26.55Z</time></trkpt><trkpt lat="45.1885983" lon="11.6810583"><ele>7.0</ele><time>2026-04-12T07:34:27.546Z</time></trkpt><trkpt lat="45.188545" lon="11.681"><ele>7.000000000000001</ele><time>2026-04-12T07:34:28.543Z</time></trkpt><trkpt lat="45.1884917" lon="11.68094"><ele>7.0</ele><time>2026-04-12T07:34:29.533Z</time></trkpt><trkpt lat="45.1884383" lon="11.6808767"><ele>7.0</ele><time>2026-04-12T07:34:30.536Z</time></trkpt><trkpt lat="45.1883867" lon="11.6808133"><ele>7.0</ele><time>2026-04-12T07:34:31.531Z</time></trkpt><trkpt lat="45.18834" lon="11.6807517"><ele>7.000000000000001</ele><time>2026-04-12T07:34:32.538Z</time></trkpt><trkpt lat="45.18829" lon="11.6806933"><ele>7.0</ele><time>2026-04-12T07:34:33.543Z</time></trkpt><trkpt lat="45.1881933" lon="11.6805783"><ele>7.0</ele><time>2026-04-12T07:34:35.547Z</time></trkpt><trkpt lat="45.188145" lon="11.680515"><ele>7.0</ele><time>2026-04-12T07:34:36.536Z</time></trkpt><trkpt lat="45.1881" lon="11.6804517"><ele>7.0</ele><time>2026-04-12T07:34:37.541Z</time></trkpt><trkpt lat="45.18805" lon="11.6803917"><ele>7.0</ele><time>2026-04-12T07:34:38.531Z</time></trkpt><trkpt lat="45.1879967" lon="11.68033"><ele>7.0</ele><time>2026-04-12T07:34:39.53Z</time></trkpt><trkpt lat="45.1879433" lon="11.6802717"><ele>7.0</ele><time>2026-04-12T07:34:40.557Z</time></trkpt><trkpt lat="45.1878917" lon="11.6802083"><ele>7.0</ele><time>2026-04-12T07:34:41.538Z</time></trkpt><trkpt lat="45.1878367" lon="11.68015"><ele>7.0</ele><time>2026-04-12T07:34:42.532Z</time></trkpt><trkpt lat="45.187785" lon="11.6800917"><ele>7.0</ele><time>2026-04-12T07:34:43.532Z</time></trkpt><trkpt lat="45.1877283" lon="11.6800283"><ele>7.0</ele><time>2026-04-12T07:34:44.546Z</time></trkpt><trkpt lat="45.1876733" lon="11.679965"><ele>7.0</ele><time>2026-04-12T07:34:45.533Z</time></trkpt><trkpt lat="45.1876183" lon="11.6799067"><ele>7.0</ele><time>2026-04-12T07:34:46.53Z</time></trkpt><trkpt lat="45.1875633" lon="11.679845"><ele>7.0</ele><time>2026-04-12T07:34:47.536Z</time></trkpt><trkpt lat="45.1875117" lon="11.679785"><ele>7.0</ele><time>2026-04-12T07:34:48.549Z</time></trkpt><trkpt lat="45.18746" lon="11.6797233"><ele>7.0</ele><time>2026-04-12T07:34:49.538Z</time></trkpt><trkpt lat="45.1874067" lon="11.67966"><ele>7.0</ele><time>2026-04-12T07:34:50.534Z</time></trkpt><trkpt lat="45.187355" lon="11.6795983"><ele>7.0</ele><time>2026-04-12T07:34:51.548Z</time></trkpt><trkpt lat="45.1873083" lon="11.6795383"><ele>7.0</ele><time>2026-04-12T07:34:52.53Z</time></trkpt><trkpt lat="45.1872567" lon="11.6794767"><ele>7.0</ele><time>2026-04-12T07:34:53.535Z</time></trkpt><trkpt lat="45.1872033" lon="11.679415"><ele>7.0</ele><time>2026-04-12T07:34:54.543Z</time></trkpt><trkpt lat="45.1871517" lon="11.6793533"><ele>7.0</ele><time>2026-04-12T07:34:55.531Z</time></trkpt><trkpt lat="45.1871" lon="11.6792933"><ele>7.0</ele><time>2026-04-12T07:34:56.53Z</time></trkpt><trkpt lat="45.1870483" lon="11.67923"><ele>7.0</ele><time>2026-04-12T07:34:57.544Z</time></trkpt><trkpt lat="45.1869967" lon="11.6791667"><ele>7.0</ele><time>2026-04-12T07:34:58.534Z</time></trkpt><trkpt lat="45.186945" lon="11.679105"><ele>7.0</ele><time>2026-04-12T07:34:59.542Z</time></trkpt><trkpt lat="45.1868933" lon="11.67904"><ele>7.0</ele><time>2026-04-12T07:35:00.536Z</time></trkpt><trkpt lat="45.1868417" lon="11.6789767"><ele>7.0</ele><time>2026-04-12T07:35:01.529Z</time></trkpt><trkpt lat="45.1867883" lon="11.6789133"><ele>7.0</ele><time>2026-04-12T07:35:02.537Z</time></trkpt><trkpt lat="45.186735" lon="11.6788533"><ele>7.0</ele><time>2026-04-12T07:35:03.541Z</time></trkpt><trkpt lat="45.1866817" lon="11.678795"><ele>7.0</ele><time>2026-04-12T07:35:04.528Z</time></trkpt><trkpt lat="45.1866317" lon="11.6787367"><ele>7.0</ele><time>2026-04-12T07:35:05.528Z</time></trkpt><trkpt lat="45.1865833" lon="11.678675"><ele>7.0</ele><time>2026-04-12T07:35:06.535Z</time></trkpt><trkpt lat="45.1865317" lon="11.6786133"><ele>7.0</ele><time>2026-04-12T07:35:07.53Z</time></trkpt><trkpt lat="45.18648" lon="11.67855"><ele>7.0</ele><time>2026-04-12T07:35:08.527Z</time></trkpt><trkpt lat="45.1864283" lon="11.678485"><ele>7.0</ele><time>2026-04-12T07:35:09.541Z</time></trkpt><trkpt lat="45.18638" lon="11.6784167"><ele>6.833333333333334</ele><time>2026-04-12T07:35:10.546Z</time></trkpt><trkpt lat="45.1863333" lon="11.67835"><ele>6.666666666666667</ele><time>2026-04-12T07:35:11.538Z</time></trkpt><trkpt lat="45.1862867" lon="11.6782833"><ele>6.5</ele><time>2026-04-12T07:35:12.536Z</time></trkpt><trkpt lat="45.1862033" lon="11.6781567"><ele>6.333333333333334</ele><time>2026-04-12T07:35:14.553Z</time></trkpt><trkpt lat="45.1861233" lon="11.67802"><ele>6.166666666666667</ele><time>2026-04-12T07:35:16.547Z</time></trkpt><trkpt lat="45.1860833" lon="11.6779467"><ele>6.0</ele><time>2026-04-12T07:35:17.537Z</time></trkpt><trkpt lat="45.1860467" lon="11.6778717"><ele>6.333333333333333</ele><time>2026-04-12T07:35:18.535Z</time></trkpt><trkpt lat="45.1859783" lon="11.6777217"><ele>6.666666666666666</ele><time>2026-04-12T07:35:20.533Z</time></trkpt><trkpt lat="45.1859417" lon="11.6776433"><ele>7.0</ele><time>2026-04-12T07:35:21.538Z</time></trkpt><trkpt lat="45.1858733" lon="11.67749"><ele>7.333333333333333</ele><time>2026-04-12T07:35:23.538Z</time></trkpt><trkpt lat="45.18584" lon="11.6774133"><ele>7.666666666666666</ele><time>2026-04-12T07:35:24.532Z</time></trkpt><trkpt lat="45.1858067" lon="11.677335"><ele>8.0</ele><time>2026-04-12T07:35:25.537Z</time></trkpt><trkpt lat="45.1857467" lon="11.6771867"><ele>7.999999999999999</ele><time>2026-04-12T07:35:27.536Z</time></trkpt><trkpt lat="45.1856883" lon="11.6770333"><ele>8.0</ele><time>2026-04-12T07:35:29.536Z</time></trkpt><trkpt lat="45.185655" lon="11.6769517"><ele>8.0</ele><time>2026-04-12T07:35:30.527Z</time></trkpt><trkpt lat="45.1856217" lon="11.676875"><ele>8.0</ele><time>2026-04-12T07:35:31.527Z</time></trkpt><trkpt lat="45.1855883" lon="11.676795"><ele>7.999999999999999</ele><time>2026-04-12T07:35:32.525Z</time></trkpt><trkpt lat="45.1855533" lon="11.6767083"><ele>8.0</ele><time>2026-04-12T07:35:33.547Z</time></trkpt><trkpt lat="45.1855217" lon="11.6766283"><ele>7.833333333333333</ele><time>2026-04-12T07:35:34.526Z</time></trkpt><trkpt lat="45.1854917" lon="11.676545"><ele>7.666666666666666</ele><time>2026-04-12T07:35:35.532Z</time></trkpt><trkpt lat="45.1854567" lon="11.6764633"><ele>7.5</ele><time>2026-04-12T07:35:36.536Z</time></trkpt><trkpt lat="45.185425" lon="11.6763833"><ele>7.333333333333334</ele><time>2026-04-12T07:35:37.527Z</time></trkpt><trkpt lat="45.1853917" lon="11.6763067"><ele>7.166666666666667</ele><time>2026-04-12T07:35:38.566Z</time></trkpt><trkpt lat="45.1853583" lon="11.67623"><ele>7.0</ele><time>2026-04-12T07:35:39.532Z</time></trkpt><trkpt lat="45.1852967" lon="11.676075"><ele>7.0</ele><time>2026-04-12T07:35:41.538Z</time></trkpt><trkpt lat="45.1852667" lon="11.675995"><ele>7.0</ele><time>2026-04-12T07:35:42.527Z</time></trkpt><trkpt lat="45.1852367" lon="11.675915"><ele>7.0</ele><time>2026-04-12T07:35:43.53Z</time></trkpt><trkpt lat="45.1852017" lon="11.67583"><ele>7.0</ele><time>2026-04-12T07:35:44.536Z</time></trkpt><trkpt lat="45.18517" lon="11.6757483"><ele>7.0</ele><time>2026-04-12T07:35:45.529Z</time></trkpt><trkpt lat="45.1851383" lon="11.6756667"><ele>7.0</ele><time>2026-04-12T07:35:46.537Z</time></trkpt><trkpt lat="45.1851033" lon="11.67559"><ele>7.0</ele><time>2026-04-12T07:35:47.541Z</time></trkpt><trkpt lat="45.1850633" lon="11.6755117"><ele>7.0</ele><time>2026-04-12T07:35:48.537Z</time></trkpt><trkpt lat="45.1850217" lon="11.6754317"><ele>7.0</ele><time>2026-04-12T07:35:49.544Z</time></trkpt><trkpt lat="45.18498" lon="11.6753517"><ele>7.0</ele><time>2026-04-12T07:35:50.53Z</time></trkpt><trkpt lat="45.18494" lon="11.6752733"><ele>7.0</ele><time>2026-04-12T07:35:51.546Z</time></trkpt><trkpt lat="45.1848967" lon="11.675195"><ele>7.0</ele><time>2026-04-12T07:35:52.533Z</time></trkpt><trkpt lat="45.1848517" lon="11.6751133"><ele>7.0</ele><time>2026-04-12T07:35:53.539Z</time></trkpt><trkpt lat="45.1848083" lon="11.6750383"><ele>7.0</ele><time>2026-04-12T07:35:54.537Z</time></trkpt><trkpt lat="45.184765" lon="11.67496"><ele>7.0</ele><time>2026-04-12T07:35:55.561Z</time></trkpt><trkpt lat="45.1847217" lon="11.6748867"><ele>7.0</ele><time>2026-04-12T07:35:56.537Z</time></trkpt><trkpt lat="45.18468" lon="11.67481"><ele>7.0</ele><time>2026-04-12T07:35:57.534Z</time></trkpt><trkpt lat="45.1846383" lon="11.67473"><ele>7.0</ele><time>2026-04-12T07:35:58.539Z</time></trkpt><trkpt lat="45.1845983" lon="11.6746533"><ele>7.0</ele><time>2026-04-12T07:35:59.527Z</time></trkpt><trkpt lat="45.1845583" lon="11.6745783"><ele>7.0</ele><time>2026-04-12T07:36:00.536Z</time></trkpt><trkpt lat="45.1845167" lon="11.674505"><ele>7.0</ele><time>2026-04-12T07:36:01.533Z</time></trkpt><trkpt lat="45.1844767" lon="11.6744333"><ele>7.000000000000001</ele><time>2026-04-12T07:36:02.529Z</time></trkpt><trkpt lat="45.184435" lon="11.6743567"><ele>7.0</ele><time>2026-04-12T07:36:03.536Z</time></trkpt><trkpt lat="45.184395" lon="11.67428"><ele>7.0</ele><time>2026-04-12T07:36:04.533Z</time></trkpt><trkpt lat="45.1843567" lon="11.6742067"><ele>7.0</ele><time>2026-04-12T07:36:05.532Z</time></trkpt><trkpt lat="45.18432" lon="11.6741317"><ele>7.000000000000001</ele><time>2026-04-12T07:36:06.537Z</time></trkpt><trkpt lat="45.1842833" lon="11.6740583"><ele>7.0</ele><time>2026-04-12T07:36:07.527Z</time></trkpt><trkpt lat="45.1842117" lon="11.67391"><ele>7.000000000000001</ele><time>2026-04-12T07:36:09.535Z</time></trkpt><trkpt lat="45.184145" lon="11.6737567"><ele>7.0</ele><time>2026-04-12T07:36:11.534Z</time></trkpt><trkpt lat="45.1841117" lon="11.6736783"><ele>7.0</ele><time>2026-04-12T07:36:12.53Z</time></trkpt><trkpt lat="45.1840483" lon="11.6735317"><ele>7.0</ele><time>2026-04-12T07:36:14.536Z</time></trkpt><trkpt lat="45.1840117" lon="11.6734567"><ele>7.000000000000001</ele><time>2026-04-12T07:36:15.54Z</time></trkpt><trkpt lat="45.1839767" lon="11.6733783"><ele>7.0</ele><time>2026-04-12T07:36:16.573Z</time></trkpt><trkpt lat="45.1839383" lon="11.6732983"><ele>7.0</ele><time>2026-04-12T07:36:17.546Z</time></trkpt><trkpt lat="45.1839017" lon="11.6732183"><ele>7.0</ele><time>2026-04-12T07:36:18.534Z</time></trkpt><trkpt lat="45.1838633" lon="11.67314"><ele>7.0</ele><time>2026-04-12T07:36:19.545Z</time></trkpt><trkpt lat="45.183825" lon="11.6730567"><ele>7.0</ele><time>2026-04-12T07:36:20.534Z</time></trkpt><trkpt lat="45.183785" lon="11.6729767"><ele>7.0</ele><time>2026-04-12T07:36:21.543Z</time></trkpt><trkpt lat="45.183745" lon="11.6728983"><ele>7.0</ele><time>2026-04-12T07:36:22.548Z</time></trkpt><trkpt lat="45.1837017" lon="11.6728217"><ele>7.0</ele><time>2026-04-12T07:36:23.551Z</time></trkpt><trkpt lat="45.1836617" lon="11.6727467"><ele>7.0</ele><time>2026-04-12T07:36:24.546Z</time></trkpt><trkpt lat="45.183625" lon="11.6726717"><ele>7.0</ele><time>2026-04-12T07:36:25.552Z</time></trkpt><trkpt lat="45.1835883" lon="11.6725983"><ele>7.0</ele><time>2026-04-12T07:36:26.536Z</time></trkpt><trkpt lat="45.183515" lon="11.6724517"><ele>7.0</ele><time>2026-04-12T07:36:28.526Z</time></trkpt><trkpt lat="45.1834767" lon="11.6723783"><ele>7.0</ele><time>2026-04-12T07:36:29.546Z</time></trkpt><trkpt lat="45.1834383" lon="11.672305"><ele>7.0</ele><time>2026-04-12T07:36:30.54Z</time></trkpt><trkpt lat="45.1833967" lon="11.672235"><ele>7.0</ele><time>2026-04-12T07:36:31.536Z</time></trkpt><trkpt lat="45.1833217" lon="11.6720983"><ele>7.000000000000001</ele><time>2026-04-12T07:36:33.534Z</time></trkpt><trkpt lat="45.1832817" lon="11.6720267"><ele>7.0</ele><time>2026-04-12T07:36:34.542Z</time></trkpt><trkpt lat="45.18324" lon="11.671955"><ele>7.0</ele><time>2026-04-12T07:36:35.542Z</time></trkpt><trkpt lat="45.1831567" lon="11.671825"><ele>7.0</ele><time>2026-04-12T07:36:37.534Z</time></trkpt><trkpt lat="45.1831067" lon="11.6717617"><ele>7.000000000000001</ele><time>2026-04-12T07:36:38.543Z</time></trkpt><trkpt lat="45.1830517" lon="11.6717067"><ele>7.0</ele><time>2026-04-12T07:36:39.533Z</time></trkpt><trkpt lat="45.182985" lon="11.6716583"><ele>7.142857142857142</ele><time>2026-04-12T07:36:40.534Z</time></trkpt><trkpt lat="45.182925" lon="11.6716117"><ele>7.285714285714286</ele><time>2026-04-12T07:36:41.55Z</time></trkpt><trkpt lat="45.182865" lon="11.67157"><ele>7.428571428571429</ele><time>2026-04-12T07:36:42.543Z</time></trkpt><trkpt lat="45.1828033" lon="11.67153"><ele>7.571428571428571</ele><time>2026-04-12T07:36:43.54Z</time></trkpt><trkpt lat="45.18274" lon="11.67149"><ele>7.7142857142857135</ele><time>2026-04-12T07:36:44.532Z</time></trkpt><trkpt lat="45.1826767" lon="11.67145"><ele>7.857142857142857</ele><time>2026-04-12T07:36:45.538Z</time></trkpt><trkpt lat="45.1826133" lon="11.6714217"><ele>8.0</ele><time>2026-04-12T07:36:46.534Z</time></trkpt><trkpt lat="45.182545" lon="11.6713933"><ele>8.0</ele><time>2026-04-12T07:36:47.526Z</time></trkpt><trkpt lat="45.1824783" lon="11.6713717"><ele>7.999999999999999</ele><time>2026-04-12T07:36:48.533Z</time></trkpt><trkpt lat="45.1824117" lon="11.671355"><ele>8.0</ele><time>2026-04-12T07:36:49.549Z</time></trkpt><trkpt lat="45.182345" lon="11.67134"><ele>8.0</ele><time>2026-04-12T07:36:50.525Z</time></trkpt><trkpt lat="45.1822783" lon="11.6713317"><ele>7.999999999999999</ele><time>2026-04-12T07:36:51.549Z</time></trkpt><trkpt lat="45.1822117" lon="11.6713233"><ele>8.0</ele><time>2026-04-12T07:36:52.533Z</time></trkpt><trkpt lat="45.182145" lon="11.6713167"><ele>8.0</ele><time>2026-04-12T07:36:53.532Z</time></trkpt><trkpt lat="45.1820183" lon="11.6712983"><ele>7.7142857142857135</ele><time>2026-04-12T07:36:55.538Z</time></trkpt><trkpt lat="45.1819517" lon="11.67129"><ele>7.428571428571428</ele><time>2026-04-12T07:36:56.54Z</time></trkpt><trkpt lat="45.1818783" lon="11.6712817"><ele>7.142857142857142</ele><time>2026-04-12T07:36:57.539Z</time></trkpt><trkpt lat="45.1818117" lon="11.6712733"><ele>6.857142857142857</ele><time>2026-04-12T07:36:58.548Z</time></trkpt><trkpt lat="45.181745" lon="11.6712667"><ele>6.571428571428571</ele><time>2026-04-12T07:36:59.537Z</time></trkpt><trkpt lat="45.1816767" lon="11.6712617"><ele>6.285714285714285</ele><time>2026-04-12T07:37:00.544Z</time></trkpt><trkpt lat="45.1816083" lon="11.6712583"><ele>6.0</ele><time>2026-04-12T07:37:01.535Z</time></trkpt><trkpt lat="45.1815433" lon="11.6712517"><ele>5.833333333333333</ele><time>2026-04-12T07:37:02.55Z</time></trkpt><trkpt lat="45.1814783" lon="11.6712467"><ele>5.666666666666667</ele><time>2026-04-12T07:37:03.545Z</time></trkpt><trkpt lat="45.1813567" lon="11.6712367"><ele>5.5</ele><time>2026-04-12T07:37:05.551Z</time></trkpt><trkpt lat="45.181235" lon="11.671225"><ele>5.333333333333334</ele><time>2026-04-12T07:37:07.547Z</time></trkpt><trkpt lat="45.1811717" lon="11.67122"><ele>5.166666666666667</ele><time>2026-04-12T07:37:08.541Z</time></trkpt><trkpt lat="45.1811083" lon="11.6712133"><ele>5.0</ele><time>2026-04-12T07:37:09.546Z</time></trkpt><trkpt lat="45.1810433" lon="11.671205"><ele>5.0</ele><time>2026-04-12T07:37:10.548Z</time></trkpt><trkpt lat="45.180925" lon="11.6711917"><ele>5.0</ele><time>2026-04-12T07:37:12.55Z</time></trkpt><trkpt lat="45.1808617" lon="11.6711833"><ele>5.0</ele><time>2026-04-12T07:37:13.534Z</time></trkpt><trkpt lat="45.1807967" lon="11.6711783"><ele>5.0</ele><time>2026-04-12T07:37:14.546Z</time></trkpt><trkpt lat="45.1807317" lon="11.6711717"><ele>5.0</ele><time>2026-04-12T07:37:15.536Z</time></trkpt><trkpt lat="45.1806683" lon="11.6711683"><ele>5.0</ele><time>2026-04-12T07:37:16.533Z</time></trkpt><trkpt lat="45.180605" lon="11.67116"><ele>5.0</ele><time>2026-04-12T07:37:17.528Z</time></trkpt><trkpt lat="45.1804867" lon="11.67115"><ele>5.142857142857142</ele><time>2026-04-12T07:37:19.548Z</time></trkpt><trkpt lat="45.1803633" lon="11.67114"><ele>5.285714285714286</ele><time>2026-04-12T07:37:21.529Z</time></trkpt><trkpt lat="45.1802983" lon="11.671135"><ele>5.428571428571429</ele><time>2026-04-12T07:37:22.546Z</time></trkpt><trkpt lat="45.18023" lon="11.6711283"><ele>5.571428571428571</ele><time>2026-04-12T07:37:23.543Z</time></trkpt><trkpt lat="45.1801667" lon="11.6711217"><ele>5.714285714285714</ele><time>2026-04-12T07:37:24.549Z</time></trkpt><trkpt lat="45.1801033" lon="11.67112"><ele>5.857142857142857</ele><time>2026-04-12T07:37:25.546Z</time></trkpt><trkpt lat="45.18004" lon="11.6711133"><ele>6.0</ele><time>2026-04-12T07:37:26.537Z</time></trkpt><trkpt lat="45.1799217" lon="11.6711033"><ele>6.4</ele><time>2026-04-12T07:37:28.532Z</time></trkpt><trkpt lat="45.1798017" lon="11.6710917"><ele>6.8</ele><time>2026-04-12T07:37:30.55Z</time></trkpt><trkpt lat="45.1797383" lon="11.6710883"><ele>7.200000000000001</ele><time>2026-04-12T07:37:31.55Z</time></trkpt><trkpt lat="45.179675" lon="11.6710833"><ele>7.6000000000000005</ele><time>2026-04-12T07:37:32.537Z</time></trkpt><trkpt lat="45.1795517" lon="11.671075"><ele>8.0</ele><time>2026-04-12T07:37:34.551Z</time></trkpt><trkpt lat="45.17943" lon="11.67107"><ele>7.999999999999999</ele><time>2026-04-12T07:37:36.528Z</time></trkpt><trkpt lat="45.179365" lon="11.6710667"><ele>8.0</ele><time>2026-04-12T07:37:37.533Z</time></trkpt><trkpt lat="45.1793017" lon="11.6710583"><ele>8.0</ele><time>2026-04-12T07:37:38.533Z</time></trkpt><trkpt lat="45.1791817" lon="11.6710483"><ele>8.0</ele><time>2026-04-12T07:37:40.529Z</time></trkpt><trkpt lat="45.179065" lon="11.6710417"><ele>7.999999999999999</ele><time>2026-04-12T07:37:42.532Z</time></trkpt><trkpt lat="45.1790017" lon="11.6710367"><ele>8.0</ele><time>2026-04-12T07:37:43.532Z</time></trkpt><trkpt lat="45.1789383" lon="11.6710333"><ele>8.0</ele><time>2026-04-12T07:37:44.537Z</time></trkpt><trkpt lat="45.1788733" lon="11.6710267"><ele>7.999999999999999</ele><time>2026-04-12T07:37:45.555Z</time></trkpt><trkpt lat="45.17881" lon="11.6710233"><ele>8.0</ele><time>2026-04-12T07:37:46.532Z</time></trkpt><trkpt lat="45.178745" lon="11.67102"><ele>8.0</ele><time>2026-04-12T07:37:47.55Z</time></trkpt><trkpt lat="45.1786817" lon="11.6710183"><ele>7.999999999999999</ele><time>2026-04-12T07:37:48.534Z</time></trkpt><trkpt lat="45.1786183" lon="11.6710167"><ele>8.0</ele><time>2026-04-12T07:37:49.543Z</time></trkpt><trkpt lat="45.1784917" lon="11.671005"><ele>8.0</ele><time>2026-04-12T07:37:51.53Z</time></trkpt><trkpt lat="45.1783667" lon="11.6709983"><ele>8.0</ele><time>2026-04-12T07:37:53.537Z</time></trkpt><trkpt lat="45.17825" lon="11.6709933"><ele>8.0</ele><time>2026-04-12T07:37:55.539Z</time></trkpt><trkpt lat="45.1781267" lon="11.6709767"><ele>8.0</ele><time>2026-04-12T07:37:57.533Z</time></trkpt><trkpt lat="45.178005" lon="11.6709633"><ele>8.0</ele><time>2026-04-12T07:37:59.529Z</time></trkpt><trkpt lat="45.17794" lon="11.670955"><ele>8.0</ele><time>2026-04-12T07:38:00.546Z</time></trkpt><trkpt lat="45.1778767" lon="11.6709483"><ele>8.0</ele><time>2026-04-12T07:38:01.53Z</time></trkpt><trkpt lat="45.1777483" lon="11.67094"><ele>8.0</ele><time>2026-04-12T07:38:03.546Z</time></trkpt><trkpt lat="45.17768" lon="11.6709383"><ele>8.0</ele><time>2026-04-12T07:38:04.531Z</time></trkpt><trkpt lat="45.1775533" lon="11.6709233"><ele>8.0</ele><time>2026-04-12T07:38:06.546Z</time></trkpt><trkpt lat="45.1774867" lon="11.6709133"><ele>8.0</ele><time>2026-04-12T07:38:07.541Z</time></trkpt><trkpt lat="45.1774183" lon="11.670905"><ele>7.833333333333333</ele><time>2026-04-12T07:38:08.538Z</time></trkpt><trkpt lat="45.17729" lon="11.67089"><ele>7.666666666666666</ele><time>2026-04-12T07:38:10.538Z</time></trkpt><trkpt lat="45.177225" lon="11.67089"><ele>7.5</ele><time>2026-04-12T07:38:11.535Z</time></trkpt><trkpt lat="45.1771567" lon="11.6708833"><ele>7.333333333333334</ele><time>2026-04-12T07:38:12.542Z</time></trkpt><trkpt lat="45.1770883" lon="11.670875"><ele>7.166666666666667</ele><time>2026-04-12T07:38:13.537Z</time></trkpt><trkpt lat="45.1770183" lon="11.670865"><ele>7.0</ele><time>2026-04-12T07:38:14.552Z</time></trkpt><trkpt lat="45.1769483" lon="11.6708567"><ele>7.0</ele><time>2026-04-12T07:38:15.536Z</time></trkpt><trkpt lat="45.1768783" lon="11.6708567"><ele>7.0</ele><time>2026-04-12T07:38:16.539Z</time></trkpt><trkpt lat="45.1768117" lon="11.6708533"><ele>7.0</ele><time>2026-04-12T07:38:17.534Z</time></trkpt><trkpt lat="45.1767467" lon="11.67085"><ele>7.0</ele><time>2026-04-12T07:38:18.547Z</time></trkpt><trkpt lat="45.1766817" lon="11.6708483"><ele>7.0</ele><time>2026-04-12T07:38:19.543Z</time></trkpt><trkpt lat="45.1766167" lon="11.67084"><ele>7.0</ele><time>2026-04-12T07:38:20.537Z</time></trkpt><trkpt lat="45.1765517" lon="11.6708267"><ele>7.0</ele><time>2026-04-12T07:38:21.531Z</time></trkpt><trkpt lat="45.176485" lon="11.6708117"><ele>7.166666666666667</ele><time>2026-04-12T07:38:22.537Z</time></trkpt><trkpt lat="45.1764183" lon="11.670795"><ele>7.333333333333334</ele><time>2026-04-12T07:38:23.534Z</time></trkpt><trkpt lat="45.1763567" lon="11.670775"><ele>7.5</ele><time>2026-04-12T07:38:24.53Z</time></trkpt><trkpt lat="45.176295" lon="11.6707517"><ele>7.666666666666666</ele><time>2026-04-12T07:38:25.535Z</time></trkpt><trkpt lat="45.1761783" lon="11.6707"><ele>7.833333333333333</ele><time>2026-04-12T07:38:27.534Z</time></trkpt><trkpt lat="45.176065" lon="11.670635"><ele>8.0</ele><time>2026-04-12T07:38:29.543Z</time></trkpt><trkpt lat="45.1759517" lon="11.670555"><ele>8.0</ele><time>2026-04-12T07:38:31.534Z</time></trkpt><trkpt lat="45.1758433" lon="11.6704683"><ele>8.0</ele><time>2026-04-12T07:38:33.533Z</time></trkpt><trkpt lat="45.175735" lon="11.6703783"><ele>8.0</ele><time>2026-04-12T07:38:35.531Z</time></trkpt><trkpt lat="45.1756267" lon="11.6702833"><ele>8.0</ele><time>2026-04-12T07:38:37.536Z</time></trkpt><trkpt lat="45.1755717" lon="11.6702367"><ele>8.0</ele><time>2026-04-12T07:38:38.534Z</time></trkpt><trkpt lat="45.1755167" lon="11.6701833"><ele>8.0</ele><time>2026-04-12T07:38:39.528Z</time></trkpt><trkpt lat="45.1754617" lon="11.6701317"><ele>7.999999999999999</ele><time>2026-04-12T07:38:40.54Z</time></trkpt><trkpt lat="45.1754033" lon="11.6700817"><ele>8.0</ele><time>2026-04-12T07:38:41.528Z</time></trkpt><trkpt lat="45.1753483" lon="11.6700333"><ele>8.0</ele><time>2026-04-12T07:38:42.54Z</time></trkpt><trkpt lat="45.1752767" lon="11.6699683"><ele>7.999999999999999</ele><time>2026-04-12T07:38:43.53Z</time></trkpt><trkpt lat="45.1752233" lon="11.6699117"><ele>8.0</ele><time>2026-04-12T07:38:44.53Z</time></trkpt><trkpt lat="45.1751717" lon="11.6698567"><ele>8.0</ele><time>2026-04-12T07:38:45.531Z</time></trkpt><trkpt lat="45.1750683" lon="11.6697567"><ele>7.999999999999999</ele><time>2026-04-12T07:38:47.531Z</time></trkpt><trkpt lat="45.1749633" lon="11.6696617"><ele>8.0</ele><time>2026-04-12T07:38:49.533Z</time></trkpt><trkpt lat="45.1749117" lon="11.6696067"><ele>8.0</ele><time>2026-04-12T07:38:50.549Z</time></trkpt><trkpt lat="45.1748533" lon="11.6695483"><ele>8.0</ele><time>2026-04-12T07:38:51.541Z</time></trkpt><trkpt lat="45.1747967" lon="11.6694917"><ele>7.999999999999999</ele><time>2026-04-12T07:38:52.537Z</time></trkpt><trkpt lat="45.1747367" lon="11.6694367"><ele>8.0</ele><time>2026-04-12T07:38:53.538Z</time></trkpt><trkpt lat="45.17468" lon="11.669385"><ele>8.0</ele><time>2026-04-12T07:38:54.531Z</time></trkpt><trkpt lat="45.17462" lon="11.6693283"><ele>7.999999999999999</ele><time>2026-04-12T07:38:55.529Z</time></trkpt><trkpt lat="45.1745617" lon="11.6692717"><ele>8.0</ele><time>2026-04-12T07:38:56.549Z</time></trkpt><trkpt lat="45.1744967" lon="11.669215"><ele>8.0</ele><time>2026-04-12T07:38:57.538Z</time></trkpt><trkpt lat="45.174435" lon="11.6691633"><ele>7.999999999999999</ele><time>2026-04-12T07:38:58.534Z</time></trkpt><trkpt lat="45.1743733" lon="11.6691117"><ele>8.0</ele><time>2026-04-12T07:38:59.527Z</time></trkpt><trkpt lat="45.174315" lon="11.6690583"><ele>8.0</ele><time>2026-04-12T07:39:00.532Z</time></trkpt><trkpt lat="45.1742567" lon="11.669005"><ele>8.0</ele><time>2026-04-12T07:39:01.534Z</time></trkpt><trkpt lat="45.1741967" lon="11.6689483"><ele>7.999999999999999</ele><time>2026-04-12T07:39:02.531Z</time></trkpt><trkpt lat="45.1741383" lon="11.6688967"><ele>8.0</ele><time>2026-04-12T07:39:03.542Z</time></trkpt><trkpt lat="45.174085" lon="11.6688483"><ele>8.0</ele><time>2026-04-12T07:39:04.527Z</time></trkpt><trkpt lat="45.1740283" lon="11.6688"><ele>7.999999999999999</ele><time>2026-04-12T07:39:05.535Z</time></trkpt><trkpt lat="45.17397" lon="11.6687483"><ele>8.0</ele><time>2026-04-12T07:39:06.528Z</time></trkpt><trkpt lat="45.1739133" lon="11.6687067"><ele>8.0</ele><time>2026-04-12T07:39:07.543Z</time></trkpt><trkpt lat="45.173805" lon="11.6686083"><ele>8.200000000000001</ele><time>2026-04-12T07:39:09.535Z</time></trkpt><trkpt lat="45.1737517" lon="11.6685567"><ele>8.4</ele><time>2026-04-12T07:39:10.534Z</time></trkpt><trkpt lat="45.17365" lon="11.66846"><ele>8.600000000000001</ele><time>2026-04-12T07:39:12.555Z</time></trkpt><trkpt lat="45.1735533" lon="11.6683733"><ele>8.8</ele><time>2026-04-12T07:39:14.534Z</time></trkpt><trkpt lat="45.17346" lon="11.6682717"><ele>9.0</ele><time>2026-04-12T07:39:16.533Z</time></trkpt><trkpt lat="45.1733667" lon="11.66818"><ele>9.0</ele><time>2026-04-12T07:39:18.56Z</time></trkpt><trkpt lat="45.173275" lon="11.6680917"><ele>9.0</ele><time>2026-04-12T07:39:20.534Z</time></trkpt><trkpt lat="45.173185" lon="11.6680033"><ele>9.0</ele><time>2026-04-12T07:39:22.541Z</time></trkpt><trkpt lat="45.1730883" lon="11.6679033"><ele>9.0</ele><time>2026-04-12T07:39:24.534Z</time></trkpt><trkpt lat="45.1730317" lon="11.6678533"><ele>9.0</ele><time>2026-04-12T07:39:25.536Z</time></trkpt><trkpt lat="45.1729717" lon="11.667805"><ele>9.0</ele><time>2026-04-12T07:39:26.537Z</time></trkpt><trkpt lat="45.1729083" lon="11.66776"><ele>9.0</ele><time>2026-04-12T07:39:27.547Z</time></trkpt><trkpt lat="45.17285" lon="11.6677167"><ele>9.0</ele><time>2026-04-12T07:39:28.527Z</time></trkpt><trkpt lat="45.1727467" lon="11.6676267"><ele>9.0</ele><time>2026-04-12T07:39:30.531Z</time></trkpt><trkpt lat="45.1726483" lon="11.6675383"><ele>9.0</ele><time>2026-04-12T07:39:32.533Z</time></trkpt><trkpt lat="45.1725483" lon="11.667455"><ele>9.0</ele><time>2026-04-12T07:39:34.547Z</time></trkpt><trkpt lat="45.172495" lon="11.6674067"><ele>9.0</ele><time>2026-04-12T07:39:35.547Z</time></trkpt><trkpt lat="45.1723983" lon="11.6673083"><ele>9.0</ele><time>2026-04-12T07:39:37.552Z</time></trkpt><trkpt lat="45.172295" lon="11.667215"><ele>9.0</ele><time>2026-04-12T07:39:39.533Z</time></trkpt><trkpt lat="45.1721983" lon="11.6671333"><ele>9.0</ele><time>2026-04-12T07:39:41.547Z</time></trkpt><trkpt lat="45.1720983" lon="11.6670517"><ele>8.8</ele><time>2026-04-12T07:39:43.539Z</time></trkpt><trkpt lat="45.1720083" lon="11.6670133"><ele>8.600000000000001</ele><time>2026-04-12T07:39:45.547Z</time></trkpt><trkpt lat="45.1719317" lon="11.667085"><ele>8.4</ele><time>2026-04-12T07:39:47.526Z</time></trkpt><trkpt lat="45.171855" lon="11.66719"><ele>8.200000000000001</ele><time>2026-04-12T07:39:49.549Z</time></trkpt><trkpt lat="45.17177" lon="11.6673067"><ele>8.0</ele><time>2026-04-12T07:39:51.534Z</time></trkpt><trkpt lat="45.1716933" lon="11.6674167"><ele>7.999999999999999</ele><time>2026-04-12T07:39:53.548Z</time></trkpt><trkpt lat="45.1716367" lon="11.6675133"><ele>8.0</ele><time>2026-04-12T07:39:55.548Z</time></trkpt><trkpt lat="45.1716383" lon="11.66762"><ele>8.0</ele><time>2026-04-12T07:39:57.535Z</time></trkpt><trkpt lat="45.1717" lon="11.66771"><ele>8.0</ele><time>2026-04-12T07:39:59.531Z</time></trkpt><trkpt lat="45.171755" lon="11.6677717"><ele>7.999999999999999</ele><time>2026-04-12T07:40:01.528Z</time></trkpt><trkpt lat="45.171815" lon="11.6678533"><ele>8.0</ele><time>2026-04-12T07:40:04.538Z</time></trkpt><trkpt lat="45.1718733" lon="11.667895"><ele>7.999999999999999</ele><time>2026-04-12T07:40:06.532Z</time></trkpt><trkpt lat="45.1719367" lon="11.6679367"><ele>8.0</ele><time>2026-04-12T07:40:08.532Z</time></trkpt><trkpt lat="45.172005" lon="11.6679917"><ele>8.0</ele><time>2026-04-12T07:40:10.529Z</time></trkpt><trkpt lat="45.1720817" lon="11.668045"><ele>8.0</ele><time>2026-04-12T07:40:12.54Z</time></trkpt><trkpt lat="45.17215" lon="11.66809"><ele>7.999999999999999</ele><time>2026-04-12T07:40:14.556Z</time></trkpt><trkpt lat="45.1722383" lon="11.6681833"><ele>8.0</ele><time>2026-04-12T07:40:15.533Z</time></trkpt><trkpt lat="45.17231" lon="11.66822"><ele>8.166666666666666</ele><time>2026-04-12T07:40:17.549Z</time></trkpt><trkpt lat="45.172375" lon="11.668215"><ele>8.333333333333332</ele><time>2026-04-12T07:40:20.534Z</time></trkpt><trkpt lat="45.1724333" lon="11.6681317"><ele>8.5</ele><time>2026-04-12T07:40:22.539Z</time></trkpt><trkpt lat="45.17247" lon="11.6680117"><ele>8.666666666666666</ele><time>2026-04-12T07:40:24.533Z</time></trkpt><trkpt lat="45.1724983" lon="11.6678867"><ele>8.833333333333334</ele><time>2026-04-12T07:40:26.573Z</time></trkpt><trkpt lat="45.1725417" lon="11.6677833"><ele>9.0</ele><time>2026-04-12T07:40:28.543Z</time></trkpt><trkpt lat="45.1725867" lon="11.6676867"><ele>9.0</ele><time>2026-04-12T07:40:31.594Z</time></trkpt><trkpt lat="45.1726083" lon="11.667585"><ele>9.0</ele><time>2026-04-12T07:40:34.833Z</time></trkpt><trkpt lat="45.1725817" lon="11.6674817"><ele>9.0</ele><time>2026-04-12T07:40:36.629Z</time></trkpt><trkpt lat="45.1725117" lon="11.6673867"><ele>9.0</ele><time>2026-04-12T07:40:38.592Z</time></trkpt><trkpt lat="45.1723333" lon="11.667215"><ele>8.8</ele><time>2026-04-12T07:40:42.592Z</time></trkpt><trkpt lat="45.1722217" lon="11.6671383"><ele>8.600000000000001</ele><time>2026-04-12T07:40:44.658Z</time></trkpt><trkpt lat="45.1721117" lon="11.6670617"><ele>8.4</ele><time>2026-04-12T07:40:46.605Z</time></trkpt><trkpt lat="45.1720567" lon="11.667015"><ele>8.200000000000001</ele><time>2026-04-12T07:40:47.583Z</time></trkpt><trkpt lat="45.1719633" lon="11.6668983"><ele>8.0</ele><time>2026-04-12T07:40:49.631Z</time></trkpt><trkpt lat="45.1718667" lon="11.6668017"><ele>8.0</ele><time>2026-04-12T07:40:51.601Z</time></trkpt><trkpt lat="45.17181" lon="11.6667583"><ele>8.0</ele><time>2026-04-12T07:40:52.733Z</time></trkpt><trkpt lat="45.17175" lon="11.6667183"><ele>8.0</ele><time>2026-04-12T07:40:53.694Z</time></trkpt><trkpt lat="45.1716333" lon="11.6666383"><ele>8.0</ele><time>2026-04-12T07:40:55.599Z</time></trkpt><trkpt lat="45.1714833" lon="11.66651"><ele>8.0</ele><time>2026-04-12T07:40:58.583Z</time></trkpt><trkpt lat="45.171385" lon="11.6664233"><ele>8.0</ele><time>2026-04-12T07:41:00.554Z</time></trkpt><trkpt lat="45.1712867" lon="11.6663283"><ele>8.0</ele><time>2026-04-12T07:41:02.612Z</time></trkpt><trkpt lat="45.171065" lon="11.6661467"><ele>8.0</ele><time>2026-04-12T07:41:06.563Z</time></trkpt><trkpt lat="45.1710133" lon="11.666095"><ele>8.0</ele><time>2026-04-12T07:41:07.739Z</time></trkpt><trkpt lat="45.1709067" lon="11.665995"><ele>8.142857142857142</ele><time>2026-04-12T07:41:09.563Z</time></trkpt><trkpt lat="45.1708517" lon="11.665945"><ele>8.285714285714285</ele><time>2026-04-12T07:41:10.607Z</time></trkpt><trkpt lat="45.1707967" lon="11.6658967"><ele>8.428571428571429</ele><time>2026-04-12T07:41:11.559Z</time></trkpt><trkpt lat="45.1707417" lon="11.6658467"><ele>8.571428571428571</ele><time>2026-04-12T07:41:12.582Z</time></trkpt><trkpt lat="45.170685" lon="11.6657933"><ele>8.714285714285715</ele><time>2026-04-12T07:41:13.556Z</time></trkpt><trkpt lat="45.17063" lon="11.6657433"><ele>8.857142857142858</ele><time>2026-04-12T07:41:14.58Z</time></trkpt><trkpt lat="45.1705717" lon="11.6656933"><ele>9.0</ele><time>2026-04-12T07:41:15.548Z</time></trkpt><trkpt lat="45.1705133" lon="11.6656417"><ele>9.0</ele><time>2026-04-12T07:41:16.523Z</time></trkpt><trkpt lat="45.1704567" lon="11.66559"><ele>9.0</ele><time>2026-04-12T07:41:17.564Z</time></trkpt><trkpt lat="45.1704017" lon="11.6655417"><ele>9.0</ele><time>2026-04-12T07:41:18.556Z</time></trkpt><trkpt lat="45.1703433" lon="11.6654917"><ele>9.0</ele><time>2026-04-12T07:41:19.628Z</time></trkpt><trkpt lat="45.1702883" lon="11.6654383"><ele>9.0</ele><time>2026-04-12T07:41:20.732Z</time></trkpt><trkpt lat="45.17018" lon="11.6653383"><ele>9.0</ele><time>2026-04-12T07:41:22.527Z</time></trkpt><trkpt lat="45.1701233" lon="11.66529"><ele>9.000000000000002</ele><time>2026-04-12T07:41:23.556Z</time></trkpt><trkpt lat="45.1700667" lon="11.6652383"><ele>9.0</ele><time>2026-04-12T07:41:24.57Z</time></trkpt><trkpt lat="45.1700133" lon="11.6651867"><ele>9.0</ele><time>2026-04-12T07:41:25.541Z</time></trkpt><trkpt lat="45.1699617" lon="11.6651333"><ele>9.0</ele><time>2026-04-12T07:41:26.627Z</time></trkpt><trkpt lat="45.169905" lon="11.6650783"><ele>9.0</ele><time>2026-04-12T07:41:27.579Z</time></trkpt><trkpt lat="45.1698483" lon="11.6650233"><ele>9.000000000000002</ele><time>2026-04-12T07:41:28.587Z</time></trkpt><trkpt lat="45.16979" lon="11.66497"><ele>9.0</ele><time>2026-04-12T07:41:29.559Z</time></trkpt><trkpt lat="45.169735" lon="11.6649183"><ele>8.666666666666666</ele><time>2026-04-12T07:41:30.551Z</time></trkpt><trkpt lat="45.1696783" lon="11.6648683"><ele>8.333333333333334</ele><time>2026-04-12T07:41:31.69Z</time></trkpt><trkpt lat="45.16957" lon="11.6647767"><ele>8.0</ele><time>2026-04-12T07:41:33.532Z</time></trkpt><trkpt lat="45.1695167" lon="11.664725"><ele>7.666666666666667</ele><time>2026-04-12T07:41:34.553Z</time></trkpt><trkpt lat="45.169465" lon="11.6646733"><ele>7.333333333333334</ele><time>2026-04-12T07:41:35.53Z</time></trkpt><trkpt lat="45.1694083" lon="11.66462"><ele>7.0</ele><time>2026-04-12T07:41:36.531Z</time></trkpt><trkpt lat="45.169355" lon="11.66457"><ele>7.0</ele><time>2026-04-12T07:41:37.563Z</time></trkpt><trkpt lat="45.1692983" lon="11.6645217"><ele>7.0</ele><time>2026-04-12T07:41:38.544Z</time></trkpt><trkpt lat="45.1692417" lon="11.66447"><ele>7.0</ele><time>2026-04-12T07:41:39.56Z</time></trkpt><trkpt lat="45.1691833" lon="11.6644233"><ele>7.0</ele><time>2026-04-12T07:41:40.566Z</time></trkpt><trkpt lat="45.169125" lon="11.664375"><ele>7.0</ele><time>2026-04-12T07:41:41.533Z</time></trkpt><trkpt lat="45.1690683" lon="11.664325"><ele>7.0</ele><time>2026-04-12T07:41:42.531Z</time></trkpt><trkpt lat="45.1690117" lon="11.6642667"><ele>7.0</ele><time>2026-04-12T07:41:43.54Z</time></trkpt><trkpt lat="45.16896" lon="11.6642133"><ele>7.000000000000001</ele><time>2026-04-12T07:41:44.532Z</time></trkpt><trkpt lat="45.168905" lon="11.6641683"><ele>7.0</ele><time>2026-04-12T07:41:45.543Z</time></trkpt><trkpt lat="45.1687917" lon="11.6640717"><ele>7.0</ele><time>2026-04-12T07:41:47.548Z</time></trkpt><trkpt lat="45.16873" lon="11.6640233"><ele>7.0</ele><time>2026-04-12T07:41:48.535Z</time></trkpt><trkpt lat="45.1686683" lon="11.6639683"><ele>7.000000000000001</ele><time>2026-04-12T07:41:49.527Z</time></trkpt><trkpt lat="45.1686067" lon="11.6639133"><ele>7.0</ele><time>2026-04-12T07:41:50.532Z</time></trkpt><trkpt lat="45.1685467" lon="11.66386"><ele>7.0</ele><time>2026-04-12T07:41:51.55Z</time></trkpt><trkpt lat="45.1684867" lon="11.6638067"><ele>7.0</ele><time>2026-04-12T07:41:52.532Z</time></trkpt><trkpt lat="45.1684283" lon="11.6637517"><ele>7.0</ele><time>2026-04-12T07:41:53.532Z</time></trkpt><trkpt lat="45.16837" lon="11.663695"><ele>7.0</ele><time>2026-04-12T07:41:54.53Z</time></trkpt><trkpt lat="45.168315" lon="11.66364"><ele>7.0</ele><time>2026-04-12T07:41:55.541Z</time></trkpt><trkpt lat="45.1682567" lon="11.6635833"><ele>7.0</ele><time>2026-04-12T07:41:56.536Z</time></trkpt><trkpt lat="45.1681983" lon="11.6635283"><ele>7.0</ele><time>2026-04-12T07:41:57.558Z</time></trkpt><trkpt lat="45.1681383" lon="11.66347"><ele>6.857142857142857</ele><time>2026-04-12T07:41:58.535Z</time></trkpt><trkpt lat="45.16808" lon="11.6634133"><ele>6.714285714285714</ele><time>2026-04-12T07:41:59.537Z</time></trkpt><trkpt lat="45.1680233" lon="11.6633533"><ele>6.571428571428571</ele><time>2026-04-12T07:42:00.533Z</time></trkpt><trkpt lat="45.1679667" lon="11.6632933"><ele>6.428571428571429</ele><time>2026-04-12T07:42:01.536Z</time></trkpt><trkpt lat="45.167915" lon="11.6632333"><ele>6.285714285714286</ele><time>2026-04-12T07:42:02.548Z</time></trkpt><trkpt lat="45.1678633" lon="11.6631733"><ele>6.142857142857142</ele><time>2026-04-12T07:42:03.549Z</time></trkpt><trkpt lat="45.1678133" lon="11.6631133"><ele>6.0</ele><time>2026-04-12T07:42:04.539Z</time></trkpt><trkpt lat="45.1677617" lon="11.6630567"><ele>5.999999999999999</ele><time>2026-04-12T07:42:05.53Z</time></trkpt><trkpt lat="45.16771" lon="11.6629967"><ele>6.0</ele><time>2026-04-12T07:42:06.543Z</time></trkpt><trkpt lat="45.16766" lon="11.6629367"><ele>6.0</ele><time>2026-04-12T07:42:07.535Z</time></trkpt><trkpt lat="45.1676117" lon="11.662875"><ele>6.0</ele><time>2026-04-12T07:42:08.541Z</time></trkpt><trkpt lat="45.1675617" lon="11.66281"><ele>6.0</ele><time>2026-04-12T07:42:09.55Z</time></trkpt><trkpt lat="45.167515" lon="11.6627483"><ele>5.999999999999999</ele><time>2026-04-12T07:42:10.547Z</time></trkpt><trkpt lat="45.167465" lon="11.6626883"><ele>6.0</ele><time>2026-04-12T07:42:11.534Z</time></trkpt><trkpt lat="45.1674183" lon="11.6626267"><ele>5.999999999999999</ele><time>2026-04-12T07:42:12.532Z</time></trkpt><trkpt lat="45.16737" lon="11.6625683"><ele>6.0</ele><time>2026-04-12T07:42:13.531Z</time></trkpt><trkpt lat="45.16732" lon="11.662505"><ele>6.0</ele><time>2026-04-12T07:42:14.532Z</time></trkpt><trkpt lat="45.1672717" lon="11.66244"><ele>6.0</ele><time>2026-04-12T07:42:15.537Z</time></trkpt><trkpt lat="45.16722" lon="11.662375"><ele>6.0</ele><time>2026-04-12T07:42:16.526Z</time></trkpt><trkpt lat="45.1671717" lon="11.6623083"><ele>5.999999999999999</ele><time>2026-04-12T07:42:17.531Z</time></trkpt><trkpt lat="45.167125" lon="11.6622433"><ele>6.0</ele><time>2026-04-12T07:42:18.54Z</time></trkpt><trkpt lat="45.1670767" lon="11.6621817"><ele>6.0</ele><time>2026-04-12T07:42:19.528Z</time></trkpt><trkpt lat="45.1670283" lon="11.6621183"><ele>6.0</ele><time>2026-04-12T07:42:20.528Z</time></trkpt><trkpt lat="45.1669417" lon="11.662"><ele>6.0</ele><time>2026-04-12T07:42:22.531Z</time></trkpt><trkpt lat="45.1668917" lon="11.661935"><ele>6.0</ele><time>2026-04-12T07:42:23.55Z</time></trkpt><trkpt lat="45.16684" lon="11.6618683"><ele>6.0</ele><time>2026-04-12T07:42:24.53Z</time></trkpt><trkpt lat="45.1667883" lon="11.6618033"><ele>6.0</ele><time>2026-04-12T07:42:25.536Z</time></trkpt><trkpt lat="45.1667367" lon="11.6617383"><ele>5.999999999999999</ele><time>2026-04-12T07:42:26.532Z</time></trkpt><trkpt lat="45.1666883" lon="11.6616733"><ele>6.0</ele><time>2026-04-12T07:42:27.55Z</time></trkpt><trkpt lat="45.1666367" lon="11.6616083"><ele>6.0</ele><time>2026-04-12T07:42:28.544Z</time></trkpt><trkpt lat="45.1665833" lon="11.661545"><ele>6.0</ele><time>2026-04-12T07:42:29.537Z</time></trkpt><trkpt lat="45.1665317" lon="11.6614817"><ele>6.0</ele><time>2026-04-12T07:42:30.562Z</time></trkpt><trkpt lat="45.1664817" lon="11.6614183"><ele>5.999999999999999</ele><time>2026-04-12T07:42:31.545Z</time></trkpt><trkpt lat="45.1664317" lon="11.6613567"><ele>6.0</ele><time>2026-04-12T07:42:32.54Z</time></trkpt><trkpt lat="45.1663867" lon="11.6612933"><ele>5.999999999999999</ele><time>2026-04-12T07:42:33.535Z</time></trkpt><trkpt lat="45.1663383" lon="11.6612317"><ele>6.0</ele><time>2026-04-12T07:42:34.544Z</time></trkpt><trkpt lat="45.1662883" lon="11.6611667"><ele>6.0</ele><time>2026-04-12T07:42:35.524Z</time></trkpt><trkpt lat="45.1662383" lon="11.6611"><ele>6.0</ele><time>2026-04-12T07:42:36.531Z</time></trkpt><trkpt lat="45.16619" lon="11.661035"><ele>6.0</ele><time>2026-04-12T07:42:37.54Z</time></trkpt><trkpt lat="45.1661417" lon="11.6609717"><ele>5.999999999999999</ele><time>2026-04-12T07:42:38.537Z</time></trkpt><trkpt lat="45.166095" lon="11.6609033"><ele>6.0</ele><time>2026-04-12T07:42:39.533Z</time></trkpt><trkpt lat="45.1660467" lon="11.6608333"><ele>5.999999999999999</ele><time>2026-04-12T07:42:40.54Z</time></trkpt><trkpt lat="45.1659967" lon="11.6607667"><ele>6.0</ele><time>2026-04-12T07:42:41.535Z</time></trkpt><trkpt lat="45.1659467" lon="11.660695"><ele>6.0</ele><time>2026-04-12T07:42:42.532Z</time></trkpt><trkpt lat="45.1658967" lon="11.6606283"><ele>6.0</ele><time>2026-04-12T07:42:43.53Z</time></trkpt><trkpt lat="45.1658467" lon="11.6605633"><ele>6.0</ele><time>2026-04-12T07:42:44.547Z</time></trkpt><trkpt lat="45.1657967" lon="11.6604983"><ele>5.999999999999999</ele><time>2026-04-12T07:42:45.547Z</time></trkpt><trkpt lat="45.1657483" lon="11.660435"><ele>6.0</ele><time>2026-04-12T07:42:46.554Z</time></trkpt><trkpt lat="45.1656967" lon="11.6603717"><ele>5.999999999999999</ele><time>2026-04-12T07:42:47.539Z</time></trkpt><trkpt lat="45.165645" lon="11.660305"><ele>6.0</ele><time>2026-04-12T07:42:48.54Z</time></trkpt><trkpt lat="45.1655967" lon="11.6602383"><ele>6.0</ele><time>2026-04-12T07:42:49.524Z</time></trkpt><trkpt lat="45.165545" lon="11.66017"><ele>6.0</ele><time>2026-04-12T07:42:50.536Z</time></trkpt><trkpt lat="45.1654933" lon="11.6601067"><ele>6.0</ele><time>2026-04-12T07:42:51.528Z</time></trkpt><trkpt lat="45.16544" lon="11.6600417"><ele>5.999999999999999</ele><time>2026-04-12T07:42:52.533Z</time></trkpt><trkpt lat="45.1653883" lon="11.659975"><ele>6.0</ele><time>2026-04-12T07:42:53.544Z</time></trkpt><trkpt lat="45.1653367" lon="11.6599117"><ele>6.142857142857142</ele><time>2026-04-12T07:42:54.555Z</time></trkpt><trkpt lat="45.165285" lon="11.65985"><ele>6.285714285714286</ele><time>2026-04-12T07:42:55.542Z</time></trkpt><trkpt lat="45.1652367" lon="11.659785"><ele>6.428571428571429</ele><time>2026-04-12T07:42:56.534Z</time></trkpt><trkpt lat="45.1651867" lon="11.6597217"><ele>6.571428571428571</ele><time>2026-04-12T07:42:57.536Z</time></trkpt><trkpt lat="45.1651383" lon="11.6596567"><ele>6.714285714285714</ele><time>2026-04-12T07:42:58.527Z</time></trkpt><trkpt lat="45.16509" lon="11.659595"><ele>6.857142857142857</ele><time>2026-04-12T07:42:59.541Z</time></trkpt><trkpt lat="45.1650417" lon="11.6595317"><ele>7.0</ele><time>2026-04-12T07:43:00.533Z</time></trkpt><trkpt lat="45.1649917" lon="11.65947"><ele>7.0</ele><time>2026-04-12T07:43:01.531Z</time></trkpt><trkpt lat="45.1649417" lon="11.659405"><ele>7.0</ele><time>2026-04-12T07:43:02.541Z</time></trkpt><trkpt lat="45.1648917" lon="11.6593417"><ele>7.0</ele><time>2026-04-12T07:43:03.54Z</time></trkpt><trkpt lat="45.1648433" lon="11.659275"><ele>7.0</ele><time>2026-04-12T07:43:04.534Z</time></trkpt><trkpt lat="45.1647933" lon="11.6592083"><ele>7.0</ele><time>2026-04-12T07:43:05.541Z</time></trkpt><trkpt lat="45.1647433" lon="11.6591433"><ele>7.0</ele><time>2026-04-12T07:43:06.557Z</time></trkpt><trkpt lat="45.164695" lon="11.65908"><ele>7.0</ele><time>2026-04-12T07:43:07.547Z</time></trkpt><trkpt lat="45.1646467" lon="11.65902"><ele>7.0</ele><time>2026-04-12T07:43:08.538Z</time></trkpt><trkpt lat="45.1645967" lon="11.65896"><ele>7.0</ele><time>2026-04-12T07:43:09.539Z</time></trkpt><trkpt lat="45.1645467" lon="11.6588983"><ele>7.0</ele><time>2026-04-12T07:43:10.543Z</time></trkpt><trkpt lat="45.1644983" lon="11.658835"><ele>7.0</ele><time>2026-04-12T07:43:11.53Z</time></trkpt><trkpt lat="45.16445" lon="11.65877"><ele>7.0</ele><time>2026-04-12T07:43:12.53Z</time></trkpt><trkpt lat="45.1644" lon="11.658705"><ele>7.0</ele><time>2026-04-12T07:43:13.531Z</time></trkpt><trkpt lat="45.1643517" lon="11.6586417"><ele>7.0</ele><time>2026-04-12T07:43:14.541Z</time></trkpt><trkpt lat="45.1643033" lon="11.6585783"><ele>7.0</ele><time>2026-04-12T07:43:15.537Z</time></trkpt><trkpt lat="45.1642567" lon="11.658515"><ele>7.0</ele><time>2026-04-12T07:43:16.533Z</time></trkpt><trkpt lat="45.1642083" lon="11.6584517"><ele>7.0</ele><time>2026-04-12T07:43:17.533Z</time></trkpt><trkpt lat="45.16416" lon="11.6583867"><ele>7.0</ele><time>2026-04-12T07:43:18.54Z</time></trkpt><trkpt lat="45.1641117" lon="11.658325"><ele>7.0</ele><time>2026-04-12T07:43:19.561Z</time></trkpt><trkpt lat="45.164065" lon="11.6582583"><ele>7.0</ele><time>2026-04-12T07:43:20.539Z</time></trkpt><trkpt lat="45.16402" lon="11.6581933"><ele>7.0</ele><time>2026-04-12T07:43:21.529Z</time></trkpt><trkpt lat="45.163975" lon="11.6581267"><ele>7.0</ele><time>2026-04-12T07:43:22.531Z</time></trkpt><trkpt lat="45.16393" lon="11.6580583"><ele>7.0</ele><time>2026-04-12T07:43:23.542Z</time></trkpt><trkpt lat="45.1638817" lon="11.6579917"><ele>7.0</ele><time>2026-04-12T07:43:24.553Z</time></trkpt><trkpt lat="45.163835" lon="11.6579267"><ele>7.0</ele><time>2026-04-12T07:43:25.525Z</time></trkpt><trkpt lat="45.163785" lon="11.6578617"><ele>7.0</ele><time>2026-04-12T07:43:26.533Z</time></trkpt><trkpt lat="45.163735" lon="11.6577933"><ele>7.0</ele><time>2026-04-12T07:43:27.547Z</time></trkpt><trkpt lat="45.1636883" lon="11.6577283"><ele>7.0</ele><time>2026-04-12T07:43:28.534Z</time></trkpt><trkpt lat="45.1636417" lon="11.6576617"><ele>7.0</ele><time>2026-04-12T07:43:29.535Z</time></trkpt><trkpt lat="45.1635933" lon="11.657595"><ele>7.0</ele><time>2026-04-12T07:43:30.539Z</time></trkpt><trkpt lat="45.1635467" lon="11.6575283"><ele>7.0</ele><time>2026-04-12T07:43:31.532Z</time></trkpt><trkpt lat="45.163505" lon="11.6574583"><ele>7.0</ele><time>2026-04-12T07:43:32.539Z</time></trkpt><trkpt lat="45.1634633" lon="11.657385"><ele>7.0</ele><time>2026-04-12T07:43:33.543Z</time></trkpt><trkpt lat="45.16342" lon="11.6573133"><ele>7.0</ele><time>2026-04-12T07:43:34.538Z</time></trkpt><trkpt lat="45.1633767" lon="11.6572417"><ele>7.0</ele><time>2026-04-12T07:43:35.536Z</time></trkpt><trkpt lat="45.1633317" lon="11.6571717"><ele>7.0</ele><time>2026-04-12T07:43:36.526Z</time></trkpt><trkpt lat="45.163285" lon="11.6571017"><ele>7.0</ele><time>2026-04-12T07:43:37.571Z</time></trkpt><trkpt lat="45.1632417" lon="11.6570317"><ele>7.0</ele><time>2026-04-12T07:43:38.552Z</time></trkpt><trkpt lat="45.1631983" lon="11.6569583"><ele>7.0</ele><time>2026-04-12T07:43:39.536Z</time></trkpt><trkpt lat="45.163155" lon="11.6568867"><ele>7.0</ele><time>2026-04-12T07:43:40.528Z</time></trkpt><trkpt lat="45.1631083" lon="11.6568167"><ele>7.0</ele><time>2026-04-12T07:43:41.534Z</time></trkpt><trkpt lat="45.1630617" lon="11.6567467"><ele>7.0</ele><time>2026-04-12T07:43:42.547Z</time></trkpt><trkpt lat="45.16302" lon="11.656675"><ele>6.857142857142857</ele><time>2026-04-12T07:43:43.539Z</time></trkpt><trkpt lat="45.16297" lon="11.6566033"><ele>6.714285714285714</ele><time>2026-04-12T07:43:44.538Z</time></trkpt><trkpt lat="45.1629217" lon="11.6565333"><ele>6.571428571428571</ele><time>2026-04-12T07:43:45.545Z</time></trkpt><trkpt lat="45.1628733" lon="11.6564633"><ele>6.428571428571429</ele><time>2026-04-12T07:43:46.564Z</time></trkpt><trkpt lat="45.1628267" lon="11.6563917"><ele>6.285714285714286</ele><time>2026-04-12T07:43:47.533Z</time></trkpt><trkpt lat="45.1627817" lon="11.65632"><ele>6.142857142857142</ele><time>2026-04-12T07:43:48.53Z</time></trkpt><trkpt lat="45.162735" lon="11.6562483"><ele>6.0</ele><time>2026-04-12T07:43:49.534Z</time></trkpt><trkpt lat="45.162685" lon="11.6561767"><ele>5.857142857142857</ele><time>2026-04-12T07:43:50.537Z</time></trkpt><trkpt lat="45.1626333" lon="11.65611"><ele>5.714285714285714</ele><time>2026-04-12T07:43:51.539Z</time></trkpt><trkpt lat="45.1625883" lon="11.65604"><ele>5.571428571428571</ele><time>2026-04-12T07:43:52.54Z</time></trkpt><trkpt lat="45.1625417" lon="11.6559733"><ele>5.428571428571429</ele><time>2026-04-12T07:43:53.534Z</time></trkpt><trkpt lat="45.1624917" lon="11.6559083"><ele>5.285714285714286</ele><time>2026-04-12T07:43:54.541Z</time></trkpt><trkpt lat="45.1624433" lon="11.6558433"><ele>5.142857142857142</ele><time>2026-04-12T07:43:55.54Z</time></trkpt><trkpt lat="45.1623917" lon="11.6557817"><ele>5.0</ele><time>2026-04-12T07:43:56.534Z</time></trkpt><trkpt lat="45.1623383" lon="11.6557217"><ele>5.0</ele><time>2026-04-12T07:43:57.544Z</time></trkpt><trkpt lat="45.16228" lon="11.655665"><ele>5.0</ele><time>2026-04-12T07:43:58.537Z</time></trkpt><trkpt lat="45.162225" lon="11.6556117"><ele>5.0</ele><time>2026-04-12T07:43:59.538Z</time></trkpt><trkpt lat="45.1621683" lon="11.6555533"><ele>5.0</ele><time>2026-04-12T07:44:00.541Z</time></trkpt><trkpt lat="45.1621133" lon="11.6555"><ele>5.0</ele><time>2026-04-12T07:44:01.538Z</time></trkpt><trkpt lat="45.162055" lon="11.6554483"><ele>5.0</ele><time>2026-04-12T07:44:02.539Z</time></trkpt><trkpt lat="45.1619983" lon="11.655395"><ele>5.0</ele><time>2026-04-12T07:44:03.553Z</time></trkpt><trkpt lat="45.1619417" lon="11.6553417"><ele>5.0</ele><time>2026-04-12T07:44:04.532Z</time></trkpt><trkpt lat="45.161885" lon="11.65529"><ele>5.0</ele><time>2026-04-12T07:44:05.536Z</time></trkpt><trkpt lat="45.1618267" lon="11.6552367"><ele>5.0</ele><time>2026-04-12T07:44:06.551Z</time></trkpt><trkpt lat="45.16177" lon="11.6551867"><ele>5.0</ele><time>2026-04-12T07:44:07.539Z</time></trkpt><trkpt lat="45.1617133" lon="11.655135"><ele>5.0</ele><time>2026-04-12T07:44:08.544Z</time></trkpt><trkpt lat="45.1616567" lon="11.6550817"><ele>5.0</ele><time>2026-04-12T07:44:09.531Z</time></trkpt><trkpt lat="45.1615983" lon="11.65503"><ele>5.0</ele><time>2026-04-12T07:44:10.535Z</time></trkpt><trkpt lat="45.1615417" lon="11.6549783"><ele>5.0</ele><time>2026-04-12T07:44:11.535Z</time></trkpt><trkpt lat="45.161485" lon="11.6549283"><ele>5.0</ele><time>2026-04-12T07:44:12.529Z</time></trkpt><trkpt lat="45.16143" lon="11.654875"><ele>5.0</ele><time>2026-04-12T07:44:13.537Z</time></trkpt><trkpt lat="45.1613733" lon="11.654825"><ele>5.0</ele><time>2026-04-12T07:44:14.545Z</time></trkpt><trkpt lat="45.1613167" lon="11.6547767"><ele>5.0</ele><time>2026-04-12T07:44:15.549Z</time></trkpt><trkpt lat="45.1612583" lon="11.654725"><ele>5.0</ele><time>2026-04-12T07:44:16.535Z</time></trkpt><trkpt lat="45.1612033" lon="11.6546717"><ele>5.0</ele><time>2026-04-12T07:44:17.542Z</time></trkpt><trkpt lat="45.1611483" lon="11.6546167"><ele>5.0</ele><time>2026-04-12T07:44:18.535Z</time></trkpt><trkpt lat="45.1610967" lon="11.6545617"><ele>5.0</ele><time>2026-04-12T07:44:19.534Z</time></trkpt><trkpt lat="45.1610433" lon="11.6545083"><ele>5.0</ele><time>2026-04-12T07:44:20.54Z</time></trkpt><trkpt lat="45.1609883" lon="11.6544583"><ele>5.0</ele><time>2026-04-12T07:44:21.527Z</time></trkpt><trkpt lat="45.1609317" lon="11.654405"><ele>5.0</ele><time>2026-04-12T07:44:22.564Z</time></trkpt><trkpt lat="45.1608767" lon="11.65435"><ele>5.0</ele><time>2026-04-12T07:44:23.53Z</time></trkpt><trkpt lat="45.16082" lon="11.654295"><ele>5.0</ele><time>2026-04-12T07:44:24.539Z</time></trkpt><trkpt lat="45.160765" lon="11.65424"><ele>5.0</ele><time>2026-04-12T07:44:25.538Z</time></trkpt><trkpt lat="45.1607133" lon="11.654185"><ele>5.0</ele><time>2026-04-12T07:44:26.531Z</time></trkpt><trkpt lat="45.1606633" lon="11.6541283"><ele>5.0</ele><time>2026-04-12T07:44:27.529Z</time></trkpt><trkpt lat="45.1606117" lon="11.6540683"><ele>5.0</ele><time>2026-04-12T07:44:28.539Z</time></trkpt><trkpt lat="45.16056" lon="11.65401"><ele>5.0</ele><time>2026-04-12T07:44:29.56Z</time></trkpt><trkpt lat="45.16051" lon="11.6539483"><ele>5.0</ele><time>2026-04-12T07:44:30.538Z</time></trkpt><trkpt lat="45.1604583" lon="11.653885"><ele>5.0</ele><time>2026-04-12T07:44:31.528Z</time></trkpt><trkpt lat="45.160405" lon="11.653825"><ele>5.0</ele><time>2026-04-12T07:44:32.535Z</time></trkpt><trkpt lat="45.1603533" lon="11.653765"><ele>5.0</ele><time>2026-04-12T07:44:33.551Z</time></trkpt><trkpt lat="45.1603033" lon="11.6537083"><ele>5.0</ele><time>2026-04-12T07:44:34.547Z</time></trkpt><trkpt lat="45.1602533" lon="11.6536467"><ele>5.0</ele><time>2026-04-12T07:44:35.527Z</time></trkpt><trkpt lat="45.1602017" lon="11.6535817"><ele>5.0</ele><time>2026-04-12T07:44:36.541Z</time></trkpt><trkpt lat="45.1601517" lon="11.6535183"><ele>5.0</ele><time>2026-04-12T07:44:37.534Z</time></trkpt><trkpt lat="45.1601" lon="11.6534567"><ele>5.0</ele><time>2026-04-12T07:44:38.53Z</time></trkpt><trkpt lat="45.16005" lon="11.653395"><ele>5.0</ele><time>2026-04-12T07:44:39.531Z</time></trkpt><trkpt lat="45.1600017" lon="11.6533317"><ele>5.0</ele><time>2026-04-12T07:44:40.532Z</time></trkpt><trkpt lat="45.159955" lon="11.6532667"><ele>5.0</ele><time>2026-04-12T07:44:41.543Z</time></trkpt><trkpt lat="45.1599067" lon="11.6532"><ele>5.0</ele><time>2026-04-12T07:44:42.529Z</time></trkpt><trkpt lat="45.1598633" lon="11.6531317"><ele>5.0</ele><time>2026-04-12T07:44:43.541Z</time></trkpt><trkpt lat="45.1598167" lon="11.653065"><ele>5.0</ele><time>2026-04-12T07:44:44.534Z</time></trkpt><trkpt lat="45.1597717" lon="11.6529967"><ele>5.0</ele><time>2026-04-12T07:44:45.544Z</time></trkpt><trkpt lat="45.1597233" lon="11.6529283"><ele>5.0</ele><time>2026-04-12T07:44:46.533Z</time></trkpt><trkpt lat="45.1596767" lon="11.65286"><ele>5.0</ele><time>2026-04-12T07:44:47.541Z</time></trkpt><trkpt lat="45.159635" lon="11.6527867"><ele>5.0</ele><time>2026-04-12T07:44:48.543Z</time></trkpt><trkpt lat="45.15959" lon="11.6527117"><ele>5.0</ele><time>2026-04-12T07:44:49.537Z</time></trkpt><trkpt lat="45.1595533" lon="11.652635"><ele>5.0</ele><time>2026-04-12T07:44:50.556Z</time></trkpt><trkpt lat="45.1595183" lon="11.6525567"><ele>5.0</ele><time>2026-04-12T07:44:51.533Z</time></trkpt><trkpt lat="45.1594833" lon="11.6524733"><ele>5.0</ele><time>2026-04-12T07:44:52.542Z</time></trkpt><trkpt lat="45.1594517" lon="11.65239"><ele>5.0</ele><time>2026-04-12T07:44:53.536Z</time></trkpt><trkpt lat="45.1594167" lon="11.6523033"><ele>5.0</ele><time>2026-04-12T07:44:54.531Z</time></trkpt><trkpt lat="45.1593833" lon="11.6522083"><ele>5.0</ele><time>2026-04-12T07:44:55.529Z</time></trkpt><trkpt lat="45.1593533" lon="11.6521183"><ele>5.0</ele><time>2026-04-12T07:44:56.539Z</time></trkpt><trkpt lat="45.159325" lon="11.6520317"><ele>5.0</ele><time>2026-04-12T07:44:57.528Z</time></trkpt><trkpt lat="45.159295" lon="11.6519433"><ele>5.0</ele><time>2026-04-12T07:44:58.534Z</time></trkpt><trkpt lat="45.1592633" lon="11.6518533"><ele>5.0</ele><time>2026-04-12T07:44:59.541Z</time></trkpt><trkpt lat="45.1592317" lon="11.6517667"><ele>5.0</ele><time>2026-04-12T07:45:00.535Z</time></trkpt><trkpt lat="45.1592033" lon="11.651685"><ele>5.0</ele><time>2026-04-12T07:45:01.545Z</time></trkpt><trkpt lat="45.159175" lon="11.6516017"><ele>5.0</ele><time>2026-04-12T07:45:02.526Z</time></trkpt><trkpt lat="45.1591483" lon="11.6515167"><ele>5.0</ele><time>2026-04-12T07:45:03.533Z</time></trkpt><trkpt lat="45.1591167" lon="11.6514267"><ele>5.0</ele><time>2026-04-12T07:45:04.531Z</time></trkpt><trkpt lat="45.159085" lon="11.6513367"><ele>5.0</ele><time>2026-04-12T07:45:05.54Z</time></trkpt><trkpt lat="45.1590517" lon="11.6512483"><ele>5.0</ele><time>2026-04-12T07:45:06.563Z</time></trkpt><trkpt lat="45.15902" lon="11.6511617"><ele>5.142857142857142</ele><time>2026-04-12T07:45:07.53Z</time></trkpt><trkpt lat="45.1589883" lon="11.6510767"><ele>5.285714285714286</ele><time>2026-04-12T07:45:08.543Z</time></trkpt><trkpt lat="45.1589583" lon="11.65099"><ele>5.428571428571429</ele><time>2026-04-12T07:45:09.53Z</time></trkpt><trkpt lat="45.1589283" lon="11.6509033"><ele>5.571428571428571</ele><time>2026-04-12T07:45:10.542Z</time></trkpt><trkpt lat="45.1589017" lon="11.65082"><ele>5.714285714285714</ele><time>2026-04-12T07:45:11.533Z</time></trkpt><trkpt lat="45.158875" lon="11.6507383"><ele>5.857142857142857</ele><time>2026-04-12T07:45:12.529Z</time></trkpt><trkpt lat="45.158845" lon="11.6506517"><ele>6.0</ele><time>2026-04-12T07:45:13.533Z</time></trkpt><trkpt lat="45.158815" lon="11.6505633"><ele>5.999999999999999</ele><time>2026-04-12T07:45:14.537Z</time></trkpt><trkpt lat="45.158785" lon="11.6504783"><ele>6.0</ele><time>2026-04-12T07:45:15.533Z</time></trkpt><trkpt lat="45.1587567" lon="11.6503933"><ele>6.0</ele><time>2026-04-12T07:45:16.528Z</time></trkpt><trkpt lat="45.1587283" lon="11.65031"><ele>6.0</ele><time>2026-04-12T07:45:17.538Z</time></trkpt><trkpt lat="45.158695" lon="11.6502233"><ele>6.0</ele><time>2026-04-12T07:45:18.537Z</time></trkpt><trkpt lat="45.1586617" lon="11.6501383"><ele>5.999999999999999</ele><time>2026-04-12T07:45:19.527Z</time></trkpt><trkpt lat="45.1586233" lon="11.65005"><ele>6.0</ele><time>2026-04-12T07:45:20.53Z</time></trkpt><trkpt lat="45.158605" lon="11.6499567"><ele>6.142857142857142</ele><time>2026-04-12T07:45:21.535Z</time></trkpt><trkpt lat="45.1585933" lon="11.6498633"><ele>6.285714285714286</ele><time>2026-04-12T07:45:22.528Z</time></trkpt><trkpt lat="45.1585783" lon="11.6497683"><ele>6.428571428571429</ele><time>2026-04-12T07:45:23.544Z</time></trkpt><trkpt lat="45.158565" lon="11.649675"><ele>6.571428571428571</ele><time>2026-04-12T07:45:24.529Z</time></trkpt><trkpt lat="45.158555" lon="11.6495767"><ele>6.714285714285714</ele><time>2026-04-12T07:45:25.537Z</time></trkpt><trkpt lat="45.158545" lon="11.64948"><ele>6.857142857142857</ele><time>2026-04-12T07:45:26.535Z</time></trkpt><trkpt lat="45.1585333" lon="11.6493833"><ele>7.0</ele><time>2026-04-12T07:45:27.529Z</time></trkpt><trkpt lat="45.1585233" lon="11.6492883"><ele>7.0</ele><time>2026-04-12T07:45:28.53Z</time></trkpt><trkpt lat="45.1585117" lon="11.6491917"><ele>7.0</ele><time>2026-04-12T07:45:29.552Z</time></trkpt><trkpt lat="45.1585017" lon="11.6490983"><ele>7.0</ele><time>2026-04-12T07:45:30.527Z</time></trkpt><trkpt lat="45.1584883" lon="11.649"><ele>7.0</ele><time>2026-04-12T07:45:31.523Z</time></trkpt><trkpt lat="45.1584767" lon="11.6489067"><ele>7.0</ele><time>2026-04-12T07:45:32.546Z</time></trkpt><trkpt lat="45.1584633" lon="11.6488133"><ele>7.0</ele><time>2026-04-12T07:45:33.542Z</time></trkpt><trkpt lat="45.158455" lon="11.6487217"><ele>7.0</ele><time>2026-04-12T07:45:34.532Z</time></trkpt><trkpt lat="45.158435" lon="11.648625"><ele>6.833333333333334</ele><time>2026-04-12T07:45:35.532Z</time></trkpt><trkpt lat="45.1584133" lon="11.6485283"><ele>6.666666666666667</ele><time>2026-04-12T07:45:36.542Z</time></trkpt><trkpt lat="45.15839" lon="11.6484417"><ele>6.5</ele><time>2026-04-12T07:45:37.537Z</time></trkpt><trkpt lat="45.15833" lon="11.64828"><ele>6.333333333333334</ele><time>2026-04-12T07:45:39.536Z</time></trkpt><trkpt lat="45.15829" lon="11.6481983"><ele>6.166666666666667</ele><time>2026-04-12T07:45:40.536Z</time></trkpt><trkpt lat="45.1582483" lon="11.6481217"><ele>6.0</ele><time>2026-04-12T07:45:41.547Z</time></trkpt><trkpt lat="45.1582083" lon="11.64805"><ele>6.142857142857142</ele><time>2026-04-12T07:45:42.528Z</time></trkpt><trkpt lat="45.1581667" lon="11.6479767"><ele>6.285714285714286</ele><time>2026-04-12T07:45:43.528Z</time></trkpt><trkpt lat="45.1581267" lon="11.6479033"><ele>6.428571428571429</ele><time>2026-04-12T07:45:44.533Z</time></trkpt><trkpt lat="45.1580833" lon="11.647825"><ele>6.571428571428571</ele><time>2026-04-12T07:45:45.536Z</time></trkpt><trkpt lat="45.15804" lon="11.64775"><ele>6.714285714285714</ele><time>2026-04-12T07:45:46.533Z</time></trkpt><trkpt lat="45.1579983" lon="11.6476767"><ele>6.857142857142857</ele><time>2026-04-12T07:45:47.533Z</time></trkpt><trkpt lat="45.1579533" lon="11.6476"><ele>7.0</ele><time>2026-04-12T07:45:48.552Z</time></trkpt><trkpt lat="45.15791" lon="11.6475267"><ele>7.0</ele><time>2026-04-12T07:45:49.531Z</time></trkpt><trkpt lat="45.1578633" lon="11.6474567"><ele>7.0</ele><time>2026-04-12T07:45:50.539Z</time></trkpt><trkpt lat="45.1578183" lon="11.6473867"><ele>7.0</ele><time>2026-04-12T07:45:51.544Z</time></trkpt><trkpt lat="45.1577733" lon="11.6473167"><ele>7.0</ele><time>2026-04-12T07:45:52.537Z</time></trkpt><trkpt lat="45.157725" lon="11.647245"><ele>7.0</ele><time>2026-04-12T07:45:53.532Z</time></trkpt><trkpt lat="45.1576767" lon="11.6471783"><ele>7.0</ele><time>2026-04-12T07:45:54.533Z</time></trkpt><trkpt lat="45.1576283" lon="11.6471117"><ele>7.0</ele><time>2026-04-12T07:45:55.549Z</time></trkpt><trkpt lat="45.1575767" lon="11.647055"><ele>7.0</ele><time>2026-04-12T07:45:56.531Z</time></trkpt><trkpt lat="45.15752" lon="11.6470017"><ele>7.0</ele><time>2026-04-12T07:45:57.541Z</time></trkpt><trkpt lat="45.1574617" lon="11.6469533"><ele>7.0</ele><time>2026-04-12T07:45:58.529Z</time></trkpt><trkpt lat="45.1574017" lon="11.64691"><ele>7.0</ele><time>2026-04-12T07:45:59.532Z</time></trkpt><trkpt lat="45.1573317" lon="11.6468683"><ele>7.0</ele><time>2026-04-12T07:46:00.537Z</time></trkpt><trkpt lat="45.157265" lon="11.6468267"><ele>7.0</ele><time>2026-04-12T07:46:01.538Z</time></trkpt><trkpt lat="45.1572" lon="11.6467867"><ele>7.0</ele><time>2026-04-12T07:46:02.533Z</time></trkpt><trkpt lat="45.1571367" lon="11.64675"><ele>6.857142857142857</ele><time>2026-04-12T07:46:03.532Z</time></trkpt><trkpt lat="45.157075" lon="11.64672"><ele>6.714285714285714</ele><time>2026-04-12T07:46:04.531Z</time></trkpt><trkpt lat="45.15701" lon="11.646695"><ele>6.571428571428571</ele><time>2026-04-12T07:46:05.542Z</time></trkpt><trkpt lat="45.1569417" lon="11.6466717"><ele>6.428571428571429</ele><time>2026-04-12T07:46:06.536Z</time></trkpt><trkpt lat="45.1568733" lon="11.646655"><ele>6.285714285714286</ele><time>2026-04-12T07:46:07.546Z</time></trkpt><trkpt lat="45.1568083" lon="11.6466433"><ele>6.142857142857142</ele><time>2026-04-12T07:46:08.536Z</time></trkpt><trkpt lat="45.15674" lon="11.6466317"><ele>6.0</ele><time>2026-04-12T07:46:09.534Z</time></trkpt><trkpt lat="45.1566717" lon="11.6466217"><ele>5.999999999999999</ele><time>2026-04-12T07:46:10.53Z</time></trkpt><trkpt lat="45.1566017" lon="11.646615"><ele>6.0</ele><time>2026-04-12T07:46:11.55Z</time></trkpt><trkpt lat="45.1565317" lon="11.6466133"><ele>6.0</ele><time>2026-04-12T07:46:12.533Z</time></trkpt><trkpt lat="45.1564617" lon="11.6466167"><ele>6.0</ele><time>2026-04-12T07:46:13.537Z</time></trkpt><trkpt lat="45.1563917" lon="11.64662"><ele>6.0</ele><time>2026-04-12T07:46:14.545Z</time></trkpt><trkpt lat="45.1563217" lon="11.6466233"><ele>5.999999999999999</ele><time>2026-04-12T07:46:15.547Z</time></trkpt><trkpt lat="45.1562517" lon="11.6466283"><ele>6.0</ele><time>2026-04-12T07:46:16.543Z</time></trkpt><trkpt lat="45.1561833" lon="11.6466333"><ele>5.857142857142857</ele><time>2026-04-12T07:46:17.549Z</time></trkpt><trkpt lat="45.1561133" lon="11.64664"><ele>5.714285714285714</ele><time>2026-04-12T07:46:18.529Z</time></trkpt><trkpt lat="45.1560433" lon="11.6466433"><ele>5.571428571428571</ele><time>2026-04-12T07:46:19.599Z</time></trkpt><trkpt lat="45.1559717" lon="11.6466417"><ele>5.428571428571429</ele><time>2026-04-12T07:46:20.553Z</time></trkpt><trkpt lat="45.1559067" lon="11.6466383"><ele>5.285714285714286</ele><time>2026-04-12T07:46:21.544Z</time></trkpt><trkpt lat="45.155835" lon="11.6466483"><ele>5.142857142857142</ele><time>2026-04-12T07:46:22.578Z</time></trkpt><trkpt lat="45.15577" lon="11.646655"><ele>5.0</ele><time>2026-04-12T07:46:23.553Z</time></trkpt><trkpt lat="45.1555767" lon="11.6466533"><ele>4.857142857142857</ele><time>2026-04-12T07:46:26.561Z</time></trkpt><trkpt lat="45.1555067" lon="11.6466567"><ele>4.714285714285714</ele><time>2026-04-12T07:46:27.531Z</time></trkpt><trkpt lat="45.1554383" lon="11.6466667"><ele>4.571428571428571</ele><time>2026-04-12T07:46:28.527Z</time></trkpt><trkpt lat="45.1553633" lon="11.6466667"><ele>4.428571428571429</ele><time>2026-04-12T07:46:29.531Z</time></trkpt><trkpt lat="45.1552917" lon="11.64667"><ele>4.285714285714286</ele><time>2026-04-12T07:46:30.535Z</time></trkpt><trkpt lat="45.1552233" lon="11.6466717"><ele>4.142857142857142</ele><time>2026-04-12T07:46:31.532Z</time></trkpt><trkpt lat="45.1551533" lon="11.64667"><ele>4.0</ele><time>2026-04-12T07:46:32.53Z</time></trkpt><trkpt lat="45.1550833" lon="11.6466667"><ele>4.0</ele><time>2026-04-12T07:46:33.529Z</time></trkpt><trkpt lat="45.15502" lon="11.64665"><ele>3.9999999999999996</ele><time>2026-04-12T07:46:34.532Z</time></trkpt><trkpt lat="45.1549567" lon="11.6466333"><ele>4.0</ele><time>2026-04-12T07:46:35.547Z</time></trkpt><trkpt lat="45.15489" lon="11.6466167"><ele>4.0</ele><time>2026-04-12T07:46:36.541Z</time></trkpt><trkpt lat="45.1548233" lon="11.6465983"><ele>3.9999999999999996</ele><time>2026-04-12T07:46:37.562Z</time></trkpt><trkpt lat="45.1547567" lon="11.64658"><ele>4.0</ele><time>2026-04-12T07:46:38.531Z</time></trkpt><trkpt lat="45.15469" lon="11.6465583"><ele>4.0</ele><time>2026-04-12T07:46:39.536Z</time></trkpt><trkpt lat="45.154625" lon="11.6465383"><ele>4.285714285714286</ele><time>2026-04-12T07:46:40.526Z</time></trkpt><trkpt lat="45.15456" lon="11.64652"><ele>4.571428571428571</ele><time>2026-04-12T07:46:41.533Z</time></trkpt><trkpt lat="45.154495" lon="11.6464983"><ele>4.857142857142857</ele><time>2026-04-12T07:46:42.53Z</time></trkpt><trkpt lat="45.1544317" lon="11.646475"><ele>5.142857142857142</ele><time>2026-04-12T07:46:43.54Z</time></trkpt><trkpt lat="45.1543667" lon="11.6464517"><ele>5.428571428571429</ele><time>2026-04-12T07:46:44.532Z</time></trkpt><trkpt lat="45.1543017" lon="11.64643"><ele>5.7142857142857135</ele><time>2026-04-12T07:46:45.535Z</time></trkpt><trkpt lat="45.154235" lon="11.6464067"><ele>6.0</ele><time>2026-04-12T07:46:46.53Z</time></trkpt><trkpt lat="45.1541683" lon="11.6463783"><ele>5.999999999999999</ele><time>2026-04-12T07:46:47.553Z</time></trkpt><trkpt lat="45.1541017" lon="11.6463533"><ele>6.0</ele><time>2026-04-12T07:46:48.527Z</time></trkpt><trkpt lat="45.1540367" lon="11.6463317"><ele>6.0</ele><time>2026-04-12T07:46:49.544Z</time></trkpt><trkpt lat="45.1539717" lon="11.6463083"><ele>6.0</ele><time>2026-04-12T07:46:50.529Z</time></trkpt><trkpt lat="45.1539083" lon="11.646285"><ele>6.0</ele><time>2026-04-12T07:46:51.527Z</time></trkpt><trkpt lat="45.1538433" lon="11.6462617"><ele>5.999999999999999</ele><time>2026-04-12T07:46:52.534Z</time></trkpt><trkpt lat="45.15378" lon="11.6462367"><ele>6.0</ele><time>2026-04-12T07:46:53.534Z</time></trkpt><trkpt lat="45.153715" lon="11.646215"><ele>6.142857142857142</ele><time>2026-04-12T07:46:54.537Z</time></trkpt><trkpt lat="45.15365" lon="11.6461917"><ele>6.285714285714286</ele><time>2026-04-12T07:46:55.53Z</time></trkpt><trkpt lat="45.153585" lon="11.6461733"><ele>6.428571428571429</ele><time>2026-04-12T07:46:56.532Z</time></trkpt><trkpt lat="45.1535217" lon="11.6461517"><ele>6.571428571428571</ele><time>2026-04-12T07:46:57.537Z</time></trkpt><trkpt lat="45.1534583" lon="11.6461283"><ele>6.714285714285714</ele><time>2026-04-12T07:46:58.53Z</time></trkpt><trkpt lat="45.1533933" lon="11.6461083"><ele>6.857142857142857</ele><time>2026-04-12T07:46:59.533Z</time></trkpt><trkpt lat="45.1533267" lon="11.6460883"><ele>7.0</ele><time>2026-04-12T07:47:00.542Z</time></trkpt><trkpt lat="45.15326" lon="11.6460667"><ele>7.142857142857142</ele><time>2026-04-12T07:47:01.533Z</time></trkpt><trkpt lat="45.1531933" lon="11.6460433"><ele>7.285714285714286</ele><time>2026-04-12T07:47:02.541Z</time></trkpt><trkpt lat="45.15313" lon="11.6460233"><ele>7.428571428571429</ele><time>2026-04-12T07:47:03.531Z</time></trkpt><trkpt lat="45.1530633" lon="11.6460017"><ele>7.571428571428571</ele><time>2026-04-12T07:47:04.543Z</time></trkpt><trkpt lat="45.1529983" lon="11.6459833"><ele>7.7142857142857135</ele><time>2026-04-12T07:47:05.539Z</time></trkpt><trkpt lat="45.152935" lon="11.645965"><ele>7.857142857142857</ele><time>2026-04-12T07:47:06.534Z</time></trkpt><trkpt lat="45.1528717" lon="11.6459433"><ele>8.0</ele><time>2026-04-12T07:47:07.544Z</time></trkpt><trkpt lat="45.1528083" lon="11.6459267"><ele>8.0</ele><time>2026-04-12T07:47:08.526Z</time></trkpt><trkpt lat="45.152745" lon="11.6459117"><ele>7.999999999999999</ele><time>2026-04-12T07:47:09.527Z</time></trkpt><trkpt lat="45.1526817" lon="11.6458917"><ele>8.0</ele><time>2026-04-12T07:47:10.546Z</time></trkpt><trkpt lat="45.152615" lon="11.6458683"><ele>8.0</ele><time>2026-04-12T07:47:11.535Z</time></trkpt><trkpt lat="45.15255" lon="11.6458433"><ele>7.999999999999999</ele><time>2026-04-12T07:47:12.539Z</time></trkpt><trkpt lat="45.152485" lon="11.6458183"><ele>8.0</ele><time>2026-04-12T07:47:13.54Z</time></trkpt><trkpt lat="45.15242" lon="11.6457933"><ele>8.0</ele><time>2026-04-12T07:47:14.532Z</time></trkpt><trkpt lat="45.1523533" lon="11.64577"><ele>7.999999999999999</ele><time>2026-04-12T07:47:15.545Z</time></trkpt><trkpt lat="45.1522867" lon="11.6457467"><ele>8.0</ele><time>2026-04-12T07:47:16.537Z</time></trkpt><trkpt lat="45.1522233" lon="11.6457267"><ele>8.0</ele><time>2026-04-12T07:47:17.579Z</time></trkpt><trkpt lat="45.1521617" lon="11.6457067"><ele>8.0</ele><time>2026-04-12T07:47:18.553Z</time></trkpt><trkpt lat="45.1520983" lon="11.6456883"><ele>7.999999999999999</ele><time>2026-04-12T07:47:19.531Z</time></trkpt><trkpt lat="45.15198" lon="11.645645"><ele>8.0</ele><time>2026-04-12T07:47:21.53Z</time></trkpt><trkpt lat="45.151855" lon="11.6456033"><ele>8.0</ele><time>2026-04-12T07:47:23.528Z</time></trkpt><trkpt lat="45.15179" lon="11.6455817"><ele>7.999999999999999</ele><time>2026-04-12T07:47:24.527Z</time></trkpt><trkpt lat="45.151725" lon="11.6455617"><ele>8.0</ele><time>2026-04-12T07:47:25.536Z</time></trkpt><trkpt lat="45.1516617" lon="11.64554"><ele>8.0</ele><time>2026-04-12T07:47:26.532Z</time></trkpt><trkpt lat="45.151595" lon="11.645515"><ele>7.999999999999999</ele><time>2026-04-12T07:47:27.541Z</time></trkpt><trkpt lat="45.1515267" lon="11.64549"><ele>8.0</ele><time>2026-04-12T07:47:28.536Z</time></trkpt><trkpt lat="45.1514567" lon="11.64547"><ele>8.0</ele><time>2026-04-12T07:47:29.541Z</time></trkpt><trkpt lat="45.15139" lon="11.6454483"><ele>8.0</ele><time>2026-04-12T07:47:30.546Z</time></trkpt><trkpt lat="45.151325" lon="11.6454283"><ele>7.999999999999999</ele><time>2026-04-12T07:47:31.541Z</time></trkpt><trkpt lat="45.15126" lon="11.64541"><ele>8.0</ele><time>2026-04-12T07:47:32.537Z</time></trkpt><trkpt lat="45.151195" lon="11.6453983"><ele>8.0</ele><time>2026-04-12T07:47:33.543Z</time></trkpt><trkpt lat="45.15113" lon="11.64539"><ele>7.999999999999999</ele><time>2026-04-12T07:47:34.532Z</time></trkpt><trkpt lat="45.1510667" lon="11.6453817"><ele>8.0</ele><time>2026-04-12T07:47:35.528Z</time></trkpt><trkpt lat="45.1509983" lon="11.645375"><ele>8.0</ele><time>2026-04-12T07:47:36.534Z</time></trkpt><trkpt lat="45.1509317" lon="11.6453683"><ele>8.0</ele><time>2026-04-12T07:47:37.534Z</time></trkpt><trkpt lat="45.1508667" lon="11.6453617"><ele>7.999999999999999</ele><time>2026-04-12T07:47:38.534Z</time></trkpt><trkpt lat="45.1508033" lon="11.6453583"><ele>8.0</ele><time>2026-04-12T07:47:39.532Z</time></trkpt><trkpt lat="45.150735" lon="11.64535"><ele>8.0</ele><time>2026-04-12T07:47:40.526Z</time></trkpt><trkpt lat="45.1506667" lon="11.6453383"><ele>7.999999999999999</ele><time>2026-04-12T07:47:41.531Z</time></trkpt><trkpt lat="45.1505983" lon="11.6453283"><ele>8.0</ele><time>2026-04-12T07:47:42.543Z</time></trkpt><trkpt lat="45.15053" lon="11.6453183"><ele>8.0</ele><time>2026-04-12T07:47:43.531Z</time></trkpt><trkpt lat="45.1504633" lon="11.645305"><ele>7.857142857142857</ele><time>2026-04-12T07:47:44.527Z</time></trkpt><trkpt lat="45.1503967" lon="11.6452917"><ele>7.7142857142857135</ele><time>2026-04-12T07:47:45.529Z</time></trkpt><trkpt lat="45.1503283" lon="11.6452783"><ele>7.571428571428571</ele><time>2026-04-12T07:47:46.531Z</time></trkpt><trkpt lat="45.15026" lon="11.6452667"><ele>7.428571428571429</ele><time>2026-04-12T07:47:47.532Z</time></trkpt><trkpt lat="45.1501917" lon="11.6452583"><ele>7.285714285714286</ele><time>2026-04-12T07:47:48.526Z</time></trkpt><trkpt lat="45.1501233" lon="11.6452533"><ele>7.142857142857142</ele><time>2026-04-12T07:47:49.527Z</time></trkpt><trkpt lat="45.1500533" lon="11.645245"><ele>7.0</ele><time>2026-04-12T07:47:50.526Z</time></trkpt><trkpt lat="45.1499867" lon="11.6452283"><ele>7.0</ele><time>2026-04-12T07:47:51.532Z</time></trkpt><trkpt lat="45.1499167" lon="11.6452133"><ele>7.0</ele><time>2026-04-12T07:47:52.525Z</time></trkpt><trkpt lat="45.1498467" lon="11.6451967"><ele>7.0</ele><time>2026-04-12T07:47:53.528Z</time></trkpt><trkpt lat="45.1497783" lon="11.6451867"><ele>7.0</ele><time>2026-04-12T07:47:54.531Z</time></trkpt><trkpt lat="45.1497133" lon="11.6451767"><ele>7.0</ele><time>2026-04-12T07:47:55.536Z</time></trkpt><trkpt lat="45.1496467" lon="11.645165"><ele>7.0</ele><time>2026-04-12T07:47:56.539Z</time></trkpt><trkpt lat="45.14958" lon="11.6451517"><ele>7.0</ele><time>2026-04-12T07:47:57.533Z</time></trkpt><trkpt lat="45.1495117" lon="11.6451367"><ele>6.714285714285714</ele><time>2026-04-12T07:47:58.542Z</time></trkpt><trkpt lat="45.1494433" lon="11.6451217"><ele>6.428571428571429</ele><time>2026-04-12T07:47:59.529Z</time></trkpt><trkpt lat="45.1493767" lon="11.64511"><ele>6.142857142857142</ele><time>2026-04-12T07:48:00.54Z</time></trkpt><trkpt lat="45.14931" lon="11.6450983"><ele>5.857142857142858</ele><time>2026-04-12T07:48:01.536Z</time></trkpt><trkpt lat="45.149245" lon="11.6450817"><ele>5.571428571428571</ele><time>2026-04-12T07:48:02.549Z</time></trkpt><trkpt lat="45.1491817" lon="11.6450683"><ele>5.285714285714286</ele><time>2026-04-12T07:48:03.533Z</time></trkpt><trkpt lat="45.1491167" lon="11.6450567"><ele>5.0</ele><time>2026-04-12T07:48:04.551Z</time></trkpt><trkpt lat="45.1490533" lon="11.6450483"><ele>5.142857142857142</ele><time>2026-04-12T07:48:05.545Z</time></trkpt><trkpt lat="45.1489867" lon="11.6450367"><ele>5.285714285714286</ele><time>2026-04-12T07:48:06.534Z</time></trkpt><trkpt lat="45.1489217" lon="11.6450267"><ele>5.428571428571429</ele><time>2026-04-12T07:48:07.537Z</time></trkpt><trkpt lat="45.1488567" lon="11.6450167"><ele>5.571428571428571</ele><time>2026-04-12T07:48:08.539Z</time></trkpt><trkpt lat="45.1487917" lon="11.64501"><ele>5.714285714285714</ele><time>2026-04-12T07:48:09.537Z</time></trkpt><trkpt lat="45.148725" lon="11.6450017"><ele>5.857142857142857</ele><time>2026-04-12T07:48:10.537Z</time></trkpt><trkpt lat="45.1486583" lon="11.6449917"><ele>6.0</ele><time>2026-04-12T07:48:11.539Z</time></trkpt><trkpt lat="45.1485933" lon="11.6449817"><ele>5.999999999999999</ele><time>2026-04-12T07:48:12.529Z</time></trkpt><trkpt lat="45.1485267" lon="11.6449683"><ele>6.0</ele><time>2026-04-12T07:48:13.53Z</time></trkpt><trkpt lat="45.1484617" lon="11.644955"><ele>6.0</ele><time>2026-04-12T07:48:14.524Z</time></trkpt><trkpt lat="45.1483983" lon="11.6449417"><ele>6.0</ele><time>2026-04-12T07:48:15.537Z</time></trkpt><trkpt lat="45.1483333" lon="11.6449317"><ele>6.0</ele><time>2026-04-12T07:48:16.532Z</time></trkpt><trkpt lat="45.148265" lon="11.64492"><ele>5.999999999999999</ele><time>2026-04-12T07:48:17.528Z</time></trkpt><trkpt lat="45.1481983" lon="11.6449117"><ele>6.0</ele><time>2026-04-12T07:48:18.545Z</time></trkpt><trkpt lat="45.148135" lon="11.6449017"><ele>5.999999999999999</ele><time>2026-04-12T07:48:19.526Z</time></trkpt><trkpt lat="45.1480717" lon="11.6448883"><ele>6.0</ele><time>2026-04-12T07:48:20.53Z</time></trkpt><trkpt lat="45.1480067" lon="11.644875"><ele>6.0</ele><time>2026-04-12T07:48:21.548Z</time></trkpt><trkpt lat="45.1479383" lon="11.6448667"><ele>6.0</ele><time>2026-04-12T07:48:22.532Z</time></trkpt><trkpt lat="45.1478717" lon="11.6448583"><ele>6.0</ele><time>2026-04-12T07:48:23.528Z</time></trkpt><trkpt lat="45.147805" lon="11.6448467"><ele>5.999999999999999</ele><time>2026-04-12T07:48:24.53Z</time></trkpt><trkpt lat="45.1477367" lon="11.644835"><ele>6.0</ele><time>2026-04-12T07:48:25.54Z</time></trkpt><trkpt lat="45.14767" lon="11.6448217"><ele>6.0</ele><time>2026-04-12T07:48:26.531Z</time></trkpt><trkpt lat="45.1476017" lon="11.64481"><ele>6.0</ele><time>2026-04-12T07:48:27.529Z</time></trkpt><trkpt lat="45.1475333" lon="11.6447983"><ele>6.0</ele><time>2026-04-12T07:48:28.533Z</time></trkpt><trkpt lat="45.147465" lon="11.644785"><ele>6.0</ele><time>2026-04-12T07:48:29.534Z</time></trkpt><trkpt lat="45.147395" lon="11.64477"><ele>6.0</ele><time>2026-04-12T07:48:30.539Z</time></trkpt><trkpt lat="45.1473317" lon="11.6447567"><ele>6.0</ele><time>2026-04-12T07:48:31.531Z</time></trkpt><trkpt lat="45.1472067" lon="11.6447383"><ele>6.285714285714285</ele><time>2026-04-12T07:48:33.543Z</time></trkpt><trkpt lat="45.14714" lon="11.6447317"><ele>6.571428571428571</ele><time>2026-04-12T07:48:34.538Z</time></trkpt><trkpt lat="45.1470733" lon="11.64472"><ele>6.857142857142857</ele><time>2026-04-12T07:48:35.531Z</time></trkpt><trkpt lat="45.1470083" lon="11.6447133"><ele>7.142857142857142</ele><time>2026-04-12T07:48:36.535Z</time></trkpt><trkpt lat="45.1469433" lon="11.6447"><ele>7.428571428571428</ele><time>2026-04-12T07:48:37.536Z</time></trkpt><trkpt lat="45.146875" lon="11.6446867"><ele>7.7142857142857135</ele><time>2026-04-12T07:48:38.548Z</time></trkpt><trkpt lat="45.1468067" lon="11.6446717"><ele>8.0</ele><time>2026-04-12T07:48:39.547Z</time></trkpt><trkpt lat="45.1467383" lon="11.6446583"><ele>8.0</ele><time>2026-04-12T07:48:40.528Z</time></trkpt><trkpt lat="45.1466717" lon="11.644645"><ele>7.999999999999999</ele><time>2026-04-12T07:48:41.546Z</time></trkpt><trkpt lat="45.1466033" lon="11.6446317"><ele>8.0</ele><time>2026-04-12T07:48:42.531Z</time></trkpt><trkpt lat="45.1465367" lon="11.6446217"><ele>8.0</ele><time>2026-04-12T07:48:43.529Z</time></trkpt><trkpt lat="45.14647" lon="11.6446117"><ele>7.999999999999999</ele><time>2026-04-12T07:48:44.543Z</time></trkpt><trkpt lat="45.1464017" lon="11.6446033"><ele>8.0</ele><time>2026-04-12T07:48:45.537Z</time></trkpt><trkpt lat="45.146335" lon="11.6445933"><ele>8.0</ele><time>2026-04-12T07:48:46.541Z</time></trkpt><trkpt lat="45.14627" lon="11.6445817"><ele>7.7142857142857135</ele><time>2026-04-12T07:48:47.53Z</time></trkpt><trkpt lat="45.1462033" lon="11.6445717"><ele>7.428571428571428</ele><time>2026-04-12T07:48:48.545Z</time></trkpt><trkpt lat="45.1461333" lon="11.6445617"><ele>7.142857142857142</ele><time>2026-04-12T07:48:49.565Z</time></trkpt><trkpt lat="45.146065" lon="11.6445533"><ele>6.857142857142857</ele><time>2026-04-12T07:48:50.541Z</time></trkpt><trkpt lat="45.145995" lon="11.6445483"><ele>6.571428571428571</ele><time>2026-04-12T07:48:51.567Z</time></trkpt><trkpt lat="45.1459267" lon="11.6445417"><ele>6.285714285714285</ele><time>2026-04-12T07:48:52.539Z</time></trkpt><trkpt lat="45.14586" lon="11.6445317"><ele>6.0</ele><time>2026-04-12T07:48:53.549Z</time></trkpt><trkpt lat="45.1457933" lon="11.6445217"><ele>5.999999999999999</ele><time>2026-04-12T07:48:54.555Z</time></trkpt><trkpt lat="45.145725" lon="11.6445117"><ele>6.0</ele><time>2026-04-12T07:48:55.543Z</time></trkpt><trkpt lat="45.1456583" lon="11.6444983"><ele>6.0</ele><time>2026-04-12T07:48:56.566Z</time></trkpt><trkpt lat="45.1455917" lon="11.64449"><ele>6.0</ele><time>2026-04-12T07:48:57.549Z</time></trkpt><trkpt lat="45.1455267" lon="11.644475"><ele>6.0</ele><time>2026-04-12T07:48:58.599Z</time></trkpt><trkpt lat="45.1454633" lon="11.644465"><ele>5.999999999999999</ele><time>2026-04-12T07:48:59.546Z</time></trkpt><trkpt lat="45.1454" lon="11.64445"><ele>6.0</ele><time>2026-04-12T07:49:00.554Z</time></trkpt><trkpt lat="45.1452783" lon="11.6444383"><ele>6.0</ele><time>2026-04-12T07:49:02.54Z</time></trkpt><trkpt lat="45.1451567" lon="11.644405"><ele>6.0</ele><time>2026-04-12T07:49:04.565Z</time></trkpt><trkpt lat="45.1450933" lon="11.6443833"><ele>6.0</ele><time>2026-04-12T07:49:05.574Z</time></trkpt><trkpt lat="45.1449783" lon="11.64433"><ele>6.0</ele><time>2026-04-12T07:49:07.539Z</time></trkpt><trkpt lat="45.1448783" lon="11.6442717"><ele>6.0</ele><time>2026-04-12T07:49:09.531Z</time></trkpt><trkpt lat="45.1447717" lon="11.6442133"><ele>5.75</ele><time>2026-04-12T07:49:11.528Z</time></trkpt><trkpt lat="45.14466" lon="11.6441583"><ele>5.5</ele><time>2026-04-12T07:49:13.53Z</time></trkpt><trkpt lat="45.1445483" lon="11.6441017"><ele>5.25</ele><time>2026-04-12T07:49:15.532Z</time></trkpt><trkpt lat="45.1444333" lon="11.6440467"><ele>5.0</ele><time>2026-04-12T07:49:17.529Z</time></trkpt><trkpt lat="45.1443183" lon="11.6439783"><ele>5.0</ele><time>2026-04-12T07:49:19.525Z</time></trkpt><trkpt lat="45.1442583" lon="11.6439483"><ele>5.0</ele><time>2026-04-12T07:49:20.531Z</time></trkpt><trkpt lat="45.1441967" lon="11.6439133"><ele>5.0</ele><time>2026-04-12T07:49:21.536Z</time></trkpt><trkpt lat="45.144135" lon="11.6438767"><ele>5.0</ele><time>2026-04-12T07:49:22.533Z</time></trkpt><trkpt lat="45.144075" lon="11.6438433"><ele>5.0</ele><time>2026-04-12T07:49:23.539Z</time></trkpt><trkpt lat="45.1440133" lon="11.643805"><ele>5.0</ele><time>2026-04-12T07:49:24.526Z</time></trkpt><trkpt lat="45.143895" lon="11.6437417"><ele>5.0</ele><time>2026-04-12T07:49:26.543Z</time></trkpt><trkpt lat="45.1437783" lon="11.64368"><ele>5.0</ele><time>2026-04-12T07:49:28.562Z</time></trkpt><trkpt lat="45.1436633" lon="11.6436233"><ele>5.0</ele><time>2026-04-12T07:49:30.543Z</time></trkpt><trkpt lat="45.1436033" lon="11.6435933"><ele>5.0</ele><time>2026-04-12T07:49:31.551Z</time></trkpt><trkpt lat="45.1434833" lon="11.6435283"><ele>5.0</ele><time>2026-04-12T07:49:33.529Z</time></trkpt><trkpt lat="45.1434217" lon="11.6434983"><ele>5.142857142857142</ele><time>2026-04-12T07:49:34.532Z</time></trkpt><trkpt lat="45.1433583" lon="11.643465"><ele>5.285714285714286</ele><time>2026-04-12T07:49:35.535Z</time></trkpt><trkpt lat="45.1432967" lon="11.643435"><ele>5.428571428571429</ele><time>2026-04-12T07:49:36.53Z</time></trkpt><trkpt lat="45.1432333" lon="11.6434067"><ele>5.571428571428571</ele><time>2026-04-12T07:49:37.533Z</time></trkpt><trkpt lat="45.14317" lon="11.6433783"><ele>5.714285714285714</ele><time>2026-04-12T07:49:38.533Z</time></trkpt><trkpt lat="45.1431067" lon="11.6433483"><ele>5.857142857142857</ele><time>2026-04-12T07:49:39.522Z</time></trkpt><trkpt lat="45.1430417" lon="11.6433167"><ele>6.0</ele><time>2026-04-12T07:49:40.531Z</time></trkpt><trkpt lat="45.1429767" lon="11.6432817"><ele>5.999999999999999</ele><time>2026-04-12T07:49:41.538Z</time></trkpt><trkpt lat="45.1429133" lon="11.6432483"><ele>6.0</ele><time>2026-04-12T07:49:42.552Z</time></trkpt><trkpt lat="45.14285" lon="11.6432133"><ele>6.0</ele><time>2026-04-12T07:49:43.534Z</time></trkpt><trkpt lat="45.142785" lon="11.6431783"><ele>6.0</ele><time>2026-04-12T07:49:44.535Z</time></trkpt><trkpt lat="45.1427183" lon="11.6431367"><ele>6.0</ele><time>2026-04-12T07:49:45.528Z</time></trkpt><trkpt lat="45.1426533" lon="11.6431"><ele>5.999999999999999</ele><time>2026-04-12T07:49:46.533Z</time></trkpt><trkpt lat="45.1425867" lon="11.6430667"><ele>6.0</ele><time>2026-04-12T07:49:47.53Z</time></trkpt><trkpt lat="45.1425183" lon="11.643035"><ele>5.999999999999999</ele><time>2026-04-12T07:49:48.532Z</time></trkpt><trkpt lat="45.1424517" lon="11.6430117"><ele>6.0</ele><time>2026-04-12T07:49:49.534Z</time></trkpt><trkpt lat="45.1423867" lon="11.6429917"><ele>6.0</ele><time>2026-04-12T07:49:50.535Z</time></trkpt><trkpt lat="45.1423233" lon="11.6429667"><ele>6.0</ele><time>2026-04-12T07:49:51.543Z</time></trkpt><trkpt lat="45.14226" lon="11.64294"><ele>6.0</ele><time>2026-04-12T07:49:52.536Z</time></trkpt><trkpt lat="45.142195" lon="11.6429067"><ele>5.999999999999999</ele><time>2026-04-12T07:49:53.538Z</time></trkpt><trkpt lat="45.14213" lon="11.6428717"><ele>6.0</ele><time>2026-04-12T07:49:54.543Z</time></trkpt><trkpt lat="45.1420683" lon="11.6428367"><ele>6.0</ele><time>2026-04-12T07:49:55.534Z</time></trkpt><trkpt lat="45.1420067" lon="11.6428"><ele>6.0</ele><time>2026-04-12T07:49:56.55Z</time></trkpt><trkpt lat="45.141945" lon="11.6427633"><ele>6.0</ele><time>2026-04-12T07:49:57.552Z</time></trkpt><trkpt lat="45.1418867" lon="11.6427233"><ele>6.0</ele><time>2026-04-12T07:49:58.547Z</time></trkpt><trkpt lat="45.1418267" lon="11.6426833"><ele>6.0</ele><time>2026-04-12T07:49:59.551Z</time></trkpt><trkpt lat="45.1417133" lon="11.6426183"><ele>6.0</ele><time>2026-04-12T07:50:01.555Z</time></trkpt><trkpt lat="45.1415933" lon="11.6425933"><ele>5.857142857142857</ele><time>2026-04-12T07:50:03.575Z</time></trkpt><trkpt lat="45.14153" lon="11.6426033"><ele>5.714285714285714</ele><time>2026-04-12T07:50:04.569Z</time></trkpt><trkpt lat="45.1414683" lon="11.6426333"><ele>5.571428571428571</ele><time>2026-04-12T07:50:05.566Z</time></trkpt><trkpt lat="45.1414067" lon="11.6426717"><ele>5.428571428571429</ele><time>2026-04-12T07:50:06.564Z</time></trkpt><trkpt lat="45.1413433" lon="11.6427017"><ele>5.285714285714286</ele><time>2026-04-12T07:50:07.569Z</time></trkpt><trkpt lat="45.1412783" lon="11.6427317"><ele>5.142857142857142</ele><time>2026-04-12T07:50:08.563Z</time></trkpt><trkpt lat="45.14121" lon="11.64276"><ele>5.0</ele><time>2026-04-12T07:50:09.538Z</time></trkpt><trkpt lat="45.1411417" lon="11.6427917"><ele>5.0</ele><time>2026-04-12T07:50:10.535Z</time></trkpt><trkpt lat="45.14107" lon="11.6428267"><ele>5.0</ele><time>2026-04-12T07:50:11.53Z</time></trkpt><trkpt lat="45.1409983" lon="11.6428633"><ele>5.0</ele><time>2026-04-12T07:50:12.539Z</time></trkpt><trkpt lat="45.14093" lon="11.642905"><ele>5.0</ele><time>2026-04-12T07:50:13.529Z</time></trkpt><trkpt lat="45.1408667" lon="11.642945"><ele>5.0</ele><time>2026-04-12T07:50:14.53Z</time></trkpt><trkpt lat="45.1408033" lon="11.6429867"><ele>5.0</ele><time>2026-04-12T07:50:15.535Z</time></trkpt><trkpt lat="45.1407433" lon="11.6430283"><ele>5.0</ele><time>2026-04-12T07:50:16.529Z</time></trkpt><trkpt lat="45.1406817" lon="11.6430733"><ele>5.0</ele><time>2026-04-12T07:50:17.526Z</time></trkpt><trkpt lat="45.1406217" lon="11.6431233"><ele>5.0</ele><time>2026-04-12T07:50:18.527Z</time></trkpt><trkpt lat="45.1405617" lon="11.6431733"><ele>5.0</ele><time>2026-04-12T07:50:19.523Z</time></trkpt><trkpt lat="45.140505" lon="11.6432233"><ele>5.0</ele><time>2026-04-12T07:50:20.532Z</time></trkpt><trkpt lat="45.1404433" lon="11.6432683"><ele>5.0</ele><time>2026-04-12T07:50:21.531Z</time></trkpt><trkpt lat="45.1403817" lon="11.6433083"><ele>5.0</ele><time>2026-04-12T07:50:22.566Z</time></trkpt><trkpt lat="45.1403133" lon="11.6433433"><ele>5.0</ele><time>2026-04-12T07:50:23.572Z</time></trkpt><trkpt lat="45.140245" lon="11.643375"><ele>5.0</ele><time>2026-04-12T07:50:24.565Z</time></trkpt><trkpt lat="45.140175" lon="11.6433933"><ele>5.0</ele><time>2026-04-12T07:50:25.566Z</time></trkpt><trkpt lat="45.1401033" lon="11.643405"><ele>5.0</ele><time>2026-04-12T07:50:26.559Z</time></trkpt><trkpt lat="45.14003" lon="11.6434167"><ele>5.0</ele><time>2026-04-12T07:50:27.546Z</time></trkpt><trkpt lat="45.1399617" lon="11.643425"><ele>5.0</ele><time>2026-04-12T07:50:28.535Z</time></trkpt><trkpt lat="45.1398917" lon="11.6434333"><ele>5.0</ele><time>2026-04-12T07:50:29.531Z</time></trkpt><trkpt lat="45.1398267" lon="11.64344"><ele>5.0</ele><time>2026-04-12T07:50:30.527Z</time></trkpt><trkpt lat="45.1397633" lon="11.643445"><ele>5.2</ele><time>2026-04-12T07:50:31.529Z</time></trkpt><trkpt lat="45.1396383" lon="11.6434583"><ele>5.4</ele><time>2026-04-12T07:50:33.581Z</time></trkpt><trkpt lat="45.139515" lon="11.6434683"><ele>5.6</ele><time>2026-04-12T07:50:35.535Z</time></trkpt><trkpt lat="45.13945" lon="11.64348"><ele>5.8</ele><time>2026-04-12T07:50:36.541Z</time></trkpt><trkpt lat="45.1393817" lon="11.6434867"><ele>6.0</ele><time>2026-04-12T07:50:37.542Z</time></trkpt><trkpt lat="45.13931" lon="11.6434917"><ele>5.999999999999999</ele><time>2026-04-12T07:50:38.531Z</time></trkpt><trkpt lat="45.13924" lon="11.643505"><ele>6.0</ele><time>2026-04-12T07:50:39.532Z</time></trkpt><trkpt lat="45.1391733" lon="11.64352"><ele>6.0</ele><time>2026-04-12T07:50:40.536Z</time></trkpt><trkpt lat="45.1391133" lon="11.6435483"><ele>6.0</ele><time>2026-04-12T07:50:41.533Z</time></trkpt><trkpt lat="45.1390483" lon="11.6435783"><ele>6.0</ele><time>2026-04-12T07:50:42.533Z</time></trkpt><trkpt lat="45.138985" lon="11.64361"><ele>5.999999999999999</ele><time>2026-04-12T07:50:43.542Z</time></trkpt><trkpt lat="45.1389233" lon="11.6436417"><ele>6.0</ele><time>2026-04-12T07:50:44.54Z</time></trkpt><trkpt lat="45.1388583" lon="11.64367"><ele>5.857142857142857</ele><time>2026-04-12T07:50:45.546Z</time></trkpt><trkpt lat="45.1387933" lon="11.6436967"><ele>5.714285714285714</ele><time>2026-04-12T07:50:46.524Z</time></trkpt><trkpt lat="45.13873" lon="11.6437233"><ele>5.571428571428571</ele><time>2026-04-12T07:50:47.535Z</time></trkpt><trkpt lat="45.138665" lon="11.6437483"><ele>5.428571428571429</ele><time>2026-04-12T07:50:48.541Z</time></trkpt><trkpt lat="45.1386" lon="11.6437767"><ele>5.285714285714286</ele><time>2026-04-12T07:50:49.532Z</time></trkpt><trkpt lat="45.1385367" lon="11.6438017"><ele>5.142857142857142</ele><time>2026-04-12T07:50:50.551Z</time></trkpt><trkpt lat="45.1384733" lon="11.6438283"><ele>5.0</ele><time>2026-04-12T07:50:51.531Z</time></trkpt><trkpt lat="45.138405" lon="11.6438417"><ele>5.0</ele><time>2026-04-12T07:50:52.541Z</time></trkpt><trkpt lat="45.138335" lon="11.64385"><ele>5.0</ele><time>2026-04-12T07:50:53.538Z</time></trkpt><trkpt lat="45.1382683" lon="11.6438533"><ele>5.0</ele><time>2026-04-12T07:50:54.552Z</time></trkpt><trkpt lat="45.1382017" lon="11.6438617"><ele>5.0</ele><time>2026-04-12T07:50:55.532Z</time></trkpt><trkpt lat="45.1381333" lon="11.643865"><ele>5.0</ele><time>2026-04-12T07:50:56.534Z</time></trkpt><trkpt lat="45.138065" lon="11.6438583"><ele>5.0</ele><time>2026-04-12T07:50:57.533Z</time></trkpt><trkpt lat="45.1379933" lon="11.64385"><ele>5.0</ele><time>2026-04-12T07:50:58.538Z</time></trkpt><trkpt lat="45.1379217" lon="11.643845"><ele>4.857142857142857</ele><time>2026-04-12T07:50:59.544Z</time></trkpt><trkpt lat="45.13785" lon="11.64384"><ele>4.714285714285714</ele><time>2026-04-12T07:51:00.527Z</time></trkpt><trkpt lat="45.13778" lon="11.643835"><ele>4.571428571428571</ele><time>2026-04-12T07:51:01.553Z</time></trkpt><trkpt lat="45.1377117" lon="11.6438317"><ele>4.428571428571429</ele><time>2026-04-12T07:51:02.536Z</time></trkpt><trkpt lat="45.1376433" lon="11.643835"><ele>4.285714285714286</ele><time>2026-04-12T07:51:03.541Z</time></trkpt><trkpt lat="45.137575" lon="11.6438367"><ele>4.142857142857142</ele><time>2026-04-12T07:51:04.543Z</time></trkpt><trkpt lat="45.137505" lon="11.643835"><ele>4.0</ele><time>2026-04-12T07:51:05.529Z</time></trkpt><trkpt lat="45.1374383" lon="11.6438317"><ele>3.8571428571428568</ele><time>2026-04-12T07:51:06.543Z</time></trkpt><trkpt lat="45.1373733" lon="11.6438267"><ele>3.714285714285714</ele><time>2026-04-12T07:51:07.545Z</time></trkpt><trkpt lat="45.137305" lon="11.6438233"><ele>3.571428571428571</ele><time>2026-04-12T07:51:08.546Z</time></trkpt><trkpt lat="45.1372383" lon="11.6438217"><ele>3.4285714285714284</ele><time>2026-04-12T07:51:09.538Z</time></trkpt><trkpt lat="45.1371717" lon="11.6438217"><ele>3.2857142857142856</ele><time>2026-04-12T07:51:10.541Z</time></trkpt><trkpt lat="45.137105" lon="11.6438267"><ele>3.1428571428571423</ele><time>2026-04-12T07:51:11.539Z</time></trkpt><trkpt lat="45.1370383" lon="11.6438367"><ele>3.0</ele><time>2026-04-12T07:51:12.533Z</time></trkpt><trkpt lat="45.1369733" lon="11.6438483"><ele>2.9999999999999996</ele><time>2026-04-12T07:51:13.532Z</time></trkpt><trkpt lat="45.1369067" lon="11.6438583"><ele>3.0</ele><time>2026-04-12T07:51:14.542Z</time></trkpt><trkpt lat="45.13684" lon="11.643875"><ele>3.0</ele><time>2026-04-12T07:51:15.547Z</time></trkpt><trkpt lat="45.1367717" lon="11.64389"><ele>3.0</ele><time>2026-04-12T07:51:16.545Z</time></trkpt><trkpt lat="45.1367033" lon="11.64391"><ele>3.0</ele><time>2026-04-12T07:51:17.529Z</time></trkpt><trkpt lat="45.13664" lon="11.643935"><ele>2.9999999999999996</ele><time>2026-04-12T07:51:18.53Z</time></trkpt><trkpt lat="45.1365767" lon="11.6439617"><ele>3.0</ele><time>2026-04-12T07:51:19.537Z</time></trkpt><trkpt lat="45.136515" lon="11.6439933"><ele>3.1666666666666665</ele><time>2026-04-12T07:51:20.541Z</time></trkpt><trkpt lat="45.1364533" lon="11.6440283"><ele>3.333333333333333</ele><time>2026-04-12T07:51:21.524Z</time></trkpt><trkpt lat="45.1363933" lon="11.6440683"><ele>3.5</ele><time>2026-04-12T07:51:22.576Z</time></trkpt><trkpt lat="45.1363317" lon="11.6441067"><ele>3.6666666666666665</ele><time>2026-04-12T07:51:23.527Z</time></trkpt><trkpt lat="45.1362733" lon="11.64415"><ele>3.833333333333333</ele><time>2026-04-12T07:51:24.607Z</time></trkpt><trkpt lat="45.13622" lon="11.6441983"><ele>4.0</ele><time>2026-04-12T07:51:25.595Z</time></trkpt><trkpt lat="45.1361233" lon="11.644305"><ele>3.9999999999999996</ele><time>2026-04-12T07:51:27.528Z</time></trkpt><trkpt lat="45.1360683" lon="11.64435"><ele>4.0</ele><time>2026-04-12T07:51:28.538Z</time></trkpt><trkpt lat="45.1359783" lon="11.6444767"><ele>4.0</ele><time>2026-04-12T07:51:30.536Z</time></trkpt><trkpt lat="45.1359267" lon="11.6445417"><ele>4.0</ele><time>2026-04-12T07:51:31.536Z</time></trkpt><trkpt lat="45.1358783" lon="11.644605"><ele>3.9999999999999996</ele><time>2026-04-12T07:51:32.547Z</time></trkpt><trkpt lat="45.1358317" lon="11.6446733"><ele>4.0</ele><time>2026-04-12T07:51:33.544Z</time></trkpt><trkpt lat="45.1357867" lon="11.6447433"><ele>4.0</ele><time>2026-04-12T07:51:34.529Z</time></trkpt><trkpt lat="45.1357433" lon="11.6448117"><ele>3.9999999999999996</ele><time>2026-04-12T07:51:35.536Z</time></trkpt><trkpt lat="45.1357" lon="11.6448833"><ele>4.0</ele><time>2026-04-12T07:51:36.536Z</time></trkpt><trkpt lat="45.1356583" lon="11.6449567"><ele>4.0</ele><time>2026-04-12T07:51:37.533Z</time></trkpt><trkpt lat="45.135615" lon="11.6450267"><ele>3.9999999999999996</ele><time>2026-04-12T07:51:38.543Z</time></trkpt><trkpt lat="45.1355717" lon="11.645095"><ele>4.0</ele><time>2026-04-12T07:51:39.539Z</time></trkpt><trkpt lat="45.1355283" lon="11.6451667"><ele>4.0</ele><time>2026-04-12T07:51:40.538Z</time></trkpt><trkpt lat="45.13549" lon="11.64524"><ele>4.142857142857142</ele><time>2026-04-12T07:51:41.529Z</time></trkpt><trkpt lat="45.1354533" lon="11.645315"><ele>4.285714285714286</ele><time>2026-04-12T07:51:42.533Z</time></trkpt><trkpt lat="45.1354133" lon="11.6453867"><ele>4.428571428571429</ele><time>2026-04-12T07:51:43.524Z</time></trkpt><trkpt lat="45.1353683" lon="11.64546"><ele>4.571428571428571</ele><time>2026-04-12T07:51:44.54Z</time></trkpt><trkpt lat="45.1353267" lon="11.6455383"><ele>4.714285714285714</ele><time>2026-04-12T07:51:45.549Z</time></trkpt><trkpt lat="45.1352817" lon="11.6456167"><ele>4.857142857142857</ele><time>2026-04-12T07:51:46.531Z</time></trkpt><trkpt lat="45.1352317" lon="11.6456883"><ele>5.0</ele><time>2026-04-12T07:51:47.535Z</time></trkpt><trkpt lat="45.1351883" lon="11.6457633"><ele>5.0</ele><time>2026-04-12T07:51:48.537Z</time></trkpt><trkpt lat="45.135145" lon="11.64584"><ele>5.0</ele><time>2026-04-12T07:51:49.529Z</time></trkpt><trkpt lat="45.1351033" lon="11.6459133"><ele>5.0</ele><time>2026-04-12T07:51:50.537Z</time></trkpt><trkpt lat="45.13506" lon="11.6459867"><ele>5.0</ele><time>2026-04-12T07:51:51.548Z</time></trkpt><trkpt lat="45.134985" lon="11.6461317"><ele>5.0</ele><time>2026-04-12T07:51:53.533Z</time></trkpt><trkpt lat="45.1349517" lon="11.64621"><ele>5.0</ele><time>2026-04-12T07:51:54.528Z</time></trkpt><trkpt lat="45.1349033" lon="11.6463717"><ele>5.25</ele><time>2026-04-12T07:51:56.53Z</time></trkpt><trkpt lat="45.1348683" lon="11.6465317"><ele>5.5</ele><time>2026-04-12T07:51:58.534Z</time></trkpt><trkpt lat="45.1348317" lon="11.6466967"><ele>5.75</ele><time>2026-04-12T07:52:00.539Z</time></trkpt><trkpt lat="45.1348" lon="11.646865"><ele>6.0</ele><time>2026-04-12T07:52:02.539Z</time></trkpt><trkpt lat="45.1347633" lon="11.6470333"><ele>6.0</ele><time>2026-04-12T07:52:04.526Z</time></trkpt><trkpt lat="45.1347467" lon="11.64712"><ele>6.0</ele><time>2026-04-12T07:52:05.54Z</time></trkpt><trkpt lat="45.1347133" lon="11.64729"><ele>6.0</ele><time>2026-04-12T07:52:07.534Z</time></trkpt><trkpt lat="45.1346817" lon="11.64746"><ele>6.0</ele><time>2026-04-12T07:52:09.536Z</time></trkpt><trkpt lat="45.134665" lon="11.6475467"><ele>6.0</ele><time>2026-04-12T07:52:10.537Z</time></trkpt><trkpt lat="45.13462" lon="11.64771"><ele>5.857142857142857</ele><time>2026-04-12T07:52:12.532Z</time></trkpt><trkpt lat="45.1345983" lon="11.647795"><ele>5.714285714285714</ele><time>2026-04-12T07:52:13.527Z</time></trkpt><trkpt lat="45.1345683" lon="11.6478783"><ele>5.571428571428571</ele><time>2026-04-12T07:52:14.552Z</time></trkpt><trkpt lat="45.1345367" lon="11.6479583"><ele>5.428571428571429</ele><time>2026-04-12T07:52:15.528Z</time></trkpt><trkpt lat="45.1345017" lon="11.648035"><ele>5.285714285714286</ele><time>2026-04-12T07:52:16.546Z</time></trkpt><trkpt lat="45.1344617" lon="11.6481083"><ele>5.142857142857142</ele><time>2026-04-12T07:52:17.533Z</time></trkpt><trkpt lat="45.1343817" lon="11.6482433"><ele>5.0</ele><time>2026-04-12T07:52:19.543Z</time></trkpt><trkpt lat="45.1343033" lon="11.6483733"><ele>5.0</ele><time>2026-04-12T07:52:21.536Z</time></trkpt><trkpt lat="45.134225" lon="11.648505"><ele>5.0</ele><time>2026-04-12T07:52:23.531Z</time></trkpt><trkpt lat="45.1341417" lon="11.6486383"><ele>5.0</ele><time>2026-04-12T07:52:25.536Z</time></trkpt><trkpt lat="45.1340667" lon="11.648775"><ele>5.0</ele><time>2026-04-12T07:52:27.538Z</time></trkpt><trkpt lat="45.134" lon="11.6489133"><ele>5.0</ele><time>2026-04-12T07:52:29.534Z</time></trkpt><trkpt lat="45.1339417" lon="11.649055"><ele>5.0</ele><time>2026-04-12T07:52:31.539Z</time></trkpt><trkpt lat="45.1338883" lon="11.6491833"><ele>5.0</ele><time>2026-04-12T07:52:33.536Z</time></trkpt><trkpt lat="45.1338283" lon="11.649305"><ele>5.0</ele><time>2026-04-12T07:52:35.531Z</time></trkpt><trkpt lat="45.1337633" lon="11.6494017"><ele>5.0</ele><time>2026-04-12T07:52:37.53Z</time></trkpt><trkpt lat="45.1336883" lon="11.64948"><ele>5.0</ele><time>2026-04-12T07:52:39.545Z</time></trkpt><trkpt lat="45.1336067" lon="11.6495467"><ele>5.0</ele><time>2026-04-12T07:52:41.547Z</time></trkpt><trkpt lat="45.1335267" lon="11.649585"><ele>5.0</ele><time>2026-04-12T07:52:43.534Z</time></trkpt><trkpt lat="45.1334367" lon="11.6496017"><ele>5.0</ele><time>2026-04-12T07:52:45.549Z</time></trkpt><trkpt lat="45.13335" lon="11.6495933"><ele>5.0</ele><time>2026-04-12T07:52:47.535Z</time></trkpt><trkpt lat="45.1332717" lon="11.6495817"><ele>5.0</ele><time>2026-04-12T07:52:49.536Z</time></trkpt><trkpt lat="45.1331917" lon="11.6495633"><ele>5.0</ele><time>2026-04-12T07:52:51.546Z</time></trkpt><trkpt lat="45.13311" lon="11.6495383"><ele>5.0</ele><time>2026-04-12T07:52:53.553Z</time></trkpt><trkpt lat="45.13302" lon="11.649515"><ele>5.0</ele><time>2026-04-12T07:52:55.531Z</time></trkpt><trkpt lat="45.1329233" lon="11.6494917"><ele>5.0</ele><time>2026-04-12T07:52:57.538Z</time></trkpt><trkpt lat="45.1328217" lon="11.64947"><ele>5.0</ele><time>2026-04-12T07:52:59.534Z</time></trkpt><trkpt lat="45.1327183" lon="11.6494367"><ele>5.166666666666667</ele><time>2026-04-12T07:53:01.547Z</time></trkpt><trkpt lat="45.1326067" lon="11.6494017"><ele>5.333333333333334</ele><time>2026-04-12T07:53:03.525Z</time></trkpt><trkpt lat="45.1324867" lon="11.6493667"><ele>5.5</ele><time>2026-04-12T07:53:05.533Z</time></trkpt><trkpt lat="45.1324233" lon="11.6493517"><ele>5.666666666666667</ele><time>2026-04-12T07:53:06.547Z</time></trkpt><trkpt lat="45.1323567" lon="11.6493383"><ele>5.833333333333333</ele><time>2026-04-12T07:53:07.535Z</time></trkpt><trkpt lat="45.13229" lon="11.64932"><ele>6.0</ele><time>2026-04-12T07:53:08.548Z</time></trkpt><trkpt lat="45.1322233" lon="11.6493017"><ele>5.5</ele><time>2026-04-12T07:53:09.55Z</time></trkpt><trkpt lat="45.132155" lon="11.6492817"><ele>5.0</ele><time>2026-04-12T07:53:10.551Z</time></trkpt><trkpt lat="45.1320817" lon="11.6492617"><ele>4.5</ele><time>2026-04-12T07:53:11.54Z</time></trkpt><trkpt lat="45.1320083" lon="11.6492433"><ele>4.0</ele><time>2026-04-12T07:53:12.543Z</time></trkpt><trkpt lat="45.131935" lon="11.6492233"><ele>3.5</ele><time>2026-04-12T07:53:13.537Z</time></trkpt><trkpt lat="45.13186" lon="11.6492017"><ele>3.0</ele><time>2026-04-12T07:53:14.527Z</time></trkpt><trkpt lat="45.1317817" lon="11.6491783"><ele>3.0</ele><time>2026-04-12T07:53:15.54Z</time></trkpt><trkpt lat="45.1317033" lon="11.6491567"><ele>3.0</ele><time>2026-04-12T07:53:16.529Z</time></trkpt><trkpt lat="45.131625" lon="11.6491333"><ele>3.0</ele><time>2026-04-12T07:53:17.549Z</time></trkpt><trkpt lat="45.1315467" lon="11.6491117"><ele>3.0</ele><time>2026-04-12T07:53:18.549Z</time></trkpt><trkpt lat="45.1314667" lon="11.6490867"><ele>3.0</ele><time>2026-04-12T07:53:19.551Z</time></trkpt><trkpt lat="45.13139" lon="11.649065"><ele>3.0</ele><time>2026-04-12T07:53:20.563Z</time></trkpt><trkpt lat="45.1313133" lon="11.6490433"><ele>3.1666666666666665</ele><time>2026-04-12T07:53:21.549Z</time></trkpt><trkpt lat="45.1312367" lon="11.6490167"><ele>3.333333333333333</ele><time>2026-04-12T07:53:22.598Z</time></trkpt><trkpt lat="45.131155" lon="11.6489883"><ele>3.5</ele><time>2026-04-12T07:53:23.585Z</time></trkpt><trkpt lat="45.1310717" lon="11.6489617"><ele>3.6666666666666665</ele><time>2026-04-12T07:53:24.548Z</time></trkpt><trkpt lat="45.1309883" lon="11.6489483"><ele>3.833333333333333</ele><time>2026-04-12T07:53:25.55Z</time></trkpt><trkpt lat="45.13091" lon="11.64893"><ele>4.0</ele><time>2026-04-12T07:53:26.546Z</time></trkpt><trkpt lat="45.130825" lon="11.6489067"><ele>4.0</ele><time>2026-04-12T07:53:27.538Z</time></trkpt><trkpt lat="45.1307517" lon="11.6488867"><ele>3.9999999999999996</ele><time>2026-04-12T07:53:28.55Z</time></trkpt><trkpt lat="45.1306767" lon="11.648865"><ele>4.0</ele><time>2026-04-12T07:53:29.555Z</time></trkpt><trkpt lat="45.1306017" lon="11.6488467"><ele>4.0</ele><time>2026-04-12T07:53:30.535Z</time></trkpt><trkpt lat="45.1305317" lon="11.6488267"><ele>3.9999999999999996</ele><time>2026-04-12T07:53:31.547Z</time></trkpt><trkpt lat="45.1304633" lon="11.6488033"><ele>4.0</ele><time>2026-04-12T07:53:32.551Z</time></trkpt><trkpt lat="45.1303967" lon="11.6487833"><ele>4.0</ele><time>2026-04-12T07:53:33.536Z</time></trkpt><trkpt lat="45.1303283" lon="11.6487683"><ele>4.0</ele><time>2026-04-12T07:53:34.531Z</time></trkpt><trkpt lat="45.1302617" lon="11.648755"><ele>3.9999999999999996</ele><time>2026-04-12T07:53:35.534Z</time></trkpt><trkpt lat="45.1301917" lon="11.648735"><ele>4.0</ele><time>2026-04-12T07:53:36.542Z</time></trkpt><trkpt lat="45.1301217" lon="11.6487133"><ele>4.0</ele><time>2026-04-12T07:53:37.54Z</time></trkpt><trkpt lat="45.1300517" lon="11.6486967"><ele>3.9999999999999996</ele><time>2026-04-12T07:53:38.538Z</time></trkpt><trkpt lat="45.1299833" lon="11.6486783"><ele>4.0</ele><time>2026-04-12T07:53:39.532Z</time></trkpt><trkpt lat="45.1299167" lon="11.6486633"><ele>4.0</ele><time>2026-04-12T07:53:40.552Z</time></trkpt><trkpt lat="45.1298483" lon="11.6486433"><ele>4.0</ele><time>2026-04-12T07:53:41.534Z</time></trkpt><trkpt lat="45.1297817" lon="11.6486233"><ele>3.9999999999999996</ele><time>2026-04-12T07:53:42.546Z</time></trkpt><trkpt lat="45.1297133" lon="11.6486067"><ele>4.0</ele><time>2026-04-12T07:53:43.529Z</time></trkpt><trkpt lat="45.1296417" lon="11.648585"><ele>4.0</ele><time>2026-04-12T07:53:44.538Z</time></trkpt><trkpt lat="45.1295717" lon="11.6485617"><ele>3.9999999999999996</ele><time>2026-04-12T07:53:45.537Z</time></trkpt><trkpt lat="45.1295017" lon="11.6485417"><ele>4.0</ele><time>2026-04-12T07:53:46.549Z</time></trkpt><trkpt lat="45.1294333" lon="11.6485233"><ele>4.0</ele><time>2026-04-12T07:53:47.532Z</time></trkpt><trkpt lat="45.1293667" lon="11.6485067"><ele>4.0</ele><time>2026-04-12T07:53:48.55Z</time></trkpt><trkpt lat="45.1293" lon="11.6484883"><ele>4.0</ele><time>2026-04-12T07:53:49.525Z</time></trkpt><trkpt lat="45.129235" lon="11.6484667"><ele>4.0</ele><time>2026-04-12T07:53:50.532Z</time></trkpt><trkpt lat="45.1291117" lon="11.6484383"><ele>4.0</ele><time>2026-04-12T07:53:52.537Z</time></trkpt><trkpt lat="45.1289933" lon="11.6484233"><ele>4.0</ele><time>2026-04-12T07:53:54.539Z</time></trkpt><trkpt lat="45.1288767" lon="11.6484183"><ele>5.0</ele><time>2026-04-12T07:53:56.534Z</time></trkpt><trkpt lat="45.1287683" lon="11.6484083"><ele>6.0</ele><time>2026-04-12T07:53:58.528Z</time></trkpt><trkpt lat="45.12868" lon="11.6483767"><ele>7.0</ele><time>2026-04-12T07:54:00.532Z</time></trkpt><trkpt lat="45.1285933" lon="11.648335"><ele>8.0</ele><time>2026-04-12T07:54:02.534Z</time></trkpt><trkpt lat="45.1285117" lon="11.64828"><ele>9.0</ele><time>2026-04-12T07:54:04.538Z</time></trkpt><trkpt lat="45.128415" lon="11.648255"><ele>9.0</ele><time>2026-04-12T07:54:06.528Z</time></trkpt><trkpt lat="45.1283067" lon="11.6482733"><ele>9.0</ele><time>2026-04-12T07:54:08.54Z</time></trkpt><trkpt lat="45.1281933" lon="11.6483233"><ele>9.0</ele><time>2026-04-12T07:54:10.528Z</time></trkpt><trkpt lat="45.128085" lon="11.64839"><ele>9.0</ele><time>2026-04-12T07:54:12.534Z</time></trkpt><trkpt lat="45.128025" lon="11.6484183"><ele>9.0</ele><time>2026-04-12T07:54:13.53Z</time></trkpt><trkpt lat="45.127905" lon="11.6484683"><ele>8.571428571428573</ele><time>2026-04-12T07:54:15.535Z</time></trkpt><trkpt lat="45.1278433" lon="11.6484867"><ele>8.142857142857142</ele><time>2026-04-12T07:54:16.531Z</time></trkpt><trkpt lat="45.1277783" lon="11.6484983"><ele>7.714285714285714</ele><time>2026-04-12T07:54:17.539Z</time></trkpt><trkpt lat="45.1277133" lon="11.648505"><ele>7.2857142857142865</ele><time>2026-04-12T07:54:18.537Z</time></trkpt><trkpt lat="45.1276467" lon="11.648505"><ele>6.857142857142858</ele><time>2026-04-12T07:54:19.533Z</time></trkpt><trkpt lat="45.1275817" lon="11.6485"><ele>6.428571428571428</ele><time>2026-04-12T07:54:20.537Z</time></trkpt><trkpt lat="45.1275183" lon="11.648485"><ele>6.0</ele><time>2026-04-12T07:54:21.544Z</time></trkpt><trkpt lat="45.127455" lon="11.6484717"><ele>5.857142857142857</ele><time>2026-04-12T07:54:22.537Z</time></trkpt><trkpt lat="45.12739" lon="11.6484567"><ele>5.714285714285714</ele><time>2026-04-12T07:54:23.538Z</time></trkpt><trkpt lat="45.127325" lon="11.648445"><ele>5.571428571428571</ele><time>2026-04-12T07:54:24.532Z</time></trkpt><trkpt lat="45.12726" lon="11.6484333"><ele>5.428571428571429</ele><time>2026-04-12T07:54:25.525Z</time></trkpt><trkpt lat="45.1271967" lon="11.64842"><ele>5.285714285714286</ele><time>2026-04-12T07:54:26.529Z</time></trkpt><trkpt lat="45.1271317" lon="11.6484033"><ele>5.142857142857142</ele><time>2026-04-12T07:54:27.551Z</time></trkpt><trkpt lat="45.1270683" lon="11.6483867"><ele>5.0</ele><time>2026-04-12T07:54:28.537Z</time></trkpt><trkpt lat="45.1270033" lon="11.6483733"><ele>5.0</ele><time>2026-04-12T07:54:29.551Z</time></trkpt><trkpt lat="45.1269383" lon="11.6483667"><ele>5.0</ele><time>2026-04-12T07:54:30.542Z</time></trkpt><trkpt lat="45.1268733" lon="11.6483583"><ele>5.0</ele><time>2026-04-12T07:54:31.528Z</time></trkpt><trkpt lat="45.1268083" lon="11.648345"><ele>5.0</ele><time>2026-04-12T07:54:32.534Z</time></trkpt><trkpt lat="45.1267433" lon="11.6483267"><ele>5.0</ele><time>2026-04-12T07:54:33.541Z</time></trkpt><trkpt lat="45.12668" lon="11.648305"><ele>5.0</ele><time>2026-04-12T07:54:34.535Z</time></trkpt><trkpt lat="45.126615" lon="11.6482867"><ele>5.0</ele><time>2026-04-12T07:54:35.539Z</time></trkpt><trkpt lat="45.1265483" lon="11.64827"><ele>5.166666666666667</ele><time>2026-04-12T07:54:36.532Z</time></trkpt><trkpt lat="45.1264833" lon="11.6482533"><ele>5.333333333333334</ele><time>2026-04-12T07:54:37.527Z</time></trkpt><trkpt lat="45.12642" lon="11.6482383"><ele>5.5</ele><time>2026-04-12T07:54:38.528Z</time></trkpt><trkpt lat="45.1263567" lon="11.648225"><ele>5.666666666666667</ele><time>2026-04-12T07:54:39.527Z</time></trkpt><trkpt lat="45.126235" lon="11.6482017"><ele>5.833333333333333</ele><time>2026-04-12T07:54:41.54Z</time></trkpt><trkpt lat="45.1261217" lon="11.6481867"><ele>6.0</ele><time>2026-04-12T07:54:43.527Z</time></trkpt><trkpt lat="45.1260183" lon="11.6481733"><ele>6.0</ele><time>2026-04-12T07:54:45.53Z</time></trkpt><trkpt lat="45.1259367" lon="11.648225"><ele>6.0</ele><time>2026-04-12T07:54:47.545Z</time></trkpt><trkpt lat="45.12588" lon="11.6483517"><ele>6.0</ele><time>2026-04-12T07:54:49.534Z</time></trkpt><trkpt lat="45.12585" lon="11.6485167"><ele>6.0</ele><time>2026-04-12T07:54:51.541Z</time></trkpt><trkpt lat="45.125825" lon="11.64869"><ele>6.0</ele><time>2026-04-12T07:54:53.529Z</time></trkpt><trkpt lat="45.1258117" lon="11.6487817"><ele>6.0</ele><time>2026-04-12T07:54:54.534Z</time></trkpt><trkpt lat="45.1258" lon="11.6488717"><ele>6.0</ele><time>2026-04-12T07:54:55.555Z</time></trkpt><trkpt lat="45.1257833" lon="11.6489583"><ele>6.0</ele><time>2026-04-12T07:54:56.543Z</time></trkpt><trkpt lat="45.1257517" lon="11.6491317"><ele>6.0</ele><time>2026-04-12T07:54:58.533Z</time></trkpt><trkpt lat="45.1257383" lon="11.64922"><ele>6.0</ele><time>2026-04-12T07:54:59.56Z</time></trkpt><trkpt lat="45.1257267" lon="11.6493083"><ele>6.0</ele><time>2026-04-12T07:55:00.551Z</time></trkpt><trkpt lat="45.1257017" lon="11.6494817"><ele>5.833333333333333</ele><time>2026-04-12T07:55:02.536Z</time></trkpt><trkpt lat="45.1256883" lon="11.64957"><ele>5.666666666666667</ele><time>2026-04-12T07:55:03.536Z</time></trkpt><trkpt lat="45.1256617" lon="11.6497467"><ele>5.5</ele><time>2026-04-12T07:55:05.537Z</time></trkpt><trkpt lat="45.125645" lon="11.6498383"><ele>5.333333333333334</ele><time>2026-04-12T07:55:06.534Z</time></trkpt><trkpt lat="45.12563" lon="11.6499267"><ele>5.166666666666667</ele><time>2026-04-12T07:55:07.54Z</time></trkpt><trkpt lat="45.1256133" lon="11.6500183"><ele>5.0</ele><time>2026-04-12T07:55:08.541Z</time></trkpt><trkpt lat="45.1256" lon="11.6501117"><ele>5.0</ele><time>2026-04-12T07:55:09.533Z</time></trkpt><trkpt lat="45.1255867" lon="11.6502033"><ele>5.0</ele><time>2026-04-12T07:55:10.54Z</time></trkpt><trkpt lat="45.1255717" lon="11.650295"><ele>5.0</ele><time>2026-04-12T07:55:11.545Z</time></trkpt><trkpt lat="45.1255583" lon="11.6503883"><ele>5.0</ele><time>2026-04-12T07:55:12.538Z</time></trkpt><trkpt lat="45.125545" lon="11.6504767"><ele>5.0</ele><time>2026-04-12T07:55:13.531Z</time></trkpt><trkpt lat="45.1255317" lon="11.650565"><ele>5.0</ele><time>2026-04-12T07:55:14.534Z</time></trkpt><trkpt lat="45.125515" lon="11.6506517"><ele>5.0</ele><time>2026-04-12T07:55:15.53Z</time></trkpt><trkpt lat="45.1255" lon="11.650745"><ele>5.0</ele><time>2026-04-12T07:55:16.546Z</time></trkpt><trkpt lat="45.1254833" lon="11.650845"><ele>5.0</ele><time>2026-04-12T07:55:17.529Z</time></trkpt><trkpt lat="45.1254683" lon="11.6509483"><ele>5.0</ele><time>2026-04-12T07:55:18.547Z</time></trkpt><trkpt lat="45.1254517" lon="11.65105"><ele>5.0</ele><time>2026-04-12T07:55:19.535Z</time></trkpt><trkpt lat="45.1254367" lon="11.65115"><ele>5.0</ele><time>2026-04-12T07:55:20.535Z</time></trkpt><trkpt lat="45.12542" lon="11.6512483"><ele>5.0</ele><time>2026-04-12T07:55:21.542Z</time></trkpt><trkpt lat="45.1254067" lon="11.6513433"><ele>5.0</ele><time>2026-04-12T07:55:22.54Z</time></trkpt><trkpt lat="45.12539" lon="11.6514333"><ele>5.0</ele><time>2026-04-12T07:55:23.542Z</time></trkpt><trkpt lat="45.1253733" lon="11.6515233"><ele>5.0</ele><time>2026-04-12T07:55:24.537Z</time></trkpt><trkpt lat="45.12536" lon="11.651615"><ele>5.0</ele><time>2026-04-12T07:55:25.54Z</time></trkpt><trkpt lat="45.125345" lon="11.6517067"><ele>5.0</ele><time>2026-04-12T07:55:26.564Z</time></trkpt><trkpt lat="45.12533" lon="11.651795"><ele>5.0</ele><time>2026-04-12T07:55:27.534Z</time></trkpt><trkpt lat="45.1253133" lon="11.6518833"><ele>5.0</ele><time>2026-04-12T07:55:28.535Z</time></trkpt><trkpt lat="45.1252983" lon="11.65197"><ele>5.0</ele><time>2026-04-12T07:55:29.542Z</time></trkpt><trkpt lat="45.1252833" lon="11.65206"><ele>4.857142857142857</ele><time>2026-04-12T07:55:30.543Z</time></trkpt><trkpt lat="45.12527" lon="11.65215"><ele>4.714285714285714</ele><time>2026-04-12T07:55:31.53Z</time></trkpt><trkpt lat="45.1252567" lon="11.6522383"><ele>4.571428571428571</ele><time>2026-04-12T07:55:32.537Z</time></trkpt><trkpt lat="45.12523" lon="11.65241"><ele>4.428571428571429</ele><time>2026-04-12T07:55:34.544Z</time></trkpt><trkpt lat="45.1252167" lon="11.6524983"><ele>4.285714285714286</ele><time>2026-04-12T07:55:35.537Z</time></trkpt><trkpt lat="45.1252017" lon="11.6525867"><ele>4.142857142857142</ele><time>2026-04-12T07:55:36.55Z</time></trkpt><trkpt lat="45.1251867" lon="11.6526767"><ele>4.0</ele><time>2026-04-12T07:55:37.542Z</time></trkpt><trkpt lat="45.1251733" lon="11.652765"><ele>4.0</ele><time>2026-04-12T07:55:38.534Z</time></trkpt><trkpt lat="45.1251583" lon="11.6528533"><ele>3.9999999999999996</ele><time>2026-04-12T07:55:39.538Z</time></trkpt><trkpt lat="45.1251433" lon="11.6529433"><ele>4.0</ele><time>2026-04-12T07:55:40.536Z</time></trkpt><trkpt lat="45.12513" lon="11.6530317"><ele>4.0</ele><time>2026-04-12T07:55:41.543Z</time></trkpt><trkpt lat="45.1251133" lon="11.6531183"><ele>3.9999999999999996</ele><time>2026-04-12T07:55:42.534Z</time></trkpt><trkpt lat="45.1251" lon="11.6532067"><ele>4.0</ele><time>2026-04-12T07:55:43.536Z</time></trkpt><trkpt lat="45.125085" lon="11.6532967"><ele>4.0</ele><time>2026-04-12T07:55:44.544Z</time></trkpt><trkpt lat="45.12507" lon="11.653385"><ele>4.0</ele><time>2026-04-12T07:55:45.54Z</time></trkpt><trkpt lat="45.125055" lon="11.653475"><ele>3.9999999999999996</ele><time>2026-04-12T07:55:46.539Z</time></trkpt><trkpt lat="45.1250417" lon="11.653565"><ele>4.0</ele><time>2026-04-12T07:55:47.539Z</time></trkpt><trkpt lat="45.1250283" lon="11.653655"><ele>4.0</ele><time>2026-04-12T07:55:48.538Z</time></trkpt><trkpt lat="45.1250133" lon="11.653745"><ele>3.9999999999999996</ele><time>2026-04-12T07:55:49.535Z</time></trkpt><trkpt lat="45.125" lon="11.6538333"><ele>4.0</ele><time>2026-04-12T07:55:50.542Z</time></trkpt><trkpt lat="45.1249883" lon="11.6539217"><ele>4.0</ele><time>2026-04-12T07:55:51.544Z</time></trkpt><trkpt lat="45.1249683" lon="11.6540917"><ele>4.2</ele><time>2026-04-12T07:55:53.537Z</time></trkpt><trkpt lat="45.1249567" lon="11.65418"><ele>4.4</ele><time>2026-04-12T07:55:54.533Z</time></trkpt><trkpt lat="45.1249317" lon="11.6543533"><ele>4.6</ele><time>2026-04-12T07:55:56.524Z</time></trkpt><trkpt lat="45.1249017" lon="11.65452"><ele>4.8</ele><time>2026-04-12T07:55:58.533Z</time></trkpt><trkpt lat="45.1248767" lon="11.6546967"><ele>5.0</ele><time>2026-04-12T07:56:00.542Z</time></trkpt><trkpt lat="45.1248483" lon="11.65487"><ele>5.0</ele><time>2026-04-12T07:56:02.541Z</time></trkpt><trkpt lat="45.1248217" lon="11.655045"><ele>5.0</ele><time>2026-04-12T07:56:04.535Z</time></trkpt><trkpt lat="45.1248083" lon="11.6551333"><ele>5.0</ele><time>2026-04-12T07:56:05.54Z</time></trkpt><trkpt lat="45.124795" lon="11.655225"><ele>5.0</ele><time>2026-04-12T07:56:06.537Z</time></trkpt><trkpt lat="45.1247817" lon="11.6553133"><ele>5.0</ele><time>2026-04-12T07:56:07.529Z</time></trkpt><trkpt lat="45.124755" lon="11.6554883"><ele>5.0</ele><time>2026-04-12T07:56:09.536Z</time></trkpt><trkpt lat="45.12474" lon="11.6555783"><ele>5.0</ele><time>2026-04-12T07:56:10.539Z</time></trkpt><trkpt lat="45.1247267" lon="11.6556667"><ele>5.0</ele><time>2026-04-12T07:56:11.542Z</time></trkpt><trkpt lat="45.1247117" lon="11.655755"><ele>5.0</ele><time>2026-04-12T07:56:12.54Z</time></trkpt><trkpt lat="45.1246967" lon="11.6558433"><ele>5.0</ele><time>2026-04-12T07:56:13.547Z</time></trkpt><trkpt lat="45.1246833" lon="11.6559333"><ele>5.0</ele><time>2026-04-12T07:56:14.545Z</time></trkpt><trkpt lat="45.12467" lon="11.656025"><ele>5.0</ele><time>2026-04-12T07:56:15.541Z</time></trkpt><trkpt lat="45.124655" lon="11.656115"><ele>5.0</ele><time>2026-04-12T07:56:16.532Z</time></trkpt><trkpt lat="45.1246417" lon="11.656205"><ele>5.0</ele><time>2026-04-12T07:56:17.548Z</time></trkpt><trkpt lat="45.1246267" lon="11.656295"><ele>5.0</ele><time>2026-04-12T07:56:18.536Z</time></trkpt><trkpt lat="45.1246133" lon="11.6563833"><ele>5.0</ele><time>2026-04-12T07:56:19.542Z</time></trkpt><trkpt lat="45.1245833" lon="11.6565583"><ele>5.0</ele><time>2026-04-12T07:56:21.529Z</time></trkpt><trkpt lat="45.1245667" lon="11.6566483"><ele>5.0</ele><time>2026-04-12T07:56:22.532Z</time></trkpt><trkpt lat="45.1245517" lon="11.6567367"><ele>5.0</ele><time>2026-04-12T07:56:23.532Z</time></trkpt><trkpt lat="45.1245367" lon="11.6568283"><ele>5.0</ele><time>2026-04-12T07:56:24.533Z</time></trkpt><trkpt lat="45.1245233" lon="11.6569167"><ele>5.0</ele><time>2026-04-12T07:56:25.527Z</time></trkpt><trkpt lat="45.1245067" lon="11.6570083"><ele>5.0</ele><time>2026-04-12T07:56:26.531Z</time></trkpt><trkpt lat="45.1244933" lon="11.6570983"><ele>5.0</ele><time>2026-04-12T07:56:27.536Z</time></trkpt><trkpt lat="45.12448" lon="11.65719"><ele>5.0</ele><time>2026-04-12T07:56:28.532Z</time></trkpt><trkpt lat="45.124465" lon="11.6572817"><ele>5.0</ele><time>2026-04-12T07:56:29.525Z</time></trkpt><trkpt lat="45.1244533" lon="11.6573717"><ele>5.0</ele><time>2026-04-12T07:56:30.528Z</time></trkpt><trkpt lat="45.1244417" lon="11.6574617"><ele>4.714285714285714</ele><time>2026-04-12T07:56:31.593Z</time></trkpt><trkpt lat="45.1244283" lon="11.6575517"><ele>4.428571428571429</ele><time>2026-04-12T07:56:32.562Z</time></trkpt><trkpt lat="45.1244117" lon="11.6576433"><ele>4.142857142857142</ele><time>2026-04-12T07:56:33.561Z</time></trkpt><trkpt lat="45.124395" lon="11.657735"><ele>3.8571428571428568</ele><time>2026-04-12T07:56:34.59Z</time></trkpt><trkpt lat="45.1243783" lon="11.6578267"><ele>3.571428571428571</ele><time>2026-04-12T07:56:35.561Z</time></trkpt><trkpt lat="45.1243633" lon="11.6579167"><ele>3.2857142857142856</ele><time>2026-04-12T07:56:36.64Z</time></trkpt><trkpt lat="45.12435" lon="11.658005"><ele>3.0</ele><time>2026-04-12T07:56:37.603Z</time></trkpt><trkpt lat="45.1243367" lon="11.658095"><ele>2.9999999999999996</ele><time>2026-04-12T07:56:38.574Z</time></trkpt><trkpt lat="45.1243233" lon="11.658185"><ele>3.0</ele><time>2026-04-12T07:56:39.633Z</time></trkpt><trkpt lat="45.1243117" lon="11.6582733"><ele>3.0</ele><time>2026-04-12T07:56:40.606Z</time></trkpt><trkpt lat="45.1243" lon="11.6583617"><ele>3.0</ele><time>2026-04-12T07:56:41.554Z</time></trkpt><trkpt lat="45.12429" lon="11.6584517"><ele>3.0</ele><time>2026-04-12T07:56:42.562Z</time></trkpt><trkpt lat="45.1242783" lon="11.6585433"><ele>2.9999999999999996</ele><time>2026-04-12T07:56:43.607Z</time></trkpt><trkpt lat="45.124255" lon="11.6587133"><ele>3.0</ele><time>2026-04-12T07:56:45.561Z</time></trkpt><trkpt lat="45.1242317" lon="11.6588867"><ele>3.0</ele><time>2026-04-12T07:56:47.565Z</time></trkpt><trkpt lat="45.1242183" lon="11.6589767"><ele>3.0</ele><time>2026-04-12T07:56:48.62Z</time></trkpt><trkpt lat="45.1242033" lon="11.659065"><ele>3.0</ele><time>2026-04-12T07:56:49.597Z</time></trkpt><trkpt lat="45.1241867" lon="11.6591567"><ele>3.0</ele><time>2026-04-12T07:56:50.598Z</time></trkpt><trkpt lat="45.12417" lon="11.6592483"><ele>3.0</ele><time>2026-04-12T07:56:51.627Z</time></trkpt><trkpt lat="45.1241567" lon="11.6593367"><ele>3.0</ele><time>2026-04-12T07:56:52.707Z</time></trkpt><trkpt lat="45.12413" lon="11.65951"><ele>3.25</ele><time>2026-04-12T07:56:54.807Z</time></trkpt><trkpt lat="45.1241017" lon="11.659685"><ele>3.5</ele><time>2026-04-12T07:56:56.539Z</time></trkpt><trkpt lat="45.12407" lon="11.659865"><ele>3.75</ele><time>2026-04-12T07:56:58.764Z</time></trkpt><trkpt lat="45.1240383" lon="11.66005"><ele>4.0</ele><time>2026-04-12T07:57:00.557Z</time></trkpt><trkpt lat="45.1240217" lon="11.6601417"><ele>3.9999999999999996</ele><time>2026-04-12T07:57:01.554Z</time></trkpt><trkpt lat="45.1240067" lon="11.6602317"><ele>4.0</ele><time>2026-04-12T07:57:02.592Z</time></trkpt><trkpt lat="45.1239917" lon="11.6603217"><ele>4.0</ele><time>2026-04-12T07:57:03.549Z</time></trkpt><trkpt lat="45.12398" lon="11.6604117"><ele>4.0</ele><time>2026-04-12T07:57:04.557Z</time></trkpt><trkpt lat="45.1239683" lon="11.660505"><ele>3.9999999999999996</ele><time>2026-04-12T07:57:05.575Z</time></trkpt><trkpt lat="45.1239533" lon="11.6605967"><ele>4.0</ele><time>2026-04-12T07:57:06.684Z</time></trkpt><trkpt lat="45.1239267" lon="11.6607767"><ele>3.9999999999999996</ele><time>2026-04-12T07:57:08.671Z</time></trkpt><trkpt lat="45.1239117" lon="11.660865"><ele>4.0</ele><time>2026-04-12T07:57:09.673Z</time></trkpt><trkpt lat="45.1238833" lon="11.6610383"><ele>4.0</ele><time>2026-04-12T07:57:11.578Z</time></trkpt><trkpt lat="45.1238667" lon="11.6611283"><ele>4.0</ele><time>2026-04-12T07:57:12.571Z</time></trkpt><trkpt lat="45.1238517" lon="11.6612167"><ele>3.9999999999999996</ele><time>2026-04-12T07:57:13.651Z</time></trkpt><trkpt lat="45.1238367" lon="11.6613083"><ele>4.0</ele><time>2026-04-12T07:57:14.594Z</time></trkpt><trkpt lat="45.1238217" lon="11.6613983"><ele>4.0</ele><time>2026-04-12T07:57:15.595Z</time></trkpt><trkpt lat="45.12381" lon="11.6614883"><ele>3.9999999999999996</ele><time>2026-04-12T07:57:16.571Z</time></trkpt><trkpt lat="45.123795" lon="11.6615783"><ele>4.0</ele><time>2026-04-12T07:57:17.555Z</time></trkpt><trkpt lat="45.12378" lon="11.6616683"><ele>4.0</ele><time>2026-04-12T07:57:18.584Z</time></trkpt><trkpt lat="45.1237667" lon="11.6617583"><ele>3.9999999999999996</ele><time>2026-04-12T07:57:19.553Z</time></trkpt><trkpt lat="45.1237533" lon="11.6618483"><ele>4.0</ele><time>2026-04-12T07:57:20.549Z</time></trkpt><trkpt lat="45.12374" lon="11.6619367"><ele>4.0</ele><time>2026-04-12T07:57:21.559Z</time></trkpt><trkpt lat="45.123725" lon="11.662025"><ele>3.8571428571428568</ele><time>2026-04-12T07:57:22.588Z</time></trkpt><trkpt lat="45.12371" lon="11.662115"><ele>3.714285714285714</ele><time>2026-04-12T07:57:23.599Z</time></trkpt><trkpt lat="45.123695" lon="11.6622033"><ele>3.571428571428571</ele><time>2026-04-12T07:57:24.548Z</time></trkpt><trkpt lat="45.1236817" lon="11.6622917"><ele>3.4285714285714284</ele><time>2026-04-12T07:57:25.604Z</time></trkpt><trkpt lat="45.1236667" lon="11.6623833"><ele>3.2857142857142856</ele><time>2026-04-12T07:57:26.564Z</time></trkpt><trkpt lat="45.1236517" lon="11.662475"><ele>3.1428571428571423</ele><time>2026-04-12T07:57:27.569Z</time></trkpt><trkpt lat="45.1236367" lon="11.662565"><ele>3.0</ele><time>2026-04-12T07:57:28.552Z</time></trkpt><trkpt lat="45.1236217" lon="11.66266"><ele>3.0</ele><time>2026-04-12T07:57:29.621Z</time></trkpt><trkpt lat="45.1236067" lon="11.6627533"><ele>3.0</ele><time>2026-04-12T07:57:30.663Z</time></trkpt><trkpt lat="45.1235767" lon="11.662935"><ele>3.0</ele><time>2026-04-12T07:57:32.545Z</time></trkpt><trkpt lat="45.12356" lon="11.663025"><ele>3.0</ele><time>2026-04-12T07:57:33.583Z</time></trkpt><trkpt lat="45.123545" lon="11.6631183"><ele>3.0</ele><time>2026-04-12T07:57:34.577Z</time></trkpt><trkpt lat="45.1235283" lon="11.6632083"><ele>3.0</ele><time>2026-04-12T07:57:35.539Z</time></trkpt><trkpt lat="45.1235117" lon="11.6632983"><ele>2.9999999999999996</ele><time>2026-04-12T07:57:36.574Z</time></trkpt><trkpt lat="45.1234983" lon="11.6633867"><ele>3.0</ele><time>2026-04-12T07:57:37.559Z</time></trkpt><trkpt lat="45.1234833" lon="11.663475"><ele>3.0</ele><time>2026-04-12T07:57:38.567Z</time></trkpt><trkpt lat="45.12347" lon="11.663565"><ele>3.0</ele><time>2026-04-12T07:57:39.545Z</time></trkpt><trkpt lat="45.123455" lon="11.663655"><ele>3.0</ele><time>2026-04-12T07:57:40.542Z</time></trkpt><trkpt lat="45.12344" lon="11.6637433"><ele>2.9999999999999996</ele><time>2026-04-12T07:57:41.579Z</time></trkpt><trkpt lat="45.123425" lon="11.6638317"><ele>3.0</ele><time>2026-04-12T07:57:42.716Z</time></trkpt><trkpt lat="45.1233967" lon="11.6640083"><ele>3.0</ele><time>2026-04-12T07:57:44.539Z</time></trkpt><trkpt lat="45.1233683" lon="11.6641817"><ele>3.0</ele><time>2026-04-12T07:57:46.563Z</time></trkpt><trkpt lat="45.1233533" lon="11.6642717"><ele>3.0</ele><time>2026-04-12T07:57:47.591Z</time></trkpt><trkpt lat="45.1233367" lon="11.6643633"><ele>3.0</ele><time>2026-04-12T07:57:48.578Z</time></trkpt><trkpt lat="45.1233217" lon="11.6644533"><ele>3.0</ele><time>2026-04-12T07:57:49.544Z</time></trkpt><trkpt lat="45.123305" lon="11.6645433"><ele>3.0</ele><time>2026-04-12T07:57:50.536Z</time></trkpt><trkpt lat="45.12329" lon="11.6646367"><ele>2.9999999999999996</ele><time>2026-04-12T07:57:51.556Z</time></trkpt><trkpt lat="45.1232733" lon="11.6647317"><ele>3.0</ele><time>2026-04-12T07:57:52.54Z</time></trkpt><trkpt lat="45.1232583" lon="11.6648217"><ele>3.0</ele><time>2026-04-12T07:57:53.588Z</time></trkpt><trkpt lat="45.1232433" lon="11.664915"><ele>3.0</ele><time>2026-04-12T07:57:54.634Z</time></trkpt><trkpt lat="45.1232283" lon="11.6650067"><ele>3.0</ele><time>2026-04-12T07:57:55.6Z</time></trkpt><trkpt lat="45.1232133" lon="11.6651"><ele>2.9999999999999996</ele><time>2026-04-12T07:57:56.537Z</time></trkpt><trkpt lat="45.1232" lon="11.6651917"><ele>3.0</ele><time>2026-04-12T07:57:57.534Z</time></trkpt><trkpt lat="45.1231867" lon="11.6652833"><ele>2.8571428571428568</ele><time>2026-04-12T07:57:58.582Z</time></trkpt><trkpt lat="45.1231733" lon="11.6653733"><ele>2.7142857142857144</ele><time>2026-04-12T07:57:59.534Z</time></trkpt><trkpt lat="45.12316" lon="11.6654633"><ele>2.571428571428571</ele><time>2026-04-12T07:58:00.565Z</time></trkpt><trkpt lat="45.12315" lon="11.6655533"><ele>2.4285714285714284</ele><time>2026-04-12T07:58:01.583Z</time></trkpt><trkpt lat="45.1231217" lon="11.6657267"><ele>2.2857142857142856</ele><time>2026-04-12T07:58:03.534Z</time></trkpt><trkpt lat="45.1231067" lon="11.6658167"><ele>2.142857142857143</ele><time>2026-04-12T07:58:04.533Z</time></trkpt><trkpt lat="45.123095" lon="11.6659067"><ele>2.0</ele><time>2026-04-12T07:58:05.546Z</time></trkpt><trkpt lat="45.1230733" lon="11.6660783"><ele>2.142857142857143</ele><time>2026-04-12T07:58:07.529Z</time></trkpt><trkpt lat="45.1230617" lon="11.66617"><ele>2.2857142857142856</ele><time>2026-04-12T07:58:08.537Z</time></trkpt><trkpt lat="45.1230467" lon="11.66626"><ele>2.4285714285714284</ele><time>2026-04-12T07:58:09.54Z</time></trkpt><trkpt lat="45.12303" lon="11.6663533"><ele>2.571428571428571</ele><time>2026-04-12T07:58:10.548Z</time></trkpt><trkpt lat="45.12301" lon="11.666445"><ele>2.7142857142857144</ele><time>2026-04-12T07:58:11.528Z</time></trkpt><trkpt lat="45.122995" lon="11.666535"><ele>2.8571428571428568</ele><time>2026-04-12T07:58:12.536Z</time></trkpt><trkpt lat="45.1229767" lon="11.6666267"><ele>3.0</ele><time>2026-04-12T07:58:13.538Z</time></trkpt><trkpt lat="45.12296" lon="11.6667167"><ele>2.9999999999999996</ele><time>2026-04-12T07:58:14.539Z</time></trkpt><trkpt lat="45.1229417" lon="11.6668067"><ele>3.0</ele><time>2026-04-12T07:58:15.542Z</time></trkpt><trkpt lat="45.1229217" lon="11.6668983"><ele>3.0</ele><time>2026-04-12T07:58:16.536Z</time></trkpt><trkpt lat="45.1229067" lon="11.6669883"><ele>3.0</ele><time>2026-04-12T07:58:17.525Z</time></trkpt><trkpt lat="45.12289" lon="11.66708"><ele>3.0</ele><time>2026-04-12T07:58:18.546Z</time></trkpt><trkpt lat="45.122875" lon="11.6671683"><ele>2.9999999999999996</ele><time>2026-04-12T07:58:19.545Z</time></trkpt><trkpt lat="45.1228567" lon="11.6672583"><ele>3.0</ele><time>2026-04-12T07:58:20.541Z</time></trkpt><trkpt lat="45.1228383" lon="11.6673483"><ele>3.1666666666666665</ele><time>2026-04-12T07:58:21.536Z</time></trkpt><trkpt lat="45.1228233" lon="11.6674367"><ele>3.333333333333333</ele><time>2026-04-12T07:58:22.525Z</time></trkpt><trkpt lat="45.1228083" lon="11.667525"><ele>3.5</ele><time>2026-04-12T07:58:23.544Z</time></trkpt><trkpt lat="45.1227967" lon="11.6676133"><ele>3.6666666666666665</ele><time>2026-04-12T07:58:24.56Z</time></trkpt><trkpt lat="45.1227733" lon="11.6677783"><ele>3.833333333333333</ele><time>2026-04-12T07:58:26.529Z</time></trkpt><trkpt lat="45.1227467" lon="11.6679517"><ele>4.0</ele><time>2026-04-12T07:58:28.534Z</time></trkpt><trkpt lat="45.1227233" lon="11.668125"><ele>4.0</ele><time>2026-04-12T07:58:30.529Z</time></trkpt><trkpt lat="45.1226967" lon="11.66829"><ele>4.0</ele><time>2026-04-12T07:58:32.539Z</time></trkpt><trkpt lat="45.1226717" lon="11.6684583"><ele>4.0</ele><time>2026-04-12T07:58:34.531Z</time></trkpt><trkpt lat="45.122645" lon="11.668625"><ele>4.0</ele><time>2026-04-12T07:58:36.54Z</time></trkpt><trkpt lat="45.122625" lon="11.6687817"><ele>4.0</ele><time>2026-04-12T07:58:38.54Z</time></trkpt><trkpt lat="45.1226133" lon="11.6689283"><ele>4.0</ele><time>2026-04-12T07:58:40.535Z</time></trkpt><trkpt lat="45.1225967" lon="11.6690583"><ele>4.0</ele><time>2026-04-12T07:58:42.547Z</time></trkpt><trkpt lat="45.122535" lon="11.6691633"><ele>4.0</ele><time>2026-04-12T07:58:44.546Z</time></trkpt><trkpt lat="45.1224483" lon="11.6692"><ele>4.0</ele><time>2026-04-12T07:58:46.555Z</time></trkpt><trkpt lat="45.1223333" lon="11.669215"><ele>4.0</ele><time>2026-04-12T07:58:48.528Z</time></trkpt><trkpt lat="45.12221" lon="11.6691883"><ele>4.0</ele><time>2026-04-12T07:58:50.533Z</time></trkpt><trkpt lat="45.1221467" lon="11.6691833"><ele>4.0</ele><time>2026-04-12T07:58:51.529Z</time></trkpt><trkpt lat="45.1220233" lon="11.66918"><ele>4.0</ele><time>2026-04-12T07:58:53.539Z</time></trkpt><trkpt lat="45.1218967" lon="11.6691833"><ele>4.0</ele><time>2026-04-12T07:58:55.524Z</time></trkpt><trkpt lat="45.1218333" lon="11.669185"><ele>4.0</ele><time>2026-04-12T07:58:56.543Z</time></trkpt><trkpt lat="45.1217067" lon="11.66919"><ele>3.9999999999999996</ele><time>2026-04-12T07:58:58.539Z</time></trkpt><trkpt lat="45.1216433" lon="11.6691933"><ele>4.0</ele><time>2026-04-12T07:58:59.608Z</time></trkpt><trkpt lat="45.12158" lon="11.6691983"><ele>4.0</ele><time>2026-04-12T07:59:00.538Z</time></trkpt><trkpt lat="45.1215167" lon="11.6692017"><ele>3.9999999999999996</ele><time>2026-04-12T07:59:01.53Z</time></trkpt><trkpt lat="45.1214517" lon="11.669205"><ele>4.0</ele><time>2026-04-12T07:59:02.539Z</time></trkpt><trkpt lat="45.1213883" lon="11.6692067"><ele>4.0</ele><time>2026-04-12T07:59:03.538Z</time></trkpt><trkpt lat="45.121325" lon="11.6692083"><ele>3.833333333333333</ele><time>2026-04-12T07:59:04.532Z</time></trkpt><trkpt lat="45.1212617" lon="11.669215"><ele>3.6666666666666665</ele><time>2026-04-12T07:59:05.555Z</time></trkpt><trkpt lat="45.1211967" lon="11.66922"><ele>3.5</ele><time>2026-04-12T07:59:06.533Z</time></trkpt><trkpt lat="45.12113" lon="11.6692217"><ele>3.333333333333333</ele><time>2026-04-12T07:59:07.543Z</time></trkpt><trkpt lat="45.121065" lon="11.669225"><ele>3.1666666666666665</ele><time>2026-04-12T07:59:08.537Z</time></trkpt><trkpt lat="45.1209367" lon="11.66923"><ele>3.0</ele><time>2026-04-12T07:59:10.533Z</time></trkpt><trkpt lat="45.12087" lon="11.6692317"><ele>2.9999999999999996</ele><time>2026-04-12T07:59:11.538Z</time></trkpt><trkpt lat="45.120805" lon="11.669235"><ele>3.0</ele><time>2026-04-12T07:59:12.536Z</time></trkpt><trkpt lat="45.12074" lon="11.66924"><ele>3.0</ele><time>2026-04-12T07:59:13.543Z</time></trkpt><trkpt lat="45.1206733" lon="11.66924"><ele>3.0</ele><time>2026-04-12T07:59:14.54Z</time></trkpt><trkpt lat="45.1206067" lon="11.66924"><ele>3.0</ele><time>2026-04-12T07:59:15.529Z</time></trkpt><trkpt lat="45.1205417" lon="11.6692417"><ele>2.9999999999999996</ele><time>2026-04-12T07:59:16.534Z</time></trkpt><trkpt lat="45.120475" lon="11.6692433"><ele>3.0</ele><time>2026-04-12T07:59:17.525Z</time></trkpt><trkpt lat="45.1204083" lon="11.669245"><ele>2.8571428571428568</ele><time>2026-04-12T07:59:18.546Z</time></trkpt><trkpt lat="45.1203433" lon="11.669245"><ele>2.7142857142857144</ele><time>2026-04-12T07:59:19.537Z</time></trkpt><trkpt lat="45.1202767" lon="11.6692467"><ele>2.571428571428571</ele><time>2026-04-12T07:59:20.53Z</time></trkpt><trkpt lat="45.1202117" lon="11.6692483"><ele>2.4285714285714284</ele><time>2026-04-12T07:59:21.533Z</time></trkpt><trkpt lat="45.1201467" lon="11.6692483"><ele>2.2857142857142856</ele><time>2026-04-12T07:59:22.531Z</time></trkpt><trkpt lat="45.12008" lon="11.66925"><ele>2.142857142857143</ele><time>2026-04-12T07:59:23.547Z</time></trkpt><trkpt lat="45.1200117" lon="11.6692517"><ele>2.0</ele><time>2026-04-12T07:59:24.551Z</time></trkpt><trkpt lat="45.1199433" lon="11.6692533"><ele>2.142857142857143</ele><time>2026-04-12T07:59:25.565Z</time></trkpt><trkpt lat="45.1198767" lon="11.6692583"><ele>2.2857142857142856</ele><time>2026-04-12T07:59:26.529Z</time></trkpt><trkpt lat="45.1198133" lon="11.66926"><ele>2.4285714285714284</ele><time>2026-04-12T07:59:27.539Z</time></trkpt><trkpt lat="45.1197467" lon="11.6692633"><ele>2.571428571428571</ele><time>2026-04-12T07:59:28.532Z</time></trkpt><trkpt lat="45.11968" lon="11.6692683"><ele>2.7142857142857144</ele><time>2026-04-12T07:59:29.549Z</time></trkpt><trkpt lat="45.1196133" lon="11.6692717"><ele>2.8571428571428568</ele><time>2026-04-12T07:59:30.535Z</time></trkpt><trkpt lat="45.119545" lon="11.6692767"><ele>3.0</ele><time>2026-04-12T07:59:31.552Z</time></trkpt><trkpt lat="45.1194783" lon="11.6692783"><ele>3.0</ele><time>2026-04-12T07:59:32.557Z</time></trkpt><trkpt lat="45.1194117" lon="11.6692817"><ele>3.0</ele><time>2026-04-12T07:59:33.533Z</time></trkpt><trkpt lat="45.1193467" lon="11.6692833"><ele>3.0</ele><time>2026-04-12T07:59:34.53Z</time></trkpt><trkpt lat="45.1192817" lon="11.669285"><ele>3.0</ele><time>2026-04-12T07:59:35.537Z</time></trkpt><trkpt lat="45.119155" lon="11.6692867"><ele>3.0</ele><time>2026-04-12T07:59:37.53Z</time></trkpt><trkpt lat="45.1190883" lon="11.6692883"><ele>3.0</ele><time>2026-04-12T07:59:38.534Z</time></trkpt><trkpt lat="45.1190233" lon="11.6692867"><ele>2.9999999999999996</ele><time>2026-04-12T07:59:39.532Z</time></trkpt><trkpt lat="45.1189583" lon="11.6692883"><ele>3.0</ele><time>2026-04-12T07:59:40.549Z</time></trkpt><trkpt lat="45.118895" lon="11.6692917"><ele>3.0</ele><time>2026-04-12T07:59:41.546Z</time></trkpt><trkpt lat="45.1188317" lon="11.6692933"><ele>3.0</ele><time>2026-04-12T07:59:42.528Z</time></trkpt><trkpt lat="45.1187683" lon="11.669295"><ele>3.0</ele><time>2026-04-12T07:59:43.538Z</time></trkpt><trkpt lat="45.1186417" lon="11.6692967"><ele>2.9999999999999996</ele><time>2026-04-12T07:59:45.53Z</time></trkpt><trkpt lat="45.1185783" lon="11.6692917"><ele>3.0</ele><time>2026-04-12T07:59:46.548Z</time></trkpt><trkpt lat="45.1185133" lon="11.6692917"><ele>2.9999999999999996</ele><time>2026-04-12T07:59:47.52Z</time></trkpt><trkpt lat="45.1184483" lon="11.669295"><ele>3.0</ele><time>2026-04-12T07:59:48.529Z</time></trkpt><trkpt lat="45.118385" lon="11.6692983"><ele>3.0</ele><time>2026-04-12T07:59:49.54Z</time></trkpt><trkpt lat="45.11832" lon="11.6693"><ele>3.0</ele><time>2026-04-12T07:59:50.534Z</time></trkpt><trkpt lat="45.1182567" lon="11.6693033"><ele>3.0</ele><time>2026-04-12T07:59:51.539Z</time></trkpt><trkpt lat="45.1181917" lon="11.669305"><ele>2.9999999999999996</ele><time>2026-04-12T07:59:52.547Z</time></trkpt><trkpt lat="45.1181283" lon="11.669305"><ele>3.0</ele><time>2026-04-12T07:59:53.534Z</time></trkpt><trkpt lat="45.1180633" lon="11.669305"><ele>2.8571428571428568</ele><time>2026-04-12T07:59:54.539Z</time></trkpt><trkpt lat="45.1179967" lon="11.66931"><ele>2.7142857142857144</ele><time>2026-04-12T07:59:55.532Z</time></trkpt><trkpt lat="45.1179317" lon="11.6693133"><ele>2.571428571428571</ele><time>2026-04-12T07:59:56.529Z</time></trkpt><trkpt lat="45.1178667" lon="11.6693133"><ele>2.4285714285714284</ele><time>2026-04-12T07:59:57.533Z</time></trkpt><trkpt lat="45.1178033" lon="11.669315"><ele>2.2857142857142856</ele><time>2026-04-12T07:59:58.532Z</time></trkpt><trkpt lat="45.1177383" lon="11.66932"><ele>2.142857142857143</ele><time>2026-04-12T07:59:59.553Z</time></trkpt><trkpt lat="45.1176733" lon="11.6693233"><ele>2.0</ele><time>2026-04-12T08:00:00.548Z</time></trkpt><trkpt lat="45.1176067" lon="11.6693283"><ele>2.0</ele><time>2026-04-12T08:00:01.536Z</time></trkpt><trkpt lat="45.1175383" lon="11.6693333"><ele>1.9999999999999998</ele><time>2026-04-12T08:00:02.542Z</time></trkpt><trkpt lat="45.1174683" lon="11.669335"><ele>2.0</ele><time>2026-04-12T08:00:03.542Z</time></trkpt><trkpt lat="45.1174" lon="11.6693367"><ele>2.0</ele><time>2026-04-12T08:00:04.533Z</time></trkpt><trkpt lat="45.11733" lon="11.6693367"><ele>1.9999999999999998</ele><time>2026-04-12T08:00:05.591Z</time></trkpt><trkpt lat="45.1172617" lon="11.6693383"><ele>2.0</ele><time>2026-04-12T08:00:06.537Z</time></trkpt><trkpt lat="45.1171933" lon="11.6693433"><ele>2.0</ele><time>2026-04-12T08:00:07.542Z</time></trkpt><trkpt lat="45.117125" lon="11.6693467"><ele>2.0</ele><time>2026-04-12T08:00:08.524Z</time></trkpt><trkpt lat="45.117055" lon="11.6693533"><ele>1.9999999999999998</ele><time>2026-04-12T08:00:09.539Z</time></trkpt><trkpt lat="45.11699" lon="11.6693567"><ele>2.0</ele><time>2026-04-12T08:00:10.548Z</time></trkpt><trkpt lat="45.116925" lon="11.66936"><ele>2.0</ele><time>2026-04-12T08:00:11.541Z</time></trkpt><trkpt lat="45.11686" lon="11.669365"><ele>1.9999999999999998</ele><time>2026-04-12T08:00:12.535Z</time></trkpt><trkpt lat="45.116795" lon="11.6693667"><ele>2.0</ele><time>2026-04-12T08:00:13.533Z</time></trkpt><trkpt lat="45.1167283" lon="11.6693667"><ele>2.0</ele><time>2026-04-12T08:00:14.542Z</time></trkpt><trkpt lat="45.1166617" lon="11.6693667"><ele>2.0</ele><time>2026-04-12T08:00:15.537Z</time></trkpt><trkpt lat="45.116595" lon="11.6693717"><ele>1.9999999999999998</ele><time>2026-04-12T08:00:16.533Z</time></trkpt><trkpt lat="45.1165283" lon="11.6693783"><ele>2.0</ele><time>2026-04-12T08:00:17.526Z</time></trkpt><trkpt lat="45.1164617" lon="11.66939"><ele>2.0</ele><time>2026-04-12T08:00:18.525Z</time></trkpt><trkpt lat="45.1163967" lon="11.6694067"><ele>1.9999999999999998</ele><time>2026-04-12T08:00:19.541Z</time></trkpt><trkpt lat="45.1163317" lon="11.6694317"><ele>2.0</ele><time>2026-04-12T08:00:20.529Z</time></trkpt><trkpt lat="45.1162683" lon="11.6694633"><ele>2.0</ele><time>2026-04-12T08:00:21.547Z</time></trkpt><trkpt lat="45.1162067" lon="11.6695017"><ele>2.142857142857143</ele><time>2026-04-12T08:00:22.533Z</time></trkpt><trkpt lat="45.11615" lon="11.6695467"><ele>2.2857142857142856</ele><time>2026-04-12T08:00:23.535Z</time></trkpt><trkpt lat="45.1160983" lon="11.6695983"><ele>2.4285714285714284</ele><time>2026-04-12T08:00:24.53Z</time></trkpt><trkpt lat="45.116045" lon="11.6696517"><ele>2.571428571428571</ele><time>2026-04-12T08:00:25.537Z</time></trkpt><trkpt lat="45.1159933" lon="11.6697083"><ele>2.7142857142857144</ele><time>2026-04-12T08:00:26.545Z</time></trkpt><trkpt lat="45.1159383" lon="11.6697583"><ele>2.8571428571428568</ele><time>2026-04-12T08:00:27.547Z</time></trkpt><trkpt lat="45.115885" lon="11.66981"><ele>3.0</ele><time>2026-04-12T08:00:28.545Z</time></trkpt><trkpt lat="45.1158317" lon="11.6698617"><ele>2.9999999999999996</ele><time>2026-04-12T08:00:29.532Z</time></trkpt><trkpt lat="45.1157767" lon="11.6699183"><ele>3.0</ele><time>2026-04-12T08:00:30.546Z</time></trkpt><trkpt lat="45.115725" lon="11.6699733"><ele>3.0</ele><time>2026-04-12T08:00:31.551Z</time></trkpt><trkpt lat="45.1156717" lon="11.6700283"><ele>3.0</ele><time>2026-04-12T08:00:32.546Z</time></trkpt><trkpt lat="45.1156167" lon="11.6700817"><ele>3.0</ele><time>2026-04-12T08:00:33.546Z</time></trkpt><trkpt lat="45.1155617" lon="11.6701317"><ele>2.9999999999999996</ele><time>2026-04-12T08:00:34.545Z</time></trkpt><trkpt lat="45.115505" lon="11.67018"><ele>3.0</ele><time>2026-04-12T08:00:35.632Z</time></trkpt><trkpt lat="45.115445" lon="11.670225"><ele>3.1666666666666665</ele><time>2026-04-12T08:00:36.541Z</time></trkpt><trkpt lat="45.1153817" lon="11.6702633"><ele>3.333333333333333</ele><time>2026-04-12T08:00:37.546Z</time></trkpt><trkpt lat="45.1153217" lon="11.6702983"><ele>3.5</ele><time>2026-04-12T08:00:38.537Z</time></trkpt><trkpt lat="45.11521" lon="11.6703417"><ele>3.6666666666666665</ele><time>2026-04-12T08:00:40.56Z</time></trkpt><trkpt lat="45.1150883" lon="11.6703767"><ele>3.833333333333333</ele><time>2026-04-12T08:00:42.558Z</time></trkpt><trkpt lat="45.115025" lon="11.6703983"><ele>4.0</ele><time>2026-04-12T08:00:43.539Z</time></trkpt><trkpt lat="45.1149617" lon="11.6704183"><ele>3.8000000000000003</ele><time>2026-04-12T08:00:44.552Z</time></trkpt><trkpt lat="45.1148367" lon="11.6704317"><ele>3.6000000000000005</ele><time>2026-04-12T08:00:46.565Z</time></trkpt><trkpt lat="45.1147733" lon="11.67043"><ele>3.4</ele><time>2026-04-12T08:00:47.561Z</time></trkpt><trkpt lat="45.1146483" lon="11.670455"><ele>3.2</ele><time>2026-04-12T08:00:49.559Z</time></trkpt><trkpt lat="45.1145767" lon="11.6705033"><ele>3.0</ele><time>2026-04-12T08:00:50.527Z</time></trkpt><trkpt lat="45.1145033" lon="11.6705417"><ele>3.0</ele><time>2026-04-12T08:00:51.527Z</time></trkpt><trkpt lat="45.1144333" lon="11.6705683"><ele>3.0</ele><time>2026-04-12T08:00:52.54Z</time></trkpt><trkpt lat="45.11437" lon="11.6705833"><ele>3.0</ele><time>2026-04-12T08:00:53.525Z</time></trkpt><trkpt lat="45.114255" lon="11.6706183"><ele>3.0</ele><time>2026-04-12T08:00:55.531Z</time></trkpt><trkpt lat="45.1141383" lon="11.6706767"><ele>3.0</ele><time>2026-04-12T08:00:57.548Z</time></trkpt><trkpt lat="45.11407" lon="11.6707"><ele>3.0</ele><time>2026-04-12T08:00:58.529Z</time></trkpt><trkpt lat="45.1140033" lon="11.6707183"><ele>3.1428571428571423</ele><time>2026-04-12T08:00:59.529Z</time></trkpt><trkpt lat="45.1139367" lon="11.6707333"><ele>3.2857142857142856</ele><time>2026-04-12T08:01:00.527Z</time></trkpt><trkpt lat="45.1138733" lon="11.670745"><ele>3.4285714285714284</ele><time>2026-04-12T08:01:01.54Z</time></trkpt><trkpt lat="45.11381" lon="11.6707483"><ele>3.571428571428571</ele><time>2026-04-12T08:01:02.535Z</time></trkpt><trkpt lat="45.1137433" lon="11.67075"><ele>3.714285714285714</ele><time>2026-04-12T08:01:03.541Z</time></trkpt><trkpt lat="45.1136783" lon="11.67075"><ele>3.8571428571428568</ele><time>2026-04-12T08:01:04.525Z</time></trkpt><trkpt lat="45.11361" lon="11.6707433"><ele>4.0</ele><time>2026-04-12T08:01:05.528Z</time></trkpt><trkpt lat="45.1135433" lon="11.6707333"><ele>3.9999999999999996</ele><time>2026-04-12T08:01:06.536Z</time></trkpt><trkpt lat="45.1134783" lon="11.6707233"><ele>4.0</ele><time>2026-04-12T08:01:07.533Z</time></trkpt><trkpt lat="45.1134133" lon="11.6707133"><ele>4.0</ele><time>2026-04-12T08:01:08.531Z</time></trkpt><trkpt lat="45.11335" lon="11.6707033"><ele>4.0</ele><time>2026-04-12T08:01:09.533Z</time></trkpt><trkpt lat="45.1132267" lon="11.6706833"><ele>3.9999999999999996</ele><time>2026-04-12T08:01:11.531Z</time></trkpt><trkpt lat="45.1131617" lon="11.6706667"><ele>4.0</ele><time>2026-04-12T08:01:12.531Z</time></trkpt><trkpt lat="45.1130967" lon="11.670645"><ele>4.0</ele><time>2026-04-12T08:01:13.534Z</time></trkpt><trkpt lat="45.1130317" lon="11.670615"><ele>3.9999999999999996</ele><time>2026-04-12T08:01:14.529Z</time></trkpt><trkpt lat="45.1129667" lon="11.670575"><ele>4.0</ele><time>2026-04-12T08:01:15.528Z</time></trkpt><trkpt lat="45.1129017" lon="11.6705367"><ele>4.0</ele><time>2026-04-12T08:01:16.532Z</time></trkpt><trkpt lat="45.1128367" lon="11.6704983"><ele>3.9999999999999996</ele><time>2026-04-12T08:01:17.536Z</time></trkpt><trkpt lat="45.112775" lon="11.6704617"><ele>4.0</ele><time>2026-04-12T08:01:18.548Z</time></trkpt><trkpt lat="45.1127133" lon="11.6704233"><ele>4.0</ele><time>2026-04-12T08:01:19.543Z</time></trkpt><trkpt lat="45.1126533" lon="11.6703833"><ele>4.0</ele><time>2026-04-12T08:01:20.54Z</time></trkpt><trkpt lat="45.11259" lon="11.670345"><ele>3.9999999999999996</ele><time>2026-04-12T08:01:21.536Z</time></trkpt><trkpt lat="45.1125283" lon="11.6703067"><ele>4.0</ele><time>2026-04-12T08:01:22.548Z</time></trkpt><trkpt lat="45.112465" lon="11.6702667"><ele>4.0</ele><time>2026-04-12T08:01:23.531Z</time></trkpt><trkpt lat="45.1124067" lon="11.670225"><ele>3.9999999999999996</ele><time>2026-04-12T08:01:24.536Z</time></trkpt><trkpt lat="45.1123467" lon="11.6701833"><ele>4.0</ele><time>2026-04-12T08:01:25.531Z</time></trkpt><trkpt lat="45.1122883" lon="11.670145"><ele>4.0</ele><time>2026-04-12T08:01:26.555Z</time></trkpt><trkpt lat="45.1122283" lon="11.670105"><ele>3.9999999999999996</ele><time>2026-04-12T08:01:27.532Z</time></trkpt><trkpt lat="45.1121683" lon="11.67007"><ele>4.0</ele><time>2026-04-12T08:01:28.538Z</time></trkpt><trkpt lat="45.1120517" lon="11.6700017"><ele>4.0</ele><time>2026-04-12T08:01:30.536Z</time></trkpt><trkpt lat="45.1119917" lon="11.6699683"><ele>4.0</ele><time>2026-04-12T08:01:31.546Z</time></trkpt><trkpt lat="45.11193" lon="11.669935"><ele>3.9999999999999996</ele><time>2026-04-12T08:01:32.53Z</time></trkpt><trkpt lat="45.1118683" lon="11.6698983"><ele>4.0</ele><time>2026-04-12T08:01:33.525Z</time></trkpt><trkpt lat="45.1118067" lon="11.66986"><ele>4.0</ele><time>2026-04-12T08:01:34.534Z</time></trkpt><trkpt lat="45.1117433" lon="11.6698217"><ele>3.9999999999999996</ele><time>2026-04-12T08:01:35.53Z</time></trkpt><trkpt lat="45.1116833" lon="11.6697817"><ele>4.0</ele><time>2026-04-12T08:01:36.532Z</time></trkpt><trkpt lat="45.1116233" lon="11.66974"><ele>4.0</ele><time>2026-04-12T08:01:37.527Z</time></trkpt><trkpt lat="45.1115617" lon="11.6696983"><ele>3.9999999999999996</ele><time>2026-04-12T08:01:38.547Z</time></trkpt><trkpt lat="45.1114983" lon="11.6696583"><ele>4.0</ele><time>2026-04-12T08:01:39.529Z</time></trkpt><trkpt lat="45.1114383" lon="11.66962"><ele>4.0</ele><time>2026-04-12T08:01:40.542Z</time></trkpt><trkpt lat="45.1113783" lon="11.66958"><ele>4.0</ele><time>2026-04-12T08:01:41.545Z</time></trkpt><trkpt lat="45.1113183" lon="11.669545"><ele>3.9999999999999996</ele><time>2026-04-12T08:01:42.551Z</time></trkpt><trkpt lat="45.1112567" lon="11.66951"><ele>4.0</ele><time>2026-04-12T08:01:43.535Z</time></trkpt><trkpt lat="45.1111933" lon="11.6694767"><ele>4.0</ele><time>2026-04-12T08:01:44.554Z</time></trkpt><trkpt lat="45.1111333" lon="11.6694433"><ele>3.9999999999999996</ele><time>2026-04-12T08:01:45.532Z</time></trkpt><trkpt lat="45.1110733" lon="11.6694067"><ele>4.0</ele><time>2026-04-12T08:01:46.538Z</time></trkpt><trkpt lat="45.1110133" lon="11.669375"><ele>4.0</ele><time>2026-04-12T08:01:47.527Z</time></trkpt><trkpt lat="45.1109533" lon="11.6693467"><ele>4.0</ele><time>2026-04-12T08:01:48.529Z</time></trkpt><trkpt lat="45.1108917" lon="11.6693117"><ele>3.9999999999999996</ele><time>2026-04-12T08:01:49.531Z</time></trkpt><trkpt lat="45.11083" lon="11.6692783"><ele>4.0</ele><time>2026-04-12T08:01:50.544Z</time></trkpt><trkpt lat="45.1107683" lon="11.6692467"><ele>4.0</ele><time>2026-04-12T08:01:51.543Z</time></trkpt><trkpt lat="45.110705" lon="11.6692167"><ele>3.9999999999999996</ele><time>2026-04-12T08:01:52.565Z</time></trkpt><trkpt lat="45.1106417" lon="11.669185"><ele>4.0</ele><time>2026-04-12T08:01:53.527Z</time></trkpt><trkpt lat="45.1105783" lon="11.669155"><ele>4.0</ele><time>2026-04-12T08:01:54.531Z</time></trkpt><trkpt lat="45.1105167" lon="11.6691267"><ele>3.9999999999999996</ele><time>2026-04-12T08:01:55.529Z</time></trkpt><trkpt lat="45.110455" lon="11.6690967"><ele>4.0</ele><time>2026-04-12T08:01:56.537Z</time></trkpt><trkpt lat="45.1103917" lon="11.6690683"><ele>4.0</ele><time>2026-04-12T08:01:57.531Z</time></trkpt><trkpt lat="45.1103283" lon="11.6690383"><ele>4.0</ele><time>2026-04-12T08:01:58.549Z</time></trkpt><trkpt lat="45.1102667" lon="11.66901"><ele>3.9999999999999996</ele><time>2026-04-12T08:01:59.529Z</time></trkpt><trkpt lat="45.1101433" lon="11.6689633"><ele>4.0</ele><time>2026-04-12T08:02:01.527Z</time></trkpt><trkpt lat="45.1100817" lon="11.6689383"><ele>4.0</ele><time>2026-04-12T08:02:02.53Z</time></trkpt><trkpt lat="45.1100183" lon="11.6689133"><ele>3.9999999999999996</ele><time>2026-04-12T08:02:03.529Z</time></trkpt><trkpt lat="45.109955" lon="11.668895"><ele>4.0</ele><time>2026-04-12T08:02:04.532Z</time></trkpt><trkpt lat="45.10989" lon="11.66888"><ele>4.0</ele><time>2026-04-12T08:02:05.537Z</time></trkpt><trkpt lat="45.109825" lon="11.6688667"><ele>3.9999999999999996</ele><time>2026-04-12T08:02:06.535Z</time></trkpt><trkpt lat="45.1097583" lon="11.6688533"><ele>4.0</ele><time>2026-04-12T08:02:07.535Z</time></trkpt><trkpt lat="45.1096933" lon="11.6688483"><ele>4.0</ele><time>2026-04-12T08:02:08.537Z</time></trkpt><trkpt lat="45.1096283" lon="11.6688517"><ele>4.0</ele><time>2026-04-12T08:02:09.533Z</time></trkpt><trkpt lat="45.109565" lon="11.66886"><ele>3.9999999999999996</ele><time>2026-04-12T08:02:10.54Z</time></trkpt><trkpt lat="45.1094967" lon="11.6688683"><ele>4.0</ele><time>2026-04-12T08:02:11.533Z</time></trkpt><trkpt lat="45.1094283" lon="11.668875"><ele>4.0</ele><time>2026-04-12T08:02:12.534Z</time></trkpt><trkpt lat="45.1093633" lon="11.6688817"><ele>3.9999999999999996</ele><time>2026-04-12T08:02:13.53Z</time></trkpt><trkpt lat="45.1092917" lon="11.6688933"><ele>4.0</ele><time>2026-04-12T08:02:14.537Z</time></trkpt><trkpt lat="45.1092217" lon="11.668905"><ele>4.0</ele><time>2026-04-12T08:02:15.528Z</time></trkpt><trkpt lat="45.1091517" lon="11.668915"><ele>4.0</ele><time>2026-04-12T08:02:16.542Z</time></trkpt><trkpt lat="45.1090833" lon="11.668925"><ele>3.9999999999999996</ele><time>2026-04-12T08:02:17.538Z</time></trkpt><trkpt lat="45.1090167" lon="11.6689317"><ele>4.0</ele><time>2026-04-12T08:02:18.529Z</time></trkpt><trkpt lat="45.1089483" lon="11.6689333"><ele>4.0</ele><time>2026-04-12T08:02:19.534Z</time></trkpt><trkpt lat="45.10888" lon="11.668935"><ele>3.9999999999999996</ele><time>2026-04-12T08:02:20.536Z</time></trkpt><trkpt lat="45.108815" lon="11.6689267"><ele>4.0</ele><time>2026-04-12T08:02:21.531Z</time></trkpt><trkpt lat="45.1087467" lon="11.6689133"><ele>4.0</ele><time>2026-04-12T08:02:22.554Z</time></trkpt><trkpt lat="45.1086767" lon="11.6688933"><ele>4.285714285714286</ele><time>2026-04-12T08:02:23.527Z</time></trkpt><trkpt lat="45.1086117" lon="11.6688717"><ele>4.571428571428571</ele><time>2026-04-12T08:02:24.538Z</time></trkpt><trkpt lat="45.1085467" lon="11.6688483"><ele>4.857142857142857</ele><time>2026-04-12T08:02:25.546Z</time></trkpt><trkpt lat="45.1084817" lon="11.6688233"><ele>5.142857142857142</ele><time>2026-04-12T08:02:26.553Z</time></trkpt><trkpt lat="45.1084167" lon="11.6687967"><ele>5.428571428571429</ele><time>2026-04-12T08:02:27.534Z</time></trkpt><trkpt lat="45.1083517" lon="11.668765"><ele>5.7142857142857135</ele><time>2026-04-12T08:02:28.524Z</time></trkpt><trkpt lat="45.1082883" lon="11.6687283"><ele>6.0</ele><time>2026-04-12T08:02:29.539Z</time></trkpt><trkpt lat="45.108225" lon="11.6686933"><ele>6.142857142857142</ele><time>2026-04-12T08:02:30.525Z</time></trkpt><trkpt lat="45.1081617" lon="11.668655"><ele>6.285714285714286</ele><time>2026-04-12T08:02:31.532Z</time></trkpt><trkpt lat="45.1081017" lon="11.66862"><ele>6.428571428571429</ele><time>2026-04-12T08:02:32.529Z</time></trkpt><trkpt lat="45.1080367" lon="11.6685833"><ele>6.571428571428571</ele><time>2026-04-12T08:02:33.531Z</time></trkpt><trkpt lat="45.107975" lon="11.6685483"><ele>6.714285714285714</ele><time>2026-04-12T08:02:34.531Z</time></trkpt><trkpt lat="45.107915" lon="11.6685133"><ele>6.857142857142857</ele><time>2026-04-12T08:02:35.529Z</time></trkpt><trkpt lat="45.1078583" lon="11.6684683"><ele>7.0</ele><time>2026-04-12T08:02:36.534Z</time></trkpt><trkpt lat="45.1078033" lon="11.66842"><ele>7.199999999999999</ele><time>2026-04-12T08:02:37.534Z</time></trkpt><trkpt lat="45.10775" lon="11.6683683"><ele>7.3999999999999995</ele><time>2026-04-12T08:02:38.556Z</time></trkpt><trkpt lat="45.1077" lon="11.6683133"><ele>7.6000000000000005</ele><time>2026-04-12T08:02:39.539Z</time></trkpt><trkpt lat="45.1076133" lon="11.6681917"><ele>7.800000000000001</ele><time>2026-04-12T08:02:41.529Z</time></trkpt><trkpt lat="45.1075417" lon="11.66806"><ele>8.0</ele><time>2026-04-12T08:02:43.556Z</time></trkpt><trkpt lat="45.1074917" lon="11.6679167"><ele>7.75</ele><time>2026-04-12T08:02:45.564Z</time></trkpt><trkpt lat="45.1074517" lon="11.6677583"><ele>7.5</ele><time>2026-04-12T08:02:47.564Z</time></trkpt><trkpt lat="45.1074083" lon="11.6676017"><ele>7.25</ele><time>2026-04-12T08:02:49.546Z</time></trkpt><trkpt lat="45.1073667" lon="11.6674467"><ele>7.0</ele><time>2026-04-12T08:02:51.564Z</time></trkpt><trkpt lat="45.1073283" lon="11.6672967"><ele>7.3999999999999995</ele><time>2026-04-12T08:02:53.568Z</time></trkpt><trkpt lat="45.1073" lon="11.667155"><ele>7.799999999999999</ele><time>2026-04-12T08:02:55.528Z</time></trkpt><trkpt lat="45.1072667" lon="11.6670117"><ele>8.2</ele><time>2026-04-12T08:02:57.527Z</time></trkpt><trkpt lat="45.1072267" lon="11.6668667"><ele>8.6</ele><time>2026-04-12T08:02:59.554Z</time></trkpt><trkpt lat="45.1071883" lon="11.66672"><ele>9.0</ele><time>2026-04-12T08:03:01.532Z</time></trkpt><trkpt lat="45.1071467" lon="11.6665767"><ele>9.0</ele><time>2026-04-12T08:03:03.533Z</time></trkpt><trkpt lat="45.1070933" lon="11.6664433"><ele>9.0</ele><time>2026-04-12T08:03:05.528Z</time></trkpt><trkpt lat="45.1070367" lon="11.6663033"><ele>9.0</ele><time>2026-04-12T08:03:07.526Z</time></trkpt><trkpt lat="45.10698" lon="11.666175"><ele>9.0</ele><time>2026-04-12T08:03:09.539Z</time></trkpt><trkpt lat="45.1069217" lon="11.6660517"><ele>9.0</ele><time>2026-04-12T08:03:11.535Z</time></trkpt><trkpt lat="45.1068633" lon="11.665925"><ele>9.2</ele><time>2026-04-12T08:03:13.53Z</time></trkpt><trkpt lat="45.1067933" lon="11.6658117"><ele>9.4</ele><time>2026-04-12T08:03:15.544Z</time></trkpt><trkpt lat="45.10672" lon="11.6656983"><ele>9.6</ele><time>2026-04-12T08:03:17.528Z</time></trkpt><trkpt lat="45.1066467" lon="11.6655917"><ele>9.8</ele><time>2026-04-12T08:03:19.544Z</time></trkpt><trkpt lat="45.1065667" lon="11.665495"><ele>10.0</ele><time>2026-04-12T08:03:21.531Z</time></trkpt><trkpt lat="45.1064867" lon="11.6654"><ele>10.2</ele><time>2026-04-12T08:03:23.526Z</time></trkpt><trkpt lat="45.1064033" lon="11.6653117"><ele>10.4</ele><time>2026-04-12T08:03:25.539Z</time></trkpt><trkpt lat="45.1063217" lon="11.66523"><ele>10.600000000000001</ele><time>2026-04-12T08:03:27.524Z</time></trkpt><trkpt lat="45.1062417" lon="11.665155"><ele>10.8</ele><time>2026-04-12T08:03:29.529Z</time></trkpt><trkpt lat="45.1061583" lon="11.6650917"><ele>11.0</ele><time>2026-04-12T08:03:31.544Z</time></trkpt><trkpt lat="45.1060667" lon="11.6650183"><ele>11.0</ele><time>2026-04-12T08:03:33.544Z</time></trkpt><trkpt lat="45.1059717" lon="11.6649417"><ele>11.0</ele><time>2026-04-12T08:03:35.542Z</time></trkpt><trkpt lat="45.1058767" lon="11.6648783"><ele>11.0</ele><time>2026-04-12T08:03:37.551Z</time></trkpt><trkpt lat="45.1057767" lon="11.6648117"><ele>11.0</ele><time>2026-04-12T08:03:39.529Z</time></trkpt><trkpt lat="45.1056783" lon="11.6647467"><ele>11.0</ele><time>2026-04-12T08:03:41.534Z</time></trkpt><trkpt lat="45.1055767" lon="11.6646767"><ele>11.0</ele><time>2026-04-12T08:03:43.528Z</time></trkpt><trkpt lat="45.105475" lon="11.664595"><ele>11.0</ele><time>2026-04-12T08:03:45.534Z</time></trkpt><trkpt lat="45.1053733" lon="11.664515"><ele>11.0</ele><time>2026-04-12T08:03:47.524Z</time></trkpt><trkpt lat="45.10527" lon="11.6644283"><ele>11.0</ele><time>2026-04-12T08:03:49.527Z</time></trkpt><trkpt lat="45.105165" lon="11.664345"><ele>11.0</ele><time>2026-04-12T08:03:51.547Z</time></trkpt><trkpt lat="45.1050633" lon="11.6642567"><ele>11.0</ele><time>2026-04-12T08:03:53.54Z</time></trkpt><trkpt lat="45.10496" lon="11.6641633"><ele>11.0</ele><time>2026-04-12T08:03:55.531Z</time></trkpt><trkpt lat="45.1048667" lon="11.664055"><ele>11.0</ele><time>2026-04-12T08:03:57.525Z</time></trkpt><trkpt lat="45.1047867" lon="11.6639333"><ele>11.0</ele><time>2026-04-12T08:03:59.534Z</time></trkpt><trkpt lat="45.1047183" lon="11.6637983"><ele>11.0</ele><time>2026-04-12T08:04:01.523Z</time></trkpt><trkpt lat="45.1046617" lon="11.6636533"><ele>11.0</ele><time>2026-04-12T08:04:03.531Z</time></trkpt><trkpt lat="45.1046167" lon="11.663495"><ele>11.0</ele><time>2026-04-12T08:04:05.537Z</time></trkpt><trkpt lat="45.1045867" lon="11.663325"><ele>10.4</ele><time>2026-04-12T08:04:07.528Z</time></trkpt><trkpt lat="45.1045733" lon="11.663155"><ele>9.8</ele><time>2026-04-12T08:04:09.551Z</time></trkpt><trkpt lat="45.1045733" lon="11.663065"><ele>9.200000000000001</ele><time>2026-04-12T08:04:10.527Z</time></trkpt><trkpt lat="45.10459" lon="11.66289"><ele>8.600000000000001</ele><time>2026-04-12T08:04:12.539Z</time></trkpt><trkpt lat="45.1046183" lon="11.662725"><ele>8.0</ele><time>2026-04-12T08:04:14.534Z</time></trkpt><trkpt lat="45.10466" lon="11.66257"><ele>8.0</ele><time>2026-04-12T08:04:16.543Z</time></trkpt><trkpt lat="45.1047183" lon="11.662425"><ele>8.0</ele><time>2026-04-12T08:04:18.529Z</time></trkpt><trkpt lat="45.1047783" lon="11.662285"><ele>8.0</ele><time>2026-04-12T08:04:20.546Z</time></trkpt><trkpt lat="45.1048383" lon="11.6621433"><ele>8.0</ele><time>2026-04-12T08:04:22.526Z</time></trkpt><trkpt lat="45.1049" lon="11.6619967"><ele>8.0</ele><time>2026-04-12T08:04:24.528Z</time></trkpt><trkpt lat="45.10496" lon="11.6618483"><ele>8.0</ele><time>2026-04-12T08:04:26.535Z</time></trkpt><trkpt lat="45.1050217" lon="11.6617"><ele>8.0</ele><time>2026-04-12T08:04:28.534Z</time></trkpt><trkpt lat="45.10508" lon="11.66155"><ele>8.0</ele><time>2026-04-12T08:04:30.532Z</time></trkpt><trkpt lat="45.105135" lon="11.6613967"><ele>8.0</ele><time>2026-04-12T08:04:32.533Z</time></trkpt><trkpt lat="45.1051917" lon="11.661245"><ele>8.0</ele><time>2026-04-12T08:04:34.552Z</time></trkpt><trkpt lat="45.1052467" lon="11.6610933"><ele>8.0</ele><time>2026-04-12T08:04:36.541Z</time></trkpt><trkpt lat="45.105305" lon="11.660945"><ele>8.0</ele><time>2026-04-12T08:04:38.55Z</time></trkpt><trkpt lat="45.1053567" lon="11.6607917"><ele>8.0</ele><time>2026-04-12T08:04:40.532Z</time></trkpt><trkpt lat="45.1054133" lon="11.6606483"><ele>8.0</ele><time>2026-04-12T08:04:42.533Z</time></trkpt><trkpt lat="45.10547" lon="11.6605083"><ele>8.0</ele><time>2026-04-12T08:04:44.527Z</time></trkpt><trkpt lat="45.1055283" lon="11.660375"><ele>8.0</ele><time>2026-04-12T08:04:46.544Z</time></trkpt><trkpt lat="45.10558" lon="11.6602517"><ele>8.0</ele><time>2026-04-12T08:04:48.527Z</time></trkpt><trkpt lat="45.1056333" lon="11.66014"><ele>8.0</ele><time>2026-04-12T08:04:50.533Z</time></trkpt><trkpt lat="45.105685" lon="11.660015"><ele>8.0</ele><time>2026-04-12T08:04:52.548Z</time></trkpt><trkpt lat="45.10573" lon="11.6598817"><ele>8.0</ele><time>2026-04-12T08:04:54.537Z</time></trkpt><trkpt lat="45.1057367" lon="11.6597567"><ele>8.0</ele><time>2026-04-12T08:04:56.544Z</time></trkpt><trkpt lat="45.1056783" lon="11.65967"><ele>8.0</ele><time>2026-04-12T08:04:58.533Z</time></trkpt><trkpt lat="45.10558" lon="11.6596183"><ele>8.0</ele><time>2026-04-12T08:05:00.529Z</time></trkpt><trkpt lat="45.1054783" lon="11.6595717"><ele>8.0</ele><time>2026-04-12T08:05:02.528Z</time></trkpt><trkpt lat="45.1053717" lon="11.6595283"><ele>8.0</ele><time>2026-04-12T08:05:04.532Z</time></trkpt><trkpt lat="45.105265" lon="11.6594783"><ele>8.0</ele><time>2026-04-12T08:05:06.556Z</time></trkpt><trkpt lat="45.10516" lon="11.6594333"><ele>8.0</ele><time>2026-04-12T08:05:08.535Z</time></trkpt><trkpt lat="45.1050583" lon="11.6593883"><ele>7.6000000000000005</ele><time>2026-04-12T08:05:10.527Z</time></trkpt><trkpt lat="45.1049583" lon="11.6593467"><ele>7.200000000000001</ele><time>2026-04-12T08:05:12.537Z</time></trkpt><trkpt lat="45.1048583" lon="11.65931"><ele>6.8</ele><time>2026-04-12T08:05:14.538Z</time></trkpt><trkpt lat="45.1047617" lon="11.65927"><ele>6.4</ele><time>2026-04-12T08:05:16.534Z</time></trkpt><trkpt lat="45.1046633" lon="11.6592283"><ele>6.0</ele><time>2026-04-12T08:05:18.541Z</time></trkpt><trkpt lat="45.10457" lon="11.6591883"><ele>7.0</ele><time>2026-04-12T08:05:20.535Z</time></trkpt><trkpt lat="45.10448" lon="11.6591533"><ele>8.0</ele><time>2026-04-12T08:05:22.522Z</time></trkpt><trkpt lat="45.1043867" lon="11.6591167"><ele>9.0</ele><time>2026-04-12T08:05:24.525Z</time></trkpt><trkpt lat="45.104295" lon="11.6590733"><ele>10.0</ele><time>2026-04-12T08:05:26.532Z</time></trkpt><trkpt lat="45.10421" lon="11.65903"><ele>11.0</ele><time>2026-04-12T08:05:28.53Z</time></trkpt><trkpt lat="45.10415" lon="11.6589533"><ele>11.0</ele><time>2026-04-12T08:05:30.543Z</time></trkpt><trkpt lat="45.10415" lon="11.6588167"><ele>11.0</ele><time>2026-04-12T08:05:32.527Z</time></trkpt><trkpt lat="45.1041733" lon="11.6586517"><ele>11.0</ele><time>2026-04-12T08:05:34.537Z</time></trkpt><trkpt lat="45.1041867" lon="11.65848"><ele>11.0</ele><time>2026-04-12T08:05:36.545Z</time></trkpt><trkpt lat="45.1041967" lon="11.65831"><ele>11.0</ele><time>2026-04-12T08:05:38.535Z</time></trkpt><trkpt lat="45.1041983" lon="11.65822"><ele>11.0</ele><time>2026-04-12T08:05:39.544Z</time></trkpt><trkpt lat="45.1041983" lon="11.6580467"><ele>11.0</ele><time>2026-04-12T08:05:41.536Z</time></trkpt><trkpt lat="45.1042033" lon="11.65788"><ele>11.0</ele><time>2026-04-12T08:05:43.545Z</time></trkpt><trkpt lat="45.104205" lon="11.65772"><ele>11.0</ele><time>2026-04-12T08:05:45.527Z</time></trkpt><trkpt lat="45.10421" lon="11.6575683"><ele>10.8</ele><time>2026-04-12T08:05:47.528Z</time></trkpt><trkpt lat="45.1042117" lon="11.6574183"><ele>10.600000000000001</ele><time>2026-04-12T08:05:49.551Z</time></trkpt><trkpt lat="45.1042117" lon="11.65727"><ele>10.4</ele><time>2026-04-12T08:05:51.525Z</time></trkpt><trkpt lat="45.104215" lon="11.6571133"><ele>10.2</ele><time>2026-04-12T08:05:53.525Z</time></trkpt><trkpt lat="45.1042233" lon="11.6569533"><ele>10.0</ele><time>2026-04-12T08:05:55.534Z</time></trkpt><trkpt lat="45.104225" lon="11.65679"><ele>9.75</ele><time>2026-04-12T08:05:57.532Z</time></trkpt><trkpt lat="45.1042233" lon="11.6566267"><ele>9.5</ele><time>2026-04-12T08:05:59.535Z</time></trkpt><trkpt lat="45.1042283" lon="11.65646"><ele>9.25</ele><time>2026-04-12T08:06:01.533Z</time></trkpt><trkpt lat="45.1042283" lon="11.6563017"><ele>9.0</ele><time>2026-04-12T08:06:03.532Z</time></trkpt><trkpt lat="45.10423" lon="11.6561433"><ele>9.0</ele><time>2026-04-12T08:06:05.548Z</time></trkpt><trkpt lat="45.1042317" lon="11.6559883"><ele>9.0</ele><time>2026-04-12T08:06:07.539Z</time></trkpt><trkpt lat="45.1042333" lon="11.655825"><ele>9.0</ele><time>2026-04-12T08:06:09.534Z</time></trkpt><trkpt lat="45.1042333" lon="11.6556633"><ele>9.0</ele><time>2026-04-12T08:06:11.531Z</time></trkpt><trkpt lat="45.1042317" lon="11.655505"><ele>9.0</ele><time>2026-04-12T08:06:13.532Z</time></trkpt><trkpt lat="45.1042167" lon="11.6553483"><ele>9.0</ele><time>2026-04-12T08:06:15.546Z</time></trkpt><trkpt lat="45.1042" lon="11.6551933"><ele>9.0</ele><time>2026-04-12T08:06:17.546Z</time></trkpt><trkpt lat="45.1041833" lon="11.655035"><ele>9.0</ele><time>2026-04-12T08:06:19.531Z</time></trkpt><trkpt lat="45.10418" lon="11.6548633"><ele>8.857142857142858</ele><time>2026-04-12T08:06:21.546Z</time></trkpt><trkpt lat="45.1041767" lon="11.6547733"><ele>8.714285714285715</ele><time>2026-04-12T08:06:22.532Z</time></trkpt><trkpt lat="45.1041733" lon="11.6546817"><ele>8.571428571428571</ele><time>2026-04-12T08:06:23.532Z</time></trkpt><trkpt lat="45.1041717" lon="11.6545867"><ele>8.428571428571429</ele><time>2026-04-12T08:06:24.531Z</time></trkpt><trkpt lat="45.1041717" lon="11.6544933"><ele>8.285714285714285</ele><time>2026-04-12T08:06:25.53Z</time></trkpt><trkpt lat="45.1041683" lon="11.6544"><ele>8.142857142857142</ele><time>2026-04-12T08:06:26.546Z</time></trkpt><trkpt lat="45.1041667" lon="11.6543067"><ele>8.0</ele><time>2026-04-12T08:06:27.545Z</time></trkpt><trkpt lat="45.104165" lon="11.6542167"><ele>8.0</ele><time>2026-04-12T08:06:28.53Z</time></trkpt><trkpt lat="45.1041617" lon="11.6541267"><ele>7.999999999999999</ele><time>2026-04-12T08:06:29.544Z</time></trkpt><trkpt lat="45.1041483" lon="11.653955"><ele>8.0</ele><time>2026-04-12T08:06:31.532Z</time></trkpt><trkpt lat="45.1041317" lon="11.6538683"><ele>8.0</ele><time>2026-04-12T08:06:32.531Z</time></trkpt><trkpt lat="45.1041" lon="11.6537867"><ele>7.999999999999999</ele><time>2026-04-12T08:06:33.547Z</time></trkpt><trkpt lat="45.10406" lon="11.6537117"><ele>8.0</ele><time>2026-04-12T08:06:34.55Z</time></trkpt><trkpt lat="45.10401" lon="11.6536483"><ele>8.0</ele><time>2026-04-12T08:06:35.534Z</time></trkpt><trkpt lat="45.10395" lon="11.6535983"><ele>7.571428571428571</ele><time>2026-04-12T08:06:36.535Z</time></trkpt><trkpt lat="45.1038833" lon="11.65356"><ele>7.142857142857142</ele><time>2026-04-12T08:06:37.539Z</time></trkpt><trkpt lat="45.1038117" lon="11.6535317"><ele>6.7142857142857135</ele><time>2026-04-12T08:06:38.547Z</time></trkpt><trkpt lat="45.1037383" lon="11.6535083"><ele>6.285714285714286</ele><time>2026-04-12T08:06:39.55Z</time></trkpt><trkpt lat="45.1036617" lon="11.6534867"><ele>5.857142857142858</ele><time>2026-04-12T08:06:40.552Z</time></trkpt><trkpt lat="45.1035867" lon="11.6534733"><ele>5.428571428571429</ele><time>2026-04-12T08:06:41.532Z</time></trkpt><trkpt lat="45.1035133" lon="11.6534617"><ele>5.0</ele><time>2026-04-12T08:06:42.537Z</time></trkpt><trkpt lat="45.1034433" lon="11.653445"><ele>5.0</ele><time>2026-04-12T08:06:43.573Z</time></trkpt><trkpt lat="45.1033717" lon="11.6534317"><ele>5.0</ele><time>2026-04-12T08:06:44.537Z</time></trkpt><trkpt lat="45.1033017" lon="11.6534167"><ele>5.0</ele><time>2026-04-12T08:06:45.538Z</time></trkpt><trkpt lat="45.1032333" lon="11.6534033"><ele>5.0</ele><time>2026-04-12T08:06:46.526Z</time></trkpt><trkpt lat="45.1031617" lon="11.6533933"><ele>5.0</ele><time>2026-04-12T08:06:47.537Z</time></trkpt><trkpt lat="45.1030917" lon="11.6533867"><ele>5.0</ele><time>2026-04-12T08:06:48.541Z</time></trkpt><trkpt lat="45.1030183" lon="11.653375"><ele>5.0</ele><time>2026-04-12T08:06:49.532Z</time></trkpt><trkpt lat="45.10295" lon="11.6533633"><ele>5.0</ele><time>2026-04-12T08:06:50.545Z</time></trkpt><trkpt lat="45.1028783" lon="11.6533517"><ele>5.0</ele><time>2026-04-12T08:06:51.528Z</time></trkpt><trkpt lat="45.10281" lon="11.6533367"><ele>5.0</ele><time>2026-04-12T08:06:52.534Z</time></trkpt><trkpt lat="45.1027433" lon="11.653325"><ele>5.0</ele><time>2026-04-12T08:06:53.531Z</time></trkpt><trkpt lat="45.1026783" lon="11.6533133"><ele>5.0</ele><time>2026-04-12T08:06:54.529Z</time></trkpt><trkpt lat="45.1025567" lon="11.65329"><ele>5.0</ele><time>2026-04-12T08:06:56.544Z</time></trkpt><trkpt lat="45.1024917" lon="11.6532767"><ele>5.0</ele><time>2026-04-12T08:06:57.547Z</time></trkpt><trkpt lat="45.102425" lon="11.65327"><ele>5.0</ele><time>2026-04-12T08:06:58.527Z</time></trkpt><trkpt lat="45.1023567" lon="11.6532617"><ele>5.0</ele><time>2026-04-12T08:06:59.573Z</time></trkpt><trkpt lat="45.10229" lon="11.6532517"><ele>5.0</ele><time>2026-04-12T08:07:00.526Z</time></trkpt><trkpt lat="45.1022267" lon="11.6532417"><ele>5.0</ele><time>2026-04-12T08:07:01.534Z</time></trkpt><trkpt lat="45.1021067" lon="11.6532183"><ele>5.0</ele><time>2026-04-12T08:07:03.524Z</time></trkpt><trkpt lat="45.1019867" lon="11.653195"><ele>5.0</ele><time>2026-04-12T08:07:05.536Z</time></trkpt><trkpt lat="45.1018617" lon="11.653165"><ele>5.0</ele><time>2026-04-12T08:07:07.529Z</time></trkpt><trkpt lat="45.1017983" lon="11.65315"><ele>5.0</ele><time>2026-04-12T08:07:08.533Z</time></trkpt><trkpt lat="45.101675" lon="11.6531317"><ele>5.0</ele><time>2026-04-12T08:07:10.526Z</time></trkpt><trkpt lat="45.1016083" lon="11.65312"><ele>5.0</ele><time>2026-04-12T08:07:11.547Z</time></trkpt><trkpt lat="45.1015433" lon="11.65311"><ele>5.0</ele><time>2026-04-12T08:07:12.539Z</time></trkpt><trkpt lat="45.1014767" lon="11.6531017"><ele>5.0</ele><time>2026-04-12T08:07:13.532Z</time></trkpt><trkpt lat="45.10141" lon="11.65309"><ele>5.0</ele><time>2026-04-12T08:07:14.538Z</time></trkpt><trkpt lat="45.1013433" lon="11.65308"><ele>5.0</ele><time>2026-04-12T08:07:15.531Z</time></trkpt><trkpt lat="45.1012183" lon="11.6530567"><ele>5.0</ele><time>2026-04-12T08:07:17.532Z</time></trkpt><trkpt lat="45.1011533" lon="11.6530417"><ele>5.0</ele><time>2026-04-12T08:07:18.539Z</time></trkpt><trkpt lat="45.1010883" lon="11.65303"><ele>5.0</ele><time>2026-04-12T08:07:19.533Z</time></trkpt><trkpt lat="45.1010217" lon="11.6530167"><ele>5.0</ele><time>2026-04-12T08:07:20.533Z</time></trkpt><trkpt lat="45.1009583" lon="11.6530033"><ele>5.0</ele><time>2026-04-12T08:07:21.534Z</time></trkpt><trkpt lat="45.1008917" lon="11.6529933"><ele>5.0</ele><time>2026-04-12T08:07:22.531Z</time></trkpt><trkpt lat="45.1008267" lon="11.6529833"><ele>5.0</ele><time>2026-04-12T08:07:23.533Z</time></trkpt><trkpt lat="45.1007617" lon="11.6529733"><ele>5.0</ele><time>2026-04-12T08:07:24.528Z</time></trkpt><trkpt lat="45.1006983" lon="11.6529633"><ele>5.0</ele><time>2026-04-12T08:07:25.549Z</time></trkpt><trkpt lat="45.1006317" lon="11.652955"><ele>5.0</ele><time>2026-04-12T08:07:26.529Z</time></trkpt><trkpt lat="45.100565" lon="11.652945"><ele>5.0</ele><time>2026-04-12T08:07:27.533Z</time></trkpt><trkpt lat="45.1005017" lon="11.6529317"><ele>5.0</ele><time>2026-04-12T08:07:28.534Z</time></trkpt><trkpt lat="45.1004367" lon="11.6529183"><ele>5.0</ele><time>2026-04-12T08:07:29.532Z</time></trkpt><trkpt lat="45.1003733" lon="11.6529067"><ele>5.0</ele><time>2026-04-12T08:07:30.533Z</time></trkpt><trkpt lat="45.1003083" lon="11.652895"><ele>5.0</ele><time>2026-04-12T08:07:31.554Z</time></trkpt><trkpt lat="45.1001833" lon="11.65287"><ele>5.0</ele><time>2026-04-12T08:07:33.546Z</time></trkpt><trkpt lat="45.10012" lon="11.65286"><ele>5.0</ele><time>2026-04-12T08:07:34.535Z</time></trkpt><trkpt lat="45.1000567" lon="11.6528517"><ele>5.0</ele><time>2026-04-12T08:07:35.534Z</time></trkpt><trkpt lat="45.099935" lon="11.6528267"><ele>5.0</ele><time>2026-04-12T08:07:37.53Z</time></trkpt><trkpt lat="45.0998117" lon="11.652795"><ele>5.0</ele><time>2026-04-12T08:07:39.564Z</time></trkpt><trkpt lat="45.099685" lon="11.65277"><ele>5.0</ele><time>2026-04-12T08:07:41.529Z</time></trkpt><trkpt lat="45.09962" lon="11.6527567"><ele>5.0</ele><time>2026-04-12T08:07:42.582Z</time></trkpt><trkpt lat="45.099555" lon="11.652745"><ele>5.0</ele><time>2026-04-12T08:07:43.574Z</time></trkpt><trkpt lat="45.099485" lon="11.6527333"><ele>5.0</ele><time>2026-04-12T08:07:44.585Z</time></trkpt><trkpt lat="45.0994067" lon="11.6527117"><ele>5.0</ele><time>2026-04-12T08:07:45.603Z</time></trkpt><trkpt lat="45.09934" lon="11.6526917"><ele>5.0</ele><time>2026-04-12T08:07:46.602Z</time></trkpt><trkpt lat="45.09927" lon="11.6526683"><ele>5.0</ele><time>2026-04-12T08:07:47.554Z</time></trkpt><trkpt lat="45.0991933" lon="11.652645"><ele>5.0</ele><time>2026-04-12T08:07:48.538Z</time></trkpt><trkpt lat="45.0991267" lon="11.652645"><ele>5.0</ele><time>2026-04-12T08:07:49.533Z</time></trkpt><trkpt lat="45.0990117" lon="11.65264"><ele>5.0</ele><time>2026-04-12T08:07:51.546Z</time></trkpt><trkpt lat="45.0989" lon="11.6526317"><ele>5.0</ele><time>2026-04-12T08:07:53.542Z</time></trkpt><trkpt lat="45.0987883" lon="11.6526167"><ele>5.0</ele><time>2026-04-12T08:07:55.551Z</time></trkpt><trkpt lat="45.0986767" lon="11.652595"><ele>5.0</ele><time>2026-04-12T08:07:57.53Z</time></trkpt><trkpt lat="45.0985617" lon="11.65258"><ele>5.0</ele><time>2026-04-12T08:07:59.535Z</time></trkpt><trkpt lat="45.098455" lon="11.6525617"><ele>5.0</ele><time>2026-04-12T08:08:01.551Z</time></trkpt><trkpt lat="45.0983517" lon="11.6525433"><ele>5.0</ele><time>2026-04-12T08:08:03.536Z</time></trkpt><trkpt lat="45.0982517" lon="11.6525283"><ele>5.0</ele><time>2026-04-12T08:08:05.546Z</time></trkpt><trkpt lat="45.0981667" lon="11.6525333"><ele>5.0</ele><time>2026-04-12T08:08:07.545Z</time></trkpt><trkpt lat="45.0980917" lon="11.6525867"><ele>5.0</ele><time>2026-04-12T08:08:09.547Z</time></trkpt><trkpt lat="45.09805" lon="11.6527167"><ele>5.0</ele><time>2026-04-12T08:08:11.548Z</time></trkpt><trkpt lat="45.09804" lon="11.6528767"><ele>5.0</ele><time>2026-04-12T08:08:13.53Z</time></trkpt><trkpt lat="45.0980383" lon="11.6530433"><ele>5.0</ele><time>2026-04-12T08:08:15.538Z</time></trkpt><trkpt lat="45.0980383" lon="11.6532167"><ele>5.0</ele><time>2026-04-12T08:08:17.54Z</time></trkpt><trkpt lat="45.098035" lon="11.653385"><ele>5.0</ele><time>2026-04-12T08:08:19.545Z</time></trkpt><trkpt lat="45.0980267" lon="11.6535567"><ele>5.0</ele><time>2026-04-12T08:08:21.569Z</time></trkpt><trkpt lat="45.0980167" lon="11.653725"><ele>5.0</ele><time>2026-04-12T08:08:23.537Z</time></trkpt><trkpt lat="45.0980133" lon="11.6539017"><ele>5.0</ele><time>2026-04-12T08:08:25.532Z</time></trkpt><trkpt lat="45.0980117" lon="11.654075"><ele>5.0</ele><time>2026-04-12T08:08:27.539Z</time></trkpt><trkpt lat="45.0980117" lon="11.6541667"><ele>5.0</ele><time>2026-04-12T08:08:28.526Z</time></trkpt><trkpt lat="45.0980083" lon="11.6542567"><ele>5.0</ele><time>2026-04-12T08:08:29.533Z</time></trkpt><trkpt lat="45.098005" lon="11.6543467"><ele>5.0</ele><time>2026-04-12T08:08:30.547Z</time></trkpt><trkpt lat="45.0980017" lon="11.6544367"><ele>5.0</ele><time>2026-04-12T08:08:31.535Z</time></trkpt><trkpt lat="45.0979933" lon="11.65462"><ele>5.0</ele><time>2026-04-12T08:08:33.528Z</time></trkpt><trkpt lat="45.09799" lon="11.65471"><ele>5.0</ele><time>2026-04-12T08:08:34.542Z</time></trkpt><trkpt lat="45.0979833" lon="11.6548867"><ele>5.0</ele><time>2026-04-12T08:08:36.528Z</time></trkpt><trkpt lat="45.0979817" lon="11.6550567"><ele>5.0</ele><time>2026-04-12T08:08:38.534Z</time></trkpt><trkpt lat="45.09798" lon="11.6552283"><ele>5.0</ele><time>2026-04-12T08:08:40.531Z</time></trkpt><trkpt lat="45.0979733" lon="11.6554017"><ele>5.0</ele><time>2026-04-12T08:08:42.544Z</time></trkpt><trkpt lat="45.0979683" lon="11.6555733"><ele>5.0</ele><time>2026-04-12T08:08:44.614Z</time></trkpt><trkpt lat="45.0979633" lon="11.6557433"><ele>5.0</ele><time>2026-04-12T08:08:46.585Z</time></trkpt><trkpt lat="45.09796" lon="11.6559183"><ele>5.0</ele><time>2026-04-12T08:08:48.575Z</time></trkpt><trkpt lat="45.09796" lon="11.65609"><ele>5.0</ele><time>2026-04-12T08:08:50.644Z</time></trkpt><trkpt lat="45.0979633" lon="11.65626"><ele>5.0</ele><time>2026-04-12T08:08:52.56Z</time></trkpt><trkpt lat="45.0979667" lon="11.6563517"><ele>5.0</ele><time>2026-04-12T08:08:53.546Z</time></trkpt><trkpt lat="45.0979683" lon="11.6564417"><ele>5.0</ele><time>2026-04-12T08:08:54.561Z</time></trkpt><trkpt lat="45.0979717" lon="11.656535"><ele>5.0</ele><time>2026-04-12T08:08:55.535Z</time></trkpt><trkpt lat="45.0979733" lon="11.656625"><ele>5.0</ele><time>2026-04-12T08:08:56.563Z</time></trkpt><trkpt lat="45.0979733" lon="11.6567167"><ele>5.0</ele><time>2026-04-12T08:08:57.543Z</time></trkpt><trkpt lat="45.0979733" lon="11.6568067"><ele>5.0</ele><time>2026-04-12T08:08:58.53Z</time></trkpt><trkpt lat="45.0979733" lon="11.65698"><ele>5.0</ele><time>2026-04-12T08:09:00.535Z</time></trkpt><trkpt lat="45.0979683" lon="11.65715"><ele>5.0</ele><time>2026-04-12T08:09:02.532Z</time></trkpt><trkpt lat="45.0979633" lon="11.65732"><ele>5.0</ele><time>2026-04-12T08:09:04.537Z</time></trkpt><trkpt lat="45.0979567" lon="11.6574867"><ele>5.0</ele><time>2026-04-12T08:09:06.54Z</time></trkpt><trkpt lat="45.09794" lon="11.6576483"><ele>5.0</ele><time>2026-04-12T08:09:08.533Z</time></trkpt><trkpt lat="45.0979" lon="11.6578167"><ele>5.0</ele><time>2026-04-12T08:09:10.533Z</time></trkpt><trkpt lat="45.0978767" lon="11.6579017"><ele>5.0</ele><time>2026-04-12T08:09:11.556Z</time></trkpt><trkpt lat="45.0978483" lon="11.6579833"><ele>5.0</ele><time>2026-04-12T08:09:12.53Z</time></trkpt><trkpt lat="45.09782" lon="11.6580633"><ele>5.0</ele><time>2026-04-12T08:09:13.534Z</time></trkpt><trkpt lat="45.0977783" lon="11.65822"><ele>5.2</ele><time>2026-04-12T08:09:15.538Z</time></trkpt><trkpt lat="45.0977367" lon="11.6583833"><ele>5.4</ele><time>2026-04-12T08:09:17.532Z</time></trkpt><trkpt lat="45.0977217" lon="11.65847"><ele>5.6</ele><time>2026-04-12T08:09:18.532Z</time></trkpt><trkpt lat="45.097695" lon="11.658635"><ele>5.8</ele><time>2026-04-12T08:09:20.532Z</time></trkpt><trkpt lat="45.0976717" lon="11.6588"><ele>6.0</ele><time>2026-04-12T08:09:22.528Z</time></trkpt><trkpt lat="45.0976733" lon="11.6589667"><ele>6.0</ele><time>2026-04-12T08:09:24.535Z</time></trkpt><trkpt lat="45.097695" lon="11.6591333"><ele>6.0</ele><time>2026-04-12T08:09:26.542Z</time></trkpt><trkpt lat="45.09773" lon="11.6593"><ele>6.0</ele><time>2026-04-12T08:09:28.533Z</time></trkpt><trkpt lat="45.0977817" lon="11.6594517"><ele>6.0</ele><time>2026-04-12T08:09:30.543Z</time></trkpt><trkpt lat="45.09781" lon="11.6595317"><ele>6.0</ele><time>2026-04-12T08:09:31.542Z</time></trkpt><trkpt lat="45.0978667" lon="11.6596867"><ele>5.833333333333333</ele><time>2026-04-12T08:09:33.533Z</time></trkpt><trkpt lat="45.09792" lon="11.6598433"><ele>5.666666666666667</ele><time>2026-04-12T08:09:35.536Z</time></trkpt><trkpt lat="45.0979817" lon="11.6599967"><ele>5.5</ele><time>2026-04-12T08:09:37.53Z</time></trkpt><trkpt lat="45.0980183" lon="11.6600767"><ele>5.333333333333334</ele><time>2026-04-12T08:09:38.538Z</time></trkpt><trkpt lat="45.098055" lon="11.660155"><ele>5.166666666666667</ele><time>2026-04-12T08:09:39.539Z</time></trkpt><trkpt lat="45.09809" lon="11.6602367"><ele>5.0</ele><time>2026-04-12T08:09:40.541Z</time></trkpt><trkpt lat="45.0981283" lon="11.660315"><ele>5.0</ele><time>2026-04-12T08:09:41.539Z</time></trkpt><trkpt lat="45.09817" lon="11.6603917"><ele>5.0</ele><time>2026-04-12T08:09:42.536Z</time></trkpt><trkpt lat="45.0982117" lon="11.6604617"><ele>5.0</ele><time>2026-04-12T08:09:43.536Z</time></trkpt><trkpt lat="45.098255" lon="11.66053"><ele>5.0</ele><time>2026-04-12T08:09:44.531Z</time></trkpt><trkpt lat="45.0982967" lon="11.6606033"><ele>5.0</ele><time>2026-04-12T08:09:45.533Z</time></trkpt><trkpt lat="45.09834" lon="11.6606733"><ele>5.0</ele><time>2026-04-12T08:09:46.534Z</time></trkpt><trkpt lat="45.0984267" lon="11.660805"><ele>5.0</ele><time>2026-04-12T08:09:48.547Z</time></trkpt><trkpt lat="45.0984717" lon="11.66087"><ele>5.0</ele><time>2026-04-12T08:09:49.536Z</time></trkpt><trkpt lat="45.0985167" lon="11.660935"><ele>5.0</ele><time>2026-04-12T08:09:50.536Z</time></trkpt><trkpt lat="45.098605" lon="11.6610583"><ele>5.0</ele><time>2026-04-12T08:09:52.546Z</time></trkpt><trkpt lat="45.0986933" lon="11.6611583"><ele>5.0</ele><time>2026-04-12T08:09:54.538Z</time></trkpt><trkpt lat="45.0987967" lon="11.6612133"><ele>5.25</ele><time>2026-04-12T08:09:56.538Z</time></trkpt><trkpt lat="45.098915" lon="11.661225"><ele>5.5</ele><time>2026-04-12T08:09:58.553Z</time></trkpt><trkpt lat="45.09903" lon="11.6611833"><ele>5.75</ele><time>2026-04-12T08:10:00.534Z</time></trkpt><trkpt lat="45.0991367" lon="11.6611283"><ele>6.0</ele><time>2026-04-12T08:10:02.529Z</time></trkpt><trkpt lat="45.099245" lon="11.6610683"><ele>6.199999999999999</ele><time>2026-04-12T08:10:04.527Z</time></trkpt><trkpt lat="45.0993533" lon="11.6610083"><ele>6.3999999999999995</ele><time>2026-04-12T08:10:06.536Z</time></trkpt><trkpt lat="45.09947" lon="11.6609867"><ele>6.6</ele><time>2026-04-12T08:10:08.55Z</time></trkpt><trkpt lat="45.099575" lon="11.6610417"><ele>6.8</ele><time>2026-04-12T08:10:10.544Z</time></trkpt><trkpt lat="45.09962" lon="11.6611667"><ele>7.0</ele><time>2026-04-12T08:10:12.53Z</time></trkpt><trkpt lat="45.0996433" lon="11.6613083"><ele>7.0</ele><time>2026-04-12T08:10:14.544Z</time></trkpt><trkpt lat="45.0996733" lon="11.661445"><ele>6.999999999999999</ele><time>2026-04-12T08:10:16.535Z</time></trkpt><trkpt lat="45.0997083" lon="11.66157"><ele>6.999999999999999</ele><time>2026-04-12T08:10:18.532Z</time></trkpt><trkpt lat="45.09975" lon="11.6616933"><ele>7.0</ele><time>2026-04-12T08:10:20.532Z</time></trkpt><trkpt lat="45.09978" lon="11.661815"><ele>7.0</ele><time>2026-04-12T08:10:22.529Z</time></trkpt><trkpt lat="45.0998167" lon="11.661935"><ele>6.8</ele><time>2026-04-12T08:10:24.535Z</time></trkpt><trkpt lat="45.0998617" lon="11.6620617"><ele>6.6</ele><time>2026-04-12T08:10:26.527Z</time></trkpt><trkpt lat="45.09991" lon="11.6621917"><ele>6.3999999999999995</ele><time>2026-04-12T08:10:28.544Z</time></trkpt><trkpt lat="45.0999583" lon="11.6623283"><ele>6.199999999999999</ele><time>2026-04-12T08:10:30.531Z</time></trkpt><trkpt lat="45.1000017" lon="11.662455"><ele>6.0</ele><time>2026-04-12T08:10:32.529Z</time></trkpt><trkpt lat="45.10005" lon="11.662545"><ele>6.5</ele><time>2026-04-12T08:10:34.533Z</time></trkpt><trkpt lat="45.100075" lon="11.6626667"><ele>7.0</ele><time>2026-04-12T08:10:37.546Z</time></trkpt><trkpt lat="45.1002" lon="11.6628133"><ele>7.5</ele><time>2026-04-12T08:11:02.539Z</time></trkpt><trkpt lat="45.1001817" lon="11.6629083"><ele>8.0</ele><time>2026-04-12T08:11:18.561Z</time></trkpt><trkpt lat="45.1004327" lon="11.6626492"><ele>8.0</ele><time>2026-04-12T08:11:44.528Z</time></trkpt><trkpt lat="45.1006133" lon="11.6624925"><ele>8.0</ele><time>2026-04-12T08:11:53.127Z</time></trkpt><trkpt lat="45.1000939" lon="11.6627682"><ele>8.0</ele><time>2026-04-12T08:12:00.311Z</time></trkpt><trkpt lat="45.1004581" lon="11.6628114"><ele>8.0</ele><time>2026-04-12T08:12:37.53Z</time></trkpt><trkpt lat="45.1005237" lon="11.6628469"><ele>8.0</ele><time>2026-04-12T08:12:38.529Z</time></trkpt><trkpt lat="45.1005899" lon="11.6628568"><ele>8.0</ele><time>2026-04-12T08:12:39.529Z</time></trkpt><trkpt lat="45.1006967" lon="11.6628111"><ele>8.0</ele><time>2026-04-12T08:12:41.535Z</time></trkpt><trkpt lat="45.1008058" lon="11.6627778"><ele>8.0</ele><time>2026-04-12T08:12:43.529Z</time></trkpt><trkpt lat="45.1009127" lon="11.6627626"><ele>8.0</ele><time>2026-04-12T08:12:45.536Z</time></trkpt><trkpt lat="45.100647" lon="11.6628363"><ele>8.0</ele><time>2026-04-12T08:12:47.548Z</time></trkpt><trkpt lat="45.1002444" lon="11.662806"><ele>8.0</ele><time>2026-04-12T08:12:56.057Z</time></trkpt><trkpt lat="45.1002839" lon="11.6630049"><ele>7.999999999999999</ele><time>2026-04-12T08:13:59.552Z</time></trkpt><trkpt lat="45.1003561" lon="11.6630262"><ele>8.0</ele><time>2026-04-12T08:14:07.544Z</time></trkpt><trkpt lat="45.1002754" lon="11.6630137"><ele>8.0</ele><time>2026-04-12T08:14:08.537Z</time></trkpt><trkpt lat="45.1001951" lon="11.6630183"><ele>8.0</ele><time>2026-04-12T08:14:10.533Z</time></trkpt><trkpt lat="45.1001243" lon="11.6630414"><ele>7.999999999999999</ele><time>2026-04-12T08:14:16.533Z</time></trkpt><trkpt lat="45.1000482" lon="11.6630343"><ele>8.0</ele><time>2026-04-12T08:14:19.543Z</time></trkpt><trkpt lat="45.1000309" lon="11.662938"><ele>8.0</ele><time>2026-04-12T08:14:26.536Z</time></trkpt><trkpt lat="45.1002733" lon="11.6628446"><ele>8.0</ele><time>2026-04-12T08:14:44.616Z</time></trkpt><trkpt lat="45.1001923" lon="11.6630859"><ele>8.0</ele><time>2026-04-12T08:15:03.541Z</time></trkpt><trkpt lat="45.1002452" lon="11.6631449"><ele>8.0</ele><time>2026-04-12T08:15:13.531Z</time></trkpt><trkpt lat="45.1002651" lon="11.6632532"><ele>8.0</ele><time>2026-04-12T08:15:16.528Z</time></trkpt><trkpt lat="45.10009" lon="11.6634618"><ele>8.0</ele><time>2026-04-12T08:15:18.532Z</time></trkpt><trkpt lat="45.099973" lon="11.6635548"><ele>8.0</ele><time>2026-04-12T08:15:27.268Z</time></trkpt><trkpt lat="45.1001355" lon="11.6627713"><ele>8.0</ele><time>2026-04-12T08:15:32.878Z</time></trkpt><trkpt lat="45.1001914" lon="11.6634661"><ele>7.999999999999999</ele><time>2026-04-12T08:15:34.55Z</time></trkpt><trkpt lat="45.1002126" lon="11.6635921"><ele>8.0</ele><time>2026-04-12T08:15:35.546Z</time></trkpt><trkpt lat="45.1002491" lon="11.6636767"><ele>8.0</ele><time>2026-04-12T08:15:36.556Z</time></trkpt><trkpt lat="45.1002723" lon="11.6637806"><ele>8.0</ele><time>2026-04-12T08:15:37.55Z</time></trkpt><trkpt lat="45.100288" lon="11.6638951"><ele>7.999999999999999</ele><time>2026-04-12T08:15:38.556Z</time></trkpt><trkpt lat="45.1002981" lon="11.6640051"><ele>8.0</ele><time>2026-04-12T08:15:39.557Z</time></trkpt><trkpt lat="45.1003184" lon="11.6643301"><ele>8.0</ele><time>2026-04-12T08:15:42.549Z</time></trkpt><trkpt lat="45.10031" lon="11.6644186"><ele>8.0</ele><time>2026-04-12T08:15:43.552Z</time></trkpt><trkpt lat="45.100275" lon="11.6645693"><ele>8.0</ele><time>2026-04-12T08:15:45.533Z</time></trkpt><trkpt lat="45.1002433" lon="11.6647071"><ele>8.0</ele><time>2026-04-12T08:15:47.549Z</time></trkpt><trkpt lat="45.1001984" lon="11.6632165"><ele>8.0</ele><time>2026-04-12T08:15:49.555Z</time></trkpt><trkpt lat="45.1001816" lon="11.6630072"><ele>8.0</ele><time>2026-04-12T08:15:50.552Z</time></trkpt><trkpt lat="45.1000957" lon="11.6629834"><ele>8.0</ele><time>2026-04-12T08:15:54.558Z</time></trkpt><trkpt lat="45.1000036" lon="11.6629246"><ele>8.0</ele><time>2026-04-12T08:15:58.548Z</time></trkpt><trkpt lat="45.0999483" lon="11.6628429"><ele>8.0</ele><time>2026-04-12T08:16:00.556Z</time></trkpt><trkpt lat="45.0998795" lon="11.6627976"><ele>8.0</ele><time>2026-04-12T08:16:02.556Z</time></trkpt><trkpt lat="45.099804" lon="11.6627505"><ele>8.0</ele><time>2026-04-12T08:16:05.554Z</time></trkpt><trkpt lat="45.0997215" lon="11.6627278"><ele>8.0</ele><time>2026-04-12T08:16:08.56Z</time></trkpt><trkpt lat="45.0998528" lon="11.6627493"><ele>8.0</ele><time>2026-04-12T08:16:10.544Z</time></trkpt><trkpt lat="45.1000225" lon="11.6628397"><ele>7.999999999999999</ele><time>2026-04-12T08:16:11.559Z</time></trkpt><trkpt lat="45.1001317" lon="11.6629109"><ele>8.0</ele><time>2026-04-12T08:16:12.549Z</time></trkpt><trkpt lat="45.100194" lon="11.6629495"><ele>8.0</ele><time>2026-04-12T08:16:13.544Z</time></trkpt><trkpt lat="45.1002543" lon="11.6629975"><ele>8.0</ele><time>2026-04-12T08:16:18.553Z</time></trkpt><trkpt lat="45.1003195" lon="11.663055"><ele>7.999999999999999</ele><time>2026-04-12T08:16:22.552Z</time></trkpt><trkpt lat="45.100372" lon="11.6631087"><ele>8.0</ele><time>2026-04-12T08:16:30.556Z</time></trkpt><trkpt lat="45.100406" lon="11.6632445"><ele>8.0</ele><time>2026-04-12T08:16:37.548Z</time></trkpt><trkpt lat="45.1004533" lon="11.663372"><ele>8.0</ele><time>2026-04-12T08:16:40.561Z</time></trkpt><trkpt lat="45.1005061" lon="11.6634894"><ele>8.0</ele><time>2026-04-12T08:16:42.549Z</time></trkpt><trkpt lat="45.1005187" lon="11.6635927"><ele>8.0</ele><time>2026-04-12T08:16:44.552Z</time></trkpt><trkpt lat="45.1005581" lon="11.6637522"><ele>8.0</ele><time>2026-04-12T08:16:54.012Z</time></trkpt><trkpt lat="45.1003033" lon="11.6628292"><ele>8.0</ele><time>2026-04-12T08:17:00.481Z</time></trkpt><trkpt lat="45.1001537" lon="11.6627722"><ele>8.0</ele><time>2026-04-12T08:17:06.882Z</time></trkpt><trkpt lat="45.1004587" lon="11.6627864"><ele>8.0</ele><time>2026-04-12T08:17:13.335Z</time></trkpt><trkpt lat="45.1002068" lon="11.6631999"><ele>8.0</ele><time>2026-04-12T08:17:15.555Z</time></trkpt><trkpt lat="45.100108" lon="11.6628935"><ele>8.0</ele><time>2026-04-12T08:17:33.313Z</time></trkpt><trkpt lat="45.1001085" lon="11.6627249"><ele>8.0</ele><time>2026-04-12T08:17:38.933Z</time></trkpt><trkpt lat="45.1001659" lon="11.6631411"><ele>8.0</ele><time>2026-04-12T08:18:49.838Z</time></trkpt><trkpt lat="45.1002482" lon="11.6633151"><ele>8.0</ele><time>2026-04-12T08:18:55.98Z</time></trkpt><trkpt lat="45.100235" lon="11.6628409"><ele>8.0</ele><time>2026-04-12T08:19:06.56Z</time></trkpt><trkpt lat="45.1003163" lon="11.6627876"><ele>8.0</ele><time>2026-04-12T08:19:08.566Z</time></trkpt><trkpt lat="45.1002341" lon="11.6628201"><ele>7.999999999999999</ele><time>2026-04-12T08:19:37.559Z</time></trkpt><trkpt lat="45.1002107" lon="11.6629114"><ele>8.0</ele><time>2026-04-12T08:19:40.563Z</time></trkpt><trkpt lat="45.1001983" lon="11.6630283"><ele>8.0</ele><time>2026-04-12T08:19:43.551Z</time></trkpt><trkpt lat="45.1001833" lon="11.663125"><ele>8.0</ele><time>2026-04-12T08:19:45.558Z</time></trkpt><trkpt lat="45.1002067" lon="11.6632233"><ele>7.999999999999999</ele><time>2026-04-12T08:19:47.583Z</time></trkpt><trkpt lat="45.1001583" lon="11.6633167"><ele>8.0</ele><time>2026-04-12T08:19:49.56Z</time></trkpt><trkpt lat="45.1000517" lon="11.6633783"><ele>8.0</ele><time>2026-04-12T08:19:51.528Z</time></trkpt><trkpt lat="45.0999883" lon="11.663395"><ele>8.0</ele><time>2026-04-12T08:19:52.615Z</time></trkpt><trkpt lat="45.0999083" lon="11.663475"><ele>8.0</ele><time>2026-04-12T08:19:54.532Z</time></trkpt><trkpt lat="45.0998117" lon="11.663515"><ele>8.0</ele><time>2026-04-12T08:19:56.561Z</time></trkpt><trkpt lat="45.0997167" lon="11.6635833"><ele>8.0</ele><time>2026-04-12T08:19:58.559Z</time></trkpt><trkpt lat="45.0996283" lon="11.6636533"><ele>8.0</ele><time>2026-04-12T08:20:00.56Z</time></trkpt><trkpt lat="45.0995383" lon="11.663715"><ele>8.0</ele><time>2026-04-12T08:20:02.562Z</time></trkpt><trkpt lat="45.09943" lon="11.663775"><ele>8.0</ele><time>2026-04-12T08:20:04.554Z</time></trkpt><trkpt lat="45.0993233" lon="11.6638517"><ele>8.0</ele><time>2026-04-12T08:20:06.551Z</time></trkpt><trkpt lat="45.0992233" lon="11.6639317"><ele>8.0</ele><time>2026-04-12T08:20:08.567Z</time></trkpt><trkpt lat="45.0991283" lon="11.66401"><ele>8.0</ele><time>2026-04-12T08:20:10.561Z</time></trkpt><trkpt lat="45.0990267" lon="11.664085"><ele>8.0</ele><time>2026-04-12T08:20:12.56Z</time></trkpt><trkpt lat="45.0989283" lon="11.6641617"><ele>8.0</ele><time>2026-04-12T08:20:14.54Z</time></trkpt><trkpt lat="45.0988283" lon="11.6642483"><ele>8.0</ele><time>2026-04-12T08:20:16.586Z</time></trkpt><trkpt lat="45.09873" lon="11.664325"><ele>8.0</ele><time>2026-04-12T08:20:18.622Z</time></trkpt><trkpt lat="45.098635" lon="11.6644017"><ele>8.0</ele><time>2026-04-12T08:20:20.527Z</time></trkpt><trkpt lat="45.0985767" lon="11.664455"><ele>8.0</ele><time>2026-04-12T08:20:21.54Z</time></trkpt><trkpt lat="45.0984683" lon="11.6645483"><ele>8.0</ele><time>2026-04-12T08:20:23.544Z</time></trkpt><trkpt lat="45.0984083" lon="11.6645883"><ele>7.999999999999999</ele><time>2026-04-12T08:20:24.562Z</time></trkpt><trkpt lat="45.0983517" lon="11.664635"><ele>8.0</ele><time>2026-04-12T08:20:25.575Z</time></trkpt><trkpt lat="45.0982967" lon="11.66469"><ele>8.0</ele><time>2026-04-12T08:20:26.562Z</time></trkpt><trkpt lat="45.0982417" lon="11.6647467"><ele>8.0</ele><time>2026-04-12T08:20:27.561Z</time></trkpt><trkpt lat="45.0981467" lon="11.664835"><ele>7.999999999999999</ele><time>2026-04-12T08:20:29.558Z</time></trkpt><trkpt lat="45.0980533" lon="11.6649083"><ele>8.0</ele><time>2026-04-12T08:20:31.55Z</time></trkpt><trkpt lat="45.0979583" lon="11.6649817"><ele>7.800000000000001</ele><time>2026-04-12T08:20:33.563Z</time></trkpt><trkpt lat="45.0978667" lon="11.665055"><ele>7.6000000000000005</ele><time>2026-04-12T08:20:35.541Z</time></trkpt><trkpt lat="45.09778" lon="11.665115"><ele>7.3999999999999995</ele><time>2026-04-12T08:20:37.567Z</time></trkpt><trkpt lat="45.0976967" lon="11.66517"><ele>7.199999999999999</ele><time>2026-04-12T08:20:39.565Z</time></trkpt><trkpt lat="45.097615" lon="11.66521"><ele>7.0</ele><time>2026-04-12T08:20:41.552Z</time></trkpt><trkpt lat="45.0975367" lon="11.6651917"><ele>7.0</ele><time>2026-04-12T08:20:43.55Z</time></trkpt><trkpt lat="45.0974467" lon="11.6651183"><ele>7.0</ele><time>2026-04-12T08:20:45.543Z</time></trkpt><trkpt lat="45.0973383" lon="11.6650467"><ele>7.0</ele><time>2026-04-12T08:20:47.569Z</time></trkpt><trkpt lat="45.0972317" lon="11.6649783"><ele>7.0</ele><time>2026-04-12T08:20:49.563Z</time></trkpt><trkpt lat="45.0971283" lon="11.6649067"><ele>7.0</ele><time>2026-04-12T08:20:51.564Z</time></trkpt><trkpt lat="45.0970183" lon="11.6648317"><ele>7.0</ele><time>2026-04-12T08:20:53.555Z</time></trkpt><trkpt lat="45.0969133" lon="11.6647583"><ele>7.0</ele><time>2026-04-12T08:20:55.555Z</time></trkpt><trkpt lat="45.0968167" lon="11.6646567"><ele>7.0</ele><time>2026-04-12T08:20:57.564Z</time></trkpt><trkpt lat="45.0967233" lon="11.6645617"><ele>7.0</ele><time>2026-04-12T08:20:59.563Z</time></trkpt><trkpt lat="45.0966133" lon="11.6645017"><ele>6.999999999999999</ele><time>2026-04-12T08:21:01.56Z</time></trkpt><trkpt lat="45.096495" lon="11.6644683"><ele>6.999999999999999</ele><time>2026-04-12T08:21:03.55Z</time></trkpt><trkpt lat="45.0963767" lon="11.66442"><ele>7.0</ele><time>2026-04-12T08:21:05.567Z</time></trkpt><trkpt lat="45.0963167" lon="11.6643883"><ele>7.0</ele><time>2026-04-12T08:21:06.562Z</time></trkpt><trkpt lat="45.0962567" lon="11.664355"><ele>6.714285714285714</ele><time>2026-04-12T08:21:07.565Z</time></trkpt><trkpt lat="45.096195" lon="11.6643167"><ele>6.428571428571429</ele><time>2026-04-12T08:21:08.56Z</time></trkpt><trkpt lat="45.0961367" lon="11.6642733"><ele>6.142857142857142</ele><time>2026-04-12T08:21:09.563Z</time></trkpt><trkpt lat="45.0960783" lon="11.6642283"><ele>5.857142857142858</ele><time>2026-04-12T08:21:10.565Z</time></trkpt><trkpt lat="45.09602" lon="11.6641833"><ele>5.571428571428571</ele><time>2026-04-12T08:21:11.547Z</time></trkpt><trkpt lat="45.0959617" lon="11.6641383"><ele>5.285714285714286</ele><time>2026-04-12T08:21:12.554Z</time></trkpt><trkpt lat="45.0959033" lon="11.6640933"><ele>5.0</ele><time>2026-04-12T08:21:13.564Z</time></trkpt><trkpt lat="45.095845" lon="11.66405"><ele>5.0</ele><time>2026-04-12T08:21:14.546Z</time></trkpt><trkpt lat="45.095785" lon="11.6640083"><ele>5.0</ele><time>2026-04-12T08:21:15.559Z</time></trkpt><trkpt lat="45.095725" lon="11.6639683"><ele>5.0</ele><time>2026-04-12T08:21:16.57Z</time></trkpt><trkpt lat="45.0956633" lon="11.6639233"><ele>5.0</ele><time>2026-04-12T08:21:17.569Z</time></trkpt><trkpt lat="45.0956017" lon="11.6638783"><ele>5.0</ele><time>2026-04-12T08:21:18.572Z</time></trkpt><trkpt lat="45.0955417" lon="11.66383"><ele>5.0</ele><time>2026-04-12T08:21:19.571Z</time></trkpt><trkpt lat="45.0954783" lon="11.6637883"><ele>5.0</ele><time>2026-04-12T08:21:20.571Z</time></trkpt><trkpt lat="45.0954117" lon="11.6637483"><ele>4.857142857142857</ele><time>2026-04-12T08:21:21.555Z</time></trkpt><trkpt lat="45.0953467" lon="11.6637083"><ele>4.714285714285714</ele><time>2026-04-12T08:21:22.553Z</time></trkpt><trkpt lat="45.09528" lon="11.66367"><ele>4.571428571428571</ele><time>2026-04-12T08:21:23.563Z</time></trkpt><trkpt lat="45.095215" lon="11.6636283"><ele>4.428571428571429</ele><time>2026-04-12T08:21:24.55Z</time></trkpt><trkpt lat="45.0951517" lon="11.6635867"><ele>4.285714285714286</ele><time>2026-04-12T08:21:25.567Z</time></trkpt><trkpt lat="45.0950883" lon="11.6635433"><ele>4.142857142857142</ele><time>2026-04-12T08:21:26.571Z</time></trkpt><trkpt lat="45.0950283" lon="11.6634983"><ele>4.0</ele><time>2026-04-12T08:21:27.537Z</time></trkpt><trkpt lat="45.094965" lon="11.6634583"><ele>4.142857142857142</ele><time>2026-04-12T08:21:28.564Z</time></trkpt><trkpt lat="45.094905" lon="11.663415"><ele>4.285714285714286</ele><time>2026-04-12T08:21:29.57Z</time></trkpt><trkpt lat="45.0948483" lon="11.6633667"><ele>4.428571428571429</ele><time>2026-04-12T08:21:30.561Z</time></trkpt><trkpt lat="45.0947917" lon="11.66332"><ele>4.571428571428571</ele><time>2026-04-12T08:21:31.549Z</time></trkpt><trkpt lat="45.09473" lon="11.6632783"><ele>4.714285714285714</ele><time>2026-04-12T08:21:32.568Z</time></trkpt><trkpt lat="45.0946667" lon="11.6632333"><ele>4.857142857142857</ele><time>2026-04-12T08:21:33.564Z</time></trkpt><trkpt lat="45.0946017" lon="11.6631933"><ele>5.0</ele><time>2026-04-12T08:21:34.562Z</time></trkpt><trkpt lat="45.0945383" lon="11.66315"><ele>5.0</ele><time>2026-04-12T08:21:35.559Z</time></trkpt><trkpt lat="45.09448" lon="11.663105"><ele>5.0</ele><time>2026-04-12T08:21:36.567Z</time></trkpt><trkpt lat="45.09442" lon="11.66306"><ele>5.0</ele><time>2026-04-12T08:21:37.538Z</time></trkpt><trkpt lat="45.09436" lon="11.6630167"><ele>5.0</ele><time>2026-04-12T08:21:38.571Z</time></trkpt><trkpt lat="45.0943" lon="11.662975"><ele>5.0</ele><time>2026-04-12T08:21:39.573Z</time></trkpt><trkpt lat="45.09424" lon="11.6629333"><ele>5.0</ele><time>2026-04-12T08:21:40.571Z</time></trkpt><trkpt lat="45.0941783" lon="11.6628917"><ele>5.0</ele><time>2026-04-12T08:21:41.544Z</time></trkpt><trkpt lat="45.0941167" lon="11.6628533"><ele>5.0</ele><time>2026-04-12T08:21:42.542Z</time></trkpt><trkpt lat="45.094055" lon="11.6628117"><ele>5.0</ele><time>2026-04-12T08:21:43.566Z</time></trkpt><trkpt lat="45.0939933" lon="11.6627683"><ele>5.0</ele><time>2026-04-12T08:21:44.566Z</time></trkpt><trkpt lat="45.0939333" lon="11.6627267"><ele>5.0</ele><time>2026-04-12T08:21:45.566Z</time></trkpt><trkpt lat="45.0938733" lon="11.6626867"><ele>5.0</ele><time>2026-04-12T08:21:46.563Z</time></trkpt><trkpt lat="45.093815" lon="11.6626467"><ele>5.0</ele><time>2026-04-12T08:21:47.562Z</time></trkpt><trkpt lat="45.0937567" lon="11.662605"><ele>5.0</ele><time>2026-04-12T08:21:48.566Z</time></trkpt><trkpt lat="45.0936983" lon="11.6625617"><ele>5.0</ele><time>2026-04-12T08:21:49.567Z</time></trkpt><trkpt lat="45.0936383" lon="11.6625167"><ele>5.0</ele><time>2026-04-12T08:21:50.569Z</time></trkpt><trkpt lat="45.0935767" lon="11.6624733"><ele>5.0</ele><time>2026-04-12T08:21:51.552Z</time></trkpt><trkpt lat="45.0935133" lon="11.6624283"><ele>5.0</ele><time>2026-04-12T08:21:52.536Z</time></trkpt><trkpt lat="45.0934483" lon="11.66238"><ele>5.0</ele><time>2026-04-12T08:21:53.56Z</time></trkpt><trkpt lat="45.0933833" lon="11.662335"><ele>5.0</ele><time>2026-04-12T08:21:54.554Z</time></trkpt><trkpt lat="45.0933183" lon="11.6622933"><ele>5.0</ele><time>2026-04-12T08:21:55.57Z</time></trkpt><trkpt lat="45.093255" lon="11.6622533"><ele>4.571428571428571</ele><time>2026-04-12T08:21:56.572Z</time></trkpt><trkpt lat="45.0931933" lon="11.6622117"><ele>4.142857142857143</ele><time>2026-04-12T08:21:57.572Z</time></trkpt><trkpt lat="45.0931317" lon="11.6621717"><ele>3.7142857142857144</ele><time>2026-04-12T08:21:58.572Z</time></trkpt><trkpt lat="45.0930717" lon="11.662135"><ele>3.2857142857142856</ele><time>2026-04-12T08:21:59.565Z</time></trkpt><trkpt lat="45.0930117" lon="11.662095"><ele>2.8571428571428568</ele><time>2026-04-12T08:22:00.56Z</time></trkpt><trkpt lat="45.0929483" lon="11.6620533"><ele>2.4285714285714284</ele><time>2026-04-12T08:22:01.554Z</time></trkpt><trkpt lat="45.0928883" lon="11.6620117"><ele>2.0</ele><time>2026-04-12T08:22:02.548Z</time></trkpt><trkpt lat="45.0928267" lon="11.6619683"><ele>2.333333333333333</ele><time>2026-04-12T08:22:03.547Z</time></trkpt><trkpt lat="45.092765" lon="11.661925"><ele>2.6666666666666665</ele><time>2026-04-12T08:22:04.565Z</time></trkpt><trkpt lat="45.0926483" lon="11.6618467"><ele>3.0</ele><time>2026-04-12T08:22:06.557Z</time></trkpt><trkpt lat="45.09259" lon="11.6618067"><ele>3.333333333333333</ele><time>2026-04-12T08:22:07.564Z</time></trkpt><trkpt lat="45.0925317" lon="11.6617633"><ele>3.6666666666666665</ele><time>2026-04-12T08:22:08.565Z</time></trkpt><trkpt lat="45.0924717" lon="11.6617167"><ele>4.0</ele><time>2026-04-12T08:22:09.572Z</time></trkpt><trkpt lat="45.0924133" lon="11.661675"><ele>4.0</ele><time>2026-04-12T08:22:10.572Z</time></trkpt><trkpt lat="45.092355" lon="11.66163"><ele>3.9999999999999996</ele><time>2026-04-12T08:22:11.571Z</time></trkpt><trkpt lat="45.092295" lon="11.661585"><ele>4.0</ele><time>2026-04-12T08:22:12.559Z</time></trkpt><trkpt lat="45.0922333" lon="11.6615383"><ele>4.0</ele><time>2026-04-12T08:22:13.564Z</time></trkpt><trkpt lat="45.0921717" lon="11.6614983"><ele>3.9999999999999996</ele><time>2026-04-12T08:22:14.566Z</time></trkpt><trkpt lat="45.0921117" lon="11.661455"><ele>4.0</ele><time>2026-04-12T08:22:15.566Z</time></trkpt><trkpt lat="45.0920517" lon="11.6614133"><ele>4.0</ele><time>2026-04-12T08:22:16.563Z</time></trkpt><trkpt lat="45.0919917" lon="11.66137"><ele>4.0</ele><time>2026-04-12T08:22:17.567Z</time></trkpt><trkpt lat="45.0919283" lon="11.6613283"><ele>3.9999999999999996</ele><time>2026-04-12T08:22:18.535Z</time></trkpt><trkpt lat="45.091865" lon="11.661285"><ele>4.0</ele><time>2026-04-12T08:22:19.543Z</time></trkpt><trkpt lat="45.0918" lon="11.66124"><ele>4.0</ele><time>2026-04-12T08:22:20.557Z</time></trkpt><trkpt lat="45.0917367" lon="11.6611967"><ele>3.9999999999999996</ele><time>2026-04-12T08:22:21.567Z</time></trkpt><trkpt lat="45.091675" lon="11.661155"><ele>4.0</ele><time>2026-04-12T08:22:22.636Z</time></trkpt><trkpt lat="45.0916117" lon="11.6611117"><ele>4.0</ele><time>2026-04-12T08:22:23.567Z</time></trkpt><trkpt lat="45.09155" lon="11.6610667"><ele>4.166666666666666</ele><time>2026-04-12T08:22:24.544Z</time></trkpt><trkpt lat="45.0914883" lon="11.6610233"><ele>4.333333333333333</ele><time>2026-04-12T08:22:25.564Z</time></trkpt><trkpt lat="45.091425" lon="11.6609767"><ele>4.5</ele><time>2026-04-12T08:22:26.56Z</time></trkpt><trkpt lat="45.0913617" lon="11.6609333"><ele>4.666666666666667</ele><time>2026-04-12T08:22:27.565Z</time></trkpt><trkpt lat="45.0913" lon="11.6608833"><ele>4.833333333333334</ele><time>2026-04-12T08:22:28.572Z</time></trkpt><trkpt lat="45.0912383" lon="11.6608333"><ele>5.0</ele><time>2026-04-12T08:22:29.579Z</time></trkpt><trkpt lat="45.0911167" lon="11.6607617"><ele>5.0</ele><time>2026-04-12T08:22:31.536Z</time></trkpt><trkpt lat="45.091055" lon="11.6607183"><ele>5.0</ele><time>2026-04-12T08:22:32.537Z</time></trkpt><trkpt lat="45.0909867" lon="11.6606733"><ele>5.0</ele><time>2026-04-12T08:22:33.538Z</time></trkpt><trkpt lat="45.090925" lon="11.660625"><ele>5.0</ele><time>2026-04-12T08:22:34.532Z</time></trkpt><trkpt lat="45.0908683" lon="11.6605833"><ele>5.0</ele><time>2026-04-12T08:22:35.539Z</time></trkpt><trkpt lat="45.0908083" lon="11.660545"><ele>5.0</ele><time>2026-04-12T08:22:36.55Z</time></trkpt><trkpt lat="45.090745" lon="11.6605033"><ele>5.0</ele><time>2026-04-12T08:22:37.553Z</time></trkpt><trkpt lat="45.090685" lon="11.660465"><ele>5.0</ele><time>2026-04-12T08:22:38.533Z</time></trkpt><trkpt lat="45.0906233" lon="11.660425"><ele>5.0</ele><time>2026-04-12T08:22:39.551Z</time></trkpt><trkpt lat="45.0905617" lon="11.660385"><ele>5.0</ele><time>2026-04-12T08:22:40.551Z</time></trkpt><trkpt lat="45.0904967" lon="11.6603433"><ele>5.0</ele><time>2026-04-12T08:22:41.546Z</time></trkpt><trkpt lat="45.0904317" lon="11.6603"><ele>5.0</ele><time>2026-04-12T08:22:42.549Z</time></trkpt><trkpt lat="45.0903667" lon="11.6602617"><ele>5.0</ele><time>2026-04-12T08:22:43.548Z</time></trkpt><trkpt lat="45.0903067" lon="11.660225"><ele>5.0</ele><time>2026-04-12T08:22:44.539Z</time></trkpt><trkpt lat="45.090245" lon="11.6601883"><ele>5.0</ele><time>2026-04-12T08:22:45.533Z</time></trkpt><trkpt lat="45.0901833" lon="11.6601567"><ele>5.0</ele><time>2026-04-12T08:22:46.543Z</time></trkpt><trkpt lat="45.0901217" lon="11.6601283"><ele>5.0</ele><time>2026-04-12T08:22:47.543Z</time></trkpt><trkpt lat="45.0900567" lon="11.6601"><ele>5.0</ele><time>2026-04-12T08:22:48.543Z</time></trkpt><trkpt lat="45.0899917" lon="11.6600783"><ele>5.0</ele><time>2026-04-12T08:22:49.547Z</time></trkpt><trkpt lat="45.089925" lon="11.6600567"><ele>5.0</ele><time>2026-04-12T08:22:50.537Z</time></trkpt><trkpt lat="45.0898617" lon="11.660035"><ele>5.0</ele><time>2026-04-12T08:22:51.539Z</time></trkpt><trkpt lat="45.0897967" lon="11.660015"><ele>5.0</ele><time>2026-04-12T08:22:52.55Z</time></trkpt><trkpt lat="45.08973" lon="11.6599917"><ele>5.0</ele><time>2026-04-12T08:22:53.568Z</time></trkpt><trkpt lat="45.0896017" lon="11.6599683"><ele>5.0</ele><time>2026-04-12T08:22:55.542Z</time></trkpt><trkpt lat="45.0895333" lon="11.659955"><ele>5.0</ele><time>2026-04-12T08:22:56.565Z</time></trkpt><trkpt lat="45.0894633" lon="11.6599433"><ele>5.0</ele><time>2026-04-12T08:22:57.555Z</time></trkpt><trkpt lat="45.0893917" lon="11.659935"><ele>5.0</ele><time>2026-04-12T08:22:58.563Z</time></trkpt><trkpt lat="45.08932" lon="11.6599283"><ele>5.0</ele><time>2026-04-12T08:22:59.573Z</time></trkpt><trkpt lat="45.0892483" lon="11.6599217"><ele>5.0</ele><time>2026-04-12T08:23:00.565Z</time></trkpt><trkpt lat="45.0891767" lon="11.659915"><ele>5.0</ele><time>2026-04-12T08:23:01.574Z</time></trkpt><trkpt lat="45.0891017" lon="11.6599083"><ele>5.0</ele><time>2026-04-12T08:23:02.565Z</time></trkpt><trkpt lat="45.0890317" lon="11.6599033"><ele>5.0</ele><time>2026-04-12T08:23:03.564Z</time></trkpt><trkpt lat="45.08896" lon="11.6599017"><ele>5.0</ele><time>2026-04-12T08:23:04.573Z</time></trkpt><trkpt lat="45.0888917" lon="11.6599"><ele>5.0</ele><time>2026-04-12T08:23:05.566Z</time></trkpt><trkpt lat="45.088825" lon="11.6598983"><ele>4.857142857142857</ele><time>2026-04-12T08:23:06.56Z</time></trkpt><trkpt lat="45.08876" lon="11.6598983"><ele>4.714285714285714</ele><time>2026-04-12T08:23:07.547Z</time></trkpt><trkpt lat="45.088695" lon="11.6598967"><ele>4.571428571428571</ele><time>2026-04-12T08:23:08.572Z</time></trkpt><trkpt lat="45.0886283" lon="11.6598933"><ele>4.428571428571429</ele><time>2026-04-12T08:23:09.569Z</time></trkpt><trkpt lat="45.0885633" lon="11.65989"><ele>4.285714285714286</ele><time>2026-04-12T08:23:10.57Z</time></trkpt><trkpt lat="45.088495" lon="11.65989"><ele>4.142857142857142</ele><time>2026-04-12T08:23:11.563Z</time></trkpt><trkpt lat="45.0884267" lon="11.6598883"><ele>4.0</ele><time>2026-04-12T08:23:12.565Z</time></trkpt><trkpt lat="45.08836" lon="11.65989"><ele>4.0</ele><time>2026-04-12T08:23:13.561Z</time></trkpt><trkpt lat="45.0882917" lon="11.65989"><ele>3.9999999999999996</ele><time>2026-04-12T08:23:14.565Z</time></trkpt><trkpt lat="45.088225" lon="11.659885"><ele>4.0</ele><time>2026-04-12T08:23:15.575Z</time></trkpt><trkpt lat="45.0881567" lon="11.6598817"><ele>4.0</ele><time>2026-04-12T08:23:16.565Z</time></trkpt><trkpt lat="45.08809" lon="11.65988"><ele>3.9999999999999996</ele><time>2026-04-12T08:23:17.602Z</time></trkpt><trkpt lat="45.0880233" lon="11.659875"><ele>4.0</ele><time>2026-04-12T08:23:18.532Z</time></trkpt><trkpt lat="45.087955" lon="11.65988"><ele>4.0</ele><time>2026-04-12T08:23:19.532Z</time></trkpt><trkpt lat="45.087885" lon="11.6598833"><ele>4.166666666666666</ele><time>2026-04-12T08:23:20.532Z</time></trkpt><trkpt lat="45.0878117" lon="11.659885"><ele>4.333333333333333</ele><time>2026-04-12T08:23:21.538Z</time></trkpt><trkpt lat="45.0877383" lon="11.6598833"><ele>4.5</ele><time>2026-04-12T08:23:22.532Z</time></trkpt><trkpt lat="45.087675" lon="11.65988"><ele>4.666666666666667</ele><time>2026-04-12T08:23:23.547Z</time></trkpt><trkpt lat="45.08755" lon="11.6598717"><ele>4.833333333333334</ele><time>2026-04-12T08:23:25.553Z</time></trkpt><trkpt lat="45.0874833" lon="11.6598683"><ele>5.0</ele><time>2026-04-12T08:23:26.541Z</time></trkpt><trkpt lat="45.0874183" lon="11.6598633"><ele>5.0</ele><time>2026-04-12T08:23:27.548Z</time></trkpt><trkpt lat="45.087355" lon="11.6598583"><ele>5.0</ele><time>2026-04-12T08:23:28.553Z</time></trkpt><trkpt lat="45.0872867" lon="11.6598533"><ele>5.0</ele><time>2026-04-12T08:23:29.539Z</time></trkpt><trkpt lat="45.0872167" lon="11.6598467"><ele>5.0</ele><time>2026-04-12T08:23:30.548Z</time></trkpt><trkpt lat="45.08715" lon="11.659845"><ele>5.0</ele><time>2026-04-12T08:23:31.565Z</time></trkpt><trkpt lat="45.0870667" lon="11.6598533"><ele>5.0</ele><time>2026-04-12T08:23:32.566Z</time></trkpt><trkpt lat="45.0869917" lon="11.65986"><ele>5.0</ele><time>2026-04-12T08:23:33.562Z</time></trkpt><trkpt lat="45.0869283" lon="11.65985"><ele>5.0</ele><time>2026-04-12T08:23:34.571Z</time></trkpt><trkpt lat="45.0868633" lon="11.6598417"><ele>5.0</ele><time>2026-04-12T08:23:35.562Z</time></trkpt><trkpt lat="45.0868" lon="11.65984"><ele>5.0</ele><time>2026-04-12T08:23:36.55Z</time></trkpt><trkpt lat="45.0867367" lon="11.6598383"><ele>5.0</ele><time>2026-04-12T08:23:37.557Z</time></trkpt><trkpt lat="45.08667" lon="11.6598317"><ele>5.0</ele><time>2026-04-12T08:23:38.596Z</time></trkpt><trkpt lat="45.0866017" lon="11.65983"><ele>5.0</ele><time>2026-04-12T08:23:39.575Z</time></trkpt><trkpt lat="45.0865283" lon="11.6598233"><ele>5.0</ele><time>2026-04-12T08:23:40.52Z</time></trkpt><trkpt lat="45.08646" lon="11.6598183"><ele>4.857142857142857</ele><time>2026-04-12T08:23:41.526Z</time></trkpt><trkpt lat="45.0863967" lon="11.6598133"><ele>4.714285714285714</ele><time>2026-04-12T08:23:42.542Z</time></trkpt><trkpt lat="45.0863333" lon="11.659815"><ele>4.571428571428571</ele><time>2026-04-12T08:23:43.53Z</time></trkpt><trkpt lat="45.0862083" lon="11.6598167"><ele>4.428571428571429</ele><time>2026-04-12T08:23:45.531Z</time></trkpt><trkpt lat="45.0861433" lon="11.6598133"><ele>4.285714285714286</ele><time>2026-04-12T08:23:46.531Z</time></trkpt><trkpt lat="45.0860783" lon="11.659815"><ele>4.142857142857142</ele><time>2026-04-12T08:23:47.529Z</time></trkpt><trkpt lat="45.0860117" lon="11.659815"><ele>4.0</ele><time>2026-04-12T08:23:48.532Z</time></trkpt><trkpt lat="45.085945" lon="11.6598117"><ele>4.0</ele><time>2026-04-12T08:23:49.537Z</time></trkpt><trkpt lat="45.0858767" lon="11.65981"><ele>3.9999999999999996</ele><time>2026-04-12T08:23:50.526Z</time></trkpt><trkpt lat="45.08581" lon="11.6598083"><ele>4.0</ele><time>2026-04-12T08:23:51.536Z</time></trkpt><trkpt lat="45.085745" lon="11.6598067"><ele>4.0</ele><time>2026-04-12T08:23:52.545Z</time></trkpt><trkpt lat="45.0856783" lon="11.6598083"><ele>3.9999999999999996</ele><time>2026-04-12T08:23:53.544Z</time></trkpt><trkpt lat="45.0856133" lon="11.6598033"><ele>4.0</ele><time>2026-04-12T08:23:54.545Z</time></trkpt><trkpt lat="45.0855467" lon="11.6598"><ele>4.0</ele><time>2026-04-12T08:23:55.544Z</time></trkpt><trkpt lat="45.0854817" lon="11.6597983"><ele>4.142857142857142</ele><time>2026-04-12T08:23:56.55Z</time></trkpt><trkpt lat="45.085415" lon="11.659795"><ele>4.285714285714286</ele><time>2026-04-12T08:23:57.552Z</time></trkpt><trkpt lat="45.0853483" lon="11.65979"><ele>4.428571428571429</ele><time>2026-04-12T08:23:58.537Z</time></trkpt><trkpt lat="45.0852783" lon="11.6597883"><ele>4.571428571428571</ele><time>2026-04-12T08:23:59.544Z</time></trkpt><trkpt lat="45.08521" lon="11.65978"><ele>4.714285714285714</ele><time>2026-04-12T08:24:00.539Z</time></trkpt><trkpt lat="45.08514" lon="11.6597817"><ele>4.857142857142857</ele><time>2026-04-12T08:24:01.573Z</time></trkpt><trkpt lat="45.0850667" lon="11.65978"><ele>5.0</ele><time>2026-04-12T08:24:02.562Z</time></trkpt><trkpt lat="45.0849967" lon="11.659785"><ele>5.0</ele><time>2026-04-12T08:24:03.567Z</time></trkpt><trkpt lat="45.0849317" lon="11.6598017"><ele>5.0</ele><time>2026-04-12T08:24:04.564Z</time></trkpt><trkpt lat="45.0848667" lon="11.65982"><ele>5.0</ele><time>2026-04-12T08:24:05.541Z</time></trkpt><trkpt lat="45.0848" lon="11.65984"><ele>5.0</ele><time>2026-04-12T08:24:06.592Z</time></trkpt><trkpt lat="45.084735" lon="11.6598617"><ele>5.0</ele><time>2026-04-12T08:24:07.587Z</time></trkpt><trkpt lat="45.08467" lon="11.6598817"><ele>5.0</ele><time>2026-04-12T08:24:08.587Z</time></trkpt><trkpt lat="45.084605" lon="11.6599017"><ele>5.0</ele><time>2026-04-12T08:24:09.535Z</time></trkpt><trkpt lat="45.08454" lon="11.6599267"><ele>4.666666666666667</ele><time>2026-04-12T08:24:10.535Z</time></trkpt><trkpt lat="45.0844767" lon="11.6599517"><ele>4.333333333333334</ele><time>2026-04-12T08:24:11.538Z</time></trkpt><trkpt lat="45.0843583" lon="11.6599917"><ele>4.0</ele><time>2026-04-12T08:24:13.551Z</time></trkpt><trkpt lat="45.08423" lon="11.66003"><ele>3.666666666666667</ele><time>2026-04-12T08:24:15.553Z</time></trkpt><trkpt lat="45.0841667" lon="11.6600517"><ele>3.3333333333333335</ele><time>2026-04-12T08:24:16.551Z</time></trkpt><trkpt lat="45.0841033" lon="11.6600733"><ele>3.0</ele><time>2026-04-12T08:24:17.609Z</time></trkpt><trkpt lat="45.084035" lon="11.6600917"><ele>2.9999999999999996</ele><time>2026-04-12T08:24:18.538Z</time></trkpt><trkpt lat="45.0839683" lon="11.6601133"><ele>3.0</ele><time>2026-04-12T08:24:19.592Z</time></trkpt><trkpt lat="45.0839033" lon="11.660135"><ele>3.0</ele><time>2026-04-12T08:24:20.579Z</time></trkpt><trkpt lat="45.0838367" lon="11.6601633"><ele>3.0</ele><time>2026-04-12T08:24:21.528Z</time></trkpt><trkpt lat="45.0837717" lon="11.6601867"><ele>3.0</ele><time>2026-04-12T08:24:22.548Z</time></trkpt><trkpt lat="45.083705" lon="11.6602033"><ele>2.9999999999999996</ele><time>2026-04-12T08:24:23.548Z</time></trkpt><trkpt lat="45.0836383" lon="11.6602183"><ele>3.0</ele><time>2026-04-12T08:24:24.534Z</time></trkpt><trkpt lat="45.0835717" lon="11.6602367"><ele>2.9999999999999996</ele><time>2026-04-12T08:24:25.527Z</time></trkpt><trkpt lat="45.0835033" lon="11.660255"><ele>3.0</ele><time>2026-04-12T08:24:26.548Z</time></trkpt><trkpt lat="45.0834367" lon="11.6602767"><ele>3.0</ele><time>2026-04-12T08:24:27.544Z</time></trkpt><trkpt lat="45.0833733" lon="11.6603033"><ele>3.0</ele><time>2026-04-12T08:24:28.548Z</time></trkpt><trkpt lat="45.0833083" lon="11.660325"><ele>3.0</ele><time>2026-04-12T08:24:29.532Z</time></trkpt><trkpt lat="45.083245" lon="11.6603433"><ele>2.9999999999999996</ele><time>2026-04-12T08:24:30.528Z</time></trkpt><trkpt lat="45.0831783" lon="11.6603567"><ele>3.0</ele><time>2026-04-12T08:24:31.532Z</time></trkpt><trkpt lat="45.0831117" lon="11.6603667"><ele>3.2857142857142856</ele><time>2026-04-12T08:24:32.545Z</time></trkpt><trkpt lat="45.083045" lon="11.6603767"><ele>3.571428571428571</ele><time>2026-04-12T08:24:33.539Z</time></trkpt><trkpt lat="45.0829783" lon="11.6603883"><ele>3.8571428571428568</ele><time>2026-04-12T08:24:34.549Z</time></trkpt><trkpt lat="45.0829133" lon="11.6604"><ele>4.142857142857142</ele><time>2026-04-12T08:24:35.551Z</time></trkpt><trkpt lat="45.0828467" lon="11.6604117"><ele>4.428571428571429</ele><time>2026-04-12T08:24:36.536Z</time></trkpt><trkpt lat="45.0827817" lon="11.6604233"><ele>4.714285714285714</ele><time>2026-04-12T08:24:37.549Z</time></trkpt><trkpt lat="45.082715" lon="11.66043"><ele>5.0</ele><time>2026-04-12T08:24:38.546Z</time></trkpt><trkpt lat="45.0826517" lon="11.6604333"><ele>5.0</ele><time>2026-04-12T08:24:39.561Z</time></trkpt><trkpt lat="45.0825867" lon="11.6604367"><ele>5.0</ele><time>2026-04-12T08:24:40.549Z</time></trkpt><trkpt lat="45.0825233" lon="11.66044"><ele>5.0</ele><time>2026-04-12T08:24:41.55Z</time></trkpt><trkpt lat="45.08246" lon="11.660455"><ele>5.0</ele><time>2026-04-12T08:24:42.558Z</time></trkpt><trkpt lat="45.0823933" lon="11.6604717"><ele>5.0</ele><time>2026-04-12T08:24:43.559Z</time></trkpt><trkpt lat="45.0823167" lon="11.6604783"><ele>5.0</ele><time>2026-04-12T08:24:44.566Z</time></trkpt><trkpt lat="45.0822467" lon="11.66047"><ele>5.0</ele><time>2026-04-12T08:24:45.574Z</time></trkpt><trkpt lat="45.0821817" lon="11.660455"><ele>5.0</ele><time>2026-04-12T08:24:46.566Z</time></trkpt><trkpt lat="45.0821167" lon="11.6604367"><ele>5.0</ele><time>2026-04-12T08:24:47.564Z</time></trkpt><trkpt lat="45.0820483" lon="11.6604183"><ele>5.0</ele><time>2026-04-12T08:24:48.566Z</time></trkpt><trkpt lat="45.0819833" lon="11.6603967"><ele>5.0</ele><time>2026-04-12T08:24:49.564Z</time></trkpt><trkpt lat="45.0819183" lon="11.6603767"><ele>5.0</ele><time>2026-04-12T08:24:50.563Z</time></trkpt><trkpt lat="45.08185" lon="11.6603567"><ele>5.0</ele><time>2026-04-12T08:24:51.569Z</time></trkpt><trkpt lat="45.081785" lon="11.6603367"><ele>5.0</ele><time>2026-04-12T08:24:52.547Z</time></trkpt><trkpt lat="45.08172" lon="11.6603133"><ele>5.0</ele><time>2026-04-12T08:24:53.553Z</time></trkpt><trkpt lat="45.081655" lon="11.66029"><ele>5.0</ele><time>2026-04-12T08:24:54.558Z</time></trkpt><trkpt lat="45.08159" lon="11.6602683"><ele>5.0</ele><time>2026-04-12T08:24:55.57Z</time></trkpt><trkpt lat="45.0815267" lon="11.6602433"><ele>5.0</ele><time>2026-04-12T08:24:56.557Z</time></trkpt><trkpt lat="45.0814617" lon="11.660215"><ele>5.0</ele><time>2026-04-12T08:24:57.559Z</time></trkpt><trkpt lat="45.0813983" lon="11.6601883"><ele>5.0</ele><time>2026-04-12T08:24:58.566Z</time></trkpt><trkpt lat="45.081335" lon="11.66016"><ele>5.0</ele><time>2026-04-12T08:24:59.563Z</time></trkpt><trkpt lat="45.081275" lon="11.6601267"><ele>4.857142857142857</ele><time>2026-04-12T08:25:00.63Z</time></trkpt><trkpt lat="45.0812117" lon="11.660095"><ele>4.714285714285714</ele><time>2026-04-12T08:25:01.585Z</time></trkpt><trkpt lat="45.081145" lon="11.660065"><ele>4.571428571428571</ele><time>2026-04-12T08:25:02.532Z</time></trkpt><trkpt lat="45.0810817" lon="11.6600367"><ele>4.428571428571429</ele><time>2026-04-12T08:25:03.556Z</time></trkpt><trkpt lat="45.08102" lon="11.6600067"><ele>4.285714285714286</ele><time>2026-04-12T08:25:04.544Z</time></trkpt><trkpt lat="45.0809533" lon="11.6599733"><ele>4.142857142857142</ele><time>2026-04-12T08:25:05.543Z</time></trkpt><trkpt lat="45.0808917" lon="11.6599383"><ele>4.0</ele><time>2026-04-12T08:25:06.54Z</time></trkpt><trkpt lat="45.0808317" lon="11.6599067"><ele>4.0</ele><time>2026-04-12T08:25:07.538Z</time></trkpt><trkpt lat="45.08077" lon="11.6598733"><ele>3.9999999999999996</ele><time>2026-04-12T08:25:08.534Z</time></trkpt><trkpt lat="45.080705" lon="11.6598383"><ele>4.0</ele><time>2026-04-12T08:25:09.543Z</time></trkpt><trkpt lat="45.0806433" lon="11.659805"><ele>4.0</ele><time>2026-04-12T08:25:10.532Z</time></trkpt><trkpt lat="45.0805817" lon="11.65977"><ele>3.9999999999999996</ele><time>2026-04-12T08:25:11.543Z</time></trkpt><trkpt lat="45.0805217" lon="11.6597333"><ele>4.0</ele><time>2026-04-12T08:25:12.533Z</time></trkpt><trkpt lat="45.08046" lon="11.6596967"><ele>4.0</ele><time>2026-04-12T08:25:13.542Z</time></trkpt><trkpt lat="45.0803983" lon="11.659655"><ele>4.0</ele><time>2026-04-12T08:25:14.531Z</time></trkpt><trkpt lat="45.080335" lon="11.6596083"><ele>3.9999999999999996</ele><time>2026-04-12T08:25:15.546Z</time></trkpt><trkpt lat="45.0802733" lon="11.6595567"><ele>4.0</ele><time>2026-04-12T08:25:16.538Z</time></trkpt><trkpt lat="45.0802133" lon="11.659505"><ele>4.0</ele><time>2026-04-12T08:25:17.538Z</time></trkpt><trkpt lat="45.0801567" lon="11.6594517"><ele>3.9999999999999996</ele><time>2026-04-12T08:25:18.526Z</time></trkpt><trkpt lat="45.0801017" lon="11.6593967"><ele>4.0</ele><time>2026-04-12T08:25:19.547Z</time></trkpt><trkpt lat="45.0800483" lon="11.65934"><ele>4.0</ele><time>2026-04-12T08:25:20.544Z</time></trkpt><trkpt lat="45.079995" lon="11.6592833"><ele>4.0</ele><time>2026-04-12T08:25:21.548Z</time></trkpt><trkpt lat="45.0799417" lon="11.6592233"><ele>3.9999999999999996</ele><time>2026-04-12T08:25:22.543Z</time></trkpt><trkpt lat="45.0798883" lon="11.6591583"><ele>4.0</ele><time>2026-04-12T08:25:23.537Z</time></trkpt><trkpt lat="45.0798417" lon="11.6590933"><ele>4.0</ele><time>2026-04-12T08:25:24.539Z</time></trkpt><trkpt lat="45.079795" lon="11.65903"><ele>3.9999999999999996</ele><time>2026-04-12T08:25:25.546Z</time></trkpt><trkpt lat="45.0797533" lon="11.65896"><ele>4.0</ele><time>2026-04-12T08:25:26.548Z</time></trkpt><trkpt lat="45.07971" lon="11.65889"><ele>4.0</ele><time>2026-04-12T08:25:27.527Z</time></trkpt><trkpt lat="45.079665" lon="11.6588183"><ele>4.0</ele><time>2026-04-12T08:25:28.541Z</time></trkpt><trkpt lat="45.0796217" lon="11.658745"><ele>3.9999999999999996</ele><time>2026-04-12T08:25:29.548Z</time></trkpt><trkpt lat="45.0795767" lon="11.6586683"><ele>4.0</ele><time>2026-04-12T08:25:30.549Z</time></trkpt><trkpt lat="45.07953" lon="11.6585933"><ele>4.0</ele><time>2026-04-12T08:25:31.554Z</time></trkpt><trkpt lat="45.0794867" lon="11.65852"><ele>3.9999999999999996</ele><time>2026-04-12T08:25:32.549Z</time></trkpt><trkpt lat="45.0794433" lon="11.6584467"><ele>4.0</ele><time>2026-04-12T08:25:33.539Z</time></trkpt><trkpt lat="45.079405" lon="11.65837"><ele>4.0</ele><time>2026-04-12T08:25:34.625Z</time></trkpt><trkpt lat="45.079365" lon="11.658295"><ele>3.714285714285714</ele><time>2026-04-12T08:25:35.569Z</time></trkpt><trkpt lat="45.0793183" lon="11.6582267"><ele>3.428571428571428</ele><time>2026-04-12T08:25:36.536Z</time></trkpt><trkpt lat="45.079275" lon="11.6581567"><ele>3.142857142857143</ele><time>2026-04-12T08:25:37.527Z</time></trkpt><trkpt lat="45.0792333" lon="11.658085"><ele>2.8571428571428568</ele><time>2026-04-12T08:25:38.534Z</time></trkpt><trkpt lat="45.0791917" lon="11.658015"><ele>2.571428571428571</ele><time>2026-04-12T08:25:39.551Z</time></trkpt><trkpt lat="45.0791483" lon="11.6579417"><ele>2.2857142857142856</ele><time>2026-04-12T08:25:40.54Z</time></trkpt><trkpt lat="45.079105" lon="11.657865"><ele>2.0</ele><time>2026-04-12T08:25:41.541Z</time></trkpt><trkpt lat="45.079065" lon="11.657795"><ele>1.8333333333333333</ele><time>2026-04-12T08:25:42.537Z</time></trkpt><trkpt lat="45.07902" lon="11.6577217"><ele>1.6666666666666665</ele><time>2026-04-12T08:25:43.54Z</time></trkpt><trkpt lat="45.078975" lon="11.65765"><ele>1.5</ele><time>2026-04-12T08:25:44.527Z</time></trkpt><trkpt lat="45.0789317" lon="11.6575783"><ele>1.3333333333333333</ele><time>2026-04-12T08:25:45.545Z</time></trkpt><trkpt lat="45.0788517" lon="11.657435"><ele>1.1666666666666665</ele><time>2026-04-12T08:25:47.55Z</time></trkpt><trkpt lat="45.0788083" lon="11.6573567"><ele>1.0</ele><time>2026-04-12T08:25:48.547Z</time></trkpt><trkpt lat="45.0787667" lon="11.657275"><ele>1.0</ele><time>2026-04-12T08:25:49.554Z</time></trkpt><trkpt lat="45.0787217" lon="11.657195"><ele>0.9999999999999999</ele><time>2026-04-12T08:25:50.535Z</time></trkpt><trkpt lat="45.0786783" lon="11.6571217"><ele>1.0</ele><time>2026-04-12T08:25:51.546Z</time></trkpt><trkpt lat="45.0786333" lon="11.6570483"><ele>1.0</ele><time>2026-04-12T08:25:52.544Z</time></trkpt><trkpt lat="45.078585" lon="11.6569817"><ele>0.9999999999999999</ele><time>2026-04-12T08:25:53.561Z</time></trkpt><trkpt lat="45.0785383" lon="11.656915"><ele>1.0</ele><time>2026-04-12T08:25:54.534Z</time></trkpt><trkpt lat="45.0784917" lon="11.656845"><ele>1.0</ele><time>2026-04-12T08:25:55.533Z</time></trkpt><trkpt lat="45.0784483" lon="11.656775"><ele>1.1428571428571428</ele><time>2026-04-12T08:25:56.529Z</time></trkpt><trkpt lat="45.0784083" lon="11.6567033"><ele>1.2857142857142856</ele><time>2026-04-12T08:25:57.587Z</time></trkpt><trkpt lat="45.0783683" lon="11.6566267"><ele>1.4285714285714284</ele><time>2026-04-12T08:25:58.546Z</time></trkpt><trkpt lat="45.0783267" lon="11.6565517"><ele>1.5714285714285714</ele><time>2026-04-12T08:25:59.538Z</time></trkpt><trkpt lat="45.078285" lon="11.6564783"><ele>1.714285714285714</ele><time>2026-04-12T08:26:00.552Z</time></trkpt><trkpt lat="45.0782383" lon="11.6564017"><ele>1.857142857142857</ele><time>2026-04-12T08:26:01.534Z</time></trkpt><trkpt lat="45.07819" lon="11.6563317"><ele>2.0</ele><time>2026-04-12T08:26:02.55Z</time></trkpt><trkpt lat="45.0781383" lon="11.6562667"><ele>2.142857142857143</ele><time>2026-04-12T08:26:03.538Z</time></trkpt><trkpt lat="45.0780883" lon="11.6562033"><ele>2.2857142857142856</ele><time>2026-04-12T08:26:04.571Z</time></trkpt><trkpt lat="45.0780383" lon="11.6561333"><ele>2.4285714285714284</ele><time>2026-04-12T08:26:05.531Z</time></trkpt><trkpt lat="45.0779867" lon="11.656065"><ele>2.571428571428571</ele><time>2026-04-12T08:26:06.548Z</time></trkpt><trkpt lat="45.077935" lon="11.6560033"><ele>2.7142857142857144</ele><time>2026-04-12T08:26:07.534Z</time></trkpt><trkpt lat="45.0778833" lon="11.655945"><ele>2.8571428571428568</ele><time>2026-04-12T08:26:08.542Z</time></trkpt><trkpt lat="45.0778283" lon="11.6558867"><ele>3.0</ele><time>2026-04-12T08:26:09.543Z</time></trkpt><trkpt lat="45.0777717" lon="11.6558283"><ele>3.1428571428571423</ele><time>2026-04-12T08:26:10.539Z</time></trkpt><trkpt lat="45.077715" lon="11.6557717"><ele>3.2857142857142856</ele><time>2026-04-12T08:26:11.54Z</time></trkpt><trkpt lat="45.0776583" lon="11.65572"><ele>3.4285714285714284</ele><time>2026-04-12T08:26:12.531Z</time></trkpt><trkpt lat="45.0776" lon="11.65567"><ele>3.571428571428571</ele><time>2026-04-12T08:26:13.542Z</time></trkpt><trkpt lat="45.0775417" lon="11.655625"><ele>3.714285714285714</ele><time>2026-04-12T08:26:14.526Z</time></trkpt><trkpt lat="45.07748" lon="11.6555783"><ele>3.8571428571428568</ele><time>2026-04-12T08:26:15.54Z</time></trkpt><trkpt lat="45.0774217" lon="11.6555317"><ele>4.0</ele><time>2026-04-12T08:26:16.536Z</time></trkpt><trkpt lat="45.07736" lon="11.6554883"><ele>4.142857142857142</ele><time>2026-04-12T08:26:17.526Z</time></trkpt><trkpt lat="45.0772983" lon="11.6554483"><ele>4.285714285714286</ele><time>2026-04-12T08:26:18.533Z</time></trkpt><trkpt lat="45.0772367" lon="11.65541"><ele>4.428571428571429</ele><time>2026-04-12T08:26:19.537Z</time></trkpt><trkpt lat="45.0771733" lon="11.6553783"><ele>4.571428571428571</ele><time>2026-04-12T08:26:20.534Z</time></trkpt><trkpt lat="45.0771117" lon="11.655345"><ele>4.714285714285714</ele><time>2026-04-12T08:26:21.547Z</time></trkpt><trkpt lat="45.07705" lon="11.655315"><ele>4.857142857142857</ele><time>2026-04-12T08:26:22.552Z</time></trkpt><trkpt lat="45.0769883" lon="11.6552883"><ele>5.0</ele><time>2026-04-12T08:26:23.537Z</time></trkpt><trkpt lat="45.0769267" lon="11.655265"><ele>4.857142857142857</ele><time>2026-04-12T08:26:24.543Z</time></trkpt><trkpt lat="45.076865" lon="11.6552433"><ele>4.714285714285714</ele><time>2026-04-12T08:26:25.54Z</time></trkpt><trkpt lat="45.076745" lon="11.6552033"><ele>4.571428571428571</ele><time>2026-04-12T08:26:27.55Z</time></trkpt><trkpt lat="45.0766833" lon="11.655185"><ele>4.428571428571429</ele><time>2026-04-12T08:26:28.538Z</time></trkpt><trkpt lat="45.07662" lon="11.6551683"><ele>4.285714285714286</ele><time>2026-04-12T08:26:29.529Z</time></trkpt><trkpt lat="45.0765567" lon="11.6551467"><ele>4.142857142857142</ele><time>2026-04-12T08:26:30.539Z</time></trkpt><trkpt lat="45.0764917" lon="11.655125"><ele>4.0</ele><time>2026-04-12T08:26:31.527Z</time></trkpt><trkpt lat="45.0764267" lon="11.6551067"><ele>3.9999999999999996</ele><time>2026-04-12T08:26:32.54Z</time></trkpt><trkpt lat="45.0763617" lon="11.6550917"><ele>4.0</ele><time>2026-04-12T08:26:33.529Z</time></trkpt><trkpt lat="45.0762983" lon="11.6550767"><ele>4.0</ele><time>2026-04-12T08:26:34.537Z</time></trkpt><trkpt lat="45.076235" lon="11.65506"><ele>4.0</ele><time>2026-04-12T08:26:35.533Z</time></trkpt><trkpt lat="45.0761717" lon="11.6550433"><ele>3.9999999999999996</ele><time>2026-04-12T08:26:36.543Z</time></trkpt><trkpt lat="45.0760533" lon="11.655015"><ele>4.0</ele><time>2026-04-12T08:26:38.549Z</time></trkpt><trkpt lat="45.0759367" lon="11.654965"><ele>3.9999999999999996</ele><time>2026-04-12T08:26:40.531Z</time></trkpt><trkpt lat="45.0758783" lon="11.6549233"><ele>4.0</ele><time>2026-04-12T08:26:41.538Z</time></trkpt><trkpt lat="45.0757733" lon="11.6548283"><ele>4.0</ele><time>2026-04-12T08:26:43.55Z</time></trkpt><trkpt lat="45.0757133" lon="11.654785"><ele>4.0</ele><time>2026-04-12T08:26:44.539Z</time></trkpt><trkpt lat="45.07565" lon="11.65475"><ele>3.9999999999999996</ele><time>2026-04-12T08:26:45.535Z</time></trkpt><trkpt lat="45.07558" lon="11.6547367"><ele>4.0</ele><time>2026-04-12T08:26:46.538Z</time></trkpt><trkpt lat="45.075515" lon="11.6547417"><ele>3.8571428571428568</ele><time>2026-04-12T08:26:47.541Z</time></trkpt><trkpt lat="45.07545" lon="11.6547567"><ele>3.714285714285714</ele><time>2026-04-12T08:26:48.532Z</time></trkpt><trkpt lat="45.0753833" lon="11.654775"><ele>3.571428571428571</ele><time>2026-04-12T08:26:49.551Z</time></trkpt><trkpt lat="45.07532" lon="11.6547967"><ele>3.4285714285714284</ele><time>2026-04-12T08:26:50.54Z</time></trkpt><trkpt lat="45.075255" lon="11.6548167"><ele>3.2857142857142856</ele><time>2026-04-12T08:26:51.541Z</time></trkpt><trkpt lat="45.0751883" lon="11.6548333"><ele>3.1428571428571423</ele><time>2026-04-12T08:26:52.533Z</time></trkpt><trkpt lat="45.0751217" lon="11.6548383"><ele>3.0</ele><time>2026-04-12T08:26:53.535Z</time></trkpt><trkpt lat="45.0750567" lon="11.6548367"><ele>2.9999999999999996</ele><time>2026-04-12T08:26:54.525Z</time></trkpt><trkpt lat="45.07499" lon="11.65483"><ele>3.0</ele><time>2026-04-12T08:26:55.536Z</time></trkpt><trkpt lat="45.0749233" lon="11.654815"><ele>3.0</ele><time>2026-04-12T08:26:56.538Z</time></trkpt><trkpt lat="45.0748583" lon="11.6547933"><ele>3.0</ele><time>2026-04-12T08:26:57.541Z</time></trkpt><trkpt lat="45.0747933" lon="11.654775"><ele>3.0</ele><time>2026-04-12T08:26:58.535Z</time></trkpt><trkpt lat="45.074725" lon="11.65476"><ele>2.9999999999999996</ele><time>2026-04-12T08:26:59.531Z</time></trkpt><trkpt lat="45.0746567" lon="11.6547483"><ele>3.0</ele><time>2026-04-12T08:27:00.537Z</time></trkpt><trkpt lat="45.0745917" lon="11.6547383"><ele>2.9999999999999996</ele><time>2026-04-12T08:27:01.527Z</time></trkpt><trkpt lat="45.0745233" lon="11.65473"><ele>3.0</ele><time>2026-04-12T08:27:02.535Z</time></trkpt><trkpt lat="45.0744567" lon="11.6547217"><ele>3.0</ele><time>2026-04-12T08:27:03.529Z</time></trkpt><trkpt lat="45.07439" lon="11.6547117"><ele>3.0</ele><time>2026-04-12T08:27:04.533Z</time></trkpt><trkpt lat="45.0743217" lon="11.6547033"><ele>3.0</ele><time>2026-04-12T08:27:05.541Z</time></trkpt><trkpt lat="45.0742517" lon="11.654695"><ele>2.9999999999999996</ele><time>2026-04-12T08:27:06.546Z</time></trkpt><trkpt lat="45.0741833" lon="11.6546783"><ele>3.0</ele><time>2026-04-12T08:27:07.532Z</time></trkpt><trkpt lat="45.074115" lon="11.654665"><ele>2.8571428571428568</ele><time>2026-04-12T08:27:08.535Z</time></trkpt><trkpt lat="45.0740467" lon="11.6546533"><ele>2.7142857142857144</ele><time>2026-04-12T08:27:09.53Z</time></trkpt><trkpt lat="45.073975" lon="11.6546417"><ele>2.571428571428571</ele><time>2026-04-12T08:27:10.535Z</time></trkpt><trkpt lat="45.0739083" lon="11.6546333"><ele>2.4285714285714284</ele><time>2026-04-12T08:27:11.552Z</time></trkpt><trkpt lat="45.07384" lon="11.6546267"><ele>2.2857142857142856</ele><time>2026-04-12T08:27:12.539Z</time></trkpt><trkpt lat="45.0737733" lon="11.6546217"><ele>2.142857142857143</ele><time>2026-04-12T08:27:13.542Z</time></trkpt><trkpt lat="45.0737033" lon="11.6546183"><ele>2.0</ele><time>2026-04-12T08:27:14.536Z</time></trkpt><trkpt lat="45.0736367" lon="11.6546133"><ele>1.9999999999999998</ele><time>2026-04-12T08:27:15.542Z</time></trkpt><trkpt lat="45.07357" lon="11.654605"><ele>2.0</ele><time>2026-04-12T08:27:16.538Z</time></trkpt><trkpt lat="45.073505" lon="11.6545983"><ele>2.0</ele><time>2026-04-12T08:27:17.552Z</time></trkpt><trkpt lat="45.0734417" lon="11.6545933"><ele>2.0</ele><time>2026-04-12T08:27:18.531Z</time></trkpt><trkpt lat="45.0733383" lon="11.6546"><ele>1.9999999999999998</ele><time>2026-04-12T08:27:20.547Z</time></trkpt><trkpt lat="45.0732517" lon="11.6546483"><ele>2.0</ele><time>2026-04-12T08:27:22.544Z</time></trkpt><trkpt lat="45.0731483" lon="11.65465"><ele>1.75</ele><time>2026-04-12T08:27:24.544Z</time></trkpt><trkpt lat="45.0730317" lon="11.6546333"><ele>1.5</ele><time>2026-04-12T08:27:26.527Z</time></trkpt><trkpt lat="45.0729183" lon="11.654615"><ele>1.25</ele><time>2026-04-12T08:27:28.536Z</time></trkpt><trkpt lat="45.0728033" lon="11.6545933"><ele>1.0</ele><time>2026-04-12T08:27:30.537Z</time></trkpt><trkpt lat="45.0726817" lon="11.654575"><ele>1.0</ele><time>2026-04-12T08:27:32.543Z</time></trkpt><trkpt lat="45.072615" lon="11.6545667"><ele>0.9999999999999999</ele><time>2026-04-12T08:27:33.553Z</time></trkpt><trkpt lat="45.07255" lon="11.65456"><ele>1.0</ele><time>2026-04-12T08:27:34.551Z</time></trkpt><trkpt lat="45.0724867" lon="11.65455"><ele>1.0</ele><time>2026-04-12T08:27:35.533Z</time></trkpt><trkpt lat="45.0724217" lon="11.6545367"><ele>0.9999999999999999</ele><time>2026-04-12T08:27:36.547Z</time></trkpt><trkpt lat="45.0723583" lon="11.6545283"><ele>1.0</ele><time>2026-04-12T08:27:37.534Z</time></trkpt><trkpt lat="45.072295" lon="11.65452"><ele>1.0</ele><time>2026-04-12T08:27:38.546Z</time></trkpt><trkpt lat="45.07217" lon="11.6545"><ele>1.3333333333333333</ele><time>2026-04-12T08:27:40.541Z</time></trkpt><trkpt lat="45.072045" lon="11.6544767"><ele>1.6666666666666665</ele><time>2026-04-12T08:27:42.541Z</time></trkpt><trkpt lat="45.07198" lon="11.6544667"><ele>2.0</ele><time>2026-04-12T08:27:43.53Z</time></trkpt><trkpt lat="45.0719133" lon="11.6544533"><ele>2.3333333333333335</ele><time>2026-04-12T08:27:44.552Z</time></trkpt><trkpt lat="45.0718483" lon="11.6544417"><ele>2.6666666666666665</ele><time>2026-04-12T08:27:45.555Z</time></trkpt><trkpt lat="45.071725" lon="11.6544117"><ele>3.0</ele><time>2026-04-12T08:27:47.535Z</time></trkpt><trkpt lat="45.0716033" lon="11.6543733"><ele>2.9999999999999996</ele><time>2026-04-12T08:27:49.543Z</time></trkpt><trkpt lat="45.0715417" lon="11.6543533"><ele>3.0</ele><time>2026-04-12T08:27:50.546Z</time></trkpt><trkpt lat="45.07148" lon="11.65433"><ele>3.0</ele><time>2026-04-12T08:27:51.551Z</time></trkpt><trkpt lat="45.0714183" lon="11.6543083"><ele>3.0</ele><time>2026-04-12T08:27:52.535Z</time></trkpt><trkpt lat="45.071355" lon="11.6542817"><ele>3.0</ele><time>2026-04-12T08:27:53.529Z</time></trkpt><trkpt lat="45.0712933" lon="11.6542583"><ele>2.9999999999999996</ele><time>2026-04-12T08:27:54.548Z</time></trkpt><trkpt lat="45.071175" lon="11.65422"><ele>3.0</ele><time>2026-04-12T08:27:56.547Z</time></trkpt><trkpt lat="45.071055" lon="11.6541717"><ele>3.0</ele><time>2026-04-12T08:27:58.534Z</time></trkpt><trkpt lat="45.0709417" lon="11.6541233"><ele>3.0</ele><time>2026-04-12T08:28:00.546Z</time></trkpt><trkpt lat="45.070825" lon="11.6540783"><ele>3.0</ele><time>2026-04-12T08:28:02.531Z</time></trkpt><trkpt lat="45.0707067" lon="11.6540383"><ele>3.0</ele><time>2026-04-12T08:28:04.532Z</time></trkpt><trkpt lat="45.07059" lon="11.6539917"><ele>3.4</ele><time>2026-04-12T08:28:06.536Z</time></trkpt><trkpt lat="45.0705283" lon="11.6539617"><ele>3.8</ele><time>2026-04-12T08:28:07.536Z</time></trkpt><trkpt lat="45.0704217" lon="11.6538933"><ele>4.2</ele><time>2026-04-12T08:28:09.533Z</time></trkpt><trkpt lat="45.0703283" lon="11.6538083"><ele>4.6</ele><time>2026-04-12T08:28:11.529Z</time></trkpt><trkpt lat="45.07024" lon="11.653715"><ele>5.0</ele><time>2026-04-12T08:28:13.549Z</time></trkpt><trkpt lat="45.07015" lon="11.653615"><ele>5.0</ele><time>2026-04-12T08:28:15.535Z</time></trkpt><trkpt lat="45.070055" lon="11.6535117"><ele>5.0</ele><time>2026-04-12T08:28:17.542Z</time></trkpt><trkpt lat="45.069955" lon="11.6534133"><ele>5.0</ele><time>2026-04-12T08:28:19.557Z</time></trkpt><trkpt lat="45.0698583" lon="11.6533267"><ele>5.0</ele><time>2026-04-12T08:28:21.533Z</time></trkpt><trkpt lat="45.0697583" lon="11.6532417"><ele>4.5</ele><time>2026-04-12T08:28:23.534Z</time></trkpt><trkpt lat="45.0696567" lon="11.6531683"><ele>4.0</ele><time>2026-04-12T08:28:25.534Z</time></trkpt><trkpt lat="45.06955" lon="11.6531017"><ele>3.5</ele><time>2026-04-12T08:28:27.549Z</time></trkpt><trkpt lat="45.069445" lon="11.6530367"><ele>3.0</ele><time>2026-04-12T08:28:29.532Z</time></trkpt><trkpt lat="45.0693433" lon="11.6529733"><ele>3.0</ele><time>2026-04-12T08:28:31.538Z</time></trkpt><trkpt lat="45.0692433" lon="11.65292"><ele>3.0</ele><time>2026-04-12T08:28:33.537Z</time></trkpt><trkpt lat="45.0691483" lon="11.6528733"><ele>3.0</ele><time>2026-04-12T08:28:35.549Z</time></trkpt><trkpt lat="45.0690533" lon="11.6528317"><ele>3.0</ele><time>2026-04-12T08:28:37.53Z</time></trkpt><trkpt lat="45.0689583" lon="11.6527967"><ele>3.0</ele><time>2026-04-12T08:28:39.539Z</time></trkpt><trkpt lat="45.0688667" lon="11.6527617"><ele>3.3333333333333335</ele><time>2026-04-12T08:28:41.549Z</time></trkpt><trkpt lat="45.0687767" lon="11.65272"><ele>3.666666666666667</ele><time>2026-04-12T08:28:43.529Z</time></trkpt><trkpt lat="45.068685" lon="11.6526783"><ele>4.0</ele><time>2026-04-12T08:28:45.539Z</time></trkpt><trkpt lat="45.0686033" lon="11.6526433"><ele>4.333333333333334</ele><time>2026-04-12T08:28:47.55Z</time></trkpt><trkpt lat="45.0685283" lon="11.6526217"><ele>4.666666666666667</ele><time>2026-04-12T08:28:49.548Z</time></trkpt><trkpt lat="45.0684667" lon="11.6525783"><ele>5.0</ele><time>2026-04-12T08:28:51.536Z</time></trkpt><trkpt lat="45.0683967" lon="11.6525067"><ele>5.0</ele><time>2026-04-12T08:28:53.536Z</time></trkpt><trkpt lat="45.0683017" lon="11.6524383"><ele>5.0</ele><time>2026-04-12T08:28:55.542Z</time></trkpt><trkpt lat="45.068195" lon="11.652385"><ele>5.0</ele><time>2026-04-12T08:28:57.546Z</time></trkpt><trkpt lat="45.0681333" lon="11.6523667"><ele>5.0</ele><time>2026-04-12T08:28:58.545Z</time></trkpt><trkpt lat="45.06807" lon="11.6523483"><ele>5.0</ele><time>2026-04-12T08:28:59.532Z</time></trkpt><trkpt lat="45.068005" lon="11.65233"><ele>5.0</ele><time>2026-04-12T08:29:00.538Z</time></trkpt><trkpt lat="45.0679367" lon="11.6523083"><ele>4.857142857142857</ele><time>2026-04-12T08:29:01.536Z</time></trkpt><trkpt lat="45.0678717" lon="11.6522817"><ele>4.714285714285714</ele><time>2026-04-12T08:29:02.543Z</time></trkpt><trkpt lat="45.0678067" lon="11.652255"><ele>4.571428571428571</ele><time>2026-04-12T08:29:03.541Z</time></trkpt><trkpt lat="45.0677433" lon="11.652225"><ele>4.428571428571429</ele><time>2026-04-12T08:29:04.533Z</time></trkpt><trkpt lat="45.0676817" lon="11.6522017"><ele>4.285714285714286</ele><time>2026-04-12T08:29:05.548Z</time></trkpt><trkpt lat="45.0676183" lon="11.65218"><ele>4.142857142857142</ele><time>2026-04-12T08:29:06.543Z</time></trkpt><trkpt lat="45.0675517" lon="11.652155"><ele>4.0</ele><time>2026-04-12T08:29:07.53Z</time></trkpt><trkpt lat="45.0674883" lon="11.6521233"><ele>4.0</ele><time>2026-04-12T08:29:08.537Z</time></trkpt><trkpt lat="45.0674233" lon="11.652095"><ele>3.9999999999999996</ele><time>2026-04-12T08:29:09.54Z</time></trkpt><trkpt lat="45.0673617" lon="11.652065"><ele>4.0</ele><time>2026-04-12T08:29:10.537Z</time></trkpt><trkpt lat="45.0672983" lon="11.6520367"><ele>4.0</ele><time>2026-04-12T08:29:11.551Z</time></trkpt><trkpt lat="45.0672317" lon="11.6520117"><ele>3.9999999999999996</ele><time>2026-04-12T08:29:12.552Z</time></trkpt><trkpt lat="45.0671667" lon="11.65199"><ele>4.0</ele><time>2026-04-12T08:29:13.555Z</time></trkpt><trkpt lat="45.0671017" lon="11.65197"><ele>4.0</ele><time>2026-04-12T08:29:14.544Z</time></trkpt><trkpt lat="45.0670383" lon="11.6519517"><ele>4.0</ele><time>2026-04-12T08:29:15.533Z</time></trkpt><trkpt lat="45.0669733" lon="11.651935"><ele>3.9999999999999996</ele><time>2026-04-12T08:29:16.565Z</time></trkpt><trkpt lat="45.0669067" lon="11.65192"><ele>4.0</ele><time>2026-04-12T08:29:17.529Z</time></trkpt><trkpt lat="45.0668433" lon="11.651905"><ele>4.0</ele><time>2026-04-12T08:29:18.534Z</time></trkpt><trkpt lat="45.0667783" lon="11.6518967"><ele>3.9999999999999996</ele><time>2026-04-12T08:29:19.55Z</time></trkpt><trkpt lat="45.0667117" lon="11.6518883"><ele>4.0</ele><time>2026-04-12T08:29:20.528Z</time></trkpt><trkpt lat="45.0666483" lon="11.6518817"><ele>4.0</ele><time>2026-04-12T08:29:21.547Z</time></trkpt><trkpt lat="45.0665233" lon="11.6518817"><ele>3.5</ele><time>2026-04-12T08:29:23.541Z</time></trkpt><trkpt lat="45.0664" lon="11.6518817"><ele>3.0</ele><time>2026-04-12T08:29:25.535Z</time></trkpt><trkpt lat="45.0662783" lon="11.6518883"><ele>2.5</ele><time>2026-04-12T08:29:27.533Z</time></trkpt><trkpt lat="45.066155" lon="11.651905"><ele>2.0</ele><time>2026-04-12T08:29:29.537Z</time></trkpt><trkpt lat="45.0660367" lon="11.6519383"><ele>2.25</ele><time>2026-04-12T08:29:31.537Z</time></trkpt><trkpt lat="45.0659167" lon="11.6519733"><ele>2.5</ele><time>2026-04-12T08:29:33.532Z</time></trkpt><trkpt lat="45.0658" lon="11.6520117"><ele>2.75</ele><time>2026-04-12T08:29:35.544Z</time></trkpt><trkpt lat="45.0656867" lon="11.652055"><ele>3.0</ele><time>2026-04-12T08:29:37.548Z</time></trkpt><trkpt lat="45.0655783" lon="11.6521133"><ele>3.0</ele><time>2026-04-12T08:29:39.546Z</time></trkpt><trkpt lat="45.0654667" lon="11.6521733"><ele>3.0</ele><time>2026-04-12T08:29:41.534Z</time></trkpt><trkpt lat="45.0653583" lon="11.6522467"><ele>3.0</ele><time>2026-04-12T08:29:43.549Z</time></trkpt><trkpt lat="45.065255" lon="11.6523267"><ele>3.0</ele><time>2026-04-12T08:29:45.534Z</time></trkpt><trkpt lat="45.0651483" lon="11.65241"><ele>3.0</ele><time>2026-04-12T08:29:47.542Z</time></trkpt><trkpt lat="45.0650383" lon="11.6525017"><ele>3.0</ele><time>2026-04-12T08:29:49.543Z</time></trkpt><trkpt lat="45.0649833" lon="11.65255"><ele>3.0</ele><time>2026-04-12T08:29:50.529Z</time></trkpt><trkpt lat="45.06488" lon="11.652645"><ele>3.0</ele><time>2026-04-12T08:29:52.532Z</time></trkpt><trkpt lat="45.0647717" lon="11.6527417"><ele>3.0</ele><time>2026-04-12T08:29:54.529Z</time></trkpt><trkpt lat="45.0647167" lon="11.65279"><ele>2.8</ele><time>2026-04-12T08:29:55.55Z</time></trkpt><trkpt lat="45.0646583" lon="11.6528367"><ele>2.5999999999999996</ele><time>2026-04-12T08:29:56.54Z</time></trkpt><trkpt lat="45.0645517" lon="11.6529333"><ele>2.4000000000000004</ele><time>2026-04-12T08:29:58.544Z</time></trkpt><trkpt lat="45.0644983" lon="11.6529817"><ele>2.2</ele><time>2026-04-12T08:29:59.531Z</time></trkpt><trkpt lat="45.064395" lon="11.6530783"><ele>2.0</ele><time>2026-04-12T08:30:01.542Z</time></trkpt><trkpt lat="45.06429" lon="11.6531767"><ele>2.0</ele><time>2026-04-12T08:30:03.534Z</time></trkpt><trkpt lat="45.0641867" lon="11.6532767"><ele>2.0</ele><time>2026-04-12T08:30:05.565Z</time></trkpt><trkpt lat="45.064085" lon="11.6533667"><ele>2.0</ele><time>2026-04-12T08:30:07.602Z</time></trkpt><trkpt lat="45.0639717" lon="11.6534633"><ele>2.0</ele><time>2026-04-12T08:30:09.674Z</time></trkpt><trkpt lat="45.0639117" lon="11.6535117"><ele>2.0</ele><time>2026-04-12T08:30:10.574Z</time></trkpt><trkpt lat="45.0638533" lon="11.6535567"><ele>2.2</ele><time>2026-04-12T08:30:11.584Z</time></trkpt><trkpt lat="45.0637467" lon="11.6536533"><ele>2.4000000000000004</ele><time>2026-04-12T08:30:13.638Z</time></trkpt><trkpt lat="45.0636383" lon="11.6537483"><ele>2.5999999999999996</ele><time>2026-04-12T08:30:15.557Z</time></trkpt><trkpt lat="45.063585" lon="11.6538"><ele>2.8</ele><time>2026-04-12T08:30:16.623Z</time></trkpt><trkpt lat="45.06348" lon="11.6538967"><ele>3.0</ele><time>2026-04-12T08:30:18.595Z</time></trkpt><trkpt lat="45.063425" lon="11.6539467"><ele>3.0</ele><time>2026-04-12T08:30:19.599Z</time></trkpt><trkpt lat="45.06337" lon="11.6539933"><ele>3.0</ele><time>2026-04-12T08:30:20.644Z</time></trkpt><trkpt lat="45.0633117" lon="11.6540417"><ele>3.0</ele><time>2026-04-12T08:30:21.58Z</time></trkpt><trkpt lat="45.0631433" lon="11.6541667"><ele>3.0</ele><time>2026-04-12T08:30:24.644Z</time></trkpt><trkpt lat="45.0630283" lon="11.6542383"><ele>3.0</ele><time>2026-04-12T08:30:26.562Z</time></trkpt><trkpt lat="45.0628533" lon="11.6543267"><ele>3.0</ele><time>2026-04-12T08:30:29.598Z</time></trkpt><trkpt lat="45.062735" lon="11.6543817"><ele>3.0</ele><time>2026-04-12T08:30:31.544Z</time></trkpt><trkpt lat="45.0625617" lon="11.654455"><ele>3.0</ele><time>2026-04-12T08:30:34.884Z</time></trkpt><trkpt lat="45.062385" lon="11.6545167"><ele>3.0</ele><time>2026-04-12T08:30:37.677Z</time></trkpt><trkpt lat="45.06227" lon="11.6545517"><ele>3.0</ele><time>2026-04-12T08:30:39.676Z</time></trkpt><trkpt lat="45.0621533" lon="11.6545783"><ele>3.0</ele><time>2026-04-12T08:30:41.636Z</time></trkpt><trkpt lat="45.062035" lon="11.654595"><ele>3.0</ele><time>2026-04-12T08:30:43.566Z</time></trkpt><trkpt lat="45.0619167" lon="11.654595"><ele>3.0</ele><time>2026-04-12T08:30:45.576Z</time></trkpt><trkpt lat="45.0617983" lon="11.6545867"><ele>3.0</ele><time>2026-04-12T08:30:47.56Z</time></trkpt><trkpt lat="45.06168" lon="11.65457"><ele>3.0</ele><time>2026-04-12T08:30:49.617Z</time></trkpt><trkpt lat="45.0615583" lon="11.65454"><ele>3.0</ele><time>2026-04-12T08:30:51.597Z</time></trkpt><trkpt lat="45.0614333" lon="11.6545117"><ele>3.5</ele><time>2026-04-12T08:30:53.686Z</time></trkpt><trkpt lat="45.06137" lon="11.6544917"><ele>4.0</ele><time>2026-04-12T08:30:54.631Z</time></trkpt><trkpt lat="45.061305" lon="11.6544717"><ele>4.5</ele><time>2026-04-12T08:30:55.569Z</time></trkpt><trkpt lat="45.0611233" lon="11.654395"><ele>5.0</ele><time>2026-04-12T08:30:58.568Z</time></trkpt><trkpt lat="45.060945" lon="11.6543"><ele>5.0</ele><time>2026-04-12T08:31:01.599Z</time></trkpt><trkpt lat="45.0608267" lon="11.6542267"><ele>5.0</ele><time>2026-04-12T08:31:03.555Z</time></trkpt><trkpt lat="45.0607133" lon="11.6541533"><ele>5.0</ele><time>2026-04-12T08:31:05.535Z</time></trkpt><trkpt lat="45.060655" lon="11.6541167"><ele>5.0</ele><time>2026-04-12T08:31:06.644Z</time></trkpt><trkpt lat="45.0605433" lon="11.6540417"><ele>5.0</ele><time>2026-04-12T08:31:08.548Z</time></trkpt><trkpt lat="45.06043" lon="11.6539683"><ele>4.25</ele><time>2026-04-12T08:31:10.588Z</time></trkpt><trkpt lat="45.0603717" lon="11.6539317"><ele>3.5</ele><time>2026-04-12T08:31:11.558Z</time></trkpt><trkpt lat="45.0602033" lon="11.6538167"><ele>2.75</ele><time>2026-04-12T08:31:14.6Z</time></trkpt><trkpt lat="45.0600333" lon="11.653715"><ele>2.0</ele><time>2026-04-12T08:31:17.558Z</time></trkpt><trkpt lat="45.0595833" lon="11.65345"><ele>2.0</ele><time>2026-04-12T08:31:25.62Z</time></trkpt><trkpt lat="45.05947" lon="11.653395"><ele>2.0</ele><time>2026-04-12T08:31:27.591Z</time></trkpt><trkpt lat="45.05936" lon="11.65334"><ele>2.0</ele><time>2026-04-12T08:31:29.717Z</time></trkpt><trkpt lat="45.059245" lon="11.653285"><ele>2.0</ele><time>2026-04-12T08:31:31.668Z</time></trkpt><trkpt lat="45.0591317" lon="11.6532317"><ele>2.0</ele><time>2026-04-12T08:31:33.6Z</time></trkpt><trkpt lat="45.058955" lon="11.6531467"><ele>2.0</ele><time>2026-04-12T08:31:36.665Z</time></trkpt><trkpt lat="45.05884" lon="11.6530967"><ele>2.0</ele><time>2026-04-12T08:31:38.714Z</time></trkpt><trkpt lat="45.05873" lon="11.653045"><ele>2.0</ele><time>2026-04-12T08:31:40.608Z</time></trkpt><trkpt lat="45.05861" lon="11.6529967"><ele>2.0</ele><time>2026-04-12T08:31:42.606Z</time></trkpt><trkpt lat="45.0584917" lon="11.65295"><ele>2.0</ele><time>2026-04-12T08:31:44.677Z</time></trkpt><trkpt lat="45.0583733" lon="11.6528983"><ele>2.0</ele><time>2026-04-12T08:31:46.599Z</time></trkpt><trkpt lat="45.0582583" lon="11.6528467"><ele>2.0</ele><time>2026-04-12T08:31:48.623Z</time></trkpt><trkpt lat="45.0581433" lon="11.6527967"><ele>2.25</ele><time>2026-04-12T08:31:50.605Z</time></trkpt><trkpt lat="45.0580267" lon="11.6527417"><ele>2.5</ele><time>2026-04-12T08:31:52.554Z</time></trkpt><trkpt lat="45.0579117" lon="11.6527"><ele>2.75</ele><time>2026-04-12T08:31:54.571Z</time></trkpt><trkpt lat="45.057795" lon="11.65265"><ele>3.0</ele><time>2026-04-12T08:31:56.562Z</time></trkpt><trkpt lat="45.0576233" lon="11.65257"><ele>3.0</ele><time>2026-04-12T08:31:59.601Z</time></trkpt><trkpt lat="45.0575067" lon="11.6525217"><ele>3.0</ele><time>2026-04-12T08:32:01.654Z</time></trkpt><trkpt lat="45.05739" lon="11.6524733"><ele>3.0</ele><time>2026-04-12T08:32:03.574Z</time></trkpt><trkpt lat="45.057275" lon="11.65242"><ele>3.0</ele><time>2026-04-12T08:32:05.55Z</time></trkpt><trkpt lat="45.0571633" lon="11.6523683"><ele>3.0</ele><time>2026-04-12T08:32:07.549Z</time></trkpt><trkpt lat="45.05705" lon="11.6523283"><ele>3.0</ele><time>2026-04-12T08:32:09.552Z</time></trkpt><trkpt lat="45.056935" lon="11.6522867"><ele>3.0</ele><time>2026-04-12T08:32:11.546Z</time></trkpt><trkpt lat="45.056815" lon="11.652235"><ele>3.0</ele><time>2026-04-12T08:32:13.552Z</time></trkpt><trkpt lat="45.0567" lon="11.6521917"><ele>3.5</ele><time>2026-04-12T08:32:15.536Z</time></trkpt><trkpt lat="45.0565867" lon="11.6521483"><ele>4.0</ele><time>2026-04-12T08:32:17.528Z</time></trkpt><trkpt lat="45.056475" lon="11.6521"><ele>4.5</ele><time>2026-04-12T08:32:19.541Z</time></trkpt><trkpt lat="45.0563617" lon="11.65205"><ele>5.0</ele><time>2026-04-12T08:32:21.527Z</time></trkpt><trkpt lat="45.0562433" lon="11.651995"><ele>5.0</ele><time>2026-04-12T08:32:23.54Z</time></trkpt><trkpt lat="45.0561833" lon="11.651965"><ele>5.0</ele><time>2026-04-12T08:32:24.529Z</time></trkpt><trkpt lat="45.0560667" lon="11.65191"><ele>5.0</ele><time>2026-04-12T08:32:26.556Z</time></trkpt><trkpt lat="45.0559533" lon="11.6518583"><ele>5.0</ele><time>2026-04-12T08:32:28.531Z</time></trkpt><trkpt lat="45.0558383" lon="11.6518"><ele>5.0</ele><time>2026-04-12T08:32:30.55Z</time></trkpt><trkpt lat="45.0557233" lon="11.65174"><ele>5.0</ele><time>2026-04-12T08:32:32.575Z</time></trkpt><trkpt lat="45.055605" lon="11.6516717"><ele>5.0</ele><time>2026-04-12T08:32:34.563Z</time></trkpt><trkpt lat="45.0555433" lon="11.65163"><ele>5.0</ele><time>2026-04-12T08:32:35.552Z</time></trkpt><trkpt lat="45.0554767" lon="11.65159"><ele>5.0</ele><time>2026-04-12T08:32:36.542Z</time></trkpt><trkpt lat="45.0554133" lon="11.6515467"><ele>5.0</ele><time>2026-04-12T08:32:37.532Z</time></trkpt><trkpt lat="45.0553583" lon="11.651485"><ele>5.0</ele><time>2026-04-12T08:32:38.545Z</time></trkpt><trkpt lat="45.0553083" lon="11.6514267"><ele>5.0</ele><time>2026-04-12T08:32:39.543Z</time></trkpt><trkpt lat="45.055215" lon="11.65132"><ele>5.0</ele><time>2026-04-12T08:32:41.562Z</time></trkpt><trkpt lat="45.0551283" lon="11.6512317"><ele>5.0</ele><time>2026-04-12T08:32:43.556Z</time></trkpt><trkpt lat="45.0550383" lon="11.6511267"><ele>5.0</ele><time>2026-04-12T08:32:45.536Z</time></trkpt><trkpt lat="45.0549467" lon="11.65101"><ele>4.5</ele><time>2026-04-12T08:32:47.557Z</time></trkpt><trkpt lat="45.054855" lon="11.6508917"><ele>4.0</ele><time>2026-04-12T08:32:49.538Z</time></trkpt><trkpt lat="45.05481" lon="11.6508283"><ele>3.5</ele><time>2026-04-12T08:32:50.555Z</time></trkpt><trkpt lat="45.054765" lon="11.6507617"><ele>3.0</ele><time>2026-04-12T08:32:51.544Z</time></trkpt><trkpt lat="45.0547217" lon="11.6506933"><ele>2.5</ele><time>2026-04-12T08:32:52.568Z</time></trkpt><trkpt lat="45.0546417" lon="11.6505583"><ele>2.0</ele><time>2026-04-12T08:32:54.566Z</time></trkpt><trkpt lat="45.0545633" lon="11.65042"><ele>2.0</ele><time>2026-04-12T08:32:56.566Z</time></trkpt><trkpt lat="45.0544967" lon="11.6502817"><ele>2.0</ele><time>2026-04-12T08:32:58.532Z</time></trkpt><trkpt lat="45.0544333" lon="11.6501317"><ele>2.0</ele><time>2026-04-12T08:33:00.555Z</time></trkpt><trkpt lat="45.05437" lon="11.6499783"><ele>2.0</ele><time>2026-04-12T08:33:02.569Z</time></trkpt><trkpt lat="45.054305" lon="11.6498283"><ele>1.9999999999999998</ele><time>2026-04-12T08:33:04.568Z</time></trkpt><trkpt lat="45.05424" lon="11.64968"><ele>2.0</ele><time>2026-04-12T08:33:06.558Z</time></trkpt><trkpt lat="45.0541767" lon="11.6495283"><ele>2.0</ele><time>2026-04-12T08:33:08.566Z</time></trkpt><trkpt lat="45.0541433" lon="11.6494517"><ele>2.0</ele><time>2026-04-12T08:33:09.566Z</time></trkpt><trkpt lat="45.0541067" lon="11.6493733"><ele>1.9999999999999998</ele><time>2026-04-12T08:33:10.561Z</time></trkpt><trkpt lat="45.0540717" lon="11.649295"><ele>2.0</ele><time>2026-04-12T08:33:11.54Z</time></trkpt><trkpt lat="45.0540383" lon="11.6492183"><ele>2.333333333333333</ele><time>2026-04-12T08:33:12.562Z</time></trkpt><trkpt lat="45.0539733" lon="11.6490683"><ele>2.6666666666666665</ele><time>2026-04-12T08:33:14.544Z</time></trkpt><trkpt lat="45.0539367" lon="11.6489917"><ele>3.0</ele><time>2026-04-12T08:33:15.534Z</time></trkpt><trkpt lat="45.0539017" lon="11.6489167"><ele>3.333333333333333</ele><time>2026-04-12T08:33:16.532Z</time></trkpt><trkpt lat="45.0538667" lon="11.6488417"><ele>3.6666666666666665</ele><time>2026-04-12T08:33:17.53Z</time></trkpt><trkpt lat="45.0538017" lon="11.6486917"><ele>4.0</ele><time>2026-04-12T08:33:19.531Z</time></trkpt><trkpt lat="45.05373" lon="11.64855"><ele>4.0</ele><time>2026-04-12T08:33:21.571Z</time></trkpt><trkpt lat="45.0536567" lon="11.6484117"><ele>4.0</ele><time>2026-04-12T08:33:23.574Z</time></trkpt><trkpt lat="45.0535833" lon="11.6482833"><ele>4.0</ele><time>2026-04-12T08:33:25.568Z</time></trkpt><trkpt lat="45.0535117" lon="11.6481567"><ele>4.0</ele><time>2026-04-12T08:33:27.536Z</time></trkpt><trkpt lat="45.053435" lon="11.64803"><ele>4.0</ele><time>2026-04-12T08:33:29.574Z</time></trkpt><trkpt lat="45.0533567" lon="11.6479067"><ele>4.0</ele><time>2026-04-12T08:33:31.576Z</time></trkpt><trkpt lat="45.0532817" lon="11.6477917"><ele>4.0</ele><time>2026-04-12T08:33:33.543Z</time></trkpt><trkpt lat="45.05321" lon="11.6476967"><ele>4.0</ele><time>2026-04-12T08:33:35.566Z</time></trkpt><trkpt lat="45.0531417" lon="11.6476"><ele>4.0</ele><time>2026-04-12T08:33:37.569Z</time></trkpt><trkpt lat="45.053075" lon="11.64751"><ele>4.666666666666666</ele><time>2026-04-12T08:33:39.577Z</time></trkpt><trkpt lat="45.05298" lon="11.6473933"><ele>5.333333333333333</ele><time>2026-04-12T08:33:42.555Z</time></trkpt><trkpt lat="45.0529283" lon="11.6473283"><ele>6.0</ele><time>2026-04-12T08:33:44.575Z</time></trkpt><trkpt lat="45.0528767" lon="11.6472617"><ele>6.666666666666666</ele><time>2026-04-12T08:33:47.556Z</time></trkpt><trkpt lat="45.0528317" lon="11.6471967"><ele>7.333333333333333</ele><time>2026-04-12T08:33:51.55Z</time></trkpt><trkpt lat="45.0527567" lon="11.6471167"><ele>8.0</ele><time>2026-04-12T08:34:05.53Z</time></trkpt><trkpt lat="45.0527017" lon="11.6470533"><ele>7.999999999999999</ele><time>2026-04-12T08:34:08.524Z</time></trkpt><trkpt lat="45.0526383" lon="11.6469833"><ele>8.0</ele><time>2026-04-12T08:34:11.538Z</time></trkpt><trkpt lat="45.05258" lon="11.6469267"><ele>8.0</ele><time>2026-04-12T08:34:13.547Z</time></trkpt><trkpt lat="45.0525033" lon="11.646845"><ele>8.0</ele><time>2026-04-12T08:34:15.561Z</time></trkpt><trkpt lat="45.0524333" lon="11.6467433"><ele>7.999999999999999</ele><time>2026-04-12T08:34:17.568Z</time></trkpt><trkpt lat="45.0523683" lon="11.6466433"><ele>8.0</ele><time>2026-04-12T08:34:19.559Z</time></trkpt><trkpt lat="45.0523083" lon="11.6465567"><ele>8.166666666666666</ele><time>2026-04-12T08:34:21.567Z</time></trkpt><trkpt lat="45.0522467" lon="11.6464717"><ele>8.333333333333332</ele><time>2026-04-12T08:34:23.564Z</time></trkpt><trkpt lat="45.05219" lon="11.6463967"><ele>8.5</ele><time>2026-04-12T08:34:25.574Z</time></trkpt><trkpt lat="45.05214" lon="11.6463283"><ele>8.666666666666666</ele><time>2026-04-12T08:34:27.543Z</time></trkpt><trkpt lat="45.05209" lon="11.6462567"><ele>8.833333333333334</ele><time>2026-04-12T08:34:29.577Z</time></trkpt><trkpt lat="45.0520367" lon="11.64618"><ele>9.0</ele><time>2026-04-12T08:34:31.565Z</time></trkpt><trkpt lat="45.0519817" lon="11.6460867"><ele>9.0</ele><time>2026-04-12T08:34:33.556Z</time></trkpt><trkpt lat="45.051925" lon="11.645975"><ele>9.0</ele><time>2026-04-12T08:34:35.562Z</time></trkpt><trkpt lat="45.0518733" lon="11.6458617"><ele>9.0</ele><time>2026-04-12T08:34:37.571Z</time></trkpt><trkpt lat="45.05181" lon="11.6457417"><ele>9.0</ele><time>2026-04-12T08:34:39.539Z</time></trkpt><trkpt lat="45.0517533" lon="11.6456117"><ele>9.0</ele><time>2026-04-12T08:34:41.553Z</time></trkpt><trkpt lat="45.0517" lon="11.6454833"><ele>9.0</ele><time>2026-04-12T08:34:43.555Z</time></trkpt><trkpt lat="45.0516517" lon="11.6453433"><ele>9.0</ele><time>2026-04-12T08:34:45.568Z</time></trkpt><trkpt lat="45.0516" lon="11.6452133"><ele>9.0</ele><time>2026-04-12T08:34:47.56Z</time></trkpt><trkpt lat="45.051535" lon="11.6450967"><ele>9.0</ele><time>2026-04-12T08:34:49.56Z</time></trkpt><trkpt lat="45.0514633" lon="11.6449967"><ele>9.0</ele><time>2026-04-12T08:34:51.566Z</time></trkpt><trkpt lat="45.05138" lon="11.6449217"><ele>9.0</ele><time>2026-04-12T08:34:53.566Z</time></trkpt><trkpt lat="45.051285" lon="11.6448433"><ele>9.0</ele><time>2026-04-12T08:34:55.552Z</time></trkpt><trkpt lat="45.0511767" lon="11.6447817"><ele>9.0</ele><time>2026-04-12T08:34:57.57Z</time></trkpt><trkpt lat="45.05106" lon="11.644755"><ele>9.0</ele><time>2026-04-12T08:34:59.552Z</time></trkpt><trkpt lat="45.050945" lon="11.6447583"><ele>9.0</ele><time>2026-04-12T08:35:01.57Z</time></trkpt><trkpt lat="45.05083" lon="11.6447733"><ele>9.0</ele><time>2026-04-12T08:35:03.53Z</time></trkpt><trkpt lat="45.0507117" lon="11.6447933"><ele>9.0</ele><time>2026-04-12T08:35:05.526Z</time></trkpt><trkpt lat="45.0505933" lon="11.64483"><ele>9.0</ele><time>2026-04-12T08:35:07.519Z</time></trkpt><trkpt lat="45.05048" lon="11.6448733"><ele>8.5</ele><time>2026-04-12T08:35:09.526Z</time></trkpt><trkpt lat="45.050365" lon="11.6449183"><ele>8.0</ele><time>2026-04-12T08:35:11.569Z</time></trkpt><trkpt lat="45.050255" lon="11.6449617"><ele>7.5</ele><time>2026-04-12T08:35:13.523Z</time></trkpt><trkpt lat="45.0501433" lon="11.644995"><ele>7.0</ele><time>2026-04-12T08:35:15.527Z</time></trkpt><trkpt lat="45.050025" lon="11.64503"><ele>7.0</ele><time>2026-04-12T08:35:17.527Z</time></trkpt><trkpt lat="45.0499033" lon="11.6450683"><ele>7.0</ele><time>2026-04-12T08:35:19.57Z</time></trkpt><trkpt lat="45.0497917" lon="11.6451183"><ele>7.0</ele><time>2026-04-12T08:35:21.551Z</time></trkpt><trkpt lat="45.0496783" lon="11.6451667"><ele>7.0</ele><time>2026-04-12T08:35:23.533Z</time></trkpt><trkpt lat="45.0495633" lon="11.6452183"><ele>7.000000000000001</ele><time>2026-04-12T08:35:25.57Z</time></trkpt><trkpt lat="45.049445" lon="11.6452633"><ele>7.0</ele><time>2026-04-12T08:35:27.567Z</time></trkpt><trkpt lat="45.0493783" lon="11.64529"><ele>7.0</ele><time>2026-04-12T08:35:28.566Z</time></trkpt><trkpt lat="45.0493167" lon="11.64532"><ele>7.0</ele><time>2026-04-12T08:35:29.572Z</time></trkpt><trkpt lat="45.0492583" lon="11.645355"><ele>7.000000000000001</ele><time>2026-04-12T08:35:30.568Z</time></trkpt><trkpt lat="45.049145" lon="11.6454217"><ele>7.0</ele><time>2026-04-12T08:35:32.562Z</time></trkpt><trkpt lat="45.0490283" lon="11.6454883"><ele>7.25</ele><time>2026-04-12T08:35:34.567Z</time></trkpt><trkpt lat="45.04892" lon="11.6455617"><ele>7.5</ele><time>2026-04-12T08:35:36.572Z</time></trkpt><trkpt lat="45.0488117" lon="11.6456417"><ele>7.75</ele><time>2026-04-12T08:35:38.572Z</time></trkpt><trkpt lat="45.0487017" lon="11.6457283"><ele>8.0</ele><time>2026-04-12T08:35:40.553Z</time></trkpt><trkpt lat="45.0485983" lon="11.6458133"><ele>8.0</ele><time>2026-04-12T08:35:42.56Z</time></trkpt><trkpt lat="45.0484983" lon="11.6459033"><ele>8.0</ele><time>2026-04-12T08:35:44.551Z</time></trkpt><trkpt lat="45.0484033" lon="11.645995"><ele>8.0</ele><time>2026-04-12T08:35:46.549Z</time></trkpt><trkpt lat="45.0483083" lon="11.6460883"><ele>8.0</ele><time>2026-04-12T08:35:48.57Z</time></trkpt><trkpt lat="45.0482167" lon="11.6461917"><ele>7.800000000000001</ele><time>2026-04-12T08:35:50.558Z</time></trkpt><trkpt lat="45.0481217" lon="11.6462917"><ele>7.6000000000000005</ele><time>2026-04-12T08:35:52.559Z</time></trkpt><trkpt lat="45.0480233" lon="11.64639"><ele>7.3999999999999995</ele><time>2026-04-12T08:35:54.566Z</time></trkpt><trkpt lat="45.0479233" lon="11.646485"><ele>7.199999999999999</ele><time>2026-04-12T08:35:56.566Z</time></trkpt><trkpt lat="45.0478683" lon="11.6465317"><ele>7.0</ele><time>2026-04-12T08:35:57.54Z</time></trkpt><trkpt lat="45.0478117" lon="11.6465767"><ele>7.000000000000001</ele><time>2026-04-12T08:35:58.524Z</time></trkpt><trkpt lat="45.0477533" lon="11.646625"><ele>7.0</ele><time>2026-04-12T08:35:59.529Z</time></trkpt><trkpt lat="45.047695" lon="11.6466717"><ele>7.0</ele><time>2026-04-12T08:36:00.526Z</time></trkpt><trkpt lat="45.0476367" lon="11.646715"><ele>7.0</ele><time>2026-04-12T08:36:01.528Z</time></trkpt><trkpt lat="45.04758" lon="11.646755"><ele>7.000000000000001</ele><time>2026-04-12T08:36:02.528Z</time></trkpt><trkpt lat="45.0475233" lon="11.646795"><ele>7.0</ele><time>2026-04-12T08:36:03.527Z</time></trkpt><trkpt lat="45.0474117" lon="11.6468667"><ele>7.0</ele><time>2026-04-12T08:36:05.553Z</time></trkpt><trkpt lat="45.0473017" lon="11.6469417"><ele>7.0</ele><time>2026-04-12T08:36:07.569Z</time></trkpt><trkpt lat="45.04719" lon="11.647015"><ele>7.0</ele><time>2026-04-12T08:36:09.55Z</time></trkpt><trkpt lat="45.0470783" lon="11.6470833"><ele>7.0</ele><time>2026-04-12T08:36:11.563Z</time></trkpt><trkpt lat="45.0469633" lon="11.6471517"><ele>6.8</ele><time>2026-04-12T08:36:13.532Z</time></trkpt><trkpt lat="45.0468483" lon="11.647215"><ele>6.6</ele><time>2026-04-12T08:36:15.527Z</time></trkpt><trkpt lat="45.04679" lon="11.6472533"><ele>6.3999999999999995</ele><time>2026-04-12T08:36:16.525Z</time></trkpt><trkpt lat="45.046675" lon="11.6473233"><ele>6.199999999999999</ele><time>2026-04-12T08:36:18.528Z</time></trkpt><trkpt lat="45.0466133" lon="11.6473567"><ele>6.0</ele><time>2026-04-12T08:36:19.555Z</time></trkpt><trkpt lat="45.0464983" lon="11.647425"><ele>6.0</ele><time>2026-04-12T08:36:21.57Z</time></trkpt><trkpt lat="45.0463833" lon="11.647495"><ele>6.0</ele><time>2026-04-12T08:36:23.562Z</time></trkpt><trkpt lat="45.046265" lon="11.647565"><ele>6.0</ele><time>2026-04-12T08:36:25.564Z</time></trkpt><trkpt lat="45.0462033" lon="11.6476"><ele>6.0</ele><time>2026-04-12T08:36:26.553Z</time></trkpt><trkpt lat="45.04614" lon="11.647635"><ele>6.0</ele><time>2026-04-12T08:36:27.566Z</time></trkpt><trkpt lat="45.0460783" lon="11.6476733"><ele>6.0</ele><time>2026-04-12T08:36:28.565Z</time></trkpt><trkpt lat="45.0460167" lon="11.64771"><ele>6.0</ele><time>2026-04-12T08:36:29.561Z</time></trkpt><trkpt lat="45.0459583" lon="11.6477433"><ele>6.0</ele><time>2026-04-12T08:36:30.566Z</time></trkpt><trkpt lat="45.0459" lon="11.64778"><ele>6.0</ele><time>2026-04-12T08:36:31.531Z</time></trkpt><trkpt lat="45.0458417" lon="11.6478183"><ele>6.0</ele><time>2026-04-12T08:36:32.558Z</time></trkpt><trkpt lat="45.0457283" lon="11.64788"><ele>6.0</ele><time>2026-04-12T08:36:34.552Z</time></trkpt><trkpt lat="45.045615" lon="11.6479467"><ele>5.7142857142857135</ele><time>2026-04-12T08:36:36.572Z</time></trkpt><trkpt lat="45.045555" lon="11.647985"><ele>5.428571428571429</ele><time>2026-04-12T08:36:37.545Z</time></trkpt><trkpt lat="45.0454933" lon="11.6480233"><ele>5.142857142857142</ele><time>2026-04-12T08:36:38.563Z</time></trkpt><trkpt lat="45.0454317" lon="11.6480617"><ele>4.857142857142857</ele><time>2026-04-12T08:36:39.566Z</time></trkpt><trkpt lat="45.04537" lon="11.6480983"><ele>4.571428571428571</ele><time>2026-04-12T08:36:40.555Z</time></trkpt><trkpt lat="45.045305" lon="11.6481317"><ele>4.285714285714286</ele><time>2026-04-12T08:36:41.554Z</time></trkpt><trkpt lat="45.0452383" lon="11.64817"><ele>4.0</ele><time>2026-04-12T08:36:42.556Z</time></trkpt><trkpt lat="45.0451733" lon="11.6482067"><ele>3.9999999999999996</ele><time>2026-04-12T08:36:43.566Z</time></trkpt><trkpt lat="45.0451083" lon="11.6482467"><ele>4.0</ele><time>2026-04-12T08:36:44.567Z</time></trkpt><trkpt lat="45.0450433" lon="11.648285"><ele>4.0</ele><time>2026-04-12T08:36:45.556Z</time></trkpt><trkpt lat="45.0449817" lon="11.648325"><ele>4.0</ele><time>2026-04-12T08:36:46.558Z</time></trkpt><trkpt lat="45.0449217" lon="11.648365"><ele>3.9999999999999996</ele><time>2026-04-12T08:36:47.569Z</time></trkpt><trkpt lat="45.04486" lon="11.6484017"><ele>4.0</ele><time>2026-04-12T08:36:48.566Z</time></trkpt><trkpt lat="45.0447433" lon="11.64847"><ele>4.0</ele><time>2026-04-12T08:36:50.564Z</time></trkpt><trkpt lat="45.0446833" lon="11.6485083"><ele>3.9999999999999996</ele><time>2026-04-12T08:36:51.566Z</time></trkpt><trkpt lat="45.0446233" lon="11.648545"><ele>4.0</ele><time>2026-04-12T08:36:52.569Z</time></trkpt><trkpt lat="45.0445633" lon="11.64858"><ele>4.0</ele><time>2026-04-12T08:36:53.565Z</time></trkpt><trkpt lat="45.0445033" lon="11.6486167"><ele>3.9999999999999996</ele><time>2026-04-12T08:36:54.563Z</time></trkpt><trkpt lat="45.04444" lon="11.6486533"><ele>4.0</ele><time>2026-04-12T08:36:55.537Z</time></trkpt><trkpt lat="45.044375" lon="11.6486867"><ele>4.0</ele><time>2026-04-12T08:36:56.56Z</time></trkpt><trkpt lat="45.044315" lon="11.648725"><ele>3.9999999999999996</ele><time>2026-04-12T08:36:57.533Z</time></trkpt><trkpt lat="45.0442567" lon="11.64876"><ele>4.0</ele><time>2026-04-12T08:36:58.56Z</time></trkpt><trkpt lat="45.0441967" lon="11.6487933"><ele>4.0</ele><time>2026-04-12T08:36:59.57Z</time></trkpt><trkpt lat="45.0441333" lon="11.648825"><ele>4.0</ele><time>2026-04-12T08:37:00.57Z</time></trkpt><trkpt lat="45.0440717" lon="11.648855"><ele>3.9999999999999996</ele><time>2026-04-12T08:37:01.563Z</time></trkpt><trkpt lat="45.0439633" lon="11.6489267"><ele>4.0</ele><time>2026-04-12T08:37:03.554Z</time></trkpt><trkpt lat="45.0438433" lon="11.6489983"><ele>4.0</ele><time>2026-04-12T08:37:05.566Z</time></trkpt><trkpt lat="45.04378" lon="11.6490367"><ele>3.9999999999999996</ele><time>2026-04-12T08:37:06.547Z</time></trkpt><trkpt lat="45.0437167" lon="11.6490717"><ele>4.0</ele><time>2026-04-12T08:37:07.563Z</time></trkpt><trkpt lat="45.0436533" lon="11.64911"><ele>4.0</ele><time>2026-04-12T08:37:08.565Z</time></trkpt><trkpt lat="45.0435933" lon="11.6491483"><ele>3.9999999999999996</ele><time>2026-04-12T08:37:09.566Z</time></trkpt><trkpt lat="45.0435333" lon="11.6491867"><ele>4.0</ele><time>2026-04-12T08:37:10.538Z</time></trkpt><trkpt lat="45.0434717" lon="11.6492217"><ele>4.0</ele><time>2026-04-12T08:37:11.556Z</time></trkpt><trkpt lat="45.0434117" lon="11.6492567"><ele>4.0</ele><time>2026-04-12T08:37:12.563Z</time></trkpt><trkpt lat="45.04335" lon="11.649295"><ele>4.0</ele><time>2026-04-12T08:37:13.571Z</time></trkpt><trkpt lat="45.0432367" lon="11.64937"><ele>4.0</ele><time>2026-04-12T08:37:15.569Z</time></trkpt><trkpt lat="45.0431783" lon="11.6494067"><ele>4.0</ele><time>2026-04-12T08:37:16.566Z</time></trkpt><trkpt lat="45.0430633" lon="11.64948"><ele>4.0</ele><time>2026-04-12T08:37:18.545Z</time></trkpt><trkpt lat="45.0429467" lon="11.6495467"><ele>4.333333333333333</ele><time>2026-04-12T08:37:20.552Z</time></trkpt><trkpt lat="45.0428283" lon="11.64961"><ele>4.666666666666666</ele><time>2026-04-12T08:37:22.57Z</time></trkpt><trkpt lat="45.0427667" lon="11.6496417"><ele>5.0</ele><time>2026-04-12T08:37:23.558Z</time></trkpt><trkpt lat="45.0427033" lon="11.64967"><ele>5.333333333333333</ele><time>2026-04-12T08:37:24.559Z</time></trkpt><trkpt lat="45.0426417" lon="11.6497"><ele>5.666666666666667</ele><time>2026-04-12T08:37:25.569Z</time></trkpt><trkpt lat="45.0425817" lon="11.64973"><ele>6.0</ele><time>2026-04-12T08:37:26.571Z</time></trkpt><trkpt lat="45.042465" lon="11.64979"><ele>5.857142857142857</ele><time>2026-04-12T08:37:28.564Z</time></trkpt><trkpt lat="45.0424017" lon="11.6498183"><ele>5.714285714285714</ele><time>2026-04-12T08:37:29.564Z</time></trkpt><trkpt lat="45.0423367" lon="11.649845"><ele>5.571428571428571</ele><time>2026-04-12T08:37:30.543Z</time></trkpt><trkpt lat="45.0422717" lon="11.649875"><ele>5.428571428571429</ele><time>2026-04-12T08:37:31.554Z</time></trkpt><trkpt lat="45.04221" lon="11.6499017"><ele>5.285714285714286</ele><time>2026-04-12T08:37:32.569Z</time></trkpt><trkpt lat="45.0421467" lon="11.6499283"><ele>5.142857142857142</ele><time>2026-04-12T08:37:33.575Z</time></trkpt><trkpt lat="45.042085" lon="11.649955"><ele>5.0</ele><time>2026-04-12T08:37:34.563Z</time></trkpt><trkpt lat="45.0420233" lon="11.6499817"><ele>5.0</ele><time>2026-04-12T08:37:35.55Z</time></trkpt><trkpt lat="45.0419633" lon="11.65001"><ele>5.0</ele><time>2026-04-12T08:37:36.56Z</time></trkpt><trkpt lat="45.0419017" lon="11.6500367"><ele>5.0</ele><time>2026-04-12T08:37:37.567Z</time></trkpt><trkpt lat="45.0417783" lon="11.6500933"><ele>5.0</ele><time>2026-04-12T08:37:39.603Z</time></trkpt><trkpt lat="45.0417167" lon="11.6501367"><ele>5.0</ele><time>2026-04-12T08:37:40.609Z</time></trkpt><trkpt lat="45.0415867" lon="11.65018"><ele>4.833333333333334</ele><time>2026-04-12T08:37:42.611Z</time></trkpt><trkpt lat="45.04152" lon="11.6501917"><ele>4.666666666666667</ele><time>2026-04-12T08:37:43.528Z</time></trkpt><trkpt lat="45.04141" lon="11.6502433"><ele>4.5</ele><time>2026-04-12T08:37:45.525Z</time></trkpt><trkpt lat="45.04134" lon="11.6502717"><ele>4.333333333333333</ele><time>2026-04-12T08:37:46.529Z</time></trkpt><trkpt lat="45.0412817" lon="11.6503117"><ele>4.166666666666666</ele><time>2026-04-12T08:37:47.523Z</time></trkpt><trkpt lat="45.0411767" lon="11.6503867"><ele>4.0</ele><time>2026-04-12T08:37:49.528Z</time></trkpt><trkpt lat="45.0411117" lon="11.6504"><ele>4.0</ele><time>2026-04-12T08:37:50.541Z</time></trkpt><trkpt lat="45.0410467" lon="11.6504233"><ele>3.9999999999999996</ele><time>2026-04-12T08:37:51.534Z</time></trkpt><trkpt lat="45.04098" lon="11.65045"><ele>4.0</ele><time>2026-04-12T08:37:52.534Z</time></trkpt><trkpt lat="45.0409133" lon="11.650475"><ele>4.0</ele><time>2026-04-12T08:37:53.53Z</time></trkpt><trkpt lat="45.0408467" lon="11.6505"><ele>3.9999999999999996</ele><time>2026-04-12T08:37:54.528Z</time></trkpt><trkpt lat="45.04078" lon="11.6505283"><ele>4.0</ele><time>2026-04-12T08:37:55.532Z</time></trkpt><trkpt lat="45.0407133" lon="11.650555"><ele>4.0</ele><time>2026-04-12T08:37:56.544Z</time></trkpt><trkpt lat="45.04065" lon="11.65058"><ele>3.9999999999999996</ele><time>2026-04-12T08:37:57.536Z</time></trkpt><trkpt lat="45.0405867" lon="11.6506083"><ele>4.0</ele><time>2026-04-12T08:37:58.53Z</time></trkpt><trkpt lat="45.0405267" lon="11.6506367"><ele>4.0</ele><time>2026-04-12T08:37:59.529Z</time></trkpt><trkpt lat="45.0404067" lon="11.6506883"><ele>4.0</ele><time>2026-04-12T08:38:01.539Z</time></trkpt><trkpt lat="45.0403433" lon="11.6507167"><ele>3.9999999999999996</ele><time>2026-04-12T08:38:02.531Z</time></trkpt><trkpt lat="45.04028" lon="11.650745"><ele>4.0</ele><time>2026-04-12T08:38:03.53Z</time></trkpt><trkpt lat="45.0401567" lon="11.6507967"><ele>3.9999999999999996</ele><time>2026-04-12T08:38:05.53Z</time></trkpt><trkpt lat="45.0400367" lon="11.65085"><ele>4.0</ele><time>2026-04-12T08:38:07.537Z</time></trkpt><trkpt lat="45.0399717" lon="11.65088"><ele>4.0</ele><time>2026-04-12T08:38:08.537Z</time></trkpt><trkpt lat="45.03991" lon="11.6509083"><ele>4.0</ele><time>2026-04-12T08:38:09.533Z</time></trkpt><trkpt lat="45.0398467" lon="11.6509317"><ele>3.9999999999999996</ele><time>2026-04-12T08:38:10.537Z</time></trkpt><trkpt lat="45.0397817" lon="11.6509533"><ele>4.0</ele><time>2026-04-12T08:38:11.536Z</time></trkpt><trkpt lat="45.0397183" lon="11.6509783"><ele>3.8571428571428568</ele><time>2026-04-12T08:38:12.544Z</time></trkpt><trkpt lat="45.039655" lon="11.6510083"><ele>3.714285714285714</ele><time>2026-04-12T08:38:13.532Z</time></trkpt><trkpt lat="45.0395917" lon="11.651035"><ele>3.571428571428571</ele><time>2026-04-12T08:38:14.535Z</time></trkpt><trkpt lat="45.0395267" lon="11.65106"><ele>3.4285714285714284</ele><time>2026-04-12T08:38:15.539Z</time></trkpt><trkpt lat="45.0394633" lon="11.6510867"><ele>3.2857142857142856</ele><time>2026-04-12T08:38:16.531Z</time></trkpt><trkpt lat="45.0393983" lon="11.6511133"><ele>3.1428571428571423</ele><time>2026-04-12T08:38:17.532Z</time></trkpt><trkpt lat="45.039335" lon="11.6511383"><ele>3.0</ele><time>2026-04-12T08:38:18.535Z</time></trkpt><trkpt lat="45.0392717" lon="11.6511633"><ele>2.8571428571428568</ele><time>2026-04-12T08:38:19.533Z</time></trkpt><trkpt lat="45.0392117" lon="11.6511917"><ele>2.7142857142857144</ele><time>2026-04-12T08:38:20.538Z</time></trkpt><trkpt lat="45.0391483" lon="11.65122"><ele>2.571428571428571</ele><time>2026-04-12T08:38:21.532Z</time></trkpt><trkpt lat="45.0390833" lon="11.651245"><ele>2.4285714285714284</ele><time>2026-04-12T08:38:22.525Z</time></trkpt><trkpt lat="45.03902" lon="11.651275"><ele>2.2857142857142856</ele><time>2026-04-12T08:38:23.529Z</time></trkpt><trkpt lat="45.0389567" lon="11.651305"><ele>2.142857142857143</ele><time>2026-04-12T08:38:24.533Z</time></trkpt><trkpt lat="45.0388917" lon="11.6513317"><ele>2.0</ele><time>2026-04-12T08:38:25.538Z</time></trkpt><trkpt lat="45.03883" lon="11.65136"><ele>2.2857142857142856</ele><time>2026-04-12T08:38:26.542Z</time></trkpt><trkpt lat="45.0387667" lon="11.65139"><ele>2.571428571428571</ele><time>2026-04-12T08:38:27.536Z</time></trkpt><trkpt lat="45.0387017" lon="11.6514183"><ele>2.8571428571428568</ele><time>2026-04-12T08:38:28.537Z</time></trkpt><trkpt lat="45.038635" lon="11.6514483"><ele>3.142857142857143</ele><time>2026-04-12T08:38:29.529Z</time></trkpt><trkpt lat="45.0385667" lon="11.6514733"><ele>3.428571428571428</ele><time>2026-04-12T08:38:30.538Z</time></trkpt><trkpt lat="45.0385" lon="11.6514983"><ele>3.714285714285714</ele><time>2026-04-12T08:38:31.529Z</time></trkpt><trkpt lat="45.0384333" lon="11.651525"><ele>4.0</ele><time>2026-04-12T08:38:32.546Z</time></trkpt><trkpt lat="45.0383683" lon="11.6515517"><ele>4.0</ele><time>2026-04-12T08:38:33.538Z</time></trkpt><trkpt lat="45.0383033" lon="11.6515733"><ele>3.9999999999999996</ele><time>2026-04-12T08:38:34.549Z</time></trkpt><trkpt lat="45.0382417" lon="11.651595"><ele>4.0</ele><time>2026-04-12T08:38:35.548Z</time></trkpt><trkpt lat="45.03818" lon="11.6516133"><ele>4.0</ele><time>2026-04-12T08:38:36.55Z</time></trkpt><trkpt lat="45.0381133" lon="11.651625"><ele>3.9999999999999996</ele><time>2026-04-12T08:38:37.543Z</time></trkpt><trkpt lat="45.0380467" lon="11.6516333"><ele>4.0</ele><time>2026-04-12T08:38:38.531Z</time></trkpt><trkpt lat="45.0379783" lon="11.6516383"><ele>4.0</ele><time>2026-04-12T08:38:39.546Z</time></trkpt><trkpt lat="45.03791" lon="11.6516333"><ele>4.0</ele><time>2026-04-12T08:38:40.549Z</time></trkpt><trkpt lat="45.03784" lon="11.6516233"><ele>3.9999999999999996</ele><time>2026-04-12T08:38:41.548Z</time></trkpt><trkpt lat="45.0377667" lon="11.65161"><ele>4.0</ele><time>2026-04-12T08:38:42.545Z</time></trkpt><trkpt lat="45.037695" lon="11.651595"><ele>4.0</ele><time>2026-04-12T08:38:43.55Z</time></trkpt><trkpt lat="45.03762" lon="11.6515717"><ele>3.9999999999999996</ele><time>2026-04-12T08:38:44.548Z</time></trkpt><trkpt lat="45.0375483" lon="11.6515483"><ele>4.0</ele><time>2026-04-12T08:38:45.54Z</time></trkpt><trkpt lat="45.0374783" lon="11.65152"><ele>4.0</ele><time>2026-04-12T08:38:46.532Z</time></trkpt><trkpt lat="45.0374067" lon="11.6514933"><ele>4.0</ele><time>2026-04-12T08:38:47.542Z</time></trkpt><trkpt lat="45.0373333" lon="11.6514633"><ele>3.9999999999999996</ele><time>2026-04-12T08:38:48.526Z</time></trkpt><trkpt lat="45.0372617" lon="11.6514317"><ele>4.0</ele><time>2026-04-12T08:38:49.534Z</time></trkpt><trkpt lat="45.0371933" lon="11.6514033"><ele>4.0</ele><time>2026-04-12T08:38:50.531Z</time></trkpt><trkpt lat="45.03713" lon="11.65138"><ele>3.9999999999999996</ele><time>2026-04-12T08:38:51.54Z</time></trkpt><trkpt lat="45.0370667" lon="11.6513567"><ele>4.0</ele><time>2026-04-12T08:38:52.548Z</time></trkpt><trkpt lat="45.037005" lon="11.65133"><ele>4.0</ele><time>2026-04-12T08:38:53.532Z</time></trkpt><trkpt lat="45.0369417" lon="11.651305"><ele>4.0</ele><time>2026-04-12T08:38:54.547Z</time></trkpt><trkpt lat="45.0368783" lon="11.65128"><ele>4.0</ele><time>2026-04-12T08:38:55.539Z</time></trkpt><trkpt lat="45.0368167" lon="11.6512567"><ele>4.0</ele><time>2026-04-12T08:38:56.544Z</time></trkpt><trkpt lat="45.0367" lon="11.6512133"><ele>4.0</ele><time>2026-04-12T08:38:58.535Z</time></trkpt><trkpt lat="45.0365833" lon="11.651165"><ele>4.0</ele><time>2026-04-12T08:39:00.531Z</time></trkpt><trkpt lat="45.0364683" lon="11.6511183"><ele>3.8000000000000003</ele><time>2026-04-12T08:39:02.523Z</time></trkpt><trkpt lat="45.0363467" lon="11.6510817"><ele>3.6000000000000005</ele><time>2026-04-12T08:39:04.536Z</time></trkpt><trkpt lat="45.0362317" lon="11.651045"><ele>3.4</ele><time>2026-04-12T08:39:06.548Z</time></trkpt><trkpt lat="45.0361117" lon="11.650995"><ele>3.2</ele><time>2026-04-12T08:39:08.536Z</time></trkpt><trkpt lat="45.03605" lon="11.6509717"><ele>3.0</ele><time>2026-04-12T08:39:09.531Z</time></trkpt><trkpt lat="45.0359317" lon="11.6509267"><ele>3.0</ele><time>2026-04-12T08:39:11.545Z</time></trkpt><trkpt lat="45.0358133" lon="11.6508883"><ele>3.0</ele><time>2026-04-12T08:39:13.535Z</time></trkpt><trkpt lat="45.0357017" lon="11.6508717"><ele>3.0</ele><time>2026-04-12T08:39:15.551Z</time></trkpt><trkpt lat="45.03559" lon="11.6508617"><ele>3.0</ele><time>2026-04-12T08:39:17.552Z</time></trkpt><trkpt lat="45.0354817" lon="11.6508467"><ele>3.0</ele><time>2026-04-12T08:39:19.531Z</time></trkpt><trkpt lat="45.0353717" lon="11.6508333"><ele>3.0</ele><time>2026-04-12T08:39:21.528Z</time></trkpt><trkpt lat="45.035265" lon="11.650825"><ele>3.0</ele><time>2026-04-12T08:39:23.542Z</time></trkpt><trkpt lat="45.0351633" lon="11.6508183"><ele>3.0</ele><time>2026-04-12T08:39:25.532Z</time></trkpt><trkpt lat="45.0350583" lon="11.6508117"><ele>3.0</ele><time>2026-04-12T08:39:27.545Z</time></trkpt><trkpt lat="45.0349483" lon="11.6508067"><ele>3.2</ele><time>2026-04-12T08:39:29.529Z</time></trkpt><trkpt lat="45.0348383" lon="11.6508"><ele>3.4</ele><time>2026-04-12T08:39:31.552Z</time></trkpt><trkpt lat="45.0347333" lon="11.6507933"><ele>3.6000000000000005</ele><time>2026-04-12T08:39:33.547Z</time></trkpt><trkpt lat="45.0346283" lon="11.6507917"><ele>3.8000000000000003</ele><time>2026-04-12T08:39:35.532Z</time></trkpt><trkpt lat="45.0345267" lon="11.6507817"><ele>4.0</ele><time>2026-04-12T08:39:37.531Z</time></trkpt><trkpt lat="45.034425" lon="11.650775"><ele>4.0</ele><time>2026-04-12T08:39:39.54Z</time></trkpt><trkpt lat="45.034325" lon="11.6507633"><ele>4.0</ele><time>2026-04-12T08:39:41.548Z</time></trkpt><trkpt lat="45.0342283" lon="11.6507583"><ele>4.0</ele><time>2026-04-12T08:39:43.544Z</time></trkpt><trkpt lat="45.0341283" lon="11.6507517"><ele>4.0</ele><time>2026-04-12T08:39:45.53Z</time></trkpt><trkpt lat="45.03403" lon="11.6507467"><ele>4.0</ele><time>2026-04-12T08:39:47.539Z</time></trkpt><trkpt lat="45.0339367" lon="11.6507417"><ele>3.8000000000000003</ele><time>2026-04-12T08:39:49.534Z</time></trkpt><trkpt lat="45.0338467" lon="11.65074"><ele>3.6000000000000005</ele><time>2026-04-12T08:39:51.542Z</time></trkpt><trkpt lat="45.03375" lon="11.6507317"><ele>3.4</ele><time>2026-04-12T08:39:53.535Z</time></trkpt><trkpt lat="45.0336517" lon="11.6507217"><ele>3.2</ele><time>2026-04-12T08:39:55.532Z</time></trkpt><trkpt lat="45.0335517" lon="11.6507117"><ele>3.0</ele><time>2026-04-12T08:39:57.54Z</time></trkpt><trkpt lat="45.03345" lon="11.6506967"><ele>3.0</ele><time>2026-04-12T08:39:59.546Z</time></trkpt><trkpt lat="45.0333517" lon="11.6506783"><ele>3.0</ele><time>2026-04-12T08:40:01.536Z</time></trkpt><trkpt lat="45.0332517" lon="11.650655"><ele>3.0</ele><time>2026-04-12T08:40:03.535Z</time></trkpt><trkpt lat="45.03316" lon="11.6506283"><ele>3.0</ele><time>2026-04-12T08:40:05.541Z</time></trkpt><trkpt lat="45.0330717" lon="11.6506017"><ele>3.0</ele><time>2026-04-12T08:40:07.533Z</time></trkpt><trkpt lat="45.0329833" lon="11.6505733"><ele>3.5999999999999996</ele><time>2026-04-12T08:40:09.551Z</time></trkpt><trkpt lat="45.0328917" lon="11.6505417"><ele>4.199999999999999</ele><time>2026-04-12T08:40:11.543Z</time></trkpt><trkpt lat="45.0328" lon="11.6505067"><ele>4.8</ele><time>2026-04-12T08:40:13.537Z</time></trkpt><trkpt lat="45.0327067" lon="11.650475"><ele>5.3999999999999995</ele><time>2026-04-12T08:40:15.535Z</time></trkpt><trkpt lat="45.03261" lon="11.6504433"><ele>6.0</ele><time>2026-04-12T08:40:17.552Z</time></trkpt><trkpt lat="45.03252" lon="11.65041"><ele>6.0</ele><time>2026-04-12T08:40:19.532Z</time></trkpt><trkpt lat="45.0324233" lon="11.6503717"><ele>6.0</ele><time>2026-04-12T08:40:21.548Z</time></trkpt><trkpt lat="45.0323283" lon="11.6503333"><ele>6.0</ele><time>2026-04-12T08:40:23.552Z</time></trkpt><trkpt lat="45.0322317" lon="11.6502917"><ele>6.0</ele><time>2026-04-12T08:40:25.537Z</time></trkpt><trkpt lat="45.0321283" lon="11.6502483"><ele>6.0</ele><time>2026-04-12T08:40:27.544Z</time></trkpt><trkpt lat="45.032025" lon="11.65021"><ele>6.0</ele><time>2026-04-12T08:40:29.529Z</time></trkpt><trkpt lat="45.0319217" lon="11.6501733"><ele>6.0</ele><time>2026-04-12T08:40:31.55Z</time></trkpt><trkpt lat="45.0318183" lon="11.6501383"><ele>6.0</ele><time>2026-04-12T08:40:33.533Z</time></trkpt><trkpt lat="45.0317167" lon="11.650105"><ele>6.0</ele><time>2026-04-12T08:40:35.549Z</time></trkpt><trkpt lat="45.0316217" lon="11.6500683"><ele>6.0</ele><time>2026-04-12T08:40:37.546Z</time></trkpt><trkpt lat="45.0315233" lon="11.650035"><ele>5.8</ele><time>2026-04-12T08:40:39.548Z</time></trkpt><trkpt lat="45.031425" lon="11.649995"><ele>5.6</ele><time>2026-04-12T08:40:41.524Z</time></trkpt><trkpt lat="45.03133" lon="11.6499567"><ele>5.4</ele><time>2026-04-12T08:40:43.536Z</time></trkpt><trkpt lat="45.031235" lon="11.6499217"><ele>5.2</ele><time>2026-04-12T08:40:45.528Z</time></trkpt><trkpt lat="45.0311417" lon="11.64987"><ele>5.0</ele><time>2026-04-12T08:40:47.547Z</time></trkpt><trkpt lat="45.0310483" lon="11.64983"><ele>5.0</ele><time>2026-04-12T08:40:49.536Z</time></trkpt><trkpt lat="45.03096" lon="11.64978"><ele>5.0</ele><time>2026-04-12T08:40:51.541Z</time></trkpt><trkpt lat="45.030875" lon="11.6497283"><ele>5.0</ele><time>2026-04-12T08:40:53.532Z</time></trkpt><trkpt lat="45.03079" lon="11.6496733"><ele>5.0</ele><time>2026-04-12T08:40:55.534Z</time></trkpt><trkpt lat="45.0307067" lon="11.649615"><ele>5.0</ele><time>2026-04-12T08:40:57.539Z</time></trkpt><trkpt lat="45.030625" lon="11.6495483"><ele>5.0</ele><time>2026-04-12T08:40:59.533Z</time></trkpt><trkpt lat="45.030545" lon="11.64948"><ele>5.0</ele><time>2026-04-12T08:41:01.533Z</time></trkpt><trkpt lat="45.03047" lon="11.6494067"><ele>5.0</ele><time>2026-04-12T08:41:03.536Z</time></trkpt><trkpt lat="45.030395" lon="11.649325"><ele>5.0</ele><time>2026-04-12T08:41:05.541Z</time></trkpt><trkpt lat="45.0303267" lon="11.6492517"><ele>5.0</ele><time>2026-04-12T08:41:07.535Z</time></trkpt><trkpt lat="45.0302617" lon="11.6491767"><ele>5.0</ele><time>2026-04-12T08:41:09.533Z</time></trkpt><trkpt lat="45.0301933" lon="11.6490967"><ele>5.4</ele><time>2026-04-12T08:41:11.543Z</time></trkpt><trkpt lat="45.0301267" lon="11.6490167"><ele>5.8</ele><time>2026-04-12T08:41:13.533Z</time></trkpt><trkpt lat="45.0300467" lon="11.6489383"><ele>6.199999999999999</ele><time>2026-04-12T08:41:15.534Z</time></trkpt><trkpt lat="45.0299767" lon="11.64886"><ele>6.6</ele><time>2026-04-12T08:41:17.538Z</time></trkpt><trkpt lat="45.0299" lon="11.6487733"><ele>7.0</ele><time>2026-04-12T08:41:19.549Z</time></trkpt><trkpt lat="45.0298183" lon="11.6486867"><ele>7.000000000000001</ele><time>2026-04-12T08:41:21.537Z</time></trkpt><trkpt lat="45.0297367" lon="11.64861"><ele>7.0</ele><time>2026-04-12T08:41:23.534Z</time></trkpt><trkpt lat="45.0296633" lon="11.6485383"><ele>7.0</ele><time>2026-04-12T08:41:25.551Z</time></trkpt><trkpt lat="45.0296067" lon="11.6484883"><ele>7.0</ele><time>2026-04-12T08:41:27.535Z</time></trkpt><trkpt lat="45.0295433" lon="11.6484333"><ele>7.000000000000001</ele><time>2026-04-12T08:41:31.534Z</time></trkpt><trkpt lat="45.029485" lon="11.6483733"><ele>7.0</ele><time>2026-04-12T08:41:45.547Z</time></trkpt><trkpt lat="45.0294217" lon="11.6483367"><ele>7.000000000000001</ele><time>2026-04-12T08:41:48.573Z</time></trkpt><trkpt lat="45.0293433" lon="11.6482817"><ele>7.0</ele><time>2026-04-12T08:41:51.564Z</time></trkpt><trkpt lat="45.0292533" lon="11.6482467"><ele>7.0</ele><time>2026-04-12T08:41:54.556Z</time></trkpt><trkpt lat="45.0291867" lon="11.64822"><ele>7.0</ele><time>2026-04-12T08:41:56.573Z</time></trkpt><trkpt lat="45.0291183" lon="11.6481883"><ele>7.000000000000001</ele><time>2026-04-12T08:41:58.562Z</time></trkpt><trkpt lat="45.0290433" lon="11.6481633"><ele>7.0</ele><time>2026-04-12T08:42:00.56Z</time></trkpt><trkpt lat="45.0289683" lon="11.64813"><ele>7.000000000000001</ele><time>2026-04-12T08:42:02.57Z</time></trkpt><trkpt lat="45.028895" lon="11.6480967"><ele>7.0</ele><time>2026-04-12T08:42:04.563Z</time></trkpt><trkpt lat="45.0288217" lon="11.648065"><ele>7.0</ele><time>2026-04-12T08:42:06.564Z</time></trkpt><trkpt lat="45.0287483" lon="11.6480283"><ele>7.0</ele><time>2026-04-12T08:42:08.557Z</time></trkpt><trkpt lat="45.0286733" lon="11.6479917"><ele>7.000000000000001</ele><time>2026-04-12T08:42:10.552Z</time></trkpt><trkpt lat="45.0286" lon="11.6479617"><ele>7.0</ele><time>2026-04-12T08:42:12.572Z</time></trkpt><trkpt lat="45.02852" lon="11.6479283"><ele>7.000000000000001</ele><time>2026-04-12T08:42:14.563Z</time></trkpt><trkpt lat="45.0284467" lon="11.6478933"><ele>7.0</ele><time>2026-04-12T08:42:16.564Z</time></trkpt><trkpt lat="45.0283783" lon="11.6478683"><ele>7.0</ele><time>2026-04-12T08:42:18.551Z</time></trkpt><trkpt lat="45.028305" lon="11.6478517"><ele>7.0</ele><time>2026-04-12T08:42:20.56Z</time></trkpt><trkpt lat="45.0282283" lon="11.647825"><ele>7.000000000000001</ele><time>2026-04-12T08:42:22.568Z</time></trkpt><trkpt lat="45.0281417" lon="11.64779"><ele>7.0</ele><time>2026-04-12T08:42:24.604Z</time></trkpt><trkpt lat="45.0280567" lon="11.64777"><ele>6.833333333333334</ele><time>2026-04-12T08:42:26.567Z</time></trkpt><trkpt lat="45.0279767" lon="11.6477533"><ele>6.666666666666667</ele><time>2026-04-12T08:42:28.558Z</time></trkpt><trkpt lat="45.0278883" lon="11.64773"><ele>6.5</ele><time>2026-04-12T08:42:30.531Z</time></trkpt><trkpt lat="45.027795" lon="11.6476883"><ele>6.333333333333334</ele><time>2026-04-12T08:42:32.533Z</time></trkpt><trkpt lat="45.0277267" lon="11.6476683"><ele>6.166666666666667</ele><time>2026-04-12T08:42:34.543Z</time></trkpt><trkpt lat="45.0276617" lon="11.6476333"><ele>6.0</ele><time>2026-04-12T08:42:36.557Z</time></trkpt><trkpt lat="45.0275983" lon="11.6476017"><ele>6.0</ele><time>2026-04-12T08:42:38.559Z</time></trkpt><trkpt lat="45.0275133" lon="11.6475583"><ele>6.0</ele><time>2026-04-12T08:42:41.557Z</time></trkpt><trkpt lat="45.0274383" lon="11.64752"><ele>6.0</ele><time>2026-04-12T08:42:44.573Z</time></trkpt><trkpt lat="45.0275067" lon="11.6475483"><ele>6.0</ele><time>2026-04-12T08:43:03.533Z</time></trkpt><trkpt lat="45.0275717" lon="11.64759"><ele>6.0</ele><time>2026-04-12T08:43:08.536Z</time></trkpt><trkpt lat="45.0276447" lon="11.6476154"><ele>6.0</ele><time>2026-04-12T08:43:14.55Z</time></trkpt><trkpt lat="45.0277125" lon="11.6476539"><ele>5.999999999999999</ele><time>2026-04-12T08:43:19.554Z</time></trkpt><trkpt lat="45.0277775" lon="11.6476584"><ele>6.0</ele><time>2026-04-12T08:43:24.528Z</time></trkpt><trkpt lat="45.0278186" lon="11.6475862"><ele>6.0</ele><time>2026-04-12T08:43:29.544Z</time></trkpt><trkpt lat="45.0278486" lon="11.6474929"><ele>6.0</ele><time>2026-04-12T08:43:40.574Z</time></trkpt><trkpt lat="45.0278877" lon="11.6473773"><ele>6.0</ele><time>2026-04-12T08:43:52.546Z</time></trkpt><trkpt lat="45.0279275" lon="11.6473011"><ele>5.999999999999999</ele><time>2026-04-12T08:43:55.554Z</time></trkpt><trkpt lat="45.0279639" lon="11.6471998"><ele>6.0</ele><time>2026-04-12T08:43:58.584Z</time></trkpt><trkpt lat="45.0279783" lon="11.6471093"><ele>5.999999999999999</ele><time>2026-04-12T08:44:01.584Z</time></trkpt><trkpt lat="45.0279913" lon="11.646992"><ele>6.0</ele><time>2026-04-12T08:44:05.551Z</time></trkpt><trkpt lat="45.0280171" lon="11.6469041"><ele>6.0</ele><time>2026-04-12T08:44:09.526Z</time></trkpt><trkpt lat="45.0280249" lon="11.6468095"><ele>6.0</ele><time>2026-04-12T08:44:14.547Z</time></trkpt><trkpt lat="45.0280243" lon="11.6467087"><ele>6.0</ele><time>2026-04-12T08:44:22.499Z</time></trkpt><trkpt lat="45.0280736" lon="11.6466402"><ele>5.999999999999999</ele><time>2026-04-12T08:44:55.536Z</time></trkpt><trkpt lat="45.0281133" lon="11.6465464"><ele>6.0</ele><time>2026-04-12T08:46:25.533Z</time></trkpt><trkpt lat="45.0281454" lon="11.6464693"><ele>5.999999999999999</ele><time>2026-04-12T08:46:29.565Z</time></trkpt><trkpt lat="45.0281834" lon="11.6463957"><ele>6.0</ele><time>2026-04-12T08:46:33.613Z</time></trkpt><trkpt lat="45.0282349" lon="11.6463394"><ele>6.0</ele><time>2026-04-12T08:46:39.539Z</time></trkpt><trkpt lat="45.0282887" lon="11.6462598"><ele>6.0</ele><time>2026-04-12T08:46:50.486Z</time></trkpt><trkpt lat="45.0283313" lon="11.6461784"><ele>6.0</ele><time>2026-04-12T08:46:54.56Z</time></trkpt><trkpt lat="45.028376" lon="11.6460995"><ele>5.999999999999999</ele><time>2026-04-12T08:46:59.604Z</time></trkpt><trkpt lat="45.0283989" lon="11.6460068"><ele>6.0</ele><time>2026-04-12T08:47:03.439Z</time></trkpt><trkpt lat="45.028454" lon="11.6459287"><ele>6.166666666666667</ele><time>2026-04-12T08:47:08.537Z</time></trkpt><trkpt lat="45.0284865" lon="11.6458335"><ele>6.333333333333334</ele><time>2026-04-12T08:47:12.558Z</time></trkpt><trkpt lat="45.0285277" lon="11.6457474"><ele>6.5</ele><time>2026-04-12T08:47:22.713Z</time></trkpt><trkpt lat="45.0285198" lon="11.6456461"><ele>6.666666666666667</ele><time>2026-04-12T08:47:28.532Z</time></trkpt><trkpt lat="45.0285308" lon="11.6455466"><ele>6.833333333333334</ele><time>2026-04-12T08:47:33.988Z</time></trkpt><trkpt lat="45.0285827" lon="11.6454023"><ele>7.0</ele><time>2026-04-12T08:47:46.46Z</time></trkpt><trkpt lat="45.0286105" lon="11.6452964"><ele>7.0</ele><time>2026-04-12T08:47:53.539Z</time></trkpt><trkpt lat="45.0286395" lon="11.6452097"><ele>7.0</ele><time>2026-04-12T08:48:01.186Z</time></trkpt><trkpt lat="45.0286589" lon="11.6451214"><ele>7.0</ele><time>2026-04-12T08:48:05.485Z</time></trkpt><trkpt lat="45.0286802" lon="11.6450229"><ele>7.0</ele><time>2026-04-12T08:48:08.619Z</time></trkpt><trkpt lat="45.0286939" lon="11.6449348"><ele>7.0</ele><time>2026-04-12T08:48:13.058Z</time></trkpt><trkpt lat="45.0287108" lon="11.6448406"><ele>7.0</ele><time>2026-04-12T08:48:17.582Z</time></trkpt><trkpt lat="45.0287259" lon="11.6447246"><ele>7.0</ele><time>2026-04-12T08:48:21.561Z</time></trkpt><trkpt lat="45.0287049" lon="11.6446329"><ele>7.0</ele><time>2026-04-12T08:48:24.589Z</time></trkpt><trkpt lat="45.0286362" lon="11.6446422"><ele>7.0</ele><time>2026-04-12T08:48:30.559Z</time></trkpt><trkpt lat="45.0285771" lon="11.6445848"><ele>7.0</ele><time>2026-04-12T08:48:48.501Z</time></trkpt><trkpt lat="45.0285158" lon="11.644541"><ele>7.0</ele><time>2026-04-12T08:48:52.664Z</time></trkpt><trkpt lat="45.0284743" lon="11.6444489"><ele>7.0</ele><time>2026-04-12T08:48:55.538Z</time></trkpt><trkpt lat="45.0284201" lon="11.6443725"><ele>7.0</ele><time>2026-04-12T08:48:59.545Z</time></trkpt><trkpt lat="45.0283881" lon="11.6442716"><ele>7.0</ele><time>2026-04-12T08:49:07.588Z</time></trkpt><trkpt lat="45.0283507" lon="11.644188"><ele>6.8</ele><time>2026-04-12T08:49:11.552Z</time></trkpt><trkpt lat="45.0282761" lon="11.6441277"><ele>6.6</ele><time>2026-04-12T08:49:21.106Z</time></trkpt><trkpt lat="45.0282257" lon="11.6440389"><ele>6.3999999999999995</ele><time>2026-04-12T08:49:28.206Z</time></trkpt><trkpt lat="45.0281103" lon="11.643869"><ele>6.199999999999999</ele><time>2026-04-12T08:49:50.54Z</time></trkpt><trkpt lat="45.0280417" lon="11.6437956"><ele>6.0</ele><time>2026-04-12T08:49:58.999Z</time></trkpt><trkpt lat="45.0279349" lon="11.6436803"><ele>5.999999999999999</ele><time>2026-04-12T08:50:10.529Z</time></trkpt><trkpt lat="45.0278601" lon="11.6436523"><ele>6.0</ele><time>2026-04-12T08:50:16.52Z</time></trkpt><trkpt lat="45.0278574" lon="11.6435554"><ele>6.0</ele><time>2026-04-12T08:50:18.559Z</time></trkpt><trkpt lat="45.0278376" lon="11.6434615"><ele>6.0</ele><time>2026-04-12T08:50:20.545Z</time></trkpt><trkpt lat="45.0277824" lon="11.643403"><ele>6.0</ele><time>2026-04-12T08:50:24.544Z</time></trkpt><trkpt lat="45.0277192" lon="11.643389"><ele>5.999999999999999</ele><time>2026-04-12T08:50:31.529Z</time></trkpt><trkpt lat="45.0276605" lon="11.6434271"><ele>6.0</ele><time>2026-04-12T08:50:47.589Z</time></trkpt><trkpt lat="45.0276102" lon="11.643371"><ele>6.0</ele><time>2026-04-12T08:50:53.541Z</time></trkpt><trkpt lat="45.0275659" lon="11.6433073"><ele>6.0</ele><time>2026-04-12T08:50:59.538Z</time></trkpt><trkpt lat="45.0275184" lon="11.6432244"><ele>6.0</ele><time>2026-04-12T08:51:06.535Z</time></trkpt><trkpt lat="45.0274736" lon="11.6431498"><ele>6.0</ele><time>2026-04-12T08:51:08.537Z</time></trkpt><trkpt lat="45.0273798" lon="11.6430169"><ele>6.0</ele><time>2026-04-12T08:51:21.532Z</time></trkpt><trkpt lat="45.0273284" lon="11.6429615"><ele>6.0</ele><time>2026-04-12T08:51:30.534Z</time></trkpt><trkpt lat="45.0272504" lon="11.642875"><ele>6.142857142857142</ele><time>2026-04-12T08:51:35.53Z</time></trkpt><trkpt lat="45.0272108" lon="11.6427947"><ele>6.285714285714286</ele><time>2026-04-12T08:51:38.549Z</time></trkpt><trkpt lat="45.027154" lon="11.6427208"><ele>6.428571428571429</ele><time>2026-04-12T08:51:42.531Z</time></trkpt><trkpt lat="45.0271186" lon="11.6426433"><ele>6.571428571428571</ele><time>2026-04-12T08:51:46.48Z</time></trkpt><trkpt lat="45.0270707" lon="11.6425694"><ele>6.714285714285714</ele><time>2026-04-12T08:51:52.549Z</time></trkpt><trkpt lat="45.0270222" lon="11.6425062"><ele>6.857142857142857</ele><time>2026-04-12T08:51:57.529Z</time></trkpt><trkpt lat="45.0269694" lon="11.6424286"><ele>7.0</ele><time>2026-04-12T08:52:02.533Z</time></trkpt><trkpt lat="45.0269073" lon="11.642362"><ele>7.0</ele><time>2026-04-12T08:52:07.539Z</time></trkpt><trkpt lat="45.0268483" lon="11.6423291"><ele>7.0</ele><time>2026-04-12T08:52:15.535Z</time></trkpt><trkpt lat="45.0267838" lon="11.6422775"><ele>7.0</ele><time>2026-04-12T08:52:20.549Z</time></trkpt><trkpt lat="45.0267288" lon="11.6422121"><ele>7.0</ele><time>2026-04-12T08:52:23.465Z</time></trkpt><trkpt lat="45.0266727" lon="11.6421358"><ele>7.0</ele><time>2026-04-12T08:52:27.528Z</time></trkpt><trkpt lat="45.026626" lon="11.6420547"><ele>7.0</ele><time>2026-04-12T08:52:32.54Z</time></trkpt><trkpt lat="45.0265639" lon="11.6419978"><ele>7.0</ele><time>2026-04-12T08:52:39.539Z</time></trkpt><trkpt lat="45.0265147" lon="11.6419318"><ele>6.857142857142857</ele><time>2026-04-12T08:52:47.44Z</time></trkpt><trkpt lat="45.026456" lon="11.6418885"><ele>6.714285714285714</ele><time>2026-04-12T08:52:49.579Z</time></trkpt><trkpt lat="45.0263919" lon="11.6418676"><ele>6.571428571428571</ele><time>2026-04-12T08:52:54.525Z</time></trkpt><trkpt lat="45.026332" lon="11.6418239"><ele>6.428571428571429</ele><time>2026-04-12T08:52:59.501Z</time></trkpt><trkpt lat="45.0262671" lon="11.641791"><ele>6.285714285714286</ele><time>2026-04-12T08:53:05.533Z</time></trkpt><trkpt lat="45.0261986" lon="11.6417505"><ele>6.142857142857142</ele><time>2026-04-12T08:53:14.531Z</time></trkpt><trkpt lat="45.0261256" lon="11.6417457"><ele>6.0</ele><time>2026-04-12T08:53:19.542Z</time></trkpt><trkpt lat="45.026058" lon="11.6417265"><ele>5.999999999999999</ele><time>2026-04-12T08:53:23.549Z</time></trkpt><trkpt lat="45.025984" lon="11.641707"><ele>6.0</ele><time>2026-04-12T08:53:35.589Z</time></trkpt><trkpt lat="45.0259136" lon="11.6416891"><ele>6.0</ele><time>2026-04-12T08:53:38.534Z</time></trkpt><trkpt lat="45.0258466" lon="11.6416492"><ele>6.0</ele><time>2026-04-12T08:53:42.589Z</time></trkpt><trkpt lat="45.0257795" lon="11.6416059"><ele>6.0</ele><time>2026-04-12T08:53:46.539Z</time></trkpt><trkpt lat="45.0257128" lon="11.6415804"><ele>5.999999999999999</ele><time>2026-04-12T08:53:50.54Z</time></trkpt><trkpt lat="45.025648" lon="11.6415829"><ele>6.0</ele><time>2026-04-12T08:53:57.548Z</time></trkpt><trkpt lat="45.0255715" lon="11.64156"><ele>5.833333333333333</ele><time>2026-04-12T08:54:03.539Z</time></trkpt><trkpt lat="45.0255045" lon="11.6415405"><ele>5.666666666666667</ele><time>2026-04-12T08:54:06.481Z</time></trkpt><trkpt lat="45.0254539" lon="11.6414833"><ele>5.5</ele><time>2026-04-12T08:54:11.541Z</time></trkpt><trkpt lat="45.0254406" lon="11.6413095"><ele>5.333333333333334</ele><time>2026-04-12T08:54:28.484Z</time></trkpt><trkpt lat="45.025456" lon="11.6412225"><ele>5.166666666666667</ele><time>2026-04-12T08:54:39.609Z</time></trkpt><trkpt lat="45.0254648" lon="11.6411297"><ele>5.0</ele><time>2026-04-12T08:54:43.545Z</time></trkpt><trkpt lat="45.0254335" lon="11.6410267"><ele>5.285714285714286</ele><time>2026-04-12T08:54:48.579Z</time></trkpt><trkpt lat="45.0254239" lon="11.6409348"><ele>5.571428571428571</ele><time>2026-04-12T08:54:52.578Z</time></trkpt><trkpt lat="45.0254192" lon="11.6408446"><ele>5.857142857142858</ele><time>2026-04-12T08:54:56.54Z</time></trkpt><trkpt lat="45.025447" lon="11.6407493"><ele>6.142857142857142</ele><time>2026-04-12T08:55:02.485Z</time></trkpt><trkpt lat="45.0254582" lon="11.6406471"><ele>6.428571428571429</ele><time>2026-04-12T08:55:06.56Z</time></trkpt><trkpt lat="45.0254486" lon="11.6405563"><ele>6.714285714285714</ele><time>2026-04-12T08:55:10.589Z</time></trkpt><trkpt lat="45.0254153" lon="11.6404695"><ele>7.0</ele><time>2026-04-12T08:55:15.529Z</time></trkpt><trkpt lat="45.0253874" lon="11.6403894"><ele>7.0</ele><time>2026-04-12T08:55:24.524Z</time></trkpt><trkpt lat="45.0253219" lon="11.6404362"><ele>7.0</ele><time>2026-04-12T08:55:33.549Z</time></trkpt><trkpt lat="45.0252466" lon="11.640428"><ele>7.0</ele><time>2026-04-12T08:55:40.557Z</time></trkpt><trkpt lat="45.0251827" lon="11.6404428"><ele>7.0</ele><time>2026-04-12T08:55:46.552Z</time></trkpt><trkpt lat="45.0251198" lon="11.6404654"><ele>7.0</ele><time>2026-04-12T08:55:58.565Z</time></trkpt><trkpt lat="45.0250629" lon="11.6405302"><ele>7.0</ele><time>2026-04-12T08:56:19.549Z</time></trkpt><trkpt lat="45.0250063" lon="11.6405927"><ele>7.0</ele><time>2026-04-12T08:56:27.528Z</time></trkpt><trkpt lat="45.0250594" lon="11.6406586"><ele>7.0</ele><time>2026-04-12T08:56:50.549Z</time></trkpt><trkpt lat="45.0251106" lon="11.6407598"><ele>7.0</ele><time>2026-04-12T08:57:16.535Z</time></trkpt><trkpt lat="45.0251762" lon="11.6407527"><ele>7.0</ele><time>2026-04-12T08:57:24.583Z</time></trkpt><trkpt lat="45.0251297" lon="11.6406799"><ele>7.0</ele><time>2026-04-12T08:57:37.547Z</time></trkpt><trkpt lat="45.0250714" lon="11.6406443"><ele>7.0</ele><time>2026-04-12T08:57:48.545Z</time></trkpt><trkpt lat="45.0251242" lon="11.6405885"><ele>7.0</ele><time>2026-04-12T08:57:57.527Z</time></trkpt><trkpt lat="45.0250749" lon="11.6406775"><ele>7.0</ele><time>2026-04-12T08:58:15.46Z</time></trkpt><trkpt lat="45.025006" lon="11.6407196"><ele>7.000000000000001</ele><time>2026-04-12T08:58:19.698Z</time></trkpt><trkpt lat="45.0250688" lon="11.640763"><ele>7.0</ele><time>2026-04-12T08:58:38.974Z</time></trkpt><trkpt lat="45.0251154" lon="11.6406619"><ele>7.0</ele><time>2026-04-12T08:58:40.529Z</time></trkpt><trkpt lat="45.0250659" lon="11.640592"><ele>7.0</ele><time>2026-04-12T08:59:19.539Z</time></trkpt><trkpt lat="45.0251303" lon="11.6406189"><ele>7.000000000000001</ele><time>2026-04-12T09:01:01.634Z</time></trkpt><trkpt lat="45.0252194" lon="11.640637"><ele>7.0</ele><time>2026-04-12T09:01:04.614Z</time></trkpt><trkpt lat="45.0253073" lon="11.6406329"><ele>7.000000000000001</ele><time>2026-04-12T09:01:07.539Z</time></trkpt><trkpt lat="45.0253965" lon="11.640636"><ele>7.0</ele><time>2026-04-12T09:01:09.764Z</time></trkpt><trkpt lat="45.0252457" lon="11.6406294"><ele>7.0</ele><time>2026-04-12T09:01:17.586Z</time></trkpt><trkpt lat="45.0251818" lon="11.6406191"><ele>7.0</ele><time>2026-04-12T09:01:22.604Z</time></trkpt><trkpt lat="45.0252204" lon="11.6405446"><ele>7.000000000000001</ele><time>2026-04-12T09:02:08.509Z</time></trkpt><trkpt lat="45.0252728" lon="11.6404824"><ele>7.0</ele><time>2026-04-12T09:03:23.53Z</time></trkpt><trkpt lat="45.0253266" lon="11.6406263"><ele>7.0</ele><time>2026-04-12T09:03:27.609Z</time></trkpt><trkpt lat="45.0253509" lon="11.6407308"><ele>6.999999999999999</ele><time>2026-04-12T09:03:29.559Z</time></trkpt><trkpt lat="45.0252831" lon="11.6408699"><ele>6.999999999999999</ele><time>2026-04-12T09:03:45.154Z</time></trkpt><trkpt lat="45.0252743" lon="11.6410145"><ele>7.0</ele><time>2026-04-12T09:03:54.101Z</time></trkpt><trkpt lat="45.0252176" lon="11.6410841"><ele>7.0</ele><time>2026-04-12T09:04:09.386Z</time></trkpt><trkpt lat="45.0251612" lon="11.6405716"><ele>7.0</ele><time>2026-04-12T09:07:25.075Z</time></trkpt><trkpt lat="45.0249129" lon="11.6405656"><ele>7.0</ele><time>2026-04-12T09:09:43.578Z</time></trkpt><trkpt lat="45.0250908" lon="11.6405872"><ele>7.0</ele><time>2026-04-12T09:09:47.557Z</time></trkpt><trkpt lat="45.0251747" lon="11.6406162"><ele>7.000000000000001</ele><time>2026-04-12T09:09:51.557Z</time></trkpt><trkpt lat="45.0252381" lon="11.6406038"><ele>7.0</ele><time>2026-04-12T09:09:53.584Z</time></trkpt><trkpt lat="45.0253039" lon="11.640608"><ele>7.0</ele><time>2026-04-12T09:09:56.564Z</time></trkpt><trkpt lat="45.0252464" lon="11.6406881"><ele>7.0</ele><time>2026-04-12T09:10:06.538Z</time></trkpt><trkpt lat="45.0251814" lon="11.6406661"><ele>7.000000000000001</ele><time>2026-04-12T09:10:08.549Z</time></trkpt><trkpt lat="45.0251115" lon="11.6406278"><ele>7.0</ele><time>2026-04-12T09:10:11.538Z</time></trkpt><trkpt lat="45.0252092" lon="11.6405139"><ele>7.0</ele><time>2026-04-12T09:10:23.529Z</time></trkpt><trkpt lat="45.0251812" lon="11.6405948"><ele>7.0</ele><time>2026-04-12T09:14:07.604Z</time></trkpt><trkpt lat="45.0251264" lon="11.64064"><ele>7.0</ele><time>2026-04-12T09:17:42.547Z</time></trkpt><trkpt lat="45.025112" lon="11.6405461"><ele>7.0</ele><time>2026-04-12T09:46:03.557Z</time></trkpt><trkpt lat="45.0251577" lon="11.6406112"><ele>7.0</ele><time>2026-04-12T09:49:10.555Z</time></trkpt></trkseg></trk></gpx>